<?xml version="1.0" encoding="UTF-8" standalone="no" ?>
<gpx xmlns="http://www.topografix.com/GPX/1/1" xmlns:xsi="http://www.w3.org/2001/XMLSchema-instance" xsi:schemaLocation="http://www.topografix.com/GPX/1/1 http://www.topografix.com/GPX/1/1/gpx.xsd" version="1.1" creator="VisuGPX - https://www.visugpx.com">
  <metadata>
    <name>2018-08-20 Bike ride-Ambérieux-Rancé O via Neuville v38k</name>
    <desc><![CDATA[2018-08-20 Bike ride-Ambérieux-Rancé O via Neuville v38k]]></desc>
  </metadata>
  <wpt lat="45.92453" lon="4.73718">
    <ele>174</ele>
    <name><![CDATA[2018-08-20 09:52 (Start)]]></name>
  </wpt>
  <wpt lat="45.92458" lon="4.73706">
    <ele>174</ele>
    <name><![CDATA[2018-08-20 09:52 (End)]]></name>
  </wpt>
  <trk>
    <name><![CDATA[2018-08-20 09:52]]></name>
    <trkseg>
      <trkpt lat="45.92453" lon="4.73718">
        <ele>174</ele>
        <time>2018-08-20T07:52:01.665Z</time>
      </trkpt>
      <trkpt lat="45.92461" lon="4.73715">
        <ele>174</ele>
        <time>2018-08-20T07:52:22Z</time>
      </trkpt>
      <trkpt lat="45.92462" lon="4.73716">
        <ele>174</ele>
        <time>2018-08-20T07:52:23Z</time>
      </trkpt>
      <trkpt lat="45.92466" lon="4.73706">
        <ele>174</ele>
        <time>2018-08-20T07:52:29Z</time>
      </trkpt>
      <trkpt lat="45.92466" lon="4.73702">
        <ele>174</ele>
        <time>2018-08-20T07:52:30Z</time>
      </trkpt>
      <trkpt lat="45.92466" lon="4.73699">
        <ele>174</ele>
        <time>2018-08-20T07:52:31Z</time>
      </trkpt>
      <trkpt lat="45.92466" lon="4.73687">
        <ele>174</ele>
        <time>2018-08-20T07:52:32Z</time>
      </trkpt>
      <trkpt lat="45.92467" lon="4.73676">
        <ele>174</ele>
        <time>2018-08-20T07:52:36Z</time>
      </trkpt>
      <trkpt lat="45.92468" lon="4.73666">
        <ele>174</ele>
        <time>2018-08-20T07:52:37Z</time>
      </trkpt>
      <trkpt lat="45.9247" lon="4.73654">
        <ele>174</ele>
        <time>2018-08-20T07:52:41Z</time>
      </trkpt>
      <trkpt lat="45.92474" lon="4.73643">
        <ele>174</ele>
        <time>2018-08-20T07:52:42Z</time>
      </trkpt>
      <trkpt lat="45.92481" lon="4.73639">
        <ele>174</ele>
        <time>2018-08-20T07:52:45Z</time>
      </trkpt>
      <trkpt lat="45.92484" lon="4.73639">
        <ele>174</ele>
        <time>2018-08-20T07:52:46Z</time>
      </trkpt>
      <trkpt lat="45.92493" lon="4.7364">
        <ele>174</ele>
        <time>2018-08-20T07:52:47Z</time>
      </trkpt>
      <trkpt lat="45.92501" lon="4.73641">
        <ele>174</ele>
        <time>2018-08-20T07:52:49Z</time>
      </trkpt>
      <trkpt lat="45.92505" lon="4.73641">
        <ele>174</ele>
        <time>2018-08-20T07:52:50Z</time>
      </trkpt>
      <trkpt lat="45.92513" lon="4.73639">
        <ele>174</ele>
        <time>2018-08-20T07:52:52Z</time>
      </trkpt>
      <trkpt lat="45.92517" lon="4.73638">
        <ele>173</ele>
        <time>2018-08-20T07:52:53Z</time>
      </trkpt>
      <trkpt lat="45.92526" lon="4.73639">
        <ele>173</ele>
        <time>2018-08-20T07:52:55Z</time>
      </trkpt>
      <trkpt lat="45.92531" lon="4.73639">
        <ele>173</ele>
        <time>2018-08-20T07:52:56Z</time>
      </trkpt>
      <trkpt lat="45.92537" lon="4.73637">
        <ele>173</ele>
        <time>2018-08-20T07:52:57Z</time>
      </trkpt>
      <trkpt lat="45.92541" lon="4.73635">
        <ele>173</ele>
        <time>2018-08-20T07:52:58Z</time>
      </trkpt>
      <trkpt lat="45.92549" lon="4.73633">
        <ele>173</ele>
        <time>2018-08-20T07:53:00Z</time>
      </trkpt>
      <trkpt lat="45.92554" lon="4.73632">
        <ele>173</ele>
        <time>2018-08-20T07:53:01Z</time>
      </trkpt>
      <trkpt lat="45.92559" lon="4.73631">
        <ele>173</ele>
        <time>2018-08-20T07:53:02Z</time>
      </trkpt>
      <trkpt lat="45.92565" lon="4.73631">
        <ele>173</ele>
        <time>2018-08-20T07:53:03Z</time>
      </trkpt>
      <trkpt lat="45.92573" lon="4.73627">
        <ele>173</ele>
        <time>2018-08-20T07:53:05Z</time>
      </trkpt>
      <trkpt lat="45.92577" lon="4.73624">
        <ele>173</ele>
        <time>2018-08-20T07:53:06Z</time>
      </trkpt>
      <trkpt lat="45.92582" lon="4.73623">
        <ele>173</ele>
        <time>2018-08-20T07:53:07Z</time>
      </trkpt>
      <trkpt lat="45.92587" lon="4.73624">
        <ele>172</ele>
        <time>2018-08-20T07:53:08Z</time>
      </trkpt>
      <trkpt lat="45.92591" lon="4.73625">
        <ele>172</ele>
        <time>2018-08-20T07:53:09Z</time>
      </trkpt>
      <trkpt lat="45.92596" lon="4.73625">
        <ele>173</ele>
        <time>2018-08-20T07:53:10Z</time>
      </trkpt>
      <trkpt lat="45.92604" lon="4.73623">
        <ele>173</ele>
        <time>2018-08-20T07:53:12Z</time>
      </trkpt>
      <trkpt lat="45.92609" lon="4.73622">
        <ele>173</ele>
        <time>2018-08-20T07:53:13Z</time>
      </trkpt>
      <trkpt lat="45.92615" lon="4.73625">
        <ele>173</ele>
        <time>2018-08-20T07:53:14Z</time>
      </trkpt>
      <trkpt lat="45.92618" lon="4.73635">
        <ele>173</ele>
        <time>2018-08-20T07:53:15Z</time>
      </trkpt>
      <trkpt lat="45.92622" lon="4.7364">
        <ele>173</ele>
        <time>2018-08-20T07:53:16Z</time>
      </trkpt>
      <trkpt lat="45.92625" lon="4.73648">
        <ele>173</ele>
        <time>2018-08-20T07:53:17Z</time>
      </trkpt>
      <trkpt lat="45.92628" lon="4.73655">
        <ele>173</ele>
        <time>2018-08-20T07:53:18Z</time>
      </trkpt>
      <trkpt lat="45.92631" lon="4.73663">
        <ele>173</ele>
        <time>2018-08-20T07:53:19Z</time>
      </trkpt>
      <trkpt lat="45.92633" lon="4.73669">
        <ele>173</ele>
        <time>2018-08-20T07:53:20Z</time>
      </trkpt>
      <trkpt lat="45.92636" lon="4.73675">
        <ele>173</ele>
        <time>2018-08-20T07:53:21Z</time>
      </trkpt>
      <trkpt lat="45.9264" lon="4.7368">
        <ele>173</ele>
        <time>2018-08-20T07:53:22Z</time>
      </trkpt>
      <trkpt lat="45.92646" lon="4.73683">
        <ele>173</ele>
        <time>2018-08-20T07:53:23Z</time>
      </trkpt>
      <trkpt lat="45.92653" lon="4.7369">
        <ele>173</ele>
        <time>2018-08-20T07:53:25Z</time>
      </trkpt>
      <trkpt lat="45.92657" lon="4.73693">
        <ele>173</ele>
        <time>2018-08-20T07:53:26Z</time>
      </trkpt>
      <trkpt lat="45.92661" lon="4.73694">
        <ele>173</ele>
        <time>2018-08-20T07:53:27Z</time>
      </trkpt>
      <trkpt lat="45.92666" lon="4.73698">
        <ele>173</ele>
        <time>2018-08-20T07:53:28Z</time>
      </trkpt>
      <trkpt lat="45.92671" lon="4.73702">
        <ele>174</ele>
        <time>2018-08-20T07:53:29Z</time>
      </trkpt>
      <trkpt lat="45.92678" lon="4.73703">
        <ele>173</ele>
        <time>2018-08-20T07:53:30Z</time>
      </trkpt>
      <trkpt lat="45.92682" lon="4.73706">
        <ele>173</ele>
        <time>2018-08-20T07:53:31Z</time>
      </trkpt>
      <trkpt lat="45.92687" lon="4.73708">
        <ele>173</ele>
        <time>2018-08-20T07:53:32Z</time>
      </trkpt>
      <trkpt lat="45.92692" lon="4.73711">
        <ele>173</ele>
        <time>2018-08-20T07:53:33Z</time>
      </trkpt>
      <trkpt lat="45.92698" lon="4.73711">
        <ele>173</ele>
        <time>2018-08-20T07:53:34Z</time>
      </trkpt>
      <trkpt lat="45.92704" lon="4.73712">
        <ele>173</ele>
        <time>2018-08-20T07:53:35Z</time>
      </trkpt>
      <trkpt lat="45.9271" lon="4.73717">
        <ele>173</ele>
        <time>2018-08-20T07:53:36Z</time>
      </trkpt>
      <trkpt lat="45.92714" lon="4.7372">
        <ele>173</ele>
        <time>2018-08-20T07:53:37Z</time>
      </trkpt>
      <trkpt lat="45.9272" lon="4.73717">
        <ele>173</ele>
        <time>2018-08-20T07:53:38Z</time>
      </trkpt>
      <trkpt lat="45.92729" lon="4.73716">
        <ele>173</ele>
        <time>2018-08-20T07:53:40Z</time>
      </trkpt>
      <trkpt lat="45.92733" lon="4.73718">
        <ele>173</ele>
        <time>2018-08-20T07:53:41Z</time>
      </trkpt>
      <trkpt lat="45.92741" lon="4.7372">
        <ele>173</ele>
        <time>2018-08-20T07:53:43Z</time>
      </trkpt>
      <trkpt lat="45.92746" lon="4.73721">
        <ele>173</ele>
        <time>2018-08-20T07:53:44Z</time>
      </trkpt>
      <trkpt lat="45.92753" lon="4.73725">
        <ele>172</ele>
        <time>2018-08-20T07:53:46Z</time>
      </trkpt>
      <trkpt lat="45.9276" lon="4.73727">
        <ele>172</ele>
        <time>2018-08-20T07:53:47Z</time>
      </trkpt>
      <trkpt lat="45.92765" lon="4.73729">
        <ele>172</ele>
        <time>2018-08-20T07:53:48Z</time>
      </trkpt>
      <trkpt lat="45.9277" lon="4.73728">
        <ele>172</ele>
        <time>2018-08-20T07:53:49Z</time>
      </trkpt>
      <trkpt lat="45.92779" lon="4.73734">
        <ele>172</ele>
        <time>2018-08-20T07:53:52Z</time>
      </trkpt>
      <trkpt lat="45.9278" lon="4.73735">
        <ele>172</ele>
        <time>2018-08-20T07:53:53Z</time>
      </trkpt>
      <trkpt lat="45.92781" lon="4.73738">
        <ele>172</ele>
        <time>2018-08-20T07:53:54Z</time>
      </trkpt>
      <trkpt lat="45.92785" lon="4.73747">
        <ele>172</ele>
        <time>2018-08-20T07:53:55Z</time>
      </trkpt>
      <trkpt lat="45.92791" lon="4.73755">
        <ele>173</ele>
        <time>2018-08-20T07:53:57Z</time>
      </trkpt>
      <trkpt lat="45.92795" lon="4.73757">
        <ele>173</ele>
        <time>2018-08-20T07:53:58Z</time>
      </trkpt>
      <trkpt lat="45.928" lon="4.73761">
        <ele>173</ele>
        <time>2018-08-20T07:53:59Z</time>
      </trkpt>
      <trkpt lat="45.92804" lon="4.73762">
        <ele>173</ele>
        <time>2018-08-20T07:54:00Z</time>
      </trkpt>
      <trkpt lat="45.92809" lon="4.73765">
        <ele>173</ele>
        <time>2018-08-20T07:54:01Z</time>
      </trkpt>
      <trkpt lat="45.92814" lon="4.73767">
        <ele>173</ele>
        <time>2018-08-20T07:54:02Z</time>
      </trkpt>
      <trkpt lat="45.92819" lon="4.73769">
        <ele>173</ele>
        <time>2018-08-20T07:54:03Z</time>
      </trkpt>
      <trkpt lat="45.92824" lon="4.73773">
        <ele>173</ele>
        <time>2018-08-20T07:54:04Z</time>
      </trkpt>
      <trkpt lat="45.92829" lon="4.73777">
        <ele>173</ele>
        <time>2018-08-20T07:54:05Z</time>
      </trkpt>
      <trkpt lat="45.92833" lon="4.7378">
        <ele>173</ele>
        <time>2018-08-20T07:54:06Z</time>
      </trkpt>
      <trkpt lat="45.92838" lon="4.73785">
        <ele>173</ele>
        <time>2018-08-20T07:54:07Z</time>
      </trkpt>
      <trkpt lat="45.92843" lon="4.73789">
        <ele>173</ele>
        <time>2018-08-20T07:54:08Z</time>
      </trkpt>
      <trkpt lat="45.92848" lon="4.73793">
        <ele>173</ele>
        <time>2018-08-20T07:54:09Z</time>
      </trkpt>
      <trkpt lat="45.92852" lon="4.73799">
        <ele>173</ele>
        <time>2018-08-20T07:54:10Z</time>
      </trkpt>
      <trkpt lat="45.92856" lon="4.73804">
        <ele>173</ele>
        <time>2018-08-20T07:54:11Z</time>
      </trkpt>
      <trkpt lat="45.92859" lon="4.73812">
        <ele>173</ele>
        <time>2018-08-20T07:54:12Z</time>
      </trkpt>
      <trkpt lat="45.9286" lon="4.73821">
        <ele>173</ele>
        <time>2018-08-20T07:54:13Z</time>
      </trkpt>
      <trkpt lat="45.92863" lon="4.73829">
        <ele>173</ele>
        <time>2018-08-20T07:54:14Z</time>
      </trkpt>
      <trkpt lat="45.92865" lon="4.73836">
        <ele>173</ele>
        <time>2018-08-20T07:54:15Z</time>
      </trkpt>
      <trkpt lat="45.92867" lon="4.73841">
        <ele>173</ele>
        <time>2018-08-20T07:54:16Z</time>
      </trkpt>
      <trkpt lat="45.92869" lon="4.73851">
        <ele>173</ele>
        <time>2018-08-20T07:54:17Z</time>
      </trkpt>
      <trkpt lat="45.92872" lon="4.7386">
        <ele>173</ele>
        <time>2018-08-20T07:54:18Z</time>
      </trkpt>
      <trkpt lat="45.92874" lon="4.73867">
        <ele>173</ele>
        <time>2018-08-20T07:54:19Z</time>
      </trkpt>
      <trkpt lat="45.92874" lon="4.73876">
        <ele>173</ele>
        <time>2018-08-20T07:54:20Z</time>
      </trkpt>
      <trkpt lat="45.92872" lon="4.73885">
        <ele>173</ele>
        <time>2018-08-20T07:54:21Z</time>
      </trkpt>
      <trkpt lat="45.92875" lon="4.7389">
        <ele>173</ele>
        <time>2018-08-20T07:54:22Z</time>
      </trkpt>
      <trkpt lat="45.92876" lon="4.73899">
        <ele>173</ele>
        <time>2018-08-20T07:54:23Z</time>
      </trkpt>
      <trkpt lat="45.92878" lon="4.73904">
        <ele>173</ele>
        <time>2018-08-20T07:54:24Z</time>
      </trkpt>
      <trkpt lat="45.92877" lon="4.73915">
        <ele>173</ele>
        <time>2018-08-20T07:54:26Z</time>
      </trkpt>
      <trkpt lat="45.92878" lon="4.73922">
        <ele>172</ele>
        <time>2018-08-20T07:54:27Z</time>
      </trkpt>
      <trkpt lat="45.92879" lon="4.7393">
        <ele>172</ele>
        <time>2018-08-20T07:54:28Z</time>
      </trkpt>
      <trkpt lat="45.92879" lon="4.73938">
        <ele>172</ele>
        <time>2018-08-20T07:54:29Z</time>
      </trkpt>
      <trkpt lat="45.92881" lon="4.73946">
        <ele>172</ele>
        <time>2018-08-20T07:54:30Z</time>
      </trkpt>
      <trkpt lat="45.92881" lon="4.73952">
        <ele>172</ele>
        <time>2018-08-20T07:54:31Z</time>
      </trkpt>
      <trkpt lat="45.92881" lon="4.7396">
        <ele>172</ele>
        <time>2018-08-20T07:54:32Z</time>
      </trkpt>
      <trkpt lat="45.92881" lon="4.73966">
        <ele>172</ele>
        <time>2018-08-20T07:54:33Z</time>
      </trkpt>
      <trkpt lat="45.9288" lon="4.73972">
        <ele>172</ele>
        <time>2018-08-20T07:54:34Z</time>
      </trkpt>
      <trkpt lat="45.92879" lon="4.73979">
        <ele>172</ele>
        <time>2018-08-20T07:54:35Z</time>
      </trkpt>
      <trkpt lat="45.92878" lon="4.73986">
        <ele>172</ele>
        <time>2018-08-20T07:54:36Z</time>
      </trkpt>
      <trkpt lat="45.92876" lon="4.73993">
        <ele>172</ele>
        <time>2018-08-20T07:54:37Z</time>
      </trkpt>
      <trkpt lat="45.92877" lon="4.73999">
        <ele>172</ele>
        <time>2018-08-20T07:54:38Z</time>
      </trkpt>
      <trkpt lat="45.92876" lon="4.74006">
        <ele>172</ele>
        <time>2018-08-20T07:54:39Z</time>
      </trkpt>
      <trkpt lat="45.92876" lon="4.74013">
        <ele>172</ele>
        <time>2018-08-20T07:54:40Z</time>
      </trkpt>
      <trkpt lat="45.92875" lon="4.74021">
        <ele>172</ele>
        <time>2018-08-20T07:54:41Z</time>
      </trkpt>
      <trkpt lat="45.92872" lon="4.74027">
        <ele>172</ele>
        <time>2018-08-20T07:54:42Z</time>
      </trkpt>
      <trkpt lat="45.9287" lon="4.74034">
        <ele>172</ele>
        <time>2018-08-20T07:54:43Z</time>
      </trkpt>
      <trkpt lat="45.92866" lon="4.74039">
        <ele>172</ele>
        <time>2018-08-20T07:54:44Z</time>
      </trkpt>
      <trkpt lat="45.92863" lon="4.74044">
        <ele>172</ele>
        <time>2018-08-20T07:54:45Z</time>
      </trkpt>
      <trkpt lat="45.92859" lon="4.74049">
        <ele>172</ele>
        <time>2018-08-20T07:54:46Z</time>
      </trkpt>
      <trkpt lat="45.92855" lon="4.74054">
        <ele>172</ele>
        <time>2018-08-20T07:54:47Z</time>
      </trkpt>
      <trkpt lat="45.92851" lon="4.74059">
        <ele>172</ele>
        <time>2018-08-20T07:54:48Z</time>
      </trkpt>
      <trkpt lat="45.92849" lon="4.74065">
        <ele>172</ele>
        <time>2018-08-20T07:54:49Z</time>
      </trkpt>
      <trkpt lat="45.92844" lon="4.7407">
        <ele>172</ele>
        <time>2018-08-20T07:54:50Z</time>
      </trkpt>
      <trkpt lat="45.9284" lon="4.74076">
        <ele>171</ele>
        <time>2018-08-20T07:54:51Z</time>
      </trkpt>
      <trkpt lat="45.92835" lon="4.74081">
        <ele>171</ele>
        <time>2018-08-20T07:54:52Z</time>
      </trkpt>
      <trkpt lat="45.92831" lon="4.74087">
        <ele>171</ele>
        <time>2018-08-20T07:54:53Z</time>
      </trkpt>
      <trkpt lat="45.92827" lon="4.74093">
        <ele>171</ele>
        <time>2018-08-20T07:54:54Z</time>
      </trkpt>
      <trkpt lat="45.92823" lon="4.741">
        <ele>171</ele>
        <time>2018-08-20T07:54:55Z</time>
      </trkpt>
      <trkpt lat="45.92818" lon="4.74106">
        <ele>172</ele>
        <time>2018-08-20T07:54:56Z</time>
      </trkpt>
      <trkpt lat="45.92814" lon="4.74111">
        <ele>172</ele>
        <time>2018-08-20T07:54:57Z</time>
      </trkpt>
      <trkpt lat="45.92809" lon="4.74115">
        <ele>172</ele>
        <time>2018-08-20T07:54:58Z</time>
      </trkpt>
      <trkpt lat="45.92804" lon="4.7412">
        <ele>172</ele>
        <time>2018-08-20T07:54:59Z</time>
      </trkpt>
      <trkpt lat="45.92799" lon="4.74126">
        <ele>172</ele>
        <time>2018-08-20T07:55:00Z</time>
      </trkpt>
      <trkpt lat="45.92794" lon="4.74131">
        <ele>172</ele>
        <time>2018-08-20T07:55:01Z</time>
      </trkpt>
      <trkpt lat="45.92789" lon="4.74137">
        <ele>172</ele>
        <time>2018-08-20T07:55:02Z</time>
      </trkpt>
      <trkpt lat="45.92785" lon="4.74142">
        <ele>172</ele>
        <time>2018-08-20T07:55:03Z</time>
      </trkpt>
      <trkpt lat="45.9278" lon="4.74147">
        <ele>172</ele>
        <time>2018-08-20T07:55:04Z</time>
      </trkpt>
      <trkpt lat="45.92775" lon="4.74152">
        <ele>172</ele>
        <time>2018-08-20T07:55:05Z</time>
      </trkpt>
      <trkpt lat="45.92771" lon="4.74157">
        <ele>172</ele>
        <time>2018-08-20T07:55:06Z</time>
      </trkpt>
      <trkpt lat="45.92766" lon="4.74163">
        <ele>172</ele>
        <time>2018-08-20T07:55:07Z</time>
      </trkpt>
      <trkpt lat="45.92762" lon="4.74168">
        <ele>172</ele>
        <time>2018-08-20T07:55:08Z</time>
      </trkpt>
      <trkpt lat="45.92757" lon="4.74173">
        <ele>172</ele>
        <time>2018-08-20T07:55:09Z</time>
      </trkpt>
      <trkpt lat="45.92752" lon="4.74176">
        <ele>172</ele>
        <time>2018-08-20T07:55:10Z</time>
      </trkpt>
      <trkpt lat="45.92747" lon="4.74182">
        <ele>172</ele>
        <time>2018-08-20T07:55:11Z</time>
      </trkpt>
      <trkpt lat="45.92743" lon="4.74185">
        <ele>172</ele>
        <time>2018-08-20T07:55:12Z</time>
      </trkpt>
      <trkpt lat="45.92739" lon="4.74191">
        <ele>171</ele>
        <time>2018-08-20T07:55:13Z</time>
      </trkpt>
      <trkpt lat="45.92736" lon="4.74199">
        <ele>171</ele>
        <time>2018-08-20T07:55:14Z</time>
      </trkpt>
      <trkpt lat="45.92731" lon="4.74203">
        <ele>171</ele>
        <time>2018-08-20T07:55:15Z</time>
      </trkpt>
      <trkpt lat="45.92728" lon="4.74209">
        <ele>171</ele>
        <time>2018-08-20T07:55:16Z</time>
      </trkpt>
      <trkpt lat="45.92723" lon="4.74214">
        <ele>171</ele>
        <time>2018-08-20T07:55:17Z</time>
      </trkpt>
      <trkpt lat="45.92719" lon="4.7422">
        <ele>171</ele>
        <time>2018-08-20T07:55:18Z</time>
      </trkpt>
      <trkpt lat="45.92715" lon="4.74227">
        <ele>171</ele>
        <time>2018-08-20T07:55:19Z</time>
      </trkpt>
      <trkpt lat="45.92711" lon="4.74233">
        <ele>171</ele>
        <time>2018-08-20T07:55:20Z</time>
      </trkpt>
      <trkpt lat="45.92707" lon="4.74239">
        <ele>171</ele>
        <time>2018-08-20T07:55:21Z</time>
      </trkpt>
      <trkpt lat="45.92703" lon="4.74245">
        <ele>171</ele>
        <time>2018-08-20T07:55:22Z</time>
      </trkpt>
      <trkpt lat="45.92701" lon="4.74253">
        <ele>171</ele>
        <time>2018-08-20T07:55:23Z</time>
      </trkpt>
      <trkpt lat="45.92698" lon="4.74258">
        <ele>171</ele>
        <time>2018-08-20T07:55:24Z</time>
      </trkpt>
      <trkpt lat="45.92695" lon="4.74263">
        <ele>171</ele>
        <time>2018-08-20T07:55:25Z</time>
      </trkpt>
      <trkpt lat="45.92691" lon="4.74269">
        <ele>171</ele>
        <time>2018-08-20T07:55:26Z</time>
      </trkpt>
      <trkpt lat="45.92688" lon="4.74276">
        <ele>171</ele>
        <time>2018-08-20T07:55:27Z</time>
      </trkpt>
      <trkpt lat="45.92684" lon="4.74282">
        <ele>171</ele>
        <time>2018-08-20T07:55:28Z</time>
      </trkpt>
      <trkpt lat="45.92681" lon="4.74288">
        <ele>171</ele>
        <time>2018-08-20T07:55:29Z</time>
      </trkpt>
      <trkpt lat="45.92678" lon="4.74295">
        <ele>171</ele>
        <time>2018-08-20T07:55:30Z</time>
      </trkpt>
      <trkpt lat="45.92676" lon="4.74302">
        <ele>171</ele>
        <time>2018-08-20T07:55:31Z</time>
      </trkpt>
      <trkpt lat="45.92671" lon="4.74308">
        <ele>171</ele>
        <time>2018-08-20T07:55:32Z</time>
      </trkpt>
      <trkpt lat="45.92668" lon="4.74315">
        <ele>171</ele>
        <time>2018-08-20T07:55:33Z</time>
      </trkpt>
      <trkpt lat="45.92664" lon="4.74321">
        <ele>171</ele>
        <time>2018-08-20T07:55:34Z</time>
      </trkpt>
      <trkpt lat="45.9266" lon="4.74327">
        <ele>171</ele>
        <time>2018-08-20T07:55:35Z</time>
      </trkpt>
      <trkpt lat="45.92656" lon="4.74334">
        <ele>171</ele>
        <time>2018-08-20T07:55:36Z</time>
      </trkpt>
      <trkpt lat="45.92653" lon="4.74341">
        <ele>171</ele>
        <time>2018-08-20T07:55:37Z</time>
      </trkpt>
      <trkpt lat="45.92648" lon="4.74347">
        <ele>171</ele>
        <time>2018-08-20T07:55:38Z</time>
      </trkpt>
      <trkpt lat="45.92644" lon="4.74353">
        <ele>171</ele>
        <time>2018-08-20T07:55:39Z</time>
      </trkpt>
      <trkpt lat="45.9264" lon="4.74361">
        <ele>171</ele>
        <time>2018-08-20T07:55:40Z</time>
      </trkpt>
      <trkpt lat="45.92636" lon="4.74367">
        <ele>171</ele>
        <time>2018-08-20T07:55:41Z</time>
      </trkpt>
      <trkpt lat="45.92632" lon="4.74374">
        <ele>171</ele>
        <time>2018-08-20T07:55:42Z</time>
      </trkpt>
      <trkpt lat="45.92628" lon="4.74381">
        <ele>170</ele>
        <time>2018-08-20T07:55:43Z</time>
      </trkpt>
      <trkpt lat="45.92624" lon="4.74387">
        <ele>170</ele>
        <time>2018-08-20T07:55:44Z</time>
      </trkpt>
      <trkpt lat="45.92622" lon="4.74394">
        <ele>170</ele>
        <time>2018-08-20T07:55:45Z</time>
      </trkpt>
      <trkpt lat="45.92617" lon="4.74401">
        <ele>170</ele>
        <time>2018-08-20T07:55:46Z</time>
      </trkpt>
      <trkpt lat="45.92614" lon="4.74407">
        <ele>170</ele>
        <time>2018-08-20T07:55:47Z</time>
      </trkpt>
      <trkpt lat="45.9261" lon="4.74413">
        <ele>170</ele>
        <time>2018-08-20T07:55:48Z</time>
      </trkpt>
      <trkpt lat="45.92608" lon="4.7442">
        <ele>170</ele>
        <time>2018-08-20T07:55:49Z</time>
      </trkpt>
      <trkpt lat="45.92604" lon="4.74427">
        <ele>170</ele>
        <time>2018-08-20T07:55:50Z</time>
      </trkpt>
      <trkpt lat="45.926" lon="4.74434">
        <ele>170</ele>
        <time>2018-08-20T07:55:51Z</time>
      </trkpt>
      <trkpt lat="45.92596" lon="4.7444">
        <ele>170</ele>
        <time>2018-08-20T07:55:52Z</time>
      </trkpt>
      <trkpt lat="45.92592" lon="4.74446">
        <ele>170</ele>
        <time>2018-08-20T07:55:53Z</time>
      </trkpt>
      <trkpt lat="45.9259" lon="4.74453">
        <ele>170</ele>
        <time>2018-08-20T07:55:54Z</time>
      </trkpt>
      <trkpt lat="45.92585" lon="4.74459">
        <ele>170</ele>
        <time>2018-08-20T07:55:55Z</time>
      </trkpt>
      <trkpt lat="45.92582" lon="4.74466">
        <ele>170</ele>
        <time>2018-08-20T07:55:56Z</time>
      </trkpt>
      <trkpt lat="45.9258" lon="4.74473">
        <ele>170</ele>
        <time>2018-08-20T07:55:57Z</time>
      </trkpt>
      <trkpt lat="45.92576" lon="4.7448">
        <ele>170</ele>
        <time>2018-08-20T07:55:58Z</time>
      </trkpt>
      <trkpt lat="45.92572" lon="4.74487">
        <ele>170</ele>
        <time>2018-08-20T07:55:59Z</time>
      </trkpt>
      <trkpt lat="45.92569" lon="4.74493">
        <ele>170</ele>
        <time>2018-08-20T07:56:00Z</time>
      </trkpt>
      <trkpt lat="45.92565" lon="4.74502">
        <ele>170</ele>
        <time>2018-08-20T07:56:01Z</time>
      </trkpt>
      <trkpt lat="45.9256" lon="4.74508">
        <ele>170</ele>
        <time>2018-08-20T07:56:02Z</time>
      </trkpt>
      <trkpt lat="45.92556" lon="4.74515">
        <ele>170</ele>
        <time>2018-08-20T07:56:03Z</time>
      </trkpt>
      <trkpt lat="45.92552" lon="4.74523">
        <ele>170</ele>
        <time>2018-08-20T07:56:04Z</time>
      </trkpt>
      <trkpt lat="45.92547" lon="4.74529">
        <ele>170</ele>
        <time>2018-08-20T07:56:05Z</time>
      </trkpt>
      <trkpt lat="45.92544" lon="4.74536">
        <ele>170</ele>
        <time>2018-08-20T07:56:06Z</time>
      </trkpt>
      <trkpt lat="45.92539" lon="4.74542">
        <ele>171</ele>
        <time>2018-08-20T07:56:07Z</time>
      </trkpt>
      <trkpt lat="45.92535" lon="4.74549">
        <ele>171</ele>
        <time>2018-08-20T07:56:08Z</time>
      </trkpt>
      <trkpt lat="45.92532" lon="4.74556">
        <ele>171</ele>
        <time>2018-08-20T07:56:09Z</time>
      </trkpt>
      <trkpt lat="45.92527" lon="4.74561">
        <ele>171</ele>
        <time>2018-08-20T07:56:10Z</time>
      </trkpt>
      <trkpt lat="45.92522" lon="4.74566">
        <ele>171</ele>
        <time>2018-08-20T07:56:11Z</time>
      </trkpt>
      <trkpt lat="45.92518" lon="4.7457">
        <ele>171</ele>
        <time>2018-08-20T07:56:12Z</time>
      </trkpt>
      <trkpt lat="45.92513" lon="4.74576">
        <ele>171</ele>
        <time>2018-08-20T07:56:13Z</time>
      </trkpt>
      <trkpt lat="45.92508" lon="4.74581">
        <ele>171</ele>
        <time>2018-08-20T07:56:14Z</time>
      </trkpt>
      <trkpt lat="45.92503" lon="4.74587">
        <ele>171</ele>
        <time>2018-08-20T07:56:15Z</time>
      </trkpt>
      <trkpt lat="45.92499" lon="4.74593">
        <ele>171</ele>
        <time>2018-08-20T07:56:16Z</time>
      </trkpt>
      <trkpt lat="45.92494" lon="4.74599">
        <ele>171</ele>
        <time>2018-08-20T07:56:17Z</time>
      </trkpt>
      <trkpt lat="45.9249" lon="4.74605">
        <ele>171</ele>
        <time>2018-08-20T07:56:18Z</time>
      </trkpt>
      <trkpt lat="45.92486" lon="4.74611">
        <ele>171</ele>
        <time>2018-08-20T07:56:19Z</time>
      </trkpt>
      <trkpt lat="45.92482" lon="4.74616">
        <ele>171</ele>
        <time>2018-08-20T07:56:20Z</time>
      </trkpt>
      <trkpt lat="45.92477" lon="4.74621">
        <ele>171</ele>
        <time>2018-08-20T07:56:21Z</time>
      </trkpt>
      <trkpt lat="45.92473" lon="4.74628">
        <ele>171</ele>
        <time>2018-08-20T07:56:22Z</time>
      </trkpt>
      <trkpt lat="45.9247" lon="4.74634">
        <ele>171</ele>
        <time>2018-08-20T07:56:23Z</time>
      </trkpt>
      <trkpt lat="45.92466" lon="4.74641">
        <ele>171</ele>
        <time>2018-08-20T07:56:24Z</time>
      </trkpt>
      <trkpt lat="45.92463" lon="4.74648">
        <ele>171</ele>
        <time>2018-08-20T07:56:25Z</time>
      </trkpt>
      <trkpt lat="45.92458" lon="4.74654">
        <ele>171</ele>
        <time>2018-08-20T07:56:26Z</time>
      </trkpt>
      <trkpt lat="45.92454" lon="4.74661">
        <ele>171</ele>
        <time>2018-08-20T07:56:27Z</time>
      </trkpt>
      <trkpt lat="45.92451" lon="4.74667">
        <ele>171</ele>
        <time>2018-08-20T07:56:28Z</time>
      </trkpt>
      <trkpt lat="45.92448" lon="4.7467">
        <ele>171</ele>
        <time>2018-08-20T07:56:29Z</time>
      </trkpt>
      <trkpt lat="45.92444" lon="4.74676">
        <ele>171</ele>
        <time>2018-08-20T07:56:30Z</time>
      </trkpt>
      <trkpt lat="45.92438" lon="4.74681">
        <ele>171</ele>
        <time>2018-08-20T07:56:31Z</time>
      </trkpt>
      <trkpt lat="45.92433" lon="4.74687">
        <ele>171</ele>
        <time>2018-08-20T07:56:32Z</time>
      </trkpt>
      <trkpt lat="45.92433" lon="4.74696">
        <ele>171</ele>
        <time>2018-08-20T07:56:33Z</time>
      </trkpt>
      <trkpt lat="45.9243" lon="4.74706">
        <ele>171</ele>
        <time>2018-08-20T07:56:34Z</time>
      </trkpt>
      <trkpt lat="45.92429" lon="4.74714">
        <ele>171</ele>
        <time>2018-08-20T07:56:35Z</time>
      </trkpt>
      <trkpt lat="45.92426" lon="4.74724">
        <ele>171</ele>
        <time>2018-08-20T07:56:36Z</time>
      </trkpt>
      <trkpt lat="45.92424" lon="4.74732">
        <ele>171</ele>
        <time>2018-08-20T07:56:37Z</time>
      </trkpt>
      <trkpt lat="45.92421" lon="4.7474">
        <ele>172</ele>
        <time>2018-08-20T07:56:38Z</time>
      </trkpt>
      <trkpt lat="45.9242" lon="4.74748">
        <ele>172</ele>
        <time>2018-08-20T07:56:39Z</time>
      </trkpt>
      <trkpt lat="45.92417" lon="4.74757">
        <ele>172</ele>
        <time>2018-08-20T07:56:40Z</time>
      </trkpt>
      <trkpt lat="45.92415" lon="4.74766">
        <ele>172</ele>
        <time>2018-08-20T07:56:41Z</time>
      </trkpt>
      <trkpt lat="45.92413" lon="4.74776">
        <ele>171</ele>
        <time>2018-08-20T07:56:42Z</time>
      </trkpt>
      <trkpt lat="45.92411" lon="4.74785">
        <ele>171</ele>
        <time>2018-08-20T07:56:43Z</time>
      </trkpt>
      <trkpt lat="45.92409" lon="4.74793">
        <ele>171</ele>
        <time>2018-08-20T07:56:44Z</time>
      </trkpt>
      <trkpt lat="45.92407" lon="4.74802">
        <ele>171</ele>
        <time>2018-08-20T07:56:45Z</time>
      </trkpt>
      <trkpt lat="45.92405" lon="4.74812">
        <ele>171</ele>
        <time>2018-08-20T07:56:46Z</time>
      </trkpt>
      <trkpt lat="45.92403" lon="4.74821">
        <ele>171</ele>
        <time>2018-08-20T07:56:47Z</time>
      </trkpt>
      <trkpt lat="45.924" lon="4.74831">
        <ele>171</ele>
        <time>2018-08-20T07:56:48Z</time>
      </trkpt>
      <trkpt lat="45.92398" lon="4.74839">
        <ele>171</ele>
        <time>2018-08-20T07:56:49Z</time>
      </trkpt>
      <trkpt lat="45.92395" lon="4.7485">
        <ele>171</ele>
        <time>2018-08-20T07:56:50Z</time>
      </trkpt>
      <trkpt lat="45.92392" lon="4.74859">
        <ele>171</ele>
        <time>2018-08-20T07:56:51Z</time>
      </trkpt>
      <trkpt lat="45.92389" lon="4.74867">
        <ele>171</ele>
        <time>2018-08-20T07:56:52Z</time>
      </trkpt>
      <trkpt lat="45.92386" lon="4.74877">
        <ele>171</ele>
        <time>2018-08-20T07:56:53Z</time>
      </trkpt>
      <trkpt lat="45.92383" lon="4.74884">
        <ele>171</ele>
        <time>2018-08-20T07:56:54Z</time>
      </trkpt>
      <trkpt lat="45.9238" lon="4.74893">
        <ele>171</ele>
        <time>2018-08-20T07:56:55Z</time>
      </trkpt>
      <trkpt lat="45.92376" lon="4.74901">
        <ele>171</ele>
        <time>2018-08-20T07:56:56Z</time>
      </trkpt>
      <trkpt lat="45.92374" lon="4.74909">
        <ele>171</ele>
        <time>2018-08-20T07:56:57Z</time>
      </trkpt>
      <trkpt lat="45.92371" lon="4.74918">
        <ele>170</ele>
        <time>2018-08-20T07:56:58Z</time>
      </trkpt>
      <trkpt lat="45.92368" lon="4.74927">
        <ele>170</ele>
        <time>2018-08-20T07:56:59Z</time>
      </trkpt>
      <trkpt lat="45.92363" lon="4.74935">
        <ele>170</ele>
        <time>2018-08-20T07:57:00Z</time>
      </trkpt>
      <trkpt lat="45.9236" lon="4.74944">
        <ele>170</ele>
        <time>2018-08-20T07:57:01Z</time>
      </trkpt>
      <trkpt lat="45.92357" lon="4.74952">
        <ele>170</ele>
        <time>2018-08-20T07:57:02Z</time>
      </trkpt>
      <trkpt lat="45.92354" lon="4.74959">
        <ele>170</ele>
        <time>2018-08-20T07:57:03Z</time>
      </trkpt>
      <trkpt lat="45.92351" lon="4.74967">
        <ele>170</ele>
        <time>2018-08-20T07:57:04Z</time>
      </trkpt>
      <trkpt lat="45.92348" lon="4.74975">
        <ele>170</ele>
        <time>2018-08-20T07:57:05Z</time>
      </trkpt>
      <trkpt lat="45.92345" lon="4.74982">
        <ele>170</ele>
        <time>2018-08-20T07:57:06Z</time>
      </trkpt>
      <trkpt lat="45.9234" lon="4.7499">
        <ele>170</ele>
        <time>2018-08-20T07:57:07Z</time>
      </trkpt>
      <trkpt lat="45.92337" lon="4.74998">
        <ele>170</ele>
        <time>2018-08-20T07:57:08Z</time>
      </trkpt>
      <trkpt lat="45.92333" lon="4.75006">
        <ele>170</ele>
        <time>2018-08-20T07:57:09Z</time>
      </trkpt>
      <trkpt lat="45.92331" lon="4.75011">
        <ele>171</ele>
        <time>2018-08-20T07:57:10Z</time>
      </trkpt>
      <trkpt lat="45.92327" lon="4.75018">
        <ele>171</ele>
        <time>2018-08-20T07:57:11Z</time>
      </trkpt>
      <trkpt lat="45.92324" lon="4.75026">
        <ele>171</ele>
        <time>2018-08-20T07:57:12Z</time>
      </trkpt>
      <trkpt lat="45.9232" lon="4.75034">
        <ele>171</ele>
        <time>2018-08-20T07:57:13Z</time>
      </trkpt>
      <trkpt lat="45.92316" lon="4.7504">
        <ele>172</ele>
        <time>2018-08-20T07:57:14Z</time>
      </trkpt>
      <trkpt lat="45.92311" lon="4.75047">
        <ele>172</ele>
        <time>2018-08-20T07:57:15Z</time>
      </trkpt>
      <trkpt lat="45.92308" lon="4.75054">
        <ele>172</ele>
        <time>2018-08-20T07:57:16Z</time>
      </trkpt>
      <trkpt lat="45.92303" lon="4.75059">
        <ele>172</ele>
        <time>2018-08-20T07:57:17Z</time>
      </trkpt>
      <trkpt lat="45.923" lon="4.75066">
        <ele>172</ele>
        <time>2018-08-20T07:57:18Z</time>
      </trkpt>
      <trkpt lat="45.92295" lon="4.75072">
        <ele>172</ele>
        <time>2018-08-20T07:57:19Z</time>
      </trkpt>
      <trkpt lat="45.92291" lon="4.75077">
        <ele>172</ele>
        <time>2018-08-20T07:57:20Z</time>
      </trkpt>
      <trkpt lat="45.92286" lon="4.75083">
        <ele>172</ele>
        <time>2018-08-20T07:57:21Z</time>
      </trkpt>
      <trkpt lat="45.92281" lon="4.75087">
        <ele>173</ele>
        <time>2018-08-20T07:57:22Z</time>
      </trkpt>
      <trkpt lat="45.92276" lon="4.75093">
        <ele>173</ele>
        <time>2018-08-20T07:57:23Z</time>
      </trkpt>
      <trkpt lat="45.92271" lon="4.75098">
        <ele>173</ele>
        <time>2018-08-20T07:57:24Z</time>
      </trkpt>
      <trkpt lat="45.92266" lon="4.75104">
        <ele>173</ele>
        <time>2018-08-20T07:57:25Z</time>
      </trkpt>
      <trkpt lat="45.92261" lon="4.75108">
        <ele>174</ele>
        <time>2018-08-20T07:57:26Z</time>
      </trkpt>
      <trkpt lat="45.92257" lon="4.75113">
        <ele>174</ele>
        <time>2018-08-20T07:57:27Z</time>
      </trkpt>
      <trkpt lat="45.92253" lon="4.75118">
        <ele>174</ele>
        <time>2018-08-20T07:57:28Z</time>
      </trkpt>
      <trkpt lat="45.92249" lon="4.75123">
        <ele>174</ele>
        <time>2018-08-20T07:57:29Z</time>
      </trkpt>
      <trkpt lat="45.92244" lon="4.75128">
        <ele>174</ele>
        <time>2018-08-20T07:57:30Z</time>
      </trkpt>
      <trkpt lat="45.9224" lon="4.75133">
        <ele>174</ele>
        <time>2018-08-20T07:57:31Z</time>
      </trkpt>
      <trkpt lat="45.92236" lon="4.75139">
        <ele>174</ele>
        <time>2018-08-20T07:57:32Z</time>
      </trkpt>
      <trkpt lat="45.92232" lon="4.75145">
        <ele>174</ele>
        <time>2018-08-20T07:57:33Z</time>
      </trkpt>
      <trkpt lat="45.9223" lon="4.75152">
        <ele>174</ele>
        <time>2018-08-20T07:57:34Z</time>
      </trkpt>
      <trkpt lat="45.92226" lon="4.75159">
        <ele>174</ele>
        <time>2018-08-20T07:57:35Z</time>
      </trkpt>
      <trkpt lat="45.92225" lon="4.75166">
        <ele>174</ele>
        <time>2018-08-20T07:57:36Z</time>
      </trkpt>
      <trkpt lat="45.92222" lon="4.75173">
        <ele>175</ele>
        <time>2018-08-20T07:57:37Z</time>
      </trkpt>
      <trkpt lat="45.9222" lon="4.75179">
        <ele>175</ele>
        <time>2018-08-20T07:57:38Z</time>
      </trkpt>
      <trkpt lat="45.92218" lon="4.75187">
        <ele>175</ele>
        <time>2018-08-20T07:57:39Z</time>
      </trkpt>
      <trkpt lat="45.92216" lon="4.75194">
        <ele>175</ele>
        <time>2018-08-20T07:57:40Z</time>
      </trkpt>
      <trkpt lat="45.92215" lon="4.75201">
        <ele>175</ele>
        <time>2018-08-20T07:57:41Z</time>
      </trkpt>
      <trkpt lat="45.92213" lon="4.75208">
        <ele>175</ele>
        <time>2018-08-20T07:57:42Z</time>
      </trkpt>
      <trkpt lat="45.92213" lon="4.75216">
        <ele>175</ele>
        <time>2018-08-20T07:57:43Z</time>
      </trkpt>
      <trkpt lat="45.92213" lon="4.75224">
        <ele>175</ele>
        <time>2018-08-20T07:57:44Z</time>
      </trkpt>
      <trkpt lat="45.92213" lon="4.75232">
        <ele>175</ele>
        <time>2018-08-20T07:57:45Z</time>
      </trkpt>
      <trkpt lat="45.92212" lon="4.7524">
        <ele>175</ele>
        <time>2018-08-20T07:57:46Z</time>
      </trkpt>
      <trkpt lat="45.92212" lon="4.75247">
        <ele>175</ele>
        <time>2018-08-20T07:57:47Z</time>
      </trkpt>
      <trkpt lat="45.92212" lon="4.75253">
        <ele>175</ele>
        <time>2018-08-20T07:57:48Z</time>
      </trkpt>
      <trkpt lat="45.92211" lon="4.75261">
        <ele>176</ele>
        <time>2018-08-20T07:57:49Z</time>
      </trkpt>
      <trkpt lat="45.92211" lon="4.75268">
        <ele>176</ele>
        <time>2018-08-20T07:57:50Z</time>
      </trkpt>
      <trkpt lat="45.92211" lon="4.75275">
        <ele>176</ele>
        <time>2018-08-20T07:57:51Z</time>
      </trkpt>
      <trkpt lat="45.92211" lon="4.75282">
        <ele>176</ele>
        <time>2018-08-20T07:57:52Z</time>
      </trkpt>
      <trkpt lat="45.92211" lon="4.75292">
        <ele>176</ele>
        <time>2018-08-20T07:57:53Z</time>
      </trkpt>
      <trkpt lat="45.9221" lon="4.75304">
        <ele>176</ele>
        <time>2018-08-20T07:57:55Z</time>
      </trkpt>
      <trkpt lat="45.92211" lon="4.75309">
        <ele>176</ele>
        <time>2018-08-20T07:57:56Z</time>
      </trkpt>
      <trkpt lat="45.92208" lon="4.75321">
        <ele>176</ele>
        <time>2018-08-20T07:57:58Z</time>
      </trkpt>
      <trkpt lat="45.92208" lon="4.75329">
        <ele>176</ele>
        <time>2018-08-20T07:57:59Z</time>
      </trkpt>
      <trkpt lat="45.92207" lon="4.75336">
        <ele>177</ele>
        <time>2018-08-20T07:58:00Z</time>
      </trkpt>
      <trkpt lat="45.92204" lon="4.75344">
        <ele>177</ele>
        <time>2018-08-20T07:58:01Z</time>
      </trkpt>
      <trkpt lat="45.92204" lon="4.75351">
        <ele>177</ele>
        <time>2018-08-20T07:58:02Z</time>
      </trkpt>
      <trkpt lat="45.92201" lon="4.75358">
        <ele>177</ele>
        <time>2018-08-20T07:58:03Z</time>
      </trkpt>
      <trkpt lat="45.92198" lon="4.75365">
        <ele>177</ele>
        <time>2018-08-20T07:58:04Z</time>
      </trkpt>
      <trkpt lat="45.92196" lon="4.75372">
        <ele>177</ele>
        <time>2018-08-20T07:58:05Z</time>
      </trkpt>
      <trkpt lat="45.92193" lon="4.75378">
        <ele>177</ele>
        <time>2018-08-20T07:58:06Z</time>
      </trkpt>
      <trkpt lat="45.92191" lon="4.75384">
        <ele>177</ele>
        <time>2018-08-20T07:58:07Z</time>
      </trkpt>
      <trkpt lat="45.92188" lon="4.75391">
        <ele>177</ele>
        <time>2018-08-20T07:58:08Z</time>
      </trkpt>
      <trkpt lat="45.92186" lon="4.75396">
        <ele>177</ele>
        <time>2018-08-20T07:58:09Z</time>
      </trkpt>
      <trkpt lat="45.92183" lon="4.75403">
        <ele>177</ele>
        <time>2018-08-20T07:58:10Z</time>
      </trkpt>
      <trkpt lat="45.9218" lon="4.75409">
        <ele>177</ele>
        <time>2018-08-20T07:58:11Z</time>
      </trkpt>
      <trkpt lat="45.92176" lon="4.75416">
        <ele>178</ele>
        <time>2018-08-20T07:58:12Z</time>
      </trkpt>
      <trkpt lat="45.92173" lon="4.75424">
        <ele>177</ele>
        <time>2018-08-20T07:58:13Z</time>
      </trkpt>
      <trkpt lat="45.92171" lon="4.75433">
        <ele>177</ele>
        <time>2018-08-20T07:58:14Z</time>
      </trkpt>
      <trkpt lat="45.92168" lon="4.7544">
        <ele>177</ele>
        <time>2018-08-20T07:58:15Z</time>
      </trkpt>
      <trkpt lat="45.92165" lon="4.75447">
        <ele>177</ele>
        <time>2018-08-20T07:58:16Z</time>
      </trkpt>
      <trkpt lat="45.92161" lon="4.75454">
        <ele>176</ele>
        <time>2018-08-20T07:58:17Z</time>
      </trkpt>
      <trkpt lat="45.92157" lon="4.75462">
        <ele>176</ele>
        <time>2018-08-20T07:58:18Z</time>
      </trkpt>
      <trkpt lat="45.92153" lon="4.7547">
        <ele>176</ele>
        <time>2018-08-20T07:58:19Z</time>
      </trkpt>
      <trkpt lat="45.9215" lon="4.75478">
        <ele>176</ele>
        <time>2018-08-20T07:58:20Z</time>
      </trkpt>
      <trkpt lat="45.92146" lon="4.75486">
        <ele>176</ele>
        <time>2018-08-20T07:58:21Z</time>
      </trkpt>
      <trkpt lat="45.92142" lon="4.75494">
        <ele>176</ele>
        <time>2018-08-20T07:58:22Z</time>
      </trkpt>
      <trkpt lat="45.92138" lon="4.75503">
        <ele>174</ele>
        <time>2018-08-20T07:58:23Z</time>
      </trkpt>
      <trkpt lat="45.92135" lon="4.7551">
        <ele>174</ele>
        <time>2018-08-20T07:58:24Z</time>
      </trkpt>
      <trkpt lat="45.92131" lon="4.75516">
        <ele>174</ele>
        <time>2018-08-20T07:58:25Z</time>
      </trkpt>
      <trkpt lat="45.92127" lon="4.75522">
        <ele>174</ele>
        <time>2018-08-20T07:58:26Z</time>
      </trkpt>
      <trkpt lat="45.92124" lon="4.75528">
        <ele>174</ele>
        <time>2018-08-20T07:58:27Z</time>
      </trkpt>
      <trkpt lat="45.9212" lon="4.75535">
        <ele>174</ele>
        <time>2018-08-20T07:58:28Z</time>
      </trkpt>
      <trkpt lat="45.92117" lon="4.75542">
        <ele>174</ele>
        <time>2018-08-20T07:58:29Z</time>
      </trkpt>
      <trkpt lat="45.92113" lon="4.75548">
        <ele>174</ele>
        <time>2018-08-20T07:58:30Z</time>
      </trkpt>
      <trkpt lat="45.92109" lon="4.75555">
        <ele>174</ele>
        <time>2018-08-20T07:58:31Z</time>
      </trkpt>
      <trkpt lat="45.92105" lon="4.75562">
        <ele>174</ele>
        <time>2018-08-20T07:58:32Z</time>
      </trkpt>
      <trkpt lat="45.921" lon="4.75567">
        <ele>174</ele>
        <time>2018-08-20T07:58:33Z</time>
      </trkpt>
      <trkpt lat="45.92096" lon="4.75574">
        <ele>174</ele>
        <time>2018-08-20T07:58:34Z</time>
      </trkpt>
      <trkpt lat="45.92092" lon="4.7558">
        <ele>174</ele>
        <time>2018-08-20T07:58:35Z</time>
      </trkpt>
      <trkpt lat="45.92089" lon="4.75588">
        <ele>174</ele>
        <time>2018-08-20T07:58:36Z</time>
      </trkpt>
      <trkpt lat="45.92087" lon="4.75598">
        <ele>174</ele>
        <time>2018-08-20T07:58:37Z</time>
      </trkpt>
      <trkpt lat="45.92084" lon="4.75605">
        <ele>174</ele>
        <time>2018-08-20T07:58:38Z</time>
      </trkpt>
      <trkpt lat="45.92081" lon="4.75611">
        <ele>175</ele>
        <time>2018-08-20T07:58:39Z</time>
      </trkpt>
      <trkpt lat="45.92078" lon="4.75617">
        <ele>175</ele>
        <time>2018-08-20T07:58:40Z</time>
      </trkpt>
      <trkpt lat="45.92074" lon="4.75622">
        <ele>175</ele>
        <time>2018-08-20T07:58:41Z</time>
      </trkpt>
      <trkpt lat="45.92071" lon="4.75629">
        <ele>175</ele>
        <time>2018-08-20T07:58:42Z</time>
      </trkpt>
      <trkpt lat="45.92067" lon="4.75636">
        <ele>175</ele>
        <time>2018-08-20T07:58:43Z</time>
      </trkpt>
      <trkpt lat="45.92063" lon="4.75644">
        <ele>175</ele>
        <time>2018-08-20T07:58:44Z</time>
      </trkpt>
      <trkpt lat="45.9206" lon="4.75651">
        <ele>175</ele>
        <time>2018-08-20T07:58:45Z</time>
      </trkpt>
      <trkpt lat="45.92056" lon="4.75656">
        <ele>175</ele>
        <time>2018-08-20T07:58:46Z</time>
      </trkpt>
      <trkpt lat="45.92052" lon="4.75662">
        <ele>175</ele>
        <time>2018-08-20T07:58:47Z</time>
      </trkpt>
      <trkpt lat="45.92048" lon="4.75669">
        <ele>175</ele>
        <time>2018-08-20T07:58:48Z</time>
      </trkpt>
      <trkpt lat="45.92043" lon="4.75675">
        <ele>175</ele>
        <time>2018-08-20T07:58:49Z</time>
      </trkpt>
      <trkpt lat="45.92039" lon="4.75682">
        <ele>175</ele>
        <time>2018-08-20T07:58:50Z</time>
      </trkpt>
      <trkpt lat="45.92035" lon="4.7569">
        <ele>175</ele>
        <time>2018-08-20T07:58:51Z</time>
      </trkpt>
      <trkpt lat="45.92032" lon="4.75696">
        <ele>175</ele>
        <time>2018-08-20T07:58:52Z</time>
      </trkpt>
      <trkpt lat="45.92029" lon="4.75703">
        <ele>175</ele>
        <time>2018-08-20T07:58:53Z</time>
      </trkpt>
      <trkpt lat="45.92026" lon="4.7571">
        <ele>175</ele>
        <time>2018-08-20T07:58:54Z</time>
      </trkpt>
      <trkpt lat="45.92023" lon="4.75718">
        <ele>175</ele>
        <time>2018-08-20T07:58:55Z</time>
      </trkpt>
      <trkpt lat="45.9202" lon="4.75725">
        <ele>175</ele>
        <time>2018-08-20T07:58:56Z</time>
      </trkpt>
      <trkpt lat="45.92016" lon="4.75733">
        <ele>175</ele>
        <time>2018-08-20T07:58:57Z</time>
      </trkpt>
      <trkpt lat="45.92012" lon="4.7574">
        <ele>174</ele>
        <time>2018-08-20T07:58:58Z</time>
      </trkpt>
      <trkpt lat="45.92008" lon="4.75747">
        <ele>174</ele>
        <time>2018-08-20T07:58:59Z</time>
      </trkpt>
      <trkpt lat="45.92002" lon="4.75755">
        <ele>174</ele>
        <time>2018-08-20T07:59:00Z</time>
      </trkpt>
      <trkpt lat="45.91998" lon="4.75762">
        <ele>174</ele>
        <time>2018-08-20T07:59:01Z</time>
      </trkpt>
      <trkpt lat="45.91994" lon="4.75769">
        <ele>174</ele>
        <time>2018-08-20T07:59:02Z</time>
      </trkpt>
      <trkpt lat="45.91989" lon="4.75777">
        <ele>174</ele>
        <time>2018-08-20T07:59:03Z</time>
      </trkpt>
      <trkpt lat="45.91985" lon="4.75783">
        <ele>173</ele>
        <time>2018-08-20T07:59:04Z</time>
      </trkpt>
      <trkpt lat="45.91983" lon="4.75796">
        <ele>173</ele>
        <time>2018-08-20T07:59:05Z</time>
      </trkpt>
      <trkpt lat="45.91979" lon="4.75802">
        <ele>173</ele>
        <time>2018-08-20T07:59:06Z</time>
      </trkpt>
      <trkpt lat="45.91975" lon="4.7581">
        <ele>173</ele>
        <time>2018-08-20T07:59:07Z</time>
      </trkpt>
      <trkpt lat="45.9197" lon="4.75815">
        <ele>173</ele>
        <time>2018-08-20T07:59:08Z</time>
      </trkpt>
      <trkpt lat="45.91968" lon="4.75822">
        <ele>173</ele>
        <time>2018-08-20T07:59:09Z</time>
      </trkpt>
      <trkpt lat="45.91964" lon="4.7583">
        <ele>173</ele>
        <time>2018-08-20T07:59:10Z</time>
      </trkpt>
      <trkpt lat="45.9196" lon="4.75837">
        <ele>172</ele>
        <time>2018-08-20T07:59:11Z</time>
      </trkpt>
      <trkpt lat="45.91957" lon="4.75844">
        <ele>172</ele>
        <time>2018-08-20T07:59:12Z</time>
      </trkpt>
      <trkpt lat="45.91953" lon="4.75851">
        <ele>172</ele>
        <time>2018-08-20T07:59:13Z</time>
      </trkpt>
      <trkpt lat="45.91949" lon="4.75858">
        <ele>172</ele>
        <time>2018-08-20T07:59:14Z</time>
      </trkpt>
      <trkpt lat="45.91946" lon="4.75865">
        <ele>172</ele>
        <time>2018-08-20T07:59:15Z</time>
      </trkpt>
      <trkpt lat="45.91942" lon="4.75872">
        <ele>172</ele>
        <time>2018-08-20T07:59:16Z</time>
      </trkpt>
      <trkpt lat="45.91938" lon="4.7588">
        <ele>172</ele>
        <time>2018-08-20T07:59:17Z</time>
      </trkpt>
      <trkpt lat="45.91935" lon="4.75888">
        <ele>172</ele>
        <time>2018-08-20T07:59:18Z</time>
      </trkpt>
      <trkpt lat="45.91931" lon="4.75896">
        <ele>172</ele>
        <time>2018-08-20T07:59:19Z</time>
      </trkpt>
      <trkpt lat="45.91929" lon="4.75903">
        <ele>172</ele>
        <time>2018-08-20T07:59:20Z</time>
      </trkpt>
      <trkpt lat="45.91926" lon="4.7591">
        <ele>172</ele>
        <time>2018-08-20T07:59:21Z</time>
      </trkpt>
      <trkpt lat="45.91924" lon="4.75918">
        <ele>172</ele>
        <time>2018-08-20T07:59:22Z</time>
      </trkpt>
      <trkpt lat="45.91921" lon="4.75925">
        <ele>172</ele>
        <time>2018-08-20T07:59:23Z</time>
      </trkpt>
      <trkpt lat="45.91919" lon="4.75935">
        <ele>172</ele>
        <time>2018-08-20T07:59:24Z</time>
      </trkpt>
      <trkpt lat="45.91918" lon="4.75944">
        <ele>172</ele>
        <time>2018-08-20T07:59:25Z</time>
      </trkpt>
      <trkpt lat="45.91916" lon="4.7595">
        <ele>173</ele>
        <time>2018-08-20T07:59:26Z</time>
      </trkpt>
      <trkpt lat="45.91914" lon="4.75959">
        <ele>173</ele>
        <time>2018-08-20T07:59:27Z</time>
      </trkpt>
      <trkpt lat="45.91912" lon="4.75966">
        <ele>173</ele>
        <time>2018-08-20T07:59:28Z</time>
      </trkpt>
      <trkpt lat="45.91909" lon="4.75973">
        <ele>173</ele>
        <time>2018-08-20T07:59:29Z</time>
      </trkpt>
      <trkpt lat="45.91908" lon="4.75981">
        <ele>173</ele>
        <time>2018-08-20T07:59:30Z</time>
      </trkpt>
      <trkpt lat="45.91905" lon="4.75989">
        <ele>173</ele>
        <time>2018-08-20T07:59:31Z</time>
      </trkpt>
      <trkpt lat="45.91903" lon="4.75995">
        <ele>173</ele>
        <time>2018-08-20T07:59:32Z</time>
      </trkpt>
      <trkpt lat="45.91902" lon="4.76003">
        <ele>173</ele>
        <time>2018-08-20T07:59:33Z</time>
      </trkpt>
      <trkpt lat="45.91901" lon="4.76011">
        <ele>173</ele>
        <time>2018-08-20T07:59:34Z</time>
      </trkpt>
      <trkpt lat="45.91899" lon="4.76019">
        <ele>173</ele>
        <time>2018-08-20T07:59:35Z</time>
      </trkpt>
      <trkpt lat="45.91897" lon="4.76028">
        <ele>173</ele>
        <time>2018-08-20T07:59:36Z</time>
      </trkpt>
      <trkpt lat="45.91894" lon="4.76035">
        <ele>173</ele>
        <time>2018-08-20T07:59:37Z</time>
      </trkpt>
      <trkpt lat="45.91894" lon="4.76043">
        <ele>173</ele>
        <time>2018-08-20T07:59:38Z</time>
      </trkpt>
      <trkpt lat="45.91892" lon="4.76051">
        <ele>173</ele>
        <time>2018-08-20T07:59:39Z</time>
      </trkpt>
      <trkpt lat="45.91889" lon="4.76057">
        <ele>173</ele>
        <time>2018-08-20T07:59:40Z</time>
      </trkpt>
      <trkpt lat="45.91888" lon="4.76063">
        <ele>173</ele>
        <time>2018-08-20T07:59:41Z</time>
      </trkpt>
      <trkpt lat="45.91885" lon="4.76071">
        <ele>173</ele>
        <time>2018-08-20T07:59:42Z</time>
      </trkpt>
      <trkpt lat="45.91884" lon="4.76078">
        <ele>173</ele>
        <time>2018-08-20T07:59:43Z</time>
      </trkpt>
      <trkpt lat="45.91882" lon="4.76086">
        <ele>172</ele>
        <time>2018-08-20T07:59:44Z</time>
      </trkpt>
      <trkpt lat="45.91882" lon="4.76094">
        <ele>172</ele>
        <time>2018-08-20T07:59:45Z</time>
      </trkpt>
      <trkpt lat="45.91879" lon="4.76103">
        <ele>173</ele>
        <time>2018-08-20T07:59:46Z</time>
      </trkpt>
      <trkpt lat="45.91877" lon="4.76111">
        <ele>173</ele>
        <time>2018-08-20T07:59:47Z</time>
      </trkpt>
      <trkpt lat="45.91877" lon="4.76118">
        <ele>173</ele>
        <time>2018-08-20T07:59:48Z</time>
      </trkpt>
      <trkpt lat="45.91875" lon="4.76125">
        <ele>172</ele>
        <time>2018-08-20T07:59:49Z</time>
      </trkpt>
      <trkpt lat="45.91873" lon="4.76133">
        <ele>172</ele>
        <time>2018-08-20T07:59:50Z</time>
      </trkpt>
      <trkpt lat="45.91872" lon="4.76141">
        <ele>172</ele>
        <time>2018-08-20T07:59:51Z</time>
      </trkpt>
      <trkpt lat="45.91869" lon="4.76148">
        <ele>172</ele>
        <time>2018-08-20T07:59:52Z</time>
      </trkpt>
      <trkpt lat="45.91866" lon="4.76155">
        <ele>173</ele>
        <time>2018-08-20T07:59:53Z</time>
      </trkpt>
      <trkpt lat="45.91863" lon="4.76163">
        <ele>173</ele>
        <time>2018-08-20T07:59:54Z</time>
      </trkpt>
      <trkpt lat="45.91861" lon="4.76171">
        <ele>172</ele>
        <time>2018-08-20T07:59:55Z</time>
      </trkpt>
      <trkpt lat="45.9186" lon="4.7618">
        <ele>172</ele>
        <time>2018-08-20T07:59:56Z</time>
      </trkpt>
      <trkpt lat="45.91859" lon="4.76189">
        <ele>172</ele>
        <time>2018-08-20T07:59:57Z</time>
      </trkpt>
      <trkpt lat="45.91856" lon="4.76196">
        <ele>172</ele>
        <time>2018-08-20T07:59:58Z</time>
      </trkpt>
      <trkpt lat="45.91853" lon="4.76204">
        <ele>172</ele>
        <time>2018-08-20T07:59:59Z</time>
      </trkpt>
      <trkpt lat="45.91851" lon="4.76212">
        <ele>172</ele>
        <time>2018-08-20T08:00:00Z</time>
      </trkpt>
      <trkpt lat="45.91849" lon="4.76221">
        <ele>172</ele>
        <time>2018-08-20T08:00:01Z</time>
      </trkpt>
      <trkpt lat="45.91846" lon="4.76228">
        <ele>172</ele>
        <time>2018-08-20T08:00:02Z</time>
      </trkpt>
      <trkpt lat="45.91843" lon="4.76235">
        <ele>173</ele>
        <time>2018-08-20T08:00:03Z</time>
      </trkpt>
      <trkpt lat="45.91841" lon="4.76243">
        <ele>173</ele>
        <time>2018-08-20T08:00:04Z</time>
      </trkpt>
      <trkpt lat="45.91839" lon="4.7625">
        <ele>173</ele>
        <time>2018-08-20T08:00:05Z</time>
      </trkpt>
      <trkpt lat="45.91837" lon="4.76257">
        <ele>173</ele>
        <time>2018-08-20T08:00:06Z</time>
      </trkpt>
      <trkpt lat="45.91836" lon="4.76264">
        <ele>173</ele>
        <time>2018-08-20T08:00:07Z</time>
      </trkpt>
      <trkpt lat="45.91834" lon="4.76272">
        <ele>172</ele>
        <time>2018-08-20T08:00:08Z</time>
      </trkpt>
      <trkpt lat="45.91831" lon="4.7628">
        <ele>174</ele>
        <time>2018-08-20T08:00:09Z</time>
      </trkpt>
      <trkpt lat="45.91828" lon="4.76288">
        <ele>174</ele>
        <time>2018-08-20T08:00:10Z</time>
      </trkpt>
      <trkpt lat="45.91827" lon="4.76295">
        <ele>174</ele>
        <time>2018-08-20T08:00:11Z</time>
      </trkpt>
      <trkpt lat="45.91824" lon="4.76302">
        <ele>174</ele>
        <time>2018-08-20T08:00:12Z</time>
      </trkpt>
      <trkpt lat="45.91823" lon="4.7631">
        <ele>174</ele>
        <time>2018-08-20T08:00:13Z</time>
      </trkpt>
      <trkpt lat="45.91821" lon="4.76318">
        <ele>174</ele>
        <time>2018-08-20T08:00:14Z</time>
      </trkpt>
      <trkpt lat="45.91819" lon="4.76326">
        <ele>174</ele>
        <time>2018-08-20T08:00:15Z</time>
      </trkpt>
      <trkpt lat="45.91817" lon="4.76335">
        <ele>174</ele>
        <time>2018-08-20T08:00:16Z</time>
      </trkpt>
      <trkpt lat="45.91817" lon="4.76343">
        <ele>174</ele>
        <time>2018-08-20T08:00:17Z</time>
      </trkpt>
      <trkpt lat="45.91816" lon="4.76356">
        <ele>174</ele>
        <time>2018-08-20T08:00:19Z</time>
      </trkpt>
      <trkpt lat="45.91815" lon="4.76364">
        <ele>174</ele>
        <time>2018-08-20T08:00:20Z</time>
      </trkpt>
      <trkpt lat="45.91815" lon="4.76371">
        <ele>174</ele>
        <time>2018-08-20T08:00:21Z</time>
      </trkpt>
      <trkpt lat="45.91815" lon="4.76377">
        <ele>174</ele>
        <time>2018-08-20T08:00:22Z</time>
      </trkpt>
      <trkpt lat="45.91815" lon="4.76384">
        <ele>174</ele>
        <time>2018-08-20T08:00:23Z</time>
      </trkpt>
      <trkpt lat="45.91816" lon="4.76391">
        <ele>173</ele>
        <time>2018-08-20T08:00:24Z</time>
      </trkpt>
      <trkpt lat="45.91815" lon="4.76398">
        <ele>173</ele>
        <time>2018-08-20T08:00:25Z</time>
      </trkpt>
      <trkpt lat="45.91813" lon="4.76405">
        <ele>173</ele>
        <time>2018-08-20T08:00:26Z</time>
      </trkpt>
      <trkpt lat="45.91813" lon="4.76412">
        <ele>173</ele>
        <time>2018-08-20T08:00:27Z</time>
      </trkpt>
      <trkpt lat="45.91812" lon="4.76421">
        <ele>173</ele>
        <time>2018-08-20T08:00:28Z</time>
      </trkpt>
      <trkpt lat="45.91812" lon="4.76428">
        <ele>173</ele>
        <time>2018-08-20T08:00:29Z</time>
      </trkpt>
      <trkpt lat="45.91812" lon="4.76437">
        <ele>173</ele>
        <time>2018-08-20T08:00:30Z</time>
      </trkpt>
      <trkpt lat="45.91811" lon="4.76444">
        <ele>173</ele>
        <time>2018-08-20T08:00:31Z</time>
      </trkpt>
      <trkpt lat="45.9181" lon="4.76452">
        <ele>173</ele>
        <time>2018-08-20T08:00:32Z</time>
      </trkpt>
      <trkpt lat="45.91809" lon="4.7646">
        <ele>173</ele>
        <time>2018-08-20T08:00:33Z</time>
      </trkpt>
      <trkpt lat="45.91808" lon="4.76468">
        <ele>173</ele>
        <time>2018-08-20T08:00:34Z</time>
      </trkpt>
      <trkpt lat="45.91808" lon="4.76476">
        <ele>173</ele>
        <time>2018-08-20T08:00:35Z</time>
      </trkpt>
      <trkpt lat="45.91809" lon="4.76485">
        <ele>173</ele>
        <time>2018-08-20T08:00:36Z</time>
      </trkpt>
      <trkpt lat="45.91808" lon="4.76493">
        <ele>173</ele>
        <time>2018-08-20T08:00:37Z</time>
      </trkpt>
      <trkpt lat="45.91808" lon="4.76501">
        <ele>173</ele>
        <time>2018-08-20T08:00:38Z</time>
      </trkpt>
      <trkpt lat="45.91809" lon="4.76511">
        <ele>173</ele>
        <time>2018-08-20T08:00:39Z</time>
      </trkpt>
      <trkpt lat="45.91807" lon="4.76518">
        <ele>173</ele>
        <time>2018-08-20T08:00:40Z</time>
      </trkpt>
      <trkpt lat="45.91808" lon="4.76527">
        <ele>173</ele>
        <time>2018-08-20T08:00:41Z</time>
      </trkpt>
      <trkpt lat="45.91806" lon="4.76535">
        <ele>173</ele>
        <time>2018-08-20T08:00:42Z</time>
      </trkpt>
      <trkpt lat="45.91806" lon="4.76543">
        <ele>173</ele>
        <time>2018-08-20T08:00:43Z</time>
      </trkpt>
      <trkpt lat="45.91806" lon="4.76551">
        <ele>173</ele>
        <time>2018-08-20T08:00:44Z</time>
      </trkpt>
      <trkpt lat="45.91804" lon="4.7656">
        <ele>173</ele>
        <time>2018-08-20T08:00:45Z</time>
      </trkpt>
      <trkpt lat="45.91803" lon="4.76568">
        <ele>173</ele>
        <time>2018-08-20T08:00:46Z</time>
      </trkpt>
      <trkpt lat="45.91802" lon="4.76576">
        <ele>173</ele>
        <time>2018-08-20T08:00:47Z</time>
      </trkpt>
      <trkpt lat="45.91802" lon="4.76586">
        <ele>173</ele>
        <time>2018-08-20T08:00:48Z</time>
      </trkpt>
      <trkpt lat="45.91801" lon="4.76595">
        <ele>173</ele>
        <time>2018-08-20T08:00:49Z</time>
      </trkpt>
      <trkpt lat="45.918" lon="4.76604">
        <ele>173</ele>
        <time>2018-08-20T08:00:50Z</time>
      </trkpt>
      <trkpt lat="45.91799" lon="4.76612">
        <ele>173</ele>
        <time>2018-08-20T08:00:51Z</time>
      </trkpt>
      <trkpt lat="45.91798" lon="4.76622">
        <ele>173</ele>
        <time>2018-08-20T08:00:52Z</time>
      </trkpt>
      <trkpt lat="45.91797" lon="4.76631">
        <ele>173</ele>
        <time>2018-08-20T08:00:53Z</time>
      </trkpt>
      <trkpt lat="45.91796" lon="4.7664">
        <ele>173</ele>
        <time>2018-08-20T08:00:54Z</time>
      </trkpt>
      <trkpt lat="45.91795" lon="4.76649">
        <ele>173</ele>
        <time>2018-08-20T08:00:55Z</time>
      </trkpt>
      <trkpt lat="45.91794" lon="4.76658">
        <ele>173</ele>
        <time>2018-08-20T08:00:56Z</time>
      </trkpt>
      <trkpt lat="45.91792" lon="4.76666">
        <ele>173</ele>
        <time>2018-08-20T08:00:57Z</time>
      </trkpt>
      <trkpt lat="45.9179" lon="4.76676">
        <ele>172</ele>
        <time>2018-08-20T08:00:58Z</time>
      </trkpt>
      <trkpt lat="45.9179" lon="4.76684">
        <ele>172</ele>
        <time>2018-08-20T08:00:59Z</time>
      </trkpt>
      <trkpt lat="45.91789" lon="4.76693">
        <ele>172</ele>
        <time>2018-08-20T08:01:00Z</time>
      </trkpt>
      <trkpt lat="45.91787" lon="4.767">
        <ele>172</ele>
        <time>2018-08-20T08:01:01Z</time>
      </trkpt>
      <trkpt lat="45.91785" lon="4.76709">
        <ele>172</ele>
        <time>2018-08-20T08:01:02Z</time>
      </trkpt>
      <trkpt lat="45.91783" lon="4.76718">
        <ele>172</ele>
        <time>2018-08-20T08:01:03Z</time>
      </trkpt>
      <trkpt lat="45.91782" lon="4.76728">
        <ele>172</ele>
        <time>2018-08-20T08:01:04Z</time>
      </trkpt>
      <trkpt lat="45.9178" lon="4.76738">
        <ele>172</ele>
        <time>2018-08-20T08:01:05Z</time>
      </trkpt>
      <trkpt lat="45.91781" lon="4.76748">
        <ele>172</ele>
        <time>2018-08-20T08:01:06Z</time>
      </trkpt>
      <trkpt lat="45.9178" lon="4.76758">
        <ele>171</ele>
        <time>2018-08-20T08:01:07Z</time>
      </trkpt>
      <trkpt lat="45.9178" lon="4.76768">
        <ele>171</ele>
        <time>2018-08-20T08:01:08Z</time>
      </trkpt>
      <trkpt lat="45.91779" lon="4.76779">
        <ele>171</ele>
        <time>2018-08-20T08:01:09Z</time>
      </trkpt>
      <trkpt lat="45.91778" lon="4.76789">
        <ele>171</ele>
        <time>2018-08-20T08:01:10Z</time>
      </trkpt>
      <trkpt lat="45.9178" lon="4.76799">
        <ele>171</ele>
        <time>2018-08-20T08:01:11Z</time>
      </trkpt>
      <trkpt lat="45.9178" lon="4.76809">
        <ele>171</ele>
        <time>2018-08-20T08:01:12Z</time>
      </trkpt>
      <trkpt lat="45.91781" lon="4.76819">
        <ele>171</ele>
        <time>2018-08-20T08:01:13Z</time>
      </trkpt>
      <trkpt lat="45.91781" lon="4.76829">
        <ele>171</ele>
        <time>2018-08-20T08:01:14Z</time>
      </trkpt>
      <trkpt lat="45.9178" lon="4.76842">
        <ele>170</ele>
        <time>2018-08-20T08:01:15Z</time>
      </trkpt>
      <trkpt lat="45.91779" lon="4.76851">
        <ele>170</ele>
        <time>2018-08-20T08:01:16Z</time>
      </trkpt>
      <trkpt lat="45.91778" lon="4.7686">
        <ele>170</ele>
        <time>2018-08-20T08:01:17Z</time>
      </trkpt>
      <trkpt lat="45.91777" lon="4.76871">
        <ele>170</ele>
        <time>2018-08-20T08:01:18Z</time>
      </trkpt>
      <trkpt lat="45.91778" lon="4.7688">
        <ele>170</ele>
        <time>2018-08-20T08:01:19Z</time>
      </trkpt>
      <trkpt lat="45.91778" lon="4.7689">
        <ele>170</ele>
        <time>2018-08-20T08:01:20Z</time>
      </trkpt>
      <trkpt lat="45.91777" lon="4.76903">
        <ele>170</ele>
        <time>2018-08-20T08:01:21Z</time>
      </trkpt>
      <trkpt lat="45.91777" lon="4.76914">
        <ele>170</ele>
        <time>2018-08-20T08:01:22Z</time>
      </trkpt>
      <trkpt lat="45.91775" lon="4.76924">
        <ele>170</ele>
        <time>2018-08-20T08:01:23Z</time>
      </trkpt>
      <trkpt lat="45.91773" lon="4.76933">
        <ele>169</ele>
        <time>2018-08-20T08:01:24Z</time>
      </trkpt>
      <trkpt lat="45.91771" lon="4.76942">
        <ele>169</ele>
        <time>2018-08-20T08:01:25Z</time>
      </trkpt>
      <trkpt lat="45.9177" lon="4.76952">
        <ele>169</ele>
        <time>2018-08-20T08:01:26Z</time>
      </trkpt>
      <trkpt lat="45.91769" lon="4.76962">
        <ele>169</ele>
        <time>2018-08-20T08:01:27Z</time>
      </trkpt>
      <trkpt lat="45.91769" lon="4.76971">
        <ele>169</ele>
        <time>2018-08-20T08:01:28Z</time>
      </trkpt>
      <trkpt lat="45.91768" lon="4.76979">
        <ele>169</ele>
        <time>2018-08-20T08:01:29Z</time>
      </trkpt>
      <trkpt lat="45.91767" lon="4.7699">
        <ele>169</ele>
        <time>2018-08-20T08:01:30Z</time>
      </trkpt>
      <trkpt lat="45.91765" lon="4.76999">
        <ele>169</ele>
        <time>2018-08-20T08:01:31Z</time>
      </trkpt>
      <trkpt lat="45.91765" lon="4.77008">
        <ele>169</ele>
        <time>2018-08-20T08:01:32Z</time>
      </trkpt>
      <trkpt lat="45.91763" lon="4.77017">
        <ele>169</ele>
        <time>2018-08-20T08:01:33Z</time>
      </trkpt>
      <trkpt lat="45.91761" lon="4.77027">
        <ele>169</ele>
        <time>2018-08-20T08:01:34Z</time>
      </trkpt>
      <trkpt lat="45.91761" lon="4.77036">
        <ele>168</ele>
        <time>2018-08-20T08:01:35Z</time>
      </trkpt>
      <trkpt lat="45.91761" lon="4.77045">
        <ele>168</ele>
        <time>2018-08-20T08:01:36Z</time>
      </trkpt>
      <trkpt lat="45.9176" lon="4.77054">
        <ele>169</ele>
        <time>2018-08-20T08:01:37Z</time>
      </trkpt>
      <trkpt lat="45.91759" lon="4.77064">
        <ele>169</ele>
        <time>2018-08-20T08:01:38Z</time>
      </trkpt>
      <trkpt lat="45.91758" lon="4.77072">
        <ele>169</ele>
        <time>2018-08-20T08:01:39Z</time>
      </trkpt>
      <trkpt lat="45.91756" lon="4.7708">
        <ele>169</ele>
        <time>2018-08-20T08:01:40Z</time>
      </trkpt>
      <trkpt lat="45.91756" lon="4.77089">
        <ele>169</ele>
        <time>2018-08-20T08:01:41Z</time>
      </trkpt>
      <trkpt lat="45.91755" lon="4.77097">
        <ele>169</ele>
        <time>2018-08-20T08:01:42Z</time>
      </trkpt>
      <trkpt lat="45.91754" lon="4.77106">
        <ele>169</ele>
        <time>2018-08-20T08:01:43Z</time>
      </trkpt>
      <trkpt lat="45.91754" lon="4.77114">
        <ele>169</ele>
        <time>2018-08-20T08:01:44Z</time>
      </trkpt>
      <trkpt lat="45.91752" lon="4.77122">
        <ele>169</ele>
        <time>2018-08-20T08:01:45Z</time>
      </trkpt>
      <trkpt lat="45.91753" lon="4.77132">
        <ele>169</ele>
        <time>2018-08-20T08:01:46Z</time>
      </trkpt>
      <trkpt lat="45.9175" lon="4.7714">
        <ele>170</ele>
        <time>2018-08-20T08:01:47Z</time>
      </trkpt>
      <trkpt lat="45.91748" lon="4.77149">
        <ele>170</ele>
        <time>2018-08-20T08:01:48Z</time>
      </trkpt>
      <trkpt lat="45.91745" lon="4.77157">
        <ele>170</ele>
        <time>2018-08-20T08:01:49Z</time>
      </trkpt>
      <trkpt lat="45.91744" lon="4.77166">
        <ele>170</ele>
        <time>2018-08-20T08:01:50Z</time>
      </trkpt>
      <trkpt lat="45.91742" lon="4.77176">
        <ele>170</ele>
        <time>2018-08-20T08:01:51Z</time>
      </trkpt>
      <trkpt lat="45.91741" lon="4.77185">
        <ele>170</ele>
        <time>2018-08-20T08:01:52Z</time>
      </trkpt>
      <trkpt lat="45.9174" lon="4.77194">
        <ele>170</ele>
        <time>2018-08-20T08:01:53Z</time>
      </trkpt>
      <trkpt lat="45.91738" lon="4.77203">
        <ele>170</ele>
        <time>2018-08-20T08:01:54Z</time>
      </trkpt>
      <trkpt lat="45.91737" lon="4.7721">
        <ele>170</ele>
        <time>2018-08-20T08:01:55Z</time>
      </trkpt>
      <trkpt lat="45.91735" lon="4.7722">
        <ele>170</ele>
        <time>2018-08-20T08:01:56Z</time>
      </trkpt>
      <trkpt lat="45.91734" lon="4.77229">
        <ele>170</ele>
        <time>2018-08-20T08:01:57Z</time>
      </trkpt>
      <trkpt lat="45.91732" lon="4.77237">
        <ele>169</ele>
        <time>2018-08-20T08:01:58Z</time>
      </trkpt>
      <trkpt lat="45.9173" lon="4.77245">
        <ele>169</ele>
        <time>2018-08-20T08:01:59Z</time>
      </trkpt>
      <trkpt lat="45.91729" lon="4.77253">
        <ele>170</ele>
        <time>2018-08-20T08:02:00Z</time>
      </trkpt>
      <trkpt lat="45.91727" lon="4.77261">
        <ele>170</ele>
        <time>2018-08-20T08:02:01Z</time>
      </trkpt>
      <trkpt lat="45.91727" lon="4.77269">
        <ele>170</ele>
        <time>2018-08-20T08:02:02Z</time>
      </trkpt>
      <trkpt lat="45.91725" lon="4.77277">
        <ele>170</ele>
        <time>2018-08-20T08:02:03Z</time>
      </trkpt>
      <trkpt lat="45.91724" lon="4.77286">
        <ele>170</ele>
        <time>2018-08-20T08:02:04Z</time>
      </trkpt>
      <trkpt lat="45.91722" lon="4.77294">
        <ele>170</ele>
        <time>2018-08-20T08:02:05Z</time>
      </trkpt>
      <trkpt lat="45.91721" lon="4.77304">
        <ele>170</ele>
        <time>2018-08-20T08:02:06Z</time>
      </trkpt>
      <trkpt lat="45.91719" lon="4.77312">
        <ele>170</ele>
        <time>2018-08-20T08:02:07Z</time>
      </trkpt>
      <trkpt lat="45.91719" lon="4.77322">
        <ele>170</ele>
        <time>2018-08-20T08:02:08Z</time>
      </trkpt>
      <trkpt lat="45.91718" lon="4.77331">
        <ele>170</ele>
        <time>2018-08-20T08:02:09Z</time>
      </trkpt>
      <trkpt lat="45.91716" lon="4.7734">
        <ele>170</ele>
        <time>2018-08-20T08:02:10Z</time>
      </trkpt>
      <trkpt lat="45.91716" lon="4.77349">
        <ele>171</ele>
        <time>2018-08-20T08:02:11Z</time>
      </trkpt>
      <trkpt lat="45.91715" lon="4.77356">
        <ele>171</ele>
        <time>2018-08-20T08:02:12Z</time>
      </trkpt>
      <trkpt lat="45.91713" lon="4.77365">
        <ele>171</ele>
        <time>2018-08-20T08:02:13Z</time>
      </trkpt>
      <trkpt lat="45.91711" lon="4.77373">
        <ele>171</ele>
        <time>2018-08-20T08:02:14Z</time>
      </trkpt>
      <trkpt lat="45.91709" lon="4.7738">
        <ele>171</ele>
        <time>2018-08-20T08:02:15Z</time>
      </trkpt>
      <trkpt lat="45.91709" lon="4.77388">
        <ele>171</ele>
        <time>2018-08-20T08:02:16Z</time>
      </trkpt>
      <trkpt lat="45.91706" lon="4.77396">
        <ele>171</ele>
        <time>2018-08-20T08:02:17Z</time>
      </trkpt>
      <trkpt lat="45.91705" lon="4.77403">
        <ele>171</ele>
        <time>2018-08-20T08:02:18Z</time>
      </trkpt>
      <trkpt lat="45.91702" lon="4.7741">
        <ele>171</ele>
        <time>2018-08-20T08:02:19Z</time>
      </trkpt>
      <trkpt lat="45.91701" lon="4.77418">
        <ele>171</ele>
        <time>2018-08-20T08:02:20Z</time>
      </trkpt>
      <trkpt lat="45.917" lon="4.77426">
        <ele>171</ele>
        <time>2018-08-20T08:02:21Z</time>
      </trkpt>
      <trkpt lat="45.91699" lon="4.77435">
        <ele>171</ele>
        <time>2018-08-20T08:02:22Z</time>
      </trkpt>
      <trkpt lat="45.917" lon="4.77443">
        <ele>171</ele>
        <time>2018-08-20T08:02:23Z</time>
      </trkpt>
      <trkpt lat="45.91702" lon="4.77451">
        <ele>171</ele>
        <time>2018-08-20T08:02:24Z</time>
      </trkpt>
      <trkpt lat="45.91698" lon="4.77458">
        <ele>171</ele>
        <time>2018-08-20T08:02:25Z</time>
      </trkpt>
      <trkpt lat="45.91695" lon="4.77466">
        <ele>171</ele>
        <time>2018-08-20T08:02:26Z</time>
      </trkpt>
      <trkpt lat="45.91694" lon="4.77473">
        <ele>170</ele>
        <time>2018-08-20T08:02:27Z</time>
      </trkpt>
      <trkpt lat="45.91693" lon="4.77481">
        <ele>170</ele>
        <time>2018-08-20T08:02:28Z</time>
      </trkpt>
      <trkpt lat="45.91693" lon="4.77489">
        <ele>170</ele>
        <time>2018-08-20T08:02:29Z</time>
      </trkpt>
      <trkpt lat="45.91693" lon="4.77497">
        <ele>170</ele>
        <time>2018-08-20T08:02:30Z</time>
      </trkpt>
      <trkpt lat="45.91693" lon="4.77505">
        <ele>170</ele>
        <time>2018-08-20T08:02:31Z</time>
      </trkpt>
      <trkpt lat="45.91692" lon="4.77514">
        <ele>170</ele>
        <time>2018-08-20T08:02:32Z</time>
      </trkpt>
      <trkpt lat="45.91689" lon="4.77522">
        <ele>169</ele>
        <time>2018-08-20T08:02:33Z</time>
      </trkpt>
      <trkpt lat="45.91688" lon="4.77531">
        <ele>169</ele>
        <time>2018-08-20T08:02:34Z</time>
      </trkpt>
      <trkpt lat="45.91686" lon="4.7754">
        <ele>169</ele>
        <time>2018-08-20T08:02:35Z</time>
      </trkpt>
      <trkpt lat="45.91684" lon="4.77549">
        <ele>169</ele>
        <time>2018-08-20T08:02:36Z</time>
      </trkpt>
      <trkpt lat="45.91682" lon="4.77558">
        <ele>169</ele>
        <time>2018-08-20T08:02:37Z</time>
      </trkpt>
      <trkpt lat="45.9168" lon="4.77567">
        <ele>169</ele>
        <time>2018-08-20T08:02:38Z</time>
      </trkpt>
      <trkpt lat="45.91677" lon="4.77576">
        <ele>169</ele>
        <time>2018-08-20T08:02:39Z</time>
      </trkpt>
      <trkpt lat="45.91675" lon="4.77585">
        <ele>169</ele>
        <time>2018-08-20T08:02:40Z</time>
      </trkpt>
      <trkpt lat="45.91673" lon="4.77594">
        <ele>169</ele>
        <time>2018-08-20T08:02:41Z</time>
      </trkpt>
      <trkpt lat="45.91671" lon="4.77604">
        <ele>169</ele>
        <time>2018-08-20T08:02:42Z</time>
      </trkpt>
      <trkpt lat="45.91667" lon="4.77614">
        <ele>169</ele>
        <time>2018-08-20T08:02:43Z</time>
      </trkpt>
      <trkpt lat="45.91666" lon="4.77622">
        <ele>170</ele>
        <time>2018-08-20T08:02:44Z</time>
      </trkpt>
      <trkpt lat="45.91665" lon="4.77631">
        <ele>170</ele>
        <time>2018-08-20T08:02:45Z</time>
      </trkpt>
      <trkpt lat="45.91663" lon="4.77638">
        <ele>170</ele>
        <time>2018-08-20T08:02:46Z</time>
      </trkpt>
      <trkpt lat="45.91662" lon="4.77646">
        <ele>170</ele>
        <time>2018-08-20T08:02:47Z</time>
      </trkpt>
      <trkpt lat="45.91659" lon="4.77658">
        <ele>170</ele>
        <time>2018-08-20T08:02:49Z</time>
      </trkpt>
      <trkpt lat="45.91657" lon="4.77665">
        <ele>170</ele>
        <time>2018-08-20T08:02:50Z</time>
      </trkpt>
      <trkpt lat="45.91657" lon="4.77672">
        <ele>170</ele>
        <time>2018-08-20T08:02:51Z</time>
      </trkpt>
      <trkpt lat="45.91658" lon="4.7768">
        <ele>170</ele>
        <time>2018-08-20T08:02:52Z</time>
      </trkpt>
      <trkpt lat="45.91656" lon="4.77687">
        <ele>170</ele>
        <time>2018-08-20T08:02:53Z</time>
      </trkpt>
      <trkpt lat="45.91655" lon="4.77695">
        <ele>170</ele>
        <time>2018-08-20T08:02:54Z</time>
      </trkpt>
      <trkpt lat="45.91654" lon="4.77701">
        <ele>170</ele>
        <time>2018-08-20T08:02:55Z</time>
      </trkpt>
      <trkpt lat="45.91653" lon="4.7771">
        <ele>170</ele>
        <time>2018-08-20T08:02:56Z</time>
      </trkpt>
      <trkpt lat="45.91651" lon="4.7772">
        <ele>170</ele>
        <time>2018-08-20T08:02:57Z</time>
      </trkpt>
      <trkpt lat="45.91648" lon="4.77731">
        <ele>170</ele>
        <time>2018-08-20T08:02:58Z</time>
      </trkpt>
      <trkpt lat="45.91646" lon="4.77741">
        <ele>170</ele>
        <time>2018-08-20T08:02:59Z</time>
      </trkpt>
      <trkpt lat="45.91644" lon="4.77748">
        <ele>170</ele>
        <time>2018-08-20T08:03:00Z</time>
      </trkpt>
      <trkpt lat="45.91641" lon="4.77758">
        <ele>171</ele>
        <time>2018-08-20T08:03:01Z</time>
      </trkpt>
      <trkpt lat="45.91638" lon="4.77767">
        <ele>171</ele>
        <time>2018-08-20T08:03:02Z</time>
      </trkpt>
      <trkpt lat="45.91635" lon="4.77776">
        <ele>171</ele>
        <time>2018-08-20T08:03:03Z</time>
      </trkpt>
      <trkpt lat="45.91631" lon="4.77782">
        <ele>171</ele>
        <time>2018-08-20T08:03:04Z</time>
      </trkpt>
      <trkpt lat="45.91628" lon="4.77789">
        <ele>172</ele>
        <time>2018-08-20T08:03:05Z</time>
      </trkpt>
      <trkpt lat="45.91624" lon="4.77798">
        <ele>172</ele>
        <time>2018-08-20T08:03:06Z</time>
      </trkpt>
      <trkpt lat="45.91622" lon="4.77806">
        <ele>172</ele>
        <time>2018-08-20T08:03:07Z</time>
      </trkpt>
      <trkpt lat="45.9162" lon="4.77816">
        <ele>172</ele>
        <time>2018-08-20T08:03:08Z</time>
      </trkpt>
      <trkpt lat="45.91616" lon="4.77823">
        <ele>173</ele>
        <time>2018-08-20T08:03:09Z</time>
      </trkpt>
      <trkpt lat="45.91612" lon="4.77829">
        <ele>173</ele>
        <time>2018-08-20T08:03:10Z</time>
      </trkpt>
      <trkpt lat="45.91608" lon="4.77836">
        <ele>173</ele>
        <time>2018-08-20T08:03:11Z</time>
      </trkpt>
      <trkpt lat="45.91604" lon="4.77844">
        <ele>173</ele>
        <time>2018-08-20T08:03:12Z</time>
      </trkpt>
      <trkpt lat="45.91599" lon="4.77852">
        <ele>173</ele>
        <time>2018-08-20T08:03:13Z</time>
      </trkpt>
      <trkpt lat="45.91595" lon="4.77859">
        <ele>173</ele>
        <time>2018-08-20T08:03:14Z</time>
      </trkpt>
      <trkpt lat="45.91591" lon="4.77867">
        <ele>173</ele>
        <time>2018-08-20T08:03:15Z</time>
      </trkpt>
      <trkpt lat="45.91589" lon="4.77874">
        <ele>173</ele>
        <time>2018-08-20T08:03:16Z</time>
      </trkpt>
      <trkpt lat="45.91586" lon="4.7788">
        <ele>173</ele>
        <time>2018-08-20T08:03:17Z</time>
      </trkpt>
      <trkpt lat="45.91583" lon="4.77887">
        <ele>176</ele>
        <time>2018-08-20T08:03:18Z</time>
      </trkpt>
      <trkpt lat="45.91581" lon="4.77894">
        <ele>176</ele>
        <time>2018-08-20T08:03:19Z</time>
      </trkpt>
      <trkpt lat="45.91577" lon="4.77902">
        <ele>175</ele>
        <time>2018-08-20T08:03:20Z</time>
      </trkpt>
      <trkpt lat="45.91575" lon="4.77908">
        <ele>175</ele>
        <time>2018-08-20T08:03:21Z</time>
      </trkpt>
      <trkpt lat="45.91571" lon="4.77916">
        <ele>175</ele>
        <time>2018-08-20T08:03:22Z</time>
      </trkpt>
      <trkpt lat="45.91567" lon="4.77923">
        <ele>174</ele>
        <time>2018-08-20T08:03:23Z</time>
      </trkpt>
      <trkpt lat="45.91564" lon="4.77932">
        <ele>175</ele>
        <time>2018-08-20T08:03:24Z</time>
      </trkpt>
      <trkpt lat="45.91561" lon="4.7794">
        <ele>175</ele>
        <time>2018-08-20T08:03:25Z</time>
      </trkpt>
      <trkpt lat="45.91557" lon="4.77948">
        <ele>175</ele>
        <time>2018-08-20T08:03:26Z</time>
      </trkpt>
      <trkpt lat="45.91554" lon="4.77955">
        <ele>175</ele>
        <time>2018-08-20T08:03:27Z</time>
      </trkpt>
      <trkpt lat="45.91551" lon="4.77962">
        <ele>175</ele>
        <time>2018-08-20T08:03:28Z</time>
      </trkpt>
      <trkpt lat="45.91548" lon="4.77971">
        <ele>175</ele>
        <time>2018-08-20T08:03:29Z</time>
      </trkpt>
      <trkpt lat="45.91546" lon="4.77978">
        <ele>175</ele>
        <time>2018-08-20T08:03:30Z</time>
      </trkpt>
      <trkpt lat="45.91542" lon="4.77986">
        <ele>175</ele>
        <time>2018-08-20T08:03:31Z</time>
      </trkpt>
      <trkpt lat="45.91539" lon="4.77993">
        <ele>175</ele>
        <time>2018-08-20T08:03:32Z</time>
      </trkpt>
      <trkpt lat="45.91536" lon="4.78">
        <ele>176</ele>
        <time>2018-08-20T08:03:33Z</time>
      </trkpt>
      <trkpt lat="45.91533" lon="4.78006">
        <ele>175</ele>
        <time>2018-08-20T08:03:34Z</time>
      </trkpt>
      <trkpt lat="45.91531" lon="4.78013">
        <ele>175</ele>
        <time>2018-08-20T08:03:35Z</time>
      </trkpt>
      <trkpt lat="45.91527" lon="4.78019">
        <ele>175</ele>
        <time>2018-08-20T08:03:36Z</time>
      </trkpt>
      <trkpt lat="45.91523" lon="4.78026">
        <ele>175</ele>
        <time>2018-08-20T08:03:37Z</time>
      </trkpt>
      <trkpt lat="45.9152" lon="4.78033">
        <ele>175</ele>
        <time>2018-08-20T08:03:38Z</time>
      </trkpt>
      <trkpt lat="45.91516" lon="4.78039">
        <ele>175</ele>
        <time>2018-08-20T08:03:39Z</time>
      </trkpt>
      <trkpt lat="45.91513" lon="4.78045">
        <ele>175</ele>
        <time>2018-08-20T08:03:40Z</time>
      </trkpt>
      <trkpt lat="45.9151" lon="4.78052">
        <ele>175</ele>
        <time>2018-08-20T08:03:41Z</time>
      </trkpt>
      <trkpt lat="45.91509" lon="4.78059">
        <ele>175</ele>
        <time>2018-08-20T08:03:42Z</time>
      </trkpt>
      <trkpt lat="45.91506" lon="4.78066">
        <ele>176</ele>
        <time>2018-08-20T08:03:43Z</time>
      </trkpt>
      <trkpt lat="45.91504" lon="4.78072">
        <ele>176</ele>
        <time>2018-08-20T08:03:44Z</time>
      </trkpt>
      <trkpt lat="45.915" lon="4.7808">
        <ele>177</ele>
        <time>2018-08-20T08:03:45Z</time>
      </trkpt>
      <trkpt lat="45.91497" lon="4.78087">
        <ele>177</ele>
        <time>2018-08-20T08:03:46Z</time>
      </trkpt>
      <trkpt lat="45.91493" lon="4.78095">
        <ele>177</ele>
        <time>2018-08-20T08:03:47Z</time>
      </trkpt>
      <trkpt lat="45.9149" lon="4.78102">
        <ele>177</ele>
        <time>2018-08-20T08:03:48Z</time>
      </trkpt>
      <trkpt lat="45.91486" lon="4.78108">
        <ele>177</ele>
        <time>2018-08-20T08:03:49Z</time>
      </trkpt>
      <trkpt lat="45.91483" lon="4.78117">
        <ele>177</ele>
        <time>2018-08-20T08:03:50Z</time>
      </trkpt>
      <trkpt lat="45.9148" lon="4.78122">
        <ele>177</ele>
        <time>2018-08-20T08:03:51Z</time>
      </trkpt>
      <trkpt lat="45.91476" lon="4.78128">
        <ele>177</ele>
        <time>2018-08-20T08:03:52Z</time>
      </trkpt>
      <trkpt lat="45.91475" lon="4.78138">
        <ele>177</ele>
        <time>2018-08-20T08:03:53Z</time>
      </trkpt>
      <trkpt lat="45.9147" lon="4.78145">
        <ele>177</ele>
        <time>2018-08-20T08:03:54Z</time>
      </trkpt>
      <trkpt lat="45.91466" lon="4.78151">
        <ele>177</ele>
        <time>2018-08-20T08:03:55Z</time>
      </trkpt>
      <trkpt lat="45.91463" lon="4.78156">
        <ele>177</ele>
        <time>2018-08-20T08:03:56Z</time>
      </trkpt>
      <trkpt lat="45.91458" lon="4.7816">
        <ele>177</ele>
        <time>2018-08-20T08:03:57Z</time>
      </trkpt>
      <trkpt lat="45.91454" lon="4.78165">
        <ele>177</ele>
        <time>2018-08-20T08:03:58Z</time>
      </trkpt>
      <trkpt lat="45.91451" lon="4.78172">
        <ele>177</ele>
        <time>2018-08-20T08:03:59Z</time>
      </trkpt>
      <trkpt lat="45.91447" lon="4.78179">
        <ele>177</ele>
        <time>2018-08-20T08:04:00Z</time>
      </trkpt>
      <trkpt lat="45.91443" lon="4.78187">
        <ele>177</ele>
        <time>2018-08-20T08:04:01Z</time>
      </trkpt>
      <trkpt lat="45.91441" lon="4.78192">
        <ele>177</ele>
        <time>2018-08-20T08:04:02Z</time>
      </trkpt>
      <trkpt lat="45.91438" lon="4.78201">
        <ele>177</ele>
        <time>2018-08-20T08:04:03Z</time>
      </trkpt>
      <trkpt lat="45.91435" lon="4.78206">
        <ele>177</ele>
        <time>2018-08-20T08:04:04Z</time>
      </trkpt>
      <trkpt lat="45.91432" lon="4.78213">
        <ele>177</ele>
        <time>2018-08-20T08:04:05Z</time>
      </trkpt>
      <trkpt lat="45.91429" lon="4.78218">
        <ele>177</ele>
        <time>2018-08-20T08:04:06Z</time>
      </trkpt>
      <trkpt lat="45.91427" lon="4.78225">
        <ele>177</ele>
        <time>2018-08-20T08:04:07Z</time>
      </trkpt>
      <trkpt lat="45.91425" lon="4.78232">
        <ele>177</ele>
        <time>2018-08-20T08:04:08Z</time>
      </trkpt>
      <trkpt lat="45.91421" lon="4.78241">
        <ele>177</ele>
        <time>2018-08-20T08:04:09Z</time>
      </trkpt>
      <trkpt lat="45.91418" lon="4.78248">
        <ele>177</ele>
        <time>2018-08-20T08:04:10Z</time>
      </trkpt>
      <trkpt lat="45.91416" lon="4.78253">
        <ele>177</ele>
        <time>2018-08-20T08:04:11Z</time>
      </trkpt>
      <trkpt lat="45.91413" lon="4.78259">
        <ele>177</ele>
        <time>2018-08-20T08:04:12Z</time>
      </trkpt>
      <trkpt lat="45.9141" lon="4.78267">
        <ele>177</ele>
        <time>2018-08-20T08:04:13Z</time>
      </trkpt>
      <trkpt lat="45.91406" lon="4.78273">
        <ele>177</ele>
        <time>2018-08-20T08:04:14Z</time>
      </trkpt>
      <trkpt lat="45.91403" lon="4.78279">
        <ele>177</ele>
        <time>2018-08-20T08:04:15Z</time>
      </trkpt>
      <trkpt lat="45.91399" lon="4.78283">
        <ele>177</ele>
        <time>2018-08-20T08:04:16Z</time>
      </trkpt>
      <trkpt lat="45.91397" lon="4.78292">
        <ele>177</ele>
        <time>2018-08-20T08:04:17Z</time>
      </trkpt>
      <trkpt lat="45.91393" lon="4.78298">
        <ele>177</ele>
        <time>2018-08-20T08:04:18Z</time>
      </trkpt>
      <trkpt lat="45.9139" lon="4.78305">
        <ele>177</ele>
        <time>2018-08-20T08:04:19Z</time>
      </trkpt>
      <trkpt lat="45.91387" lon="4.78311">
        <ele>177</ele>
        <time>2018-08-20T08:04:20Z</time>
      </trkpt>
      <trkpt lat="45.91384" lon="4.78317">
        <ele>177</ele>
        <time>2018-08-20T08:04:21Z</time>
      </trkpt>
      <trkpt lat="45.91382" lon="4.78323">
        <ele>177</ele>
        <time>2018-08-20T08:04:22Z</time>
      </trkpt>
      <trkpt lat="45.9138" lon="4.78331">
        <ele>177</ele>
        <time>2018-08-20T08:04:23Z</time>
      </trkpt>
      <trkpt lat="45.91378" lon="4.78338">
        <ele>177</ele>
        <time>2018-08-20T08:04:24Z</time>
      </trkpt>
      <trkpt lat="45.91375" lon="4.78346">
        <ele>177</ele>
        <time>2018-08-20T08:04:25Z</time>
      </trkpt>
      <trkpt lat="45.91372" lon="4.78351">
        <ele>177</ele>
        <time>2018-08-20T08:04:26Z</time>
      </trkpt>
      <trkpt lat="45.9137" lon="4.78359">
        <ele>177</ele>
        <time>2018-08-20T08:04:27Z</time>
      </trkpt>
      <trkpt lat="45.91367" lon="4.78364">
        <ele>177</ele>
        <time>2018-08-20T08:04:28Z</time>
      </trkpt>
      <trkpt lat="45.91364" lon="4.78371">
        <ele>177</ele>
        <time>2018-08-20T08:04:29Z</time>
      </trkpt>
      <trkpt lat="45.91361" lon="4.78378">
        <ele>177</ele>
        <time>2018-08-20T08:04:30Z</time>
      </trkpt>
      <trkpt lat="45.91358" lon="4.78385">
        <ele>176</ele>
        <time>2018-08-20T08:04:31Z</time>
      </trkpt>
      <trkpt lat="45.91355" lon="4.78394">
        <ele>176</ele>
        <time>2018-08-20T08:04:32Z</time>
      </trkpt>
      <trkpt lat="45.91353" lon="4.78401">
        <ele>176</ele>
        <time>2018-08-20T08:04:33Z</time>
      </trkpt>
      <trkpt lat="45.9135" lon="4.78406">
        <ele>176</ele>
        <time>2018-08-20T08:04:34Z</time>
      </trkpt>
      <trkpt lat="45.91347" lon="4.78413">
        <ele>176</ele>
        <time>2018-08-20T08:04:35Z</time>
      </trkpt>
      <trkpt lat="45.91344" lon="4.7842">
        <ele>176</ele>
        <time>2018-08-20T08:04:36Z</time>
      </trkpt>
      <trkpt lat="45.91341" lon="4.78426">
        <ele>176</ele>
        <time>2018-08-20T08:04:37Z</time>
      </trkpt>
      <trkpt lat="45.91337" lon="4.78433">
        <ele>176</ele>
        <time>2018-08-20T08:04:38Z</time>
      </trkpt>
      <trkpt lat="45.91334" lon="4.78441">
        <ele>176</ele>
        <time>2018-08-20T08:04:39Z</time>
      </trkpt>
      <trkpt lat="45.91332" lon="4.78448">
        <ele>176</ele>
        <time>2018-08-20T08:04:40Z</time>
      </trkpt>
      <trkpt lat="45.91329" lon="4.78455">
        <ele>176</ele>
        <time>2018-08-20T08:04:41Z</time>
      </trkpt>
      <trkpt lat="45.91325" lon="4.7846">
        <ele>176</ele>
        <time>2018-08-20T08:04:42Z</time>
      </trkpt>
      <trkpt lat="45.91322" lon="4.78467">
        <ele>176</ele>
        <time>2018-08-20T08:04:43Z</time>
      </trkpt>
      <trkpt lat="45.91319" lon="4.78473">
        <ele>176</ele>
        <time>2018-08-20T08:04:44Z</time>
      </trkpt>
      <trkpt lat="45.91317" lon="4.7848">
        <ele>176</ele>
        <time>2018-08-20T08:04:45Z</time>
      </trkpt>
      <trkpt lat="45.91313" lon="4.78485">
        <ele>175</ele>
        <time>2018-08-20T08:04:46Z</time>
      </trkpt>
      <trkpt lat="45.91309" lon="4.78489">
        <ele>176</ele>
        <time>2018-08-20T08:04:47Z</time>
      </trkpt>
      <trkpt lat="45.91306" lon="4.78495">
        <ele>176</ele>
        <time>2018-08-20T08:04:48Z</time>
      </trkpt>
      <trkpt lat="45.91303" lon="4.78502">
        <ele>175</ele>
        <time>2018-08-20T08:04:49Z</time>
      </trkpt>
      <trkpt lat="45.913" lon="4.78509">
        <ele>175</ele>
        <time>2018-08-20T08:04:50Z</time>
      </trkpt>
      <trkpt lat="45.91296" lon="4.78515">
        <ele>175</ele>
        <time>2018-08-20T08:04:51Z</time>
      </trkpt>
      <trkpt lat="45.91293" lon="4.7852">
        <ele>175</ele>
        <time>2018-08-20T08:04:52Z</time>
      </trkpt>
      <trkpt lat="45.9129" lon="4.78527">
        <ele>176</ele>
        <time>2018-08-20T08:04:53Z</time>
      </trkpt>
      <trkpt lat="45.91287" lon="4.78533">
        <ele>176</ele>
        <time>2018-08-20T08:04:54Z</time>
      </trkpt>
      <trkpt lat="45.91284" lon="4.78538">
        <ele>176</ele>
        <time>2018-08-20T08:04:55Z</time>
      </trkpt>
      <trkpt lat="45.91281" lon="4.78545">
        <ele>176</ele>
        <time>2018-08-20T08:04:56Z</time>
      </trkpt>
      <trkpt lat="45.91277" lon="4.78551">
        <ele>176</ele>
        <time>2018-08-20T08:04:57Z</time>
      </trkpt>
      <trkpt lat="45.91274" lon="4.78558">
        <ele>176</ele>
        <time>2018-08-20T08:04:58Z</time>
      </trkpt>
      <trkpt lat="45.9127" lon="4.78566">
        <ele>176</ele>
        <time>2018-08-20T08:04:59Z</time>
      </trkpt>
      <trkpt lat="45.91268" lon="4.78572">
        <ele>176</ele>
        <time>2018-08-20T08:05:00Z</time>
      </trkpt>
      <trkpt lat="45.91265" lon="4.78579">
        <ele>176</ele>
        <time>2018-08-20T08:05:01Z</time>
      </trkpt>
      <trkpt lat="45.91262" lon="4.78585">
        <ele>176</ele>
        <time>2018-08-20T08:05:02Z</time>
      </trkpt>
      <trkpt lat="45.91259" lon="4.78592">
        <ele>176</ele>
        <time>2018-08-20T08:05:03Z</time>
      </trkpt>
      <trkpt lat="45.91256" lon="4.78598">
        <ele>176</ele>
        <time>2018-08-20T08:05:04Z</time>
      </trkpt>
      <trkpt lat="45.91253" lon="4.78604">
        <ele>176</ele>
        <time>2018-08-20T08:05:05Z</time>
      </trkpt>
      <trkpt lat="45.9125" lon="4.7861">
        <ele>176</ele>
        <time>2018-08-20T08:05:06Z</time>
      </trkpt>
      <trkpt lat="45.91248" lon="4.78618">
        <ele>177</ele>
        <time>2018-08-20T08:05:07Z</time>
      </trkpt>
      <trkpt lat="45.91245" lon="4.78625">
        <ele>177</ele>
        <time>2018-08-20T08:05:08Z</time>
      </trkpt>
      <trkpt lat="45.91242" lon="4.78632">
        <ele>177</ele>
        <time>2018-08-20T08:05:09Z</time>
      </trkpt>
      <trkpt lat="45.91239" lon="4.7864">
        <ele>177</ele>
        <time>2018-08-20T08:05:10Z</time>
      </trkpt>
      <trkpt lat="45.91236" lon="4.78647">
        <ele>177</ele>
        <time>2018-08-20T08:05:11Z</time>
      </trkpt>
      <trkpt lat="45.91231" lon="4.78653">
        <ele>177</ele>
        <time>2018-08-20T08:05:12Z</time>
      </trkpt>
      <trkpt lat="45.91228" lon="4.7866">
        <ele>177</ele>
        <time>2018-08-20T08:05:13Z</time>
      </trkpt>
      <trkpt lat="45.91223" lon="4.78668">
        <ele>177</ele>
        <time>2018-08-20T08:05:14Z</time>
      </trkpt>
      <trkpt lat="45.91221" lon="4.78676">
        <ele>177</ele>
        <time>2018-08-20T08:05:15Z</time>
      </trkpt>
      <trkpt lat="45.91217" lon="4.78684">
        <ele>177</ele>
        <time>2018-08-20T08:05:16Z</time>
      </trkpt>
      <trkpt lat="45.91213" lon="4.78692">
        <ele>177</ele>
        <time>2018-08-20T08:05:17Z</time>
      </trkpt>
      <trkpt lat="45.91209" lon="4.78699">
        <ele>177</ele>
        <time>2018-08-20T08:05:18Z</time>
      </trkpt>
      <trkpt lat="45.91206" lon="4.78708">
        <ele>177</ele>
        <time>2018-08-20T08:05:19Z</time>
      </trkpt>
      <trkpt lat="45.91202" lon="4.78715">
        <ele>177</ele>
        <time>2018-08-20T08:05:20Z</time>
      </trkpt>
      <trkpt lat="45.91198" lon="4.78723">
        <ele>177</ele>
        <time>2018-08-20T08:05:21Z</time>
      </trkpt>
      <trkpt lat="45.91194" lon="4.7873">
        <ele>177</ele>
        <time>2018-08-20T08:05:22Z</time>
      </trkpt>
      <trkpt lat="45.91191" lon="4.78738">
        <ele>177</ele>
        <time>2018-08-20T08:05:23Z</time>
      </trkpt>
      <trkpt lat="45.91187" lon="4.78745">
        <ele>177</ele>
        <time>2018-08-20T08:05:24Z</time>
      </trkpt>
      <trkpt lat="45.91183" lon="4.78751">
        <ele>177</ele>
        <time>2018-08-20T08:05:25Z</time>
      </trkpt>
      <trkpt lat="45.91181" lon="4.78758">
        <ele>177</ele>
        <time>2018-08-20T08:05:26Z</time>
      </trkpt>
      <trkpt lat="45.91178" lon="4.78765">
        <ele>177</ele>
        <time>2018-08-20T08:05:27Z</time>
      </trkpt>
      <trkpt lat="45.91174" lon="4.78772">
        <ele>177</ele>
        <time>2018-08-20T08:05:28Z</time>
      </trkpt>
      <trkpt lat="45.91171" lon="4.78778">
        <ele>177</ele>
        <time>2018-08-20T08:05:29Z</time>
      </trkpt>
      <trkpt lat="45.91167" lon="4.78785">
        <ele>177</ele>
        <time>2018-08-20T08:05:30Z</time>
      </trkpt>
      <trkpt lat="45.91162" lon="4.78793">
        <ele>177</ele>
        <time>2018-08-20T08:05:31Z</time>
      </trkpt>
      <trkpt lat="45.91159" lon="4.788">
        <ele>177</ele>
        <time>2018-08-20T08:05:32Z</time>
      </trkpt>
      <trkpt lat="45.91156" lon="4.78807">
        <ele>176</ele>
        <time>2018-08-20T08:05:33Z</time>
      </trkpt>
      <trkpt lat="45.91151" lon="4.78814">
        <ele>176</ele>
        <time>2018-08-20T08:05:34Z</time>
      </trkpt>
      <trkpt lat="45.91147" lon="4.78822">
        <ele>176</ele>
        <time>2018-08-20T08:05:35Z</time>
      </trkpt>
      <trkpt lat="45.91143" lon="4.78829">
        <ele>176</ele>
        <time>2018-08-20T08:05:36Z</time>
      </trkpt>
      <trkpt lat="45.9114" lon="4.78836">
        <ele>176</ele>
        <time>2018-08-20T08:05:37Z</time>
      </trkpt>
      <trkpt lat="45.91136" lon="4.78842">
        <ele>176</ele>
        <time>2018-08-20T08:05:38Z</time>
      </trkpt>
      <trkpt lat="45.91132" lon="4.78849">
        <ele>176</ele>
        <time>2018-08-20T08:05:39Z</time>
      </trkpt>
      <trkpt lat="45.91129" lon="4.78856">
        <ele>176</ele>
        <time>2018-08-20T08:05:40Z</time>
      </trkpt>
      <trkpt lat="45.91125" lon="4.78864">
        <ele>176</ele>
        <time>2018-08-20T08:05:41Z</time>
      </trkpt>
      <trkpt lat="45.91121" lon="4.7887">
        <ele>176</ele>
        <time>2018-08-20T08:05:42Z</time>
      </trkpt>
      <trkpt lat="45.91118" lon="4.78876">
        <ele>176</ele>
        <time>2018-08-20T08:05:43Z</time>
      </trkpt>
      <trkpt lat="45.91114" lon="4.78883">
        <ele>176</ele>
        <time>2018-08-20T08:05:44Z</time>
      </trkpt>
      <trkpt lat="45.91111" lon="4.78889">
        <ele>176</ele>
        <time>2018-08-20T08:05:45Z</time>
      </trkpt>
      <trkpt lat="45.91107" lon="4.78895">
        <ele>176</ele>
        <time>2018-08-20T08:05:46Z</time>
      </trkpt>
      <trkpt lat="45.91103" lon="4.78903">
        <ele>177</ele>
        <time>2018-08-20T08:05:47Z</time>
      </trkpt>
      <trkpt lat="45.911" lon="4.7891">
        <ele>177</ele>
        <time>2018-08-20T08:05:48Z</time>
      </trkpt>
      <trkpt lat="45.91096" lon="4.78916">
        <ele>177</ele>
        <time>2018-08-20T08:05:49Z</time>
      </trkpt>
      <trkpt lat="45.91092" lon="4.78922">
        <ele>177</ele>
        <time>2018-08-20T08:05:50Z</time>
      </trkpt>
      <trkpt lat="45.91088" lon="4.78929">
        <ele>177</ele>
        <time>2018-08-20T08:05:51Z</time>
      </trkpt>
      <trkpt lat="45.91085" lon="4.78935">
        <ele>177</ele>
        <time>2018-08-20T08:05:52Z</time>
      </trkpt>
      <trkpt lat="45.91081" lon="4.78942">
        <ele>177</ele>
        <time>2018-08-20T08:05:53Z</time>
      </trkpt>
      <trkpt lat="45.91078" lon="4.78952">
        <ele>177</ele>
        <time>2018-08-20T08:05:54Z</time>
      </trkpt>
      <trkpt lat="45.91074" lon="4.78958">
        <ele>177</ele>
        <time>2018-08-20T08:05:55Z</time>
      </trkpt>
      <trkpt lat="45.9107" lon="4.78964">
        <ele>177</ele>
        <time>2018-08-20T08:05:56Z</time>
      </trkpt>
      <trkpt lat="45.91066" lon="4.78971">
        <ele>177</ele>
        <time>2018-08-20T08:05:57Z</time>
      </trkpt>
      <trkpt lat="45.91063" lon="4.78978">
        <ele>177</ele>
        <time>2018-08-20T08:05:58Z</time>
      </trkpt>
      <trkpt lat="45.91059" lon="4.78982">
        <ele>177</ele>
        <time>2018-08-20T08:05:59Z</time>
      </trkpt>
      <trkpt lat="45.91056" lon="4.78988">
        <ele>177</ele>
        <time>2018-08-20T08:06:00Z</time>
      </trkpt>
      <trkpt lat="45.91052" lon="4.78995">
        <ele>177</ele>
        <time>2018-08-20T08:06:01Z</time>
      </trkpt>
      <trkpt lat="45.9105" lon="4.79002">
        <ele>177</ele>
        <time>2018-08-20T08:06:02Z</time>
      </trkpt>
      <trkpt lat="45.91046" lon="4.79008">
        <ele>176</ele>
        <time>2018-08-20T08:06:03Z</time>
      </trkpt>
      <trkpt lat="45.91042" lon="4.79013">
        <ele>176</ele>
        <time>2018-08-20T08:06:04Z</time>
      </trkpt>
      <trkpt lat="45.91038" lon="4.79021">
        <ele>176</ele>
        <time>2018-08-20T08:06:05Z</time>
      </trkpt>
      <trkpt lat="45.91034" lon="4.7903">
        <ele>176</ele>
        <time>2018-08-20T08:06:06Z</time>
      </trkpt>
      <trkpt lat="45.91031" lon="4.79038">
        <ele>176</ele>
        <time>2018-08-20T08:06:07Z</time>
      </trkpt>
      <trkpt lat="45.91027" lon="4.79044">
        <ele>176</ele>
        <time>2018-08-20T08:06:08Z</time>
      </trkpt>
      <trkpt lat="45.91023" lon="4.79052">
        <ele>176</ele>
        <time>2018-08-20T08:06:09Z</time>
      </trkpt>
      <trkpt lat="45.91019" lon="4.79058">
        <ele>176</ele>
        <time>2018-08-20T08:06:10Z</time>
      </trkpt>
      <trkpt lat="45.91017" lon="4.79065">
        <ele>176</ele>
        <time>2018-08-20T08:06:11Z</time>
      </trkpt>
      <trkpt lat="45.91012" lon="4.79073">
        <ele>177</ele>
        <time>2018-08-20T08:06:12Z</time>
      </trkpt>
      <trkpt lat="45.91008" lon="4.79081">
        <ele>177</ele>
        <time>2018-08-20T08:06:13Z</time>
      </trkpt>
      <trkpt lat="45.91005" lon="4.79086">
        <ele>177</ele>
        <time>2018-08-20T08:06:14Z</time>
      </trkpt>
      <trkpt lat="45.91002" lon="4.79093">
        <ele>177</ele>
        <time>2018-08-20T08:06:15Z</time>
      </trkpt>
      <trkpt lat="45.90999" lon="4.79099">
        <ele>177</ele>
        <time>2018-08-20T08:06:16Z</time>
      </trkpt>
      <trkpt lat="45.90996" lon="4.79107">
        <ele>177</ele>
        <time>2018-08-20T08:06:17Z</time>
      </trkpt>
      <trkpt lat="45.90993" lon="4.79112">
        <ele>177</ele>
        <time>2018-08-20T08:06:18Z</time>
      </trkpt>
      <trkpt lat="45.9099" lon="4.79117">
        <ele>177</ele>
        <time>2018-08-20T08:06:19Z</time>
      </trkpt>
      <trkpt lat="45.90986" lon="4.79122">
        <ele>177</ele>
        <time>2018-08-20T08:06:20Z</time>
      </trkpt>
      <trkpt lat="45.90983" lon="4.79129">
        <ele>177</ele>
        <time>2018-08-20T08:06:21Z</time>
      </trkpt>
      <trkpt lat="45.9098" lon="4.79134">
        <ele>177</ele>
        <time>2018-08-20T08:06:22Z</time>
      </trkpt>
      <trkpt lat="45.90977" lon="4.7914">
        <ele>177</ele>
        <time>2018-08-20T08:06:23Z</time>
      </trkpt>
      <trkpt lat="45.90973" lon="4.79148">
        <ele>177</ele>
        <time>2018-08-20T08:06:24Z</time>
      </trkpt>
      <trkpt lat="45.90969" lon="4.79155">
        <ele>177</ele>
        <time>2018-08-20T08:06:25Z</time>
      </trkpt>
      <trkpt lat="45.90964" lon="4.79162">
        <ele>177</ele>
        <time>2018-08-20T08:06:26Z</time>
      </trkpt>
      <trkpt lat="45.90961" lon="4.79168">
        <ele>177</ele>
        <time>2018-08-20T08:06:27Z</time>
      </trkpt>
      <trkpt lat="45.90957" lon="4.79175">
        <ele>177</ele>
        <time>2018-08-20T08:06:28Z</time>
      </trkpt>
      <trkpt lat="45.90953" lon="4.79182">
        <ele>177</ele>
        <time>2018-08-20T08:06:29Z</time>
      </trkpt>
      <trkpt lat="45.90948" lon="4.79191">
        <ele>176</ele>
        <time>2018-08-20T08:06:30Z</time>
      </trkpt>
      <trkpt lat="45.90944" lon="4.79198">
        <ele>176</ele>
        <time>2018-08-20T08:06:31Z</time>
      </trkpt>
      <trkpt lat="45.9094" lon="4.79205">
        <ele>176</ele>
        <time>2018-08-20T08:06:32Z</time>
      </trkpt>
      <trkpt lat="45.90936" lon="4.79212">
        <ele>176</ele>
        <time>2018-08-20T08:06:33Z</time>
      </trkpt>
      <trkpt lat="45.90932" lon="4.79219">
        <ele>176</ele>
        <time>2018-08-20T08:06:34Z</time>
      </trkpt>
      <trkpt lat="45.90928" lon="4.79227">
        <ele>176</ele>
        <time>2018-08-20T08:06:35Z</time>
      </trkpt>
      <trkpt lat="45.90924" lon="4.79233">
        <ele>176</ele>
        <time>2018-08-20T08:06:36Z</time>
      </trkpt>
      <trkpt lat="45.9092" lon="4.79241">
        <ele>176</ele>
        <time>2018-08-20T08:06:37Z</time>
      </trkpt>
      <trkpt lat="45.90916" lon="4.79248">
        <ele>176</ele>
        <time>2018-08-20T08:06:38Z</time>
      </trkpt>
      <trkpt lat="45.90911" lon="4.79255">
        <ele>176</ele>
        <time>2018-08-20T08:06:39Z</time>
      </trkpt>
      <trkpt lat="45.90906" lon="4.79263">
        <ele>176</ele>
        <time>2018-08-20T08:06:40Z</time>
      </trkpt>
      <trkpt lat="45.90901" lon="4.7927">
        <ele>176</ele>
        <time>2018-08-20T08:06:41Z</time>
      </trkpt>
      <trkpt lat="45.90897" lon="4.79277">
        <ele>176</ele>
        <time>2018-08-20T08:06:42Z</time>
      </trkpt>
      <trkpt lat="45.90892" lon="4.79283">
        <ele>176</ele>
        <time>2018-08-20T08:06:43Z</time>
      </trkpt>
      <trkpt lat="45.90888" lon="4.7929">
        <ele>176</ele>
        <time>2018-08-20T08:06:44Z</time>
      </trkpt>
      <trkpt lat="45.90883" lon="4.79294">
        <ele>176</ele>
        <time>2018-08-20T08:06:45Z</time>
      </trkpt>
      <trkpt lat="45.90878" lon="4.79302">
        <ele>176</ele>
        <time>2018-08-20T08:06:46Z</time>
      </trkpt>
      <trkpt lat="45.90874" lon="4.79307">
        <ele>176</ele>
        <time>2018-08-20T08:06:47Z</time>
      </trkpt>
      <trkpt lat="45.90871" lon="4.79315">
        <ele>176</ele>
        <time>2018-08-20T08:06:48Z</time>
      </trkpt>
      <trkpt lat="45.90866" lon="4.79321">
        <ele>176</ele>
        <time>2018-08-20T08:06:49Z</time>
      </trkpt>
      <trkpt lat="45.90861" lon="4.79328">
        <ele>176</ele>
        <time>2018-08-20T08:06:50Z</time>
      </trkpt>
      <trkpt lat="45.90856" lon="4.79335">
        <ele>175</ele>
        <time>2018-08-20T08:06:51Z</time>
      </trkpt>
      <trkpt lat="45.90851" lon="4.79342">
        <ele>175</ele>
        <time>2018-08-20T08:06:52Z</time>
      </trkpt>
      <trkpt lat="45.90846" lon="4.79348">
        <ele>175</ele>
        <time>2018-08-20T08:06:53Z</time>
      </trkpt>
      <trkpt lat="45.90842" lon="4.79356">
        <ele>175</ele>
        <time>2018-08-20T08:06:54Z</time>
      </trkpt>
      <trkpt lat="45.90836" lon="4.79363">
        <ele>175</ele>
        <time>2018-08-20T08:06:55Z</time>
      </trkpt>
      <trkpt lat="45.90832" lon="4.79369">
        <ele>175</ele>
        <time>2018-08-20T08:06:56Z</time>
      </trkpt>
      <trkpt lat="45.90827" lon="4.79377">
        <ele>175</ele>
        <time>2018-08-20T08:06:57Z</time>
      </trkpt>
      <trkpt lat="45.90822" lon="4.79383">
        <ele>175</ele>
        <time>2018-08-20T08:06:58Z</time>
      </trkpt>
      <trkpt lat="45.90817" lon="4.79388">
        <ele>175</ele>
        <time>2018-08-20T08:06:59Z</time>
      </trkpt>
      <trkpt lat="45.90812" lon="4.79393">
        <ele>175</ele>
        <time>2018-08-20T08:07:00Z</time>
      </trkpt>
      <trkpt lat="45.90807" lon="4.79398">
        <ele>175</ele>
        <time>2018-08-20T08:07:01Z</time>
      </trkpt>
      <trkpt lat="45.90801" lon="4.79403">
        <ele>175</ele>
        <time>2018-08-20T08:07:02Z</time>
      </trkpt>
      <trkpt lat="45.90795" lon="4.79407">
        <ele>175</ele>
        <time>2018-08-20T08:07:03Z</time>
      </trkpt>
      <trkpt lat="45.9079" lon="4.79412">
        <ele>175</ele>
        <time>2018-08-20T08:07:04Z</time>
      </trkpt>
      <trkpt lat="45.90785" lon="4.79416">
        <ele>175</ele>
        <time>2018-08-20T08:07:05Z</time>
      </trkpt>
      <trkpt lat="45.90778" lon="4.79422">
        <ele>174</ele>
        <time>2018-08-20T08:07:06Z</time>
      </trkpt>
      <trkpt lat="45.90773" lon="4.79425">
        <ele>174</ele>
        <time>2018-08-20T08:07:07Z</time>
      </trkpt>
      <trkpt lat="45.90768" lon="4.79428">
        <ele>174</ele>
        <time>2018-08-20T08:07:08Z</time>
      </trkpt>
      <trkpt lat="45.90762" lon="4.79432">
        <ele>174</ele>
        <time>2018-08-20T08:07:09Z</time>
      </trkpt>
      <trkpt lat="45.90757" lon="4.79435">
        <ele>174</ele>
        <time>2018-08-20T08:07:10Z</time>
      </trkpt>
      <trkpt lat="45.90751" lon="4.79439">
        <ele>174</ele>
        <time>2018-08-20T08:07:11Z</time>
      </trkpt>
      <trkpt lat="45.90746" lon="4.79441">
        <ele>175</ele>
        <time>2018-08-20T08:07:12Z</time>
      </trkpt>
      <trkpt lat="45.90739" lon="4.79444">
        <ele>175</ele>
        <time>2018-08-20T08:07:13Z</time>
      </trkpt>
      <trkpt lat="45.90733" lon="4.79448">
        <ele>174</ele>
        <time>2018-08-20T08:07:14Z</time>
      </trkpt>
      <trkpt lat="45.90727" lon="4.79452">
        <ele>174</ele>
        <time>2018-08-20T08:07:15Z</time>
      </trkpt>
      <trkpt lat="45.9072" lon="4.79455">
        <ele>174</ele>
        <time>2018-08-20T08:07:16Z</time>
      </trkpt>
      <trkpt lat="45.90714" lon="4.79458">
        <ele>174</ele>
        <time>2018-08-20T08:07:17Z</time>
      </trkpt>
      <trkpt lat="45.90708" lon="4.79461">
        <ele>174</ele>
        <time>2018-08-20T08:07:18Z</time>
      </trkpt>
      <trkpt lat="45.90702" lon="4.79464">
        <ele>174</ele>
        <time>2018-08-20T08:07:19Z</time>
      </trkpt>
      <trkpt lat="45.90696" lon="4.79467">
        <ele>174</ele>
        <time>2018-08-20T08:07:20Z</time>
      </trkpt>
      <trkpt lat="45.9069" lon="4.79471">
        <ele>174</ele>
        <time>2018-08-20T08:07:21Z</time>
      </trkpt>
      <trkpt lat="45.90684" lon="4.79475">
        <ele>174</ele>
        <time>2018-08-20T08:07:22Z</time>
      </trkpt>
      <trkpt lat="45.90678" lon="4.79479">
        <ele>174</ele>
        <time>2018-08-20T08:07:23Z</time>
      </trkpt>
      <trkpt lat="45.90673" lon="4.79483">
        <ele>174</ele>
        <time>2018-08-20T08:07:24Z</time>
      </trkpt>
      <trkpt lat="45.90667" lon="4.79487">
        <ele>174</ele>
        <time>2018-08-20T08:07:25Z</time>
      </trkpt>
      <trkpt lat="45.90662" lon="4.79489">
        <ele>175</ele>
        <time>2018-08-20T08:07:26Z</time>
      </trkpt>
      <trkpt lat="45.90657" lon="4.79492">
        <ele>175</ele>
        <time>2018-08-20T08:07:27Z</time>
      </trkpt>
      <trkpt lat="45.90651" lon="4.79494">
        <ele>175</ele>
        <time>2018-08-20T08:07:28Z</time>
      </trkpt>
      <trkpt lat="45.90645" lon="4.79497">
        <ele>176</ele>
        <time>2018-08-20T08:07:29Z</time>
      </trkpt>
      <trkpt lat="45.9064" lon="4.79501">
        <ele>174</ele>
        <time>2018-08-20T08:07:30Z</time>
      </trkpt>
      <trkpt lat="45.90634" lon="4.79505">
        <ele>174</ele>
        <time>2018-08-20T08:07:31Z</time>
      </trkpt>
      <trkpt lat="45.90628" lon="4.79508">
        <ele>174</ele>
        <time>2018-08-20T08:07:32Z</time>
      </trkpt>
      <trkpt lat="45.90624" lon="4.7951">
        <ele>174</ele>
        <time>2018-08-20T08:07:33Z</time>
      </trkpt>
      <trkpt lat="45.90617" lon="4.79514">
        <ele>174</ele>
        <time>2018-08-20T08:07:34Z</time>
      </trkpt>
      <trkpt lat="45.90611" lon="4.79518">
        <ele>175</ele>
        <time>2018-08-20T08:07:35Z</time>
      </trkpt>
      <trkpt lat="45.90605" lon="4.79523">
        <ele>175</ele>
        <time>2018-08-20T08:07:36Z</time>
      </trkpt>
      <trkpt lat="45.90598" lon="4.79526">
        <ele>175</ele>
        <time>2018-08-20T08:07:37Z</time>
      </trkpt>
      <trkpt lat="45.90592" lon="4.7953">
        <ele>175</ele>
        <time>2018-08-20T08:07:38Z</time>
      </trkpt>
      <trkpt lat="45.90586" lon="4.79534">
        <ele>174</ele>
        <time>2018-08-20T08:07:39Z</time>
      </trkpt>
      <trkpt lat="45.90581" lon="4.79538">
        <ele>177</ele>
        <time>2018-08-20T08:07:40Z</time>
      </trkpt>
      <trkpt lat="45.90576" lon="4.79542">
        <ele>176</ele>
        <time>2018-08-20T08:07:41Z</time>
      </trkpt>
      <trkpt lat="45.90571" lon="4.79547">
        <ele>176</ele>
        <time>2018-08-20T08:07:42Z</time>
      </trkpt>
      <trkpt lat="45.90565" lon="4.7955">
        <ele>176</ele>
        <time>2018-08-20T08:07:43Z</time>
      </trkpt>
      <trkpt lat="45.90559" lon="4.79553">
        <ele>176</ele>
        <time>2018-08-20T08:07:44Z</time>
      </trkpt>
      <trkpt lat="45.90552" lon="4.79558">
        <ele>176</ele>
        <time>2018-08-20T08:07:45Z</time>
      </trkpt>
      <trkpt lat="45.90547" lon="4.79562">
        <ele>176</ele>
        <time>2018-08-20T08:07:46Z</time>
      </trkpt>
      <trkpt lat="45.90542" lon="4.79566">
        <ele>176</ele>
        <time>2018-08-20T08:07:47Z</time>
      </trkpt>
      <trkpt lat="45.90537" lon="4.79571">
        <ele>176</ele>
        <time>2018-08-20T08:07:48Z</time>
      </trkpt>
      <trkpt lat="45.90531" lon="4.79576">
        <ele>177</ele>
        <time>2018-08-20T08:07:49Z</time>
      </trkpt>
      <trkpt lat="45.90526" lon="4.79583">
        <ele>177</ele>
        <time>2018-08-20T08:07:50Z</time>
      </trkpt>
      <trkpt lat="45.9052" lon="4.79586">
        <ele>174</ele>
        <time>2018-08-20T08:07:51Z</time>
      </trkpt>
      <trkpt lat="45.90515" lon="4.79591">
        <ele>175</ele>
        <time>2018-08-20T08:07:52Z</time>
      </trkpt>
      <trkpt lat="45.9051" lon="4.79595">
        <ele>175</ele>
        <time>2018-08-20T08:07:53Z</time>
      </trkpt>
      <trkpt lat="45.90504" lon="4.796">
        <ele>175</ele>
        <time>2018-08-20T08:07:54Z</time>
      </trkpt>
      <trkpt lat="45.90499" lon="4.79604">
        <ele>177</ele>
        <time>2018-08-20T08:07:55Z</time>
      </trkpt>
      <trkpt lat="45.90494" lon="4.79607">
        <ele>176</ele>
        <time>2018-08-20T08:07:56Z</time>
      </trkpt>
      <trkpt lat="45.90489" lon="4.79612">
        <ele>176</ele>
        <time>2018-08-20T08:07:57Z</time>
      </trkpt>
      <trkpt lat="45.90485" lon="4.79617">
        <ele>176</ele>
        <time>2018-08-20T08:07:58Z</time>
      </trkpt>
      <trkpt lat="45.90479" lon="4.79625">
        <ele>176</ele>
        <time>2018-08-20T08:07:59Z</time>
      </trkpt>
      <trkpt lat="45.90474" lon="4.7963">
        <ele>176</ele>
        <time>2018-08-20T08:08:00Z</time>
      </trkpt>
      <trkpt lat="45.90469" lon="4.79635">
        <ele>176</ele>
        <time>2018-08-20T08:08:01Z</time>
      </trkpt>
      <trkpt lat="45.90463" lon="4.7964">
        <ele>176</ele>
        <time>2018-08-20T08:08:02Z</time>
      </trkpt>
      <trkpt lat="45.90459" lon="4.79649">
        <ele>176</ele>
        <time>2018-08-20T08:08:03Z</time>
      </trkpt>
      <trkpt lat="45.90454" lon="4.79655">
        <ele>176</ele>
        <time>2018-08-20T08:08:04Z</time>
      </trkpt>
      <trkpt lat="45.9045" lon="4.7966">
        <ele>176</ele>
        <time>2018-08-20T08:08:05Z</time>
      </trkpt>
      <trkpt lat="45.90445" lon="4.79666">
        <ele>176</ele>
        <time>2018-08-20T08:08:06Z</time>
      </trkpt>
      <trkpt lat="45.90442" lon="4.79671">
        <ele>174</ele>
        <time>2018-08-20T08:08:07Z</time>
      </trkpt>
      <trkpt lat="45.90439" lon="4.79681">
        <ele>174</ele>
        <time>2018-08-20T08:08:08Z</time>
      </trkpt>
      <trkpt lat="45.90434" lon="4.79686">
        <ele>174</ele>
        <time>2018-08-20T08:08:09Z</time>
      </trkpt>
      <trkpt lat="45.9043" lon="4.79692">
        <ele>173</ele>
        <time>2018-08-20T08:08:10Z</time>
      </trkpt>
      <trkpt lat="45.90427" lon="4.79698">
        <ele>173</ele>
        <time>2018-08-20T08:08:11Z</time>
      </trkpt>
      <trkpt lat="45.90422" lon="4.79704">
        <ele>173</ele>
        <time>2018-08-20T08:08:12Z</time>
      </trkpt>
      <trkpt lat="45.90418" lon="4.79709">
        <ele>173</ele>
        <time>2018-08-20T08:08:13Z</time>
      </trkpt>
      <trkpt lat="45.90412" lon="4.79715">
        <ele>176</ele>
        <time>2018-08-20T08:08:14Z</time>
      </trkpt>
      <trkpt lat="45.90408" lon="4.79719">
        <ele>176</ele>
        <time>2018-08-20T08:08:15Z</time>
      </trkpt>
      <trkpt lat="45.90404" lon="4.79724">
        <ele>175</ele>
        <time>2018-08-20T08:08:16Z</time>
      </trkpt>
      <trkpt lat="45.904" lon="4.79729">
        <ele>175</ele>
        <time>2018-08-20T08:08:17Z</time>
      </trkpt>
      <trkpt lat="45.90395" lon="4.79734">
        <ele>175</ele>
        <time>2018-08-20T08:08:18Z</time>
      </trkpt>
      <trkpt lat="45.90392" lon="4.79739">
        <ele>175</ele>
        <time>2018-08-20T08:08:19Z</time>
      </trkpt>
      <trkpt lat="45.90387" lon="4.79745">
        <ele>176</ele>
        <time>2018-08-20T08:08:20Z</time>
      </trkpt>
      <trkpt lat="45.90383" lon="4.7975">
        <ele>173</ele>
        <time>2018-08-20T08:08:21Z</time>
      </trkpt>
      <trkpt lat="45.90377" lon="4.79757">
        <ele>173</ele>
        <time>2018-08-20T08:08:22Z</time>
      </trkpt>
      <trkpt lat="45.90372" lon="4.79763">
        <ele>173</ele>
        <time>2018-08-20T08:08:23Z</time>
      </trkpt>
      <trkpt lat="45.90369" lon="4.79768">
        <ele>173</ele>
        <time>2018-08-20T08:08:24Z</time>
      </trkpt>
      <trkpt lat="45.90365" lon="4.79774">
        <ele>173</ele>
        <time>2018-08-20T08:08:25Z</time>
      </trkpt>
      <trkpt lat="45.90359" lon="4.79779">
        <ele>173</ele>
        <time>2018-08-20T08:08:26Z</time>
      </trkpt>
      <trkpt lat="45.90354" lon="4.79785">
        <ele>173</ele>
        <time>2018-08-20T08:08:27Z</time>
      </trkpt>
      <trkpt lat="45.9035" lon="4.79791">
        <ele>173</ele>
        <time>2018-08-20T08:08:28Z</time>
      </trkpt>
      <trkpt lat="45.90346" lon="4.79796">
        <ele>173</ele>
        <time>2018-08-20T08:08:29Z</time>
      </trkpt>
      <trkpt lat="45.90342" lon="4.79802">
        <ele>172</ele>
        <time>2018-08-20T08:08:30Z</time>
      </trkpt>
      <trkpt lat="45.90336" lon="4.79809">
        <ele>172</ele>
        <time>2018-08-20T08:08:31Z</time>
      </trkpt>
      <trkpt lat="45.90332" lon="4.79814">
        <ele>174</ele>
        <time>2018-08-20T08:08:32Z</time>
      </trkpt>
      <trkpt lat="45.90329" lon="4.79818">
        <ele>174</ele>
        <time>2018-08-20T08:08:33Z</time>
      </trkpt>
      <trkpt lat="45.90325" lon="4.79823">
        <ele>173</ele>
        <time>2018-08-20T08:08:34Z</time>
      </trkpt>
      <trkpt lat="45.90321" lon="4.79829">
        <ele>173</ele>
        <time>2018-08-20T08:08:35Z</time>
      </trkpt>
      <trkpt lat="45.90317" lon="4.79835">
        <ele>171</ele>
        <time>2018-08-20T08:08:36Z</time>
      </trkpt>
      <trkpt lat="45.90312" lon="4.79841">
        <ele>172</ele>
        <time>2018-08-20T08:08:37Z</time>
      </trkpt>
      <trkpt lat="45.90306" lon="4.79846">
        <ele>172</ele>
        <time>2018-08-20T08:08:38Z</time>
      </trkpt>
      <trkpt lat="45.90301" lon="4.79852">
        <ele>172</ele>
        <time>2018-08-20T08:08:39Z</time>
      </trkpt>
      <trkpt lat="45.90296" lon="4.79861">
        <ele>172</ele>
        <time>2018-08-20T08:08:40Z</time>
      </trkpt>
      <trkpt lat="45.9029" lon="4.79867">
        <ele>173</ele>
        <time>2018-08-20T08:08:41Z</time>
      </trkpt>
      <trkpt lat="45.90286" lon="4.79873">
        <ele>173</ele>
        <time>2018-08-20T08:08:42Z</time>
      </trkpt>
      <trkpt lat="45.90279" lon="4.7988">
        <ele>173</ele>
        <time>2018-08-20T08:08:43Z</time>
      </trkpt>
      <trkpt lat="45.90274" lon="4.79886">
        <ele>173</ele>
        <time>2018-08-20T08:08:44Z</time>
      </trkpt>
      <trkpt lat="45.90269" lon="4.79889">
        <ele>173</ele>
        <time>2018-08-20T08:08:45Z</time>
      </trkpt>
      <trkpt lat="45.90263" lon="4.79893">
        <ele>173</ele>
        <time>2018-08-20T08:08:46Z</time>
      </trkpt>
      <trkpt lat="45.90256" lon="4.79899">
        <ele>172</ele>
        <time>2018-08-20T08:08:47Z</time>
      </trkpt>
      <trkpt lat="45.9025" lon="4.79902">
        <ele>172</ele>
        <time>2018-08-20T08:08:48Z</time>
      </trkpt>
      <trkpt lat="45.90244" lon="4.79906">
        <ele>175</ele>
        <time>2018-08-20T08:08:49Z</time>
      </trkpt>
      <trkpt lat="45.90239" lon="4.79911">
        <ele>175</ele>
        <time>2018-08-20T08:08:50Z</time>
      </trkpt>
      <trkpt lat="45.90232" lon="4.79914">
        <ele>175</ele>
        <time>2018-08-20T08:08:51Z</time>
      </trkpt>
      <trkpt lat="45.90225" lon="4.79917">
        <ele>172</ele>
        <time>2018-08-20T08:08:52Z</time>
      </trkpt>
      <trkpt lat="45.90219" lon="4.79921">
        <ele>172</ele>
        <time>2018-08-20T08:08:53Z</time>
      </trkpt>
      <trkpt lat="45.90213" lon="4.79923">
        <ele>173</ele>
        <time>2018-08-20T08:08:54Z</time>
      </trkpt>
      <trkpt lat="45.90207" lon="4.79925">
        <ele>173</ele>
        <time>2018-08-20T08:08:55Z</time>
      </trkpt>
      <trkpt lat="45.902" lon="4.79927">
        <ele>173</ele>
        <time>2018-08-20T08:08:56Z</time>
      </trkpt>
      <trkpt lat="45.90196" lon="4.79929">
        <ele>173</ele>
        <time>2018-08-20T08:08:57Z</time>
      </trkpt>
      <trkpt lat="45.9019" lon="4.7993">
        <ele>174</ele>
        <time>2018-08-20T08:08:58Z</time>
      </trkpt>
      <trkpt lat="45.90186" lon="4.79931">
        <ele>174</ele>
        <time>2018-08-20T08:08:59Z</time>
      </trkpt>
      <trkpt lat="45.9018" lon="4.79933">
        <ele>174</ele>
        <time>2018-08-20T08:09:00Z</time>
      </trkpt>
      <trkpt lat="45.90174" lon="4.79935">
        <ele>174</ele>
        <time>2018-08-20T08:09:01Z</time>
      </trkpt>
      <trkpt lat="45.90168" lon="4.79937">
        <ele>174</ele>
        <time>2018-08-20T08:09:02Z</time>
      </trkpt>
      <trkpt lat="45.90162" lon="4.79941">
        <ele>176</ele>
        <time>2018-08-20T08:09:03Z</time>
      </trkpt>
      <trkpt lat="45.90156" lon="4.79942">
        <ele>176</ele>
        <time>2018-08-20T08:09:04Z</time>
      </trkpt>
      <trkpt lat="45.90149" lon="4.79945">
        <ele>175</ele>
        <time>2018-08-20T08:09:05Z</time>
      </trkpt>
      <trkpt lat="45.90143" lon="4.79948">
        <ele>175</ele>
        <time>2018-08-20T08:09:06Z</time>
      </trkpt>
      <trkpt lat="45.90137" lon="4.7995">
        <ele>175</ele>
        <time>2018-08-20T08:09:07Z</time>
      </trkpt>
      <trkpt lat="45.90129" lon="4.79954">
        <ele>175</ele>
        <time>2018-08-20T08:09:08Z</time>
      </trkpt>
      <trkpt lat="45.90123" lon="4.79956">
        <ele>175</ele>
        <time>2018-08-20T08:09:09Z</time>
      </trkpt>
      <trkpt lat="45.90116" lon="4.79958">
        <ele>175</ele>
        <time>2018-08-20T08:09:10Z</time>
      </trkpt>
      <trkpt lat="45.90107" lon="4.79967">
        <ele>175</ele>
        <time>2018-08-20T08:09:11Z</time>
      </trkpt>
      <trkpt lat="45.90099" lon="4.79971">
        <ele>174</ele>
        <time>2018-08-20T08:09:12Z</time>
      </trkpt>
      <trkpt lat="45.90092" lon="4.79975">
        <ele>174</ele>
        <time>2018-08-20T08:09:13Z</time>
      </trkpt>
      <trkpt lat="45.90085" lon="4.79979">
        <ele>174</ele>
        <time>2018-08-20T08:09:14Z</time>
      </trkpt>
      <trkpt lat="45.90078" lon="4.79982">
        <ele>174</ele>
        <time>2018-08-20T08:09:15Z</time>
      </trkpt>
      <trkpt lat="45.90071" lon="4.79982">
        <ele>175</ele>
        <time>2018-08-20T08:09:16Z</time>
      </trkpt>
      <trkpt lat="45.90064" lon="4.79985">
        <ele>175</ele>
        <time>2018-08-20T08:09:17Z</time>
      </trkpt>
      <trkpt lat="45.90058" lon="4.79986">
        <ele>175</ele>
        <time>2018-08-20T08:09:18Z</time>
      </trkpt>
      <trkpt lat="45.90052" lon="4.79989">
        <ele>175</ele>
        <time>2018-08-20T08:09:19Z</time>
      </trkpt>
      <trkpt lat="45.90046" lon="4.79992">
        <ele>175</ele>
        <time>2018-08-20T08:09:20Z</time>
      </trkpt>
      <trkpt lat="45.90039" lon="4.79995">
        <ele>175</ele>
        <time>2018-08-20T08:09:21Z</time>
      </trkpt>
      <trkpt lat="45.90033" lon="4.79997">
        <ele>175</ele>
        <time>2018-08-20T08:09:22Z</time>
      </trkpt>
      <trkpt lat="45.90027" lon="4.80002">
        <ele>170</ele>
        <time>2018-08-20T08:09:23Z</time>
      </trkpt>
      <trkpt lat="45.90021" lon="4.80004">
        <ele>171</ele>
        <time>2018-08-20T08:09:24Z</time>
      </trkpt>
      <trkpt lat="45.90015" lon="4.80007">
        <ele>171</ele>
        <time>2018-08-20T08:09:25Z</time>
      </trkpt>
      <trkpt lat="45.90008" lon="4.80011">
        <ele>171</ele>
        <time>2018-08-20T08:09:26Z</time>
      </trkpt>
      <trkpt lat="45.90001" lon="4.80013">
        <ele>171</ele>
        <time>2018-08-20T08:09:27Z</time>
      </trkpt>
      <trkpt lat="45.89993" lon="4.80015">
        <ele>171</ele>
        <time>2018-08-20T08:09:28Z</time>
      </trkpt>
      <trkpt lat="45.89986" lon="4.80019">
        <ele>171</ele>
        <time>2018-08-20T08:09:29Z</time>
      </trkpt>
      <trkpt lat="45.8998" lon="4.80021">
        <ele>171</ele>
        <time>2018-08-20T08:09:30Z</time>
      </trkpt>
      <trkpt lat="45.89974" lon="4.80024">
        <ele>171</ele>
        <time>2018-08-20T08:09:31Z</time>
      </trkpt>
      <trkpt lat="45.89969" lon="4.80028">
        <ele>171</ele>
        <time>2018-08-20T08:09:32Z</time>
      </trkpt>
      <trkpt lat="45.89963" lon="4.80028">
        <ele>171</ele>
        <time>2018-08-20T08:09:33Z</time>
      </trkpt>
      <trkpt lat="45.89957" lon="4.80031">
        <ele>170</ele>
        <time>2018-08-20T08:09:34Z</time>
      </trkpt>
      <trkpt lat="45.89951" lon="4.80033">
        <ele>170</ele>
        <time>2018-08-20T08:09:35Z</time>
      </trkpt>
      <trkpt lat="45.89945" lon="4.80036">
        <ele>170</ele>
        <time>2018-08-20T08:09:36Z</time>
      </trkpt>
      <trkpt lat="45.89938" lon="4.8004">
        <ele>170</ele>
        <time>2018-08-20T08:09:37Z</time>
      </trkpt>
      <trkpt lat="45.89932" lon="4.80043">
        <ele>170</ele>
        <time>2018-08-20T08:09:38Z</time>
      </trkpt>
      <trkpt lat="45.89923" lon="4.80049">
        <ele>170</ele>
        <time>2018-08-20T08:09:39Z</time>
      </trkpt>
      <trkpt lat="45.89917" lon="4.80051">
        <ele>170</ele>
        <time>2018-08-20T08:09:40Z</time>
      </trkpt>
      <trkpt lat="45.8991" lon="4.80054">
        <ele>170</ele>
        <time>2018-08-20T08:09:41Z</time>
      </trkpt>
      <trkpt lat="45.89903" lon="4.80057">
        <ele>170</ele>
        <time>2018-08-20T08:09:42Z</time>
      </trkpt>
      <trkpt lat="45.89896" lon="4.8006">
        <ele>170</ele>
        <time>2018-08-20T08:09:43Z</time>
      </trkpt>
      <trkpt lat="45.8989" lon="4.80063">
        <ele>170</ele>
        <time>2018-08-20T08:09:44Z</time>
      </trkpt>
      <trkpt lat="45.89883" lon="4.80065">
        <ele>170</ele>
        <time>2018-08-20T08:09:45Z</time>
      </trkpt>
      <trkpt lat="45.89876" lon="4.80067">
        <ele>170</ele>
        <time>2018-08-20T08:09:46Z</time>
      </trkpt>
      <trkpt lat="45.8987" lon="4.80069">
        <ele>170</ele>
        <time>2018-08-20T08:09:47Z</time>
      </trkpt>
      <trkpt lat="45.89864" lon="4.80071">
        <ele>170</ele>
        <time>2018-08-20T08:09:48Z</time>
      </trkpt>
      <trkpt lat="45.89858" lon="4.80074">
        <ele>170</ele>
        <time>2018-08-20T08:09:49Z</time>
      </trkpt>
      <trkpt lat="45.8985" lon="4.80078">
        <ele>170</ele>
        <time>2018-08-20T08:09:50Z</time>
      </trkpt>
      <trkpt lat="45.89846" lon="4.80081">
        <ele>170</ele>
        <time>2018-08-20T08:09:51Z</time>
      </trkpt>
      <trkpt lat="45.89839" lon="4.80086">
        <ele>170</ele>
        <time>2018-08-20T08:09:52Z</time>
      </trkpt>
      <trkpt lat="45.89833" lon="4.8009">
        <ele>170</ele>
        <time>2018-08-20T08:09:53Z</time>
      </trkpt>
      <trkpt lat="45.89828" lon="4.80094">
        <ele>170</ele>
        <time>2018-08-20T08:09:54Z</time>
      </trkpt>
      <trkpt lat="45.89822" lon="4.80096">
        <ele>170</ele>
        <time>2018-08-20T08:09:55Z</time>
      </trkpt>
      <trkpt lat="45.89815" lon="4.80097">
        <ele>169</ele>
        <time>2018-08-20T08:09:56Z</time>
      </trkpt>
      <trkpt lat="45.89809" lon="4.80099">
        <ele>169</ele>
        <time>2018-08-20T08:09:57Z</time>
      </trkpt>
      <trkpt lat="45.89802" lon="4.80103">
        <ele>169</ele>
        <time>2018-08-20T08:09:58Z</time>
      </trkpt>
      <trkpt lat="45.89795" lon="4.80106">
        <ele>169</ele>
        <time>2018-08-20T08:09:59Z</time>
      </trkpt>
      <trkpt lat="45.89789" lon="4.80108">
        <ele>169</ele>
        <time>2018-08-20T08:10:00Z</time>
      </trkpt>
      <trkpt lat="45.89783" lon="4.8011">
        <ele>169</ele>
        <time>2018-08-20T08:10:01Z</time>
      </trkpt>
      <trkpt lat="45.89777" lon="4.80112">
        <ele>169</ele>
        <time>2018-08-20T08:10:02Z</time>
      </trkpt>
      <trkpt lat="45.8977" lon="4.80115">
        <ele>169</ele>
        <time>2018-08-20T08:10:03Z</time>
      </trkpt>
      <trkpt lat="45.89765" lon="4.80116">
        <ele>169</ele>
        <time>2018-08-20T08:10:04Z</time>
      </trkpt>
      <trkpt lat="45.8976" lon="4.80119">
        <ele>169</ele>
        <time>2018-08-20T08:10:05Z</time>
      </trkpt>
      <trkpt lat="45.89754" lon="4.80122">
        <ele>169</ele>
        <time>2018-08-20T08:10:06Z</time>
      </trkpt>
      <trkpt lat="45.89746" lon="4.80125">
        <ele>170</ele>
        <time>2018-08-20T08:10:07Z</time>
      </trkpt>
      <trkpt lat="45.8974" lon="4.80128">
        <ele>171</ele>
        <time>2018-08-20T08:10:08Z</time>
      </trkpt>
      <trkpt lat="45.89734" lon="4.8013">
        <ele>171</ele>
        <time>2018-08-20T08:10:09Z</time>
      </trkpt>
      <trkpt lat="45.89727" lon="4.80131">
        <ele>171</ele>
        <time>2018-08-20T08:10:10Z</time>
      </trkpt>
      <trkpt lat="45.89721" lon="4.80134">
        <ele>171</ele>
        <time>2018-08-20T08:10:11Z</time>
      </trkpt>
      <trkpt lat="45.89716" lon="4.80135">
        <ele>171</ele>
        <time>2018-08-20T08:10:12Z</time>
      </trkpt>
      <trkpt lat="45.89711" lon="4.80136">
        <ele>171</ele>
        <time>2018-08-20T08:10:13Z</time>
      </trkpt>
      <trkpt lat="45.89704" lon="4.80141">
        <ele>171</ele>
        <time>2018-08-20T08:10:14Z</time>
      </trkpt>
      <trkpt lat="45.89697" lon="4.80144">
        <ele>171</ele>
        <time>2018-08-20T08:10:15Z</time>
      </trkpt>
      <trkpt lat="45.89692" lon="4.80145">
        <ele>172</ele>
        <time>2018-08-20T08:10:16Z</time>
      </trkpt>
      <trkpt lat="45.89687" lon="4.80148">
        <ele>172</ele>
        <time>2018-08-20T08:10:17Z</time>
      </trkpt>
      <trkpt lat="45.89681" lon="4.8015">
        <ele>172</ele>
        <time>2018-08-20T08:10:18Z</time>
      </trkpt>
      <trkpt lat="45.89675" lon="4.80151">
        <ele>172</ele>
        <time>2018-08-20T08:10:19Z</time>
      </trkpt>
      <trkpt lat="45.89669" lon="4.80151">
        <ele>172</ele>
        <time>2018-08-20T08:10:20Z</time>
      </trkpt>
      <trkpt lat="45.89664" lon="4.80153">
        <ele>173</ele>
        <time>2018-08-20T08:10:21Z</time>
      </trkpt>
      <trkpt lat="45.89656" lon="4.80155">
        <ele>173</ele>
        <time>2018-08-20T08:10:22Z</time>
      </trkpt>
      <trkpt lat="45.89651" lon="4.80158">
        <ele>173</ele>
        <time>2018-08-20T08:10:23Z</time>
      </trkpt>
      <trkpt lat="45.89645" lon="4.80162">
        <ele>173</ele>
        <time>2018-08-20T08:10:24Z</time>
      </trkpt>
      <trkpt lat="45.89638" lon="4.80165">
        <ele>173</ele>
        <time>2018-08-20T08:10:25Z</time>
      </trkpt>
      <trkpt lat="45.89632" lon="4.80168">
        <ele>172</ele>
        <time>2018-08-20T08:10:26Z</time>
      </trkpt>
      <trkpt lat="45.89625" lon="4.8017">
        <ele>172</ele>
        <time>2018-08-20T08:10:27Z</time>
      </trkpt>
      <trkpt lat="45.89618" lon="4.80175">
        <ele>172</ele>
        <time>2018-08-20T08:10:28Z</time>
      </trkpt>
      <trkpt lat="45.89613" lon="4.80177">
        <ele>172</ele>
        <time>2018-08-20T08:10:29Z</time>
      </trkpt>
      <trkpt lat="45.89607" lon="4.8018">
        <ele>172</ele>
        <time>2018-08-20T08:10:30Z</time>
      </trkpt>
      <trkpt lat="45.89602" lon="4.80184">
        <ele>172</ele>
        <time>2018-08-20T08:10:31Z</time>
      </trkpt>
      <trkpt lat="45.89596" lon="4.80186">
        <ele>172</ele>
        <time>2018-08-20T08:10:32Z</time>
      </trkpt>
      <trkpt lat="45.8959" lon="4.80189">
        <ele>172</ele>
        <time>2018-08-20T08:10:33Z</time>
      </trkpt>
      <trkpt lat="45.89584" lon="4.80192">
        <ele>172</ele>
        <time>2018-08-20T08:10:34Z</time>
      </trkpt>
      <trkpt lat="45.89579" lon="4.80195">
        <ele>173</ele>
        <time>2018-08-20T08:10:35Z</time>
      </trkpt>
      <trkpt lat="45.89572" lon="4.80199">
        <ele>173</ele>
        <time>2018-08-20T08:10:36Z</time>
      </trkpt>
      <trkpt lat="45.89565" lon="4.80201">
        <ele>173</ele>
        <time>2018-08-20T08:10:37Z</time>
      </trkpt>
      <trkpt lat="45.89559" lon="4.80204">
        <ele>173</ele>
        <time>2018-08-20T08:10:38Z</time>
      </trkpt>
      <trkpt lat="45.89553" lon="4.80206">
        <ele>173</ele>
        <time>2018-08-20T08:10:39Z</time>
      </trkpt>
      <trkpt lat="45.89547" lon="4.8021">
        <ele>173</ele>
        <time>2018-08-20T08:10:40Z</time>
      </trkpt>
      <trkpt lat="45.8954" lon="4.80212">
        <ele>173</ele>
        <time>2018-08-20T08:10:41Z</time>
      </trkpt>
      <trkpt lat="45.89533" lon="4.80215">
        <ele>173</ele>
        <time>2018-08-20T08:10:42Z</time>
      </trkpt>
      <trkpt lat="45.89527" lon="4.80218">
        <ele>173</ele>
        <time>2018-08-20T08:10:43Z</time>
      </trkpt>
      <trkpt lat="45.89521" lon="4.80216">
        <ele>173</ele>
        <time>2018-08-20T08:10:44Z</time>
      </trkpt>
      <trkpt lat="45.89516" lon="4.8022">
        <ele>173</ele>
        <time>2018-08-20T08:10:45Z</time>
      </trkpt>
      <trkpt lat="45.8951" lon="4.80223">
        <ele>173</ele>
        <time>2018-08-20T08:10:46Z</time>
      </trkpt>
      <trkpt lat="45.89503" lon="4.80226">
        <ele>173</ele>
        <time>2018-08-20T08:10:47Z</time>
      </trkpt>
      <trkpt lat="45.89498" lon="4.80229">
        <ele>175</ele>
        <time>2018-08-20T08:10:48Z</time>
      </trkpt>
      <trkpt lat="45.89493" lon="4.80232">
        <ele>175</ele>
        <time>2018-08-20T08:10:49Z</time>
      </trkpt>
      <trkpt lat="45.89485" lon="4.80233">
        <ele>175</ele>
        <time>2018-08-20T08:10:50Z</time>
      </trkpt>
      <trkpt lat="45.89482" lon="4.80233">
        <ele>176</ele>
        <time>2018-08-20T08:10:51Z</time>
      </trkpt>
      <trkpt lat="45.89477" lon="4.80235">
        <ele>176</ele>
        <time>2018-08-20T08:10:52Z</time>
      </trkpt>
      <trkpt lat="45.89471" lon="4.80237">
        <ele>176</ele>
        <time>2018-08-20T08:10:53Z</time>
      </trkpt>
      <trkpt lat="45.89465" lon="4.8024">
        <ele>176</ele>
        <time>2018-08-20T08:10:54Z</time>
      </trkpt>
      <trkpt lat="45.89458" lon="4.80241">
        <ele>177</ele>
        <time>2018-08-20T08:10:55Z</time>
      </trkpt>
      <trkpt lat="45.89453" lon="4.80244">
        <ele>177</ele>
        <time>2018-08-20T08:10:56Z</time>
      </trkpt>
      <trkpt lat="45.89447" lon="4.80246">
        <ele>177</ele>
        <time>2018-08-20T08:10:57Z</time>
      </trkpt>
      <trkpt lat="45.89442" lon="4.80248">
        <ele>178</ele>
        <time>2018-08-20T08:10:58Z</time>
      </trkpt>
      <trkpt lat="45.89434" lon="4.80253">
        <ele>176</ele>
        <time>2018-08-20T08:10:59Z</time>
      </trkpt>
      <trkpt lat="45.89429" lon="4.80256">
        <ele>177</ele>
        <time>2018-08-20T08:11:00Z</time>
      </trkpt>
      <trkpt lat="45.89424" lon="4.80259">
        <ele>177</ele>
        <time>2018-08-20T08:11:01Z</time>
      </trkpt>
      <trkpt lat="45.89419" lon="4.80266">
        <ele>176</ele>
        <time>2018-08-20T08:11:02Z</time>
      </trkpt>
      <trkpt lat="45.89412" lon="4.80271">
        <ele>177</ele>
        <time>2018-08-20T08:11:03Z</time>
      </trkpt>
      <trkpt lat="45.89406" lon="4.80272">
        <ele>177</ele>
        <time>2018-08-20T08:11:04Z</time>
      </trkpt>
      <trkpt lat="45.89401" lon="4.80276">
        <ele>177</ele>
        <time>2018-08-20T08:11:05Z</time>
      </trkpt>
      <trkpt lat="45.89396" lon="4.80277">
        <ele>177</ele>
        <time>2018-08-20T08:11:06Z</time>
      </trkpt>
      <trkpt lat="45.8939" lon="4.80283">
        <ele>177</ele>
        <time>2018-08-20T08:11:07Z</time>
      </trkpt>
      <trkpt lat="45.89385" lon="4.80286">
        <ele>177</ele>
        <time>2018-08-20T08:11:08Z</time>
      </trkpt>
      <trkpt lat="45.89379" lon="4.8029">
        <ele>177</ele>
        <time>2018-08-20T08:11:09Z</time>
      </trkpt>
      <trkpt lat="45.89373" lon="4.80294">
        <ele>176</ele>
        <time>2018-08-20T08:11:10Z</time>
      </trkpt>
      <trkpt lat="45.89367" lon="4.803">
        <ele>176</ele>
        <time>2018-08-20T08:11:11Z</time>
      </trkpt>
      <trkpt lat="45.89362" lon="4.80306">
        <ele>176</ele>
        <time>2018-08-20T08:11:12Z</time>
      </trkpt>
      <trkpt lat="45.89357" lon="4.80309">
        <ele>176</ele>
        <time>2018-08-20T08:11:13Z</time>
      </trkpt>
      <trkpt lat="45.89353" lon="4.80314">
        <ele>176</ele>
        <time>2018-08-20T08:11:14Z</time>
      </trkpt>
      <trkpt lat="45.89349" lon="4.8032">
        <ele>176</ele>
        <time>2018-08-20T08:11:15Z</time>
      </trkpt>
      <trkpt lat="45.89344" lon="4.80323">
        <ele>176</ele>
        <time>2018-08-20T08:11:16Z</time>
      </trkpt>
      <trkpt lat="45.89339" lon="4.80326">
        <ele>175</ele>
        <time>2018-08-20T08:11:17Z</time>
      </trkpt>
      <trkpt lat="45.89334" lon="4.80329">
        <ele>175</ele>
        <time>2018-08-20T08:11:18Z</time>
      </trkpt>
      <trkpt lat="45.89328" lon="4.80334">
        <ele>175</ele>
        <time>2018-08-20T08:11:19Z</time>
      </trkpt>
      <trkpt lat="45.89323" lon="4.80339">
        <ele>175</ele>
        <time>2018-08-20T08:11:20Z</time>
      </trkpt>
      <trkpt lat="45.89318" lon="4.80345">
        <ele>175</ele>
        <time>2018-08-20T08:11:21Z</time>
      </trkpt>
      <trkpt lat="45.89312" lon="4.8035">
        <ele>175</ele>
        <time>2018-08-20T08:11:22Z</time>
      </trkpt>
      <trkpt lat="45.89308" lon="4.80356">
        <ele>175</ele>
        <time>2018-08-20T08:11:23Z</time>
      </trkpt>
      <trkpt lat="45.89301" lon="4.80361">
        <ele>175</ele>
        <time>2018-08-20T08:11:24Z</time>
      </trkpt>
      <trkpt lat="45.89295" lon="4.80367">
        <ele>174</ele>
        <time>2018-08-20T08:11:25Z</time>
      </trkpt>
      <trkpt lat="45.89288" lon="4.80371">
        <ele>175</ele>
        <time>2018-08-20T08:11:26Z</time>
      </trkpt>
      <trkpt lat="45.89283" lon="4.80376">
        <ele>174</ele>
        <time>2018-08-20T08:11:27Z</time>
      </trkpt>
      <trkpt lat="45.89278" lon="4.80381">
        <ele>174</ele>
        <time>2018-08-20T08:11:28Z</time>
      </trkpt>
      <trkpt lat="45.89271" lon="4.80387">
        <ele>174</ele>
        <time>2018-08-20T08:11:29Z</time>
      </trkpt>
      <trkpt lat="45.89266" lon="4.8039">
        <ele>174</ele>
        <time>2018-08-20T08:11:30Z</time>
      </trkpt>
      <trkpt lat="45.8926" lon="4.80394">
        <ele>174</ele>
        <time>2018-08-20T08:11:31Z</time>
      </trkpt>
      <trkpt lat="45.89255" lon="4.80398">
        <ele>174</ele>
        <time>2018-08-20T08:11:32Z</time>
      </trkpt>
      <trkpt lat="45.89249" lon="4.80404">
        <ele>175</ele>
        <time>2018-08-20T08:11:33Z</time>
      </trkpt>
      <trkpt lat="45.89244" lon="4.8041">
        <ele>175</ele>
        <time>2018-08-20T08:11:34Z</time>
      </trkpt>
      <trkpt lat="45.89238" lon="4.80416">
        <ele>175</ele>
        <time>2018-08-20T08:11:35Z</time>
      </trkpt>
      <trkpt lat="45.89233" lon="4.8042">
        <ele>173</ele>
        <time>2018-08-20T08:11:36Z</time>
      </trkpt>
      <trkpt lat="45.89228" lon="4.80426">
        <ele>174</ele>
        <time>2018-08-20T08:11:37Z</time>
      </trkpt>
      <trkpt lat="45.89225" lon="4.80431">
        <ele>174</ele>
        <time>2018-08-20T08:11:38Z</time>
      </trkpt>
      <trkpt lat="45.89219" lon="4.80435">
        <ele>174</ele>
        <time>2018-08-20T08:11:39Z</time>
      </trkpt>
      <trkpt lat="45.89214" lon="4.80439">
        <ele>174</ele>
        <time>2018-08-20T08:11:40Z</time>
      </trkpt>
      <trkpt lat="45.89207" lon="4.80445">
        <ele>174</ele>
        <time>2018-08-20T08:11:41Z</time>
      </trkpt>
      <trkpt lat="45.89203" lon="4.8045">
        <ele>174</ele>
        <time>2018-08-20T08:11:42Z</time>
      </trkpt>
      <trkpt lat="45.89198" lon="4.80454">
        <ele>174</ele>
        <time>2018-08-20T08:11:43Z</time>
      </trkpt>
      <trkpt lat="45.89194" lon="4.8046">
        <ele>174</ele>
        <time>2018-08-20T08:11:44Z</time>
      </trkpt>
      <trkpt lat="45.89188" lon="4.80465">
        <ele>174</ele>
        <time>2018-08-20T08:11:45Z</time>
      </trkpt>
      <trkpt lat="45.89181" lon="4.80468">
        <ele>174</ele>
        <time>2018-08-20T08:11:47Z</time>
      </trkpt>
      <trkpt lat="45.89176" lon="4.80473">
        <ele>174</ele>
        <time>2018-08-20T08:11:48Z</time>
      </trkpt>
      <trkpt lat="45.89171" lon="4.80477">
        <ele>174</ele>
        <time>2018-08-20T08:11:49Z</time>
      </trkpt>
      <trkpt lat="45.89166" lon="4.80481">
        <ele>175</ele>
        <time>2018-08-20T08:11:50Z</time>
      </trkpt>
      <trkpt lat="45.8916" lon="4.80485">
        <ele>175</ele>
        <time>2018-08-20T08:11:51Z</time>
      </trkpt>
      <trkpt lat="45.89155" lon="4.80488">
        <ele>175</ele>
        <time>2018-08-20T08:11:52Z</time>
      </trkpt>
      <trkpt lat="45.89149" lon="4.80491">
        <ele>175</ele>
        <time>2018-08-20T08:11:53Z</time>
      </trkpt>
      <trkpt lat="45.89143" lon="4.80494">
        <ele>176</ele>
        <time>2018-08-20T08:11:54Z</time>
      </trkpt>
      <trkpt lat="45.89137" lon="4.80498">
        <ele>176</ele>
        <time>2018-08-20T08:11:55Z</time>
      </trkpt>
      <trkpt lat="45.89132" lon="4.805">
        <ele>176</ele>
        <time>2018-08-20T08:11:56Z</time>
      </trkpt>
      <trkpt lat="45.89127" lon="4.80502">
        <ele>173</ele>
        <time>2018-08-20T08:11:57Z</time>
      </trkpt>
      <trkpt lat="45.89121" lon="4.80504">
        <ele>173</ele>
        <time>2018-08-20T08:11:58Z</time>
      </trkpt>
      <trkpt lat="45.89115" lon="4.80508">
        <ele>173</ele>
        <time>2018-08-20T08:11:59Z</time>
      </trkpt>
      <trkpt lat="45.8911" lon="4.8051">
        <ele>173</ele>
        <time>2018-08-20T08:12:00Z</time>
      </trkpt>
      <trkpt lat="45.89104" lon="4.80512">
        <ele>174</ele>
        <time>2018-08-20T08:12:01Z</time>
      </trkpt>
      <trkpt lat="45.89098" lon="4.80516">
        <ele>174</ele>
        <time>2018-08-20T08:12:02Z</time>
      </trkpt>
      <trkpt lat="45.89093" lon="4.80517">
        <ele>174</ele>
        <time>2018-08-20T08:12:03Z</time>
      </trkpt>
      <trkpt lat="45.89087" lon="4.8052">
        <ele>174</ele>
        <time>2018-08-20T08:12:04Z</time>
      </trkpt>
      <trkpt lat="45.89081" lon="4.80522">
        <ele>174</ele>
        <time>2018-08-20T08:12:05Z</time>
      </trkpt>
      <trkpt lat="45.89076" lon="4.80524">
        <ele>174</ele>
        <time>2018-08-20T08:12:06Z</time>
      </trkpt>
      <trkpt lat="45.8907" lon="4.80525">
        <ele>174</ele>
        <time>2018-08-20T08:12:07Z</time>
      </trkpt>
      <trkpt lat="45.89064" lon="4.80525">
        <ele>174</ele>
        <time>2018-08-20T08:12:08Z</time>
      </trkpt>
      <trkpt lat="45.89058" lon="4.80528">
        <ele>174</ele>
        <time>2018-08-20T08:12:09Z</time>
      </trkpt>
      <trkpt lat="45.89051" lon="4.8053">
        <ele>173</ele>
        <time>2018-08-20T08:12:10Z</time>
      </trkpt>
      <trkpt lat="45.89046" lon="4.80534">
        <ele>173</ele>
        <time>2018-08-20T08:12:11Z</time>
      </trkpt>
      <trkpt lat="45.8904" lon="4.80535">
        <ele>173</ele>
        <time>2018-08-20T08:12:12Z</time>
      </trkpt>
      <trkpt lat="45.89035" lon="4.80537">
        <ele>173</ele>
        <time>2018-08-20T08:12:13Z</time>
      </trkpt>
      <trkpt lat="45.89029" lon="4.8054">
        <ele>173</ele>
        <time>2018-08-20T08:12:14Z</time>
      </trkpt>
      <trkpt lat="45.89026" lon="4.8054">
        <ele>173</ele>
        <time>2018-08-20T08:12:15Z</time>
      </trkpt>
      <trkpt lat="45.8902" lon="4.80544">
        <ele>173</ele>
        <time>2018-08-20T08:12:16Z</time>
      </trkpt>
      <trkpt lat="45.89015" lon="4.80544">
        <ele>173</ele>
        <time>2018-08-20T08:12:17Z</time>
      </trkpt>
      <trkpt lat="45.89009" lon="4.80547">
        <ele>173</ele>
        <time>2018-08-20T08:12:18Z</time>
      </trkpt>
      <trkpt lat="45.89004" lon="4.80548">
        <ele>173</ele>
        <time>2018-08-20T08:12:19Z</time>
      </trkpt>
      <trkpt lat="45.88999" lon="4.80551">
        <ele>173</ele>
        <time>2018-08-20T08:12:20Z</time>
      </trkpt>
      <trkpt lat="45.88993" lon="4.80553">
        <ele>173</ele>
        <time>2018-08-20T08:12:21Z</time>
      </trkpt>
      <trkpt lat="45.88988" lon="4.80557">
        <ele>173</ele>
        <time>2018-08-20T08:12:22Z</time>
      </trkpt>
      <trkpt lat="45.88982" lon="4.80557">
        <ele>173</ele>
        <time>2018-08-20T08:12:23Z</time>
      </trkpt>
      <trkpt lat="45.88976" lon="4.80557">
        <ele>173</ele>
        <time>2018-08-20T08:12:24Z</time>
      </trkpt>
      <trkpt lat="45.8897" lon="4.8056">
        <ele>173</ele>
        <time>2018-08-20T08:12:25Z</time>
      </trkpt>
      <trkpt lat="45.88964" lon="4.8056">
        <ele>173</ele>
        <time>2018-08-20T08:12:26Z</time>
      </trkpt>
      <trkpt lat="45.88959" lon="4.8056">
        <ele>173</ele>
        <time>2018-08-20T08:12:27Z</time>
      </trkpt>
      <trkpt lat="45.88953" lon="4.80559">
        <ele>173</ele>
        <time>2018-08-20T08:12:28Z</time>
      </trkpt>
      <trkpt lat="45.88947" lon="4.80559">
        <ele>173</ele>
        <time>2018-08-20T08:12:29Z</time>
      </trkpt>
      <trkpt lat="45.88941" lon="4.8056">
        <ele>173</ele>
        <time>2018-08-20T08:12:30Z</time>
      </trkpt>
      <trkpt lat="45.88936" lon="4.80565">
        <ele>172</ele>
        <time>2018-08-20T08:12:31Z</time>
      </trkpt>
      <trkpt lat="45.88933" lon="4.80572">
        <ele>172</ele>
        <time>2018-08-20T08:12:32Z</time>
      </trkpt>
      <trkpt lat="45.88928" lon="4.80578">
        <ele>172</ele>
        <time>2018-08-20T08:12:33Z</time>
      </trkpt>
      <trkpt lat="45.88923" lon="4.80582">
        <ele>171</ele>
        <time>2018-08-20T08:12:34Z</time>
      </trkpt>
      <trkpt lat="45.88918" lon="4.80587">
        <ele>171</ele>
        <time>2018-08-20T08:12:35Z</time>
      </trkpt>
      <trkpt lat="45.88912" lon="4.80591">
        <ele>171</ele>
        <time>2018-08-20T08:12:36Z</time>
      </trkpt>
      <trkpt lat="45.88906" lon="4.80595">
        <ele>172</ele>
        <time>2018-08-20T08:12:37Z</time>
      </trkpt>
      <trkpt lat="45.88901" lon="4.80599">
        <ele>172</ele>
        <time>2018-08-20T08:12:38Z</time>
      </trkpt>
      <trkpt lat="45.88895" lon="4.80603">
        <ele>172</ele>
        <time>2018-08-20T08:12:39Z</time>
      </trkpt>
      <trkpt lat="45.88888" lon="4.80607">
        <ele>172</ele>
        <time>2018-08-20T08:12:40Z</time>
      </trkpt>
      <trkpt lat="45.88883" lon="4.80611">
        <ele>172</ele>
        <time>2018-08-20T08:12:41Z</time>
      </trkpt>
      <trkpt lat="45.88876" lon="4.80616">
        <ele>172</ele>
        <time>2018-08-20T08:12:42Z</time>
      </trkpt>
      <trkpt lat="45.88871" lon="4.8062">
        <ele>172</ele>
        <time>2018-08-20T08:12:43Z</time>
      </trkpt>
      <trkpt lat="45.88865" lon="4.80627">
        <ele>172</ele>
        <time>2018-08-20T08:12:44Z</time>
      </trkpt>
      <trkpt lat="45.88859" lon="4.80632">
        <ele>173</ele>
        <time>2018-08-20T08:12:45Z</time>
      </trkpt>
      <trkpt lat="45.88853" lon="4.80636">
        <ele>173</ele>
        <time>2018-08-20T08:12:46Z</time>
      </trkpt>
      <trkpt lat="45.88847" lon="4.8064">
        <ele>173</ele>
        <time>2018-08-20T08:12:47Z</time>
      </trkpt>
      <trkpt lat="45.88843" lon="4.80644">
        <ele>173</ele>
        <time>2018-08-20T08:12:48Z</time>
      </trkpt>
      <trkpt lat="45.88837" lon="4.8065">
        <ele>173</ele>
        <time>2018-08-20T08:12:49Z</time>
      </trkpt>
      <trkpt lat="45.88828" lon="4.80658">
        <ele>174</ele>
        <time>2018-08-20T08:12:50Z</time>
      </trkpt>
      <trkpt lat="45.88823" lon="4.80664">
        <ele>174</ele>
        <time>2018-08-20T08:12:51Z</time>
      </trkpt>
      <trkpt lat="45.88817" lon="4.80667">
        <ele>173</ele>
        <time>2018-08-20T08:12:52Z</time>
      </trkpt>
      <trkpt lat="45.88811" lon="4.80674">
        <ele>172</ele>
        <time>2018-08-20T08:12:53Z</time>
      </trkpt>
      <trkpt lat="45.88805" lon="4.80678">
        <ele>172</ele>
        <time>2018-08-20T08:12:54Z</time>
      </trkpt>
      <trkpt lat="45.88799" lon="4.80685">
        <ele>172</ele>
        <time>2018-08-20T08:12:55Z</time>
      </trkpt>
      <trkpt lat="45.88794" lon="4.80688">
        <ele>172</ele>
        <time>2018-08-20T08:12:56Z</time>
      </trkpt>
      <trkpt lat="45.88788" lon="4.80695">
        <ele>172</ele>
        <time>2018-08-20T08:12:57Z</time>
      </trkpt>
      <trkpt lat="45.88782" lon="4.807">
        <ele>172</ele>
        <time>2018-08-20T08:12:58Z</time>
      </trkpt>
      <trkpt lat="45.88777" lon="4.80705">
        <ele>172</ele>
        <time>2018-08-20T08:12:59Z</time>
      </trkpt>
      <trkpt lat="45.88771" lon="4.80712">
        <ele>172</ele>
        <time>2018-08-20T08:13:00Z</time>
      </trkpt>
      <trkpt lat="45.88766" lon="4.80719">
        <ele>171</ele>
        <time>2018-08-20T08:13:01Z</time>
      </trkpt>
      <trkpt lat="45.88761" lon="4.80725">
        <ele>171</ele>
        <time>2018-08-20T08:13:02Z</time>
      </trkpt>
      <trkpt lat="45.88755" lon="4.80729">
        <ele>171</ele>
        <time>2018-08-20T08:13:03Z</time>
      </trkpt>
      <trkpt lat="45.88749" lon="4.80738">
        <ele>171</ele>
        <time>2018-08-20T08:13:04Z</time>
      </trkpt>
      <trkpt lat="45.88745" lon="4.80742">
        <ele>171</ele>
        <time>2018-08-20T08:13:05Z</time>
      </trkpt>
      <trkpt lat="45.88741" lon="4.80745">
        <ele>171</ele>
        <time>2018-08-20T08:13:06Z</time>
      </trkpt>
      <trkpt lat="45.88736" lon="4.80752">
        <ele>170</ele>
        <time>2018-08-20T08:13:07Z</time>
      </trkpt>
      <trkpt lat="45.8873" lon="4.80758">
        <ele>170</ele>
        <time>2018-08-20T08:13:08Z</time>
      </trkpt>
      <trkpt lat="45.88725" lon="4.80764">
        <ele>170</ele>
        <time>2018-08-20T08:13:09Z</time>
      </trkpt>
      <trkpt lat="45.8872" lon="4.80768">
        <ele>170</ele>
        <time>2018-08-20T08:13:10Z</time>
      </trkpt>
      <trkpt lat="45.88716" lon="4.80775">
        <ele>170</ele>
        <time>2018-08-20T08:13:11Z</time>
      </trkpt>
      <trkpt lat="45.8871" lon="4.8078">
        <ele>171</ele>
        <time>2018-08-20T08:13:12Z</time>
      </trkpt>
      <trkpt lat="45.88705" lon="4.80786">
        <ele>171</ele>
        <time>2018-08-20T08:13:13Z</time>
      </trkpt>
      <trkpt lat="45.88699" lon="4.80794">
        <ele>171</ele>
        <time>2018-08-20T08:13:14Z</time>
      </trkpt>
      <trkpt lat="45.88695" lon="4.80799">
        <ele>171</ele>
        <time>2018-08-20T08:13:15Z</time>
      </trkpt>
      <trkpt lat="45.88689" lon="4.80807">
        <ele>171</ele>
        <time>2018-08-20T08:13:16Z</time>
      </trkpt>
      <trkpt lat="45.88684" lon="4.80811">
        <ele>171</ele>
        <time>2018-08-20T08:13:17Z</time>
      </trkpt>
      <trkpt lat="45.8868" lon="4.80816">
        <ele>171</ele>
        <time>2018-08-20T08:13:18Z</time>
      </trkpt>
      <trkpt lat="45.88674" lon="4.80822">
        <ele>171</ele>
        <time>2018-08-20T08:13:19Z</time>
      </trkpt>
      <trkpt lat="45.88669" lon="4.80828">
        <ele>171</ele>
        <time>2018-08-20T08:13:20Z</time>
      </trkpt>
      <trkpt lat="45.88663" lon="4.80836">
        <ele>171</ele>
        <time>2018-08-20T08:13:22Z</time>
      </trkpt>
      <trkpt lat="45.88659" lon="4.80842">
        <ele>171</ele>
        <time>2018-08-20T08:13:23Z</time>
      </trkpt>
      <trkpt lat="45.88652" lon="4.80848">
        <ele>171</ele>
        <time>2018-08-20T08:13:24Z</time>
      </trkpt>
      <trkpt lat="45.88647" lon="4.80854">
        <ele>171</ele>
        <time>2018-08-20T08:13:25Z</time>
      </trkpt>
      <trkpt lat="45.88641" lon="4.8086">
        <ele>171</ele>
        <time>2018-08-20T08:13:26Z</time>
      </trkpt>
      <trkpt lat="45.88636" lon="4.80866">
        <ele>171</ele>
        <time>2018-08-20T08:13:27Z</time>
      </trkpt>
      <trkpt lat="45.8863" lon="4.80873">
        <ele>171</ele>
        <time>2018-08-20T08:13:28Z</time>
      </trkpt>
      <trkpt lat="45.88624" lon="4.80881">
        <ele>171</ele>
        <time>2018-08-20T08:13:29Z</time>
      </trkpt>
      <trkpt lat="45.88618" lon="4.80887">
        <ele>171</ele>
        <time>2018-08-20T08:13:30Z</time>
      </trkpt>
      <trkpt lat="45.88614" lon="4.80892">
        <ele>171</ele>
        <time>2018-08-20T08:13:31Z</time>
      </trkpt>
      <trkpt lat="45.88608" lon="4.80898">
        <ele>170</ele>
        <time>2018-08-20T08:13:32Z</time>
      </trkpt>
      <trkpt lat="45.88604" lon="4.80903">
        <ele>170</ele>
        <time>2018-08-20T08:13:33Z</time>
      </trkpt>
      <trkpt lat="45.88599" lon="4.8091">
        <ele>170</ele>
        <time>2018-08-20T08:13:35Z</time>
      </trkpt>
      <trkpt lat="45.88596" lon="4.80916">
        <ele>169</ele>
        <time>2018-08-20T08:13:36Z</time>
      </trkpt>
      <trkpt lat="45.88588" lon="4.80922">
        <ele>168</ele>
        <time>2018-08-20T08:13:37Z</time>
      </trkpt>
      <trkpt lat="45.88583" lon="4.80928">
        <ele>168</ele>
        <time>2018-08-20T08:13:38Z</time>
      </trkpt>
      <trkpt lat="45.88578" lon="4.80933">
        <ele>169</ele>
        <time>2018-08-20T08:13:39Z</time>
      </trkpt>
      <trkpt lat="45.88573" lon="4.80939">
        <ele>169</ele>
        <time>2018-08-20T08:13:40Z</time>
      </trkpt>
      <trkpt lat="45.88567" lon="4.80945">
        <ele>169</ele>
        <time>2018-08-20T08:13:41Z</time>
      </trkpt>
      <trkpt lat="45.88562" lon="4.80952">
        <ele>169</ele>
        <time>2018-08-20T08:13:42Z</time>
      </trkpt>
      <trkpt lat="45.88558" lon="4.80958">
        <ele>169</ele>
        <time>2018-08-20T08:13:43Z</time>
      </trkpt>
      <trkpt lat="45.88552" lon="4.80963">
        <ele>169</ele>
        <time>2018-08-20T08:13:44Z</time>
      </trkpt>
      <trkpt lat="45.88548" lon="4.8097">
        <ele>169</ele>
        <time>2018-08-20T08:13:45Z</time>
      </trkpt>
      <trkpt lat="45.88542" lon="4.80975">
        <ele>169</ele>
        <time>2018-08-20T08:13:46Z</time>
      </trkpt>
      <trkpt lat="45.88536" lon="4.80983">
        <ele>169</ele>
        <time>2018-08-20T08:13:47Z</time>
      </trkpt>
      <trkpt lat="45.88532" lon="4.80989">
        <ele>169</ele>
        <time>2018-08-20T08:13:48Z</time>
      </trkpt>
      <trkpt lat="45.88526" lon="4.80996">
        <ele>169</ele>
        <time>2018-08-20T08:13:49Z</time>
      </trkpt>
      <trkpt lat="45.88522" lon="4.81002">
        <ele>169</ele>
        <time>2018-08-20T08:13:50Z</time>
      </trkpt>
      <trkpt lat="45.88517" lon="4.81007">
        <ele>169</ele>
        <time>2018-08-20T08:13:51Z</time>
      </trkpt>
      <trkpt lat="45.88513" lon="4.81015">
        <ele>169</ele>
        <time>2018-08-20T08:13:52Z</time>
      </trkpt>
      <trkpt lat="45.88508" lon="4.81021">
        <ele>169</ele>
        <time>2018-08-20T08:13:53Z</time>
      </trkpt>
      <trkpt lat="45.88504" lon="4.81028">
        <ele>169</ele>
        <time>2018-08-20T08:13:54Z</time>
      </trkpt>
      <trkpt lat="45.885" lon="4.81035">
        <ele>168</ele>
        <time>2018-08-20T08:13:55Z</time>
      </trkpt>
      <trkpt lat="45.88495" lon="4.8104">
        <ele>168</ele>
        <time>2018-08-20T08:13:56Z</time>
      </trkpt>
      <trkpt lat="45.8849" lon="4.81046">
        <ele>168</ele>
        <time>2018-08-20T08:13:57Z</time>
      </trkpt>
      <trkpt lat="45.88487" lon="4.8105">
        <ele>168</ele>
        <time>2018-08-20T08:13:58Z</time>
      </trkpt>
      <trkpt lat="45.88482" lon="4.81056">
        <ele>168</ele>
        <time>2018-08-20T08:13:59Z</time>
      </trkpt>
      <trkpt lat="45.88476" lon="4.81064">
        <ele>168</ele>
        <time>2018-08-20T08:14:00Z</time>
      </trkpt>
      <trkpt lat="45.88472" lon="4.81071">
        <ele>168</ele>
        <time>2018-08-20T08:14:01Z</time>
      </trkpt>
      <trkpt lat="45.88468" lon="4.81076">
        <ele>168</ele>
        <time>2018-08-20T08:14:02Z</time>
      </trkpt>
      <trkpt lat="45.88463" lon="4.81082">
        <ele>168</ele>
        <time>2018-08-20T08:14:03Z</time>
      </trkpt>
      <trkpt lat="45.88458" lon="4.8109">
        <ele>168</ele>
        <time>2018-08-20T08:14:04Z</time>
      </trkpt>
      <trkpt lat="45.88453" lon="4.81096">
        <ele>168</ele>
        <time>2018-08-20T08:14:05Z</time>
      </trkpt>
      <trkpt lat="45.8845" lon="4.81103">
        <ele>168</ele>
        <time>2018-08-20T08:14:06Z</time>
      </trkpt>
      <trkpt lat="45.88446" lon="4.81109">
        <ele>168</ele>
        <time>2018-08-20T08:14:07Z</time>
      </trkpt>
      <trkpt lat="45.88442" lon="4.81117">
        <ele>168</ele>
        <time>2018-08-20T08:14:08Z</time>
      </trkpt>
      <trkpt lat="45.88437" lon="4.81123">
        <ele>168</ele>
        <time>2018-08-20T08:14:09Z</time>
      </trkpt>
      <trkpt lat="45.88434" lon="4.81128">
        <ele>168</ele>
        <time>2018-08-20T08:14:10Z</time>
      </trkpt>
      <trkpt lat="45.88428" lon="4.81137">
        <ele>168</ele>
        <time>2018-08-20T08:14:11Z</time>
      </trkpt>
      <trkpt lat="45.88424" lon="4.81142">
        <ele>169</ele>
        <time>2018-08-20T08:14:12Z</time>
      </trkpt>
      <trkpt lat="45.8842" lon="4.81148">
        <ele>169</ele>
        <time>2018-08-20T08:14:13Z</time>
      </trkpt>
      <trkpt lat="45.88418" lon="4.81154">
        <ele>169</ele>
        <time>2018-08-20T08:14:14Z</time>
      </trkpt>
      <trkpt lat="45.88414" lon="4.81161">
        <ele>170</ele>
        <time>2018-08-20T08:14:15Z</time>
      </trkpt>
      <trkpt lat="45.8841" lon="4.81168">
        <ele>170</ele>
        <time>2018-08-20T08:14:16Z</time>
      </trkpt>
      <trkpt lat="45.88405" lon="4.81175">
        <ele>170</ele>
        <time>2018-08-20T08:14:17Z</time>
      </trkpt>
      <trkpt lat="45.88401" lon="4.81183">
        <ele>170</ele>
        <time>2018-08-20T08:14:18Z</time>
      </trkpt>
      <trkpt lat="45.88395" lon="4.81193">
        <ele>170</ele>
        <time>2018-08-20T08:14:19Z</time>
      </trkpt>
      <trkpt lat="45.8839" lon="4.81201">
        <ele>170</ele>
        <time>2018-08-20T08:14:20Z</time>
      </trkpt>
      <trkpt lat="45.88386" lon="4.81208">
        <ele>170</ele>
        <time>2018-08-20T08:14:21Z</time>
      </trkpt>
      <trkpt lat="45.88381" lon="4.81216">
        <ele>170</ele>
        <time>2018-08-20T08:14:22Z</time>
      </trkpt>
      <trkpt lat="45.88377" lon="4.81221">
        <ele>170</ele>
        <time>2018-08-20T08:14:23Z</time>
      </trkpt>
      <trkpt lat="45.88372" lon="4.8123">
        <ele>170</ele>
        <time>2018-08-20T08:14:24Z</time>
      </trkpt>
      <trkpt lat="45.88367" lon="4.81237">
        <ele>170</ele>
        <time>2018-08-20T08:14:25Z</time>
      </trkpt>
      <trkpt lat="45.88364" lon="4.81247">
        <ele>170</ele>
        <time>2018-08-20T08:14:26Z</time>
      </trkpt>
      <trkpt lat="45.8836" lon="4.81254">
        <ele>170</ele>
        <time>2018-08-20T08:14:27Z</time>
      </trkpt>
      <trkpt lat="45.88357" lon="4.8126">
        <ele>170</ele>
        <time>2018-08-20T08:14:28Z</time>
      </trkpt>
      <trkpt lat="45.88355" lon="4.81266">
        <ele>170</ele>
        <time>2018-08-20T08:14:29Z</time>
      </trkpt>
      <trkpt lat="45.88351" lon="4.81274">
        <ele>170</ele>
        <time>2018-08-20T08:14:30Z</time>
      </trkpt>
      <trkpt lat="45.88344" lon="4.81283">
        <ele>170</ele>
        <time>2018-08-20T08:14:31Z</time>
      </trkpt>
      <trkpt lat="45.88339" lon="4.81291">
        <ele>170</ele>
        <time>2018-08-20T08:14:32Z</time>
      </trkpt>
      <trkpt lat="45.88335" lon="4.81297">
        <ele>171</ele>
        <time>2018-08-20T08:14:33Z</time>
      </trkpt>
      <trkpt lat="45.88332" lon="4.81303">
        <ele>172</ele>
        <time>2018-08-20T08:14:34Z</time>
      </trkpt>
      <trkpt lat="45.88329" lon="4.81311">
        <ele>172</ele>
        <time>2018-08-20T08:14:35Z</time>
      </trkpt>
      <trkpt lat="45.88324" lon="4.8132">
        <ele>172</ele>
        <time>2018-08-20T08:14:36Z</time>
      </trkpt>
      <trkpt lat="45.88322" lon="4.81326">
        <ele>172</ele>
        <time>2018-08-20T08:14:37Z</time>
      </trkpt>
      <trkpt lat="45.88318" lon="4.81334">
        <ele>171</ele>
        <time>2018-08-20T08:14:38Z</time>
      </trkpt>
      <trkpt lat="45.88313" lon="4.81342">
        <ele>170</ele>
        <time>2018-08-20T08:14:39Z</time>
      </trkpt>
      <trkpt lat="45.8831" lon="4.81348">
        <ele>170</ele>
        <time>2018-08-20T08:14:40Z</time>
      </trkpt>
      <trkpt lat="45.88306" lon="4.81354">
        <ele>169</ele>
        <time>2018-08-20T08:14:41Z</time>
      </trkpt>
      <trkpt lat="45.88303" lon="4.81361">
        <ele>169</ele>
        <time>2018-08-20T08:14:42Z</time>
      </trkpt>
      <trkpt lat="45.88299" lon="4.81367">
        <ele>169</ele>
        <time>2018-08-20T08:14:43Z</time>
      </trkpt>
      <trkpt lat="45.88295" lon="4.81375">
        <ele>168</ele>
        <time>2018-08-20T08:14:44Z</time>
      </trkpt>
      <trkpt lat="45.88292" lon="4.81381">
        <ele>168</ele>
        <time>2018-08-20T08:14:45Z</time>
      </trkpt>
      <trkpt lat="45.88288" lon="4.81389">
        <ele>168</ele>
        <time>2018-08-20T08:14:46Z</time>
      </trkpt>
      <trkpt lat="45.88285" lon="4.81394">
        <ele>168</ele>
        <time>2018-08-20T08:14:47Z</time>
      </trkpt>
      <trkpt lat="45.88281" lon="4.81402">
        <ele>167</ele>
        <time>2018-08-20T08:14:48Z</time>
      </trkpt>
      <trkpt lat="45.88277" lon="4.8141">
        <ele>167</ele>
        <time>2018-08-20T08:14:49Z</time>
      </trkpt>
      <trkpt lat="45.88273" lon="4.8142">
        <ele>166</ele>
        <time>2018-08-20T08:14:50Z</time>
      </trkpt>
      <trkpt lat="45.88271" lon="4.81428">
        <ele>166</ele>
        <time>2018-08-20T08:14:51Z</time>
      </trkpt>
      <trkpt lat="45.88267" lon="4.81433">
        <ele>166</ele>
        <time>2018-08-20T08:14:52Z</time>
      </trkpt>
      <trkpt lat="45.88263" lon="4.81443">
        <ele>166</ele>
        <time>2018-08-20T08:14:53Z</time>
      </trkpt>
      <trkpt lat="45.8826" lon="4.81452">
        <ele>166</ele>
        <time>2018-08-20T08:14:54Z</time>
      </trkpt>
      <trkpt lat="45.88256" lon="4.81466">
        <ele>166</ele>
        <time>2018-08-20T08:14:55Z</time>
      </trkpt>
      <trkpt lat="45.88252" lon="4.81475">
        <ele>167</ele>
        <time>2018-08-20T08:14:56Z</time>
      </trkpt>
      <trkpt lat="45.8825" lon="4.8148">
        <ele>167</ele>
        <time>2018-08-20T08:14:57Z</time>
      </trkpt>
      <trkpt lat="45.88245" lon="4.81487">
        <ele>169</ele>
        <time>2018-08-20T08:14:58Z</time>
      </trkpt>
      <trkpt lat="45.88242" lon="4.81495">
        <ele>169</ele>
        <time>2018-08-20T08:14:59Z</time>
      </trkpt>
      <trkpt lat="45.88239" lon="4.815">
        <ele>169</ele>
        <time>2018-08-20T08:15:00Z</time>
      </trkpt>
      <trkpt lat="45.88234" lon="4.81507">
        <ele>170</ele>
        <time>2018-08-20T08:15:01Z</time>
      </trkpt>
      <trkpt lat="45.8823" lon="4.81515">
        <ele>170</ele>
        <time>2018-08-20T08:15:02Z</time>
      </trkpt>
      <trkpt lat="45.88226" lon="4.81522">
        <ele>170</ele>
        <time>2018-08-20T08:15:03Z</time>
      </trkpt>
      <trkpt lat="45.88223" lon="4.81529">
        <ele>170</ele>
        <time>2018-08-20T08:15:04Z</time>
      </trkpt>
      <trkpt lat="45.88218" lon="4.81538">
        <ele>171</ele>
        <time>2018-08-20T08:15:05Z</time>
      </trkpt>
      <trkpt lat="45.88215" lon="4.81548">
        <ele>171</ele>
        <time>2018-08-20T08:15:06Z</time>
      </trkpt>
      <trkpt lat="45.88213" lon="4.81554">
        <ele>171</ele>
        <time>2018-08-20T08:15:07Z</time>
      </trkpt>
      <trkpt lat="45.8821" lon="4.81561">
        <ele>171</ele>
        <time>2018-08-20T08:15:08Z</time>
      </trkpt>
      <trkpt lat="45.88207" lon="4.81569">
        <ele>171</ele>
        <time>2018-08-20T08:15:09Z</time>
      </trkpt>
      <trkpt lat="45.88202" lon="4.81576">
        <ele>171</ele>
        <time>2018-08-20T08:15:10Z</time>
      </trkpt>
      <trkpt lat="45.88198" lon="4.81584">
        <ele>171</ele>
        <time>2018-08-20T08:15:11Z</time>
      </trkpt>
      <trkpt lat="45.88195" lon="4.8159">
        <ele>171</ele>
        <time>2018-08-20T08:15:12Z</time>
      </trkpt>
      <trkpt lat="45.8819" lon="4.81597">
        <ele>172</ele>
        <time>2018-08-20T08:15:13Z</time>
      </trkpt>
      <trkpt lat="45.88185" lon="4.81606">
        <ele>172</ele>
        <time>2018-08-20T08:15:14Z</time>
      </trkpt>
      <trkpt lat="45.88183" lon="4.8161">
        <ele>172</ele>
        <time>2018-08-20T08:15:15Z</time>
      </trkpt>
      <trkpt lat="45.88179" lon="4.81618">
        <ele>171</ele>
        <time>2018-08-20T08:15:16Z</time>
      </trkpt>
      <trkpt lat="45.88176" lon="4.81627">
        <ele>171</ele>
        <time>2018-08-20T08:15:17Z</time>
      </trkpt>
      <trkpt lat="45.88173" lon="4.81635">
        <ele>171</ele>
        <time>2018-08-20T08:15:18Z</time>
      </trkpt>
      <trkpt lat="45.8817" lon="4.81643">
        <ele>171</ele>
        <time>2018-08-20T08:15:19Z</time>
      </trkpt>
      <trkpt lat="45.88168" lon="4.8165">
        <ele>172</ele>
        <time>2018-08-20T08:15:20Z</time>
      </trkpt>
      <trkpt lat="45.88164" lon="4.8166">
        <ele>174</ele>
        <time>2018-08-20T08:15:21Z</time>
      </trkpt>
      <trkpt lat="45.88161" lon="4.81668">
        <ele>173</ele>
        <time>2018-08-20T08:15:22Z</time>
      </trkpt>
      <trkpt lat="45.88155" lon="4.81674">
        <ele>172</ele>
        <time>2018-08-20T08:15:23Z</time>
      </trkpt>
      <trkpt lat="45.88151" lon="4.81682">
        <ele>172</ele>
        <time>2018-08-20T08:15:24Z</time>
      </trkpt>
      <trkpt lat="45.88149" lon="4.81693">
        <ele>171</ele>
        <time>2018-08-20T08:15:25Z</time>
      </trkpt>
      <trkpt lat="45.88145" lon="4.81702">
        <ele>171</ele>
        <time>2018-08-20T08:15:26Z</time>
      </trkpt>
      <trkpt lat="45.88143" lon="4.8171">
        <ele>170</ele>
        <time>2018-08-20T08:15:27Z</time>
      </trkpt>
      <trkpt lat="45.88139" lon="4.81718">
        <ele>170</ele>
        <time>2018-08-20T08:15:28Z</time>
      </trkpt>
      <trkpt lat="45.88137" lon="4.8173">
        <ele>170</ele>
        <time>2018-08-20T08:15:29Z</time>
      </trkpt>
      <trkpt lat="45.88138" lon="4.81737">
        <ele>169</ele>
        <time>2018-08-20T08:15:30Z</time>
      </trkpt>
      <trkpt lat="45.88133" lon="4.81746">
        <ele>169</ele>
        <time>2018-08-20T08:15:31Z</time>
      </trkpt>
      <trkpt lat="45.88129" lon="4.81757">
        <ele>167</ele>
        <time>2018-08-20T08:15:32Z</time>
      </trkpt>
      <trkpt lat="45.88125" lon="4.81761">
        <ele>167</ele>
        <time>2018-08-20T08:15:33Z</time>
      </trkpt>
      <trkpt lat="45.88124" lon="4.81768">
        <ele>167</ele>
        <time>2018-08-20T08:15:34Z</time>
      </trkpt>
      <trkpt lat="45.88119" lon="4.81777">
        <ele>167</ele>
        <time>2018-08-20T08:15:35Z</time>
      </trkpt>
      <trkpt lat="45.88118" lon="4.81786">
        <ele>167</ele>
        <time>2018-08-20T08:15:36Z</time>
      </trkpt>
      <trkpt lat="45.88114" lon="4.81796">
        <ele>167</ele>
        <time>2018-08-20T08:15:37Z</time>
      </trkpt>
      <trkpt lat="45.88112" lon="4.81809">
        <ele>167</ele>
        <time>2018-08-20T08:15:38Z</time>
      </trkpt>
      <trkpt lat="45.88109" lon="4.81814">
        <ele>167</ele>
        <time>2018-08-20T08:15:39Z</time>
      </trkpt>
      <trkpt lat="45.88106" lon="4.8182">
        <ele>167</ele>
        <time>2018-08-20T08:15:40Z</time>
      </trkpt>
      <trkpt lat="45.88104" lon="4.81831">
        <ele>167</ele>
        <time>2018-08-20T08:15:41Z</time>
      </trkpt>
      <trkpt lat="45.881" lon="4.81841">
        <ele>166</ele>
        <time>2018-08-20T08:15:42Z</time>
      </trkpt>
      <trkpt lat="45.88097" lon="4.81853">
        <ele>166</ele>
        <time>2018-08-20T08:15:43Z</time>
      </trkpt>
      <trkpt lat="45.88093" lon="4.81862">
        <ele>166</ele>
        <time>2018-08-20T08:15:44Z</time>
      </trkpt>
      <trkpt lat="45.8809" lon="4.81868">
        <ele>166</ele>
        <time>2018-08-20T08:15:45Z</time>
      </trkpt>
      <trkpt lat="45.88087" lon="4.81876">
        <ele>166</ele>
        <time>2018-08-20T08:15:46Z</time>
      </trkpt>
      <trkpt lat="45.88084" lon="4.81883">
        <ele>166</ele>
        <time>2018-08-20T08:15:47Z</time>
      </trkpt>
      <trkpt lat="45.88081" lon="4.8189">
        <ele>167</ele>
        <time>2018-08-20T08:15:48Z</time>
      </trkpt>
      <trkpt lat="45.88076" lon="4.81899">
        <ele>167</ele>
        <time>2018-08-20T08:15:49Z</time>
      </trkpt>
      <trkpt lat="45.88075" lon="4.81907">
        <ele>167</ele>
        <time>2018-08-20T08:15:50Z</time>
      </trkpt>
      <trkpt lat="45.88073" lon="4.81916">
        <ele>166</ele>
        <time>2018-08-20T08:15:51Z</time>
      </trkpt>
      <trkpt lat="45.88069" lon="4.81928">
        <ele>167</ele>
        <time>2018-08-20T08:15:52Z</time>
      </trkpt>
      <trkpt lat="45.88065" lon="4.81938">
        <ele>168</ele>
        <time>2018-08-20T08:15:53Z</time>
      </trkpt>
      <trkpt lat="45.88062" lon="4.81946">
        <ele>168</ele>
        <time>2018-08-20T08:15:54Z</time>
      </trkpt>
      <trkpt lat="45.88059" lon="4.81955">
        <ele>168</ele>
        <time>2018-08-20T08:15:55Z</time>
      </trkpt>
      <trkpt lat="45.88056" lon="4.81963">
        <ele>168</ele>
        <time>2018-08-20T08:15:56Z</time>
      </trkpt>
      <trkpt lat="45.88054" lon="4.81974">
        <ele>168</ele>
        <time>2018-08-20T08:15:57Z</time>
      </trkpt>
      <trkpt lat="45.88051" lon="4.81983">
        <ele>168</ele>
        <time>2018-08-20T08:15:58Z</time>
      </trkpt>
      <trkpt lat="45.88049" lon="4.8199">
        <ele>168</ele>
        <time>2018-08-20T08:15:59Z</time>
      </trkpt>
      <trkpt lat="45.88046" lon="4.82001">
        <ele>168</ele>
        <time>2018-08-20T08:16:00Z</time>
      </trkpt>
      <trkpt lat="45.88042" lon="4.8201">
        <ele>168</ele>
        <time>2018-08-20T08:16:01Z</time>
      </trkpt>
      <trkpt lat="45.8804" lon="4.82019">
        <ele>169</ele>
        <time>2018-08-20T08:16:02Z</time>
      </trkpt>
      <trkpt lat="45.88037" lon="4.82028">
        <ele>169</ele>
        <time>2018-08-20T08:16:03Z</time>
      </trkpt>
      <trkpt lat="45.88034" lon="4.82036">
        <ele>169</ele>
        <time>2018-08-20T08:16:04Z</time>
      </trkpt>
      <trkpt lat="45.8803" lon="4.82044">
        <ele>169</ele>
        <time>2018-08-20T08:16:05Z</time>
      </trkpt>
      <trkpt lat="45.88026" lon="4.8205">
        <ele>169</ele>
        <time>2018-08-20T08:16:06Z</time>
      </trkpt>
      <trkpt lat="45.88021" lon="4.82056">
        <ele>169</ele>
        <time>2018-08-20T08:16:07Z</time>
      </trkpt>
      <trkpt lat="45.88016" lon="4.82061">
        <ele>169</ele>
        <time>2018-08-20T08:16:08Z</time>
      </trkpt>
      <trkpt lat="45.88012" lon="4.82063">
        <ele>169</ele>
        <time>2018-08-20T08:16:09Z</time>
      </trkpt>
      <trkpt lat="45.88006" lon="4.82066">
        <ele>169</ele>
        <time>2018-08-20T08:16:10Z</time>
      </trkpt>
      <trkpt lat="45.87999" lon="4.82067">
        <ele>172</ele>
        <time>2018-08-20T08:16:11Z</time>
      </trkpt>
      <trkpt lat="45.87995" lon="4.82069">
        <ele>172</ele>
        <time>2018-08-20T08:16:12Z</time>
      </trkpt>
      <trkpt lat="45.87989" lon="4.82073">
        <ele>172</ele>
        <time>2018-08-20T08:16:13Z</time>
      </trkpt>
      <trkpt lat="45.87985" lon="4.8208">
        <ele>172</ele>
        <time>2018-08-20T08:16:14Z</time>
      </trkpt>
      <trkpt lat="45.87984" lon="4.82088">
        <ele>171</ele>
        <time>2018-08-20T08:16:15Z</time>
      </trkpt>
      <trkpt lat="45.87981" lon="4.82096">
        <ele>171</ele>
        <time>2018-08-20T08:16:16Z</time>
      </trkpt>
      <trkpt lat="45.87978" lon="4.82105">
        <ele>171</ele>
        <time>2018-08-20T08:16:17Z</time>
      </trkpt>
      <trkpt lat="45.87975" lon="4.82113">
        <ele>171</ele>
        <time>2018-08-20T08:16:18Z</time>
      </trkpt>
      <trkpt lat="45.87973" lon="4.82122">
        <ele>171</ele>
        <time>2018-08-20T08:16:19Z</time>
      </trkpt>
      <trkpt lat="45.87971" lon="4.8213">
        <ele>171</ele>
        <time>2018-08-20T08:16:20Z</time>
      </trkpt>
      <trkpt lat="45.87968" lon="4.82139">
        <ele>171</ele>
        <time>2018-08-20T08:16:21Z</time>
      </trkpt>
      <trkpt lat="45.87968" lon="4.82148">
        <ele>171</ele>
        <time>2018-08-20T08:16:22Z</time>
      </trkpt>
      <trkpt lat="45.87966" lon="4.82157">
        <ele>171</ele>
        <time>2018-08-20T08:16:23Z</time>
      </trkpt>
      <trkpt lat="45.87965" lon="4.82166">
        <ele>171</ele>
        <time>2018-08-20T08:16:24Z</time>
      </trkpt>
      <trkpt lat="45.87964" lon="4.82175">
        <ele>170</ele>
        <time>2018-08-20T08:16:25Z</time>
      </trkpt>
      <trkpt lat="45.87963" lon="4.82184">
        <ele>170</ele>
        <time>2018-08-20T08:16:26Z</time>
      </trkpt>
      <trkpt lat="45.87961" lon="4.82192">
        <ele>170</ele>
        <time>2018-08-20T08:16:27Z</time>
      </trkpt>
      <trkpt lat="45.87961" lon="4.82201">
        <ele>170</ele>
        <time>2018-08-20T08:16:28Z</time>
      </trkpt>
      <trkpt lat="45.87958" lon="4.82209">
        <ele>170</ele>
        <time>2018-08-20T08:16:29Z</time>
      </trkpt>
      <trkpt lat="45.8796" lon="4.82217">
        <ele>170</ele>
        <time>2018-08-20T08:16:30Z</time>
      </trkpt>
      <trkpt lat="45.87959" lon="4.82227">
        <ele>169</ele>
        <time>2018-08-20T08:16:31Z</time>
      </trkpt>
      <trkpt lat="45.87957" lon="4.82238">
        <ele>169</ele>
        <time>2018-08-20T08:16:32Z</time>
      </trkpt>
      <trkpt lat="45.87957" lon="4.82245">
        <ele>169</ele>
        <time>2018-08-20T08:16:33Z</time>
      </trkpt>
      <trkpt lat="45.87956" lon="4.82252">
        <ele>168</ele>
        <time>2018-08-20T08:16:34Z</time>
      </trkpt>
      <trkpt lat="45.87954" lon="4.82264">
        <ele>168</ele>
        <time>2018-08-20T08:16:35Z</time>
      </trkpt>
      <trkpt lat="45.87953" lon="4.82271">
        <ele>168</ele>
        <time>2018-08-20T08:16:36Z</time>
      </trkpt>
      <trkpt lat="45.87952" lon="4.82281">
        <ele>168</ele>
        <time>2018-08-20T08:16:37Z</time>
      </trkpt>
      <trkpt lat="45.87951" lon="4.82288">
        <ele>168</ele>
        <time>2018-08-20T08:16:38Z</time>
      </trkpt>
      <trkpt lat="45.8795" lon="4.82296">
        <ele>168</ele>
        <time>2018-08-20T08:16:39Z</time>
      </trkpt>
      <trkpt lat="45.87949" lon="4.82303">
        <ele>168</ele>
        <time>2018-08-20T08:16:40Z</time>
      </trkpt>
      <trkpt lat="45.87947" lon="4.82312">
        <ele>168</ele>
        <time>2018-08-20T08:16:41Z</time>
      </trkpt>
      <trkpt lat="45.87945" lon="4.82322">
        <ele>168</ele>
        <time>2018-08-20T08:16:42Z</time>
      </trkpt>
      <trkpt lat="45.87943" lon="4.82331">
        <ele>169</ele>
        <time>2018-08-20T08:16:43Z</time>
      </trkpt>
      <trkpt lat="45.87943" lon="4.82339">
        <ele>168</ele>
        <time>2018-08-20T08:16:44Z</time>
      </trkpt>
      <trkpt lat="45.87943" lon="4.82348">
        <ele>168</ele>
        <time>2018-08-20T08:16:45Z</time>
      </trkpt>
      <trkpt lat="45.87943" lon="4.82357">
        <ele>167</ele>
        <time>2018-08-20T08:16:46Z</time>
      </trkpt>
      <trkpt lat="45.87942" lon="4.82364">
        <ele>167</ele>
        <time>2018-08-20T08:16:47Z</time>
      </trkpt>
      <trkpt lat="45.87941" lon="4.82372">
        <ele>167</ele>
        <time>2018-08-20T08:16:48Z</time>
      </trkpt>
      <trkpt lat="45.87939" lon="4.82381">
        <ele>167</ele>
        <time>2018-08-20T08:16:49Z</time>
      </trkpt>
      <trkpt lat="45.87939" lon="4.82389">
        <ele>167</ele>
        <time>2018-08-20T08:16:50Z</time>
      </trkpt>
      <trkpt lat="45.87938" lon="4.82397">
        <ele>167</ele>
        <time>2018-08-20T08:16:51Z</time>
      </trkpt>
      <trkpt lat="45.87937" lon="4.82405">
        <ele>167</ele>
        <time>2018-08-20T08:16:52Z</time>
      </trkpt>
      <trkpt lat="45.87937" lon="4.82413">
        <ele>167</ele>
        <time>2018-08-20T08:16:53Z</time>
      </trkpt>
      <trkpt lat="45.87939" lon="4.8242">
        <ele>167</ele>
        <time>2018-08-20T08:16:54Z</time>
      </trkpt>
      <trkpt lat="45.87938" lon="4.82429">
        <ele>167</ele>
        <time>2018-08-20T08:16:55Z</time>
      </trkpt>
      <trkpt lat="45.87936" lon="4.82437">
        <ele>167</ele>
        <time>2018-08-20T08:16:56Z</time>
      </trkpt>
      <trkpt lat="45.87936" lon="4.82446">
        <ele>167</ele>
        <time>2018-08-20T08:16:57Z</time>
      </trkpt>
      <trkpt lat="45.87933" lon="4.82455">
        <ele>167</ele>
        <time>2018-08-20T08:16:58Z</time>
      </trkpt>
      <trkpt lat="45.8793" lon="4.82463">
        <ele>167</ele>
        <time>2018-08-20T08:16:59Z</time>
      </trkpt>
      <trkpt lat="45.87928" lon="4.82473">
        <ele>167</ele>
        <time>2018-08-20T08:17:00Z</time>
      </trkpt>
      <trkpt lat="45.87927" lon="4.82481">
        <ele>167</ele>
        <time>2018-08-20T08:17:01Z</time>
      </trkpt>
      <trkpt lat="45.87927" lon="4.82488">
        <ele>167</ele>
        <time>2018-08-20T08:17:02Z</time>
      </trkpt>
      <trkpt lat="45.87926" lon="4.82497">
        <ele>167</ele>
        <time>2018-08-20T08:17:03Z</time>
      </trkpt>
      <trkpt lat="45.87923" lon="4.82506">
        <ele>167</ele>
        <time>2018-08-20T08:17:04Z</time>
      </trkpt>
      <trkpt lat="45.87921" lon="4.82514">
        <ele>167</ele>
        <time>2018-08-20T08:17:05Z</time>
      </trkpt>
      <trkpt lat="45.87918" lon="4.82524">
        <ele>167</ele>
        <time>2018-08-20T08:17:06Z</time>
      </trkpt>
      <trkpt lat="45.87916" lon="4.82532">
        <ele>168</ele>
        <time>2018-08-20T08:17:07Z</time>
      </trkpt>
      <trkpt lat="45.87915" lon="4.82541">
        <ele>168</ele>
        <time>2018-08-20T08:17:08Z</time>
      </trkpt>
      <trkpt lat="45.87915" lon="4.8255">
        <ele>168</ele>
        <time>2018-08-20T08:17:09Z</time>
      </trkpt>
      <trkpt lat="45.87912" lon="4.82559">
        <ele>167</ele>
        <time>2018-08-20T08:17:10Z</time>
      </trkpt>
      <trkpt lat="45.87911" lon="4.82566">
        <ele>167</ele>
        <time>2018-08-20T08:17:11Z</time>
      </trkpt>
      <trkpt lat="45.87909" lon="4.82574">
        <ele>166</ele>
        <time>2018-08-20T08:17:12Z</time>
      </trkpt>
      <trkpt lat="45.87908" lon="4.82581">
        <ele>166</ele>
        <time>2018-08-20T08:17:13Z</time>
      </trkpt>
      <trkpt lat="45.87905" lon="4.8259">
        <ele>166</ele>
        <time>2018-08-20T08:17:14Z</time>
      </trkpt>
      <trkpt lat="45.87903" lon="4.82599">
        <ele>167</ele>
        <time>2018-08-20T08:17:15Z</time>
      </trkpt>
      <trkpt lat="45.87901" lon="4.82607">
        <ele>167</ele>
        <time>2018-08-20T08:17:16Z</time>
      </trkpt>
      <trkpt lat="45.87898" lon="4.82615">
        <ele>167</ele>
        <time>2018-08-20T08:17:17Z</time>
      </trkpt>
      <trkpt lat="45.87896" lon="4.82624">
        <ele>167</ele>
        <time>2018-08-20T08:17:18Z</time>
      </trkpt>
      <trkpt lat="45.87896" lon="4.82631">
        <ele>167</ele>
        <time>2018-08-20T08:17:19Z</time>
      </trkpt>
      <trkpt lat="45.87894" lon="4.82639">
        <ele>167</ele>
        <time>2018-08-20T08:17:20Z</time>
      </trkpt>
      <trkpt lat="45.87889" lon="4.82649">
        <ele>167</ele>
        <time>2018-08-20T08:17:21Z</time>
      </trkpt>
      <trkpt lat="45.87888" lon="4.82658">
        <ele>167</ele>
        <time>2018-08-20T08:17:22Z</time>
      </trkpt>
      <trkpt lat="45.87887" lon="4.82667">
        <ele>167</ele>
        <time>2018-08-20T08:17:23Z</time>
      </trkpt>
      <trkpt lat="45.87884" lon="4.82676">
        <ele>168</ele>
        <time>2018-08-20T08:17:24Z</time>
      </trkpt>
      <trkpt lat="45.87883" lon="4.82684">
        <ele>168</ele>
        <time>2018-08-20T08:17:25Z</time>
      </trkpt>
      <trkpt lat="45.87883" lon="4.82692">
        <ele>169</ele>
        <time>2018-08-20T08:17:26Z</time>
      </trkpt>
      <trkpt lat="45.87881" lon="4.82701">
        <ele>169</ele>
        <time>2018-08-20T08:17:27Z</time>
      </trkpt>
      <trkpt lat="45.87881" lon="4.82712">
        <ele>169</ele>
        <time>2018-08-20T08:17:28Z</time>
      </trkpt>
      <trkpt lat="45.8788" lon="4.82722">
        <ele>169</ele>
        <time>2018-08-20T08:17:29Z</time>
      </trkpt>
      <trkpt lat="45.87881" lon="4.8273">
        <ele>169</ele>
        <time>2018-08-20T08:17:30Z</time>
      </trkpt>
      <trkpt lat="45.8788" lon="4.82739">
        <ele>169</ele>
        <time>2018-08-20T08:17:31Z</time>
      </trkpt>
      <trkpt lat="45.8788" lon="4.82748">
        <ele>169</ele>
        <time>2018-08-20T08:17:32Z</time>
      </trkpt>
      <trkpt lat="45.87881" lon="4.82756">
        <ele>169</ele>
        <time>2018-08-20T08:17:33Z</time>
      </trkpt>
      <trkpt lat="45.87881" lon="4.82764">
        <ele>169</ele>
        <time>2018-08-20T08:17:34Z</time>
      </trkpt>
      <trkpt lat="45.87883" lon="4.82773">
        <ele>169</ele>
        <time>2018-08-20T08:17:35Z</time>
      </trkpt>
      <trkpt lat="45.87884" lon="4.82781">
        <ele>169</ele>
        <time>2018-08-20T08:17:36Z</time>
      </trkpt>
      <trkpt lat="45.87885" lon="4.82789">
        <ele>169</ele>
        <time>2018-08-20T08:17:37Z</time>
      </trkpt>
      <trkpt lat="45.87886" lon="4.82798">
        <ele>169</ele>
        <time>2018-08-20T08:17:38Z</time>
      </trkpt>
      <trkpt lat="45.87885" lon="4.82806">
        <ele>169</ele>
        <time>2018-08-20T08:17:39Z</time>
      </trkpt>
      <trkpt lat="45.87886" lon="4.82815">
        <ele>169</ele>
        <time>2018-08-20T08:17:40Z</time>
      </trkpt>
      <trkpt lat="45.87887" lon="4.82823">
        <ele>169</ele>
        <time>2018-08-20T08:17:41Z</time>
      </trkpt>
      <trkpt lat="45.87887" lon="4.82833">
        <ele>169</ele>
        <time>2018-08-20T08:17:42Z</time>
      </trkpt>
      <trkpt lat="45.87886" lon="4.82841">
        <ele>168</ele>
        <time>2018-08-20T08:17:43Z</time>
      </trkpt>
      <trkpt lat="45.87887" lon="4.82852">
        <ele>169</ele>
        <time>2018-08-20T08:17:44Z</time>
      </trkpt>
      <trkpt lat="45.87887" lon="4.82862">
        <ele>169</ele>
        <time>2018-08-20T08:17:45Z</time>
      </trkpt>
      <trkpt lat="45.87889" lon="4.82872">
        <ele>169</ele>
        <time>2018-08-20T08:17:46Z</time>
      </trkpt>
      <trkpt lat="45.8789" lon="4.82882">
        <ele>168</ele>
        <time>2018-08-20T08:17:47Z</time>
      </trkpt>
      <trkpt lat="45.87891" lon="4.8289">
        <ele>168</ele>
        <time>2018-08-20T08:17:48Z</time>
      </trkpt>
      <trkpt lat="45.87891" lon="4.82899">
        <ele>168</ele>
        <time>2018-08-20T08:17:49Z</time>
      </trkpt>
      <trkpt lat="45.87893" lon="4.82909">
        <ele>168</ele>
        <time>2018-08-20T08:17:50Z</time>
      </trkpt>
      <trkpt lat="45.87893" lon="4.82915">
        <ele>168</ele>
        <time>2018-08-20T08:17:51Z</time>
      </trkpt>
      <trkpt lat="45.87893" lon="4.82927">
        <ele>168</ele>
        <time>2018-08-20T08:17:52Z</time>
      </trkpt>
      <trkpt lat="45.87893" lon="4.82936">
        <ele>168</ele>
        <time>2018-08-20T08:17:53Z</time>
      </trkpt>
      <trkpt lat="45.87892" lon="4.82945">
        <ele>168</ele>
        <time>2018-08-20T08:17:54Z</time>
      </trkpt>
      <trkpt lat="45.87891" lon="4.82952">
        <ele>168</ele>
        <time>2018-08-20T08:17:55Z</time>
      </trkpt>
      <trkpt lat="45.87887" lon="4.82963">
        <ele>168</ele>
        <time>2018-08-20T08:17:56Z</time>
      </trkpt>
      <trkpt lat="45.87886" lon="4.82972">
        <ele>168</ele>
        <time>2018-08-20T08:17:57Z</time>
      </trkpt>
      <trkpt lat="45.87886" lon="4.82981">
        <ele>168</ele>
        <time>2018-08-20T08:17:58Z</time>
      </trkpt>
      <trkpt lat="45.87883" lon="4.82991">
        <ele>168</ele>
        <time>2018-08-20T08:17:59Z</time>
      </trkpt>
      <trkpt lat="45.87882" lon="4.82999">
        <ele>168</ele>
        <time>2018-08-20T08:18:00Z</time>
      </trkpt>
      <trkpt lat="45.87879" lon="4.83009">
        <ele>169</ele>
        <time>2018-08-20T08:18:01Z</time>
      </trkpt>
      <trkpt lat="45.8788" lon="4.83018">
        <ele>169</ele>
        <time>2018-08-20T08:18:02Z</time>
      </trkpt>
      <trkpt lat="45.8788" lon="4.83027">
        <ele>169</ele>
        <time>2018-08-20T08:18:03Z</time>
      </trkpt>
      <trkpt lat="45.87878" lon="4.83035">
        <ele>169</ele>
        <time>2018-08-20T08:18:04Z</time>
      </trkpt>
      <trkpt lat="45.87876" lon="4.83045">
        <ele>169</ele>
        <time>2018-08-20T08:18:05Z</time>
      </trkpt>
      <trkpt lat="45.87873" lon="4.83056">
        <ele>169</ele>
        <time>2018-08-20T08:18:06Z</time>
      </trkpt>
      <trkpt lat="45.87873" lon="4.83066">
        <ele>169</ele>
        <time>2018-08-20T08:18:07Z</time>
      </trkpt>
      <trkpt lat="45.87871" lon="4.83076">
        <ele>169</ele>
        <time>2018-08-20T08:18:08Z</time>
      </trkpt>
      <trkpt lat="45.8787" lon="4.83086">
        <ele>170</ele>
        <time>2018-08-20T08:18:09Z</time>
      </trkpt>
      <trkpt lat="45.8787" lon="4.83095">
        <ele>170</ele>
        <time>2018-08-20T08:18:10Z</time>
      </trkpt>
      <trkpt lat="45.87868" lon="4.83104">
        <ele>170</ele>
        <time>2018-08-20T08:18:11Z</time>
      </trkpt>
      <trkpt lat="45.87867" lon="4.83113">
        <ele>170</ele>
        <time>2018-08-20T08:18:12Z</time>
      </trkpt>
      <trkpt lat="45.87867" lon="4.83119">
        <ele>170</ele>
        <time>2018-08-20T08:18:13Z</time>
      </trkpt>
      <trkpt lat="45.87865" lon="4.83126">
        <ele>170</ele>
        <time>2018-08-20T08:18:14Z</time>
      </trkpt>
      <trkpt lat="45.87862" lon="4.83137">
        <ele>170</ele>
        <time>2018-08-20T08:18:16Z</time>
      </trkpt>
      <trkpt lat="45.87861" lon="4.83148">
        <ele>170</ele>
        <time>2018-08-20T08:18:17Z</time>
      </trkpt>
      <trkpt lat="45.87859" lon="4.83157">
        <ele>171</ele>
        <time>2018-08-20T08:18:18Z</time>
      </trkpt>
      <trkpt lat="45.8786" lon="4.83168">
        <ele>170</ele>
        <time>2018-08-20T08:18:19Z</time>
      </trkpt>
      <trkpt lat="45.87859" lon="4.83177">
        <ele>170</ele>
        <time>2018-08-20T08:18:20Z</time>
      </trkpt>
      <trkpt lat="45.87857" lon="4.83184">
        <ele>170</ele>
        <time>2018-08-20T08:18:21Z</time>
      </trkpt>
      <trkpt lat="45.87855" lon="4.83193">
        <ele>170</ele>
        <time>2018-08-20T08:18:22Z</time>
      </trkpt>
      <trkpt lat="45.87854" lon="4.83202">
        <ele>170</ele>
        <time>2018-08-20T08:18:23Z</time>
      </trkpt>
      <trkpt lat="45.87852" lon="4.8321">
        <ele>170</ele>
        <time>2018-08-20T08:18:24Z</time>
      </trkpt>
      <trkpt lat="45.87849" lon="4.8322">
        <ele>170</ele>
        <time>2018-08-20T08:18:25Z</time>
      </trkpt>
      <trkpt lat="45.87847" lon="4.83233">
        <ele>170</ele>
        <time>2018-08-20T08:18:26Z</time>
      </trkpt>
      <trkpt lat="45.87844" lon="4.83242">
        <ele>170</ele>
        <time>2018-08-20T08:18:27Z</time>
      </trkpt>
      <trkpt lat="45.87843" lon="4.83251">
        <ele>170</ele>
        <time>2018-08-20T08:18:28Z</time>
      </trkpt>
      <trkpt lat="45.8784" lon="4.83259">
        <ele>169</ele>
        <time>2018-08-20T08:18:29Z</time>
      </trkpt>
      <trkpt lat="45.87838" lon="4.83268">
        <ele>169</ele>
        <time>2018-08-20T08:18:30Z</time>
      </trkpt>
      <trkpt lat="45.87837" lon="4.83275">
        <ele>168</ele>
        <time>2018-08-20T08:18:31Z</time>
      </trkpt>
      <trkpt lat="45.87835" lon="4.83283">
        <ele>168</ele>
        <time>2018-08-20T08:18:32Z</time>
      </trkpt>
      <trkpt lat="45.87833" lon="4.8329">
        <ele>167</ele>
        <time>2018-08-20T08:18:33Z</time>
      </trkpt>
      <trkpt lat="45.8783" lon="4.83298">
        <ele>169</ele>
        <time>2018-08-20T08:18:34Z</time>
      </trkpt>
      <trkpt lat="45.87825" lon="4.83306">
        <ele>169</ele>
        <time>2018-08-20T08:18:35Z</time>
      </trkpt>
      <trkpt lat="45.87823" lon="4.83312">
        <ele>168</ele>
        <time>2018-08-20T08:18:36Z</time>
      </trkpt>
      <trkpt lat="45.8782" lon="4.83319">
        <ele>168</ele>
        <time>2018-08-20T08:18:37Z</time>
      </trkpt>
      <trkpt lat="45.8782" lon="4.83326">
        <ele>167</ele>
        <time>2018-08-20T08:18:38Z</time>
      </trkpt>
      <trkpt lat="45.87817" lon="4.83334">
        <ele>167</ele>
        <time>2018-08-20T08:18:39Z</time>
      </trkpt>
      <trkpt lat="45.87814" lon="4.83341">
        <ele>167</ele>
        <time>2018-08-20T08:18:40Z</time>
      </trkpt>
      <trkpt lat="45.87811" lon="4.83349">
        <ele>167</ele>
        <time>2018-08-20T08:18:41Z</time>
      </trkpt>
      <trkpt lat="45.87807" lon="4.83358">
        <ele>168</ele>
        <time>2018-08-20T08:18:42Z</time>
      </trkpt>
      <trkpt lat="45.87804" lon="4.83365">
        <ele>168</ele>
        <time>2018-08-20T08:18:43Z</time>
      </trkpt>
      <trkpt lat="45.87799" lon="4.83374">
        <ele>168</ele>
        <time>2018-08-20T08:18:44Z</time>
      </trkpt>
      <trkpt lat="45.87796" lon="4.83382">
        <ele>168</ele>
        <time>2018-08-20T08:18:45Z</time>
      </trkpt>
      <trkpt lat="45.87793" lon="4.8339">
        <ele>168</ele>
        <time>2018-08-20T08:18:46Z</time>
      </trkpt>
      <trkpt lat="45.87789" lon="4.83398">
        <ele>168</ele>
        <time>2018-08-20T08:18:47Z</time>
      </trkpt>
      <trkpt lat="45.87786" lon="4.83406">
        <ele>169</ele>
        <time>2018-08-20T08:18:48Z</time>
      </trkpt>
      <trkpt lat="45.87783" lon="4.83415">
        <ele>169</ele>
        <time>2018-08-20T08:18:49Z</time>
      </trkpt>
      <trkpt lat="45.87778" lon="4.83423">
        <ele>170</ele>
        <time>2018-08-20T08:18:50Z</time>
      </trkpt>
      <trkpt lat="45.87774" lon="4.8343">
        <ele>170</ele>
        <time>2018-08-20T08:18:51Z</time>
      </trkpt>
      <trkpt lat="45.8777" lon="4.83438">
        <ele>170</ele>
        <time>2018-08-20T08:18:52Z</time>
      </trkpt>
      <trkpt lat="45.87765" lon="4.83446">
        <ele>170</ele>
        <time>2018-08-20T08:18:53Z</time>
      </trkpt>
      <trkpt lat="45.87761" lon="4.83453">
        <ele>170</ele>
        <time>2018-08-20T08:18:54Z</time>
      </trkpt>
      <trkpt lat="45.87756" lon="4.83459">
        <ele>170</ele>
        <time>2018-08-20T08:18:55Z</time>
      </trkpt>
      <trkpt lat="45.87751" lon="4.83464">
        <ele>170</ele>
        <time>2018-08-20T08:18:56Z</time>
      </trkpt>
      <trkpt lat="45.87747" lon="4.8347">
        <ele>172</ele>
        <time>2018-08-20T08:18:57Z</time>
      </trkpt>
      <trkpt lat="45.87743" lon="4.83476">
        <ele>172</ele>
        <time>2018-08-20T08:18:58Z</time>
      </trkpt>
      <trkpt lat="45.87738" lon="4.8348">
        <ele>172</ele>
        <time>2018-08-20T08:18:59Z</time>
      </trkpt>
      <trkpt lat="45.87734" lon="4.83487">
        <ele>172</ele>
        <time>2018-08-20T08:19:00Z</time>
      </trkpt>
      <trkpt lat="45.87729" lon="4.83493">
        <ele>172</ele>
        <time>2018-08-20T08:19:01Z</time>
      </trkpt>
      <trkpt lat="45.87725" lon="4.83497">
        <ele>172</ele>
        <time>2018-08-20T08:19:02Z</time>
      </trkpt>
      <trkpt lat="45.87721" lon="4.83503">
        <ele>170</ele>
        <time>2018-08-20T08:19:03Z</time>
      </trkpt>
      <trkpt lat="45.87717" lon="4.83509">
        <ele>170</ele>
        <time>2018-08-20T08:19:04Z</time>
      </trkpt>
      <trkpt lat="45.87713" lon="4.83513">
        <ele>170</ele>
        <time>2018-08-20T08:19:05Z</time>
      </trkpt>
      <trkpt lat="45.87709" lon="4.83518">
        <ele>169</ele>
        <time>2018-08-20T08:19:06Z</time>
      </trkpt>
      <trkpt lat="45.87704" lon="4.8352">
        <ele>169</ele>
        <time>2018-08-20T08:19:07Z</time>
      </trkpt>
      <trkpt lat="45.87701" lon="4.83522">
        <ele>169</ele>
        <time>2018-08-20T08:19:08Z</time>
      </trkpt>
      <trkpt lat="45.87694" lon="4.8353">
        <ele>169</ele>
        <time>2018-08-20T08:19:12Z</time>
      </trkpt>
      <trkpt lat="45.87693" lon="4.83531">
        <ele>169</ele>
        <time>2018-08-20T08:19:13Z</time>
      </trkpt>
      <trkpt lat="45.87687" lon="4.8353">
        <ele>169</ele>
        <time>2018-08-20T08:19:17Z</time>
      </trkpt>
      <trkpt lat="45.87679" lon="4.83532">
        <ele>169</ele>
        <time>2018-08-20T08:19:18Z</time>
      </trkpt>
      <trkpt lat="45.87676" lon="4.83543">
        <ele>168</ele>
        <time>2018-08-20T08:19:20Z</time>
      </trkpt>
      <trkpt lat="45.87677" lon="4.8355">
        <ele>168</ele>
        <time>2018-08-20T08:19:21Z</time>
      </trkpt>
      <trkpt lat="45.87679" lon="4.83556">
        <ele>168</ele>
        <time>2018-08-20T08:19:22Z</time>
      </trkpt>
      <trkpt lat="45.8768" lon="4.83562">
        <ele>167</ele>
        <time>2018-08-20T08:19:23Z</time>
      </trkpt>
      <trkpt lat="45.8768" lon="4.83574">
        <ele>167</ele>
        <time>2018-08-20T08:19:25Z</time>
      </trkpt>
      <trkpt lat="45.87681" lon="4.8358">
        <ele>166</ele>
        <time>2018-08-20T08:19:26Z</time>
      </trkpt>
      <trkpt lat="45.87681" lon="4.83592">
        <ele>165</ele>
        <time>2018-08-20T08:19:28Z</time>
      </trkpt>
      <trkpt lat="45.87682" lon="4.83599">
        <ele>165</ele>
        <time>2018-08-20T08:19:29Z</time>
      </trkpt>
      <trkpt lat="45.87682" lon="4.83606">
        <ele>165</ele>
        <time>2018-08-20T08:19:30Z</time>
      </trkpt>
      <trkpt lat="45.87682" lon="4.83612">
        <ele>165</ele>
        <time>2018-08-20T08:19:31Z</time>
      </trkpt>
      <trkpt lat="45.87684" lon="4.83619">
        <ele>165</ele>
        <time>2018-08-20T08:19:32Z</time>
      </trkpt>
      <trkpt lat="45.87684" lon="4.83626">
        <ele>165</ele>
        <time>2018-08-20T08:19:33Z</time>
      </trkpt>
      <trkpt lat="45.87684" lon="4.83638">
        <ele>165</ele>
        <time>2018-08-20T08:19:35Z</time>
      </trkpt>
      <trkpt lat="45.87684" lon="4.83644">
        <ele>165</ele>
        <time>2018-08-20T08:19:36Z</time>
      </trkpt>
      <trkpt lat="45.87686" lon="4.83655">
        <ele>165</ele>
        <time>2018-08-20T08:19:38Z</time>
      </trkpt>
      <trkpt lat="45.87687" lon="4.83661">
        <ele>165</ele>
        <time>2018-08-20T08:19:39Z</time>
      </trkpt>
      <trkpt lat="45.87689" lon="4.83672">
        <ele>165</ele>
        <time>2018-08-20T08:19:41Z</time>
      </trkpt>
      <trkpt lat="45.8769" lon="4.83679">
        <ele>165</ele>
        <time>2018-08-20T08:19:42Z</time>
      </trkpt>
      <trkpt lat="45.87692" lon="4.83688">
        <ele>165</ele>
        <time>2018-08-20T08:19:43Z</time>
      </trkpt>
      <trkpt lat="45.87693" lon="4.83695">
        <ele>165</ele>
        <time>2018-08-20T08:19:44Z</time>
      </trkpt>
      <trkpt lat="45.87692" lon="4.83703">
        <ele>165</ele>
        <time>2018-08-20T08:19:45Z</time>
      </trkpt>
      <trkpt lat="45.87693" lon="4.8371">
        <ele>165</ele>
        <time>2018-08-20T08:19:46Z</time>
      </trkpt>
      <trkpt lat="45.87693" lon="4.8372">
        <ele>165</ele>
        <time>2018-08-20T08:19:47Z</time>
      </trkpt>
      <trkpt lat="45.87694" lon="4.83728">
        <ele>165</ele>
        <time>2018-08-20T08:19:48Z</time>
      </trkpt>
      <trkpt lat="45.87695" lon="4.83737">
        <ele>165</ele>
        <time>2018-08-20T08:19:49Z</time>
      </trkpt>
      <trkpt lat="45.87695" lon="4.83746">
        <ele>165</ele>
        <time>2018-08-20T08:19:50Z</time>
      </trkpt>
      <trkpt lat="45.87695" lon="4.83754">
        <ele>167</ele>
        <time>2018-08-20T08:19:51Z</time>
      </trkpt>
      <trkpt lat="45.87695" lon="4.83761">
        <ele>167</ele>
        <time>2018-08-20T08:19:52Z</time>
      </trkpt>
      <trkpt lat="45.87696" lon="4.83768">
        <ele>167</ele>
        <time>2018-08-20T08:19:53Z</time>
      </trkpt>
      <trkpt lat="45.87696" lon="4.83778">
        <ele>168</ele>
        <time>2018-08-20T08:19:54Z</time>
      </trkpt>
      <trkpt lat="45.87697" lon="4.83787">
        <ele>168</ele>
        <time>2018-08-20T08:19:55Z</time>
      </trkpt>
      <trkpt lat="45.87698" lon="4.83798">
        <ele>169</ele>
        <time>2018-08-20T08:19:56Z</time>
      </trkpt>
      <trkpt lat="45.877" lon="4.83806">
        <ele>169</ele>
        <time>2018-08-20T08:19:57Z</time>
      </trkpt>
      <trkpt lat="45.87699" lon="4.83815">
        <ele>169</ele>
        <time>2018-08-20T08:19:58Z</time>
      </trkpt>
      <trkpt lat="45.87699" lon="4.83821">
        <ele>169</ele>
        <time>2018-08-20T08:19:59Z</time>
      </trkpt>
      <trkpt lat="45.87699" lon="4.83828">
        <ele>170</ele>
        <time>2018-08-20T08:20:00Z</time>
      </trkpt>
      <trkpt lat="45.87699" lon="4.83839">
        <ele>172</ele>
        <time>2018-08-20T08:20:02Z</time>
      </trkpt>
      <trkpt lat="45.87702" lon="4.83844">
        <ele>172</ele>
        <time>2018-08-20T08:20:03Z</time>
      </trkpt>
      <trkpt lat="45.87704" lon="4.83852">
        <ele>172</ele>
        <time>2018-08-20T08:20:04Z</time>
      </trkpt>
      <trkpt lat="45.87707" lon="4.83857">
        <ele>172</ele>
        <time>2018-08-20T08:20:05Z</time>
      </trkpt>
      <trkpt lat="45.87711" lon="4.83861">
        <ele>172</ele>
        <time>2018-08-20T08:20:06Z</time>
      </trkpt>
      <trkpt lat="45.87711" lon="4.83869">
        <ele>172</ele>
        <time>2018-08-20T08:20:07Z</time>
      </trkpt>
      <trkpt lat="45.87715" lon="4.83879">
        <ele>172</ele>
        <time>2018-08-20T08:20:09Z</time>
      </trkpt>
      <trkpt lat="45.87714" lon="4.83887">
        <ele>172</ele>
        <time>2018-08-20T08:20:10Z</time>
      </trkpt>
      <trkpt lat="45.87713" lon="4.83893">
        <ele>172</ele>
        <time>2018-08-20T08:20:11Z</time>
      </trkpt>
      <trkpt lat="45.87715" lon="4.839">
        <ele>172</ele>
        <time>2018-08-20T08:20:12Z</time>
      </trkpt>
      <trkpt lat="45.87717" lon="4.83905">
        <ele>172</ele>
        <time>2018-08-20T08:20:13Z</time>
      </trkpt>
      <trkpt lat="45.87717" lon="4.83915">
        <ele>172</ele>
        <time>2018-08-20T08:20:14Z</time>
      </trkpt>
      <trkpt lat="45.87719" lon="4.83922">
        <ele>174</ele>
        <time>2018-08-20T08:20:15Z</time>
      </trkpt>
      <trkpt lat="45.87719" lon="4.83929">
        <ele>174</ele>
        <time>2018-08-20T08:20:16Z</time>
      </trkpt>
      <trkpt lat="45.87718" lon="4.8394">
        <ele>174</ele>
        <time>2018-08-20T08:20:18Z</time>
      </trkpt>
      <trkpt lat="45.8772" lon="4.83948">
        <ele>174</ele>
        <time>2018-08-20T08:20:19Z</time>
      </trkpt>
      <trkpt lat="45.87719" lon="4.83958">
        <ele>174</ele>
        <time>2018-08-20T08:20:20Z</time>
      </trkpt>
      <trkpt lat="45.87723" lon="4.83966">
        <ele>174</ele>
        <time>2018-08-20T08:20:21Z</time>
      </trkpt>
      <trkpt lat="45.87727" lon="4.83972">
        <ele>175</ele>
        <time>2018-08-20T08:20:22Z</time>
      </trkpt>
      <trkpt lat="45.87729" lon="4.83981">
        <ele>175</ele>
        <time>2018-08-20T08:20:23Z</time>
      </trkpt>
      <trkpt lat="45.87728" lon="4.83988">
        <ele>175</ele>
        <time>2018-08-20T08:20:24Z</time>
      </trkpt>
      <trkpt lat="45.87732" lon="4.83994">
        <ele>175</ele>
        <time>2018-08-20T08:20:25Z</time>
      </trkpt>
      <trkpt lat="45.87728" lon="4.84002">
        <ele>176</ele>
        <time>2018-08-20T08:20:27Z</time>
      </trkpt>
      <trkpt lat="45.87724" lon="4.84008">
        <ele>176</ele>
        <time>2018-08-20T08:20:28Z</time>
      </trkpt>
      <trkpt lat="45.8772" lon="4.84016">
        <ele>177</ele>
        <time>2018-08-20T08:20:30Z</time>
      </trkpt>
      <trkpt lat="45.87718" lon="4.84023">
        <ele>177</ele>
        <time>2018-08-20T08:20:31Z</time>
      </trkpt>
      <trkpt lat="45.87713" lon="4.84031">
        <ele>177</ele>
        <time>2018-08-20T08:20:33Z</time>
      </trkpt>
      <trkpt lat="45.87712" lon="4.84037">
        <ele>177</ele>
        <time>2018-08-20T08:20:34Z</time>
      </trkpt>
      <trkpt lat="45.87707" lon="4.84045">
        <ele>177</ele>
        <time>2018-08-20T08:20:36Z</time>
      </trkpt>
      <trkpt lat="45.87703" lon="4.84051">
        <ele>177</ele>
        <time>2018-08-20T08:20:37Z</time>
      </trkpt>
      <trkpt lat="45.877" lon="4.8406">
        <ele>178</ele>
        <time>2018-08-20T08:20:39Z</time>
      </trkpt>
      <trkpt lat="45.87696" lon="4.84067">
        <ele>178</ele>
        <time>2018-08-20T08:20:40Z</time>
      </trkpt>
      <trkpt lat="45.87692" lon="4.84071">
        <ele>178</ele>
        <time>2018-08-20T08:20:41Z</time>
      </trkpt>
      <trkpt lat="45.87691" lon="4.8408">
        <ele>178</ele>
        <time>2018-08-20T08:20:42Z</time>
      </trkpt>
      <trkpt lat="45.87689" lon="4.84087">
        <ele>179</ele>
        <time>2018-08-20T08:20:43Z</time>
      </trkpt>
      <trkpt lat="45.87687" lon="4.84095">
        <ele>179</ele>
        <time>2018-08-20T08:20:44Z</time>
      </trkpt>
      <trkpt lat="45.87686" lon="4.84101">
        <ele>179</ele>
        <time>2018-08-20T08:20:45Z</time>
      </trkpt>
      <trkpt lat="45.87685" lon="4.84109">
        <ele>179</ele>
        <time>2018-08-20T08:20:46Z</time>
      </trkpt>
      <trkpt lat="45.87685" lon="4.84114">
        <ele>179</ele>
        <time>2018-08-20T08:20:48Z</time>
      </trkpt>
      <trkpt lat="45.87682" lon="4.84123">
        <ele>179</ele>
        <time>2018-08-20T08:20:49Z</time>
      </trkpt>
      <trkpt lat="45.87679" lon="4.84134">
        <ele>180</ele>
        <time>2018-08-20T08:20:51Z</time>
      </trkpt>
      <trkpt lat="45.87676" lon="4.84136">
        <ele>180</ele>
        <time>2018-08-20T08:20:52Z</time>
      </trkpt>
      <trkpt lat="45.87676" lon="4.84149">
        <ele>180</ele>
        <time>2018-08-20T08:20:54Z</time>
      </trkpt>
      <trkpt lat="45.87675" lon="4.84151">
        <ele>180</ele>
        <time>2018-08-20T08:20:55Z</time>
      </trkpt>
      <trkpt lat="45.87674" lon="4.84158">
        <ele>180</ele>
        <time>2018-08-20T08:20:56Z</time>
      </trkpt>
      <trkpt lat="45.87673" lon="4.84164">
        <ele>180</ele>
        <time>2018-08-20T08:20:57Z</time>
      </trkpt>
      <trkpt lat="45.87671" lon="4.84172">
        <ele>180</ele>
        <time>2018-08-20T08:20:59Z</time>
      </trkpt>
      <trkpt lat="45.8767" lon="4.84182">
        <ele>181</ele>
        <time>2018-08-20T08:21:00Z</time>
      </trkpt>
      <trkpt lat="45.87669" lon="4.84189">
        <ele>181</ele>
        <time>2018-08-20T08:21:01Z</time>
      </trkpt>
      <trkpt lat="45.87667" lon="4.84196">
        <ele>181</ele>
        <time>2018-08-20T08:21:02Z</time>
      </trkpt>
      <trkpt lat="45.87665" lon="4.84208">
        <ele>180</ele>
        <time>2018-08-20T08:21:04Z</time>
      </trkpt>
      <trkpt lat="45.87664" lon="4.84217">
        <ele>180</ele>
        <time>2018-08-20T08:21:05Z</time>
      </trkpt>
      <trkpt lat="45.87661" lon="4.84228">
        <ele>180</ele>
        <time>2018-08-20T08:21:07Z</time>
      </trkpt>
      <trkpt lat="45.87661" lon="4.84235">
        <ele>180</ele>
        <time>2018-08-20T08:21:08Z</time>
      </trkpt>
      <trkpt lat="45.8766" lon="4.84241">
        <ele>180</ele>
        <time>2018-08-20T08:21:09Z</time>
      </trkpt>
      <trkpt lat="45.87659" lon="4.84248">
        <ele>181</ele>
        <time>2018-08-20T08:21:10Z</time>
      </trkpt>
      <trkpt lat="45.87657" lon="4.84255">
        <ele>181</ele>
        <time>2018-08-20T08:21:11Z</time>
      </trkpt>
      <trkpt lat="45.87656" lon="4.84262">
        <ele>181</ele>
        <time>2018-08-20T08:21:12Z</time>
      </trkpt>
      <trkpt lat="45.87656" lon="4.84268">
        <ele>181</ele>
        <time>2018-08-20T08:21:13Z</time>
      </trkpt>
      <trkpt lat="45.87655" lon="4.84275">
        <ele>181</ele>
        <time>2018-08-20T08:21:14Z</time>
      </trkpt>
      <trkpt lat="45.87652" lon="4.84285">
        <ele>181</ele>
        <time>2018-08-20T08:21:16Z</time>
      </trkpt>
      <trkpt lat="45.8765" lon="4.84291">
        <ele>181</ele>
        <time>2018-08-20T08:21:17Z</time>
      </trkpt>
      <trkpt lat="45.87648" lon="4.84297">
        <ele>181</ele>
        <time>2018-08-20T08:21:18Z</time>
      </trkpt>
      <trkpt lat="45.87647" lon="4.84304">
        <ele>181</ele>
        <time>2018-08-20T08:21:19Z</time>
      </trkpt>
      <trkpt lat="45.87651" lon="4.84313">
        <ele>182</ele>
        <time>2018-08-20T08:21:21Z</time>
      </trkpt>
      <trkpt lat="45.87654" lon="4.84316">
        <ele>182</ele>
        <time>2018-08-20T08:21:22Z</time>
      </trkpt>
      <trkpt lat="45.8766" lon="4.84321">
        <ele>182</ele>
        <time>2018-08-20T08:21:24Z</time>
      </trkpt>
      <trkpt lat="45.87663" lon="4.84324">
        <ele>182</ele>
        <time>2018-08-20T08:21:25Z</time>
      </trkpt>
      <trkpt lat="45.8767" lon="4.84332">
        <ele>183</ele>
        <time>2018-08-20T08:21:27Z</time>
      </trkpt>
      <trkpt lat="45.87673" lon="4.84336">
        <ele>184</ele>
        <time>2018-08-20T08:21:28Z</time>
      </trkpt>
      <trkpt lat="45.8768" lon="4.84344">
        <ele>185</ele>
        <time>2018-08-20T08:21:30Z</time>
      </trkpt>
      <trkpt lat="45.87684" lon="4.84347">
        <ele>185</ele>
        <time>2018-08-20T08:21:31Z</time>
      </trkpt>
      <trkpt lat="45.8769" lon="4.84356">
        <ele>185</ele>
        <time>2018-08-20T08:21:33Z</time>
      </trkpt>
      <trkpt lat="45.87694" lon="4.84358">
        <ele>185</ele>
        <time>2018-08-20T08:21:34Z</time>
      </trkpt>
      <trkpt lat="45.87701" lon="4.84361">
        <ele>186</ele>
        <time>2018-08-20T08:21:36Z</time>
      </trkpt>
      <trkpt lat="45.87705" lon="4.84368">
        <ele>186</ele>
        <time>2018-08-20T08:21:37Z</time>
      </trkpt>
      <trkpt lat="45.87713" lon="4.84372">
        <ele>186</ele>
        <time>2018-08-20T08:21:39Z</time>
      </trkpt>
      <trkpt lat="45.87715" lon="4.84375">
        <ele>186</ele>
        <time>2018-08-20T08:21:40Z</time>
      </trkpt>
      <trkpt lat="45.87721" lon="4.84384">
        <ele>186</ele>
        <time>2018-08-20T08:21:44Z</time>
      </trkpt>
      <trkpt lat="45.87723" lon="4.84386">
        <ele>186</ele>
        <time>2018-08-20T08:21:45Z</time>
      </trkpt>
      <trkpt lat="45.87726" lon="4.84388">
        <ele>186</ele>
        <time>2018-08-20T08:21:46Z</time>
      </trkpt>
      <trkpt lat="45.87734" lon="4.84395">
        <ele>187</ele>
        <time>2018-08-20T08:21:47Z</time>
      </trkpt>
      <trkpt lat="45.8774" lon="4.844">
        <ele>187</ele>
        <time>2018-08-20T08:21:50Z</time>
      </trkpt>
      <trkpt lat="45.87741" lon="4.84403">
        <ele>187</ele>
        <time>2018-08-20T08:21:51Z</time>
      </trkpt>
      <trkpt lat="45.87747" lon="4.84412">
        <ele>188</ele>
        <time>2018-08-20T08:21:52Z</time>
      </trkpt>
      <trkpt lat="45.87749" lon="4.84414">
        <ele>188</ele>
        <time>2018-08-20T08:21:53Z</time>
      </trkpt>
      <trkpt lat="45.87756" lon="4.8442">
        <ele>189</ele>
        <time>2018-08-20T08:21:55Z</time>
      </trkpt>
      <trkpt lat="45.87758" lon="4.84422">
        <ele>189</ele>
        <time>2018-08-20T08:21:56Z</time>
      </trkpt>
      <trkpt lat="45.87765" lon="4.84426">
        <ele>189</ele>
        <time>2018-08-20T08:21:59Z</time>
      </trkpt>
      <trkpt lat="45.87767" lon="4.84428">
        <ele>189</ele>
        <time>2018-08-20T08:22:00Z</time>
      </trkpt>
      <trkpt lat="45.87775" lon="4.84435">
        <ele>190</ele>
        <time>2018-08-20T08:22:03Z</time>
      </trkpt>
      <trkpt lat="45.87782" lon="4.84444">
        <ele>190</ele>
        <time>2018-08-20T08:22:04Z</time>
      </trkpt>
      <trkpt lat="45.87788" lon="4.84452">
        <ele>190</ele>
        <time>2018-08-20T08:22:08Z</time>
      </trkpt>
      <trkpt lat="45.8779" lon="4.84454">
        <ele>190</ele>
        <time>2018-08-20T08:22:09Z</time>
      </trkpt>
      <trkpt lat="45.87796" lon="4.84462">
        <ele>190</ele>
        <time>2018-08-20T08:22:12Z</time>
      </trkpt>
      <trkpt lat="45.87798" lon="4.84465">
        <ele>190</ele>
        <time>2018-08-20T08:22:13Z</time>
      </trkpt>
      <trkpt lat="45.87806" lon="4.84473">
        <ele>190</ele>
        <time>2018-08-20T08:22:14Z</time>
      </trkpt>
      <trkpt lat="45.87814" lon="4.84478">
        <ele>191</ele>
        <time>2018-08-20T08:22:18Z</time>
      </trkpt>
      <trkpt lat="45.87816" lon="4.8448">
        <ele>191</ele>
        <time>2018-08-20T08:22:19Z</time>
      </trkpt>
      <trkpt lat="45.87825" lon="4.84486">
        <ele>191</ele>
        <time>2018-08-20T08:22:20Z</time>
      </trkpt>
      <trkpt lat="45.87831" lon="4.84491">
        <ele>191</ele>
        <time>2018-08-20T08:22:24Z</time>
      </trkpt>
      <trkpt lat="45.87833" lon="4.84494">
        <ele>191</ele>
        <time>2018-08-20T08:22:25Z</time>
      </trkpt>
      <trkpt lat="45.8784" lon="4.84501">
        <ele>192</ele>
        <time>2018-08-20T08:22:28Z</time>
      </trkpt>
      <trkpt lat="45.87842" lon="4.84503">
        <ele>193</ele>
        <time>2018-08-20T08:22:29Z</time>
      </trkpt>
      <trkpt lat="45.87848" lon="4.84509">
        <ele>194</ele>
        <time>2018-08-20T08:22:32Z</time>
      </trkpt>
      <trkpt lat="45.8785" lon="4.84511">
        <ele>194</ele>
        <time>2018-08-20T08:22:33Z</time>
      </trkpt>
      <trkpt lat="45.87857" lon="4.84517">
        <ele>195</ele>
        <time>2018-08-20T08:22:36Z</time>
      </trkpt>
      <trkpt lat="45.87859" lon="4.8452">
        <ele>195</ele>
        <time>2018-08-20T08:22:37Z</time>
      </trkpt>
      <trkpt lat="45.87865" lon="4.84526">
        <ele>195</ele>
        <time>2018-08-20T08:22:40Z</time>
      </trkpt>
      <trkpt lat="45.87867" lon="4.84528">
        <ele>196</ele>
        <time>2018-08-20T08:22:41Z</time>
      </trkpt>
      <trkpt lat="45.87875" lon="4.84533">
        <ele>196</ele>
        <time>2018-08-20T08:22:44Z</time>
      </trkpt>
      <trkpt lat="45.87877" lon="4.84535">
        <ele>196</ele>
        <time>2018-08-20T08:22:45Z</time>
      </trkpt>
      <trkpt lat="45.87884" lon="4.84538">
        <ele>197</ele>
        <time>2018-08-20T08:22:47Z</time>
      </trkpt>
      <trkpt lat="45.87887" lon="4.8454">
        <ele>197</ele>
        <time>2018-08-20T08:22:48Z</time>
      </trkpt>
      <trkpt lat="45.87893" lon="4.84544">
        <ele>197</ele>
        <time>2018-08-20T08:22:50Z</time>
      </trkpt>
      <trkpt lat="45.87896" lon="4.84546">
        <ele>197</ele>
        <time>2018-08-20T08:22:51Z</time>
      </trkpt>
      <trkpt lat="45.87899" lon="4.84548">
        <ele>197</ele>
        <time>2018-08-20T08:22:52Z</time>
      </trkpt>
      <trkpt lat="45.87909" lon="4.84555">
        <ele>197</ele>
        <time>2018-08-20T08:22:53Z</time>
      </trkpt>
      <trkpt lat="45.87916" lon="4.84561">
        <ele>197</ele>
        <time>2018-08-20T08:22:56Z</time>
      </trkpt>
      <trkpt lat="45.87921" lon="4.84566">
        <ele>202</ele>
        <time>2018-08-20T08:22:57Z</time>
      </trkpt>
      <trkpt lat="45.87927" lon="4.84571">
        <ele>201</ele>
        <time>2018-08-20T08:22:59Z</time>
      </trkpt>
      <trkpt lat="45.8793" lon="4.84574">
        <ele>201</ele>
        <time>2018-08-20T08:23:00Z</time>
      </trkpt>
      <trkpt lat="45.87935" lon="4.84581">
        <ele>202</ele>
        <time>2018-08-20T08:23:02Z</time>
      </trkpt>
      <trkpt lat="45.87938" lon="4.84584">
        <ele>197</ele>
        <time>2018-08-20T08:23:03Z</time>
      </trkpt>
      <trkpt lat="45.87946" lon="4.8459">
        <ele>198</ele>
        <time>2018-08-20T08:23:06Z</time>
      </trkpt>
      <trkpt lat="45.87947" lon="4.84592">
        <ele>198</ele>
        <time>2018-08-20T08:23:07Z</time>
      </trkpt>
      <trkpt lat="45.87952" lon="4.84594">
        <ele>198</ele>
        <time>2018-08-20T08:23:09Z</time>
      </trkpt>
      <trkpt lat="45.8796" lon="4.84599">
        <ele>198</ele>
        <time>2018-08-20T08:23:10Z</time>
      </trkpt>
      <trkpt lat="45.87967" lon="4.84603">
        <ele>199</ele>
        <time>2018-08-20T08:23:12Z</time>
      </trkpt>
      <trkpt lat="45.87968" lon="4.84604">
        <ele>199</ele>
        <time>2018-08-20T08:23:13Z</time>
      </trkpt>
      <trkpt lat="45.87975" lon="4.84609">
        <ele>199</ele>
        <time>2018-08-20T08:23:15Z</time>
      </trkpt>
      <trkpt lat="45.87977" lon="4.8461">
        <ele>199</ele>
        <time>2018-08-20T08:23:16Z</time>
      </trkpt>
      <trkpt lat="45.87985" lon="4.84616">
        <ele>199</ele>
        <time>2018-08-20T08:23:18Z</time>
      </trkpt>
      <trkpt lat="45.87987" lon="4.84617">
        <ele>199</ele>
        <time>2018-08-20T08:23:19Z</time>
      </trkpt>
      <trkpt lat="45.87994" lon="4.84622">
        <ele>199</ele>
        <time>2018-08-20T08:23:22Z</time>
      </trkpt>
      <trkpt lat="45.87996" lon="4.84623">
        <ele>199</ele>
        <time>2018-08-20T08:23:23Z</time>
      </trkpt>
      <trkpt lat="45.87999" lon="4.84624">
        <ele>199</ele>
        <time>2018-08-20T08:23:24Z</time>
      </trkpt>
      <trkpt lat="45.88007" lon="4.8463">
        <ele>204</ele>
        <time>2018-08-20T08:23:25Z</time>
      </trkpt>
      <trkpt lat="45.88015" lon="4.84636">
        <ele>204</ele>
        <time>2018-08-20T08:23:28Z</time>
      </trkpt>
      <trkpt lat="45.88017" lon="4.84637">
        <ele>204</ele>
        <time>2018-08-20T08:23:29Z</time>
      </trkpt>
      <trkpt lat="45.88023" lon="4.84642">
        <ele>204</ele>
        <time>2018-08-20T08:23:32Z</time>
      </trkpt>
      <trkpt lat="45.88026" lon="4.84644">
        <ele>204</ele>
        <time>2018-08-20T08:23:33Z</time>
      </trkpt>
      <trkpt lat="45.88033" lon="4.8465">
        <ele>204</ele>
        <time>2018-08-20T08:23:36Z</time>
      </trkpt>
      <trkpt lat="45.88036" lon="4.84652">
        <ele>204</ele>
        <time>2018-08-20T08:23:37Z</time>
      </trkpt>
      <trkpt lat="45.88041" lon="4.84657">
        <ele>204</ele>
        <time>2018-08-20T08:23:39Z</time>
      </trkpt>
      <trkpt lat="45.88044" lon="4.84659">
        <ele>204</ele>
        <time>2018-08-20T08:23:40Z</time>
      </trkpt>
      <trkpt lat="45.88051" lon="4.84665">
        <ele>204</ele>
        <time>2018-08-20T08:23:42Z</time>
      </trkpt>
      <trkpt lat="45.88055" lon="4.84669">
        <ele>200</ele>
        <time>2018-08-20T08:23:43Z</time>
      </trkpt>
      <trkpt lat="45.88062" lon="4.84674">
        <ele>200</ele>
        <time>2018-08-20T08:23:45Z</time>
      </trkpt>
      <trkpt lat="45.88065" lon="4.84677">
        <ele>201</ele>
        <time>2018-08-20T08:23:46Z</time>
      </trkpt>
      <trkpt lat="45.88072" lon="4.84681">
        <ele>201</ele>
        <time>2018-08-20T08:23:48Z</time>
      </trkpt>
      <trkpt lat="45.88082" lon="4.84688">
        <ele>201</ele>
        <time>2018-08-20T08:23:49Z</time>
      </trkpt>
      <trkpt lat="45.88087" lon="4.84697">
        <ele>206</ele>
        <time>2018-08-20T08:23:51Z</time>
      </trkpt>
      <trkpt lat="45.88089" lon="4.84703">
        <ele>206</ele>
        <time>2018-08-20T08:23:52Z</time>
      </trkpt>
      <trkpt lat="45.88091" lon="4.84715">
        <ele>205</ele>
        <time>2018-08-20T08:23:54Z</time>
      </trkpt>
      <trkpt lat="45.88094" lon="4.84723">
        <ele>204</ele>
        <time>2018-08-20T08:23:55Z</time>
      </trkpt>
      <trkpt lat="45.88102" lon="4.84727">
        <ele>205</ele>
        <time>2018-08-20T08:23:59Z</time>
      </trkpt>
      <trkpt lat="45.88105" lon="4.84726">
        <ele>205</ele>
        <time>2018-08-20T08:24:00Z</time>
      </trkpt>
      <trkpt lat="45.88108" lon="4.84726">
        <ele>205</ele>
        <time>2018-08-20T08:24:01Z</time>
      </trkpt>
      <trkpt lat="45.88117" lon="4.84727">
        <ele>206</ele>
        <time>2018-08-20T08:24:02Z</time>
      </trkpt>
      <trkpt lat="45.88122" lon="4.84732">
        <ele>206</ele>
        <time>2018-08-20T08:24:05Z</time>
      </trkpt>
      <trkpt lat="45.88128" lon="4.84737">
        <ele>207</ele>
        <time>2018-08-20T08:24:06Z</time>
      </trkpt>
      <trkpt lat="45.88135" lon="4.84741">
        <ele>207</ele>
        <time>2018-08-20T08:24:08Z</time>
      </trkpt>
      <trkpt lat="45.88137" lon="4.84743">
        <ele>207</ele>
        <time>2018-08-20T08:24:09Z</time>
      </trkpt>
      <trkpt lat="45.88142" lon="4.84746">
        <ele>208</ele>
        <time>2018-08-20T08:24:10Z</time>
      </trkpt>
      <trkpt lat="45.88145" lon="4.84748">
        <ele>208</ele>
        <time>2018-08-20T08:24:11Z</time>
      </trkpt>
      <trkpt lat="45.88152" lon="4.84754">
        <ele>204</ele>
        <time>2018-08-20T08:24:13Z</time>
      </trkpt>
      <trkpt lat="45.88155" lon="4.84756">
        <ele>205</ele>
        <time>2018-08-20T08:24:14Z</time>
      </trkpt>
      <trkpt lat="45.88163" lon="4.8476">
        <ele>205</ele>
        <time>2018-08-20T08:24:16Z</time>
      </trkpt>
      <trkpt lat="45.88166" lon="4.84763">
        <ele>205</ele>
        <time>2018-08-20T08:24:17Z</time>
      </trkpt>
      <trkpt lat="45.88174" lon="4.84767">
        <ele>208</ele>
        <time>2018-08-20T08:24:19Z</time>
      </trkpt>
      <trkpt lat="45.88177" lon="4.84769">
        <ele>209</ele>
        <time>2018-08-20T08:24:20Z</time>
      </trkpt>
      <trkpt lat="45.88185" lon="4.84773">
        <ele>209</ele>
        <time>2018-08-20T08:24:22Z</time>
      </trkpt>
      <trkpt lat="45.88188" lon="4.84776">
        <ele>209</ele>
        <time>2018-08-20T08:24:23Z</time>
      </trkpt>
      <trkpt lat="45.88195" lon="4.84781">
        <ele>209</ele>
        <time>2018-08-20T08:24:25Z</time>
      </trkpt>
      <trkpt lat="45.88199" lon="4.84784">
        <ele>209</ele>
        <time>2018-08-20T08:24:26Z</time>
      </trkpt>
      <trkpt lat="45.88207" lon="4.84789">
        <ele>209</ele>
        <time>2018-08-20T08:24:28Z</time>
      </trkpt>
      <trkpt lat="45.88211" lon="4.84791">
        <ele>209</ele>
        <time>2018-08-20T08:24:29Z</time>
      </trkpt>
      <trkpt lat="45.88219" lon="4.84795">
        <ele>209</ele>
        <time>2018-08-20T08:24:31Z</time>
      </trkpt>
      <trkpt lat="45.88222" lon="4.84798">
        <ele>209</ele>
        <time>2018-08-20T08:24:32Z</time>
      </trkpt>
      <trkpt lat="45.88229" lon="4.84804">
        <ele>209</ele>
        <time>2018-08-20T08:24:34Z</time>
      </trkpt>
      <trkpt lat="45.88233" lon="4.84807">
        <ele>208</ele>
        <time>2018-08-20T08:24:35Z</time>
      </trkpt>
      <trkpt lat="45.88239" lon="4.84811">
        <ele>208</ele>
        <time>2018-08-20T08:24:37Z</time>
      </trkpt>
      <trkpt lat="45.88243" lon="4.84813">
        <ele>208</ele>
        <time>2018-08-20T08:24:38Z</time>
      </trkpt>
      <trkpt lat="45.8825" lon="4.84817">
        <ele>207</ele>
        <time>2018-08-20T08:24:40Z</time>
      </trkpt>
      <trkpt lat="45.88253" lon="4.84819">
        <ele>211</ele>
        <time>2018-08-20T08:24:41Z</time>
      </trkpt>
      <trkpt lat="45.8826" lon="4.84824">
        <ele>211</ele>
        <time>2018-08-20T08:24:43Z</time>
      </trkpt>
      <trkpt lat="45.88263" lon="4.84826">
        <ele>211</ele>
        <time>2018-08-20T08:24:44Z</time>
      </trkpt>
      <trkpt lat="45.88268" lon="4.84832">
        <ele>212</ele>
        <time>2018-08-20T08:24:46Z</time>
      </trkpt>
      <trkpt lat="45.88271" lon="4.84834">
        <ele>206</ele>
        <time>2018-08-20T08:24:47Z</time>
      </trkpt>
      <trkpt lat="45.88278" lon="4.84838">
        <ele>207</ele>
        <time>2018-08-20T08:24:49Z</time>
      </trkpt>
      <trkpt lat="45.88282" lon="4.8484">
        <ele>207</ele>
        <time>2018-08-20T08:24:50Z</time>
      </trkpt>
      <trkpt lat="45.88289" lon="4.84845">
        <ele>207</ele>
        <time>2018-08-20T08:24:52Z</time>
      </trkpt>
      <trkpt lat="45.88293" lon="4.84848">
        <ele>208</ele>
        <time>2018-08-20T08:24:53Z</time>
      </trkpt>
      <trkpt lat="45.883" lon="4.84854">
        <ele>208</ele>
        <time>2018-08-20T08:24:55Z</time>
      </trkpt>
      <trkpt lat="45.88304" lon="4.84856">
        <ele>208</ele>
        <time>2018-08-20T08:24:56Z</time>
      </trkpt>
      <trkpt lat="45.88311" lon="4.8486">
        <ele>209</ele>
        <time>2018-08-20T08:24:58Z</time>
      </trkpt>
      <trkpt lat="45.88315" lon="4.84863">
        <ele>209</ele>
        <time>2018-08-20T08:24:59Z</time>
      </trkpt>
      <trkpt lat="45.88322" lon="4.84867">
        <ele>209</ele>
        <time>2018-08-20T08:25:01Z</time>
      </trkpt>
      <trkpt lat="45.88324" lon="4.84868">
        <ele>208</ele>
        <time>2018-08-20T08:25:02Z</time>
      </trkpt>
      <trkpt lat="45.88331" lon="4.84872">
        <ele>208</ele>
        <time>2018-08-20T08:25:04Z</time>
      </trkpt>
      <trkpt lat="45.88336" lon="4.84874">
        <ele>216</ele>
        <time>2018-08-20T08:25:05Z</time>
      </trkpt>
      <trkpt lat="45.88343" lon="4.84878">
        <ele>216</ele>
        <time>2018-08-20T08:25:07Z</time>
      </trkpt>
      <trkpt lat="45.88347" lon="4.84879">
        <ele>216</ele>
        <time>2018-08-20T08:25:08Z</time>
      </trkpt>
      <trkpt lat="45.8835" lon="4.84881">
        <ele>216</ele>
        <time>2018-08-20T08:25:10Z</time>
      </trkpt>
      <trkpt lat="45.88356" lon="4.84886">
        <ele>216</ele>
        <time>2018-08-20T08:25:11Z</time>
      </trkpt>
      <trkpt lat="45.8836" lon="4.8489">
        <ele>216</ele>
        <time>2018-08-20T08:25:13Z</time>
      </trkpt>
      <trkpt lat="45.88365" lon="4.84895">
        <ele>216</ele>
        <time>2018-08-20T08:25:14Z</time>
      </trkpt>
      <trkpt lat="45.88369" lon="4.84898">
        <ele>216</ele>
        <time>2018-08-20T08:25:16Z</time>
      </trkpt>
      <trkpt lat="45.88374" lon="4.84903">
        <ele>217</ele>
        <time>2018-08-20T08:25:17Z</time>
      </trkpt>
      <trkpt lat="45.88382" lon="4.84907">
        <ele>217</ele>
        <time>2018-08-20T08:25:19Z</time>
      </trkpt>
      <trkpt lat="45.88386" lon="4.84908">
        <ele>218</ele>
        <time>2018-08-20T08:25:20Z</time>
      </trkpt>
      <trkpt lat="45.88389" lon="4.84911">
        <ele>218</ele>
        <time>2018-08-20T08:25:22Z</time>
      </trkpt>
      <trkpt lat="45.88395" lon="4.84915">
        <ele>219</ele>
        <time>2018-08-20T08:25:23Z</time>
      </trkpt>
      <trkpt lat="45.88402" lon="4.84919">
        <ele>215</ele>
        <time>2018-08-20T08:25:25Z</time>
      </trkpt>
      <trkpt lat="45.88406" lon="4.84921">
        <ele>216</ele>
        <time>2018-08-20T08:25:26Z</time>
      </trkpt>
      <trkpt lat="45.88411" lon="4.84925">
        <ele>216</ele>
        <time>2018-08-20T08:25:28Z</time>
      </trkpt>
      <trkpt lat="45.88416" lon="4.84928">
        <ele>216</ele>
        <time>2018-08-20T08:25:29Z</time>
      </trkpt>
      <trkpt lat="45.88422" lon="4.84932">
        <ele>219</ele>
        <time>2018-08-20T08:25:32Z</time>
      </trkpt>
      <trkpt lat="45.88425" lon="4.84933">
        <ele>219</ele>
        <time>2018-08-20T08:25:33Z</time>
      </trkpt>
      <trkpt lat="45.8843" lon="4.84936">
        <ele>219</ele>
        <time>2018-08-20T08:25:35Z</time>
      </trkpt>
      <trkpt lat="45.88438" lon="4.84941">
        <ele>219</ele>
        <time>2018-08-20T08:25:36Z</time>
      </trkpt>
      <trkpt lat="45.88445" lon="4.84945">
        <ele>219</ele>
        <time>2018-08-20T08:25:38Z</time>
      </trkpt>
      <trkpt lat="45.88449" lon="4.84948">
        <ele>219</ele>
        <time>2018-08-20T08:25:39Z</time>
      </trkpt>
      <trkpt lat="45.88455" lon="4.84955">
        <ele>219</ele>
        <time>2018-08-20T08:25:41Z</time>
      </trkpt>
      <trkpt lat="45.88457" lon="4.84956">
        <ele>219</ele>
        <time>2018-08-20T08:25:42Z</time>
      </trkpt>
      <trkpt lat="45.88459" lon="4.84958">
        <ele>219</ele>
        <time>2018-08-20T08:25:43Z</time>
      </trkpt>
      <trkpt lat="45.88464" lon="4.84964">
        <ele>219</ele>
        <time>2018-08-20T08:25:44Z</time>
      </trkpt>
      <trkpt lat="45.8847" lon="4.84968">
        <ele>218</ele>
        <time>2018-08-20T08:25:47Z</time>
      </trkpt>
      <trkpt lat="45.88476" lon="4.84974">
        <ele>218</ele>
        <time>2018-08-20T08:25:48Z</time>
      </trkpt>
      <trkpt lat="45.88482" lon="4.84979">
        <ele>217</ele>
        <time>2018-08-20T08:25:51Z</time>
      </trkpt>
      <trkpt lat="45.88484" lon="4.84981">
        <ele>217</ele>
        <time>2018-08-20T08:25:52Z</time>
      </trkpt>
      <trkpt lat="45.88489" lon="4.84984">
        <ele>217</ele>
        <time>2018-08-20T08:25:54Z</time>
      </trkpt>
      <trkpt lat="45.88497" lon="4.84989">
        <ele>216</ele>
        <time>2018-08-20T08:25:55Z</time>
      </trkpt>
      <trkpt lat="45.88503" lon="4.84993">
        <ele>217</ele>
        <time>2018-08-20T08:25:57Z</time>
      </trkpt>
      <trkpt lat="45.88506" lon="4.84994">
        <ele>217</ele>
        <time>2018-08-20T08:25:58Z</time>
      </trkpt>
      <trkpt lat="45.88508" lon="4.84995">
        <ele>218</ele>
        <time>2018-08-20T08:25:59Z</time>
      </trkpt>
      <trkpt lat="45.88516" lon="4.85001">
        <ele>214</ele>
        <time>2018-08-20T08:26:00Z</time>
      </trkpt>
      <trkpt lat="45.8852" lon="4.85004">
        <ele>214</ele>
        <time>2018-08-20T08:26:01Z</time>
      </trkpt>
      <trkpt lat="45.88524" lon="4.85007">
        <ele>214</ele>
        <time>2018-08-20T08:26:02Z</time>
      </trkpt>
      <trkpt lat="45.88532" lon="4.85013">
        <ele>214</ele>
        <time>2018-08-20T08:26:04Z</time>
      </trkpt>
      <trkpt lat="45.88536" lon="4.85015">
        <ele>214</ele>
        <time>2018-08-20T08:26:05Z</time>
      </trkpt>
      <trkpt lat="45.88542" lon="4.85021">
        <ele>214</ele>
        <time>2018-08-20T08:26:07Z</time>
      </trkpt>
      <trkpt lat="45.88546" lon="4.85025">
        <ele>214</ele>
        <time>2018-08-20T08:26:08Z</time>
      </trkpt>
      <trkpt lat="45.88553" lon="4.85027">
        <ele>214</ele>
        <time>2018-08-20T08:26:09Z</time>
      </trkpt>
      <trkpt lat="45.88558" lon="4.85031">
        <ele>214</ele>
        <time>2018-08-20T08:26:10Z</time>
      </trkpt>
      <trkpt lat="45.88564" lon="4.85031">
        <ele>214</ele>
        <time>2018-08-20T08:26:11Z</time>
      </trkpt>
      <trkpt lat="45.88569" lon="4.85032">
        <ele>214</ele>
        <time>2018-08-20T08:26:12Z</time>
      </trkpt>
      <trkpt lat="45.88577" lon="4.85035">
        <ele>214</ele>
        <time>2018-08-20T08:26:14Z</time>
      </trkpt>
      <trkpt lat="45.88582" lon="4.85035">
        <ele>214</ele>
        <time>2018-08-20T08:26:15Z</time>
      </trkpt>
      <trkpt lat="45.88587" lon="4.85037">
        <ele>216</ele>
        <time>2018-08-20T08:26:16Z</time>
      </trkpt>
      <trkpt lat="45.88592" lon="4.85037">
        <ele>216</ele>
        <time>2018-08-20T08:26:17Z</time>
      </trkpt>
      <trkpt lat="45.88597" lon="4.85037">
        <ele>216</ele>
        <time>2018-08-20T08:26:18Z</time>
      </trkpt>
      <trkpt lat="45.88601" lon="4.85037">
        <ele>216</ele>
        <time>2018-08-20T08:26:19Z</time>
      </trkpt>
      <trkpt lat="45.88606" lon="4.85038">
        <ele>216</ele>
        <time>2018-08-20T08:26:20Z</time>
      </trkpt>
      <trkpt lat="45.8861" lon="4.85039">
        <ele>217</ele>
        <time>2018-08-20T08:26:21Z</time>
      </trkpt>
      <trkpt lat="45.88619" lon="4.8504">
        <ele>217</ele>
        <time>2018-08-20T08:26:23Z</time>
      </trkpt>
      <trkpt lat="45.88623" lon="4.85041">
        <ele>217</ele>
        <time>2018-08-20T08:26:24Z</time>
      </trkpt>
      <trkpt lat="45.88631" lon="4.85042">
        <ele>217</ele>
        <time>2018-08-20T08:26:26Z</time>
      </trkpt>
      <trkpt lat="45.88636" lon="4.85042">
        <ele>217</ele>
        <time>2018-08-20T08:26:27Z</time>
      </trkpt>
      <trkpt lat="45.88644" lon="4.85041">
        <ele>217</ele>
        <time>2018-08-20T08:26:29Z</time>
      </trkpt>
      <trkpt lat="45.88646" lon="4.8504">
        <ele>217</ele>
        <time>2018-08-20T08:26:30Z</time>
      </trkpt>
      <trkpt lat="45.88653" lon="4.85041">
        <ele>217</ele>
        <time>2018-08-20T08:26:32Z</time>
      </trkpt>
      <trkpt lat="45.88658" lon="4.85042">
        <ele>218</ele>
        <time>2018-08-20T08:26:33Z</time>
      </trkpt>
      <trkpt lat="45.88663" lon="4.85043">
        <ele>217</ele>
        <time>2018-08-20T08:26:35Z</time>
      </trkpt>
      <trkpt lat="45.88668" lon="4.85045">
        <ele>220</ele>
        <time>2018-08-20T08:26:36Z</time>
      </trkpt>
      <trkpt lat="45.88676" lon="4.85047">
        <ele>220</ele>
        <time>2018-08-20T08:26:38Z</time>
      </trkpt>
      <trkpt lat="45.88682" lon="4.85047">
        <ele>220</ele>
        <time>2018-08-20T08:26:39Z</time>
      </trkpt>
      <trkpt lat="45.88686" lon="4.85047">
        <ele>221</ele>
        <time>2018-08-20T08:26:40Z</time>
      </trkpt>
      <trkpt lat="45.88691" lon="4.85047">
        <ele>221</ele>
        <time>2018-08-20T08:26:41Z</time>
      </trkpt>
      <trkpt lat="45.88699" lon="4.85049">
        <ele>221</ele>
        <time>2018-08-20T08:26:44Z</time>
      </trkpt>
      <trkpt lat="45.88701" lon="4.85051">
        <ele>221</ele>
        <time>2018-08-20T08:26:45Z</time>
      </trkpt>
      <trkpt lat="45.88708" lon="4.85055">
        <ele>221</ele>
        <time>2018-08-20T08:26:48Z</time>
      </trkpt>
      <trkpt lat="45.88711" lon="4.85057">
        <ele>221</ele>
        <time>2018-08-20T08:26:49Z</time>
      </trkpt>
      <trkpt lat="45.88719" lon="4.85062">
        <ele>220</ele>
        <time>2018-08-20T08:26:50Z</time>
      </trkpt>
      <trkpt lat="45.88727" lon="4.85068">
        <ele>220</ele>
        <time>2018-08-20T08:26:54Z</time>
      </trkpt>
      <trkpt lat="45.88734" lon="4.85073">
        <ele>219</ele>
        <time>2018-08-20T08:26:55Z</time>
      </trkpt>
      <trkpt lat="45.88742" lon="4.85078">
        <ele>218</ele>
        <time>2018-08-20T08:26:57Z</time>
      </trkpt>
      <trkpt lat="45.88743" lon="4.85079">
        <ele>218</ele>
        <time>2018-08-20T08:26:58Z</time>
      </trkpt>
      <trkpt lat="45.88748" lon="4.85082">
        <ele>217</ele>
        <time>2018-08-20T08:27:00Z</time>
      </trkpt>
      <trkpt lat="45.88754" lon="4.85087">
        <ele>217</ele>
        <time>2018-08-20T08:27:01Z</time>
      </trkpt>
      <trkpt lat="45.8876" lon="4.85091">
        <ele>217</ele>
        <time>2018-08-20T08:27:04Z</time>
      </trkpt>
      <trkpt lat="45.88767" lon="4.85095">
        <ele>218</ele>
        <time>2018-08-20T08:27:05Z</time>
      </trkpt>
      <trkpt lat="45.88775" lon="4.85099">
        <ele>218</ele>
        <time>2018-08-20T08:27:07Z</time>
      </trkpt>
      <trkpt lat="45.88779" lon="4.85101">
        <ele>218</ele>
        <time>2018-08-20T08:27:08Z</time>
      </trkpt>
      <trkpt lat="45.88786" lon="4.85107">
        <ele>218</ele>
        <time>2018-08-20T08:27:10Z</time>
      </trkpt>
      <trkpt lat="45.88787" lon="4.85108">
        <ele>219</ele>
        <time>2018-08-20T08:27:11Z</time>
      </trkpt>
      <trkpt lat="45.88792" lon="4.85112">
        <ele>219</ele>
        <time>2018-08-20T08:27:12Z</time>
      </trkpt>
      <trkpt lat="45.88796" lon="4.85115">
        <ele>219</ele>
        <time>2018-08-20T08:27:13Z</time>
      </trkpt>
      <trkpt lat="45.88803" lon="4.8512">
        <ele>219</ele>
        <time>2018-08-20T08:27:15Z</time>
      </trkpt>
      <trkpt lat="45.88807" lon="4.85123">
        <ele>219</ele>
        <time>2018-08-20T08:27:16Z</time>
      </trkpt>
      <trkpt lat="45.88812" lon="4.85127">
        <ele>219</ele>
        <time>2018-08-20T08:27:18Z</time>
      </trkpt>
      <trkpt lat="45.88817" lon="4.85131">
        <ele>219</ele>
        <time>2018-08-20T08:27:19Z</time>
      </trkpt>
      <trkpt lat="45.88825" lon="4.85135">
        <ele>219</ele>
        <time>2018-08-20T08:27:21Z</time>
      </trkpt>
      <trkpt lat="45.88828" lon="4.85137">
        <ele>219</ele>
        <time>2018-08-20T08:27:22Z</time>
      </trkpt>
      <trkpt lat="45.88835" lon="4.85143">
        <ele>224</ele>
        <time>2018-08-20T08:27:24Z</time>
      </trkpt>
      <trkpt lat="45.88837" lon="4.85144">
        <ele>224</ele>
        <time>2018-08-20T08:27:25Z</time>
      </trkpt>
      <trkpt lat="45.88844" lon="4.85148">
        <ele>224</ele>
        <time>2018-08-20T08:27:29Z</time>
      </trkpt>
      <trkpt lat="45.88846" lon="4.85149">
        <ele>224</ele>
        <time>2018-08-20T08:27:30Z</time>
      </trkpt>
      <trkpt lat="45.8885" lon="4.85152">
        <ele>224</ele>
        <time>2018-08-20T08:27:32Z</time>
      </trkpt>
      <trkpt lat="45.8886" lon="4.85159">
        <ele>225</ele>
        <time>2018-08-20T08:27:33Z</time>
      </trkpt>
      <trkpt lat="45.88866" lon="4.85167">
        <ele>226</ele>
        <time>2018-08-20T08:27:35Z</time>
      </trkpt>
      <trkpt lat="45.88868" lon="4.85168">
        <ele>221</ele>
        <time>2018-08-20T08:27:36Z</time>
      </trkpt>
      <trkpt lat="45.88872" lon="4.85172">
        <ele>221</ele>
        <time>2018-08-20T08:27:38Z</time>
      </trkpt>
      <trkpt lat="45.8888" lon="4.85179">
        <ele>222</ele>
        <time>2018-08-20T08:27:39Z</time>
      </trkpt>
      <trkpt lat="45.88887" lon="4.85185">
        <ele>223</ele>
        <time>2018-08-20T08:27:41Z</time>
      </trkpt>
      <trkpt lat="45.88891" lon="4.85188">
        <ele>223</ele>
        <time>2018-08-20T08:27:42Z</time>
      </trkpt>
      <trkpt lat="45.88898" lon="4.85194">
        <ele>223</ele>
        <time>2018-08-20T08:27:44Z</time>
      </trkpt>
      <trkpt lat="45.88902" lon="4.85197">
        <ele>223</ele>
        <time>2018-08-20T08:27:45Z</time>
      </trkpt>
      <trkpt lat="45.88909" lon="4.85204">
        <ele>223</ele>
        <time>2018-08-20T08:27:47Z</time>
      </trkpt>
      <trkpt lat="45.88913" lon="4.85207">
        <ele>222</ele>
        <time>2018-08-20T08:27:48Z</time>
      </trkpt>
      <trkpt lat="45.8892" lon="4.85214">
        <ele>233</ele>
        <time>2018-08-20T08:27:50Z</time>
      </trkpt>
      <trkpt lat="45.88924" lon="4.85218">
        <ele>233</ele>
        <time>2018-08-20T08:27:51Z</time>
      </trkpt>
      <trkpt lat="45.8893" lon="4.85225">
        <ele>232</ele>
        <time>2018-08-20T08:27:53Z</time>
      </trkpt>
      <trkpt lat="45.88932" lon="4.85227">
        <ele>232</ele>
        <time>2018-08-20T08:27:54Z</time>
      </trkpt>
      <trkpt lat="45.88936" lon="4.85232">
        <ele>232</ele>
        <time>2018-08-20T08:27:55Z</time>
      </trkpt>
      <trkpt lat="45.88938" lon="4.85236">
        <ele>232</ele>
        <time>2018-08-20T08:27:56Z</time>
      </trkpt>
      <trkpt lat="45.88944" lon="4.85244">
        <ele>233</ele>
        <time>2018-08-20T08:27:58Z</time>
      </trkpt>
      <trkpt lat="45.88946" lon="4.85246">
        <ele>233</ele>
        <time>2018-08-20T08:27:59Z</time>
      </trkpt>
      <trkpt lat="45.88947" lon="4.85248">
        <ele>233</ele>
        <time>2018-08-20T08:28:00Z</time>
      </trkpt>
      <trkpt lat="45.88952" lon="4.85255">
        <ele>229</ele>
        <time>2018-08-20T08:28:01Z</time>
      </trkpt>
      <trkpt lat="45.88956" lon="4.85261">
        <ele>229</ele>
        <time>2018-08-20T08:28:03Z</time>
      </trkpt>
      <trkpt lat="45.8896" lon="4.85266">
        <ele>230</ele>
        <time>2018-08-20T08:28:04Z</time>
      </trkpt>
      <trkpt lat="45.88965" lon="4.85275">
        <ele>230</ele>
        <time>2018-08-20T08:28:06Z</time>
      </trkpt>
      <trkpt lat="45.88968" lon="4.85279">
        <ele>230</ele>
        <time>2018-08-20T08:28:07Z</time>
      </trkpt>
      <trkpt lat="45.88973" lon="4.85287">
        <ele>230</ele>
        <time>2018-08-20T08:28:09Z</time>
      </trkpt>
      <trkpt lat="45.88975" lon="4.85292">
        <ele>230</ele>
        <time>2018-08-20T08:28:10Z</time>
      </trkpt>
      <trkpt lat="45.88979" lon="4.85302">
        <ele>230</ele>
        <time>2018-08-20T08:28:12Z</time>
      </trkpt>
      <trkpt lat="45.88981" lon="4.85307">
        <ele>230</ele>
        <time>2018-08-20T08:28:13Z</time>
      </trkpt>
      <trkpt lat="45.88984" lon="4.85318">
        <ele>230</ele>
        <time>2018-08-20T08:28:15Z</time>
      </trkpt>
      <trkpt lat="45.88986" lon="4.85323">
        <ele>230</ele>
        <time>2018-08-20T08:28:16Z</time>
      </trkpt>
      <trkpt lat="45.88989" lon="4.85333">
        <ele>230</ele>
        <time>2018-08-20T08:28:18Z</time>
      </trkpt>
      <trkpt lat="45.8899" lon="4.85339">
        <ele>228</ele>
        <time>2018-08-20T08:28:19Z</time>
      </trkpt>
      <trkpt lat="45.88992" lon="4.85349">
        <ele>227</ele>
        <time>2018-08-20T08:28:21Z</time>
      </trkpt>
      <trkpt lat="45.88994" lon="4.85353">
        <ele>227</ele>
        <time>2018-08-20T08:28:22Z</time>
      </trkpt>
      <trkpt lat="45.88998" lon="4.85362">
        <ele>226</ele>
        <time>2018-08-20T08:28:24Z</time>
      </trkpt>
      <trkpt lat="45.89" lon="4.85367">
        <ele>226</ele>
        <time>2018-08-20T08:28:25Z</time>
      </trkpt>
      <trkpt lat="45.89002" lon="4.85372">
        <ele>236</ele>
        <time>2018-08-20T08:28:27Z</time>
      </trkpt>
      <trkpt lat="45.89005" lon="4.85379">
        <ele>236</ele>
        <time>2018-08-20T08:28:28Z</time>
      </trkpt>
      <trkpt lat="45.89006" lon="4.85385">
        <ele>235</ele>
        <time>2018-08-20T08:28:30Z</time>
      </trkpt>
      <trkpt lat="45.89009" lon="4.85393">
        <ele>234</ele>
        <time>2018-08-20T08:28:31Z</time>
      </trkpt>
      <trkpt lat="45.89012" lon="4.85404">
        <ele>233</ele>
        <time>2018-08-20T08:28:33Z</time>
      </trkpt>
      <trkpt lat="45.89012" lon="4.85406">
        <ele>233</ele>
        <time>2018-08-20T08:28:34Z</time>
      </trkpt>
      <trkpt lat="45.89014" lon="4.85412">
        <ele>232</ele>
        <time>2018-08-20T08:28:36Z</time>
      </trkpt>
      <trkpt lat="45.89017" lon="4.85423">
        <ele>231</ele>
        <time>2018-08-20T08:28:37Z</time>
      </trkpt>
      <trkpt lat="45.8902" lon="4.85434">
        <ele>232</ele>
        <time>2018-08-20T08:28:39Z</time>
      </trkpt>
      <trkpt lat="45.89021" lon="4.85439">
        <ele>232</ele>
        <time>2018-08-20T08:28:40Z</time>
      </trkpt>
      <trkpt lat="45.89023" lon="4.85444">
        <ele>233</ele>
        <time>2018-08-20T08:28:42Z</time>
      </trkpt>
      <trkpt lat="45.89026" lon="4.85454">
        <ele>233</ele>
        <time>2018-08-20T08:28:43Z</time>
      </trkpt>
      <trkpt lat="45.89028" lon="4.85465">
        <ele>233</ele>
        <time>2018-08-20T08:28:45Z</time>
      </trkpt>
      <trkpt lat="45.8903" lon="4.85471">
        <ele>233</ele>
        <time>2018-08-20T08:28:46Z</time>
      </trkpt>
      <trkpt lat="45.89033" lon="4.85482">
        <ele>233</ele>
        <time>2018-08-20T08:28:48Z</time>
      </trkpt>
      <trkpt lat="45.89035" lon="4.85487">
        <ele>233</ele>
        <time>2018-08-20T08:28:49Z</time>
      </trkpt>
      <trkpt lat="45.89039" lon="4.85495">
        <ele>234</ele>
        <time>2018-08-20T08:28:51Z</time>
      </trkpt>
      <trkpt lat="45.89042" lon="4.85499">
        <ele>234</ele>
        <time>2018-08-20T08:28:52Z</time>
      </trkpt>
      <trkpt lat="45.89044" lon="4.85506">
        <ele>233</ele>
        <time>2018-08-20T08:28:54Z</time>
      </trkpt>
      <trkpt lat="45.89047" lon="4.85513">
        <ele>233</ele>
        <time>2018-08-20T08:28:55Z</time>
      </trkpt>
      <trkpt lat="45.8905" lon="4.85524">
        <ele>233</ele>
        <time>2018-08-20T08:28:57Z</time>
      </trkpt>
      <trkpt lat="45.89051" lon="4.85529">
        <ele>233</ele>
        <time>2018-08-20T08:28:58Z</time>
      </trkpt>
      <trkpt lat="45.89054" lon="4.85539">
        <ele>233</ele>
        <time>2018-08-20T08:29:00Z</time>
      </trkpt>
      <trkpt lat="45.89055" lon="4.85544">
        <ele>233</ele>
        <time>2018-08-20T08:29:01Z</time>
      </trkpt>
      <trkpt lat="45.89056" lon="4.85556">
        <ele>233</ele>
        <time>2018-08-20T08:29:03Z</time>
      </trkpt>
      <trkpt lat="45.89057" lon="4.85561">
        <ele>234</ele>
        <time>2018-08-20T08:29:04Z</time>
      </trkpt>
      <trkpt lat="45.89058" lon="4.85572">
        <ele>234</ele>
        <time>2018-08-20T08:29:06Z</time>
      </trkpt>
      <trkpt lat="45.89058" lon="4.85578">
        <ele>234</ele>
        <time>2018-08-20T08:29:07Z</time>
      </trkpt>
      <trkpt lat="45.8906" lon="4.85589">
        <ele>234</ele>
        <time>2018-08-20T08:29:09Z</time>
      </trkpt>
      <trkpt lat="45.89062" lon="4.85595">
        <ele>234</ele>
        <time>2018-08-20T08:29:10Z</time>
      </trkpt>
      <trkpt lat="45.89062" lon="4.85599">
        <ele>234</ele>
        <time>2018-08-20T08:29:12Z</time>
      </trkpt>
      <trkpt lat="45.89061" lon="4.85608">
        <ele>234</ele>
        <time>2018-08-20T08:29:13Z</time>
      </trkpt>
      <trkpt lat="45.8906" lon="4.85619">
        <ele>234</ele>
        <time>2018-08-20T08:29:15Z</time>
      </trkpt>
      <trkpt lat="45.8906" lon="4.85625">
        <ele>234</ele>
        <time>2018-08-20T08:29:16Z</time>
      </trkpt>
      <trkpt lat="45.89058" lon="4.85637">
        <ele>234</ele>
        <time>2018-08-20T08:29:20Z</time>
      </trkpt>
      <trkpt lat="45.89058" lon="4.85641">
        <ele>234</ele>
        <time>2018-08-20T08:29:21Z</time>
      </trkpt>
      <trkpt lat="45.89057" lon="4.85645">
        <ele>234</ele>
        <time>2018-08-20T08:29:22Z</time>
      </trkpt>
      <trkpt lat="45.89055" lon="4.85658">
        <ele>234</ele>
        <time>2018-08-20T08:29:23Z</time>
      </trkpt>
      <trkpt lat="45.89054" lon="4.85668">
        <ele>236</ele>
        <time>2018-08-20T08:29:26Z</time>
      </trkpt>
      <trkpt lat="45.89053" lon="4.85671">
        <ele>235</ele>
        <time>2018-08-20T08:29:27Z</time>
      </trkpt>
      <trkpt lat="45.89052" lon="4.85683">
        <ele>235</ele>
        <time>2018-08-20T08:29:30Z</time>
      </trkpt>
      <trkpt lat="45.89051" lon="4.85688">
        <ele>235</ele>
        <time>2018-08-20T08:29:31Z</time>
      </trkpt>
      <trkpt lat="45.8905" lon="4.85698">
        <ele>235</ele>
        <time>2018-08-20T08:29:33Z</time>
      </trkpt>
      <trkpt lat="45.8905" lon="4.85703">
        <ele>235</ele>
        <time>2018-08-20T08:29:34Z</time>
      </trkpt>
      <trkpt lat="45.89049" lon="4.85719">
        <ele>235</ele>
        <time>2018-08-20T08:29:35Z</time>
      </trkpt>
      <trkpt lat="45.89048" lon="4.85728">
        <ele>235</ele>
        <time>2018-08-20T08:29:38Z</time>
      </trkpt>
      <trkpt lat="45.89047" lon="4.85732">
        <ele>235</ele>
        <time>2018-08-20T08:29:39Z</time>
      </trkpt>
      <trkpt lat="45.89046" lon="4.85736">
        <ele>235</ele>
        <time>2018-08-20T08:29:40Z</time>
      </trkpt>
      <trkpt lat="45.89045" lon="4.85748">
        <ele>235</ele>
        <time>2018-08-20T08:29:41Z</time>
      </trkpt>
      <trkpt lat="45.89043" lon="4.85759">
        <ele>235</ele>
        <time>2018-08-20T08:29:44Z</time>
      </trkpt>
      <trkpt lat="45.89043" lon="4.85763">
        <ele>235</ele>
        <time>2018-08-20T08:29:45Z</time>
      </trkpt>
      <trkpt lat="45.89041" lon="4.85774">
        <ele>235</ele>
        <time>2018-08-20T08:29:48Z</time>
      </trkpt>
      <trkpt lat="45.8904" lon="4.85778">
        <ele>235</ele>
        <time>2018-08-20T08:29:49Z</time>
      </trkpt>
      <trkpt lat="45.89039" lon="4.85786">
        <ele>235</ele>
        <time>2018-08-20T08:29:51Z</time>
      </trkpt>
      <trkpt lat="45.89039" lon="4.85791">
        <ele>235</ele>
        <time>2018-08-20T08:29:52Z</time>
      </trkpt>
      <trkpt lat="45.89038" lon="4.85803">
        <ele>235</ele>
        <time>2018-08-20T08:29:55Z</time>
      </trkpt>
      <trkpt lat="45.89039" lon="4.85808">
        <ele>235</ele>
        <time>2018-08-20T08:29:56Z</time>
      </trkpt>
      <trkpt lat="45.8904" lon="4.8582">
        <ele>235</ele>
        <time>2018-08-20T08:29:59Z</time>
      </trkpt>
      <trkpt lat="45.89041" lon="4.85824">
        <ele>235</ele>
        <time>2018-08-20T08:30:00Z</time>
      </trkpt>
      <trkpt lat="45.89043" lon="4.85836">
        <ele>235</ele>
        <time>2018-08-20T08:30:03Z</time>
      </trkpt>
      <trkpt lat="45.89043" lon="4.8584">
        <ele>235</ele>
        <time>2018-08-20T08:30:04Z</time>
      </trkpt>
      <trkpt lat="45.89046" lon="4.85851">
        <ele>235</ele>
        <time>2018-08-20T08:30:07Z</time>
      </trkpt>
      <trkpt lat="45.89047" lon="4.85854">
        <ele>235</ele>
        <time>2018-08-20T08:30:08Z</time>
      </trkpt>
      <trkpt lat="45.8905" lon="4.85864">
        <ele>236</ele>
        <time>2018-08-20T08:30:11Z</time>
      </trkpt>
      <trkpt lat="45.89052" lon="4.85867">
        <ele>236</ele>
        <time>2018-08-20T08:30:12Z</time>
      </trkpt>
      <trkpt lat="45.89057" lon="4.85877">
        <ele>236</ele>
        <time>2018-08-20T08:30:15Z</time>
      </trkpt>
      <trkpt lat="45.89058" lon="4.8588">
        <ele>236</ele>
        <time>2018-08-20T08:30:16Z</time>
      </trkpt>
      <trkpt lat="45.89064" lon="4.85889">
        <ele>237</ele>
        <time>2018-08-20T08:30:19Z</time>
      </trkpt>
      <trkpt lat="45.89066" lon="4.85892">
        <ele>237</ele>
        <time>2018-08-20T08:30:20Z</time>
      </trkpt>
      <trkpt lat="45.89072" lon="4.85899">
        <ele>238</ele>
        <time>2018-08-20T08:30:22Z</time>
      </trkpt>
      <trkpt lat="45.89074" lon="4.85902">
        <ele>238</ele>
        <time>2018-08-20T08:30:23Z</time>
      </trkpt>
      <trkpt lat="45.8908" lon="4.85911">
        <ele>240</ele>
        <time>2018-08-20T08:30:26Z</time>
      </trkpt>
      <trkpt lat="45.89082" lon="4.85913">
        <ele>240</ele>
        <time>2018-08-20T08:30:27Z</time>
      </trkpt>
      <trkpt lat="45.89088" lon="4.85921">
        <ele>243</ele>
        <time>2018-08-20T08:30:30Z</time>
      </trkpt>
      <trkpt lat="45.8909" lon="4.85923">
        <ele>243</ele>
        <time>2018-08-20T08:30:31Z</time>
      </trkpt>
      <trkpt lat="45.89096" lon="4.85933">
        <ele>245</ele>
        <time>2018-08-20T08:30:35Z</time>
      </trkpt>
      <trkpt lat="45.89098" lon="4.85935">
        <ele>245</ele>
        <time>2018-08-20T08:30:36Z</time>
      </trkpt>
      <trkpt lat="45.89104" lon="4.85943">
        <ele>246</ele>
        <time>2018-08-20T08:30:39Z</time>
      </trkpt>
      <trkpt lat="45.89106" lon="4.85946">
        <ele>247</ele>
        <time>2018-08-20T08:30:40Z</time>
      </trkpt>
      <trkpt lat="45.89111" lon="4.85957">
        <ele>247</ele>
        <time>2018-08-20T08:30:43Z</time>
      </trkpt>
      <trkpt lat="45.89112" lon="4.8596">
        <ele>247</ele>
        <time>2018-08-20T08:30:44Z</time>
      </trkpt>
      <trkpt lat="45.89118" lon="4.8597">
        <ele>247</ele>
        <time>2018-08-20T08:30:47Z</time>
      </trkpt>
      <trkpt lat="45.8912" lon="4.85973">
        <ele>248</ele>
        <time>2018-08-20T08:30:48Z</time>
      </trkpt>
      <trkpt lat="45.89127" lon="4.85982">
        <ele>248</ele>
        <time>2018-08-20T08:30:51Z</time>
      </trkpt>
      <trkpt lat="45.89128" lon="4.85984">
        <ele>248</ele>
        <time>2018-08-20T08:30:52Z</time>
      </trkpt>
      <trkpt lat="45.89132" lon="4.85991">
        <ele>248</ele>
        <time>2018-08-20T08:30:54Z</time>
      </trkpt>
      <trkpt lat="45.89134" lon="4.85994">
        <ele>249</ele>
        <time>2018-08-20T08:30:55Z</time>
      </trkpt>
      <trkpt lat="45.8914" lon="4.86004">
        <ele>249</ele>
        <time>2018-08-20T08:30:58Z</time>
      </trkpt>
      <trkpt lat="45.89142" lon="4.86007">
        <ele>249</ele>
        <time>2018-08-20T08:30:59Z</time>
      </trkpt>
      <trkpt lat="45.89146" lon="4.86018">
        <ele>249</ele>
        <time>2018-08-20T08:31:02Z</time>
      </trkpt>
      <trkpt lat="45.89148" lon="4.86022">
        <ele>249</ele>
        <time>2018-08-20T08:31:03Z</time>
      </trkpt>
      <trkpt lat="45.89151" lon="4.86029">
        <ele>249</ele>
        <time>2018-08-20T08:31:05Z</time>
      </trkpt>
      <trkpt lat="45.89153" lon="4.86032">
        <ele>249</ele>
        <time>2018-08-20T08:31:06Z</time>
      </trkpt>
      <trkpt lat="45.89159" lon="4.86039">
        <ele>249</ele>
        <time>2018-08-20T08:31:09Z</time>
      </trkpt>
      <trkpt lat="45.89162" lon="4.86041">
        <ele>250</ele>
        <time>2018-08-20T08:31:10Z</time>
      </trkpt>
      <trkpt lat="45.89168" lon="4.86045">
        <ele>258</ele>
        <time>2018-08-20T08:31:12Z</time>
      </trkpt>
      <trkpt lat="45.89171" lon="4.86046">
        <ele>258</ele>
        <time>2018-08-20T08:31:13Z</time>
      </trkpt>
      <trkpt lat="45.89177" lon="4.86049">
        <ele>258</ele>
        <time>2018-08-20T08:31:15Z</time>
      </trkpt>
      <trkpt lat="45.8918" lon="4.8605">
        <ele>258</ele>
        <time>2018-08-20T08:31:16Z</time>
      </trkpt>
      <trkpt lat="45.89188" lon="4.86054">
        <ele>259</ele>
        <time>2018-08-20T08:31:19Z</time>
      </trkpt>
      <trkpt lat="45.89191" lon="4.86055">
        <ele>259</ele>
        <time>2018-08-20T08:31:20Z</time>
      </trkpt>
      <trkpt lat="45.89198" lon="4.86059">
        <ele>259</ele>
        <time>2018-08-20T08:31:22Z</time>
      </trkpt>
      <trkpt lat="45.89201" lon="4.8606">
        <ele>260</ele>
        <time>2018-08-20T08:31:23Z</time>
      </trkpt>
      <trkpt lat="45.89209" lon="4.86064">
        <ele>260</ele>
        <time>2018-08-20T08:31:27Z</time>
      </trkpt>
      <trkpt lat="45.89212" lon="4.86065">
        <ele>260</ele>
        <time>2018-08-20T08:31:28Z</time>
      </trkpt>
      <trkpt lat="45.89219" lon="4.86069">
        <ele>260</ele>
        <time>2018-08-20T08:31:31Z</time>
      </trkpt>
      <trkpt lat="45.89221" lon="4.86071">
        <ele>261</ele>
        <time>2018-08-20T08:31:32Z</time>
      </trkpt>
      <trkpt lat="45.89229" lon="4.86076">
        <ele>261</ele>
        <time>2018-08-20T08:31:35Z</time>
      </trkpt>
      <trkpt lat="45.89232" lon="4.86078">
        <ele>261</ele>
        <time>2018-08-20T08:31:36Z</time>
      </trkpt>
      <trkpt lat="45.89239" lon="4.86082">
        <ele>261</ele>
        <time>2018-08-20T08:31:39Z</time>
      </trkpt>
      <trkpt lat="45.89242" lon="4.86083">
        <ele>261</ele>
        <time>2018-08-20T08:31:40Z</time>
      </trkpt>
      <trkpt lat="45.89249" lon="4.86086">
        <ele>261</ele>
        <time>2018-08-20T08:31:42Z</time>
      </trkpt>
      <trkpt lat="45.89251" lon="4.86087">
        <ele>261</ele>
        <time>2018-08-20T08:31:43Z</time>
      </trkpt>
      <trkpt lat="45.89258" lon="4.8609">
        <ele>261</ele>
        <time>2018-08-20T08:31:46Z</time>
      </trkpt>
      <trkpt lat="45.8926" lon="4.86091">
        <ele>261</ele>
        <time>2018-08-20T08:31:47Z</time>
      </trkpt>
      <trkpt lat="45.89267" lon="4.86095">
        <ele>261</ele>
        <time>2018-08-20T08:31:50Z</time>
      </trkpt>
      <trkpt lat="45.89269" lon="4.86097">
        <ele>261</ele>
        <time>2018-08-20T08:31:51Z</time>
      </trkpt>
      <trkpt lat="45.89276" lon="4.861">
        <ele>261</ele>
        <time>2018-08-20T08:31:53Z</time>
      </trkpt>
      <trkpt lat="45.89278" lon="4.86101">
        <ele>261</ele>
        <time>2018-08-20T08:31:54Z</time>
      </trkpt>
      <trkpt lat="45.89284" lon="4.86106">
        <ele>261</ele>
        <time>2018-08-20T08:31:57Z</time>
      </trkpt>
      <trkpt lat="45.89286" lon="4.86107">
        <ele>261</ele>
        <time>2018-08-20T08:31:58Z</time>
      </trkpt>
      <trkpt lat="45.89292" lon="4.86113">
        <ele>261</ele>
        <time>2018-08-20T08:32:01Z</time>
      </trkpt>
      <trkpt lat="45.89295" lon="4.86115">
        <ele>261</ele>
        <time>2018-08-20T08:32:02Z</time>
      </trkpt>
      <trkpt lat="45.89301" lon="4.8612">
        <ele>261</ele>
        <time>2018-08-20T08:32:05Z</time>
      </trkpt>
      <trkpt lat="45.89303" lon="4.86122">
        <ele>261</ele>
        <time>2018-08-20T08:32:06Z</time>
      </trkpt>
      <trkpt lat="45.8931" lon="4.86127">
        <ele>261</ele>
        <time>2018-08-20T08:32:09Z</time>
      </trkpt>
      <trkpt lat="45.89312" lon="4.86128">
        <ele>261</ele>
        <time>2018-08-20T08:32:10Z</time>
      </trkpt>
      <trkpt lat="45.89319" lon="4.86136">
        <ele>260</ele>
        <time>2018-08-20T08:32:13Z</time>
      </trkpt>
      <trkpt lat="45.8932" lon="4.86138">
        <ele>260</ele>
        <time>2018-08-20T08:32:14Z</time>
      </trkpt>
      <trkpt lat="45.89326" lon="4.86147">
        <ele>260</ele>
        <time>2018-08-20T08:32:18Z</time>
      </trkpt>
      <trkpt lat="45.89328" lon="4.86149">
        <ele>260</ele>
        <time>2018-08-20T08:32:19Z</time>
      </trkpt>
      <trkpt lat="45.89334" lon="4.86156">
        <ele>261</ele>
        <time>2018-08-20T08:32:23Z</time>
      </trkpt>
      <trkpt lat="45.89336" lon="4.86158">
        <ele>261</ele>
        <time>2018-08-20T08:32:24Z</time>
      </trkpt>
      <trkpt lat="45.89343" lon="4.86165">
        <ele>261</ele>
        <time>2018-08-20T08:32:28Z</time>
      </trkpt>
      <trkpt lat="45.89344" lon="4.86166">
        <ele>262</ele>
        <time>2018-08-20T08:32:29Z</time>
      </trkpt>
      <trkpt lat="45.89352" lon="4.86172">
        <ele>264</ele>
        <time>2018-08-20T08:32:33Z</time>
      </trkpt>
      <trkpt lat="45.89354" lon="4.86173">
        <ele>264</ele>
        <time>2018-08-20T08:32:33.676Z</time>
      </trkpt>
      <trkpt lat="45.89361" lon="4.86179">
        <ele>265</ele>
        <time>2018-08-20T08:32:37Z</time>
      </trkpt>
      <trkpt lat="45.89362" lon="4.86181">
        <ele>265</ele>
        <time>2018-08-20T08:32:38Z</time>
      </trkpt>
      <trkpt lat="45.89367" lon="4.86189">
        <ele>266</ele>
        <time>2018-08-20T08:32:41Z</time>
      </trkpt>
      <trkpt lat="45.89368" lon="4.86191">
        <ele>266</ele>
        <time>2018-08-20T08:32:42Z</time>
      </trkpt>
      <trkpt lat="45.89374" lon="4.86198">
        <ele>267</ele>
        <time>2018-08-20T08:32:46Z</time>
      </trkpt>
      <trkpt lat="45.89375" lon="4.862">
        <ele>267</ele>
        <time>2018-08-20T08:32:47Z</time>
      </trkpt>
      <trkpt lat="45.89381" lon="4.86207">
        <ele>267</ele>
        <time>2018-08-20T08:32:50Z</time>
      </trkpt>
      <trkpt lat="45.89383" lon="4.86209">
        <ele>267</ele>
        <time>2018-08-20T08:32:51Z</time>
      </trkpt>
      <trkpt lat="45.89391" lon="4.86216">
        <ele>268</ele>
        <time>2018-08-20T08:32:55Z</time>
      </trkpt>
      <trkpt lat="45.89393" lon="4.86218">
        <ele>268</ele>
        <time>2018-08-20T08:32:56Z</time>
      </trkpt>
      <trkpt lat="45.89398" lon="4.86225">
        <ele>268</ele>
        <time>2018-08-20T08:32:59Z</time>
      </trkpt>
      <trkpt lat="45.89399" lon="4.86228">
        <ele>268</ele>
        <time>2018-08-20T08:33:00Z</time>
      </trkpt>
      <trkpt lat="45.89405" lon="4.86235">
        <ele>268</ele>
        <time>2018-08-20T08:33:03Z</time>
      </trkpt>
      <trkpt lat="45.89406" lon="4.86237">
        <ele>268</ele>
        <time>2018-08-20T08:33:04Z</time>
      </trkpt>
      <trkpt lat="45.89411" lon="4.86243">
        <ele>269</ele>
        <time>2018-08-20T08:33:07Z</time>
      </trkpt>
      <trkpt lat="45.89413" lon="4.86246">
        <ele>269</ele>
        <time>2018-08-20T08:33:08Z</time>
      </trkpt>
      <trkpt lat="45.89418" lon="4.86254">
        <ele>270</ele>
        <time>2018-08-20T08:33:11Z</time>
      </trkpt>
      <trkpt lat="45.89421" lon="4.86256">
        <ele>271</ele>
        <time>2018-08-20T08:33:12Z</time>
      </trkpt>
      <trkpt lat="45.89427" lon="4.86261">
        <ele>272</ele>
        <time>2018-08-20T08:33:15Z</time>
      </trkpt>
      <trkpt lat="45.8943" lon="4.86263">
        <ele>272</ele>
        <time>2018-08-20T08:33:16Z</time>
      </trkpt>
      <trkpt lat="45.89437" lon="4.86268">
        <ele>273</ele>
        <time>2018-08-20T08:33:19Z</time>
      </trkpt>
      <trkpt lat="45.8944" lon="4.86269">
        <ele>274</ele>
        <time>2018-08-20T08:33:20Z</time>
      </trkpt>
      <trkpt lat="45.89446" lon="4.86275">
        <ele>274</ele>
        <time>2018-08-20T08:33:24Z</time>
      </trkpt>
      <trkpt lat="45.89447" lon="4.86277">
        <ele>274</ele>
        <time>2018-08-20T08:33:25Z</time>
      </trkpt>
      <trkpt lat="45.89454" lon="4.86284">
        <ele>275</ele>
        <time>2018-08-20T08:33:30Z</time>
      </trkpt>
      <trkpt lat="45.89456" lon="4.86285">
        <ele>275</ele>
        <time>2018-08-20T08:33:31Z</time>
      </trkpt>
      <trkpt lat="45.89463" lon="4.86288">
        <ele>275</ele>
        <time>2018-08-20T08:33:35Z</time>
      </trkpt>
      <trkpt lat="45.89465" lon="4.86289">
        <ele>275</ele>
        <time>2018-08-20T08:33:36Z</time>
      </trkpt>
      <trkpt lat="45.89473" lon="4.86294">
        <ele>275</ele>
        <time>2018-08-20T08:33:40Z</time>
      </trkpt>
      <trkpt lat="45.89475" lon="4.86295">
        <ele>275</ele>
        <time>2018-08-20T08:33:41Z</time>
      </trkpt>
      <trkpt lat="45.89483" lon="4.86298">
        <ele>275</ele>
        <time>2018-08-20T08:33:44Z</time>
      </trkpt>
      <trkpt lat="45.89485" lon="4.86299">
        <ele>275</ele>
        <time>2018-08-20T08:33:45Z</time>
      </trkpt>
      <trkpt lat="45.89493" lon="4.86303">
        <ele>275</ele>
        <time>2018-08-20T08:33:48Z</time>
      </trkpt>
      <trkpt lat="45.89496" lon="4.86305">
        <ele>275</ele>
        <time>2018-08-20T08:33:49Z</time>
      </trkpt>
      <trkpt lat="45.89503" lon="4.86308">
        <ele>276</ele>
        <time>2018-08-20T08:33:52Z</time>
      </trkpt>
      <trkpt lat="45.89506" lon="4.8631">
        <ele>276</ele>
        <time>2018-08-20T08:33:53Z</time>
      </trkpt>
      <trkpt lat="45.89512" lon="4.86314">
        <ele>276</ele>
        <time>2018-08-20T08:33:56Z</time>
      </trkpt>
      <trkpt lat="45.89514" lon="4.86315">
        <ele>276</ele>
        <time>2018-08-20T08:33:57Z</time>
      </trkpt>
      <trkpt lat="45.89522" lon="4.8632">
        <ele>277</ele>
        <time>2018-08-20T08:34:01Z</time>
      </trkpt>
      <trkpt lat="45.89525" lon="4.86321">
        <ele>277</ele>
        <time>2018-08-20T08:34:02Z</time>
      </trkpt>
      <trkpt lat="45.89531" lon="4.86323">
        <ele>277</ele>
        <time>2018-08-20T08:34:05Z</time>
      </trkpt>
      <trkpt lat="45.89534" lon="4.86324">
        <ele>277</ele>
        <time>2018-08-20T08:34:06Z</time>
      </trkpt>
      <trkpt lat="45.89541" lon="4.86326">
        <ele>277</ele>
        <time>2018-08-20T08:34:09Z</time>
      </trkpt>
      <trkpt lat="45.89544" lon="4.86327">
        <ele>277</ele>
        <time>2018-08-20T08:34:10Z</time>
      </trkpt>
      <trkpt lat="45.89551" lon="4.86333">
        <ele>277</ele>
        <time>2018-08-20T08:34:14Z</time>
      </trkpt>
      <trkpt lat="45.89552" lon="4.86334">
        <ele>278</ele>
        <time>2018-08-20T08:34:15Z</time>
      </trkpt>
      <trkpt lat="45.8956" lon="4.86341">
        <ele>278</ele>
        <time>2018-08-20T08:34:19Z</time>
      </trkpt>
      <trkpt lat="45.89562" lon="4.86342">
        <ele>278</ele>
        <time>2018-08-20T08:34:20Z</time>
      </trkpt>
      <trkpt lat="45.89568" lon="4.86348">
        <ele>278</ele>
        <time>2018-08-20T08:34:23Z</time>
      </trkpt>
      <trkpt lat="45.89571" lon="4.8635">
        <ele>278</ele>
        <time>2018-08-20T08:34:24Z</time>
      </trkpt>
      <trkpt lat="45.89577" lon="4.86356">
        <ele>279</ele>
        <time>2018-08-20T08:34:27Z</time>
      </trkpt>
      <trkpt lat="45.89579" lon="4.86357">
        <ele>279</ele>
        <time>2018-08-20T08:34:28Z</time>
      </trkpt>
      <trkpt lat="45.89585" lon="4.86364">
        <ele>280</ele>
        <time>2018-08-20T08:34:31Z</time>
      </trkpt>
      <trkpt lat="45.89587" lon="4.86366">
        <ele>280</ele>
        <time>2018-08-20T08:34:32Z</time>
      </trkpt>
      <trkpt lat="45.89592" lon="4.86374">
        <ele>280</ele>
        <time>2018-08-20T08:34:35Z</time>
      </trkpt>
      <trkpt lat="45.89594" lon="4.86376">
        <ele>281</ele>
        <time>2018-08-20T08:34:36Z</time>
      </trkpt>
      <trkpt lat="45.89599" lon="4.86385">
        <ele>281</ele>
        <time>2018-08-20T08:34:39Z</time>
      </trkpt>
      <trkpt lat="45.89601" lon="4.86387">
        <ele>281</ele>
        <time>2018-08-20T08:34:40Z</time>
      </trkpt>
      <trkpt lat="45.89607" lon="4.86395">
        <ele>281</ele>
        <time>2018-08-20T08:34:43Z</time>
      </trkpt>
      <trkpt lat="45.89608" lon="4.86397">
        <ele>281</ele>
        <time>2018-08-20T08:34:44Z</time>
      </trkpt>
      <trkpt lat="45.89614" lon="4.86404">
        <ele>281</ele>
        <time>2018-08-20T08:34:47Z</time>
      </trkpt>
      <trkpt lat="45.89616" lon="4.86406">
        <ele>281</ele>
        <time>2018-08-20T08:34:48Z</time>
      </trkpt>
      <trkpt lat="45.89622" lon="4.86415">
        <ele>281</ele>
        <time>2018-08-20T08:34:51Z</time>
      </trkpt>
      <trkpt lat="45.89624" lon="4.86418">
        <ele>282</ele>
        <time>2018-08-20T08:34:52Z</time>
      </trkpt>
      <trkpt lat="45.89629" lon="4.86426">
        <ele>282</ele>
        <time>2018-08-20T08:34:55Z</time>
      </trkpt>
      <trkpt lat="45.89631" lon="4.86428">
        <ele>282</ele>
        <time>2018-08-20T08:34:56Z</time>
      </trkpt>
      <trkpt lat="45.89638" lon="4.86436">
        <ele>282</ele>
        <time>2018-08-20T08:35:00Z</time>
      </trkpt>
      <trkpt lat="45.8964" lon="4.86438">
        <ele>282</ele>
        <time>2018-08-20T08:35:01Z</time>
      </trkpt>
      <trkpt lat="45.89646" lon="4.86444">
        <ele>282</ele>
        <time>2018-08-20T08:35:04Z</time>
      </trkpt>
      <trkpt lat="45.89648" lon="4.86447">
        <ele>282</ele>
        <time>2018-08-20T08:35:05Z</time>
      </trkpt>
      <trkpt lat="45.89653" lon="4.86454">
        <ele>282</ele>
        <time>2018-08-20T08:35:08Z</time>
      </trkpt>
      <trkpt lat="45.89655" lon="4.86456">
        <ele>282</ele>
        <time>2018-08-20T08:35:09Z</time>
      </trkpt>
      <trkpt lat="45.89659" lon="4.86463">
        <ele>282</ele>
        <time>2018-08-20T08:35:12Z</time>
      </trkpt>
      <trkpt lat="45.89661" lon="4.86466">
        <ele>282</ele>
        <time>2018-08-20T08:35:13Z</time>
      </trkpt>
      <trkpt lat="45.89667" lon="4.86472">
        <ele>282</ele>
        <time>2018-08-20T08:35:16Z</time>
      </trkpt>
      <trkpt lat="45.89669" lon="4.86475">
        <ele>283</ele>
        <time>2018-08-20T08:35:17Z</time>
      </trkpt>
      <trkpt lat="45.89676" lon="4.86482">
        <ele>283</ele>
        <time>2018-08-20T08:35:20Z</time>
      </trkpt>
      <trkpt lat="45.89678" lon="4.86484">
        <ele>283</ele>
        <time>2018-08-20T08:35:21Z</time>
      </trkpt>
      <trkpt lat="45.89684" lon="4.86489">
        <ele>283</ele>
        <time>2018-08-20T08:35:24Z</time>
      </trkpt>
      <trkpt lat="45.89686" lon="4.86491">
        <ele>283</ele>
        <time>2018-08-20T08:35:25Z</time>
      </trkpt>
      <trkpt lat="45.89693" lon="4.86497">
        <ele>283</ele>
        <time>2018-08-20T08:35:28Z</time>
      </trkpt>
      <trkpt lat="45.89695" lon="4.86499">
        <ele>283</ele>
        <time>2018-08-20T08:35:29Z</time>
      </trkpt>
      <trkpt lat="45.89701" lon="4.86507">
        <ele>283</ele>
        <time>2018-08-20T08:35:32Z</time>
      </trkpt>
      <trkpt lat="45.89704" lon="4.8651">
        <ele>283</ele>
        <time>2018-08-20T08:35:33Z</time>
      </trkpt>
      <trkpt lat="45.89708" lon="4.86515">
        <ele>284</ele>
        <time>2018-08-20T08:35:35Z</time>
      </trkpt>
      <trkpt lat="45.89711" lon="4.86518">
        <ele>284</ele>
        <time>2018-08-20T08:35:36Z</time>
      </trkpt>
      <trkpt lat="45.89718" lon="4.86524">
        <ele>284</ele>
        <time>2018-08-20T08:35:39Z</time>
      </trkpt>
      <trkpt lat="45.8972" lon="4.86527">
        <ele>284</ele>
        <time>2018-08-20T08:35:40Z</time>
      </trkpt>
      <trkpt lat="45.89727" lon="4.86534">
        <ele>284</ele>
        <time>2018-08-20T08:35:43Z</time>
      </trkpt>
      <trkpt lat="45.8973" lon="4.86536">
        <ele>284</ele>
        <time>2018-08-20T08:35:44Z</time>
      </trkpt>
      <trkpt lat="45.89737" lon="4.86543">
        <ele>284</ele>
        <time>2018-08-20T08:35:47Z</time>
      </trkpt>
      <trkpt lat="45.8974" lon="4.86546">
        <ele>284</ele>
        <time>2018-08-20T08:35:48Z</time>
      </trkpt>
      <trkpt lat="45.89745" lon="4.86551">
        <ele>284</ele>
        <time>2018-08-20T08:35:50Z</time>
      </trkpt>
      <trkpt lat="45.89748" lon="4.86553">
        <ele>284</ele>
        <time>2018-08-20T08:35:51Z</time>
      </trkpt>
      <trkpt lat="45.89753" lon="4.86558">
        <ele>284</ele>
        <time>2018-08-20T08:35:53Z</time>
      </trkpt>
      <trkpt lat="45.89755" lon="4.86561">
        <ele>284</ele>
        <time>2018-08-20T08:35:54Z</time>
      </trkpt>
      <trkpt lat="45.89762" lon="4.86567">
        <ele>284</ele>
        <time>2018-08-20T08:35:57Z</time>
      </trkpt>
      <trkpt lat="45.89765" lon="4.86569">
        <ele>284</ele>
        <time>2018-08-20T08:35:58Z</time>
      </trkpt>
      <trkpt lat="45.89772" lon="4.86577">
        <ele>284</ele>
        <time>2018-08-20T08:36:01Z</time>
      </trkpt>
      <trkpt lat="45.89774" lon="4.8658">
        <ele>284</ele>
        <time>2018-08-20T08:36:02Z</time>
      </trkpt>
      <trkpt lat="45.89781" lon="4.86587">
        <ele>285</ele>
        <time>2018-08-20T08:36:05Z</time>
      </trkpt>
      <trkpt lat="45.89783" lon="4.86589">
        <ele>285</ele>
        <time>2018-08-20T08:36:06Z</time>
      </trkpt>
      <trkpt lat="45.89791" lon="4.86597">
        <ele>285</ele>
        <time>2018-08-20T08:36:09Z</time>
      </trkpt>
      <trkpt lat="45.89793" lon="4.86599">
        <ele>285</ele>
        <time>2018-08-20T08:36:10Z</time>
      </trkpt>
      <trkpt lat="45.89798" lon="4.86604">
        <ele>285</ele>
        <time>2018-08-20T08:36:12Z</time>
      </trkpt>
      <trkpt lat="45.89801" lon="4.86607">
        <ele>285</ele>
        <time>2018-08-20T08:36:13Z</time>
      </trkpt>
      <trkpt lat="45.89807" lon="4.86613">
        <ele>285</ele>
        <time>2018-08-20T08:36:15Z</time>
      </trkpt>
      <trkpt lat="45.89809" lon="4.86615">
        <ele>285</ele>
        <time>2018-08-20T08:36:16Z</time>
      </trkpt>
      <trkpt lat="45.89814" lon="4.8662">
        <ele>285</ele>
        <time>2018-08-20T08:36:18Z</time>
      </trkpt>
      <trkpt lat="45.89817" lon="4.86623">
        <ele>285</ele>
        <time>2018-08-20T08:36:19Z</time>
      </trkpt>
      <trkpt lat="45.89822" lon="4.86628">
        <ele>285</ele>
        <time>2018-08-20T08:36:21Z</time>
      </trkpt>
      <trkpt lat="45.89825" lon="4.86631">
        <ele>285</ele>
        <time>2018-08-20T08:36:22Z</time>
      </trkpt>
      <trkpt lat="45.89827" lon="4.86634">
        <ele>285</ele>
        <time>2018-08-20T08:36:23Z</time>
      </trkpt>
      <trkpt lat="45.89835" lon="4.86641">
        <ele>285</ele>
        <time>2018-08-20T08:36:24Z</time>
      </trkpt>
      <trkpt lat="45.89841" lon="4.86648">
        <ele>285</ele>
        <time>2018-08-20T08:36:26Z</time>
      </trkpt>
      <trkpt lat="45.89844" lon="4.86651">
        <ele>285</ele>
        <time>2018-08-20T08:36:27Z</time>
      </trkpt>
      <trkpt lat="45.8985" lon="4.86655">
        <ele>285</ele>
        <time>2018-08-20T08:36:30Z</time>
      </trkpt>
      <trkpt lat="45.89852" lon="4.86657">
        <ele>285</ele>
        <time>2018-08-20T08:36:31Z</time>
      </trkpt>
      <trkpt lat="45.89859" lon="4.86664">
        <ele>285</ele>
        <time>2018-08-20T08:36:34Z</time>
      </trkpt>
      <trkpt lat="45.89861" lon="4.86667">
        <ele>286</ele>
        <time>2018-08-20T08:36:35Z</time>
      </trkpt>
      <trkpt lat="45.89864" lon="4.8667">
        <ele>286</ele>
        <time>2018-08-20T08:36:36Z</time>
      </trkpt>
      <trkpt lat="45.89872" lon="4.86678">
        <ele>286</ele>
        <time>2018-08-20T08:36:37Z</time>
      </trkpt>
      <trkpt lat="45.89878" lon="4.86684">
        <ele>286</ele>
        <time>2018-08-20T08:36:39Z</time>
      </trkpt>
      <trkpt lat="45.89881" lon="4.86687">
        <ele>286</ele>
        <time>2018-08-20T08:36:40Z</time>
      </trkpt>
      <trkpt lat="45.89888" lon="4.86693">
        <ele>286</ele>
        <time>2018-08-20T08:36:42Z</time>
      </trkpt>
      <trkpt lat="45.89889" lon="4.86695">
        <ele>286</ele>
        <time>2018-08-20T08:36:43Z</time>
      </trkpt>
      <trkpt lat="45.89894" lon="4.86698">
        <ele>286</ele>
        <time>2018-08-20T08:36:44Z</time>
      </trkpt>
      <trkpt lat="45.89897" lon="4.86701">
        <ele>286</ele>
        <time>2018-08-20T08:36:45Z</time>
      </trkpt>
      <trkpt lat="45.89904" lon="4.86706">
        <ele>286</ele>
        <time>2018-08-20T08:36:47Z</time>
      </trkpt>
      <trkpt lat="45.89907" lon="4.86709">
        <ele>286</ele>
        <time>2018-08-20T08:36:48Z</time>
      </trkpt>
      <trkpt lat="45.89913" lon="4.86716">
        <ele>286</ele>
        <time>2018-08-20T08:36:50Z</time>
      </trkpt>
      <trkpt lat="45.89916" lon="4.8672">
        <ele>286</ele>
        <time>2018-08-20T08:36:51Z</time>
      </trkpt>
      <trkpt lat="45.89923" lon="4.86727">
        <ele>287</ele>
        <time>2018-08-20T08:36:55Z</time>
      </trkpt>
      <trkpt lat="45.89925" lon="4.86729">
        <ele>287</ele>
        <time>2018-08-20T08:36:56Z</time>
      </trkpt>
      <trkpt lat="45.89932" lon="4.86736">
        <ele>287</ele>
        <time>2018-08-20T08:36:57Z</time>
      </trkpt>
      <trkpt lat="45.89935" lon="4.86739">
        <ele>287</ele>
        <time>2018-08-20T08:36:58Z</time>
      </trkpt>
      <trkpt lat="45.89941" lon="4.86747">
        <ele>287</ele>
        <time>2018-08-20T08:37:00Z</time>
      </trkpt>
      <trkpt lat="45.89944" lon="4.8675">
        <ele>287</ele>
        <time>2018-08-20T08:37:01Z</time>
      </trkpt>
      <trkpt lat="45.8995" lon="4.86755">
        <ele>287</ele>
        <time>2018-08-20T08:37:03Z</time>
      </trkpt>
      <trkpt lat="45.89953" lon="4.86758">
        <ele>287</ele>
        <time>2018-08-20T08:37:04Z</time>
      </trkpt>
      <trkpt lat="45.8996" lon="4.86765">
        <ele>288</ele>
        <time>2018-08-20T08:37:06Z</time>
      </trkpt>
      <trkpt lat="45.89963" lon="4.86769">
        <ele>288</ele>
        <time>2018-08-20T08:37:07Z</time>
      </trkpt>
      <trkpt lat="45.89971" lon="4.86776">
        <ele>288</ele>
        <time>2018-08-20T08:37:09Z</time>
      </trkpt>
      <trkpt lat="45.89974" lon="4.86779">
        <ele>288</ele>
        <time>2018-08-20T08:37:10Z</time>
      </trkpt>
      <trkpt lat="45.8998" lon="4.86787">
        <ele>288</ele>
        <time>2018-08-20T08:37:12Z</time>
      </trkpt>
      <trkpt lat="45.89984" lon="4.8679">
        <ele>288</ele>
        <time>2018-08-20T08:37:13Z</time>
      </trkpt>
      <trkpt lat="45.89988" lon="4.86794">
        <ele>288</ele>
        <time>2018-08-20T08:37:14Z</time>
      </trkpt>
      <trkpt lat="45.89992" lon="4.86798">
        <ele>288</ele>
        <time>2018-08-20T08:37:15Z</time>
      </trkpt>
      <trkpt lat="45.89996" lon="4.86801">
        <ele>288</ele>
        <time>2018-08-20T08:37:16Z</time>
      </trkpt>
      <trkpt lat="45.9" lon="4.86805">
        <ele>288</ele>
        <time>2018-08-20T08:37:17Z</time>
      </trkpt>
      <trkpt lat="45.90006" lon="4.8681">
        <ele>288</ele>
        <time>2018-08-20T08:37:19Z</time>
      </trkpt>
      <trkpt lat="45.90009" lon="4.86813">
        <ele>288</ele>
        <time>2018-08-20T08:37:20Z</time>
      </trkpt>
      <trkpt lat="45.90016" lon="4.8682">
        <ele>288</ele>
        <time>2018-08-20T08:37:22Z</time>
      </trkpt>
      <trkpt lat="45.90019" lon="4.86823">
        <ele>288</ele>
        <time>2018-08-20T08:37:23Z</time>
      </trkpt>
      <trkpt lat="45.90026" lon="4.8683">
        <ele>288</ele>
        <time>2018-08-20T08:37:25Z</time>
      </trkpt>
      <trkpt lat="45.90029" lon="4.86833">
        <ele>288</ele>
        <time>2018-08-20T08:37:26Z</time>
      </trkpt>
      <trkpt lat="45.90036" lon="4.86841">
        <ele>289</ele>
        <time>2018-08-20T08:37:30Z</time>
      </trkpt>
      <trkpt lat="45.90038" lon="4.86843">
        <ele>289</ele>
        <time>2018-08-20T08:37:31Z</time>
      </trkpt>
      <trkpt lat="45.90042" lon="4.86847">
        <ele>289</ele>
        <time>2018-08-20T08:37:33Z</time>
      </trkpt>
      <trkpt lat="45.9005" lon="4.86854">
        <ele>289</ele>
        <time>2018-08-20T08:37:34Z</time>
      </trkpt>
      <trkpt lat="45.90056" lon="4.86861">
        <ele>289</ele>
        <time>2018-08-20T08:37:36Z</time>
      </trkpt>
      <trkpt lat="45.90059" lon="4.86864">
        <ele>289</ele>
        <time>2018-08-20T08:37:37Z</time>
      </trkpt>
      <trkpt lat="45.90065" lon="4.86871">
        <ele>289</ele>
        <time>2018-08-20T08:37:40Z</time>
      </trkpt>
      <trkpt lat="45.90067" lon="4.86873">
        <ele>289</ele>
        <time>2018-08-20T08:37:41Z</time>
      </trkpt>
      <trkpt lat="45.90072" lon="4.86877">
        <ele>289</ele>
        <time>2018-08-20T08:37:43Z</time>
      </trkpt>
      <trkpt lat="45.90075" lon="4.8688">
        <ele>289</ele>
        <time>2018-08-20T08:37:44Z</time>
      </trkpt>
      <trkpt lat="45.9008" lon="4.86885">
        <ele>289</ele>
        <time>2018-08-20T08:37:46Z</time>
      </trkpt>
      <trkpt lat="45.90083" lon="4.86888">
        <ele>289</ele>
        <time>2018-08-20T08:37:47Z</time>
      </trkpt>
      <trkpt lat="45.90088" lon="4.86893">
        <ele>289</ele>
        <time>2018-08-20T08:37:49Z</time>
      </trkpt>
      <trkpt lat="45.90096" lon="4.86902">
        <ele>289</ele>
        <time>2018-08-20T08:37:50Z</time>
      </trkpt>
      <trkpt lat="45.90101" lon="4.86906">
        <ele>289</ele>
        <time>2018-08-20T08:37:52Z</time>
      </trkpt>
      <trkpt lat="45.90105" lon="4.86911">
        <ele>289</ele>
        <time>2018-08-20T08:37:53Z</time>
      </trkpt>
      <trkpt lat="45.90112" lon="4.86917">
        <ele>289</ele>
        <time>2018-08-20T08:37:55Z</time>
      </trkpt>
      <trkpt lat="45.90115" lon="4.8692">
        <ele>289</ele>
        <time>2018-08-20T08:37:56Z</time>
      </trkpt>
      <trkpt lat="45.90123" lon="4.86927">
        <ele>289</ele>
        <time>2018-08-20T08:37:59Z</time>
      </trkpt>
      <trkpt lat="45.90125" lon="4.86929">
        <ele>289</ele>
        <time>2018-08-20T08:38:00Z</time>
      </trkpt>
      <trkpt lat="45.90131" lon="4.86936">
        <ele>289</ele>
        <time>2018-08-20T08:38:03Z</time>
      </trkpt>
      <trkpt lat="45.90133" lon="4.86938">
        <ele>289</ele>
        <time>2018-08-20T08:38:04Z</time>
      </trkpt>
      <trkpt lat="45.90139" lon="4.86945">
        <ele>289</ele>
        <time>2018-08-20T08:38:07Z</time>
      </trkpt>
      <trkpt lat="45.90142" lon="4.86948">
        <ele>289</ele>
        <time>2018-08-20T08:38:08Z</time>
      </trkpt>
      <trkpt lat="45.90147" lon="4.86953">
        <ele>289</ele>
        <time>2018-08-20T08:38:10Z</time>
      </trkpt>
      <trkpt lat="45.9015" lon="4.86955">
        <ele>289</ele>
        <time>2018-08-20T08:38:11Z</time>
      </trkpt>
      <trkpt lat="45.90155" lon="4.8696">
        <ele>290</ele>
        <time>2018-08-20T08:38:13Z</time>
      </trkpt>
      <trkpt lat="45.90158" lon="4.86962">
        <ele>290</ele>
        <time>2018-08-20T08:38:14Z</time>
      </trkpt>
      <trkpt lat="45.90164" lon="4.86966">
        <ele>290</ele>
        <time>2018-08-20T08:38:16Z</time>
      </trkpt>
      <trkpt lat="45.90166" lon="4.86968">
        <ele>290</ele>
        <time>2018-08-20T08:38:17Z</time>
      </trkpt>
      <trkpt lat="45.90172" lon="4.86971">
        <ele>290</ele>
        <time>2018-08-20T08:38:19Z</time>
      </trkpt>
      <trkpt lat="45.90175" lon="4.86973">
        <ele>290</ele>
        <time>2018-08-20T08:38:20Z</time>
      </trkpt>
      <trkpt lat="45.90182" lon="4.86976">
        <ele>290</ele>
        <time>2018-08-20T08:38:22Z</time>
      </trkpt>
      <trkpt lat="45.90185" lon="4.86977">
        <ele>290</ele>
        <time>2018-08-20T08:38:23Z</time>
      </trkpt>
      <trkpt lat="45.9019" lon="4.86981">
        <ele>290</ele>
        <time>2018-08-20T08:38:25Z</time>
      </trkpt>
      <trkpt lat="45.90194" lon="4.86984">
        <ele>290</ele>
        <time>2018-08-20T08:38:26Z</time>
      </trkpt>
      <trkpt lat="45.902" lon="4.86988">
        <ele>290</ele>
        <time>2018-08-20T08:38:28Z</time>
      </trkpt>
      <trkpt lat="45.90202" lon="4.8699">
        <ele>290</ele>
        <time>2018-08-20T08:38:29Z</time>
      </trkpt>
      <trkpt lat="45.90208" lon="4.86994">
        <ele>290</ele>
        <time>2018-08-20T08:38:31Z</time>
      </trkpt>
      <trkpt lat="45.90211" lon="4.86997">
        <ele>290</ele>
        <time>2018-08-20T08:38:32Z</time>
      </trkpt>
      <trkpt lat="45.90217" lon="4.87002">
        <ele>291</ele>
        <time>2018-08-20T08:38:34Z</time>
      </trkpt>
      <trkpt lat="45.9022" lon="4.87004">
        <ele>291</ele>
        <time>2018-08-20T08:38:35Z</time>
      </trkpt>
      <trkpt lat="45.90226" lon="4.8701">
        <ele>291</ele>
        <time>2018-08-20T08:38:37Z</time>
      </trkpt>
      <trkpt lat="45.90229" lon="4.87012">
        <ele>291</ele>
        <time>2018-08-20T08:38:38Z</time>
      </trkpt>
      <trkpt lat="45.90235" lon="4.87017">
        <ele>291</ele>
        <time>2018-08-20T08:38:40Z</time>
      </trkpt>
      <trkpt lat="45.90237" lon="4.8702">
        <ele>291</ele>
        <time>2018-08-20T08:38:41Z</time>
      </trkpt>
      <trkpt lat="45.90242" lon="4.87026">
        <ele>291</ele>
        <time>2018-08-20T08:38:43Z</time>
      </trkpt>
      <trkpt lat="45.90244" lon="4.87029">
        <ele>291</ele>
        <time>2018-08-20T08:38:44Z</time>
      </trkpt>
      <trkpt lat="45.90249" lon="4.87037">
        <ele>291</ele>
        <time>2018-08-20T08:38:46Z</time>
      </trkpt>
      <trkpt lat="45.90251" lon="4.87041">
        <ele>291</ele>
        <time>2018-08-20T08:38:47Z</time>
      </trkpt>
      <trkpt lat="45.90256" lon="4.87047">
        <ele>291</ele>
        <time>2018-08-20T08:38:49Z</time>
      </trkpt>
      <trkpt lat="45.90258" lon="4.8705">
        <ele>291</ele>
        <time>2018-08-20T08:38:50Z</time>
      </trkpt>
      <trkpt lat="45.90262" lon="4.87056">
        <ele>291</ele>
        <time>2018-08-20T08:38:52Z</time>
      </trkpt>
      <trkpt lat="45.90265" lon="4.87059">
        <ele>291</ele>
        <time>2018-08-20T08:38:53Z</time>
      </trkpt>
      <trkpt lat="45.90272" lon="4.87069">
        <ele>291</ele>
        <time>2018-08-20T08:38:54Z</time>
      </trkpt>
      <trkpt lat="45.90277" lon="4.87076">
        <ele>291</ele>
        <time>2018-08-20T08:38:56Z</time>
      </trkpt>
      <trkpt lat="45.9028" lon="4.8708">
        <ele>291</ele>
        <time>2018-08-20T08:38:57Z</time>
      </trkpt>
      <trkpt lat="45.90286" lon="4.87089">
        <ele>291</ele>
        <time>2018-08-20T08:38:59Z</time>
      </trkpt>
      <trkpt lat="45.90289" lon="4.87093">
        <ele>291</ele>
        <time>2018-08-20T08:39:00Z</time>
      </trkpt>
      <trkpt lat="45.90295" lon="4.871">
        <ele>291</ele>
        <time>2018-08-20T08:39:02Z</time>
      </trkpt>
      <trkpt lat="45.90298" lon="4.87103">
        <ele>291</ele>
        <time>2018-08-20T08:39:03Z</time>
      </trkpt>
      <trkpt lat="45.90305" lon="4.87112">
        <ele>291</ele>
        <time>2018-08-20T08:39:05Z</time>
      </trkpt>
      <trkpt lat="45.90307" lon="4.87117">
        <ele>291</ele>
        <time>2018-08-20T08:39:06Z</time>
      </trkpt>
      <trkpt lat="45.90309" lon="4.87123">
        <ele>291</ele>
        <time>2018-08-20T08:39:07Z</time>
      </trkpt>
      <trkpt lat="45.90312" lon="4.87129">
        <ele>291</ele>
        <time>2018-08-20T08:39:08Z</time>
      </trkpt>
      <trkpt lat="45.90318" lon="4.87137">
        <ele>291</ele>
        <time>2018-08-20T08:39:10Z</time>
      </trkpt>
      <trkpt lat="45.90321" lon="4.87143">
        <ele>291</ele>
        <time>2018-08-20T08:39:11Z</time>
      </trkpt>
      <trkpt lat="45.90324" lon="4.87148">
        <ele>290</ele>
        <time>2018-08-20T08:39:12Z</time>
      </trkpt>
      <trkpt lat="45.90326" lon="4.87156">
        <ele>290</ele>
        <time>2018-08-20T08:39:13Z</time>
      </trkpt>
      <trkpt lat="45.90329" lon="4.87164">
        <ele>290</ele>
        <time>2018-08-20T08:39:14Z</time>
      </trkpt>
      <trkpt lat="45.90332" lon="4.87172">
        <ele>290</ele>
        <time>2018-08-20T08:39:15Z</time>
      </trkpt>
      <trkpt lat="45.90336" lon="4.8718">
        <ele>289</ele>
        <time>2018-08-20T08:39:16Z</time>
      </trkpt>
      <trkpt lat="45.90339" lon="4.87188">
        <ele>289</ele>
        <time>2018-08-20T08:39:17Z</time>
      </trkpt>
      <trkpt lat="45.90342" lon="4.87197">
        <ele>289</ele>
        <time>2018-08-20T08:39:18Z</time>
      </trkpt>
      <trkpt lat="45.90345" lon="4.87206">
        <ele>289</ele>
        <time>2018-08-20T08:39:19Z</time>
      </trkpt>
      <trkpt lat="45.90347" lon="4.87214">
        <ele>289</ele>
        <time>2018-08-20T08:39:20Z</time>
      </trkpt>
      <trkpt lat="45.9035" lon="4.87223">
        <ele>289</ele>
        <time>2018-08-20T08:39:21Z</time>
      </trkpt>
      <trkpt lat="45.90353" lon="4.87231">
        <ele>289</ele>
        <time>2018-08-20T08:39:22Z</time>
      </trkpt>
      <trkpt lat="45.90354" lon="4.87241">
        <ele>289</ele>
        <time>2018-08-20T08:39:23Z</time>
      </trkpt>
      <trkpt lat="45.90356" lon="4.8725">
        <ele>289</ele>
        <time>2018-08-20T08:39:24Z</time>
      </trkpt>
      <trkpt lat="45.90358" lon="4.87258">
        <ele>289</ele>
        <time>2018-08-20T08:39:25Z</time>
      </trkpt>
      <trkpt lat="45.90359" lon="4.87266">
        <ele>289</ele>
        <time>2018-08-20T08:39:26Z</time>
      </trkpt>
      <trkpt lat="45.90361" lon="4.87274">
        <ele>289</ele>
        <time>2018-08-20T08:39:27Z</time>
      </trkpt>
      <trkpt lat="45.90363" lon="4.87282">
        <ele>289</ele>
        <time>2018-08-20T08:39:28Z</time>
      </trkpt>
      <trkpt lat="45.90363" lon="4.8729">
        <ele>289</ele>
        <time>2018-08-20T08:39:29Z</time>
      </trkpt>
      <trkpt lat="45.90364" lon="4.87297">
        <ele>289</ele>
        <time>2018-08-20T08:39:30Z</time>
      </trkpt>
      <trkpt lat="45.90366" lon="4.87304">
        <ele>289</ele>
        <time>2018-08-20T08:39:31Z</time>
      </trkpt>
      <trkpt lat="45.90367" lon="4.87311">
        <ele>289</ele>
        <time>2018-08-20T08:39:32Z</time>
      </trkpt>
      <trkpt lat="45.90367" lon="4.87318">
        <ele>289</ele>
        <time>2018-08-20T08:39:33Z</time>
      </trkpt>
      <trkpt lat="45.90368" lon="4.87325">
        <ele>289</ele>
        <time>2018-08-20T08:39:34Z</time>
      </trkpt>
      <trkpt lat="45.90369" lon="4.87332">
        <ele>289</ele>
        <time>2018-08-20T08:39:35Z</time>
      </trkpt>
      <trkpt lat="45.9037" lon="4.87339">
        <ele>288</ele>
        <time>2018-08-20T08:39:36Z</time>
      </trkpt>
      <trkpt lat="45.9037" lon="4.87347">
        <ele>288</ele>
        <time>2018-08-20T08:39:37Z</time>
      </trkpt>
      <trkpt lat="45.90372" lon="4.87354">
        <ele>288</ele>
        <time>2018-08-20T08:39:38Z</time>
      </trkpt>
      <trkpt lat="45.90374" lon="4.87362">
        <ele>288</ele>
        <time>2018-08-20T08:39:39Z</time>
      </trkpt>
      <trkpt lat="45.90376" lon="4.87369">
        <ele>288</ele>
        <time>2018-08-20T08:39:40Z</time>
      </trkpt>
      <trkpt lat="45.90378" lon="4.87376">
        <ele>288</ele>
        <time>2018-08-20T08:39:41Z</time>
      </trkpt>
      <trkpt lat="45.9038" lon="4.87384">
        <ele>288</ele>
        <time>2018-08-20T08:39:42Z</time>
      </trkpt>
      <trkpt lat="45.90381" lon="4.8739">
        <ele>288</ele>
        <time>2018-08-20T08:39:43Z</time>
      </trkpt>
      <trkpt lat="45.90383" lon="4.87397">
        <ele>287</ele>
        <time>2018-08-20T08:39:44Z</time>
      </trkpt>
      <trkpt lat="45.90384" lon="4.87403">
        <ele>287</ele>
        <time>2018-08-20T08:39:45Z</time>
      </trkpt>
      <trkpt lat="45.90386" lon="4.87409">
        <ele>287</ele>
        <time>2018-08-20T08:39:46Z</time>
      </trkpt>
      <trkpt lat="45.90388" lon="4.87415">
        <ele>287</ele>
        <time>2018-08-20T08:39:47Z</time>
      </trkpt>
      <trkpt lat="45.9039" lon="4.87422">
        <ele>287</ele>
        <time>2018-08-20T08:39:48Z</time>
      </trkpt>
      <trkpt lat="45.90392" lon="4.87429">
        <ele>287</ele>
        <time>2018-08-20T08:39:49Z</time>
      </trkpt>
      <trkpt lat="45.90395" lon="4.87435">
        <ele>287</ele>
        <time>2018-08-20T08:39:50Z</time>
      </trkpt>
      <trkpt lat="45.90397" lon="4.87441">
        <ele>287</ele>
        <time>2018-08-20T08:39:51Z</time>
      </trkpt>
      <trkpt lat="45.904" lon="4.87452">
        <ele>287</ele>
        <time>2018-08-20T08:39:53Z</time>
      </trkpt>
      <trkpt lat="45.90402" lon="4.87458">
        <ele>287</ele>
        <time>2018-08-20T08:39:54Z</time>
      </trkpt>
      <trkpt lat="45.90405" lon="4.87469">
        <ele>286</ele>
        <time>2018-08-20T08:39:56Z</time>
      </trkpt>
      <trkpt lat="45.90407" lon="4.87476">
        <ele>286</ele>
        <time>2018-08-20T08:39:57Z</time>
      </trkpt>
      <trkpt lat="45.90408" lon="4.87483">
        <ele>286</ele>
        <time>2018-08-20T08:39:58Z</time>
      </trkpt>
      <trkpt lat="45.9041" lon="4.87491">
        <ele>286</ele>
        <time>2018-08-20T08:39:59Z</time>
      </trkpt>
      <trkpt lat="45.90412" lon="4.87498">
        <ele>286</ele>
        <time>2018-08-20T08:40:00Z</time>
      </trkpt>
      <trkpt lat="45.90414" lon="4.87506">
        <ele>286</ele>
        <time>2018-08-20T08:40:01Z</time>
      </trkpt>
      <trkpt lat="45.90417" lon="4.87514">
        <ele>286</ele>
        <time>2018-08-20T08:40:02Z</time>
      </trkpt>
      <trkpt lat="45.90419" lon="4.87522">
        <ele>286</ele>
        <time>2018-08-20T08:40:03Z</time>
      </trkpt>
      <trkpt lat="45.90422" lon="4.87529">
        <ele>286</ele>
        <time>2018-08-20T08:40:04Z</time>
      </trkpt>
      <trkpt lat="45.90424" lon="4.87537">
        <ele>286</ele>
        <time>2018-08-20T08:40:05Z</time>
      </trkpt>
      <trkpt lat="45.90427" lon="4.87545">
        <ele>286</ele>
        <time>2018-08-20T08:40:06Z</time>
      </trkpt>
      <trkpt lat="45.90429" lon="4.87553">
        <ele>286</ele>
        <time>2018-08-20T08:40:07Z</time>
      </trkpt>
      <trkpt lat="45.90432" lon="4.87562">
        <ele>286</ele>
        <time>2018-08-20T08:40:08Z</time>
      </trkpt>
      <trkpt lat="45.90435" lon="4.87571">
        <ele>286</ele>
        <time>2018-08-20T08:40:09Z</time>
      </trkpt>
      <trkpt lat="45.90438" lon="4.8758">
        <ele>286</ele>
        <time>2018-08-20T08:40:10Z</time>
      </trkpt>
      <trkpt lat="45.90441" lon="4.8759">
        <ele>287</ele>
        <time>2018-08-20T08:40:11Z</time>
      </trkpt>
      <trkpt lat="45.90443" lon="4.87599">
        <ele>287</ele>
        <time>2018-08-20T08:40:12Z</time>
      </trkpt>
      <trkpt lat="45.90445" lon="4.87607">
        <ele>287</ele>
        <time>2018-08-20T08:40:13Z</time>
      </trkpt>
      <trkpt lat="45.90447" lon="4.87618">
        <ele>287</ele>
        <time>2018-08-20T08:40:14Z</time>
      </trkpt>
      <trkpt lat="45.90449" lon="4.87628">
        <ele>287</ele>
        <time>2018-08-20T08:40:15Z</time>
      </trkpt>
      <trkpt lat="45.90451" lon="4.87637">
        <ele>287</ele>
        <time>2018-08-20T08:40:16Z</time>
      </trkpt>
      <trkpt lat="45.90452" lon="4.87646">
        <ele>287</ele>
        <time>2018-08-20T08:40:17Z</time>
      </trkpt>
      <trkpt lat="45.90453" lon="4.87657">
        <ele>287</ele>
        <time>2018-08-20T08:40:18Z</time>
      </trkpt>
      <trkpt lat="45.90456" lon="4.87667">
        <ele>287</ele>
        <time>2018-08-20T08:40:19Z</time>
      </trkpt>
      <trkpt lat="45.90457" lon="4.87676">
        <ele>287</ele>
        <time>2018-08-20T08:40:20Z</time>
      </trkpt>
      <trkpt lat="45.9046" lon="4.87686">
        <ele>287</ele>
        <time>2018-08-20T08:40:21Z</time>
      </trkpt>
      <trkpt lat="45.90462" lon="4.87696">
        <ele>287</ele>
        <time>2018-08-20T08:40:22Z</time>
      </trkpt>
      <trkpt lat="45.90465" lon="4.87706">
        <ele>287</ele>
        <time>2018-08-20T08:40:23Z</time>
      </trkpt>
      <trkpt lat="45.90467" lon="4.87718">
        <ele>287</ele>
        <time>2018-08-20T08:40:24Z</time>
      </trkpt>
      <trkpt lat="45.9047" lon="4.87729">
        <ele>287</ele>
        <time>2018-08-20T08:40:25Z</time>
      </trkpt>
      <trkpt lat="45.90473" lon="4.8774">
        <ele>287</ele>
        <time>2018-08-20T08:40:26Z</time>
      </trkpt>
      <trkpt lat="45.90475" lon="4.8775">
        <ele>287</ele>
        <time>2018-08-20T08:40:27Z</time>
      </trkpt>
      <trkpt lat="45.90478" lon="4.8776">
        <ele>287</ele>
        <time>2018-08-20T08:40:28Z</time>
      </trkpt>
      <trkpt lat="45.90481" lon="4.87769">
        <ele>287</ele>
        <time>2018-08-20T08:40:29Z</time>
      </trkpt>
      <trkpt lat="45.90483" lon="4.87778">
        <ele>287</ele>
        <time>2018-08-20T08:40:30Z</time>
      </trkpt>
      <trkpt lat="45.90486" lon="4.87788">
        <ele>287</ele>
        <time>2018-08-20T08:40:31Z</time>
      </trkpt>
      <trkpt lat="45.90487" lon="4.87797">
        <ele>288</ele>
        <time>2018-08-20T08:40:32Z</time>
      </trkpt>
      <trkpt lat="45.90489" lon="4.87805">
        <ele>288</ele>
        <time>2018-08-20T08:40:33Z</time>
      </trkpt>
      <trkpt lat="45.90491" lon="4.87814">
        <ele>288</ele>
        <time>2018-08-20T08:40:34Z</time>
      </trkpt>
      <trkpt lat="45.90492" lon="4.87822">
        <ele>288</ele>
        <time>2018-08-20T08:40:35Z</time>
      </trkpt>
      <trkpt lat="45.90494" lon="4.87829">
        <ele>288</ele>
        <time>2018-08-20T08:40:36Z</time>
      </trkpt>
      <trkpt lat="45.90495" lon="4.87836">
        <ele>288</ele>
        <time>2018-08-20T08:40:37Z</time>
      </trkpt>
      <trkpt lat="45.90496" lon="4.87843">
        <ele>288</ele>
        <time>2018-08-20T08:40:38Z</time>
      </trkpt>
      <trkpt lat="45.90498" lon="4.8785">
        <ele>289</ele>
        <time>2018-08-20T08:40:39Z</time>
      </trkpt>
      <trkpt lat="45.90501" lon="4.87858">
        <ele>289</ele>
        <time>2018-08-20T08:40:40Z</time>
      </trkpt>
      <trkpt lat="45.90502" lon="4.87864">
        <ele>289</ele>
        <time>2018-08-20T08:40:41Z</time>
      </trkpt>
      <trkpt lat="45.90504" lon="4.87872">
        <ele>289</ele>
        <time>2018-08-20T08:40:42Z</time>
      </trkpt>
      <trkpt lat="45.90504" lon="4.87879">
        <ele>289</ele>
        <time>2018-08-20T08:40:43Z</time>
      </trkpt>
      <trkpt lat="45.90504" lon="4.87886">
        <ele>289</ele>
        <time>2018-08-20T08:40:44Z</time>
      </trkpt>
      <trkpt lat="45.90501" lon="4.87892">
        <ele>289</ele>
        <time>2018-08-20T08:40:45Z</time>
      </trkpt>
      <trkpt lat="45.90498" lon="4.87898">
        <ele>289</ele>
        <time>2018-08-20T08:40:46Z</time>
      </trkpt>
      <trkpt lat="45.90494" lon="4.87903">
        <ele>290</ele>
        <time>2018-08-20T08:40:47Z</time>
      </trkpt>
      <trkpt lat="45.90491" lon="4.87909">
        <ele>290</ele>
        <time>2018-08-20T08:40:48Z</time>
      </trkpt>
      <trkpt lat="45.90488" lon="4.87915">
        <ele>290</ele>
        <time>2018-08-20T08:40:49Z</time>
      </trkpt>
      <trkpt lat="45.90486" lon="4.87922">
        <ele>290</ele>
        <time>2018-08-20T08:40:50Z</time>
      </trkpt>
      <trkpt lat="45.90484" lon="4.8793">
        <ele>290</ele>
        <time>2018-08-20T08:40:51Z</time>
      </trkpt>
      <trkpt lat="45.90483" lon="4.87938">
        <ele>290</ele>
        <time>2018-08-20T08:40:52Z</time>
      </trkpt>
      <trkpt lat="45.90483" lon="4.87945">
        <ele>290</ele>
        <time>2018-08-20T08:40:53Z</time>
      </trkpt>
      <trkpt lat="45.90484" lon="4.8795">
        <ele>290</ele>
        <time>2018-08-20T08:40:54Z</time>
      </trkpt>
      <trkpt lat="45.90488" lon="4.87956">
        <ele>290</ele>
        <time>2018-08-20T08:40:55Z</time>
      </trkpt>
      <trkpt lat="45.90492" lon="4.87961">
        <ele>289</ele>
        <time>2018-08-20T08:40:56Z</time>
      </trkpt>
      <trkpt lat="45.90497" lon="4.87965">
        <ele>289</ele>
        <time>2018-08-20T08:40:57Z</time>
      </trkpt>
      <trkpt lat="45.90502" lon="4.87967">
        <ele>290</ele>
        <time>2018-08-20T08:40:58Z</time>
      </trkpt>
      <trkpt lat="45.90508" lon="4.87969">
        <ele>290</ele>
        <time>2018-08-20T08:40:59Z</time>
      </trkpt>
      <trkpt lat="45.90513" lon="4.87973">
        <ele>290</ele>
        <time>2018-08-20T08:41:00Z</time>
      </trkpt>
      <trkpt lat="45.90517" lon="4.87977">
        <ele>290</ele>
        <time>2018-08-20T08:41:01Z</time>
      </trkpt>
      <trkpt lat="45.9052" lon="4.87982">
        <ele>290</ele>
        <time>2018-08-20T08:41:02Z</time>
      </trkpt>
      <trkpt lat="45.90523" lon="4.87987">
        <ele>290</ele>
        <time>2018-08-20T08:41:03Z</time>
      </trkpt>
      <trkpt lat="45.90527" lon="4.87992">
        <ele>290</ele>
        <time>2018-08-20T08:41:04Z</time>
      </trkpt>
      <trkpt lat="45.90531" lon="4.87996">
        <ele>290</ele>
        <time>2018-08-20T08:41:05Z</time>
      </trkpt>
      <trkpt lat="45.90537" lon="4.88003">
        <ele>290</ele>
        <time>2018-08-20T08:41:09Z</time>
      </trkpt>
      <trkpt lat="45.90539" lon="4.88004">
        <ele>290</ele>
        <time>2018-08-20T08:41:10Z</time>
      </trkpt>
      <trkpt lat="45.90545" lon="4.88011">
        <ele>290</ele>
        <time>2018-08-20T08:41:11Z</time>
      </trkpt>
      <trkpt lat="45.90549" lon="4.88013">
        <ele>290</ele>
        <time>2018-08-20T08:41:12Z</time>
      </trkpt>
      <trkpt lat="45.90557" lon="4.88012">
        <ele>290</ele>
        <time>2018-08-20T08:41:17Z</time>
      </trkpt>
      <trkpt lat="45.90558" lon="4.88009">
        <ele>290</ele>
        <time>2018-08-20T08:41:18Z</time>
      </trkpt>
      <trkpt lat="45.90554" lon="4.88005">
        <ele>290</ele>
        <time>2018-08-20T08:41:22Z</time>
      </trkpt>
      <trkpt lat="45.90548" lon="4.88">
        <ele>290</ele>
        <time>2018-08-20T08:41:23Z</time>
      </trkpt>
      <trkpt lat="45.90545" lon="4.87997">
        <ele>290</ele>
        <time>2018-08-20T08:41:24Z</time>
      </trkpt>
      <trkpt lat="45.90539" lon="4.87993">
        <ele>290</ele>
        <time>2018-08-20T08:41:25Z</time>
      </trkpt>
      <trkpt lat="45.90535" lon="4.8799">
        <ele>290</ele>
        <time>2018-08-20T08:41:26Z</time>
      </trkpt>
      <trkpt lat="45.90531" lon="4.87983">
        <ele>290</ele>
        <time>2018-08-20T08:41:27Z</time>
      </trkpt>
      <trkpt lat="45.90529" lon="4.87978">
        <ele>290</ele>
        <time>2018-08-20T08:41:28Z</time>
      </trkpt>
      <trkpt lat="45.90526" lon="4.87972">
        <ele>290</ele>
        <time>2018-08-20T08:41:29Z</time>
      </trkpt>
      <trkpt lat="45.90526" lon="4.87966">
        <ele>290</ele>
        <time>2018-08-20T08:41:30Z</time>
      </trkpt>
      <trkpt lat="45.90525" lon="4.87959">
        <ele>290</ele>
        <time>2018-08-20T08:41:31Z</time>
      </trkpt>
      <trkpt lat="45.90525" lon="4.87951">
        <ele>290</ele>
        <time>2018-08-20T08:41:32Z</time>
      </trkpt>
      <trkpt lat="45.90526" lon="4.87943">
        <ele>290</ele>
        <time>2018-08-20T08:41:33Z</time>
      </trkpt>
      <trkpt lat="45.90529" lon="4.87937">
        <ele>290</ele>
        <time>2018-08-20T08:41:34Z</time>
      </trkpt>
      <trkpt lat="45.90533" lon="4.87932">
        <ele>290</ele>
        <time>2018-08-20T08:41:35Z</time>
      </trkpt>
      <trkpt lat="45.90537" lon="4.87927">
        <ele>290</ele>
        <time>2018-08-20T08:41:36Z</time>
      </trkpt>
      <trkpt lat="45.90541" lon="4.87928">
        <ele>290</ele>
        <time>2018-08-20T08:41:37Z</time>
      </trkpt>
      <trkpt lat="45.90546" lon="4.87928">
        <ele>290</ele>
        <time>2018-08-20T08:41:38Z</time>
      </trkpt>
      <trkpt lat="45.90551" lon="4.87929">
        <ele>290</ele>
        <time>2018-08-20T08:41:39Z</time>
      </trkpt>
      <trkpt lat="45.9056" lon="4.87931">
        <ele>290</ele>
        <time>2018-08-20T08:41:41Z</time>
      </trkpt>
      <trkpt lat="45.90565" lon="4.87929">
        <ele>290</ele>
        <time>2018-08-20T08:41:42Z</time>
      </trkpt>
      <trkpt lat="45.90569" lon="4.8793">
        <ele>289</ele>
        <time>2018-08-20T08:41:43Z</time>
      </trkpt>
      <trkpt lat="45.90575" lon="4.87931">
        <ele>289</ele>
        <time>2018-08-20T08:41:44Z</time>
      </trkpt>
      <trkpt lat="45.9058" lon="4.87932">
        <ele>289</ele>
        <time>2018-08-20T08:41:45Z</time>
      </trkpt>
      <trkpt lat="45.90584" lon="4.87935">
        <ele>290</ele>
        <time>2018-08-20T08:41:46Z</time>
      </trkpt>
      <trkpt lat="45.90589" lon="4.87936">
        <ele>290</ele>
        <time>2018-08-20T08:41:47Z</time>
      </trkpt>
      <trkpt lat="45.90593" lon="4.87938">
        <ele>290</ele>
        <time>2018-08-20T08:41:48Z</time>
      </trkpt>
      <trkpt lat="45.90598" lon="4.8794">
        <ele>290</ele>
        <time>2018-08-20T08:41:49Z</time>
      </trkpt>
      <trkpt lat="45.90602" lon="4.87943">
        <ele>290</ele>
        <time>2018-08-20T08:41:50Z</time>
      </trkpt>
      <trkpt lat="45.9061" lon="4.87948">
        <ele>290</ele>
        <time>2018-08-20T08:41:52Z</time>
      </trkpt>
      <trkpt lat="45.90614" lon="4.8795">
        <ele>290</ele>
        <time>2018-08-20T08:41:53Z</time>
      </trkpt>
      <trkpt lat="45.90618" lon="4.87955">
        <ele>290</ele>
        <time>2018-08-20T08:41:55Z</time>
      </trkpt>
      <trkpt lat="45.90624" lon="4.87957">
        <ele>290</ele>
        <time>2018-08-20T08:41:56Z</time>
      </trkpt>
      <trkpt lat="45.90632" lon="4.87961">
        <ele>290</ele>
        <time>2018-08-20T08:41:58Z</time>
      </trkpt>
      <trkpt lat="45.90637" lon="4.87962">
        <ele>290</ele>
        <time>2018-08-20T08:41:59Z</time>
      </trkpt>
      <trkpt lat="45.90641" lon="4.87964">
        <ele>290</ele>
        <time>2018-08-20T08:42:00Z</time>
      </trkpt>
      <trkpt lat="45.90645" lon="4.87966">
        <ele>290</ele>
        <time>2018-08-20T08:42:01Z</time>
      </trkpt>
      <trkpt lat="45.9065" lon="4.87969">
        <ele>290</ele>
        <time>2018-08-20T08:42:02Z</time>
      </trkpt>
      <trkpt lat="45.90656" lon="4.87968">
        <ele>290</ele>
        <time>2018-08-20T08:42:03Z</time>
      </trkpt>
      <trkpt lat="45.90663" lon="4.87967">
        <ele>290</ele>
        <time>2018-08-20T08:42:04Z</time>
      </trkpt>
      <trkpt lat="45.90668" lon="4.87967">
        <ele>290</ele>
        <time>2018-08-20T08:42:05Z</time>
      </trkpt>
      <trkpt lat="45.90675" lon="4.87969">
        <ele>290</ele>
        <time>2018-08-20T08:42:06Z</time>
      </trkpt>
      <trkpt lat="45.90679" lon="4.87971">
        <ele>290</ele>
        <time>2018-08-20T08:42:07Z</time>
      </trkpt>
      <trkpt lat="45.90688" lon="4.87975">
        <ele>290</ele>
        <time>2018-08-20T08:42:09Z</time>
      </trkpt>
      <trkpt lat="45.90691" lon="4.87976">
        <ele>290</ele>
        <time>2018-08-20T08:42:10Z</time>
      </trkpt>
      <trkpt lat="45.907" lon="4.8798">
        <ele>290</ele>
        <time>2018-08-20T08:42:12Z</time>
      </trkpt>
      <trkpt lat="45.90704" lon="4.87983">
        <ele>290</ele>
        <time>2018-08-20T08:42:13Z</time>
      </trkpt>
      <trkpt lat="45.90709" lon="4.87984">
        <ele>290</ele>
        <time>2018-08-20T08:42:14Z</time>
      </trkpt>
      <trkpt lat="45.90713" lon="4.87985">
        <ele>290</ele>
        <time>2018-08-20T08:42:15Z</time>
      </trkpt>
      <trkpt lat="45.90718" lon="4.87988">
        <ele>290</ele>
        <time>2018-08-20T08:42:16Z</time>
      </trkpt>
      <trkpt lat="45.90722" lon="4.87989">
        <ele>289</ele>
        <time>2018-08-20T08:42:17Z</time>
      </trkpt>
      <trkpt lat="45.90728" lon="4.87989">
        <ele>289</ele>
        <time>2018-08-20T08:42:18Z</time>
      </trkpt>
      <trkpt lat="45.90732" lon="4.87991">
        <ele>289</ele>
        <time>2018-08-20T08:42:19Z</time>
      </trkpt>
      <trkpt lat="45.90737" lon="4.87992">
        <ele>289</ele>
        <time>2018-08-20T08:42:20Z</time>
      </trkpt>
      <trkpt lat="45.90741" lon="4.87994">
        <ele>289</ele>
        <time>2018-08-20T08:42:21Z</time>
      </trkpt>
      <trkpt lat="45.90746" lon="4.87996">
        <ele>289</ele>
        <time>2018-08-20T08:42:22Z</time>
      </trkpt>
      <trkpt lat="45.9075" lon="4.87998">
        <ele>289</ele>
        <time>2018-08-20T08:42:23Z</time>
      </trkpt>
      <trkpt lat="45.90754" lon="4.88">
        <ele>289</ele>
        <time>2018-08-20T08:42:24Z</time>
      </trkpt>
      <trkpt lat="45.90758" lon="4.88002">
        <ele>289</ele>
        <time>2018-08-20T08:42:25Z</time>
      </trkpt>
      <trkpt lat="45.90767" lon="4.88006">
        <ele>290</ele>
        <time>2018-08-20T08:42:27Z</time>
      </trkpt>
      <trkpt lat="45.90771" lon="4.88007">
        <ele>290</ele>
        <time>2018-08-20T08:42:28Z</time>
      </trkpt>
      <trkpt lat="45.90779" lon="4.8801">
        <ele>290</ele>
        <time>2018-08-20T08:42:30Z</time>
      </trkpt>
      <trkpt lat="45.90784" lon="4.88012">
        <ele>290</ele>
        <time>2018-08-20T08:42:31Z</time>
      </trkpt>
      <trkpt lat="45.90789" lon="4.88014">
        <ele>290</ele>
        <time>2018-08-20T08:42:32Z</time>
      </trkpt>
      <trkpt lat="45.90794" lon="4.88016">
        <ele>290</ele>
        <time>2018-08-20T08:42:33Z</time>
      </trkpt>
      <trkpt lat="45.908" lon="4.88018">
        <ele>290</ele>
        <time>2018-08-20T08:42:34Z</time>
      </trkpt>
      <trkpt lat="45.90805" lon="4.8802">
        <ele>290</ele>
        <time>2018-08-20T08:42:35Z</time>
      </trkpt>
      <trkpt lat="45.9081" lon="4.88021">
        <ele>290</ele>
        <time>2018-08-20T08:42:36Z</time>
      </trkpt>
      <trkpt lat="45.90815" lon="4.88023">
        <ele>290</ele>
        <time>2018-08-20T08:42:37Z</time>
      </trkpt>
      <trkpt lat="45.9082" lon="4.88026">
        <ele>291</ele>
        <time>2018-08-20T08:42:38Z</time>
      </trkpt>
      <trkpt lat="45.90825" lon="4.88028">
        <ele>291</ele>
        <time>2018-08-20T08:42:39Z</time>
      </trkpt>
      <trkpt lat="45.90833" lon="4.88031">
        <ele>291</ele>
        <time>2018-08-20T08:42:41Z</time>
      </trkpt>
      <trkpt lat="45.90838" lon="4.88031">
        <ele>291</ele>
        <time>2018-08-20T08:42:42Z</time>
      </trkpt>
      <trkpt lat="45.90845" lon="4.88034">
        <ele>291</ele>
        <time>2018-08-20T08:42:44Z</time>
      </trkpt>
      <trkpt lat="45.90849" lon="4.88035">
        <ele>290</ele>
        <time>2018-08-20T08:42:45Z</time>
      </trkpt>
      <trkpt lat="45.90857" lon="4.88039">
        <ele>290</ele>
        <time>2018-08-20T08:42:47Z</time>
      </trkpt>
      <trkpt lat="45.90861" lon="4.88041">
        <ele>290</ele>
        <time>2018-08-20T08:42:48Z</time>
      </trkpt>
      <trkpt lat="45.90866" lon="4.8804">
        <ele>290</ele>
        <time>2018-08-20T08:42:49Z</time>
      </trkpt>
      <trkpt lat="45.90871" lon="4.88042">
        <ele>290</ele>
        <time>2018-08-20T08:42:50Z</time>
      </trkpt>
      <trkpt lat="45.90876" lon="4.88043">
        <ele>290</ele>
        <time>2018-08-20T08:42:51Z</time>
      </trkpt>
      <trkpt lat="45.90881" lon="4.88046">
        <ele>290</ele>
        <time>2018-08-20T08:42:52Z</time>
      </trkpt>
      <trkpt lat="45.90886" lon="4.88047">
        <ele>290</ele>
        <time>2018-08-20T08:42:53Z</time>
      </trkpt>
      <trkpt lat="45.90891" lon="4.88048">
        <ele>290</ele>
        <time>2018-08-20T08:42:54Z</time>
      </trkpt>
      <trkpt lat="45.90896" lon="4.88051">
        <ele>290</ele>
        <time>2018-08-20T08:42:55Z</time>
      </trkpt>
      <trkpt lat="45.90901" lon="4.88053">
        <ele>290</ele>
        <time>2018-08-20T08:42:56Z</time>
      </trkpt>
      <trkpt lat="45.90906" lon="4.88053">
        <ele>290</ele>
        <time>2018-08-20T08:42:57Z</time>
      </trkpt>
      <trkpt lat="45.90911" lon="4.88054">
        <ele>290</ele>
        <time>2018-08-20T08:42:58Z</time>
      </trkpt>
      <trkpt lat="45.90917" lon="4.88056">
        <ele>290</ele>
        <time>2018-08-20T08:42:59Z</time>
      </trkpt>
      <trkpt lat="45.90921" lon="4.88058">
        <ele>290</ele>
        <time>2018-08-20T08:43:00Z</time>
      </trkpt>
      <trkpt lat="45.90926" lon="4.88059">
        <ele>290</ele>
        <time>2018-08-20T08:43:01Z</time>
      </trkpt>
      <trkpt lat="45.90931" lon="4.88061">
        <ele>290</ele>
        <time>2018-08-20T08:43:02Z</time>
      </trkpt>
      <trkpt lat="45.90936" lon="4.88063">
        <ele>290</ele>
        <time>2018-08-20T08:43:03Z</time>
      </trkpt>
      <trkpt lat="45.9094" lon="4.88065">
        <ele>290</ele>
        <time>2018-08-20T08:43:04Z</time>
      </trkpt>
      <trkpt lat="45.90945" lon="4.88067">
        <ele>290</ele>
        <time>2018-08-20T08:43:05Z</time>
      </trkpt>
      <trkpt lat="45.90951" lon="4.8807">
        <ele>290</ele>
        <time>2018-08-20T08:43:06Z</time>
      </trkpt>
      <trkpt lat="45.90955" lon="4.88072">
        <ele>290</ele>
        <time>2018-08-20T08:43:07Z</time>
      </trkpt>
      <trkpt lat="45.9096" lon="4.88074">
        <ele>290</ele>
        <time>2018-08-20T08:43:08Z</time>
      </trkpt>
      <trkpt lat="45.90965" lon="4.88076">
        <ele>290</ele>
        <time>2018-08-20T08:43:09Z</time>
      </trkpt>
      <trkpt lat="45.9097" lon="4.88079">
        <ele>290</ele>
        <time>2018-08-20T08:43:10Z</time>
      </trkpt>
      <trkpt lat="45.90976" lon="4.8808">
        <ele>290</ele>
        <time>2018-08-20T08:43:11Z</time>
      </trkpt>
      <trkpt lat="45.90981" lon="4.88082">
        <ele>290</ele>
        <time>2018-08-20T08:43:12Z</time>
      </trkpt>
      <trkpt lat="45.90986" lon="4.88083">
        <ele>290</ele>
        <time>2018-08-20T08:43:13Z</time>
      </trkpt>
      <trkpt lat="45.90991" lon="4.88084">
        <ele>290</ele>
        <time>2018-08-20T08:43:14Z</time>
      </trkpt>
      <trkpt lat="45.90995" lon="4.88087">
        <ele>290</ele>
        <time>2018-08-20T08:43:15Z</time>
      </trkpt>
      <trkpt lat="45.91001" lon="4.88089">
        <ele>290</ele>
        <time>2018-08-20T08:43:16Z</time>
      </trkpt>
      <trkpt lat="45.91005" lon="4.88093">
        <ele>289</ele>
        <time>2018-08-20T08:43:17Z</time>
      </trkpt>
      <trkpt lat="45.9101" lon="4.88096">
        <ele>289</ele>
        <time>2018-08-20T08:43:18Z</time>
      </trkpt>
      <trkpt lat="45.91016" lon="4.88097">
        <ele>289</ele>
        <time>2018-08-20T08:43:19Z</time>
      </trkpt>
      <trkpt lat="45.91021" lon="4.88098">
        <ele>288</ele>
        <time>2018-08-20T08:43:20Z</time>
      </trkpt>
      <trkpt lat="45.91026" lon="4.881">
        <ele>288</ele>
        <time>2018-08-20T08:43:21Z</time>
      </trkpt>
      <trkpt lat="45.91031" lon="4.88102">
        <ele>288</ele>
        <time>2018-08-20T08:43:22Z</time>
      </trkpt>
      <trkpt lat="45.91037" lon="4.88102">
        <ele>288</ele>
        <time>2018-08-20T08:43:23Z</time>
      </trkpt>
      <trkpt lat="45.91041" lon="4.88105">
        <ele>288</ele>
        <time>2018-08-20T08:43:24Z</time>
      </trkpt>
      <trkpt lat="45.91046" lon="4.88107">
        <ele>288</ele>
        <time>2018-08-20T08:43:25Z</time>
      </trkpt>
      <trkpt lat="45.91051" lon="4.88109">
        <ele>288</ele>
        <time>2018-08-20T08:43:26Z</time>
      </trkpt>
      <trkpt lat="45.91057" lon="4.88111">
        <ele>288</ele>
        <time>2018-08-20T08:43:27Z</time>
      </trkpt>
      <trkpt lat="45.91062" lon="4.88113">
        <ele>287</ele>
        <time>2018-08-20T08:43:28Z</time>
      </trkpt>
      <trkpt lat="45.91067" lon="4.88114">
        <ele>287</ele>
        <time>2018-08-20T08:43:29Z</time>
      </trkpt>
      <trkpt lat="45.91073" lon="4.88116">
        <ele>287</ele>
        <time>2018-08-20T08:43:30Z</time>
      </trkpt>
      <trkpt lat="45.91078" lon="4.88118">
        <ele>287</ele>
        <time>2018-08-20T08:43:31Z</time>
      </trkpt>
      <trkpt lat="45.91084" lon="4.88119">
        <ele>285</ele>
        <time>2018-08-20T08:43:32Z</time>
      </trkpt>
      <trkpt lat="45.9109" lon="4.88122">
        <ele>285</ele>
        <time>2018-08-20T08:43:33Z</time>
      </trkpt>
      <trkpt lat="45.91095" lon="4.88126">
        <ele>285</ele>
        <time>2018-08-20T08:43:34Z</time>
      </trkpt>
      <trkpt lat="45.91101" lon="4.88128">
        <ele>285</ele>
        <time>2018-08-20T08:43:35Z</time>
      </trkpt>
      <trkpt lat="45.91107" lon="4.88131">
        <ele>285</ele>
        <time>2018-08-20T08:43:36Z</time>
      </trkpt>
      <trkpt lat="45.91113" lon="4.88133">
        <ele>285</ele>
        <time>2018-08-20T08:43:37Z</time>
      </trkpt>
      <trkpt lat="45.91121" lon="4.88135">
        <ele>285</ele>
        <time>2018-08-20T08:43:38Z</time>
      </trkpt>
      <trkpt lat="45.91127" lon="4.88137">
        <ele>285</ele>
        <time>2018-08-20T08:43:39Z</time>
      </trkpt>
      <trkpt lat="45.91133" lon="4.8814">
        <ele>284</ele>
        <time>2018-08-20T08:43:40Z</time>
      </trkpt>
      <trkpt lat="45.9114" lon="4.88141">
        <ele>284</ele>
        <time>2018-08-20T08:43:41Z</time>
      </trkpt>
      <trkpt lat="45.91147" lon="4.88142">
        <ele>284</ele>
        <time>2018-08-20T08:43:42Z</time>
      </trkpt>
      <trkpt lat="45.91153" lon="4.88145">
        <ele>284</ele>
        <time>2018-08-20T08:43:43Z</time>
      </trkpt>
      <trkpt lat="45.9116" lon="4.88147">
        <ele>284</ele>
        <time>2018-08-20T08:43:44Z</time>
      </trkpt>
      <trkpt lat="45.91168" lon="4.88149">
        <ele>282</ele>
        <time>2018-08-20T08:43:45Z</time>
      </trkpt>
      <trkpt lat="45.91174" lon="4.88151">
        <ele>282</ele>
        <time>2018-08-20T08:43:46Z</time>
      </trkpt>
      <trkpt lat="45.91181" lon="4.88154">
        <ele>282</ele>
        <time>2018-08-20T08:43:47Z</time>
      </trkpt>
      <trkpt lat="45.91187" lon="4.88155">
        <ele>282</ele>
        <time>2018-08-20T08:43:48Z</time>
      </trkpt>
      <trkpt lat="45.91194" lon="4.88157">
        <ele>282</ele>
        <time>2018-08-20T08:43:49Z</time>
      </trkpt>
      <trkpt lat="45.91201" lon="4.8816">
        <ele>282</ele>
        <time>2018-08-20T08:43:50Z</time>
      </trkpt>
      <trkpt lat="45.91208" lon="4.88162">
        <ele>281</ele>
        <time>2018-08-20T08:43:51Z</time>
      </trkpt>
      <trkpt lat="45.91214" lon="4.88164">
        <ele>281</ele>
        <time>2018-08-20T08:43:52Z</time>
      </trkpt>
      <trkpt lat="45.91221" lon="4.88166">
        <ele>281</ele>
        <time>2018-08-20T08:43:53Z</time>
      </trkpt>
      <trkpt lat="45.91227" lon="4.88168">
        <ele>281</ele>
        <time>2018-08-20T08:43:54Z</time>
      </trkpt>
      <trkpt lat="45.91232" lon="4.8817">
        <ele>281</ele>
        <time>2018-08-20T08:43:55Z</time>
      </trkpt>
      <trkpt lat="45.91238" lon="4.88172">
        <ele>281</ele>
        <time>2018-08-20T08:43:56Z</time>
      </trkpt>
      <trkpt lat="45.91243" lon="4.88174">
        <ele>281</ele>
        <time>2018-08-20T08:43:57Z</time>
      </trkpt>
      <trkpt lat="45.91248" lon="4.88176">
        <ele>281</ele>
        <time>2018-08-20T08:43:58Z</time>
      </trkpt>
      <trkpt lat="45.91253" lon="4.88178">
        <ele>281</ele>
        <time>2018-08-20T08:43:59Z</time>
      </trkpt>
      <trkpt lat="45.91258" lon="4.88181">
        <ele>281</ele>
        <time>2018-08-20T08:44:00Z</time>
      </trkpt>
      <trkpt lat="45.91262" lon="4.88183">
        <ele>281</ele>
        <time>2018-08-20T08:44:01Z</time>
      </trkpt>
      <trkpt lat="45.91266" lon="4.88185">
        <ele>281</ele>
        <time>2018-08-20T08:44:02Z</time>
      </trkpt>
      <trkpt lat="45.91271" lon="4.88187">
        <ele>281</ele>
        <time>2018-08-20T08:44:03Z</time>
      </trkpt>
      <trkpt lat="45.91276" lon="4.88188">
        <ele>281</ele>
        <time>2018-08-20T08:44:04Z</time>
      </trkpt>
      <trkpt lat="45.9128" lon="4.8819">
        <ele>281</ele>
        <time>2018-08-20T08:44:05Z</time>
      </trkpt>
      <trkpt lat="45.91286" lon="4.8819">
        <ele>281</ele>
        <time>2018-08-20T08:44:06Z</time>
      </trkpt>
      <trkpt lat="45.91291" lon="4.88192">
        <ele>281</ele>
        <time>2018-08-20T08:44:07Z</time>
      </trkpt>
      <trkpt lat="45.91296" lon="4.88193">
        <ele>281</ele>
        <time>2018-08-20T08:44:08Z</time>
      </trkpt>
      <trkpt lat="45.91301" lon="4.88195">
        <ele>281</ele>
        <time>2018-08-20T08:44:09Z</time>
      </trkpt>
      <trkpt lat="45.91306" lon="4.88197">
        <ele>281</ele>
        <time>2018-08-20T08:44:10Z</time>
      </trkpt>
      <trkpt lat="45.91311" lon="4.88198">
        <ele>281</ele>
        <time>2018-08-20T08:44:11Z</time>
      </trkpt>
      <trkpt lat="45.91315" lon="4.88201">
        <ele>281</ele>
        <time>2018-08-20T08:44:12Z</time>
      </trkpt>
      <trkpt lat="45.9132" lon="4.88203">
        <ele>281</ele>
        <time>2018-08-20T08:44:13Z</time>
      </trkpt>
      <trkpt lat="45.91324" lon="4.88204">
        <ele>281</ele>
        <time>2018-08-20T08:44:14Z</time>
      </trkpt>
      <trkpt lat="45.9133" lon="4.88206">
        <ele>281</ele>
        <time>2018-08-20T08:44:15Z</time>
      </trkpt>
      <trkpt lat="45.91335" lon="4.88207">
        <ele>281</ele>
        <time>2018-08-20T08:44:16Z</time>
      </trkpt>
      <trkpt lat="45.91341" lon="4.88208">
        <ele>281</ele>
        <time>2018-08-20T08:44:17Z</time>
      </trkpt>
      <trkpt lat="45.91346" lon="4.8821">
        <ele>281</ele>
        <time>2018-08-20T08:44:18Z</time>
      </trkpt>
      <trkpt lat="45.91351" lon="4.88211">
        <ele>281</ele>
        <time>2018-08-20T08:44:19Z</time>
      </trkpt>
      <trkpt lat="45.91355" lon="4.88214">
        <ele>281</ele>
        <time>2018-08-20T08:44:20Z</time>
      </trkpt>
      <trkpt lat="45.91363" lon="4.88218">
        <ele>281</ele>
        <time>2018-08-20T08:44:22Z</time>
      </trkpt>
      <trkpt lat="45.91368" lon="4.88219">
        <ele>281</ele>
        <time>2018-08-20T08:44:23Z</time>
      </trkpt>
      <trkpt lat="45.91372" lon="4.8822">
        <ele>281</ele>
        <time>2018-08-20T08:44:24Z</time>
      </trkpt>
      <trkpt lat="45.91377" lon="4.88222">
        <ele>281</ele>
        <time>2018-08-20T08:44:25Z</time>
      </trkpt>
      <trkpt lat="45.91382" lon="4.88223">
        <ele>281</ele>
        <time>2018-08-20T08:44:26Z</time>
      </trkpt>
      <trkpt lat="45.91388" lon="4.88223">
        <ele>281</ele>
        <time>2018-08-20T08:44:27Z</time>
      </trkpt>
      <trkpt lat="45.91393" lon="4.88224">
        <ele>281</ele>
        <time>2018-08-20T08:44:28Z</time>
      </trkpt>
      <trkpt lat="45.91398" lon="4.88226">
        <ele>281</ele>
        <time>2018-08-20T08:44:29Z</time>
      </trkpt>
      <trkpt lat="45.91403" lon="4.88227">
        <ele>282</ele>
        <time>2018-08-20T08:44:30Z</time>
      </trkpt>
      <trkpt lat="45.91408" lon="4.88229">
        <ele>282</ele>
        <time>2018-08-20T08:44:31Z</time>
      </trkpt>
      <trkpt lat="45.91412" lon="4.8823">
        <ele>282</ele>
        <time>2018-08-20T08:44:32Z</time>
      </trkpt>
      <trkpt lat="45.91417" lon="4.88234">
        <ele>282</ele>
        <time>2018-08-20T08:44:33Z</time>
      </trkpt>
      <trkpt lat="45.91425" lon="4.88237">
        <ele>282</ele>
        <time>2018-08-20T08:44:35Z</time>
      </trkpt>
      <trkpt lat="45.91429" lon="4.88239">
        <ele>282</ele>
        <time>2018-08-20T08:44:36Z</time>
      </trkpt>
      <trkpt lat="45.91434" lon="4.8824">
        <ele>282</ele>
        <time>2018-08-20T08:44:37Z</time>
      </trkpt>
      <trkpt lat="45.91439" lon="4.88243">
        <ele>282</ele>
        <time>2018-08-20T08:44:38Z</time>
      </trkpt>
      <trkpt lat="45.91447" lon="4.88247">
        <ele>282</ele>
        <time>2018-08-20T08:44:40Z</time>
      </trkpt>
      <trkpt lat="45.91452" lon="4.88248">
        <ele>283</ele>
        <time>2018-08-20T08:44:41Z</time>
      </trkpt>
      <trkpt lat="45.91457" lon="4.88248">
        <ele>283</ele>
        <time>2018-08-20T08:44:42Z</time>
      </trkpt>
      <trkpt lat="45.91461" lon="4.88251">
        <ele>283</ele>
        <time>2018-08-20T08:44:43Z</time>
      </trkpt>
      <trkpt lat="45.91469" lon="4.88254">
        <ele>283</ele>
        <time>2018-08-20T08:44:45Z</time>
      </trkpt>
      <trkpt lat="45.91473" lon="4.88255">
        <ele>283</ele>
        <time>2018-08-20T08:44:46Z</time>
      </trkpt>
      <trkpt lat="45.91478" lon="4.88257">
        <ele>284</ele>
        <time>2018-08-20T08:44:47Z</time>
      </trkpt>
      <trkpt lat="45.91483" lon="4.88259">
        <ele>284</ele>
        <time>2018-08-20T08:44:48Z</time>
      </trkpt>
      <trkpt lat="45.91489" lon="4.8826">
        <ele>284</ele>
        <time>2018-08-20T08:44:49Z</time>
      </trkpt>
      <trkpt lat="45.91494" lon="4.88262">
        <ele>284</ele>
        <time>2018-08-20T08:44:50Z</time>
      </trkpt>
      <trkpt lat="45.91498" lon="4.88266">
        <ele>284</ele>
        <time>2018-08-20T08:44:51Z</time>
      </trkpt>
      <trkpt lat="45.91504" lon="4.88266">
        <ele>284</ele>
        <time>2018-08-20T08:44:52Z</time>
      </trkpt>
      <trkpt lat="45.91512" lon="4.88269">
        <ele>284</ele>
        <time>2018-08-20T08:44:54Z</time>
      </trkpt>
      <trkpt lat="45.91517" lon="4.88269">
        <ele>284</ele>
        <time>2018-08-20T08:44:55Z</time>
      </trkpt>
      <trkpt lat="45.91521" lon="4.88271">
        <ele>284</ele>
        <time>2018-08-20T08:44:56Z</time>
      </trkpt>
      <trkpt lat="45.91528" lon="4.88273">
        <ele>284</ele>
        <time>2018-08-20T08:44:57Z</time>
      </trkpt>
      <trkpt lat="45.91533" lon="4.88274">
        <ele>283</ele>
        <time>2018-08-20T08:44:58Z</time>
      </trkpt>
      <trkpt lat="45.91537" lon="4.88277">
        <ele>283</ele>
        <time>2018-08-20T08:44:59Z</time>
      </trkpt>
      <trkpt lat="45.91545" lon="4.88279">
        <ele>283</ele>
        <time>2018-08-20T08:45:01Z</time>
      </trkpt>
      <trkpt lat="45.91549" lon="4.8828">
        <ele>283</ele>
        <time>2018-08-20T08:45:02Z</time>
      </trkpt>
      <trkpt lat="45.91554" lon="4.88283">
        <ele>283</ele>
        <time>2018-08-20T08:45:03Z</time>
      </trkpt>
      <trkpt lat="45.91559" lon="4.88285">
        <ele>283</ele>
        <time>2018-08-20T08:45:04Z</time>
      </trkpt>
      <trkpt lat="45.91565" lon="4.88286">
        <ele>283</ele>
        <time>2018-08-20T08:45:05Z</time>
      </trkpt>
      <trkpt lat="45.9157" lon="4.88287">
        <ele>283</ele>
        <time>2018-08-20T08:45:06Z</time>
      </trkpt>
      <trkpt lat="45.91574" lon="4.88291">
        <ele>283</ele>
        <time>2018-08-20T08:45:07Z</time>
      </trkpt>
      <trkpt lat="45.91577" lon="4.88295">
        <ele>283</ele>
        <time>2018-08-20T08:45:08Z</time>
      </trkpt>
      <trkpt lat="45.91582" lon="4.88299">
        <ele>283</ele>
        <time>2018-08-20T08:45:09Z</time>
      </trkpt>
      <trkpt lat="45.91586" lon="4.88303">
        <ele>282</ele>
        <time>2018-08-20T08:45:10Z</time>
      </trkpt>
      <trkpt lat="45.91593" lon="4.88303">
        <ele>282</ele>
        <time>2018-08-20T08:45:11Z</time>
      </trkpt>
      <trkpt lat="45.91596" lon="4.88308">
        <ele>282</ele>
        <time>2018-08-20T08:45:12Z</time>
      </trkpt>
      <trkpt lat="45.91601" lon="4.88309">
        <ele>282</ele>
        <time>2018-08-20T08:45:13Z</time>
      </trkpt>
      <trkpt lat="45.91607" lon="4.88309">
        <ele>282</ele>
        <time>2018-08-20T08:45:14Z</time>
      </trkpt>
      <trkpt lat="45.91612" lon="4.88312">
        <ele>281</ele>
        <time>2018-08-20T08:45:15Z</time>
      </trkpt>
      <trkpt lat="45.91619" lon="4.88313">
        <ele>281</ele>
        <time>2018-08-20T08:45:16Z</time>
      </trkpt>
      <trkpt lat="45.91626" lon="4.88314">
        <ele>281</ele>
        <time>2018-08-20T08:45:17Z</time>
      </trkpt>
      <trkpt lat="45.91631" lon="4.88317">
        <ele>281</ele>
        <time>2018-08-20T08:45:18Z</time>
      </trkpt>
      <trkpt lat="45.91636" lon="4.88319">
        <ele>281</ele>
        <time>2018-08-20T08:45:19Z</time>
      </trkpt>
      <trkpt lat="45.91643" lon="4.88321">
        <ele>281</ele>
        <time>2018-08-20T08:45:20Z</time>
      </trkpt>
      <trkpt lat="45.91649" lon="4.88322">
        <ele>280</ele>
        <time>2018-08-20T08:45:21Z</time>
      </trkpt>
      <trkpt lat="45.91656" lon="4.88324">
        <ele>280</ele>
        <time>2018-08-20T08:45:22Z</time>
      </trkpt>
      <trkpt lat="45.91661" lon="4.88326">
        <ele>280</ele>
        <time>2018-08-20T08:45:23Z</time>
      </trkpt>
      <trkpt lat="45.91667" lon="4.88327">
        <ele>280</ele>
        <time>2018-08-20T08:45:24Z</time>
      </trkpt>
      <trkpt lat="45.91673" lon="4.8833">
        <ele>279</ele>
        <time>2018-08-20T08:45:25Z</time>
      </trkpt>
      <trkpt lat="45.91679" lon="4.88331">
        <ele>279</ele>
        <time>2018-08-20T08:45:26Z</time>
      </trkpt>
      <trkpt lat="45.91685" lon="4.88333">
        <ele>279</ele>
        <time>2018-08-20T08:45:27Z</time>
      </trkpt>
      <trkpt lat="45.91691" lon="4.88333">
        <ele>279</ele>
        <time>2018-08-20T08:45:28Z</time>
      </trkpt>
      <trkpt lat="45.91698" lon="4.88335">
        <ele>279</ele>
        <time>2018-08-20T08:45:29Z</time>
      </trkpt>
      <trkpt lat="45.91703" lon="4.88339">
        <ele>279</ele>
        <time>2018-08-20T08:45:30Z</time>
      </trkpt>
      <trkpt lat="45.91707" lon="4.88343">
        <ele>279</ele>
        <time>2018-08-20T08:45:31Z</time>
      </trkpt>
      <trkpt lat="45.91714" lon="4.88343">
        <ele>279</ele>
        <time>2018-08-20T08:45:32Z</time>
      </trkpt>
      <trkpt lat="45.9172" lon="4.88344">
        <ele>279</ele>
        <time>2018-08-20T08:45:33Z</time>
      </trkpt>
      <trkpt lat="45.91726" lon="4.88347">
        <ele>278</ele>
        <time>2018-08-20T08:45:34Z</time>
      </trkpt>
      <trkpt lat="45.91733" lon="4.88349">
        <ele>278</ele>
        <time>2018-08-20T08:45:35Z</time>
      </trkpt>
      <trkpt lat="45.91739" lon="4.88351">
        <ele>278</ele>
        <time>2018-08-20T08:45:36Z</time>
      </trkpt>
      <trkpt lat="45.91744" lon="4.88355">
        <ele>278</ele>
        <time>2018-08-20T08:45:37Z</time>
      </trkpt>
      <trkpt lat="45.91749" lon="4.88358">
        <ele>278</ele>
        <time>2018-08-20T08:45:38Z</time>
      </trkpt>
      <trkpt lat="45.91754" lon="4.88361">
        <ele>277</ele>
        <time>2018-08-20T08:45:39Z</time>
      </trkpt>
      <trkpt lat="45.9176" lon="4.88363">
        <ele>277</ele>
        <time>2018-08-20T08:45:40Z</time>
      </trkpt>
      <trkpt lat="45.91767" lon="4.88363">
        <ele>277</ele>
        <time>2018-08-20T08:45:41Z</time>
      </trkpt>
      <trkpt lat="45.91773" lon="4.88365">
        <ele>276</ele>
        <time>2018-08-20T08:45:42Z</time>
      </trkpt>
      <trkpt lat="45.91778" lon="4.88367">
        <ele>276</ele>
        <time>2018-08-20T08:45:43Z</time>
      </trkpt>
      <trkpt lat="45.91784" lon="4.88368">
        <ele>276</ele>
        <time>2018-08-20T08:45:44Z</time>
      </trkpt>
      <trkpt lat="45.9179" lon="4.8837">
        <ele>276</ele>
        <time>2018-08-20T08:45:45Z</time>
      </trkpt>
      <trkpt lat="45.91799" lon="4.88371">
        <ele>276</ele>
        <time>2018-08-20T08:45:46Z</time>
      </trkpt>
      <trkpt lat="45.91806" lon="4.8837">
        <ele>276</ele>
        <time>2018-08-20T08:45:47Z</time>
      </trkpt>
      <trkpt lat="45.91811" lon="4.88373">
        <ele>276</ele>
        <time>2018-08-20T08:45:48Z</time>
      </trkpt>
      <trkpt lat="45.91817" lon="4.88375">
        <ele>276</ele>
        <time>2018-08-20T08:45:49Z</time>
      </trkpt>
      <trkpt lat="45.91823" lon="4.88374">
        <ele>276</ele>
        <time>2018-08-20T08:45:50Z</time>
      </trkpt>
      <trkpt lat="45.91827" lon="4.88378">
        <ele>276</ele>
        <time>2018-08-20T08:45:51Z</time>
      </trkpt>
      <trkpt lat="45.91831" lon="4.88379">
        <ele>276</ele>
        <time>2018-08-20T08:45:52Z</time>
      </trkpt>
      <trkpt lat="45.91837" lon="4.88378">
        <ele>275</ele>
        <time>2018-08-20T08:45:53Z</time>
      </trkpt>
      <trkpt lat="45.91841" lon="4.8838">
        <ele>275</ele>
        <time>2018-08-20T08:45:54Z</time>
      </trkpt>
      <trkpt lat="45.91846" lon="4.88379">
        <ele>275</ele>
        <time>2018-08-20T08:45:55Z</time>
      </trkpt>
      <trkpt lat="45.91851" lon="4.88378">
        <ele>275</ele>
        <time>2018-08-20T08:45:56Z</time>
      </trkpt>
      <trkpt lat="45.91859" lon="4.88376">
        <ele>275</ele>
        <time>2018-08-20T08:45:58Z</time>
      </trkpt>
      <trkpt lat="45.91865" lon="4.88375">
        <ele>275</ele>
        <time>2018-08-20T08:45:59Z</time>
      </trkpt>
      <trkpt lat="45.91867" lon="4.88375">
        <ele>275</ele>
        <time>2018-08-20T08:46:00Z</time>
      </trkpt>
      <trkpt lat="45.91876" lon="4.88367">
        <ele>275</ele>
        <time>2018-08-20T08:46:01Z</time>
      </trkpt>
      <trkpt lat="45.91882" lon="4.88365">
        <ele>275</ele>
        <time>2018-08-20T08:46:03Z</time>
      </trkpt>
      <trkpt lat="45.91886" lon="4.88362">
        <ele>276</ele>
        <time>2018-08-20T08:46:04Z</time>
      </trkpt>
      <trkpt lat="45.9189" lon="4.8836">
        <ele>276</ele>
        <time>2018-08-20T08:46:05Z</time>
      </trkpt>
      <trkpt lat="45.91895" lon="4.88358">
        <ele>276</ele>
        <time>2018-08-20T08:46:06Z</time>
      </trkpt>
      <trkpt lat="45.919" lon="4.88356">
        <ele>276</ele>
        <time>2018-08-20T08:46:07Z</time>
      </trkpt>
      <trkpt lat="45.91903" lon="4.88355">
        <ele>276</ele>
        <time>2018-08-20T08:46:08Z</time>
      </trkpt>
      <trkpt lat="45.91908" lon="4.88353">
        <ele>276</ele>
        <time>2018-08-20T08:46:09Z</time>
      </trkpt>
      <trkpt lat="45.91914" lon="4.8835">
        <ele>276</ele>
        <time>2018-08-20T08:46:10Z</time>
      </trkpt>
      <trkpt lat="45.91919" lon="4.88346">
        <ele>277</ele>
        <time>2018-08-20T08:46:11Z</time>
      </trkpt>
      <trkpt lat="45.91923" lon="4.88346">
        <ele>277</ele>
        <time>2018-08-20T08:46:12Z</time>
      </trkpt>
      <trkpt lat="45.91928" lon="4.88344">
        <ele>277</ele>
        <time>2018-08-20T08:46:13Z</time>
      </trkpt>
      <trkpt lat="45.91933" lon="4.88343">
        <ele>277</ele>
        <time>2018-08-20T08:46:14Z</time>
      </trkpt>
      <trkpt lat="45.91941" lon="4.88339">
        <ele>277</ele>
        <time>2018-08-20T08:46:16Z</time>
      </trkpt>
      <trkpt lat="45.91945" lon="4.88336">
        <ele>277</ele>
        <time>2018-08-20T08:46:17Z</time>
      </trkpt>
      <trkpt lat="45.91953" lon="4.88332">
        <ele>279</ele>
        <time>2018-08-20T08:46:19Z</time>
      </trkpt>
      <trkpt lat="45.91956" lon="4.8833">
        <ele>279</ele>
        <time>2018-08-20T08:46:20Z</time>
      </trkpt>
      <trkpt lat="45.9196" lon="4.88328">
        <ele>279</ele>
        <time>2018-08-20T08:46:21Z</time>
      </trkpt>
      <trkpt lat="45.91965" lon="4.88323">
        <ele>279</ele>
        <time>2018-08-20T08:46:22Z</time>
      </trkpt>
      <trkpt lat="45.91973" lon="4.88321">
        <ele>279</ele>
        <time>2018-08-20T08:46:25Z</time>
      </trkpt>
      <trkpt lat="45.91979" lon="4.88317">
        <ele>280</ele>
        <time>2018-08-20T08:46:26Z</time>
      </trkpt>
      <trkpt lat="45.91986" lon="4.88312">
        <ele>280</ele>
        <time>2018-08-20T08:46:28Z</time>
      </trkpt>
      <trkpt lat="45.91989" lon="4.88311">
        <ele>280</ele>
        <time>2018-08-20T08:46:29Z</time>
      </trkpt>
      <trkpt lat="45.91997" lon="4.88307">
        <ele>280</ele>
        <time>2018-08-20T08:46:33Z</time>
      </trkpt>
      <trkpt lat="45.91998" lon="4.88306">
        <ele>280</ele>
        <time>2018-08-20T08:46:34Z</time>
      </trkpt>
      <trkpt lat="45.92005" lon="4.88301">
        <ele>283</ele>
        <time>2018-08-20T08:46:37Z</time>
      </trkpt>
      <trkpt lat="45.92007" lon="4.883">
        <ele>284</ele>
        <time>2018-08-20T08:46:38Z</time>
      </trkpt>
      <trkpt lat="45.92014" lon="4.88295">
        <ele>284</ele>
        <time>2018-08-20T08:46:41Z</time>
      </trkpt>
      <trkpt lat="45.92016" lon="4.88294">
        <ele>284</ele>
        <time>2018-08-20T08:46:42Z</time>
      </trkpt>
      <trkpt lat="45.92024" lon="4.8829">
        <ele>284</ele>
        <time>2018-08-20T08:46:45Z</time>
      </trkpt>
      <trkpt lat="45.92026" lon="4.88289">
        <ele>285</ele>
        <time>2018-08-20T08:46:46Z</time>
      </trkpt>
      <trkpt lat="45.92033" lon="4.88284">
        <ele>285</ele>
        <time>2018-08-20T08:46:49Z</time>
      </trkpt>
      <trkpt lat="45.92036" lon="4.88283">
        <ele>285</ele>
        <time>2018-08-20T08:46:50Z</time>
      </trkpt>
      <trkpt lat="45.92044" lon="4.88279">
        <ele>285</ele>
        <time>2018-08-20T08:46:54Z</time>
      </trkpt>
      <trkpt lat="45.92046" lon="4.88278">
        <ele>286</ele>
        <time>2018-08-20T08:46:55Z</time>
      </trkpt>
      <trkpt lat="45.92054" lon="4.88273">
        <ele>286</ele>
        <time>2018-08-20T08:46:59Z</time>
      </trkpt>
      <trkpt lat="45.92056" lon="4.88272">
        <ele>286</ele>
        <time>2018-08-20T08:47:00Z</time>
      </trkpt>
      <trkpt lat="45.92063" lon="4.88268">
        <ele>287</ele>
        <time>2018-08-20T08:47:03Z</time>
      </trkpt>
      <trkpt lat="45.92065" lon="4.88267">
        <ele>287</ele>
        <time>2018-08-20T08:47:04Z</time>
      </trkpt>
      <trkpt lat="45.92074" lon="4.88263">
        <ele>288</ele>
        <time>2018-08-20T08:47:08Z</time>
      </trkpt>
      <trkpt lat="45.92075" lon="4.88262">
        <ele>288</ele>
        <time>2018-08-20T08:47:09Z</time>
      </trkpt>
      <trkpt lat="45.92083" lon="4.88257">
        <ele>289</ele>
        <time>2018-08-20T08:47:13Z</time>
      </trkpt>
      <trkpt lat="45.92085" lon="4.88255">
        <ele>290</ele>
        <time>2018-08-20T08:47:14Z</time>
      </trkpt>
      <trkpt lat="45.92092" lon="4.88248">
        <ele>291</ele>
        <time>2018-08-20T08:47:18Z</time>
      </trkpt>
      <trkpt lat="45.92094" lon="4.88246">
        <ele>291</ele>
        <time>2018-08-20T08:47:19Z</time>
      </trkpt>
      <trkpt lat="45.921" lon="4.8824">
        <ele>291</ele>
        <time>2018-08-20T08:47:22Z</time>
      </trkpt>
      <trkpt lat="45.92102" lon="4.88238">
        <ele>291</ele>
        <time>2018-08-20T08:47:23Z</time>
      </trkpt>
      <trkpt lat="45.92109" lon="4.88233">
        <ele>291</ele>
        <time>2018-08-20T08:47:26Z</time>
      </trkpt>
      <trkpt lat="45.92111" lon="4.88232">
        <ele>291</ele>
        <time>2018-08-20T08:47:27Z</time>
      </trkpt>
      <trkpt lat="45.92118" lon="4.88227">
        <ele>291</ele>
        <time>2018-08-20T08:47:30Z</time>
      </trkpt>
      <trkpt lat="45.9212" lon="4.88225">
        <ele>291</ele>
        <time>2018-08-20T08:47:31Z</time>
      </trkpt>
      <trkpt lat="45.92127" lon="4.8822">
        <ele>292</ele>
        <time>2018-08-20T08:47:34Z</time>
      </trkpt>
      <trkpt lat="45.9213" lon="4.88218">
        <ele>292</ele>
        <time>2018-08-20T08:47:35Z</time>
      </trkpt>
      <trkpt lat="45.92135" lon="4.88215">
        <ele>292</ele>
        <time>2018-08-20T08:47:37Z</time>
      </trkpt>
      <trkpt lat="45.92145" lon="4.88208">
        <ele>292</ele>
        <time>2018-08-20T08:47:38Z</time>
      </trkpt>
      <trkpt lat="45.92149" lon="4.88207">
        <ele>292</ele>
        <time>2018-08-20T08:47:40Z</time>
      </trkpt>
      <trkpt lat="45.92156" lon="4.88204">
        <ele>292</ele>
        <time>2018-08-20T08:47:41Z</time>
      </trkpt>
      <trkpt lat="45.92164" lon="4.88204">
        <ele>292</ele>
        <time>2018-08-20T08:47:45Z</time>
      </trkpt>
      <trkpt lat="45.92166" lon="4.88204">
        <ele>292</ele>
        <time>2018-08-20T08:47:46Z</time>
      </trkpt>
      <trkpt lat="45.92174" lon="4.88205">
        <ele>293</ele>
        <time>2018-08-20T08:47:49Z</time>
      </trkpt>
      <trkpt lat="45.92177" lon="4.88205">
        <ele>293</ele>
        <time>2018-08-20T08:47:50Z</time>
      </trkpt>
      <trkpt lat="45.92187" lon="4.88205">
        <ele>293</ele>
        <time>2018-08-20T08:47:51Z</time>
      </trkpt>
      <trkpt lat="45.92191" lon="4.88205">
        <ele>293</ele>
        <time>2018-08-20T08:47:53Z</time>
      </trkpt>
      <trkpt lat="45.92197" lon="4.88204">
        <ele>293</ele>
        <time>2018-08-20T08:47:54Z</time>
      </trkpt>
      <trkpt lat="45.92206" lon="4.88204">
        <ele>293</ele>
        <time>2018-08-20T08:47:58Z</time>
      </trkpt>
      <trkpt lat="45.92208" lon="4.88204">
        <ele>293</ele>
        <time>2018-08-20T08:47:59Z</time>
      </trkpt>
      <trkpt lat="45.92216" lon="4.88205">
        <ele>293</ele>
        <time>2018-08-20T08:48:02Z</time>
      </trkpt>
      <trkpt lat="45.92219" lon="4.88205">
        <ele>293</ele>
        <time>2018-08-20T08:48:03Z</time>
      </trkpt>
      <trkpt lat="45.92228" lon="4.88205">
        <ele>294</ele>
        <time>2018-08-20T08:48:06Z</time>
      </trkpt>
      <trkpt lat="45.92239" lon="4.88205">
        <ele>294</ele>
        <time>2018-08-20T08:48:07Z</time>
      </trkpt>
      <trkpt lat="45.92247" lon="4.88205">
        <ele>294</ele>
        <time>2018-08-20T08:48:10Z</time>
      </trkpt>
      <trkpt lat="45.92252" lon="4.88205">
        <ele>294</ele>
        <time>2018-08-20T08:48:11Z</time>
      </trkpt>
      <trkpt lat="45.92258" lon="4.88204">
        <ele>294</ele>
        <time>2018-08-20T08:48:14Z</time>
      </trkpt>
      <trkpt lat="45.92266" lon="4.88204">
        <ele>294</ele>
        <time>2018-08-20T08:48:15Z</time>
      </trkpt>
      <trkpt lat="45.92272" lon="4.88204">
        <ele>294</ele>
        <time>2018-08-20T08:48:17Z</time>
      </trkpt>
      <trkpt lat="45.92278" lon="4.88205">
        <ele>294</ele>
        <time>2018-08-20T08:48:18Z</time>
      </trkpt>
      <trkpt lat="45.92285" lon="4.88205">
        <ele>294</ele>
        <time>2018-08-20T08:48:20Z</time>
      </trkpt>
      <trkpt lat="45.9229" lon="4.88205">
        <ele>294</ele>
        <time>2018-08-20T08:48:21Z</time>
      </trkpt>
      <trkpt lat="45.92298" lon="4.88204">
        <ele>294</ele>
        <time>2018-08-20T08:48:23Z</time>
      </trkpt>
      <trkpt lat="45.92301" lon="4.88204">
        <ele>294</ele>
        <time>2018-08-20T08:48:24Z</time>
      </trkpt>
      <trkpt lat="45.92309" lon="4.88205">
        <ele>294</ele>
        <time>2018-08-20T08:48:26Z</time>
      </trkpt>
      <trkpt lat="45.92314" lon="4.88205">
        <ele>294</ele>
        <time>2018-08-20T08:48:27Z</time>
      </trkpt>
      <trkpt lat="45.92322" lon="4.88205">
        <ele>293</ele>
        <time>2018-08-20T08:48:29Z</time>
      </trkpt>
      <trkpt lat="45.92326" lon="4.88205">
        <ele>293</ele>
        <time>2018-08-20T08:48:30Z</time>
      </trkpt>
      <trkpt lat="45.92335" lon="4.88205">
        <ele>292</ele>
        <time>2018-08-20T08:48:32Z</time>
      </trkpt>
      <trkpt lat="45.92339" lon="4.88205">
        <ele>292</ele>
        <time>2018-08-20T08:48:33Z</time>
      </trkpt>
      <trkpt lat="45.92345" lon="4.88203">
        <ele>292</ele>
        <time>2018-08-20T08:48:34Z</time>
      </trkpt>
      <trkpt lat="45.92349" lon="4.88204">
        <ele>292</ele>
        <time>2018-08-20T08:48:35Z</time>
      </trkpt>
      <trkpt lat="45.92353" lon="4.88204">
        <ele>292</ele>
        <time>2018-08-20T08:48:36Z</time>
      </trkpt>
      <trkpt lat="45.92359" lon="4.88203">
        <ele>292</ele>
        <time>2018-08-20T08:48:37Z</time>
      </trkpt>
      <trkpt lat="45.92364" lon="4.88203">
        <ele>292</ele>
        <time>2018-08-20T08:48:38Z</time>
      </trkpt>
      <trkpt lat="45.92368" lon="4.88203">
        <ele>292</ele>
        <time>2018-08-20T08:48:39Z</time>
      </trkpt>
      <trkpt lat="45.92373" lon="4.88202">
        <ele>292</ele>
        <time>2018-08-20T08:48:40Z</time>
      </trkpt>
      <trkpt lat="45.92378" lon="4.88203">
        <ele>292</ele>
        <time>2018-08-20T08:48:41Z</time>
      </trkpt>
      <trkpt lat="45.92383" lon="4.88203">
        <ele>292</ele>
        <time>2018-08-20T08:48:42Z</time>
      </trkpt>
      <trkpt lat="45.92388" lon="4.88202">
        <ele>292</ele>
        <time>2018-08-20T08:48:43Z</time>
      </trkpt>
      <trkpt lat="45.92393" lon="4.88201">
        <ele>292</ele>
        <time>2018-08-20T08:48:44Z</time>
      </trkpt>
      <trkpt lat="45.92398" lon="4.88201">
        <ele>292</ele>
        <time>2018-08-20T08:48:45Z</time>
      </trkpt>
      <trkpt lat="45.92407" lon="4.88202">
        <ele>292</ele>
        <time>2018-08-20T08:48:47Z</time>
      </trkpt>
      <trkpt lat="45.92412" lon="4.88202">
        <ele>292</ele>
        <time>2018-08-20T08:48:48Z</time>
      </trkpt>
      <trkpt lat="45.92417" lon="4.88203">
        <ele>292</ele>
        <time>2018-08-20T08:48:49Z</time>
      </trkpt>
      <trkpt lat="45.92421" lon="4.88203">
        <ele>291</ele>
        <time>2018-08-20T08:48:50Z</time>
      </trkpt>
      <trkpt lat="45.92426" lon="4.88204">
        <ele>291</ele>
        <time>2018-08-20T08:48:51Z</time>
      </trkpt>
      <trkpt lat="45.9243" lon="4.88204">
        <ele>291</ele>
        <time>2018-08-20T08:48:52Z</time>
      </trkpt>
      <trkpt lat="45.92435" lon="4.88204">
        <ele>291</ele>
        <time>2018-08-20T08:48:53Z</time>
      </trkpt>
      <trkpt lat="45.9244" lon="4.88204">
        <ele>291</ele>
        <time>2018-08-20T08:48:54Z</time>
      </trkpt>
      <trkpt lat="45.92444" lon="4.88204">
        <ele>291</ele>
        <time>2018-08-20T08:48:55Z</time>
      </trkpt>
      <trkpt lat="45.9245" lon="4.88203">
        <ele>291</ele>
        <time>2018-08-20T08:48:56Z</time>
      </trkpt>
      <trkpt lat="45.92456" lon="4.88202">
        <ele>291</ele>
        <time>2018-08-20T08:48:57Z</time>
      </trkpt>
      <trkpt lat="45.92461" lon="4.88203">
        <ele>291</ele>
        <time>2018-08-20T08:48:58Z</time>
      </trkpt>
      <trkpt lat="45.92469" lon="4.88203">
        <ele>291</ele>
        <time>2018-08-20T08:49:00Z</time>
      </trkpt>
      <trkpt lat="45.92474" lon="4.88202">
        <ele>291</ele>
        <time>2018-08-20T08:49:01Z</time>
      </trkpt>
      <trkpt lat="45.92478" lon="4.88202">
        <ele>291</ele>
        <time>2018-08-20T08:49:02Z</time>
      </trkpt>
      <trkpt lat="45.92484" lon="4.88202">
        <ele>291</ele>
        <time>2018-08-20T08:49:03Z</time>
      </trkpt>
      <trkpt lat="45.92489" lon="4.88199">
        <ele>291</ele>
        <time>2018-08-20T08:49:04Z</time>
      </trkpt>
      <trkpt lat="45.92495" lon="4.88198">
        <ele>291</ele>
        <time>2018-08-20T08:49:05Z</time>
      </trkpt>
      <trkpt lat="45.92501" lon="4.882">
        <ele>291</ele>
        <time>2018-08-20T08:49:06Z</time>
      </trkpt>
      <trkpt lat="45.92506" lon="4.88201">
        <ele>291</ele>
        <time>2018-08-20T08:49:07Z</time>
      </trkpt>
      <trkpt lat="45.92511" lon="4.88201">
        <ele>291</ele>
        <time>2018-08-20T08:49:08Z</time>
      </trkpt>
      <trkpt lat="45.92518" lon="4.882">
        <ele>291</ele>
        <time>2018-08-20T08:49:09Z</time>
      </trkpt>
      <trkpt lat="45.92522" lon="4.88201">
        <ele>291</ele>
        <time>2018-08-20T08:49:10Z</time>
      </trkpt>
      <trkpt lat="45.92527" lon="4.88201">
        <ele>291</ele>
        <time>2018-08-20T08:49:11Z</time>
      </trkpt>
      <trkpt lat="45.92534" lon="4.882">
        <ele>291</ele>
        <time>2018-08-20T08:49:12Z</time>
      </trkpt>
      <trkpt lat="45.9254" lon="4.88199">
        <ele>291</ele>
        <time>2018-08-20T08:49:13Z</time>
      </trkpt>
      <trkpt lat="45.92547" lon="4.882">
        <ele>291</ele>
        <time>2018-08-20T08:49:15Z</time>
      </trkpt>
      <trkpt lat="45.92551" lon="4.88201">
        <ele>291</ele>
        <time>2018-08-20T08:49:16Z</time>
      </trkpt>
      <trkpt lat="45.92559" lon="4.88203">
        <ele>291</ele>
        <time>2018-08-20T08:49:20Z</time>
      </trkpt>
      <trkpt lat="45.92562" lon="4.88204">
        <ele>291</ele>
        <time>2018-08-20T08:49:21Z</time>
      </trkpt>
      <trkpt lat="45.92569" lon="4.88205">
        <ele>291</ele>
        <time>2018-08-20T08:49:22Z</time>
      </trkpt>
      <trkpt lat="45.92573" lon="4.88204">
        <ele>291</ele>
        <time>2018-08-20T08:49:23Z</time>
      </trkpt>
      <trkpt lat="45.92581" lon="4.88204">
        <ele>291</ele>
        <time>2018-08-20T08:49:25Z</time>
      </trkpt>
      <trkpt lat="45.92586" lon="4.88204">
        <ele>291</ele>
        <time>2018-08-20T08:49:26Z</time>
      </trkpt>
      <trkpt lat="45.9259" lon="4.88206">
        <ele>291</ele>
        <time>2018-08-20T08:49:27Z</time>
      </trkpt>
      <trkpt lat="45.92595" lon="4.88206">
        <ele>291</ele>
        <time>2018-08-20T08:49:28Z</time>
      </trkpt>
      <trkpt lat="45.92599" lon="4.88207">
        <ele>291</ele>
        <time>2018-08-20T08:49:29Z</time>
      </trkpt>
      <trkpt lat="45.92604" lon="4.88207">
        <ele>291</ele>
        <time>2018-08-20T08:49:30Z</time>
      </trkpt>
      <trkpt lat="45.9261" lon="4.88205">
        <ele>291</ele>
        <time>2018-08-20T08:49:31Z</time>
      </trkpt>
      <trkpt lat="45.92616" lon="4.88205">
        <ele>291</ele>
        <time>2018-08-20T08:49:32Z</time>
      </trkpt>
      <trkpt lat="45.92623" lon="4.88206">
        <ele>292</ele>
        <time>2018-08-20T08:49:34Z</time>
      </trkpt>
      <trkpt lat="45.92628" lon="4.88206">
        <ele>292</ele>
        <time>2018-08-20T08:49:35Z</time>
      </trkpt>
      <trkpt lat="45.92632" lon="4.88205">
        <ele>292</ele>
        <time>2018-08-20T08:49:36Z</time>
      </trkpt>
      <trkpt lat="45.92639" lon="4.88201">
        <ele>292</ele>
        <time>2018-08-20T08:49:37Z</time>
      </trkpt>
      <trkpt lat="45.92647" lon="4.88199">
        <ele>292</ele>
        <time>2018-08-20T08:49:39Z</time>
      </trkpt>
      <trkpt lat="45.92652" lon="4.882">
        <ele>292</ele>
        <time>2018-08-20T08:49:40Z</time>
      </trkpt>
      <trkpt lat="45.92657" lon="4.882">
        <ele>292</ele>
        <time>2018-08-20T08:49:41Z</time>
      </trkpt>
      <trkpt lat="45.92663" lon="4.88201">
        <ele>292</ele>
        <time>2018-08-20T08:49:42Z</time>
      </trkpt>
      <trkpt lat="45.92669" lon="4.882">
        <ele>292</ele>
        <time>2018-08-20T08:49:43Z</time>
      </trkpt>
      <trkpt lat="45.92673" lon="4.882">
        <ele>292</ele>
        <time>2018-08-20T08:49:44Z</time>
      </trkpt>
      <trkpt lat="45.92679" lon="4.882">
        <ele>292</ele>
        <time>2018-08-20T08:49:45Z</time>
      </trkpt>
      <trkpt lat="45.92683" lon="4.88201">
        <ele>292</ele>
        <time>2018-08-20T08:49:46Z</time>
      </trkpt>
      <trkpt lat="45.92689" lon="4.88201">
        <ele>292</ele>
        <time>2018-08-20T08:49:47Z</time>
      </trkpt>
      <trkpt lat="45.92693" lon="4.88201">
        <ele>292</ele>
        <time>2018-08-20T08:49:48Z</time>
      </trkpt>
      <trkpt lat="45.92702" lon="4.88202">
        <ele>292</ele>
        <time>2018-08-20T08:49:50Z</time>
      </trkpt>
      <trkpt lat="45.92707" lon="4.88202">
        <ele>292</ele>
        <time>2018-08-20T08:49:51Z</time>
      </trkpt>
      <trkpt lat="45.92711" lon="4.88203">
        <ele>292</ele>
        <time>2018-08-20T08:49:52Z</time>
      </trkpt>
      <trkpt lat="45.92716" lon="4.88205">
        <ele>292</ele>
        <time>2018-08-20T08:49:53Z</time>
      </trkpt>
      <trkpt lat="45.92722" lon="4.88202">
        <ele>292</ele>
        <time>2018-08-20T08:49:54Z</time>
      </trkpt>
      <trkpt lat="45.92727" lon="4.88202">
        <ele>292</ele>
        <time>2018-08-20T08:49:55Z</time>
      </trkpt>
      <trkpt lat="45.92733" lon="4.88202">
        <ele>292</ele>
        <time>2018-08-20T08:49:56Z</time>
      </trkpt>
      <trkpt lat="45.92738" lon="4.88203">
        <ele>292</ele>
        <time>2018-08-20T08:49:57Z</time>
      </trkpt>
      <trkpt lat="45.92743" lon="4.88204">
        <ele>292</ele>
        <time>2018-08-20T08:49:58Z</time>
      </trkpt>
      <trkpt lat="45.92747" lon="4.88205">
        <ele>292</ele>
        <time>2018-08-20T08:49:59Z</time>
      </trkpt>
      <trkpt lat="45.92752" lon="4.88206">
        <ele>292</ele>
        <time>2018-08-20T08:50:00Z</time>
      </trkpt>
      <trkpt lat="45.92759" lon="4.88205">
        <ele>292</ele>
        <time>2018-08-20T08:50:01Z</time>
      </trkpt>
      <trkpt lat="45.92764" lon="4.88203">
        <ele>292</ele>
        <time>2018-08-20T08:50:02Z</time>
      </trkpt>
      <trkpt lat="45.92769" lon="4.88205">
        <ele>292</ele>
        <time>2018-08-20T08:50:03Z</time>
      </trkpt>
      <trkpt lat="45.92774" lon="4.88205">
        <ele>292</ele>
        <time>2018-08-20T08:50:04Z</time>
      </trkpt>
      <trkpt lat="45.9278" lon="4.88204">
        <ele>292</ele>
        <time>2018-08-20T08:50:05Z</time>
      </trkpt>
      <trkpt lat="45.92786" lon="4.88203">
        <ele>292</ele>
        <time>2018-08-20T08:50:06Z</time>
      </trkpt>
      <trkpt lat="45.9279" lon="4.88205">
        <ele>292</ele>
        <time>2018-08-20T08:50:07Z</time>
      </trkpt>
      <trkpt lat="45.92795" lon="4.88207">
        <ele>292</ele>
        <time>2018-08-20T08:50:08Z</time>
      </trkpt>
      <trkpt lat="45.928" lon="4.88207">
        <ele>292</ele>
        <time>2018-08-20T08:50:09Z</time>
      </trkpt>
      <trkpt lat="45.92806" lon="4.88205">
        <ele>292</ele>
        <time>2018-08-20T08:50:10Z</time>
      </trkpt>
      <trkpt lat="45.92812" lon="4.88205">
        <ele>292</ele>
        <time>2018-08-20T08:50:11Z</time>
      </trkpt>
      <trkpt lat="45.92818" lon="4.88205">
        <ele>292</ele>
        <time>2018-08-20T08:50:12Z</time>
      </trkpt>
      <trkpt lat="45.92823" lon="4.88205">
        <ele>292</ele>
        <time>2018-08-20T08:50:13Z</time>
      </trkpt>
      <trkpt lat="45.92828" lon="4.88205">
        <ele>292</ele>
        <time>2018-08-20T08:50:14Z</time>
      </trkpt>
      <trkpt lat="45.92833" lon="4.88205">
        <ele>292</ele>
        <time>2018-08-20T08:50:15Z</time>
      </trkpt>
      <trkpt lat="45.92838" lon="4.88205">
        <ele>291</ele>
        <time>2018-08-20T08:50:16Z</time>
      </trkpt>
      <trkpt lat="45.92844" lon="4.88205">
        <ele>291</ele>
        <time>2018-08-20T08:50:17Z</time>
      </trkpt>
      <trkpt lat="45.92849" lon="4.88205">
        <ele>291</ele>
        <time>2018-08-20T08:50:18Z</time>
      </trkpt>
      <trkpt lat="45.92853" lon="4.88205">
        <ele>291</ele>
        <time>2018-08-20T08:50:19Z</time>
      </trkpt>
      <trkpt lat="45.92862" lon="4.88205">
        <ele>291</ele>
        <time>2018-08-20T08:50:21Z</time>
      </trkpt>
      <trkpt lat="45.92867" lon="4.88203">
        <ele>291</ele>
        <time>2018-08-20T08:50:22Z</time>
      </trkpt>
      <trkpt lat="45.92875" lon="4.88204">
        <ele>291</ele>
        <time>2018-08-20T08:50:24Z</time>
      </trkpt>
      <trkpt lat="45.92881" lon="4.88203">
        <ele>291</ele>
        <time>2018-08-20T08:50:25Z</time>
      </trkpt>
      <trkpt lat="45.9289" lon="4.88204">
        <ele>291</ele>
        <time>2018-08-20T08:50:27Z</time>
      </trkpt>
      <trkpt lat="45.92895" lon="4.88205">
        <ele>291</ele>
        <time>2018-08-20T08:50:28Z</time>
      </trkpt>
      <trkpt lat="45.92901" lon="4.88205">
        <ele>291</ele>
        <time>2018-08-20T08:50:29Z</time>
      </trkpt>
      <trkpt lat="45.92908" lon="4.88204">
        <ele>291</ele>
        <time>2018-08-20T08:50:30Z</time>
      </trkpt>
      <trkpt lat="45.92914" lon="4.88204">
        <ele>291</ele>
        <time>2018-08-20T08:50:31Z</time>
      </trkpt>
      <trkpt lat="45.92919" lon="4.88205">
        <ele>291</ele>
        <time>2018-08-20T08:50:32Z</time>
      </trkpt>
      <trkpt lat="45.92925" lon="4.88205">
        <ele>291</ele>
        <time>2018-08-20T08:50:33Z</time>
      </trkpt>
      <trkpt lat="45.92929" lon="4.88205">
        <ele>291</ele>
        <time>2018-08-20T08:50:34Z</time>
      </trkpt>
      <trkpt lat="45.92935" lon="4.88205">
        <ele>291</ele>
        <time>2018-08-20T08:50:35Z</time>
      </trkpt>
      <trkpt lat="45.9294" lon="4.88206">
        <ele>291</ele>
        <time>2018-08-20T08:50:36Z</time>
      </trkpt>
      <trkpt lat="45.92946" lon="4.88204">
        <ele>291</ele>
        <time>2018-08-20T08:50:37Z</time>
      </trkpt>
      <trkpt lat="45.92952" lon="4.88204">
        <ele>291</ele>
        <time>2018-08-20T08:50:38Z</time>
      </trkpt>
      <trkpt lat="45.92958" lon="4.88205">
        <ele>291</ele>
        <time>2018-08-20T08:50:39Z</time>
      </trkpt>
      <trkpt lat="45.92963" lon="4.88206">
        <ele>291</ele>
        <time>2018-08-20T08:50:40Z</time>
      </trkpt>
      <trkpt lat="45.92968" lon="4.88207">
        <ele>291</ele>
        <time>2018-08-20T08:50:41Z</time>
      </trkpt>
      <trkpt lat="45.92974" lon="4.88207">
        <ele>291</ele>
        <time>2018-08-20T08:50:42Z</time>
      </trkpt>
      <trkpt lat="45.92978" lon="4.8821">
        <ele>291</ele>
        <time>2018-08-20T08:50:43Z</time>
      </trkpt>
      <trkpt lat="45.92984" lon="4.8821">
        <ele>291</ele>
        <time>2018-08-20T08:50:44Z</time>
      </trkpt>
      <trkpt lat="45.9299" lon="4.88211">
        <ele>291</ele>
        <time>2018-08-20T08:50:45Z</time>
      </trkpt>
      <trkpt lat="45.92995" lon="4.8821">
        <ele>291</ele>
        <time>2018-08-20T08:50:46Z</time>
      </trkpt>
      <trkpt lat="45.93" lon="4.88207">
        <ele>291</ele>
        <time>2018-08-20T08:50:47Z</time>
      </trkpt>
      <trkpt lat="45.93005" lon="4.88208">
        <ele>291</ele>
        <time>2018-08-20T08:50:48Z</time>
      </trkpt>
      <trkpt lat="45.93011" lon="4.88208">
        <ele>291</ele>
        <time>2018-08-20T08:50:49Z</time>
      </trkpt>
      <trkpt lat="45.93016" lon="4.88208">
        <ele>291</ele>
        <time>2018-08-20T08:50:50Z</time>
      </trkpt>
      <trkpt lat="45.93021" lon="4.88207">
        <ele>291</ele>
        <time>2018-08-20T08:50:51Z</time>
      </trkpt>
      <trkpt lat="45.93026" lon="4.88208">
        <ele>291</ele>
        <time>2018-08-20T08:50:52Z</time>
      </trkpt>
      <trkpt lat="45.93032" lon="4.88208">
        <ele>291</ele>
        <time>2018-08-20T08:50:53Z</time>
      </trkpt>
      <trkpt lat="45.93037" lon="4.88208">
        <ele>291</ele>
        <time>2018-08-20T08:50:54Z</time>
      </trkpt>
      <trkpt lat="45.93043" lon="4.88208">
        <ele>292</ele>
        <time>2018-08-20T08:50:55Z</time>
      </trkpt>
      <trkpt lat="45.93048" lon="4.88208">
        <ele>292</ele>
        <time>2018-08-20T08:50:56Z</time>
      </trkpt>
      <trkpt lat="45.93051" lon="4.88209">
        <ele>292</ele>
        <time>2018-08-20T08:50:57Z</time>
      </trkpt>
      <trkpt lat="45.93058" lon="4.88208">
        <ele>292</ele>
        <time>2018-08-20T08:50:58Z</time>
      </trkpt>
      <trkpt lat="45.93062" lon="4.8821">
        <ele>292</ele>
        <time>2018-08-20T08:50:59Z</time>
      </trkpt>
      <trkpt lat="45.93067" lon="4.8821">
        <ele>292</ele>
        <time>2018-08-20T08:51:00Z</time>
      </trkpt>
      <trkpt lat="45.93072" lon="4.88211">
        <ele>292</ele>
        <time>2018-08-20T08:51:01Z</time>
      </trkpt>
      <trkpt lat="45.93077" lon="4.8821">
        <ele>292</ele>
        <time>2018-08-20T08:51:02Z</time>
      </trkpt>
      <trkpt lat="45.93082" lon="4.8821">
        <ele>292</ele>
        <time>2018-08-20T08:51:03Z</time>
      </trkpt>
      <trkpt lat="45.93087" lon="4.88211">
        <ele>292</ele>
        <time>2018-08-20T08:51:04Z</time>
      </trkpt>
      <trkpt lat="45.93091" lon="4.88211">
        <ele>292</ele>
        <time>2018-08-20T08:51:05Z</time>
      </trkpt>
      <trkpt lat="45.93096" lon="4.88211">
        <ele>292</ele>
        <time>2018-08-20T08:51:06Z</time>
      </trkpt>
      <trkpt lat="45.93101" lon="4.88211">
        <ele>292</ele>
        <time>2018-08-20T08:51:07Z</time>
      </trkpt>
      <trkpt lat="45.93107" lon="4.88209">
        <ele>292</ele>
        <time>2018-08-20T08:51:08Z</time>
      </trkpt>
      <trkpt lat="45.93111" lon="4.88209">
        <ele>292</ele>
        <time>2018-08-20T08:51:09Z</time>
      </trkpt>
      <trkpt lat="45.93117" lon="4.88209">
        <ele>292</ele>
        <time>2018-08-20T08:51:10Z</time>
      </trkpt>
      <trkpt lat="45.93121" lon="4.8821">
        <ele>292</ele>
        <time>2018-08-20T08:51:11Z</time>
      </trkpt>
      <trkpt lat="45.93126" lon="4.8821">
        <ele>292</ele>
        <time>2018-08-20T08:51:12Z</time>
      </trkpt>
      <trkpt lat="45.93131" lon="4.88209">
        <ele>292</ele>
        <time>2018-08-20T08:51:13Z</time>
      </trkpt>
      <trkpt lat="45.93136" lon="4.8821">
        <ele>292</ele>
        <time>2018-08-20T08:51:14Z</time>
      </trkpt>
      <trkpt lat="45.93145" lon="4.88213">
        <ele>292</ele>
        <time>2018-08-20T08:51:16Z</time>
      </trkpt>
      <trkpt lat="45.93149" lon="4.88214">
        <ele>292</ele>
        <time>2018-08-20T08:51:17Z</time>
      </trkpt>
      <trkpt lat="45.93154" lon="4.88214">
        <ele>292</ele>
        <time>2018-08-20T08:51:18Z</time>
      </trkpt>
      <trkpt lat="45.93161" lon="4.88213">
        <ele>292</ele>
        <time>2018-08-20T08:51:19Z</time>
      </trkpt>
      <trkpt lat="45.93166" lon="4.88213">
        <ele>292</ele>
        <time>2018-08-20T08:51:20Z</time>
      </trkpt>
      <trkpt lat="45.93171" lon="4.88213">
        <ele>291</ele>
        <time>2018-08-20T08:51:21Z</time>
      </trkpt>
      <trkpt lat="45.93176" lon="4.88214">
        <ele>291</ele>
        <time>2018-08-20T08:51:22Z</time>
      </trkpt>
      <trkpt lat="45.93181" lon="4.88214">
        <ele>291</ele>
        <time>2018-08-20T08:51:23Z</time>
      </trkpt>
      <trkpt lat="45.93186" lon="4.88213">
        <ele>291</ele>
        <time>2018-08-20T08:51:24Z</time>
      </trkpt>
      <trkpt lat="45.9319" lon="4.88214">
        <ele>291</ele>
        <time>2018-08-20T08:51:25Z</time>
      </trkpt>
      <trkpt lat="45.93193" lon="4.88215">
        <ele>291</ele>
        <time>2018-08-20T08:51:26Z</time>
      </trkpt>
      <trkpt lat="45.932" lon="4.88213">
        <ele>291</ele>
        <time>2018-08-20T08:51:27Z</time>
      </trkpt>
      <trkpt lat="45.93205" lon="4.88213">
        <ele>291</ele>
        <time>2018-08-20T08:51:28Z</time>
      </trkpt>
      <trkpt lat="45.93214" lon="4.88207">
        <ele>291</ele>
        <time>2018-08-20T08:51:29Z</time>
      </trkpt>
      <trkpt lat="45.93219" lon="4.88208">
        <ele>291</ele>
        <time>2018-08-20T08:51:30Z</time>
      </trkpt>
      <trkpt lat="45.93224" lon="4.88208">
        <ele>291</ele>
        <time>2018-08-20T08:51:31Z</time>
      </trkpt>
      <trkpt lat="45.9323" lon="4.88209">
        <ele>291</ele>
        <time>2018-08-20T08:51:32Z</time>
      </trkpt>
      <trkpt lat="45.93235" lon="4.88212">
        <ele>291</ele>
        <time>2018-08-20T08:51:33Z</time>
      </trkpt>
      <trkpt lat="45.93239" lon="4.8821">
        <ele>291</ele>
        <time>2018-08-20T08:51:34Z</time>
      </trkpt>
      <trkpt lat="45.93244" lon="4.88211">
        <ele>291</ele>
        <time>2018-08-20T08:51:35Z</time>
      </trkpt>
      <trkpt lat="45.93251" lon="4.88211">
        <ele>290</ele>
        <time>2018-08-20T08:51:36Z</time>
      </trkpt>
      <trkpt lat="45.93256" lon="4.88213">
        <ele>290</ele>
        <time>2018-08-20T08:51:37Z</time>
      </trkpt>
      <trkpt lat="45.93264" lon="4.88212">
        <ele>290</ele>
        <time>2018-08-20T08:51:39Z</time>
      </trkpt>
      <trkpt lat="45.93268" lon="4.88212">
        <ele>290</ele>
        <time>2018-08-20T08:51:40Z</time>
      </trkpt>
      <trkpt lat="45.93274" lon="4.88211">
        <ele>290</ele>
        <time>2018-08-20T08:51:41Z</time>
      </trkpt>
      <trkpt lat="45.93277" lon="4.88212">
        <ele>290</ele>
        <time>2018-08-20T08:51:42Z</time>
      </trkpt>
      <trkpt lat="45.93285" lon="4.88214">
        <ele>290</ele>
        <time>2018-08-20T08:51:44Z</time>
      </trkpt>
      <trkpt lat="45.9329" lon="4.88212">
        <ele>290</ele>
        <time>2018-08-20T08:51:45Z</time>
      </trkpt>
      <trkpt lat="45.93295" lon="4.88211">
        <ele>290</ele>
        <time>2018-08-20T08:51:46Z</time>
      </trkpt>
      <trkpt lat="45.93301" lon="4.88211">
        <ele>290</ele>
        <time>2018-08-20T08:51:47Z</time>
      </trkpt>
      <trkpt lat="45.93305" lon="4.88214">
        <ele>290</ele>
        <time>2018-08-20T08:51:48Z</time>
      </trkpt>
      <trkpt lat="45.93311" lon="4.88213">
        <ele>290</ele>
        <time>2018-08-20T08:51:49Z</time>
      </trkpt>
      <trkpt lat="45.93316" lon="4.88212">
        <ele>290</ele>
        <time>2018-08-20T08:51:50Z</time>
      </trkpt>
      <trkpt lat="45.93322" lon="4.88212">
        <ele>290</ele>
        <time>2018-08-20T08:51:51Z</time>
      </trkpt>
      <trkpt lat="45.93327" lon="4.88211">
        <ele>290</ele>
        <time>2018-08-20T08:51:52Z</time>
      </trkpt>
      <trkpt lat="45.93333" lon="4.88211">
        <ele>290</ele>
        <time>2018-08-20T08:51:53Z</time>
      </trkpt>
      <trkpt lat="45.93339" lon="4.88209">
        <ele>290</ele>
        <time>2018-08-20T08:51:54Z</time>
      </trkpt>
      <trkpt lat="45.93343" lon="4.88209">
        <ele>290</ele>
        <time>2018-08-20T08:51:55Z</time>
      </trkpt>
      <trkpt lat="45.93352" lon="4.8821">
        <ele>290</ele>
        <time>2018-08-20T08:51:57Z</time>
      </trkpt>
      <trkpt lat="45.93358" lon="4.8821">
        <ele>290</ele>
        <time>2018-08-20T08:51:58Z</time>
      </trkpt>
      <trkpt lat="45.93363" lon="4.8821">
        <ele>290</ele>
        <time>2018-08-20T08:51:59Z</time>
      </trkpt>
      <trkpt lat="45.93368" lon="4.88211">
        <ele>290</ele>
        <time>2018-08-20T08:52:00Z</time>
      </trkpt>
      <trkpt lat="45.93374" lon="4.88211">
        <ele>290</ele>
        <time>2018-08-20T08:52:01Z</time>
      </trkpt>
      <trkpt lat="45.9338" lon="4.88209">
        <ele>290</ele>
        <time>2018-08-20T08:52:02Z</time>
      </trkpt>
      <trkpt lat="45.93386" lon="4.88209">
        <ele>290</ele>
        <time>2018-08-20T08:52:03Z</time>
      </trkpt>
      <trkpt lat="45.93391" lon="4.88209">
        <ele>290</ele>
        <time>2018-08-20T08:52:04Z</time>
      </trkpt>
      <trkpt lat="45.93396" lon="4.8821">
        <ele>290</ele>
        <time>2018-08-20T08:52:05Z</time>
      </trkpt>
      <trkpt lat="45.93402" lon="4.88209">
        <ele>290</ele>
        <time>2018-08-20T08:52:06Z</time>
      </trkpt>
      <trkpt lat="45.93406" lon="4.88211">
        <ele>290</ele>
        <time>2018-08-20T08:52:07Z</time>
      </trkpt>
      <trkpt lat="45.93411" lon="4.88212">
        <ele>289</ele>
        <time>2018-08-20T08:52:08Z</time>
      </trkpt>
      <trkpt lat="45.9342" lon="4.88215">
        <ele>289</ele>
        <time>2018-08-20T08:52:10Z</time>
      </trkpt>
      <trkpt lat="45.93424" lon="4.88217">
        <ele>289</ele>
        <time>2018-08-20T08:52:11Z</time>
      </trkpt>
      <trkpt lat="45.93429" lon="4.88216">
        <ele>289</ele>
        <time>2018-08-20T08:52:12Z</time>
      </trkpt>
      <trkpt lat="45.93436" lon="4.88216">
        <ele>289</ele>
        <time>2018-08-20T08:52:13Z</time>
      </trkpt>
      <trkpt lat="45.93443" lon="4.88222">
        <ele>289</ele>
        <time>2018-08-20T08:52:15Z</time>
      </trkpt>
      <trkpt lat="45.93447" lon="4.8822">
        <ele>289</ele>
        <time>2018-08-20T08:52:16Z</time>
      </trkpt>
      <trkpt lat="45.93455" lon="4.88215">
        <ele>289</ele>
        <time>2018-08-20T08:52:17Z</time>
      </trkpt>
      <trkpt lat="45.93456" lon="4.88222">
        <ele>289</ele>
        <time>2018-08-20T08:52:18Z</time>
      </trkpt>
      <trkpt lat="45.93461" lon="4.88225">
        <ele>289</ele>
        <time>2018-08-20T08:52:19Z</time>
      </trkpt>
      <trkpt lat="45.93465" lon="4.88228">
        <ele>289</ele>
        <time>2018-08-20T08:52:20Z</time>
      </trkpt>
      <trkpt lat="45.93469" lon="4.88232">
        <ele>289</ele>
        <time>2018-08-20T08:52:21Z</time>
      </trkpt>
      <trkpt lat="45.93474" lon="4.88235">
        <ele>289</ele>
        <time>2018-08-20T08:52:22Z</time>
      </trkpt>
      <trkpt lat="45.93479" lon="4.88238">
        <ele>289</ele>
        <time>2018-08-20T08:52:23Z</time>
      </trkpt>
      <trkpt lat="45.93486" lon="4.88237">
        <ele>289</ele>
        <time>2018-08-20T08:52:24Z</time>
      </trkpt>
      <trkpt lat="45.93491" lon="4.88237">
        <ele>289</ele>
        <time>2018-08-20T08:52:25Z</time>
      </trkpt>
      <trkpt lat="45.93497" lon="4.88233">
        <ele>289</ele>
        <time>2018-08-20T08:52:26Z</time>
      </trkpt>
      <trkpt lat="45.93502" lon="4.88229">
        <ele>288</ele>
        <time>2018-08-20T08:52:27Z</time>
      </trkpt>
      <trkpt lat="45.93507" lon="4.88226">
        <ele>288</ele>
        <time>2018-08-20T08:52:28Z</time>
      </trkpt>
      <trkpt lat="45.93513" lon="4.88222">
        <ele>288</ele>
        <time>2018-08-20T08:52:29Z</time>
      </trkpt>
      <trkpt lat="45.93519" lon="4.88221">
        <ele>288</ele>
        <time>2018-08-20T08:52:30Z</time>
      </trkpt>
      <trkpt lat="45.93525" lon="4.88219">
        <ele>288</ele>
        <time>2018-08-20T08:52:31Z</time>
      </trkpt>
      <trkpt lat="45.93531" lon="4.88218">
        <ele>287</ele>
        <time>2018-08-20T08:52:32Z</time>
      </trkpt>
      <trkpt lat="45.93537" lon="4.88217">
        <ele>287</ele>
        <time>2018-08-20T08:52:33Z</time>
      </trkpt>
      <trkpt lat="45.93542" lon="4.88216">
        <ele>287</ele>
        <time>2018-08-20T08:52:34Z</time>
      </trkpt>
      <trkpt lat="45.93548" lon="4.88215">
        <ele>287</ele>
        <time>2018-08-20T08:52:35Z</time>
      </trkpt>
      <trkpt lat="45.93555" lon="4.8821">
        <ele>287</ele>
        <time>2018-08-20T08:52:36Z</time>
      </trkpt>
      <trkpt lat="45.93559" lon="4.88212">
        <ele>287</ele>
        <time>2018-08-20T08:52:37Z</time>
      </trkpt>
      <trkpt lat="45.93565" lon="4.88212">
        <ele>287</ele>
        <time>2018-08-20T08:52:38Z</time>
      </trkpt>
      <trkpt lat="45.93571" lon="4.88213">
        <ele>287</ele>
        <time>2018-08-20T08:52:39Z</time>
      </trkpt>
      <trkpt lat="45.93576" lon="4.88213">
        <ele>287</ele>
        <time>2018-08-20T08:52:40Z</time>
      </trkpt>
      <trkpt lat="45.93582" lon="4.88213">
        <ele>287</ele>
        <time>2018-08-20T08:52:41Z</time>
      </trkpt>
      <trkpt lat="45.93587" lon="4.88213">
        <ele>286</ele>
        <time>2018-08-20T08:52:42Z</time>
      </trkpt>
      <trkpt lat="45.93592" lon="4.88212">
        <ele>286</ele>
        <time>2018-08-20T08:52:43Z</time>
      </trkpt>
      <trkpt lat="45.93596" lon="4.88213">
        <ele>285</ele>
        <time>2018-08-20T08:52:44Z</time>
      </trkpt>
      <trkpt lat="45.93602" lon="4.88213">
        <ele>285</ele>
        <time>2018-08-20T08:52:45Z</time>
      </trkpt>
      <trkpt lat="45.93608" lon="4.88214">
        <ele>285</ele>
        <time>2018-08-20T08:52:46Z</time>
      </trkpt>
      <trkpt lat="45.93612" lon="4.88216">
        <ele>285</ele>
        <time>2018-08-20T08:52:47Z</time>
      </trkpt>
      <trkpt lat="45.93617" lon="4.88215">
        <ele>285</ele>
        <time>2018-08-20T08:52:48Z</time>
      </trkpt>
      <trkpt lat="45.93622" lon="4.88216">
        <ele>285</ele>
        <time>2018-08-20T08:52:49Z</time>
      </trkpt>
      <trkpt lat="45.93628" lon="4.88216">
        <ele>285</ele>
        <time>2018-08-20T08:52:50Z</time>
      </trkpt>
      <trkpt lat="45.93635" lon="4.88216">
        <ele>285</ele>
        <time>2018-08-20T08:52:51Z</time>
      </trkpt>
      <trkpt lat="45.93643" lon="4.88215">
        <ele>285</ele>
        <time>2018-08-20T08:52:52Z</time>
      </trkpt>
      <trkpt lat="45.93649" lon="4.88214">
        <ele>285</ele>
        <time>2018-08-20T08:52:53Z</time>
      </trkpt>
      <trkpt lat="45.93656" lon="4.88213">
        <ele>285</ele>
        <time>2018-08-20T08:52:54Z</time>
      </trkpt>
      <trkpt lat="45.93664" lon="4.88209">
        <ele>285</ele>
        <time>2018-08-20T08:52:55Z</time>
      </trkpt>
      <trkpt lat="45.9367" lon="4.88208">
        <ele>285</ele>
        <time>2018-08-20T08:52:56Z</time>
      </trkpt>
      <trkpt lat="45.93674" lon="4.8821">
        <ele>285</ele>
        <time>2018-08-20T08:52:57Z</time>
      </trkpt>
      <trkpt lat="45.93684" lon="4.88204">
        <ele>285</ele>
        <time>2018-08-20T08:52:58Z</time>
      </trkpt>
      <trkpt lat="45.93689" lon="4.88211">
        <ele>285</ele>
        <time>2018-08-20T08:53:00Z</time>
      </trkpt>
      <trkpt lat="45.93694" lon="4.8821">
        <ele>285</ele>
        <time>2018-08-20T08:53:01Z</time>
      </trkpt>
      <trkpt lat="45.93696" lon="4.88214">
        <ele>285</ele>
        <time>2018-08-20T08:53:02Z</time>
      </trkpt>
      <trkpt lat="45.93703" lon="4.88211">
        <ele>285</ele>
        <time>2018-08-20T08:53:03Z</time>
      </trkpt>
      <trkpt lat="45.93712" lon="4.88213">
        <ele>285</ele>
        <time>2018-08-20T08:53:05Z</time>
      </trkpt>
      <trkpt lat="45.93716" lon="4.88215">
        <ele>285</ele>
        <time>2018-08-20T08:53:06Z</time>
      </trkpt>
      <trkpt lat="45.93722" lon="4.88214">
        <ele>286</ele>
        <time>2018-08-20T08:53:07Z</time>
      </trkpt>
      <trkpt lat="45.9373" lon="4.88212">
        <ele>286</ele>
        <time>2018-08-20T08:53:08Z</time>
      </trkpt>
      <trkpt lat="45.93736" lon="4.88212">
        <ele>286</ele>
        <time>2018-08-20T08:53:09Z</time>
      </trkpt>
      <trkpt lat="45.93742" lon="4.88213">
        <ele>286</ele>
        <time>2018-08-20T08:53:10Z</time>
      </trkpt>
      <trkpt lat="45.93747" lon="4.88213">
        <ele>286</ele>
        <time>2018-08-20T08:53:11Z</time>
      </trkpt>
      <trkpt lat="45.93752" lon="4.88214">
        <ele>287</ele>
        <time>2018-08-20T08:53:12Z</time>
      </trkpt>
      <trkpt lat="45.93759" lon="4.88214">
        <ele>287</ele>
        <time>2018-08-20T08:53:13Z</time>
      </trkpt>
      <trkpt lat="45.93766" lon="4.88213">
        <ele>287</ele>
        <time>2018-08-20T08:53:14Z</time>
      </trkpt>
      <trkpt lat="45.93772" lon="4.88213">
        <ele>287</ele>
        <time>2018-08-20T08:53:15Z</time>
      </trkpt>
      <trkpt lat="45.93776" lon="4.88215">
        <ele>287</ele>
        <time>2018-08-20T08:53:16Z</time>
      </trkpt>
      <trkpt lat="45.93783" lon="4.88214">
        <ele>287</ele>
        <time>2018-08-20T08:53:17Z</time>
      </trkpt>
      <trkpt lat="45.93789" lon="4.88214">
        <ele>287</ele>
        <time>2018-08-20T08:53:18Z</time>
      </trkpt>
      <trkpt lat="45.93794" lon="4.88215">
        <ele>288</ele>
        <time>2018-08-20T08:53:19Z</time>
      </trkpt>
      <trkpt lat="45.93802" lon="4.88213">
        <ele>288</ele>
        <time>2018-08-20T08:53:20Z</time>
      </trkpt>
      <trkpt lat="45.93807" lon="4.88213">
        <ele>288</ele>
        <time>2018-08-20T08:53:21Z</time>
      </trkpt>
      <trkpt lat="45.93813" lon="4.88212">
        <ele>288</ele>
        <time>2018-08-20T08:53:22Z</time>
      </trkpt>
      <trkpt lat="45.93819" lon="4.88209">
        <ele>288</ele>
        <time>2018-08-20T08:53:23Z</time>
      </trkpt>
      <trkpt lat="45.93823" lon="4.88212">
        <ele>288</ele>
        <time>2018-08-20T08:53:24Z</time>
      </trkpt>
      <trkpt lat="45.93831" lon="4.88206">
        <ele>288</ele>
        <time>2018-08-20T08:53:25Z</time>
      </trkpt>
      <trkpt lat="45.93838" lon="4.88213">
        <ele>289</ele>
        <time>2018-08-20T08:53:27Z</time>
      </trkpt>
      <trkpt lat="45.93843" lon="4.88211">
        <ele>289</ele>
        <time>2018-08-20T08:53:28Z</time>
      </trkpt>
      <trkpt lat="45.93849" lon="4.88207">
        <ele>288</ele>
        <time>2018-08-20T08:53:29Z</time>
      </trkpt>
      <trkpt lat="45.93854" lon="4.88209">
        <ele>288</ele>
        <time>2018-08-20T08:53:30Z</time>
      </trkpt>
      <trkpt lat="45.93862" lon="4.8821">
        <ele>288</ele>
        <time>2018-08-20T08:53:31Z</time>
      </trkpt>
      <trkpt lat="45.93868" lon="4.8821">
        <ele>288</ele>
        <time>2018-08-20T08:53:32Z</time>
      </trkpt>
      <trkpt lat="45.93874" lon="4.88211">
        <ele>288</ele>
        <time>2018-08-20T08:53:33Z</time>
      </trkpt>
      <trkpt lat="45.93878" lon="4.88212">
        <ele>288</ele>
        <time>2018-08-20T08:53:34Z</time>
      </trkpt>
      <trkpt lat="45.93885" lon="4.88215">
        <ele>289</ele>
        <time>2018-08-20T08:53:35Z</time>
      </trkpt>
      <trkpt lat="45.93889" lon="4.8822">
        <ele>289</ele>
        <time>2018-08-20T08:53:36Z</time>
      </trkpt>
      <trkpt lat="45.93893" lon="4.8822">
        <ele>289</ele>
        <time>2018-08-20T08:53:37Z</time>
      </trkpt>
      <trkpt lat="45.93898" lon="4.88221">
        <ele>289</ele>
        <time>2018-08-20T08:53:38Z</time>
      </trkpt>
      <trkpt lat="45.93905" lon="4.88219">
        <ele>289</ele>
        <time>2018-08-20T08:53:39Z</time>
      </trkpt>
      <trkpt lat="45.9391" lon="4.88216">
        <ele>289</ele>
        <time>2018-08-20T08:53:40Z</time>
      </trkpt>
      <trkpt lat="45.93918" lon="4.88216">
        <ele>287</ele>
        <time>2018-08-20T08:53:42Z</time>
      </trkpt>
      <trkpt lat="45.93922" lon="4.88219">
        <ele>288</ele>
        <time>2018-08-20T08:53:43Z</time>
      </trkpt>
      <trkpt lat="45.93928" lon="4.88223">
        <ele>288</ele>
        <time>2018-08-20T08:53:45Z</time>
      </trkpt>
      <trkpt lat="45.93931" lon="4.88224">
        <ele>288</ele>
        <time>2018-08-20T08:53:46Z</time>
      </trkpt>
      <trkpt lat="45.93938" lon="4.88227">
        <ele>288</ele>
        <time>2018-08-20T08:53:47Z</time>
      </trkpt>
      <trkpt lat="45.93942" lon="4.88225">
        <ele>287</ele>
        <time>2018-08-20T08:53:48Z</time>
      </trkpt>
      <trkpt lat="45.93949" lon="4.88226">
        <ele>287</ele>
        <time>2018-08-20T08:53:49Z</time>
      </trkpt>
      <trkpt lat="45.93954" lon="4.88226">
        <ele>287</ele>
        <time>2018-08-20T08:53:50Z</time>
      </trkpt>
      <trkpt lat="45.93962" lon="4.88223">
        <ele>286</ele>
        <time>2018-08-20T08:53:51Z</time>
      </trkpt>
      <trkpt lat="45.93969" lon="4.88224">
        <ele>286</ele>
        <time>2018-08-20T08:53:52Z</time>
      </trkpt>
      <trkpt lat="45.93976" lon="4.88222">
        <ele>286</ele>
        <time>2018-08-20T08:53:53Z</time>
      </trkpt>
      <trkpt lat="45.93981" lon="4.88222">
        <ele>286</ele>
        <time>2018-08-20T08:53:54Z</time>
      </trkpt>
      <trkpt lat="45.93989" lon="4.8822">
        <ele>286</ele>
        <time>2018-08-20T08:53:55Z</time>
      </trkpt>
      <trkpt lat="45.93998" lon="4.88216">
        <ele>286</ele>
        <time>2018-08-20T08:53:56Z</time>
      </trkpt>
      <trkpt lat="45.94003" lon="4.88218">
        <ele>284</ele>
        <time>2018-08-20T08:53:57Z</time>
      </trkpt>
      <trkpt lat="45.94009" lon="4.88217">
        <ele>283</ele>
        <time>2018-08-20T08:53:58Z</time>
      </trkpt>
      <trkpt lat="45.94016" lon="4.88218">
        <ele>283</ele>
        <time>2018-08-20T08:53:59Z</time>
      </trkpt>
      <trkpt lat="45.94021" lon="4.8822">
        <ele>283</ele>
        <time>2018-08-20T08:54:00Z</time>
      </trkpt>
      <trkpt lat="45.94027" lon="4.8822">
        <ele>283</ele>
        <time>2018-08-20T08:54:01Z</time>
      </trkpt>
      <trkpt lat="45.94031" lon="4.88222">
        <ele>283</ele>
        <time>2018-08-20T08:54:02Z</time>
      </trkpt>
      <trkpt lat="45.94036" lon="4.88221">
        <ele>283</ele>
        <time>2018-08-20T08:54:03Z</time>
      </trkpt>
      <trkpt lat="45.94043" lon="4.88222">
        <ele>283</ele>
        <time>2018-08-20T08:54:04Z</time>
      </trkpt>
      <trkpt lat="45.94048" lon="4.88224">
        <ele>283</ele>
        <time>2018-08-20T08:54:05Z</time>
      </trkpt>
      <trkpt lat="45.94054" lon="4.88225">
        <ele>283</ele>
        <time>2018-08-20T08:54:06Z</time>
      </trkpt>
      <trkpt lat="45.94059" lon="4.88227">
        <ele>282</ele>
        <time>2018-08-20T08:54:07Z</time>
      </trkpt>
      <trkpt lat="45.94066" lon="4.88229">
        <ele>282</ele>
        <time>2018-08-20T08:54:08Z</time>
      </trkpt>
      <trkpt lat="45.94073" lon="4.88229">
        <ele>282</ele>
        <time>2018-08-20T08:54:09Z</time>
      </trkpt>
      <trkpt lat="45.94079" lon="4.88231">
        <ele>282</ele>
        <time>2018-08-20T08:54:10Z</time>
      </trkpt>
      <trkpt lat="45.94085" lon="4.88233">
        <ele>281</ele>
        <time>2018-08-20T08:54:11Z</time>
      </trkpt>
      <trkpt lat="45.94096" lon="4.88227">
        <ele>281</ele>
        <time>2018-08-20T08:54:12Z</time>
      </trkpt>
      <trkpt lat="45.94102" lon="4.88227">
        <ele>280</ele>
        <time>2018-08-20T08:54:13Z</time>
      </trkpt>
      <trkpt lat="45.94105" lon="4.88232">
        <ele>280</ele>
        <time>2018-08-20T08:54:14Z</time>
      </trkpt>
      <trkpt lat="45.94111" lon="4.88235">
        <ele>280</ele>
        <time>2018-08-20T08:54:15Z</time>
      </trkpt>
      <trkpt lat="45.94116" lon="4.88237">
        <ele>280</ele>
        <time>2018-08-20T08:54:16Z</time>
      </trkpt>
      <trkpt lat="45.94121" lon="4.8824">
        <ele>280</ele>
        <time>2018-08-20T08:54:17Z</time>
      </trkpt>
      <trkpt lat="45.94127" lon="4.88241">
        <ele>280</ele>
        <time>2018-08-20T08:54:18Z</time>
      </trkpt>
      <trkpt lat="45.94132" lon="4.88242">
        <ele>280</ele>
        <time>2018-08-20T08:54:19Z</time>
      </trkpt>
      <trkpt lat="45.94139" lon="4.88241">
        <ele>280</ele>
        <time>2018-08-20T08:54:20Z</time>
      </trkpt>
      <trkpt lat="45.94144" lon="4.88244">
        <ele>280</ele>
        <time>2018-08-20T08:54:21Z</time>
      </trkpt>
      <trkpt lat="45.94149" lon="4.88245">
        <ele>279</ele>
        <time>2018-08-20T08:54:22Z</time>
      </trkpt>
      <trkpt lat="45.94154" lon="4.88245">
        <ele>279</ele>
        <time>2018-08-20T08:54:23Z</time>
      </trkpt>
      <trkpt lat="45.94158" lon="4.88247">
        <ele>279</ele>
        <time>2018-08-20T08:54:24Z</time>
      </trkpt>
      <trkpt lat="45.94163" lon="4.88249">
        <ele>279</ele>
        <time>2018-08-20T08:54:25Z</time>
      </trkpt>
      <trkpt lat="45.94171" lon="4.88248">
        <ele>279</ele>
        <time>2018-08-20T08:54:26Z</time>
      </trkpt>
      <trkpt lat="45.94177" lon="4.8825">
        <ele>279</ele>
        <time>2018-08-20T08:54:27Z</time>
      </trkpt>
      <trkpt lat="45.94182" lon="4.88251">
        <ele>279</ele>
        <time>2018-08-20T08:54:28Z</time>
      </trkpt>
      <trkpt lat="45.94189" lon="4.88251">
        <ele>279</ele>
        <time>2018-08-20T08:54:29Z</time>
      </trkpt>
      <trkpt lat="45.94195" lon="4.88252">
        <ele>279</ele>
        <time>2018-08-20T08:54:30Z</time>
      </trkpt>
      <trkpt lat="45.94202" lon="4.88252">
        <ele>279</ele>
        <time>2018-08-20T08:54:31Z</time>
      </trkpt>
      <trkpt lat="45.9421" lon="4.88251">
        <ele>279</ele>
        <time>2018-08-20T08:54:32Z</time>
      </trkpt>
      <trkpt lat="45.94216" lon="4.88251">
        <ele>279</ele>
        <time>2018-08-20T08:54:33Z</time>
      </trkpt>
      <trkpt lat="45.94224" lon="4.88252">
        <ele>279</ele>
        <time>2018-08-20T08:54:34Z</time>
      </trkpt>
      <trkpt lat="45.9423" lon="4.88254">
        <ele>279</ele>
        <time>2018-08-20T08:54:35Z</time>
      </trkpt>
      <trkpt lat="45.94236" lon="4.88256">
        <ele>279</ele>
        <time>2018-08-20T08:54:36Z</time>
      </trkpt>
      <trkpt lat="45.94242" lon="4.88257">
        <ele>278</ele>
        <time>2018-08-20T08:54:37Z</time>
      </trkpt>
      <trkpt lat="45.94249" lon="4.88258">
        <ele>278</ele>
        <time>2018-08-20T08:54:38Z</time>
      </trkpt>
      <trkpt lat="45.94255" lon="4.88259">
        <ele>278</ele>
        <time>2018-08-20T08:54:39Z</time>
      </trkpt>
      <trkpt lat="45.94261" lon="4.8826">
        <ele>278</ele>
        <time>2018-08-20T08:54:40Z</time>
      </trkpt>
      <trkpt lat="45.94267" lon="4.88261">
        <ele>278</ele>
        <time>2018-08-20T08:54:41Z</time>
      </trkpt>
      <trkpt lat="45.94272" lon="4.88263">
        <ele>278</ele>
        <time>2018-08-20T08:54:42Z</time>
      </trkpt>
      <trkpt lat="45.94277" lon="4.88264">
        <ele>278</ele>
        <time>2018-08-20T08:54:43Z</time>
      </trkpt>
      <trkpt lat="45.94282" lon="4.88264">
        <ele>278</ele>
        <time>2018-08-20T08:54:44Z</time>
      </trkpt>
      <trkpt lat="45.94287" lon="4.88266">
        <ele>277</ele>
        <time>2018-08-20T08:54:45Z</time>
      </trkpt>
      <trkpt lat="45.94293" lon="4.88265">
        <ele>277</ele>
        <time>2018-08-20T08:54:46Z</time>
      </trkpt>
      <trkpt lat="45.94299" lon="4.88264">
        <ele>277</ele>
        <time>2018-08-20T08:54:47Z</time>
      </trkpt>
      <trkpt lat="45.94304" lon="4.88266">
        <ele>277</ele>
        <time>2018-08-20T08:54:48Z</time>
      </trkpt>
      <trkpt lat="45.94312" lon="4.8827">
        <ele>277</ele>
        <time>2018-08-20T08:54:50Z</time>
      </trkpt>
      <trkpt lat="45.94317" lon="4.88271">
        <ele>277</ele>
        <time>2018-08-20T08:54:51Z</time>
      </trkpt>
      <trkpt lat="45.94322" lon="4.88271">
        <ele>277</ele>
        <time>2018-08-20T08:54:52Z</time>
      </trkpt>
      <trkpt lat="45.94327" lon="4.88272">
        <ele>277</ele>
        <time>2018-08-20T08:54:53Z</time>
      </trkpt>
      <trkpt lat="45.94334" lon="4.88273">
        <ele>276</ele>
        <time>2018-08-20T08:54:54Z</time>
      </trkpt>
      <trkpt lat="45.94339" lon="4.88274">
        <ele>276</ele>
        <time>2018-08-20T08:54:55Z</time>
      </trkpt>
      <trkpt lat="45.94345" lon="4.88273">
        <ele>276</ele>
        <time>2018-08-20T08:54:56Z</time>
      </trkpt>
      <trkpt lat="45.94351" lon="4.88274">
        <ele>276</ele>
        <time>2018-08-20T08:54:57Z</time>
      </trkpt>
      <trkpt lat="45.94357" lon="4.88275">
        <ele>276</ele>
        <time>2018-08-20T08:54:58Z</time>
      </trkpt>
      <trkpt lat="45.94363" lon="4.88276">
        <ele>276</ele>
        <time>2018-08-20T08:54:59Z</time>
      </trkpt>
      <trkpt lat="45.94369" lon="4.88276">
        <ele>276</ele>
        <time>2018-08-20T08:55:00Z</time>
      </trkpt>
      <trkpt lat="45.94376" lon="4.88277">
        <ele>276</ele>
        <time>2018-08-20T08:55:01Z</time>
      </trkpt>
      <trkpt lat="45.94381" lon="4.88277">
        <ele>276</ele>
        <time>2018-08-20T08:55:02Z</time>
      </trkpt>
      <trkpt lat="45.94388" lon="4.88275">
        <ele>276</ele>
        <time>2018-08-20T08:55:03Z</time>
      </trkpt>
      <trkpt lat="45.94396" lon="4.88274">
        <ele>276</ele>
        <time>2018-08-20T08:55:04Z</time>
      </trkpt>
      <trkpt lat="45.94402" lon="4.88274">
        <ele>276</ele>
        <time>2018-08-20T08:55:05Z</time>
      </trkpt>
      <trkpt lat="45.94408" lon="4.88277">
        <ele>276</ele>
        <time>2018-08-20T08:55:06Z</time>
      </trkpt>
      <trkpt lat="45.94414" lon="4.88279">
        <ele>276</ele>
        <time>2018-08-20T08:55:07Z</time>
      </trkpt>
      <trkpt lat="45.94419" lon="4.88277">
        <ele>276</ele>
        <time>2018-08-20T08:55:08Z</time>
      </trkpt>
      <trkpt lat="45.94425" lon="4.88278">
        <ele>276</ele>
        <time>2018-08-20T08:55:09Z</time>
      </trkpt>
      <trkpt lat="45.94434" lon="4.8828">
        <ele>276</ele>
        <time>2018-08-20T08:55:11Z</time>
      </trkpt>
      <trkpt lat="45.94439" lon="4.88281">
        <ele>276</ele>
        <time>2018-08-20T08:55:12Z</time>
      </trkpt>
      <trkpt lat="45.94444" lon="4.88282">
        <ele>276</ele>
        <time>2018-08-20T08:55:13Z</time>
      </trkpt>
      <trkpt lat="45.94449" lon="4.88282">
        <ele>276</ele>
        <time>2018-08-20T08:55:14Z</time>
      </trkpt>
      <trkpt lat="45.94454" lon="4.88283">
        <ele>276</ele>
        <time>2018-08-20T08:55:15Z</time>
      </trkpt>
      <trkpt lat="45.94458" lon="4.88283">
        <ele>276</ele>
        <time>2018-08-20T08:55:16Z</time>
      </trkpt>
      <trkpt lat="45.94463" lon="4.88284">
        <ele>276</ele>
        <time>2018-08-20T08:55:17Z</time>
      </trkpt>
      <trkpt lat="45.94468" lon="4.88285">
        <ele>276</ele>
        <time>2018-08-20T08:55:18Z</time>
      </trkpt>
      <trkpt lat="45.94472" lon="4.88286">
        <ele>276</ele>
        <time>2018-08-20T08:55:19Z</time>
      </trkpt>
      <trkpt lat="45.94477" lon="4.88287">
        <ele>276</ele>
        <time>2018-08-20T08:55:20Z</time>
      </trkpt>
      <trkpt lat="45.94486" lon="4.88287">
        <ele>276</ele>
        <time>2018-08-20T08:55:22Z</time>
      </trkpt>
      <trkpt lat="45.94491" lon="4.88286">
        <ele>276</ele>
        <time>2018-08-20T08:55:23Z</time>
      </trkpt>
      <trkpt lat="45.94495" lon="4.88289">
        <ele>276</ele>
        <time>2018-08-20T08:55:24Z</time>
      </trkpt>
      <trkpt lat="45.945" lon="4.8829">
        <ele>275</ele>
        <time>2018-08-20T08:55:25Z</time>
      </trkpt>
      <trkpt lat="45.94508" lon="4.88291">
        <ele>275</ele>
        <time>2018-08-20T08:55:27Z</time>
      </trkpt>
      <trkpt lat="45.94512" lon="4.88293">
        <ele>275</ele>
        <time>2018-08-20T08:55:28Z</time>
      </trkpt>
      <trkpt lat="45.94518" lon="4.88291">
        <ele>275</ele>
        <time>2018-08-20T08:55:29Z</time>
      </trkpt>
      <trkpt lat="45.94524" lon="4.88291">
        <ele>275</ele>
        <time>2018-08-20T08:55:30Z</time>
      </trkpt>
      <trkpt lat="45.94528" lon="4.88294">
        <ele>275</ele>
        <time>2018-08-20T08:55:31Z</time>
      </trkpt>
      <trkpt lat="45.94533" lon="4.88293">
        <ele>275</ele>
        <time>2018-08-20T08:55:32Z</time>
      </trkpt>
      <trkpt lat="45.94537" lon="4.88296">
        <ele>275</ele>
        <time>2018-08-20T08:55:33Z</time>
      </trkpt>
      <trkpt lat="45.94542" lon="4.88297">
        <ele>275</ele>
        <time>2018-08-20T08:55:34Z</time>
      </trkpt>
      <trkpt lat="45.9455" lon="4.88299">
        <ele>275</ele>
        <time>2018-08-20T08:55:36Z</time>
      </trkpt>
      <trkpt lat="45.94556" lon="4.883">
        <ele>275</ele>
        <time>2018-08-20T08:55:37Z</time>
      </trkpt>
      <trkpt lat="45.94561" lon="4.883">
        <ele>275</ele>
        <time>2018-08-20T08:55:38Z</time>
      </trkpt>
      <trkpt lat="45.94566" lon="4.88301">
        <ele>275</ele>
        <time>2018-08-20T08:55:39Z</time>
      </trkpt>
      <trkpt lat="45.94573" lon="4.88301">
        <ele>275</ele>
        <time>2018-08-20T08:55:40Z</time>
      </trkpt>
      <trkpt lat="45.94578" lon="4.88301">
        <ele>275</ele>
        <time>2018-08-20T08:55:41Z</time>
      </trkpt>
      <trkpt lat="45.94584" lon="4.88305">
        <ele>275</ele>
        <time>2018-08-20T08:55:43Z</time>
      </trkpt>
      <trkpt lat="45.9459" lon="4.88304">
        <ele>275</ele>
        <time>2018-08-20T08:55:44Z</time>
      </trkpt>
      <trkpt lat="45.94594" lon="4.88307">
        <ele>275</ele>
        <time>2018-08-20T08:55:45Z</time>
      </trkpt>
      <trkpt lat="45.946" lon="4.88308">
        <ele>275</ele>
        <time>2018-08-20T08:55:46Z</time>
      </trkpt>
      <trkpt lat="45.94606" lon="4.88314">
        <ele>275</ele>
        <time>2018-08-20T08:55:48Z</time>
      </trkpt>
      <trkpt lat="45.94611" lon="4.88314">
        <ele>275</ele>
        <time>2018-08-20T08:55:49Z</time>
      </trkpt>
      <trkpt lat="45.94617" lon="4.88312">
        <ele>275</ele>
        <time>2018-08-20T08:55:50Z</time>
      </trkpt>
      <trkpt lat="45.94621" lon="4.88315">
        <ele>275</ele>
        <time>2018-08-20T08:55:51Z</time>
      </trkpt>
      <trkpt lat="45.94626" lon="4.88315">
        <ele>276</ele>
        <time>2018-08-20T08:55:52Z</time>
      </trkpt>
      <trkpt lat="45.94632" lon="4.88316">
        <ele>276</ele>
        <time>2018-08-20T08:55:53Z</time>
      </trkpt>
      <trkpt lat="45.94637" lon="4.88315">
        <ele>276</ele>
        <time>2018-08-20T08:55:54Z</time>
      </trkpt>
      <trkpt lat="45.94641" lon="4.88314">
        <ele>276</ele>
        <time>2018-08-20T08:55:55Z</time>
      </trkpt>
      <trkpt lat="45.94648" lon="4.88313">
        <ele>276</ele>
        <time>2018-08-20T08:55:56Z</time>
      </trkpt>
      <trkpt lat="45.94652" lon="4.88313">
        <ele>276</ele>
        <time>2018-08-20T08:55:57Z</time>
      </trkpt>
      <trkpt lat="45.94657" lon="4.88314">
        <ele>276</ele>
        <time>2018-08-20T08:55:58Z</time>
      </trkpt>
      <trkpt lat="45.94663" lon="4.88315">
        <ele>276</ele>
        <time>2018-08-20T08:55:59Z</time>
      </trkpt>
      <trkpt lat="45.94668" lon="4.88316">
        <ele>276</ele>
        <time>2018-08-20T08:56:00Z</time>
      </trkpt>
      <trkpt lat="45.94674" lon="4.88317">
        <ele>276</ele>
        <time>2018-08-20T08:56:01Z</time>
      </trkpt>
      <trkpt lat="45.94679" lon="4.88315">
        <ele>276</ele>
        <time>2018-08-20T08:56:02Z</time>
      </trkpt>
      <trkpt lat="45.94688" lon="4.88314">
        <ele>276</ele>
        <time>2018-08-20T08:56:03Z</time>
      </trkpt>
      <trkpt lat="45.94696" lon="4.88315">
        <ele>276</ele>
        <time>2018-08-20T08:56:05Z</time>
      </trkpt>
      <trkpt lat="45.94703" lon="4.88316">
        <ele>276</ele>
        <time>2018-08-20T08:56:06Z</time>
      </trkpt>
      <trkpt lat="45.94709" lon="4.88321">
        <ele>276</ele>
        <time>2018-08-20T08:56:10Z</time>
      </trkpt>
      <trkpt lat="45.94715" lon="4.88326">
        <ele>276</ele>
        <time>2018-08-20T08:56:11Z</time>
      </trkpt>
      <trkpt lat="45.94721" lon="4.88327">
        <ele>276</ele>
        <time>2018-08-20T08:56:12Z</time>
      </trkpt>
      <trkpt lat="45.94725" lon="4.88331">
        <ele>277</ele>
        <time>2018-08-20T08:56:13Z</time>
      </trkpt>
      <trkpt lat="45.94726" lon="4.88331">
        <ele>277</ele>
        <time>2018-08-20T08:56:14Z</time>
      </trkpt>
      <trkpt lat="45.94732" lon="4.8834">
        <ele>277</ele>
        <time>2018-08-20T08:56:15Z</time>
      </trkpt>
      <trkpt lat="45.94739" lon="4.88347">
        <ele>277</ele>
        <time>2018-08-20T08:56:17Z</time>
      </trkpt>
      <trkpt lat="45.94746" lon="4.88338">
        <ele>277</ele>
        <time>2018-08-20T08:56:18Z</time>
      </trkpt>
      <trkpt lat="45.94748" lon="4.88336">
        <ele>277</ele>
        <time>2018-08-20T08:56:19Z</time>
      </trkpt>
      <trkpt lat="45.94758" lon="4.88329">
        <ele>277</ele>
        <time>2018-08-20T08:56:20Z</time>
      </trkpt>
      <trkpt lat="45.94765" lon="4.8833">
        <ele>277</ele>
        <time>2018-08-20T08:56:22Z</time>
      </trkpt>
      <trkpt lat="45.94768" lon="4.88332">
        <ele>277</ele>
        <time>2018-08-20T08:56:23Z</time>
      </trkpt>
      <trkpt lat="45.94772" lon="4.88336">
        <ele>278</ele>
        <time>2018-08-20T08:56:24Z</time>
      </trkpt>
      <trkpt lat="45.94778" lon="4.88335">
        <ele>278</ele>
        <time>2018-08-20T08:56:25Z</time>
      </trkpt>
      <trkpt lat="45.94786" lon="4.88335">
        <ele>278</ele>
        <time>2018-08-20T08:56:27Z</time>
      </trkpt>
      <trkpt lat="45.94791" lon="4.88336">
        <ele>278</ele>
        <time>2018-08-20T08:56:28Z</time>
      </trkpt>
      <trkpt lat="45.94799" lon="4.88338">
        <ele>278</ele>
        <time>2018-08-20T08:56:30Z</time>
      </trkpt>
      <trkpt lat="45.94802" lon="4.8834">
        <ele>278</ele>
        <time>2018-08-20T08:56:31Z</time>
      </trkpt>
      <trkpt lat="45.94809" lon="4.88339">
        <ele>278</ele>
        <time>2018-08-20T08:56:33Z</time>
      </trkpt>
      <trkpt lat="45.94815" lon="4.88338">
        <ele>278</ele>
        <time>2018-08-20T08:56:34Z</time>
      </trkpt>
      <trkpt lat="45.94818" lon="4.88339">
        <ele>278</ele>
        <time>2018-08-20T08:56:36Z</time>
      </trkpt>
      <trkpt lat="45.94824" lon="4.88339">
        <ele>279</ele>
        <time>2018-08-20T08:56:37Z</time>
      </trkpt>
      <trkpt lat="45.94831" lon="4.88338">
        <ele>279</ele>
        <time>2018-08-20T08:56:40Z</time>
      </trkpt>
      <trkpt lat="45.94833" lon="4.88337">
        <ele>279</ele>
        <time>2018-08-20T08:56:41Z</time>
      </trkpt>
      <trkpt lat="45.94842" lon="4.88335">
        <ele>279</ele>
        <time>2018-08-20T08:56:44Z</time>
      </trkpt>
      <trkpt lat="45.94845" lon="4.88335">
        <ele>279</ele>
        <time>2018-08-20T08:56:45Z</time>
      </trkpt>
      <trkpt lat="45.94853" lon="4.88333">
        <ele>280</ele>
        <time>2018-08-20T08:56:48Z</time>
      </trkpt>
      <trkpt lat="45.94856" lon="4.88333">
        <ele>280</ele>
        <time>2018-08-20T08:56:49Z</time>
      </trkpt>
      <trkpt lat="45.94862" lon="4.88332">
        <ele>280</ele>
        <time>2018-08-20T08:56:51Z</time>
      </trkpt>
      <trkpt lat="45.94866" lon="4.88332">
        <ele>280</ele>
        <time>2018-08-20T08:56:52Z</time>
      </trkpt>
      <trkpt lat="45.94872" lon="4.88331">
        <ele>280</ele>
        <time>2018-08-20T08:56:54Z</time>
      </trkpt>
      <trkpt lat="45.94875" lon="4.8833">
        <ele>280</ele>
        <time>2018-08-20T08:56:55Z</time>
      </trkpt>
      <trkpt lat="45.94881" lon="4.88329">
        <ele>281</ele>
        <time>2018-08-20T08:56:57Z</time>
      </trkpt>
      <trkpt lat="45.94884" lon="4.88329">
        <ele>281</ele>
        <time>2018-08-20T08:56:58Z</time>
      </trkpt>
      <trkpt lat="45.9489" lon="4.88328">
        <ele>281</ele>
        <time>2018-08-20T08:57:00Z</time>
      </trkpt>
      <trkpt lat="45.94899" lon="4.88325">
        <ele>281</ele>
        <time>2018-08-20T08:57:01Z</time>
      </trkpt>
      <trkpt lat="45.94906" lon="4.88321">
        <ele>281</ele>
        <time>2018-08-20T08:57:03Z</time>
      </trkpt>
      <trkpt lat="45.94908" lon="4.8832">
        <ele>281</ele>
        <time>2018-08-20T08:57:04Z</time>
      </trkpt>
      <trkpt lat="45.9491" lon="4.88319">
        <ele>281</ele>
        <time>2018-08-20T08:57:05Z</time>
      </trkpt>
      <trkpt lat="45.94916" lon="4.88315">
        <ele>281</ele>
        <time>2018-08-20T08:57:06Z</time>
      </trkpt>
      <trkpt lat="45.94924" lon="4.8831">
        <ele>283</ele>
        <time>2018-08-20T08:57:08Z</time>
      </trkpt>
      <trkpt lat="45.94926" lon="4.88309">
        <ele>283</ele>
        <time>2018-08-20T08:57:09Z</time>
      </trkpt>
      <trkpt lat="45.94932" lon="4.88306">
        <ele>283</ele>
        <time>2018-08-20T08:57:10Z</time>
      </trkpt>
      <trkpt lat="45.94936" lon="4.88304">
        <ele>283</ele>
        <time>2018-08-20T08:57:11Z</time>
      </trkpt>
      <trkpt lat="45.9494" lon="4.88302">
        <ele>283</ele>
        <time>2018-08-20T08:57:13Z</time>
      </trkpt>
      <trkpt lat="45.94947" lon="4.88299">
        <ele>283</ele>
        <time>2018-08-20T08:57:14Z</time>
      </trkpt>
      <trkpt lat="45.94955" lon="4.88295">
        <ele>283</ele>
        <time>2018-08-20T08:57:16Z</time>
      </trkpt>
      <trkpt lat="45.94957" lon="4.88295">
        <ele>283</ele>
        <time>2018-08-20T08:57:17Z</time>
      </trkpt>
      <trkpt lat="45.94963" lon="4.88292">
        <ele>283</ele>
        <time>2018-08-20T08:57:18Z</time>
      </trkpt>
      <trkpt lat="45.94967" lon="4.88289">
        <ele>283</ele>
        <time>2018-08-20T08:57:19Z</time>
      </trkpt>
      <trkpt lat="45.94971" lon="4.88287">
        <ele>283</ele>
        <time>2018-08-20T08:57:20Z</time>
      </trkpt>
      <trkpt lat="45.94975" lon="4.88285">
        <ele>283</ele>
        <time>2018-08-20T08:57:21Z</time>
      </trkpt>
      <trkpt lat="45.94982" lon="4.88282">
        <ele>283</ele>
        <time>2018-08-20T08:57:23Z</time>
      </trkpt>
      <trkpt lat="45.94984" lon="4.88281">
        <ele>283</ele>
        <time>2018-08-20T08:57:24Z</time>
      </trkpt>
      <trkpt lat="45.9499" lon="4.88279">
        <ele>283</ele>
        <time>2018-08-20T08:57:25Z</time>
      </trkpt>
      <trkpt lat="45.94994" lon="4.88277">
        <ele>283</ele>
        <time>2018-08-20T08:57:26Z</time>
      </trkpt>
      <trkpt lat="45.95002" lon="4.88274">
        <ele>285</ele>
        <time>2018-08-20T08:57:28Z</time>
      </trkpt>
      <trkpt lat="45.95006" lon="4.88273">
        <ele>285</ele>
        <time>2018-08-20T08:57:29Z</time>
      </trkpt>
      <trkpt lat="45.95013" lon="4.8827">
        <ele>285</ele>
        <time>2018-08-20T08:57:31Z</time>
      </trkpt>
      <trkpt lat="45.95017" lon="4.88269">
        <ele>285</ele>
        <time>2018-08-20T08:57:32Z</time>
      </trkpt>
      <trkpt lat="45.95025" lon="4.88265">
        <ele>285</ele>
        <time>2018-08-20T08:57:34Z</time>
      </trkpt>
      <trkpt lat="45.9503" lon="4.88262">
        <ele>285</ele>
        <time>2018-08-20T08:57:35Z</time>
      </trkpt>
      <trkpt lat="45.95038" lon="4.8826">
        <ele>285</ele>
        <time>2018-08-20T08:57:38Z</time>
      </trkpt>
      <trkpt lat="45.95039" lon="4.8826">
        <ele>285</ele>
        <time>2018-08-20T08:57:39Z</time>
      </trkpt>
      <trkpt lat="45.95047" lon="4.88257">
        <ele>286</ele>
        <time>2018-08-20T08:57:42Z</time>
      </trkpt>
      <trkpt lat="45.9505" lon="4.88257">
        <ele>286</ele>
        <time>2018-08-20T08:57:43Z</time>
      </trkpt>
      <trkpt lat="45.95052" lon="4.88257">
        <ele>286</ele>
        <time>2018-08-20T08:57:44Z</time>
      </trkpt>
      <trkpt lat="45.95061" lon="4.88254">
        <ele>286</ele>
        <time>2018-08-20T08:57:45Z</time>
      </trkpt>
      <trkpt lat="45.95067" lon="4.88253">
        <ele>286</ele>
        <time>2018-08-20T08:57:47Z</time>
      </trkpt>
      <trkpt lat="45.95071" lon="4.88252">
        <ele>286</ele>
        <time>2018-08-20T08:57:48Z</time>
      </trkpt>
      <trkpt lat="45.95079" lon="4.88248">
        <ele>287</ele>
        <time>2018-08-20T08:57:51Z</time>
      </trkpt>
      <trkpt lat="45.95081" lon="4.88247">
        <ele>287</ele>
        <time>2018-08-20T08:57:52Z</time>
      </trkpt>
      <trkpt lat="45.95089" lon="4.88244">
        <ele>287</ele>
        <time>2018-08-20T08:57:53Z</time>
      </trkpt>
      <trkpt lat="45.95092" lon="4.88243">
        <ele>287</ele>
        <time>2018-08-20T08:57:54Z</time>
      </trkpt>
      <trkpt lat="45.95097" lon="4.8824">
        <ele>287</ele>
        <time>2018-08-20T08:57:56Z</time>
      </trkpt>
      <trkpt lat="45.95102" lon="4.88237">
        <ele>287</ele>
        <time>2018-08-20T08:57:57Z</time>
      </trkpt>
      <trkpt lat="45.9511" lon="4.88233">
        <ele>287</ele>
        <time>2018-08-20T08:58:02Z</time>
      </trkpt>
      <trkpt lat="45.95112" lon="4.88233">
        <ele>287</ele>
        <time>2018-08-20T08:58:03Z</time>
      </trkpt>
      <trkpt lat="45.95115" lon="4.88232">
        <ele>287</ele>
        <time>2018-08-20T08:58:04Z</time>
      </trkpt>
      <trkpt lat="45.95122" lon="4.88229">
        <ele>287</ele>
        <time>2018-08-20T08:58:05Z</time>
      </trkpt>
      <trkpt lat="45.95127" lon="4.88221">
        <ele>287</ele>
        <time>2018-08-20T08:58:07Z</time>
      </trkpt>
      <trkpt lat="45.95128" lon="4.88212">
        <ele>287</ele>
        <time>2018-08-20T08:58:08Z</time>
      </trkpt>
      <trkpt lat="45.9513" lon="4.88206">
        <ele>287</ele>
        <time>2018-08-20T08:58:09Z</time>
      </trkpt>
      <trkpt lat="45.95132" lon="4.88197">
        <ele>287</ele>
        <time>2018-08-20T08:58:10Z</time>
      </trkpt>
      <trkpt lat="45.95136" lon="4.8819">
        <ele>286</ele>
        <time>2018-08-20T08:58:11Z</time>
      </trkpt>
      <trkpt lat="45.95142" lon="4.88186">
        <ele>286</ele>
        <time>2018-08-20T08:58:12Z</time>
      </trkpt>
      <trkpt lat="45.95146" lon="4.88182">
        <ele>286</ele>
        <time>2018-08-20T08:58:13Z</time>
      </trkpt>
      <trkpt lat="45.95151" lon="4.88179">
        <ele>286</ele>
        <time>2018-08-20T08:58:14Z</time>
      </trkpt>
      <trkpt lat="45.95159" lon="4.88176">
        <ele>286</ele>
        <time>2018-08-20T08:58:15Z</time>
      </trkpt>
      <trkpt lat="45.95164" lon="4.88174">
        <ele>286</ele>
        <time>2018-08-20T08:58:16Z</time>
      </trkpt>
      <trkpt lat="45.95169" lon="4.88172">
        <ele>285</ele>
        <time>2018-08-20T08:58:17Z</time>
      </trkpt>
      <trkpt lat="45.95173" lon="4.8817">
        <ele>285</ele>
        <time>2018-08-20T08:58:18Z</time>
      </trkpt>
      <trkpt lat="45.95178" lon="4.8817">
        <ele>285</ele>
        <time>2018-08-20T08:58:19Z</time>
      </trkpt>
      <trkpt lat="45.95186" lon="4.88162">
        <ele>283</ele>
        <time>2018-08-20T08:58:20Z</time>
      </trkpt>
      <trkpt lat="45.95189" lon="4.88166">
        <ele>283</ele>
        <time>2018-08-20T08:58:21Z</time>
      </trkpt>
      <trkpt lat="45.95194" lon="4.88167">
        <ele>285</ele>
        <time>2018-08-20T08:58:22Z</time>
      </trkpt>
      <trkpt lat="45.952" lon="4.88165">
        <ele>283</ele>
        <time>2018-08-20T08:58:23Z</time>
      </trkpt>
      <trkpt lat="45.95213" lon="4.88156">
        <ele>282</ele>
        <time>2018-08-20T08:58:24Z</time>
      </trkpt>
      <trkpt lat="45.9522" lon="4.88164">
        <ele>282</ele>
        <time>2018-08-20T08:58:26Z</time>
      </trkpt>
      <trkpt lat="45.95225" lon="4.88166">
        <ele>282</ele>
        <time>2018-08-20T08:58:27Z</time>
      </trkpt>
      <trkpt lat="45.95232" lon="4.88164">
        <ele>282</ele>
        <time>2018-08-20T08:58:28Z</time>
      </trkpt>
      <trkpt lat="45.9524" lon="4.88163">
        <ele>281</ele>
        <time>2018-08-20T08:58:29Z</time>
      </trkpt>
      <trkpt lat="45.95249" lon="4.88158">
        <ele>281</ele>
        <time>2018-08-20T08:58:30Z</time>
      </trkpt>
      <trkpt lat="45.95254" lon="4.88159">
        <ele>280</ele>
        <time>2018-08-20T08:58:31Z</time>
      </trkpt>
      <trkpt lat="45.9526" lon="4.88159">
        <ele>280</ele>
        <time>2018-08-20T08:58:32Z</time>
      </trkpt>
      <trkpt lat="45.95268" lon="4.8816">
        <ele>280</ele>
        <time>2018-08-20T08:58:33Z</time>
      </trkpt>
      <trkpt lat="45.95266" lon="4.8817">
        <ele>281</ele>
        <time>2018-08-20T08:58:34Z</time>
      </trkpt>
      <trkpt lat="45.95273" lon="4.88171">
        <ele>281</ele>
        <time>2018-08-20T08:58:35Z</time>
      </trkpt>
      <trkpt lat="45.95279" lon="4.88173">
        <ele>281</ele>
        <time>2018-08-20T08:58:36Z</time>
      </trkpt>
      <trkpt lat="45.95287" lon="4.88174">
        <ele>281</ele>
        <time>2018-08-20T08:58:37Z</time>
      </trkpt>
      <trkpt lat="45.95294" lon="4.88174">
        <ele>281</ele>
        <time>2018-08-20T08:58:38Z</time>
      </trkpt>
      <trkpt lat="45.95301" lon="4.88174">
        <ele>281</ele>
        <time>2018-08-20T08:58:39Z</time>
      </trkpt>
      <trkpt lat="45.95308" lon="4.88174">
        <ele>280</ele>
        <time>2018-08-20T08:58:40Z</time>
      </trkpt>
      <trkpt lat="45.95316" lon="4.88175">
        <ele>280</ele>
        <time>2018-08-20T08:58:41Z</time>
      </trkpt>
      <trkpt lat="45.95324" lon="4.88174">
        <ele>279</ele>
        <time>2018-08-20T08:58:42Z</time>
      </trkpt>
      <trkpt lat="45.95333" lon="4.88174">
        <ele>279</ele>
        <time>2018-08-20T08:58:43Z</time>
      </trkpt>
      <trkpt lat="45.9534" lon="4.88173">
        <ele>278</ele>
        <time>2018-08-20T08:58:44Z</time>
      </trkpt>
      <trkpt lat="45.9535" lon="4.8817">
        <ele>278</ele>
        <time>2018-08-20T08:58:45Z</time>
      </trkpt>
      <trkpt lat="45.95358" lon="4.88168">
        <ele>278</ele>
        <time>2018-08-20T08:58:46Z</time>
      </trkpt>
      <trkpt lat="45.95368" lon="4.88167">
        <ele>278</ele>
        <time>2018-08-20T08:58:47Z</time>
      </trkpt>
      <trkpt lat="45.95374" lon="4.88165">
        <ele>276</ele>
        <time>2018-08-20T08:58:48Z</time>
      </trkpt>
      <trkpt lat="45.95379" lon="4.88164">
        <ele>276</ele>
        <time>2018-08-20T08:58:49Z</time>
      </trkpt>
      <trkpt lat="45.9539" lon="4.88157">
        <ele>276</ele>
        <time>2018-08-20T08:58:50Z</time>
      </trkpt>
      <trkpt lat="45.95397" lon="4.88153">
        <ele>276</ele>
        <time>2018-08-20T08:58:51Z</time>
      </trkpt>
      <trkpt lat="45.95401" lon="4.88151">
        <ele>276</ele>
        <time>2018-08-20T08:58:52Z</time>
      </trkpt>
      <trkpt lat="45.95411" lon="4.88149">
        <ele>276</ele>
        <time>2018-08-20T08:58:53Z</time>
      </trkpt>
      <trkpt lat="45.95418" lon="4.88147">
        <ele>276</ele>
        <time>2018-08-20T08:58:56Z</time>
      </trkpt>
      <trkpt lat="45.95421" lon="4.8815">
        <ele>276</ele>
        <time>2018-08-20T08:58:57Z</time>
      </trkpt>
      <trkpt lat="45.95426" lon="4.88146">
        <ele>276</ele>
        <time>2018-08-20T08:58:58Z</time>
      </trkpt>
      <trkpt lat="45.95429" lon="4.88144">
        <ele>276</ele>
        <time>2018-08-20T08:58:59Z</time>
      </trkpt>
      <trkpt lat="45.95437" lon="4.88142">
        <ele>276</ele>
        <time>2018-08-20T08:59:01Z</time>
      </trkpt>
      <trkpt lat="45.95441" lon="4.8814">
        <ele>276</ele>
        <time>2018-08-20T08:59:02Z</time>
      </trkpt>
      <trkpt lat="45.95447" lon="4.88139">
        <ele>276</ele>
        <time>2018-08-20T08:59:04Z</time>
      </trkpt>
      <trkpt lat="45.95452" lon="4.88135">
        <ele>276</ele>
        <time>2018-08-20T08:59:05Z</time>
      </trkpt>
      <trkpt lat="45.9546" lon="4.88132">
        <ele>276</ele>
        <time>2018-08-20T08:59:07Z</time>
      </trkpt>
      <trkpt lat="45.95465" lon="4.88131">
        <ele>276</ele>
        <time>2018-08-20T08:59:08Z</time>
      </trkpt>
      <trkpt lat="45.9547" lon="4.88128">
        <ele>276</ele>
        <time>2018-08-20T08:59:09Z</time>
      </trkpt>
      <trkpt lat="45.95476" lon="4.88124">
        <ele>276</ele>
        <time>2018-08-20T08:59:10Z</time>
      </trkpt>
      <trkpt lat="45.95481" lon="4.88121">
        <ele>276</ele>
        <time>2018-08-20T08:59:11Z</time>
      </trkpt>
      <trkpt lat="45.95488" lon="4.88116">
        <ele>276</ele>
        <time>2018-08-20T08:59:12Z</time>
      </trkpt>
      <trkpt lat="45.95492" lon="4.88114">
        <ele>276</ele>
        <time>2018-08-20T08:59:13Z</time>
      </trkpt>
      <trkpt lat="45.95497" lon="4.88113">
        <ele>276</ele>
        <time>2018-08-20T08:59:14Z</time>
      </trkpt>
      <trkpt lat="45.95502" lon="4.8811">
        <ele>276</ele>
        <time>2018-08-20T08:59:15Z</time>
      </trkpt>
      <trkpt lat="45.95505" lon="4.88108">
        <ele>276</ele>
        <time>2018-08-20T08:59:16Z</time>
      </trkpt>
      <trkpt lat="45.95513" lon="4.88104">
        <ele>276</ele>
        <time>2018-08-20T08:59:18Z</time>
      </trkpt>
      <trkpt lat="45.95518" lon="4.88102">
        <ele>276</ele>
        <time>2018-08-20T08:59:19Z</time>
      </trkpt>
      <trkpt lat="45.95522" lon="4.881">
        <ele>276</ele>
        <time>2018-08-20T08:59:20Z</time>
      </trkpt>
      <trkpt lat="45.95527" lon="4.881">
        <ele>277</ele>
        <time>2018-08-20T08:59:21Z</time>
      </trkpt>
      <trkpt lat="45.95531" lon="4.88098">
        <ele>277</ele>
        <time>2018-08-20T08:59:22Z</time>
      </trkpt>
      <trkpt lat="45.95535" lon="4.88094">
        <ele>277</ele>
        <time>2018-08-20T08:59:23Z</time>
      </trkpt>
      <trkpt lat="45.95541" lon="4.88095">
        <ele>277</ele>
        <time>2018-08-20T08:59:25Z</time>
      </trkpt>
      <trkpt lat="45.95545" lon="4.88094">
        <ele>277</ele>
        <time>2018-08-20T08:59:26Z</time>
      </trkpt>
      <trkpt lat="45.95552" lon="4.88087">
        <ele>277</ele>
        <time>2018-08-20T08:59:28Z</time>
      </trkpt>
      <trkpt lat="45.95556" lon="4.88085">
        <ele>277</ele>
        <time>2018-08-20T08:59:29Z</time>
      </trkpt>
      <trkpt lat="45.95562" lon="4.88083">
        <ele>276</ele>
        <time>2018-08-20T08:59:31Z</time>
      </trkpt>
      <trkpt lat="45.95566" lon="4.8808">
        <ele>276</ele>
        <time>2018-08-20T08:59:32Z</time>
      </trkpt>
      <trkpt lat="45.95574" lon="4.88075">
        <ele>277</ele>
        <time>2018-08-20T08:59:34Z</time>
      </trkpt>
      <trkpt lat="45.95577" lon="4.88072">
        <ele>277</ele>
        <time>2018-08-20T08:59:35Z</time>
      </trkpt>
      <trkpt lat="45.95581" lon="4.88069">
        <ele>276</ele>
        <time>2018-08-20T08:59:36Z</time>
      </trkpt>
      <trkpt lat="45.95587" lon="4.88064">
        <ele>278</ele>
        <time>2018-08-20T08:59:37Z</time>
      </trkpt>
      <trkpt lat="45.95593" lon="4.88061">
        <ele>278</ele>
        <time>2018-08-20T08:59:39Z</time>
      </trkpt>
      <trkpt lat="45.95597" lon="4.88059">
        <ele>278</ele>
        <time>2018-08-20T08:59:40Z</time>
      </trkpt>
      <trkpt lat="45.95602" lon="4.88054">
        <ele>278</ele>
        <time>2018-08-20T08:59:41Z</time>
      </trkpt>
      <trkpt lat="45.95606" lon="4.88049">
        <ele>278</ele>
        <time>2018-08-20T08:59:42Z</time>
      </trkpt>
      <trkpt lat="45.9561" lon="4.88044">
        <ele>278</ele>
        <time>2018-08-20T08:59:43Z</time>
      </trkpt>
      <trkpt lat="45.95614" lon="4.88041">
        <ele>278</ele>
        <time>2018-08-20T08:59:44Z</time>
      </trkpt>
      <trkpt lat="45.95617" lon="4.88038">
        <ele>278</ele>
        <time>2018-08-20T08:59:45Z</time>
      </trkpt>
      <trkpt lat="45.95622" lon="4.88034">
        <ele>278</ele>
        <time>2018-08-20T08:59:46Z</time>
      </trkpt>
      <trkpt lat="45.95627" lon="4.88031">
        <ele>279</ele>
        <time>2018-08-20T08:59:47Z</time>
      </trkpt>
      <trkpt lat="45.95631" lon="4.88027">
        <ele>279</ele>
        <time>2018-08-20T08:59:48Z</time>
      </trkpt>
      <trkpt lat="45.95637" lon="4.88021">
        <ele>279</ele>
        <time>2018-08-20T08:59:50Z</time>
      </trkpt>
      <trkpt lat="45.9564" lon="4.88018">
        <ele>279</ele>
        <time>2018-08-20T08:59:51Z</time>
      </trkpt>
      <trkpt lat="45.95646" lon="4.88014">
        <ele>279</ele>
        <time>2018-08-20T08:59:53Z</time>
      </trkpt>
      <trkpt lat="45.9565" lon="4.8801">
        <ele>280</ele>
        <time>2018-08-20T08:59:54Z</time>
      </trkpt>
      <trkpt lat="45.95656" lon="4.88005">
        <ele>280</ele>
        <time>2018-08-20T08:59:56Z</time>
      </trkpt>
      <trkpt lat="45.95658" lon="4.88003">
        <ele>280</ele>
        <time>2018-08-20T08:59:57Z</time>
      </trkpt>
      <trkpt lat="45.9566" lon="4.88">
        <ele>280</ele>
        <time>2018-08-20T08:59:58Z</time>
      </trkpt>
      <trkpt lat="45.95666" lon="4.87994">
        <ele>280</ele>
        <time>2018-08-20T08:59:59Z</time>
      </trkpt>
      <trkpt lat="45.95673" lon="4.87987">
        <ele>282</ele>
        <time>2018-08-20T09:00:03Z</time>
      </trkpt>
      <trkpt lat="45.95676" lon="4.87984">
        <ele>282</ele>
        <time>2018-08-20T09:00:04Z</time>
      </trkpt>
      <trkpt lat="45.95682" lon="4.87977">
        <ele>282</ele>
        <time>2018-08-20T09:00:07Z</time>
      </trkpt>
      <trkpt lat="45.95685" lon="4.87975">
        <ele>282</ele>
        <time>2018-08-20T09:00:08Z</time>
      </trkpt>
      <trkpt lat="45.95692" lon="4.87968">
        <ele>282</ele>
        <time>2018-08-20T09:00:11Z</time>
      </trkpt>
      <trkpt lat="45.95694" lon="4.87966">
        <ele>282</ele>
        <time>2018-08-20T09:00:12Z</time>
      </trkpt>
      <trkpt lat="45.95701" lon="4.87959">
        <ele>283</ele>
        <time>2018-08-20T09:00:15Z</time>
      </trkpt>
      <trkpt lat="45.95703" lon="4.87957">
        <ele>283</ele>
        <time>2018-08-20T09:00:16Z</time>
      </trkpt>
      <trkpt lat="45.95708" lon="4.87952">
        <ele>283</ele>
        <time>2018-08-20T09:00:18Z</time>
      </trkpt>
      <trkpt lat="45.95711" lon="4.8795">
        <ele>283</ele>
        <time>2018-08-20T09:00:19Z</time>
      </trkpt>
      <trkpt lat="45.9572" lon="4.87942">
        <ele>283</ele>
        <time>2018-08-20T09:00:20Z</time>
      </trkpt>
      <trkpt lat="45.95726" lon="4.87937">
        <ele>283</ele>
        <time>2018-08-20T09:00:23Z</time>
      </trkpt>
      <trkpt lat="45.95728" lon="4.87935">
        <ele>283</ele>
        <time>2018-08-20T09:00:24Z</time>
      </trkpt>
      <trkpt lat="45.95735" lon="4.8793">
        <ele>284</ele>
        <time>2018-08-20T09:00:27Z</time>
      </trkpt>
      <trkpt lat="45.95737" lon="4.87928">
        <ele>284</ele>
        <time>2018-08-20T09:00:28Z</time>
      </trkpt>
      <trkpt lat="45.95745" lon="4.8792">
        <ele>284</ele>
        <time>2018-08-20T09:00:29Z</time>
      </trkpt>
      <trkpt lat="45.9575" lon="4.87913">
        <ele>285</ele>
        <time>2018-08-20T09:00:32Z</time>
      </trkpt>
      <trkpt lat="45.95753" lon="4.87911">
        <ele>285</ele>
        <time>2018-08-20T09:00:33Z</time>
      </trkpt>
      <trkpt lat="45.9576" lon="4.87907">
        <ele>286</ele>
        <time>2018-08-20T09:00:36Z</time>
      </trkpt>
      <trkpt lat="45.95762" lon="4.87905">
        <ele>286</ele>
        <time>2018-08-20T09:00:37Z</time>
      </trkpt>
      <trkpt lat="45.95769" lon="4.87901">
        <ele>286</ele>
        <time>2018-08-20T09:00:40Z</time>
      </trkpt>
      <trkpt lat="45.95772" lon="4.879">
        <ele>286</ele>
        <time>2018-08-20T09:00:41Z</time>
      </trkpt>
      <trkpt lat="45.95779" lon="4.87896">
        <ele>286</ele>
        <time>2018-08-20T09:00:44Z</time>
      </trkpt>
      <trkpt lat="45.95781" lon="4.87894">
        <ele>286</ele>
        <time>2018-08-20T09:00:45Z</time>
      </trkpt>
      <trkpt lat="45.95789" lon="4.87891">
        <ele>286</ele>
        <time>2018-08-20T09:00:48Z</time>
      </trkpt>
      <trkpt lat="45.95791" lon="4.8789">
        <ele>286</ele>
        <time>2018-08-20T09:00:49Z</time>
      </trkpt>
      <trkpt lat="45.958" lon="4.87887">
        <ele>287</ele>
        <time>2018-08-20T09:00:52Z</time>
      </trkpt>
      <trkpt lat="45.95803" lon="4.87886">
        <ele>287</ele>
        <time>2018-08-20T09:00:53Z</time>
      </trkpt>
      <trkpt lat="45.95809" lon="4.87883">
        <ele>287</ele>
        <time>2018-08-20T09:00:55Z</time>
      </trkpt>
      <trkpt lat="45.95812" lon="4.87882">
        <ele>287</ele>
        <time>2018-08-20T09:00:56Z</time>
      </trkpt>
      <trkpt lat="45.95818" lon="4.87879">
        <ele>287</ele>
        <time>2018-08-20T09:00:58Z</time>
      </trkpt>
      <trkpt lat="45.95821" lon="4.87878">
        <ele>287</ele>
        <time>2018-08-20T09:00:59Z</time>
      </trkpt>
      <trkpt lat="45.95829" lon="4.87877">
        <ele>287</ele>
        <time>2018-08-20T09:01:02Z</time>
      </trkpt>
      <trkpt lat="45.95831" lon="4.87876">
        <ele>287</ele>
        <time>2018-08-20T09:01:03Z</time>
      </trkpt>
      <trkpt lat="45.9584" lon="4.87871">
        <ele>289</ele>
        <time>2018-08-20T09:01:04Z</time>
      </trkpt>
      <trkpt lat="45.95847" lon="4.87863">
        <ele>289</ele>
        <time>2018-08-20T09:01:06Z</time>
      </trkpt>
      <trkpt lat="45.9585" lon="4.87859">
        <ele>289</ele>
        <time>2018-08-20T09:01:07Z</time>
      </trkpt>
      <trkpt lat="45.95855" lon="4.87851">
        <ele>289</ele>
        <time>2018-08-20T09:01:08Z</time>
      </trkpt>
      <trkpt lat="45.95859" lon="4.87846">
        <ele>289</ele>
        <time>2018-08-20T09:01:09Z</time>
      </trkpt>
      <trkpt lat="45.95865" lon="4.87839">
        <ele>289</ele>
        <time>2018-08-20T09:01:11Z</time>
      </trkpt>
      <trkpt lat="45.95869" lon="4.87836">
        <ele>289</ele>
        <time>2018-08-20T09:01:12Z</time>
      </trkpt>
      <trkpt lat="45.95873" lon="4.87835">
        <ele>289</ele>
        <time>2018-08-20T09:01:13Z</time>
      </trkpt>
      <trkpt lat="45.95877" lon="4.87831">
        <ele>288</ele>
        <time>2018-08-20T09:01:14Z</time>
      </trkpt>
      <trkpt lat="45.95882" lon="4.87821">
        <ele>288</ele>
        <time>2018-08-20T09:01:15Z</time>
      </trkpt>
      <trkpt lat="45.95885" lon="4.87819">
        <ele>288</ele>
        <time>2018-08-20T09:01:16Z</time>
      </trkpt>
      <trkpt lat="45.95888" lon="4.8781">
        <ele>288</ele>
        <time>2018-08-20T09:01:17Z</time>
      </trkpt>
      <trkpt lat="45.95896" lon="4.8781">
        <ele>288</ele>
        <time>2018-08-20T09:01:18Z</time>
      </trkpt>
      <trkpt lat="45.959" lon="4.87804">
        <ele>288</ele>
        <time>2018-08-20T09:01:19Z</time>
      </trkpt>
      <trkpt lat="45.959" lon="4.87797">
        <ele>288</ele>
        <time>2018-08-20T09:01:20Z</time>
      </trkpt>
      <trkpt lat="45.95904" lon="4.8779">
        <ele>288</ele>
        <time>2018-08-20T09:01:22Z</time>
      </trkpt>
      <trkpt lat="45.95906" lon="4.87786">
        <ele>288</ele>
        <time>2018-08-20T09:01:23Z</time>
      </trkpt>
      <trkpt lat="45.95909" lon="4.87779">
        <ele>288</ele>
        <time>2018-08-20T09:01:26Z</time>
      </trkpt>
      <trkpt lat="45.95913" lon="4.87774">
        <ele>288</ele>
        <time>2018-08-20T09:01:27Z</time>
      </trkpt>
      <trkpt lat="45.95919" lon="4.87766">
        <ele>288</ele>
        <time>2018-08-20T09:01:29Z</time>
      </trkpt>
      <trkpt lat="45.95921" lon="4.87761">
        <ele>288</ele>
        <time>2018-08-20T09:01:30Z</time>
      </trkpt>
      <trkpt lat="45.95927" lon="4.87752">
        <ele>288</ele>
        <time>2018-08-20T09:01:32Z</time>
      </trkpt>
      <trkpt lat="45.9593" lon="4.87748">
        <ele>288</ele>
        <time>2018-08-20T09:01:33Z</time>
      </trkpt>
      <trkpt lat="45.95934" lon="4.87742">
        <ele>288</ele>
        <time>2018-08-20T09:01:35Z</time>
      </trkpt>
      <trkpt lat="45.95937" lon="4.87736">
        <ele>288</ele>
        <time>2018-08-20T09:01:36Z</time>
      </trkpt>
      <trkpt lat="45.95942" lon="4.87727">
        <ele>289</ele>
        <time>2018-08-20T09:01:38Z</time>
      </trkpt>
      <trkpt lat="45.95945" lon="4.87722">
        <ele>289</ele>
        <time>2018-08-20T09:01:39Z</time>
      </trkpt>
      <trkpt lat="45.95948" lon="4.87717">
        <ele>289</ele>
        <time>2018-08-20T09:01:40Z</time>
      </trkpt>
      <trkpt lat="45.95952" lon="4.87712">
        <ele>289</ele>
        <time>2018-08-20T09:01:41Z</time>
      </trkpt>
      <trkpt lat="45.95958" lon="4.87703">
        <ele>289</ele>
        <time>2018-08-20T09:01:43Z</time>
      </trkpt>
      <trkpt lat="45.95961" lon="4.877">
        <ele>289</ele>
        <time>2018-08-20T09:01:44Z</time>
      </trkpt>
      <trkpt lat="45.95967" lon="4.87694">
        <ele>289</ele>
        <time>2018-08-20T09:01:46Z</time>
      </trkpt>
      <trkpt lat="45.95971" lon="4.87691">
        <ele>289</ele>
        <time>2018-08-20T09:01:47Z</time>
      </trkpt>
      <trkpt lat="45.95974" lon="4.87685">
        <ele>289</ele>
        <time>2018-08-20T09:01:48Z</time>
      </trkpt>
      <trkpt lat="45.95978" lon="4.87682">
        <ele>289</ele>
        <time>2018-08-20T09:01:49Z</time>
      </trkpt>
      <trkpt lat="45.95986" lon="4.87678">
        <ele>289</ele>
        <time>2018-08-20T09:01:51Z</time>
      </trkpt>
      <trkpt lat="45.95988" lon="4.87675">
        <ele>289</ele>
        <time>2018-08-20T09:01:52Z</time>
      </trkpt>
      <trkpt lat="45.9599" lon="4.87672">
        <ele>290</ele>
        <time>2018-08-20T09:01:54Z</time>
      </trkpt>
      <trkpt lat="45.95996" lon="4.87665">
        <ele>290</ele>
        <time>2018-08-20T09:01:55Z</time>
      </trkpt>
      <trkpt lat="45.96002" lon="4.87659">
        <ele>290</ele>
        <time>2018-08-20T09:01:56Z</time>
      </trkpt>
      <trkpt lat="45.96005" lon="4.87655">
        <ele>289</ele>
        <time>2018-08-20T09:01:57Z</time>
      </trkpt>
      <trkpt lat="45.9601" lon="4.8765">
        <ele>289</ele>
        <time>2018-08-20T09:01:58Z</time>
      </trkpt>
      <trkpt lat="45.96014" lon="4.87646">
        <ele>289</ele>
        <time>2018-08-20T09:01:59Z</time>
      </trkpt>
      <trkpt lat="45.96017" lon="4.87643">
        <ele>289</ele>
        <time>2018-08-20T09:02:00Z</time>
      </trkpt>
      <trkpt lat="45.96021" lon="4.87637">
        <ele>289</ele>
        <time>2018-08-20T09:02:01Z</time>
      </trkpt>
      <trkpt lat="45.96027" lon="4.87629">
        <ele>289</ele>
        <time>2018-08-20T09:02:03Z</time>
      </trkpt>
      <trkpt lat="45.96031" lon="4.87623">
        <ele>289</ele>
        <time>2018-08-20T09:02:04Z</time>
      </trkpt>
      <trkpt lat="45.96038" lon="4.87617">
        <ele>289</ele>
        <time>2018-08-20T09:02:06Z</time>
      </trkpt>
      <trkpt lat="45.9604" lon="4.87616">
        <ele>289</ele>
        <time>2018-08-20T09:02:07Z</time>
      </trkpt>
      <trkpt lat="45.96047" lon="4.87608">
        <ele>289</ele>
        <time>2018-08-20T09:02:09Z</time>
      </trkpt>
      <trkpt lat="45.96051" lon="4.87602">
        <ele>289</ele>
        <time>2018-08-20T09:02:10Z</time>
      </trkpt>
      <trkpt lat="45.96056" lon="4.87596">
        <ele>288</ele>
        <time>2018-08-20T09:02:11Z</time>
      </trkpt>
      <trkpt lat="45.9606" lon="4.87593">
        <ele>288</ele>
        <time>2018-08-20T09:02:12Z</time>
      </trkpt>
      <trkpt lat="45.96064" lon="4.87588">
        <ele>288</ele>
        <time>2018-08-20T09:02:13Z</time>
      </trkpt>
      <trkpt lat="45.96067" lon="4.87585">
        <ele>288</ele>
        <time>2018-08-20T09:02:14Z</time>
      </trkpt>
      <trkpt lat="45.96074" lon="4.87578">
        <ele>288</ele>
        <time>2018-08-20T09:02:16Z</time>
      </trkpt>
      <trkpt lat="45.96078" lon="4.87573">
        <ele>288</ele>
        <time>2018-08-20T09:02:17Z</time>
      </trkpt>
      <trkpt lat="45.96083" lon="4.87567">
        <ele>288</ele>
        <time>2018-08-20T09:02:19Z</time>
      </trkpt>
      <trkpt lat="45.96087" lon="4.87563">
        <ele>287</ele>
        <time>2018-08-20T09:02:20Z</time>
      </trkpt>
      <trkpt lat="45.96091" lon="4.8756">
        <ele>287</ele>
        <time>2018-08-20T09:02:21Z</time>
      </trkpt>
      <trkpt lat="45.96095" lon="4.87554">
        <ele>287</ele>
        <time>2018-08-20T09:02:22Z</time>
      </trkpt>
      <trkpt lat="45.96101" lon="4.87548">
        <ele>287</ele>
        <time>2018-08-20T09:02:24Z</time>
      </trkpt>
      <trkpt lat="45.96106" lon="4.87544">
        <ele>287</ele>
        <time>2018-08-20T09:02:25Z</time>
      </trkpt>
      <trkpt lat="45.96112" lon="4.87537">
        <ele>287</ele>
        <time>2018-08-20T09:02:27Z</time>
      </trkpt>
      <trkpt lat="45.96116" lon="4.87532">
        <ele>287</ele>
        <time>2018-08-20T09:02:28Z</time>
      </trkpt>
      <trkpt lat="45.9612" lon="4.87526">
        <ele>286</ele>
        <time>2018-08-20T09:02:29Z</time>
      </trkpt>
      <trkpt lat="45.96123" lon="4.8752">
        <ele>286</ele>
        <time>2018-08-20T09:02:30Z</time>
      </trkpt>
      <trkpt lat="45.96128" lon="4.87515">
        <ele>286</ele>
        <time>2018-08-20T09:02:31Z</time>
      </trkpt>
      <trkpt lat="45.96134" lon="4.87509">
        <ele>286</ele>
        <time>2018-08-20T09:02:32Z</time>
      </trkpt>
      <trkpt lat="45.96138" lon="4.87503">
        <ele>286</ele>
        <time>2018-08-20T09:02:33Z</time>
      </trkpt>
      <trkpt lat="45.96143" lon="4.87497">
        <ele>285</ele>
        <time>2018-08-20T09:02:34Z</time>
      </trkpt>
      <trkpt lat="45.96148" lon="4.87492">
        <ele>285</ele>
        <time>2018-08-20T09:02:35Z</time>
      </trkpt>
      <trkpt lat="45.96154" lon="4.87486">
        <ele>285</ele>
        <time>2018-08-20T09:02:36Z</time>
      </trkpt>
      <trkpt lat="45.96159" lon="4.8748">
        <ele>285</ele>
        <time>2018-08-20T09:02:37Z</time>
      </trkpt>
      <trkpt lat="45.96163" lon="4.87473">
        <ele>285</ele>
        <time>2018-08-20T09:02:38Z</time>
      </trkpt>
      <trkpt lat="45.96168" lon="4.87467">
        <ele>284</ele>
        <time>2018-08-20T09:02:39Z</time>
      </trkpt>
      <trkpt lat="45.96173" lon="4.87462">
        <ele>284</ele>
        <time>2018-08-20T09:02:40Z</time>
      </trkpt>
      <trkpt lat="45.96178" lon="4.87456">
        <ele>284</ele>
        <time>2018-08-20T09:02:41Z</time>
      </trkpt>
      <trkpt lat="45.96183" lon="4.87451">
        <ele>284</ele>
        <time>2018-08-20T09:02:42Z</time>
      </trkpt>
      <trkpt lat="45.96188" lon="4.87445">
        <ele>284</ele>
        <time>2018-08-20T09:02:43Z</time>
      </trkpt>
      <trkpt lat="45.96194" lon="4.8744">
        <ele>284</ele>
        <time>2018-08-20T09:02:44Z</time>
      </trkpt>
      <trkpt lat="45.96198" lon="4.87436">
        <ele>284</ele>
        <time>2018-08-20T09:02:45Z</time>
      </trkpt>
      <trkpt lat="45.96203" lon="4.87428">
        <ele>284</ele>
        <time>2018-08-20T09:02:46Z</time>
      </trkpt>
      <trkpt lat="45.96208" lon="4.87422">
        <ele>284</ele>
        <time>2018-08-20T09:02:47Z</time>
      </trkpt>
      <trkpt lat="45.96212" lon="4.87418">
        <ele>284</ele>
        <time>2018-08-20T09:02:48Z</time>
      </trkpt>
      <trkpt lat="45.96217" lon="4.87412">
        <ele>283</ele>
        <time>2018-08-20T09:02:49Z</time>
      </trkpt>
      <trkpt lat="45.9622" lon="4.87408">
        <ele>283</ele>
        <time>2018-08-20T09:02:50Z</time>
      </trkpt>
      <trkpt lat="45.96225" lon="4.87403">
        <ele>283</ele>
        <time>2018-08-20T09:02:51Z</time>
      </trkpt>
      <trkpt lat="45.96228" lon="4.87399">
        <ele>283</ele>
        <time>2018-08-20T09:02:52Z</time>
      </trkpt>
      <trkpt lat="45.96232" lon="4.87395">
        <ele>283</ele>
        <time>2018-08-20T09:02:53Z</time>
      </trkpt>
      <trkpt lat="45.96236" lon="4.8739">
        <ele>283</ele>
        <time>2018-08-20T09:02:54Z</time>
      </trkpt>
      <trkpt lat="45.9624" lon="4.87383">
        <ele>283</ele>
        <time>2018-08-20T09:02:55Z</time>
      </trkpt>
      <trkpt lat="45.96244" lon="4.87378">
        <ele>283</ele>
        <time>2018-08-20T09:02:56Z</time>
      </trkpt>
      <trkpt lat="45.96249" lon="4.87373">
        <ele>283</ele>
        <time>2018-08-20T09:02:57Z</time>
      </trkpt>
      <trkpt lat="45.96254" lon="4.87366">
        <ele>283</ele>
        <time>2018-08-20T09:02:58Z</time>
      </trkpt>
      <trkpt lat="45.96258" lon="4.8736">
        <ele>283</ele>
        <time>2018-08-20T09:02:59Z</time>
      </trkpt>
      <trkpt lat="45.96263" lon="4.87354">
        <ele>283</ele>
        <time>2018-08-20T09:03:00Z</time>
      </trkpt>
      <trkpt lat="45.96268" lon="4.87349">
        <ele>283</ele>
        <time>2018-08-20T09:03:01Z</time>
      </trkpt>
      <trkpt lat="45.96272" lon="4.87343">
        <ele>283</ele>
        <time>2018-08-20T09:03:02Z</time>
      </trkpt>
      <trkpt lat="45.96277" lon="4.87338">
        <ele>283</ele>
        <time>2018-08-20T09:03:03Z</time>
      </trkpt>
      <trkpt lat="45.96281" lon="4.87332">
        <ele>283</ele>
        <time>2018-08-20T09:03:04Z</time>
      </trkpt>
      <trkpt lat="45.96286" lon="4.87326">
        <ele>283</ele>
        <time>2018-08-20T09:03:05Z</time>
      </trkpt>
      <trkpt lat="45.96291" lon="4.8732">
        <ele>283</ele>
        <time>2018-08-20T09:03:06Z</time>
      </trkpt>
      <trkpt lat="45.96295" lon="4.87315">
        <ele>283</ele>
        <time>2018-08-20T09:03:07Z</time>
      </trkpt>
      <trkpt lat="45.96299" lon="4.8731">
        <ele>283</ele>
        <time>2018-08-20T09:03:08Z</time>
      </trkpt>
      <trkpt lat="45.96303" lon="4.87304">
        <ele>283</ele>
        <time>2018-08-20T09:03:09Z</time>
      </trkpt>
      <trkpt lat="45.96307" lon="4.87298">
        <ele>283</ele>
        <time>2018-08-20T09:03:10Z</time>
      </trkpt>
      <trkpt lat="45.96311" lon="4.87294">
        <ele>283</ele>
        <time>2018-08-20T09:03:11Z</time>
      </trkpt>
      <trkpt lat="45.96314" lon="4.87289">
        <ele>283</ele>
        <time>2018-08-20T09:03:12Z</time>
      </trkpt>
      <trkpt lat="45.96319" lon="4.87284">
        <ele>283</ele>
        <time>2018-08-20T09:03:13Z</time>
      </trkpt>
      <trkpt lat="45.96323" lon="4.87278">
        <ele>283</ele>
        <time>2018-08-20T09:03:14Z</time>
      </trkpt>
      <trkpt lat="45.96327" lon="4.87273">
        <ele>283</ele>
        <time>2018-08-20T09:03:15Z</time>
      </trkpt>
      <trkpt lat="45.96332" lon="4.87268">
        <ele>283</ele>
        <time>2018-08-20T09:03:16Z</time>
      </trkpt>
      <trkpt lat="45.96336" lon="4.87263">
        <ele>283</ele>
        <time>2018-08-20T09:03:17Z</time>
      </trkpt>
      <trkpt lat="45.96341" lon="4.87257">
        <ele>283</ele>
        <time>2018-08-20T09:03:18Z</time>
      </trkpt>
      <trkpt lat="45.96344" lon="4.87251">
        <ele>283</ele>
        <time>2018-08-20T09:03:19Z</time>
      </trkpt>
      <trkpt lat="45.96349" lon="4.87245">
        <ele>283</ele>
        <time>2018-08-20T09:03:20Z</time>
      </trkpt>
      <trkpt lat="45.96353" lon="4.8724">
        <ele>282</ele>
        <time>2018-08-20T09:03:21Z</time>
      </trkpt>
      <trkpt lat="45.96357" lon="4.87234">
        <ele>282</ele>
        <time>2018-08-20T09:03:22Z</time>
      </trkpt>
      <trkpt lat="45.96361" lon="4.8723">
        <ele>282</ele>
        <time>2018-08-20T09:03:23Z</time>
      </trkpt>
      <trkpt lat="45.96365" lon="4.87225">
        <ele>282</ele>
        <time>2018-08-20T09:03:24Z</time>
      </trkpt>
      <trkpt lat="45.96369" lon="4.8722">
        <ele>282</ele>
        <time>2018-08-20T09:03:25Z</time>
      </trkpt>
      <trkpt lat="45.96373" lon="4.87215">
        <ele>282</ele>
        <time>2018-08-20T09:03:26Z</time>
      </trkpt>
      <trkpt lat="45.96377" lon="4.8721">
        <ele>282</ele>
        <time>2018-08-20T09:03:27Z</time>
      </trkpt>
      <trkpt lat="45.9638" lon="4.87205">
        <ele>282</ele>
        <time>2018-08-20T09:03:28Z</time>
      </trkpt>
      <trkpt lat="45.96387" lon="4.87197">
        <ele>282</ele>
        <time>2018-08-20T09:03:30Z</time>
      </trkpt>
      <trkpt lat="45.9639" lon="4.87194">
        <ele>282</ele>
        <time>2018-08-20T09:03:31Z</time>
      </trkpt>
      <trkpt lat="45.96393" lon="4.87189">
        <ele>282</ele>
        <time>2018-08-20T09:03:32Z</time>
      </trkpt>
      <trkpt lat="45.96397" lon="4.87182">
        <ele>282</ele>
        <time>2018-08-20T09:03:33Z</time>
      </trkpt>
      <trkpt lat="45.96401" lon="4.87176">
        <ele>282</ele>
        <time>2018-08-20T09:03:34Z</time>
      </trkpt>
      <trkpt lat="45.96406" lon="4.8717">
        <ele>281</ele>
        <time>2018-08-20T09:03:35Z</time>
      </trkpt>
      <trkpt lat="45.9641" lon="4.87166">
        <ele>281</ele>
        <time>2018-08-20T09:03:36Z</time>
      </trkpt>
      <trkpt lat="45.96414" lon="4.87159">
        <ele>281</ele>
        <time>2018-08-20T09:03:37Z</time>
      </trkpt>
      <trkpt lat="45.96417" lon="4.87155">
        <ele>281</ele>
        <time>2018-08-20T09:03:38Z</time>
      </trkpt>
      <trkpt lat="45.96421" lon="4.87149">
        <ele>281</ele>
        <time>2018-08-20T09:03:39Z</time>
      </trkpt>
      <trkpt lat="45.96425" lon="4.87144">
        <ele>281</ele>
        <time>2018-08-20T09:03:40Z</time>
      </trkpt>
      <trkpt lat="45.96428" lon="4.87139">
        <ele>281</ele>
        <time>2018-08-20T09:03:41Z</time>
      </trkpt>
      <trkpt lat="45.96435" lon="4.87131">
        <ele>281</ele>
        <time>2018-08-20T09:03:43Z</time>
      </trkpt>
      <trkpt lat="45.96439" lon="4.87125">
        <ele>281</ele>
        <time>2018-08-20T09:03:44Z</time>
      </trkpt>
      <trkpt lat="45.96442" lon="4.87121">
        <ele>281</ele>
        <time>2018-08-20T09:03:45Z</time>
      </trkpt>
      <trkpt lat="45.96446" lon="4.87117">
        <ele>281</ele>
        <time>2018-08-20T09:03:46Z</time>
      </trkpt>
      <trkpt lat="45.96449" lon="4.87113">
        <ele>281</ele>
        <time>2018-08-20T09:03:47Z</time>
      </trkpt>
      <trkpt lat="45.96453" lon="4.87108">
        <ele>281</ele>
        <time>2018-08-20T09:03:48Z</time>
      </trkpt>
      <trkpt lat="45.96457" lon="4.87103">
        <ele>281</ele>
        <time>2018-08-20T09:03:49Z</time>
      </trkpt>
      <trkpt lat="45.96461" lon="4.87098">
        <ele>282</ele>
        <time>2018-08-20T09:03:50Z</time>
      </trkpt>
      <trkpt lat="45.96465" lon="4.87094">
        <ele>282</ele>
        <time>2018-08-20T09:03:51Z</time>
      </trkpt>
      <trkpt lat="45.96468" lon="4.87089">
        <ele>282</ele>
        <time>2018-08-20T09:03:52Z</time>
      </trkpt>
      <trkpt lat="45.96472" lon="4.87082">
        <ele>281</ele>
        <time>2018-08-20T09:03:53Z</time>
      </trkpt>
      <trkpt lat="45.96476" lon="4.87077">
        <ele>282</ele>
        <time>2018-08-20T09:03:54Z</time>
      </trkpt>
      <trkpt lat="45.96478" lon="4.87071">
        <ele>282</ele>
        <time>2018-08-20T09:03:55Z</time>
      </trkpt>
      <trkpt lat="45.96482" lon="4.87066">
        <ele>281</ele>
        <time>2018-08-20T09:03:56Z</time>
      </trkpt>
      <trkpt lat="45.96486" lon="4.87061">
        <ele>281</ele>
        <time>2018-08-20T09:03:57Z</time>
      </trkpt>
      <trkpt lat="45.96491" lon="4.87053">
        <ele>281</ele>
        <time>2018-08-20T09:03:58Z</time>
      </trkpt>
      <trkpt lat="45.96497" lon="4.87045">
        <ele>281</ele>
        <time>2018-08-20T09:04:00Z</time>
      </trkpt>
      <trkpt lat="45.96499" lon="4.87042">
        <ele>281</ele>
        <time>2018-08-20T09:04:01Z</time>
      </trkpt>
      <trkpt lat="45.96507" lon="4.87045">
        <ele>282</ele>
        <time>2018-08-20T09:04:05Z</time>
      </trkpt>
      <trkpt lat="45.96508" lon="4.87047">
        <ele>283</ele>
        <time>2018-08-20T09:04:06Z</time>
      </trkpt>
      <trkpt lat="45.96514" lon="4.87055">
        <ele>283</ele>
        <time>2018-08-20T09:04:09Z</time>
      </trkpt>
      <trkpt lat="45.96516" lon="4.87058">
        <ele>283</ele>
        <time>2018-08-20T09:04:10Z</time>
      </trkpt>
      <trkpt lat="45.96523" lon="4.87064">
        <ele>283</ele>
        <time>2018-08-20T09:04:13Z</time>
      </trkpt>
      <trkpt lat="45.96525" lon="4.87064">
        <ele>283</ele>
        <time>2018-08-20T09:04:14Z</time>
      </trkpt>
      <trkpt lat="45.96532" lon="4.87061">
        <ele>283</ele>
        <time>2018-08-20T09:04:17Z</time>
      </trkpt>
      <trkpt lat="45.96535" lon="4.87059">
        <ele>283</ele>
        <time>2018-08-20T09:04:18Z</time>
      </trkpt>
      <trkpt lat="45.96543" lon="4.87064">
        <ele>283</ele>
        <time>2018-08-20T09:04:25Z</time>
      </trkpt>
      <trkpt lat="45.96543" lon="4.87065">
        <ele>283</ele>
        <time>2018-08-20T09:04:26Z</time>
      </trkpt>
      <trkpt lat="45.9655" lon="4.87071">
        <ele>283</ele>
        <time>2018-08-20T09:04:31Z</time>
      </trkpt>
      <trkpt lat="45.96552" lon="4.87072">
        <ele>283</ele>
        <time>2018-08-20T09:04:32Z</time>
      </trkpt>
      <trkpt lat="45.96557" lon="4.8707">
        <ele>283</ele>
        <time>2018-08-20T09:04:34Z</time>
      </trkpt>
      <trkpt lat="45.96562" lon="4.87063">
        <ele>283</ele>
        <time>2018-08-20T09:04:35Z</time>
      </trkpt>
      <trkpt lat="45.96561" lon="4.87053">
        <ele>283</ele>
        <time>2018-08-20T09:04:38Z</time>
      </trkpt>
      <trkpt lat="45.9656" lon="4.87048">
        <ele>283</ele>
        <time>2018-08-20T09:04:39Z</time>
      </trkpt>
      <trkpt lat="45.96561" lon="4.87036">
        <ele>283</ele>
        <time>2018-08-20T09:04:42Z</time>
      </trkpt>
      <trkpt lat="45.96561" lon="4.87032">
        <ele>283</ele>
        <time>2018-08-20T09:04:43Z</time>
      </trkpt>
      <trkpt lat="45.96554" lon="4.87023">
        <ele>283</ele>
        <time>2018-08-20T09:04:48Z</time>
      </trkpt>
      <trkpt lat="45.96553" lon="4.87023">
        <ele>283</ele>
        <time>2018-08-20T09:04:49Z</time>
      </trkpt>
      <trkpt lat="45.96544" lon="4.87026">
        <ele>283</ele>
        <time>2018-08-20T09:04:54Z</time>
      </trkpt>
      <trkpt lat="45.96543" lon="4.87027">
        <ele>283</ele>
        <time>2018-08-20T09:04:55Z</time>
      </trkpt>
      <trkpt lat="45.96534" lon="4.87027">
        <ele>283</ele>
        <time>2018-08-20T09:05:01Z</time>
      </trkpt>
      <trkpt lat="45.96533" lon="4.87027">
        <ele>283</ele>
        <time>2018-08-20T09:05:02Z</time>
      </trkpt>
      <trkpt lat="45.96531" lon="4.87026">
        <ele>283</ele>
        <time>2018-08-20T09:05:11Z</time>
      </trkpt>
      <trkpt lat="45.96531" lon="4.87026">
        <ele>283</ele>
        <time>2018-08-20T09:05:12Z</time>
      </trkpt>
      <trkpt lat="45.96531" lon="4.87025">
        <ele>283</ele>
        <time>2018-08-20T09:05:25Z</time>
      </trkpt>
      <trkpt lat="45.96531" lon="4.87024">
        <ele>283</ele>
        <time>2018-08-20T09:05:26Z</time>
      </trkpt>
      <trkpt lat="45.96531" lon="4.87024">
        <ele>283</ele>
        <time>2018-08-20T09:05:28Z</time>
      </trkpt>
      <trkpt lat="45.96531" lon="4.87024">
        <ele>283</ele>
        <time>2018-08-20T09:05:29Z</time>
      </trkpt>
      <trkpt lat="45.96531" lon="4.87025">
        <ele>283</ele>
        <time>2018-08-20T09:05:30Z</time>
      </trkpt>
      <trkpt lat="45.96531" lon="4.87026">
        <ele>283</ele>
        <time>2018-08-20T09:05:32Z</time>
      </trkpt>
      <trkpt lat="45.96531" lon="4.87027">
        <ele>283</ele>
        <time>2018-08-20T09:05:33Z</time>
      </trkpt>
      <trkpt lat="45.96531" lon="4.87028">
        <ele>283</ele>
        <time>2018-08-20T09:05:35Z</time>
      </trkpt>
      <trkpt lat="45.96531" lon="4.87028">
        <ele>283</ele>
        <time>2018-08-20T09:05:36Z</time>
      </trkpt>
      <trkpt lat="45.9653" lon="4.87024">
        <ele>283</ele>
        <time>2018-08-20T09:12:54Z</time>
      </trkpt>
      <trkpt lat="45.9653" lon="4.87024">
        <ele>283</ele>
        <time>2018-08-20T09:12:55Z</time>
      </trkpt>
      <trkpt lat="45.9653" lon="4.87024">
        <ele>283</ele>
        <time>2018-08-20T09:12:56Z</time>
      </trkpt>
      <trkpt lat="45.96536" lon="4.87016">
        <ele>283</ele>
        <time>2018-08-20T09:13:27Z</time>
      </trkpt>
      <trkpt lat="45.96538" lon="4.87014">
        <ele>283</ele>
        <time>2018-08-20T09:13:28Z</time>
      </trkpt>
      <trkpt lat="45.96539" lon="4.8701">
        <ele>283</ele>
        <time>2018-08-20T09:13:29Z</time>
      </trkpt>
      <trkpt lat="45.96542" lon="4.86998">
        <ele>283</ele>
        <time>2018-08-20T09:13:30Z</time>
      </trkpt>
      <trkpt lat="45.96543" lon="4.86985">
        <ele>283</ele>
        <time>2018-08-20T09:13:34Z</time>
      </trkpt>
      <trkpt lat="45.96545" lon="4.86983">
        <ele>283</ele>
        <time>2018-08-20T09:13:35Z</time>
      </trkpt>
      <trkpt lat="45.96549" lon="4.86975">
        <ele>283</ele>
        <time>2018-08-20T09:13:36Z</time>
      </trkpt>
      <trkpt lat="45.96551" lon="4.86973">
        <ele>283</ele>
        <time>2018-08-20T09:13:37Z</time>
      </trkpt>
      <trkpt lat="45.96557" lon="4.86966">
        <ele>283</ele>
        <time>2018-08-20T09:13:40Z</time>
      </trkpt>
      <trkpt lat="45.96559" lon="4.86963">
        <ele>283</ele>
        <time>2018-08-20T09:13:41Z</time>
      </trkpt>
      <trkpt lat="45.96563" lon="4.86956">
        <ele>283</ele>
        <time>2018-08-20T09:13:43Z</time>
      </trkpt>
      <trkpt lat="45.96565" lon="4.86952">
        <ele>284</ele>
        <time>2018-08-20T09:13:44Z</time>
      </trkpt>
      <trkpt lat="45.96569" lon="4.86945">
        <ele>284</ele>
        <time>2018-08-20T09:13:46Z</time>
      </trkpt>
      <trkpt lat="45.96571" lon="4.86941">
        <ele>284</ele>
        <time>2018-08-20T09:13:47Z</time>
      </trkpt>
      <trkpt lat="45.96575" lon="4.86933">
        <ele>284</ele>
        <time>2018-08-20T09:13:49Z</time>
      </trkpt>
      <trkpt lat="45.96577" lon="4.86929">
        <ele>284</ele>
        <time>2018-08-20T09:13:50Z</time>
      </trkpt>
      <trkpt lat="45.96579" lon="4.86926">
        <ele>284</ele>
        <time>2018-08-20T09:13:51Z</time>
      </trkpt>
      <trkpt lat="45.96586" lon="4.86914">
        <ele>285</ele>
        <time>2018-08-20T09:13:52Z</time>
      </trkpt>
      <trkpt lat="45.9659" lon="4.86907">
        <ele>286</ele>
        <time>2018-08-20T09:13:54Z</time>
      </trkpt>
      <trkpt lat="45.96594" lon="4.869">
        <ele>286</ele>
        <time>2018-08-20T09:13:55Z</time>
      </trkpt>
      <trkpt lat="45.96599" lon="4.86891">
        <ele>286</ele>
        <time>2018-08-20T09:13:59Z</time>
      </trkpt>
      <trkpt lat="45.96601" lon="4.86888">
        <ele>287</ele>
        <time>2018-08-20T09:14:00Z</time>
      </trkpt>
      <trkpt lat="45.96606" lon="4.8688">
        <ele>287</ele>
        <time>2018-08-20T09:14:03Z</time>
      </trkpt>
      <trkpt lat="45.96608" lon="4.86877">
        <ele>287</ele>
        <time>2018-08-20T09:14:04Z</time>
      </trkpt>
      <trkpt lat="45.96614" lon="4.86869">
        <ele>287</ele>
        <time>2018-08-20T09:14:07Z</time>
      </trkpt>
      <trkpt lat="45.96615" lon="4.86866">
        <ele>287</ele>
        <time>2018-08-20T09:14:08Z</time>
      </trkpt>
      <trkpt lat="45.96619" lon="4.86859">
        <ele>287</ele>
        <time>2018-08-20T09:14:10Z</time>
      </trkpt>
      <trkpt lat="45.96621" lon="4.86856">
        <ele>287</ele>
        <time>2018-08-20T09:14:11Z</time>
      </trkpt>
      <trkpt lat="45.96625" lon="4.86849">
        <ele>287</ele>
        <time>2018-08-20T09:14:13Z</time>
      </trkpt>
      <trkpt lat="45.96627" lon="4.86845">
        <ele>287</ele>
        <time>2018-08-20T09:14:14Z</time>
      </trkpt>
      <trkpt lat="45.96631" lon="4.86838">
        <ele>287</ele>
        <time>2018-08-20T09:14:16Z</time>
      </trkpt>
      <trkpt lat="45.96634" lon="4.86835">
        <ele>287</ele>
        <time>2018-08-20T09:14:17Z</time>
      </trkpt>
      <trkpt lat="45.96642" lon="4.86823">
        <ele>288</ele>
        <time>2018-08-20T09:14:18Z</time>
      </trkpt>
      <trkpt lat="45.96648" lon="4.86814">
        <ele>288</ele>
        <time>2018-08-20T09:14:21Z</time>
      </trkpt>
      <trkpt lat="45.96649" lon="4.86811">
        <ele>288</ele>
        <time>2018-08-20T09:14:22Z</time>
      </trkpt>
      <trkpt lat="45.96653" lon="4.86805">
        <ele>288</ele>
        <time>2018-08-20T09:14:24Z</time>
      </trkpt>
      <trkpt lat="45.96656" lon="4.86802">
        <ele>288</ele>
        <time>2018-08-20T09:14:25Z</time>
      </trkpt>
      <trkpt lat="45.96658" lon="4.86798">
        <ele>288</ele>
        <time>2018-08-20T09:14:26Z</time>
      </trkpt>
      <trkpt lat="45.96666" lon="4.86787">
        <ele>288</ele>
        <time>2018-08-20T09:14:27Z</time>
      </trkpt>
      <trkpt lat="45.96671" lon="4.86778">
        <ele>289</ele>
        <time>2018-08-20T09:14:29Z</time>
      </trkpt>
      <trkpt lat="45.96673" lon="4.86776">
        <ele>289</ele>
        <time>2018-08-20T09:14:30Z</time>
      </trkpt>
      <trkpt lat="45.96678" lon="4.86768">
        <ele>289</ele>
        <time>2018-08-20T09:14:33Z</time>
      </trkpt>
      <trkpt lat="45.9668" lon="4.86765">
        <ele>289</ele>
        <time>2018-08-20T09:14:34Z</time>
      </trkpt>
      <trkpt lat="45.96682" lon="4.86762">
        <ele>289</ele>
        <time>2018-08-20T09:14:35Z</time>
      </trkpt>
      <trkpt lat="45.96688" lon="4.86752">
        <ele>289</ele>
        <time>2018-08-20T09:14:36Z</time>
      </trkpt>
      <trkpt lat="45.96692" lon="4.86744">
        <ele>289</ele>
        <time>2018-08-20T09:14:38Z</time>
      </trkpt>
      <trkpt lat="45.96695" lon="4.8674">
        <ele>289</ele>
        <time>2018-08-20T09:14:39Z</time>
      </trkpt>
      <trkpt lat="45.967" lon="4.86729">
        <ele>289</ele>
        <time>2018-08-20T09:14:41Z</time>
      </trkpt>
      <trkpt lat="45.96702" lon="4.86724">
        <ele>289</ele>
        <time>2018-08-20T09:14:42Z</time>
      </trkpt>
      <trkpt lat="45.96706" lon="4.86718">
        <ele>289</ele>
        <time>2018-08-20T09:14:44Z</time>
      </trkpt>
      <trkpt lat="45.9671" lon="4.86711">
        <ele>289</ele>
        <time>2018-08-20T09:14:45Z</time>
      </trkpt>
      <trkpt lat="45.96715" lon="4.86703">
        <ele>289</ele>
        <time>2018-08-20T09:14:47Z</time>
      </trkpt>
      <trkpt lat="45.96718" lon="4.86699">
        <ele>289</ele>
        <time>2018-08-20T09:14:48Z</time>
      </trkpt>
      <trkpt lat="45.96723" lon="4.86691">
        <ele>289</ele>
        <time>2018-08-20T09:14:51Z</time>
      </trkpt>
      <trkpt lat="45.96728" lon="4.86683">
        <ele>289</ele>
        <time>2018-08-20T09:14:52Z</time>
      </trkpt>
      <trkpt lat="45.96733" lon="4.86674">
        <ele>290</ele>
        <time>2018-08-20T09:14:54Z</time>
      </trkpt>
      <trkpt lat="45.96736" lon="4.86669">
        <ele>290</ele>
        <time>2018-08-20T09:14:55Z</time>
      </trkpt>
      <trkpt lat="45.96741" lon="4.8666">
        <ele>290</ele>
        <time>2018-08-20T09:14:57Z</time>
      </trkpt>
      <trkpt lat="45.96744" lon="4.86656">
        <ele>290</ele>
        <time>2018-08-20T09:14:58Z</time>
      </trkpt>
      <trkpt lat="45.96748" lon="4.86648">
        <ele>290</ele>
        <time>2018-08-20T09:15:00Z</time>
      </trkpt>
      <trkpt lat="45.9675" lon="4.86644">
        <ele>290</ele>
        <time>2018-08-20T09:15:01Z</time>
      </trkpt>
      <trkpt lat="45.96753" lon="4.86635">
        <ele>290</ele>
        <time>2018-08-20T09:15:03Z</time>
      </trkpt>
      <trkpt lat="45.96754" lon="4.8663">
        <ele>290</ele>
        <time>2018-08-20T09:15:04Z</time>
      </trkpt>
      <trkpt lat="45.96749" lon="4.86619">
        <ele>290</ele>
        <time>2018-08-20T09:15:08Z</time>
      </trkpt>
      <trkpt lat="45.96742" lon="4.86615">
        <ele>290</ele>
        <time>2018-08-20T09:15:09Z</time>
      </trkpt>
      <trkpt lat="45.96737" lon="4.86615">
        <ele>290</ele>
        <time>2018-08-20T09:15:10Z</time>
      </trkpt>
      <trkpt lat="45.96732" lon="4.86614">
        <ele>290</ele>
        <time>2018-08-20T09:15:11Z</time>
      </trkpt>
      <trkpt lat="45.9673" lon="4.86614">
        <ele>290</ele>
        <time>2018-08-20T09:15:12Z</time>
      </trkpt>
      <trkpt lat="45.96721" lon="4.86615">
        <ele>290</ele>
        <time>2018-08-20T09:15:13Z</time>
      </trkpt>
      <trkpt lat="45.96713" lon="4.86613">
        <ele>290</ele>
        <time>2018-08-20T09:15:15Z</time>
      </trkpt>
      <trkpt lat="45.96709" lon="4.8661">
        <ele>290</ele>
        <time>2018-08-20T09:15:16Z</time>
      </trkpt>
      <trkpt lat="45.96702" lon="4.86605">
        <ele>290</ele>
        <time>2018-08-20T09:15:18Z</time>
      </trkpt>
      <trkpt lat="45.96699" lon="4.86601">
        <ele>290</ele>
        <time>2018-08-20T09:15:19Z</time>
      </trkpt>
      <trkpt lat="45.96691" lon="4.86595">
        <ele>290</ele>
        <time>2018-08-20T09:15:21Z</time>
      </trkpt>
      <trkpt lat="45.96688" lon="4.86592">
        <ele>290</ele>
        <time>2018-08-20T09:15:22Z</time>
      </trkpt>
      <trkpt lat="45.96682" lon="4.86586">
        <ele>290</ele>
        <time>2018-08-20T09:15:24Z</time>
      </trkpt>
      <trkpt lat="45.96679" lon="4.86583">
        <ele>290</ele>
        <time>2018-08-20T09:15:25Z</time>
      </trkpt>
      <trkpt lat="45.96672" lon="4.86577">
        <ele>290</ele>
        <time>2018-08-20T09:15:27Z</time>
      </trkpt>
      <trkpt lat="45.96669" lon="4.86573">
        <ele>290</ele>
        <time>2018-08-20T09:15:28Z</time>
      </trkpt>
      <trkpt lat="45.96664" lon="4.86567">
        <ele>290</ele>
        <time>2018-08-20T09:15:30Z</time>
      </trkpt>
      <trkpt lat="45.9666" lon="4.86566">
        <ele>290</ele>
        <time>2018-08-20T09:15:31Z</time>
      </trkpt>
      <trkpt lat="45.96652" lon="4.86559">
        <ele>291</ele>
        <time>2018-08-20T09:15:33Z</time>
      </trkpt>
      <trkpt lat="45.96648" lon="4.86556">
        <ele>291</ele>
        <time>2018-08-20T09:15:34Z</time>
      </trkpt>
      <trkpt lat="45.9664" lon="4.86549">
        <ele>291</ele>
        <time>2018-08-20T09:15:36Z</time>
      </trkpt>
      <trkpt lat="45.96636" lon="4.86545">
        <ele>291</ele>
        <time>2018-08-20T09:15:37Z</time>
      </trkpt>
      <trkpt lat="45.9663" lon="4.86542">
        <ele>291</ele>
        <time>2018-08-20T09:15:38Z</time>
      </trkpt>
      <trkpt lat="45.96626" lon="4.86539">
        <ele>291</ele>
        <time>2018-08-20T09:15:39Z</time>
      </trkpt>
      <trkpt lat="45.96621" lon="4.86532">
        <ele>291</ele>
        <time>2018-08-20T09:15:41Z</time>
      </trkpt>
      <trkpt lat="45.96619" lon="4.86529">
        <ele>291</ele>
        <time>2018-08-20T09:15:42Z</time>
      </trkpt>
      <trkpt lat="45.96616" lon="4.86526">
        <ele>291</ele>
        <time>2018-08-20T09:15:43Z</time>
      </trkpt>
      <trkpt lat="45.96611" lon="4.86522">
        <ele>291</ele>
        <time>2018-08-20T09:15:44Z</time>
      </trkpt>
      <trkpt lat="45.96606" lon="4.86517">
        <ele>291</ele>
        <time>2018-08-20T09:15:45Z</time>
      </trkpt>
      <trkpt lat="45.96601" lon="4.86513">
        <ele>291</ele>
        <time>2018-08-20T09:15:46Z</time>
      </trkpt>
      <trkpt lat="45.96595" lon="4.86506">
        <ele>291</ele>
        <time>2018-08-20T09:15:48Z</time>
      </trkpt>
      <trkpt lat="45.9659" lon="4.86501">
        <ele>292</ele>
        <time>2018-08-20T09:15:49Z</time>
      </trkpt>
      <trkpt lat="45.9659" lon="4.86496">
        <ele>292</ele>
        <time>2018-08-20T09:15:50Z</time>
      </trkpt>
      <trkpt lat="45.96584" lon="4.86491">
        <ele>292</ele>
        <time>2018-08-20T09:15:51Z</time>
      </trkpt>
      <trkpt lat="45.96586" lon="4.86479">
        <ele>291</ele>
        <time>2018-08-20T09:15:53Z</time>
      </trkpt>
      <trkpt lat="45.9658" lon="4.86472">
        <ele>290</ele>
        <time>2018-08-20T09:15:54Z</time>
      </trkpt>
      <trkpt lat="45.9658" lon="4.86465">
        <ele>289</ele>
        <time>2018-08-20T09:15:55Z</time>
      </trkpt>
      <trkpt lat="45.96577" lon="4.8646">
        <ele>289</ele>
        <time>2018-08-20T09:15:56Z</time>
      </trkpt>
      <trkpt lat="45.96573" lon="4.86454">
        <ele>289</ele>
        <time>2018-08-20T09:15:57Z</time>
      </trkpt>
      <trkpt lat="45.96565" lon="4.86445">
        <ele>289</ele>
        <time>2018-08-20T09:15:58Z</time>
      </trkpt>
      <trkpt lat="45.96563" lon="4.86436">
        <ele>289</ele>
        <time>2018-08-20T09:15:59Z</time>
      </trkpt>
      <trkpt lat="45.9656" lon="4.86427">
        <ele>289</ele>
        <time>2018-08-20T09:16:00Z</time>
      </trkpt>
      <trkpt lat="45.96565" lon="4.86415">
        <ele>288</ele>
        <time>2018-08-20T09:16:01Z</time>
      </trkpt>
      <trkpt lat="45.96568" lon="4.86405">
        <ele>287</ele>
        <time>2018-08-20T09:16:02Z</time>
      </trkpt>
      <trkpt lat="45.96568" lon="4.86394">
        <ele>287</ele>
        <time>2018-08-20T09:16:03Z</time>
      </trkpt>
      <trkpt lat="45.96578" lon="4.86386">
        <ele>287</ele>
        <time>2018-08-20T09:16:04Z</time>
      </trkpt>
      <trkpt lat="45.96577" lon="4.86377">
        <ele>286</ele>
        <time>2018-08-20T09:16:05Z</time>
      </trkpt>
      <trkpt lat="45.9658" lon="4.86369">
        <ele>286</ele>
        <time>2018-08-20T09:16:06Z</time>
      </trkpt>
      <trkpt lat="45.96584" lon="4.86359">
        <ele>287</ele>
        <time>2018-08-20T09:16:07Z</time>
      </trkpt>
      <trkpt lat="45.96579" lon="4.8635">
        <ele>285</ele>
        <time>2018-08-20T09:16:08Z</time>
      </trkpt>
      <trkpt lat="45.96582" lon="4.86339">
        <ele>285</ele>
        <time>2018-08-20T09:16:09Z</time>
      </trkpt>
      <trkpt lat="45.96583" lon="4.86329">
        <ele>284</ele>
        <time>2018-08-20T09:16:10Z</time>
      </trkpt>
      <trkpt lat="45.96583" lon="4.8632">
        <ele>284</ele>
        <time>2018-08-20T09:16:11Z</time>
      </trkpt>
      <trkpt lat="45.96585" lon="4.86312">
        <ele>285</ele>
        <time>2018-08-20T09:16:12Z</time>
      </trkpt>
      <trkpt lat="45.96585" lon="4.86304">
        <ele>284</ele>
        <time>2018-08-20T09:16:13Z</time>
      </trkpt>
      <trkpt lat="45.96584" lon="4.86295">
        <ele>284</ele>
        <time>2018-08-20T09:16:14Z</time>
      </trkpt>
      <trkpt lat="45.96581" lon="4.86287">
        <ele>282</ele>
        <time>2018-08-20T09:16:15Z</time>
      </trkpt>
      <trkpt lat="45.96582" lon="4.86274">
        <ele>282</ele>
        <time>2018-08-20T09:16:16Z</time>
      </trkpt>
      <trkpt lat="45.96582" lon="4.86264">
        <ele>281</ele>
        <time>2018-08-20T09:16:17Z</time>
      </trkpt>
      <trkpt lat="45.96584" lon="4.86251">
        <ele>281</ele>
        <time>2018-08-20T09:16:18Z</time>
      </trkpt>
      <trkpt lat="45.96584" lon="4.86239">
        <ele>282</ele>
        <time>2018-08-20T09:16:19Z</time>
      </trkpt>
      <trkpt lat="45.96585" lon="4.86227">
        <ele>282</ele>
        <time>2018-08-20T09:16:20Z</time>
      </trkpt>
      <trkpt lat="45.96587" lon="4.86215">
        <ele>282</ele>
        <time>2018-08-20T09:16:21Z</time>
      </trkpt>
      <trkpt lat="45.96589" lon="4.86201">
        <ele>282</ele>
        <time>2018-08-20T09:16:22Z</time>
      </trkpt>
      <trkpt lat="45.9659" lon="4.86186">
        <ele>281</ele>
        <time>2018-08-20T09:16:23Z</time>
      </trkpt>
      <trkpt lat="45.96592" lon="4.86172">
        <ele>281</ele>
        <time>2018-08-20T09:16:24Z</time>
      </trkpt>
      <trkpt lat="45.96594" lon="4.86159">
        <ele>281</ele>
        <time>2018-08-20T09:16:25Z</time>
      </trkpt>
      <trkpt lat="45.96596" lon="4.86145">
        <ele>281</ele>
        <time>2018-08-20T09:16:26Z</time>
      </trkpt>
      <trkpt lat="45.96595" lon="4.86134">
        <ele>281</ele>
        <time>2018-08-20T09:16:27Z</time>
      </trkpt>
      <trkpt lat="45.96593" lon="4.8612">
        <ele>281</ele>
        <time>2018-08-20T09:16:28Z</time>
      </trkpt>
      <trkpt lat="45.96594" lon="4.86107">
        <ele>281</ele>
        <time>2018-08-20T09:16:29Z</time>
      </trkpt>
      <trkpt lat="45.96594" lon="4.86093">
        <ele>280</ele>
        <time>2018-08-20T09:16:30Z</time>
      </trkpt>
      <trkpt lat="45.96592" lon="4.8608">
        <ele>279</ele>
        <time>2018-08-20T09:16:31Z</time>
      </trkpt>
      <trkpt lat="45.96588" lon="4.86069">
        <ele>279</ele>
        <time>2018-08-20T09:16:32Z</time>
      </trkpt>
      <trkpt lat="45.96583" lon="4.86056">
        <ele>277</ele>
        <time>2018-08-20T09:16:33Z</time>
      </trkpt>
      <trkpt lat="45.96582" lon="4.86046">
        <ele>276</ele>
        <time>2018-08-20T09:16:34Z</time>
      </trkpt>
      <trkpt lat="45.96576" lon="4.86035">
        <ele>276</ele>
        <time>2018-08-20T09:16:35Z</time>
      </trkpt>
      <trkpt lat="45.96574" lon="4.86023">
        <ele>276</ele>
        <time>2018-08-20T09:16:36Z</time>
      </trkpt>
      <trkpt lat="45.96568" lon="4.8601">
        <ele>276</ele>
        <time>2018-08-20T09:16:37Z</time>
      </trkpt>
      <trkpt lat="45.96561" lon="4.86">
        <ele>276</ele>
        <time>2018-08-20T09:16:38Z</time>
      </trkpt>
      <trkpt lat="45.9655" lon="4.85989">
        <ele>276</ele>
        <time>2018-08-20T09:16:39Z</time>
      </trkpt>
      <trkpt lat="45.96537" lon="4.85976">
        <ele>275</ele>
        <time>2018-08-20T09:16:40Z</time>
      </trkpt>
      <trkpt lat="45.96533" lon="4.85967">
        <ele>275</ele>
        <time>2018-08-20T09:16:41Z</time>
      </trkpt>
      <trkpt lat="45.96529" lon="4.85956">
        <ele>275</ele>
        <time>2018-08-20T09:16:42Z</time>
      </trkpt>
      <trkpt lat="45.96529" lon="4.85946">
        <ele>275</ele>
        <time>2018-08-20T09:16:43Z</time>
      </trkpt>
      <trkpt lat="45.96525" lon="4.85935">
        <ele>275</ele>
        <time>2018-08-20T09:16:44Z</time>
      </trkpt>
      <trkpt lat="45.96522" lon="4.85924">
        <ele>275</ele>
        <time>2018-08-20T09:16:45Z</time>
      </trkpt>
      <trkpt lat="45.96507" lon="4.8591">
        <ele>274</ele>
        <time>2018-08-20T09:16:46Z</time>
      </trkpt>
      <trkpt lat="45.9651" lon="4.85901">
        <ele>275</ele>
        <time>2018-08-20T09:16:47Z</time>
      </trkpt>
      <trkpt lat="45.96505" lon="4.85889">
        <ele>275</ele>
        <time>2018-08-20T09:16:48Z</time>
      </trkpt>
      <trkpt lat="45.96502" lon="4.85879">
        <ele>275</ele>
        <time>2018-08-20T09:16:49Z</time>
      </trkpt>
      <trkpt lat="45.965" lon="4.85867">
        <ele>274</ele>
        <time>2018-08-20T09:16:50Z</time>
      </trkpt>
      <trkpt lat="45.96511" lon="4.85856">
        <ele>275</ele>
        <time>2018-08-20T09:16:51Z</time>
      </trkpt>
      <trkpt lat="45.96509" lon="4.85844">
        <ele>275</ele>
        <time>2018-08-20T09:16:52Z</time>
      </trkpt>
      <trkpt lat="45.96512" lon="4.85831">
        <ele>275</ele>
        <time>2018-08-20T09:16:53Z</time>
      </trkpt>
      <trkpt lat="45.96511" lon="4.8582">
        <ele>276</ele>
        <time>2018-08-20T09:16:54Z</time>
      </trkpt>
      <trkpt lat="45.96508" lon="4.85809">
        <ele>276</ele>
        <time>2018-08-20T09:16:55Z</time>
      </trkpt>
      <trkpt lat="45.96502" lon="4.85799">
        <ele>276</ele>
        <time>2018-08-20T09:16:56Z</time>
      </trkpt>
      <trkpt lat="45.96499" lon="4.85789">
        <ele>274</ele>
        <time>2018-08-20T09:16:57Z</time>
      </trkpt>
      <trkpt lat="45.96494" lon="4.8578">
        <ele>274</ele>
        <time>2018-08-20T09:16:58Z</time>
      </trkpt>
      <trkpt lat="45.9649" lon="4.85769">
        <ele>274</ele>
        <time>2018-08-20T09:16:59Z</time>
      </trkpt>
      <trkpt lat="45.96494" lon="4.85759">
        <ele>274</ele>
        <time>2018-08-20T09:17:00Z</time>
      </trkpt>
      <trkpt lat="45.965" lon="4.85747">
        <ele>274</ele>
        <time>2018-08-20T09:17:01Z</time>
      </trkpt>
      <trkpt lat="45.96492" lon="4.8574">
        <ele>273</ele>
        <time>2018-08-20T09:17:02Z</time>
      </trkpt>
      <trkpt lat="45.96498" lon="4.85731">
        <ele>273</ele>
        <time>2018-08-20T09:17:03Z</time>
      </trkpt>
      <trkpt lat="45.96495" lon="4.85721">
        <ele>273</ele>
        <time>2018-08-20T09:17:04Z</time>
      </trkpt>
      <trkpt lat="45.96493" lon="4.85712">
        <ele>272</ele>
        <time>2018-08-20T09:17:05Z</time>
      </trkpt>
      <trkpt lat="45.96489" lon="4.85702">
        <ele>272</ele>
        <time>2018-08-20T09:17:06Z</time>
      </trkpt>
      <trkpt lat="45.96492" lon="4.85695">
        <ele>272</ele>
        <time>2018-08-20T09:17:07Z</time>
      </trkpt>
      <trkpt lat="45.96489" lon="4.85688">
        <ele>272</ele>
        <time>2018-08-20T09:17:08Z</time>
      </trkpt>
      <trkpt lat="45.96486" lon="4.85679">
        <ele>272</ele>
        <time>2018-08-20T09:17:09Z</time>
      </trkpt>
      <trkpt lat="45.96483" lon="4.85669">
        <ele>271</ele>
        <time>2018-08-20T09:17:10Z</time>
      </trkpt>
      <trkpt lat="45.96482" lon="4.85662">
        <ele>271</ele>
        <time>2018-08-20T09:17:11Z</time>
      </trkpt>
      <trkpt lat="45.96481" lon="4.85654">
        <ele>271</ele>
        <time>2018-08-20T09:17:12Z</time>
      </trkpt>
      <trkpt lat="45.96481" lon="4.85646">
        <ele>271</ele>
        <time>2018-08-20T09:17:13Z</time>
      </trkpt>
      <trkpt lat="45.96481" lon="4.85637">
        <ele>271</ele>
        <time>2018-08-20T09:17:14Z</time>
      </trkpt>
      <trkpt lat="45.9648" lon="4.85628">
        <ele>271</ele>
        <time>2018-08-20T09:17:15Z</time>
      </trkpt>
      <trkpt lat="45.9648" lon="4.8562">
        <ele>271</ele>
        <time>2018-08-20T09:17:16Z</time>
      </trkpt>
      <trkpt lat="45.96478" lon="4.8561">
        <ele>271</ele>
        <time>2018-08-20T09:17:17Z</time>
      </trkpt>
      <trkpt lat="45.96476" lon="4.85602">
        <ele>271</ele>
        <time>2018-08-20T09:17:18Z</time>
      </trkpt>
      <trkpt lat="45.96474" lon="4.85594">
        <ele>271</ele>
        <time>2018-08-20T09:17:19Z</time>
      </trkpt>
      <trkpt lat="45.96472" lon="4.85586">
        <ele>271</ele>
        <time>2018-08-20T09:17:20Z</time>
      </trkpt>
      <trkpt lat="45.96467" lon="4.85578">
        <ele>271</ele>
        <time>2018-08-20T09:17:21Z</time>
      </trkpt>
      <trkpt lat="45.96458" lon="4.8557">
        <ele>271</ele>
        <time>2018-08-20T09:17:22Z</time>
      </trkpt>
      <trkpt lat="45.96452" lon="4.85561">
        <ele>271</ele>
        <time>2018-08-20T09:17:23Z</time>
      </trkpt>
      <trkpt lat="45.96441" lon="4.85549">
        <ele>271</ele>
        <time>2018-08-20T09:17:24Z</time>
      </trkpt>
      <trkpt lat="45.9644" lon="4.85542">
        <ele>271</ele>
        <time>2018-08-20T09:17:25Z</time>
      </trkpt>
      <trkpt lat="45.96445" lon="4.85532">
        <ele>271</ele>
        <time>2018-08-20T09:17:26Z</time>
      </trkpt>
      <trkpt lat="45.96446" lon="4.8552">
        <ele>271</ele>
        <time>2018-08-20T09:17:27Z</time>
      </trkpt>
      <trkpt lat="45.96447" lon="4.85513">
        <ele>271</ele>
        <time>2018-08-20T09:17:28Z</time>
      </trkpt>
      <trkpt lat="45.96437" lon="4.85502">
        <ele>271</ele>
        <time>2018-08-20T09:17:29Z</time>
      </trkpt>
      <trkpt lat="45.96443" lon="4.85495">
        <ele>271</ele>
        <time>2018-08-20T09:17:30Z</time>
      </trkpt>
      <trkpt lat="45.96448" lon="4.85487">
        <ele>272</ele>
        <time>2018-08-20T09:17:31Z</time>
      </trkpt>
      <trkpt lat="45.96464" lon="4.8548">
        <ele>272</ele>
        <time>2018-08-20T09:17:32Z</time>
      </trkpt>
      <trkpt lat="45.96464" lon="4.85473">
        <ele>272</ele>
        <time>2018-08-20T09:17:33Z</time>
      </trkpt>
      <trkpt lat="45.96465" lon="4.85464">
        <ele>272</ele>
        <time>2018-08-20T09:17:34Z</time>
      </trkpt>
      <trkpt lat="45.96466" lon="4.85456">
        <ele>272</ele>
        <time>2018-08-20T09:17:35Z</time>
      </trkpt>
      <trkpt lat="45.96465" lon="4.85449">
        <ele>272</ele>
        <time>2018-08-20T09:17:36Z</time>
      </trkpt>
      <trkpt lat="45.96464" lon="4.85441">
        <ele>272</ele>
        <time>2018-08-20T09:17:37Z</time>
      </trkpt>
      <trkpt lat="45.96465" lon="4.85434">
        <ele>272</ele>
        <time>2018-08-20T09:17:38Z</time>
      </trkpt>
      <trkpt lat="45.96466" lon="4.85427">
        <ele>272</ele>
        <time>2018-08-20T09:17:39Z</time>
      </trkpt>
      <trkpt lat="45.96464" lon="4.8542">
        <ele>272</ele>
        <time>2018-08-20T09:17:40Z</time>
      </trkpt>
      <trkpt lat="45.96464" lon="4.85411">
        <ele>272</ele>
        <time>2018-08-20T09:17:41Z</time>
      </trkpt>
      <trkpt lat="45.96464" lon="4.85404">
        <ele>272</ele>
        <time>2018-08-20T09:17:42Z</time>
      </trkpt>
      <trkpt lat="45.96464" lon="4.85396">
        <ele>272</ele>
        <time>2018-08-20T09:17:43Z</time>
      </trkpt>
      <trkpt lat="45.96465" lon="4.85387">
        <ele>272</ele>
        <time>2018-08-20T09:17:44Z</time>
      </trkpt>
      <trkpt lat="45.96462" lon="4.8538">
        <ele>272</ele>
        <time>2018-08-20T09:17:45Z</time>
      </trkpt>
      <trkpt lat="45.9646" lon="4.8537">
        <ele>272</ele>
        <time>2018-08-20T09:17:46Z</time>
      </trkpt>
      <trkpt lat="45.96457" lon="4.85362">
        <ele>272</ele>
        <time>2018-08-20T09:17:47Z</time>
      </trkpt>
      <trkpt lat="45.96457" lon="4.85356">
        <ele>272</ele>
        <time>2018-08-20T09:17:48Z</time>
      </trkpt>
      <trkpt lat="45.9646" lon="4.85347">
        <ele>272</ele>
        <time>2018-08-20T09:17:49Z</time>
      </trkpt>
      <trkpt lat="45.96466" lon="4.85341">
        <ele>272</ele>
        <time>2018-08-20T09:17:50Z</time>
      </trkpt>
      <trkpt lat="45.9646" lon="4.85334">
        <ele>272</ele>
        <time>2018-08-20T09:17:51Z</time>
      </trkpt>
      <trkpt lat="45.96462" lon="4.85326">
        <ele>271</ele>
        <time>2018-08-20T09:17:52Z</time>
      </trkpt>
      <trkpt lat="45.9646" lon="4.85317">
        <ele>271</ele>
        <time>2018-08-20T09:17:53Z</time>
      </trkpt>
      <trkpt lat="45.96459" lon="4.85309">
        <ele>271</ele>
        <time>2018-08-20T09:17:54Z</time>
      </trkpt>
      <trkpt lat="45.96458" lon="4.85301">
        <ele>271</ele>
        <time>2018-08-20T09:17:55Z</time>
      </trkpt>
      <trkpt lat="45.96457" lon="4.85293">
        <ele>270</ele>
        <time>2018-08-20T09:17:56Z</time>
      </trkpt>
      <trkpt lat="45.96456" lon="4.85285">
        <ele>270</ele>
        <time>2018-08-20T09:17:57Z</time>
      </trkpt>
      <trkpt lat="45.96456" lon="4.85275">
        <ele>270</ele>
        <time>2018-08-20T09:17:58Z</time>
      </trkpt>
      <trkpt lat="45.96457" lon="4.85266">
        <ele>270</ele>
        <time>2018-08-20T09:17:59Z</time>
      </trkpt>
      <trkpt lat="45.96457" lon="4.85256">
        <ele>270</ele>
        <time>2018-08-20T09:18:00Z</time>
      </trkpt>
      <trkpt lat="45.96457" lon="4.85246">
        <ele>269</ele>
        <time>2018-08-20T09:18:01Z</time>
      </trkpt>
      <trkpt lat="45.96457" lon="4.85237">
        <ele>269</ele>
        <time>2018-08-20T09:18:02Z</time>
      </trkpt>
      <trkpt lat="45.96457" lon="4.85227">
        <ele>269</ele>
        <time>2018-08-20T09:18:03Z</time>
      </trkpt>
      <trkpt lat="45.96458" lon="4.85219">
        <ele>269</ele>
        <time>2018-08-20T09:18:04Z</time>
      </trkpt>
      <trkpt lat="45.96459" lon="4.85211">
        <ele>269</ele>
        <time>2018-08-20T09:18:05Z</time>
      </trkpt>
      <trkpt lat="45.96458" lon="4.85202">
        <ele>269</ele>
        <time>2018-08-20T09:18:06Z</time>
      </trkpt>
      <trkpt lat="45.9646" lon="4.85189">
        <ele>269</ele>
        <time>2018-08-20T09:18:07Z</time>
      </trkpt>
      <trkpt lat="45.96455" lon="4.85178">
        <ele>269</ele>
        <time>2018-08-20T09:18:08Z</time>
      </trkpt>
      <trkpt lat="45.96458" lon="4.85167">
        <ele>269</ele>
        <time>2018-08-20T09:18:09Z</time>
      </trkpt>
      <trkpt lat="45.9646" lon="4.85162">
        <ele>268</ele>
        <time>2018-08-20T09:18:10Z</time>
      </trkpt>
      <trkpt lat="45.96464" lon="4.85148">
        <ele>268</ele>
        <time>2018-08-20T09:18:11Z</time>
      </trkpt>
      <trkpt lat="45.96464" lon="4.85138">
        <ele>268</ele>
        <time>2018-08-20T09:18:12Z</time>
      </trkpt>
      <trkpt lat="45.96465" lon="4.85127">
        <ele>268</ele>
        <time>2018-08-20T09:18:13Z</time>
      </trkpt>
      <trkpt lat="45.96466" lon="4.85116">
        <ele>268</ele>
        <time>2018-08-20T09:18:14Z</time>
      </trkpt>
      <trkpt lat="45.96468" lon="4.85108">
        <ele>268</ele>
        <time>2018-08-20T09:18:15Z</time>
      </trkpt>
      <trkpt lat="45.96468" lon="4.85098">
        <ele>268</ele>
        <time>2018-08-20T09:18:16Z</time>
      </trkpt>
      <trkpt lat="45.96468" lon="4.85089">
        <ele>268</ele>
        <time>2018-08-20T09:18:17Z</time>
      </trkpt>
      <trkpt lat="45.9647" lon="4.8508">
        <ele>267</ele>
        <time>2018-08-20T09:18:18Z</time>
      </trkpt>
      <trkpt lat="45.96478" lon="4.85068">
        <ele>267</ele>
        <time>2018-08-20T09:18:19Z</time>
      </trkpt>
      <trkpt lat="45.96476" lon="4.85061">
        <ele>266</ele>
        <time>2018-08-20T09:18:20Z</time>
      </trkpt>
      <trkpt lat="45.96473" lon="4.85049">
        <ele>266</ele>
        <time>2018-08-20T09:18:21Z</time>
      </trkpt>
      <trkpt lat="45.96468" lon="4.85036">
        <ele>266</ele>
        <time>2018-08-20T09:18:22Z</time>
      </trkpt>
      <trkpt lat="45.96467" lon="4.85024">
        <ele>266</ele>
        <time>2018-08-20T09:18:23Z</time>
      </trkpt>
      <trkpt lat="45.96474" lon="4.85011">
        <ele>266</ele>
        <time>2018-08-20T09:18:24Z</time>
      </trkpt>
      <trkpt lat="45.96477" lon="4.84995">
        <ele>263</ele>
        <time>2018-08-20T09:18:25Z</time>
      </trkpt>
      <trkpt lat="45.96476" lon="4.84981">
        <ele>262</ele>
        <time>2018-08-20T09:18:26Z</time>
      </trkpt>
      <trkpt lat="45.96477" lon="4.84965">
        <ele>261</ele>
        <time>2018-08-20T09:18:27Z</time>
      </trkpt>
      <trkpt lat="45.96478" lon="4.84955">
        <ele>261</ele>
        <time>2018-08-20T09:18:28Z</time>
      </trkpt>
      <trkpt lat="45.96482" lon="4.84941">
        <ele>260</ele>
        <time>2018-08-20T09:18:29Z</time>
      </trkpt>
      <trkpt lat="45.96486" lon="4.84927">
        <ele>259</ele>
        <time>2018-08-20T09:18:30Z</time>
      </trkpt>
      <trkpt lat="45.96489" lon="4.84913">
        <ele>256</ele>
        <time>2018-08-20T09:18:31Z</time>
      </trkpt>
      <trkpt lat="45.9649" lon="4.84899">
        <ele>256</ele>
        <time>2018-08-20T09:18:32Z</time>
      </trkpt>
      <trkpt lat="45.96494" lon="4.84887">
        <ele>255</ele>
        <time>2018-08-20T09:18:33Z</time>
      </trkpt>
      <trkpt lat="45.96495" lon="4.84874">
        <ele>255</ele>
        <time>2018-08-20T09:18:34Z</time>
      </trkpt>
      <trkpt lat="45.965" lon="4.84863">
        <ele>255</ele>
        <time>2018-08-20T09:18:35Z</time>
      </trkpt>
      <trkpt lat="45.96504" lon="4.84852">
        <ele>256</ele>
        <time>2018-08-20T09:18:36Z</time>
      </trkpt>
      <trkpt lat="45.96507" lon="4.8484">
        <ele>255</ele>
        <time>2018-08-20T09:18:37Z</time>
      </trkpt>
      <trkpt lat="45.96509" lon="4.84827">
        <ele>254</ele>
        <time>2018-08-20T09:18:38Z</time>
      </trkpt>
      <trkpt lat="45.96513" lon="4.84813">
        <ele>254</ele>
        <time>2018-08-20T09:18:39Z</time>
      </trkpt>
      <trkpt lat="45.96517" lon="4.848">
        <ele>254</ele>
        <time>2018-08-20T09:18:40Z</time>
      </trkpt>
      <trkpt lat="45.9652" lon="4.84787">
        <ele>254</ele>
        <time>2018-08-20T09:18:41Z</time>
      </trkpt>
      <trkpt lat="45.96523" lon="4.84775">
        <ele>254</ele>
        <time>2018-08-20T09:18:42Z</time>
      </trkpt>
      <trkpt lat="45.96526" lon="4.84764">
        <ele>254</ele>
        <time>2018-08-20T09:18:43Z</time>
      </trkpt>
      <trkpt lat="45.96529" lon="4.84752">
        <ele>253</ele>
        <time>2018-08-20T09:18:44Z</time>
      </trkpt>
      <trkpt lat="45.96531" lon="4.8474">
        <ele>253</ele>
        <time>2018-08-20T09:18:45Z</time>
      </trkpt>
      <trkpt lat="45.96532" lon="4.84729">
        <ele>253</ele>
        <time>2018-08-20T09:18:46Z</time>
      </trkpt>
      <trkpt lat="45.96534" lon="4.84717">
        <ele>253</ele>
        <time>2018-08-20T09:18:47Z</time>
      </trkpt>
      <trkpt lat="45.96534" lon="4.84706">
        <ele>253</ele>
        <time>2018-08-20T09:18:48Z</time>
      </trkpt>
      <trkpt lat="45.96533" lon="4.84695">
        <ele>253</ele>
        <time>2018-08-20T09:18:49Z</time>
      </trkpt>
      <trkpt lat="45.96531" lon="4.84684">
        <ele>253</ele>
        <time>2018-08-20T09:18:50Z</time>
      </trkpt>
      <trkpt lat="45.96529" lon="4.84674">
        <ele>252</ele>
        <time>2018-08-20T09:18:51Z</time>
      </trkpt>
      <trkpt lat="45.96527" lon="4.84664">
        <ele>252</ele>
        <time>2018-08-20T09:18:52Z</time>
      </trkpt>
      <trkpt lat="45.96524" lon="4.84654">
        <ele>252</ele>
        <time>2018-08-20T09:18:53Z</time>
      </trkpt>
      <trkpt lat="45.96524" lon="4.84643">
        <ele>252</ele>
        <time>2018-08-20T09:18:54Z</time>
      </trkpt>
      <trkpt lat="45.96523" lon="4.84633">
        <ele>252</ele>
        <time>2018-08-20T09:18:55Z</time>
      </trkpt>
      <trkpt lat="45.96522" lon="4.84623">
        <ele>252</ele>
        <time>2018-08-20T09:18:56Z</time>
      </trkpt>
      <trkpt lat="45.96523" lon="4.84614">
        <ele>252</ele>
        <time>2018-08-20T09:18:57Z</time>
      </trkpt>
      <trkpt lat="45.96523" lon="4.84604">
        <ele>252</ele>
        <time>2018-08-20T09:18:58Z</time>
      </trkpt>
      <trkpt lat="45.96523" lon="4.84594">
        <ele>252</ele>
        <time>2018-08-20T09:18:59Z</time>
      </trkpt>
      <trkpt lat="45.96522" lon="4.84584">
        <ele>252</ele>
        <time>2018-08-20T09:19:00Z</time>
      </trkpt>
      <trkpt lat="45.96523" lon="4.84575">
        <ele>253</ele>
        <time>2018-08-20T09:19:01Z</time>
      </trkpt>
      <trkpt lat="45.96524" lon="4.84566">
        <ele>253</ele>
        <time>2018-08-20T09:19:02Z</time>
      </trkpt>
      <trkpt lat="45.96524" lon="4.84557">
        <ele>253</ele>
        <time>2018-08-20T09:19:03Z</time>
      </trkpt>
      <trkpt lat="45.96527" lon="4.84547">
        <ele>253</ele>
        <time>2018-08-20T09:19:04Z</time>
      </trkpt>
      <trkpt lat="45.96526" lon="4.84536">
        <ele>253</ele>
        <time>2018-08-20T09:19:05Z</time>
      </trkpt>
      <trkpt lat="45.96527" lon="4.84526">
        <ele>253</ele>
        <time>2018-08-20T09:19:06Z</time>
      </trkpt>
      <trkpt lat="45.96528" lon="4.84516">
        <ele>253</ele>
        <time>2018-08-20T09:19:07Z</time>
      </trkpt>
      <trkpt lat="45.96528" lon="4.84505">
        <ele>253</ele>
        <time>2018-08-20T09:19:08Z</time>
      </trkpt>
      <trkpt lat="45.96529" lon="4.84496">
        <ele>253</ele>
        <time>2018-08-20T09:19:09Z</time>
      </trkpt>
      <trkpt lat="45.9653" lon="4.84486">
        <ele>253</ele>
        <time>2018-08-20T09:19:10Z</time>
      </trkpt>
      <trkpt lat="45.96531" lon="4.84476">
        <ele>253</ele>
        <time>2018-08-20T09:19:11Z</time>
      </trkpt>
      <trkpt lat="45.96531" lon="4.84467">
        <ele>253</ele>
        <time>2018-08-20T09:19:12Z</time>
      </trkpt>
      <trkpt lat="45.96532" lon="4.84458">
        <ele>253</ele>
        <time>2018-08-20T09:19:13Z</time>
      </trkpt>
      <trkpt lat="45.96532" lon="4.84449">
        <ele>253</ele>
        <time>2018-08-20T09:19:14Z</time>
      </trkpt>
      <trkpt lat="45.96533" lon="4.8444">
        <ele>253</ele>
        <time>2018-08-20T09:19:15Z</time>
      </trkpt>
      <trkpt lat="45.96533" lon="4.84431">
        <ele>253</ele>
        <time>2018-08-20T09:19:16Z</time>
      </trkpt>
      <trkpt lat="45.96534" lon="4.84422">
        <ele>253</ele>
        <time>2018-08-20T09:19:17Z</time>
      </trkpt>
      <trkpt lat="45.96534" lon="4.84412">
        <ele>252</ele>
        <time>2018-08-20T09:19:18Z</time>
      </trkpt>
      <trkpt lat="45.96534" lon="4.84402">
        <ele>252</ele>
        <time>2018-08-20T09:19:19Z</time>
      </trkpt>
      <trkpt lat="45.96536" lon="4.84393">
        <ele>252</ele>
        <time>2018-08-20T09:19:20Z</time>
      </trkpt>
      <trkpt lat="45.96536" lon="4.84385">
        <ele>252</ele>
        <time>2018-08-20T09:19:21Z</time>
      </trkpt>
      <trkpt lat="45.96535" lon="4.84376">
        <ele>251</ele>
        <time>2018-08-20T09:19:22Z</time>
      </trkpt>
      <trkpt lat="45.96534" lon="4.84369">
        <ele>251</ele>
        <time>2018-08-20T09:19:23Z</time>
      </trkpt>
      <trkpt lat="45.96532" lon="4.84362">
        <ele>251</ele>
        <time>2018-08-20T09:19:24Z</time>
      </trkpt>
      <trkpt lat="45.9653" lon="4.84354">
        <ele>251</ele>
        <time>2018-08-20T09:19:25Z</time>
      </trkpt>
      <trkpt lat="45.9653" lon="4.84346">
        <ele>251</ele>
        <time>2018-08-20T09:19:26Z</time>
      </trkpt>
      <trkpt lat="45.96528" lon="4.84338">
        <ele>251</ele>
        <time>2018-08-20T09:19:27Z</time>
      </trkpt>
      <trkpt lat="45.96527" lon="4.8433">
        <ele>250</ele>
        <time>2018-08-20T09:19:28Z</time>
      </trkpt>
      <trkpt lat="45.96525" lon="4.84322">
        <ele>250</ele>
        <time>2018-08-20T09:19:29Z</time>
      </trkpt>
      <trkpt lat="45.96522" lon="4.84313">
        <ele>250</ele>
        <time>2018-08-20T09:19:30Z</time>
      </trkpt>
      <trkpt lat="45.9652" lon="4.84307">
        <ele>250</ele>
        <time>2018-08-20T09:19:31Z</time>
      </trkpt>
      <trkpt lat="45.96519" lon="4.84301">
        <ele>250</ele>
        <time>2018-08-20T09:19:32Z</time>
      </trkpt>
      <trkpt lat="45.96519" lon="4.84294">
        <ele>250</ele>
        <time>2018-08-20T09:19:33Z</time>
      </trkpt>
      <trkpt lat="45.96519" lon="4.84287">
        <ele>250</ele>
        <time>2018-08-20T09:19:34Z</time>
      </trkpt>
      <trkpt lat="45.96518" lon="4.8428">
        <ele>250</ele>
        <time>2018-08-20T09:19:35Z</time>
      </trkpt>
      <trkpt lat="45.96515" lon="4.84274">
        <ele>250</ele>
        <time>2018-08-20T09:19:36Z</time>
      </trkpt>
      <trkpt lat="45.96511" lon="4.84267">
        <ele>250</ele>
        <time>2018-08-20T09:19:37Z</time>
      </trkpt>
      <trkpt lat="45.9651" lon="4.84261">
        <ele>251</ele>
        <time>2018-08-20T09:19:38Z</time>
      </trkpt>
      <trkpt lat="45.96509" lon="4.84253">
        <ele>251</ele>
        <time>2018-08-20T09:19:39Z</time>
      </trkpt>
      <trkpt lat="45.96506" lon="4.84246">
        <ele>250</ele>
        <time>2018-08-20T09:19:40Z</time>
      </trkpt>
      <trkpt lat="45.96504" lon="4.84238">
        <ele>250</ele>
        <time>2018-08-20T09:19:41Z</time>
      </trkpt>
      <trkpt lat="45.96504" lon="4.84232">
        <ele>250</ele>
        <time>2018-08-20T09:19:42Z</time>
      </trkpt>
      <trkpt lat="45.96503" lon="4.84224">
        <ele>249</ele>
        <time>2018-08-20T09:19:43Z</time>
      </trkpt>
      <trkpt lat="45.96501" lon="4.84216">
        <ele>249</ele>
        <time>2018-08-20T09:19:44Z</time>
      </trkpt>
      <trkpt lat="45.96499" lon="4.84208">
        <ele>251</ele>
        <time>2018-08-20T09:19:45Z</time>
      </trkpt>
      <trkpt lat="45.96497" lon="4.842">
        <ele>251</ele>
        <time>2018-08-20T09:19:46Z</time>
      </trkpt>
      <trkpt lat="45.96498" lon="4.84193">
        <ele>251</ele>
        <time>2018-08-20T09:19:47Z</time>
      </trkpt>
      <trkpt lat="45.96496" lon="4.84186">
        <ele>251</ele>
        <time>2018-08-20T09:19:48Z</time>
      </trkpt>
      <trkpt lat="45.96495" lon="4.84179">
        <ele>250</ele>
        <time>2018-08-20T09:19:49Z</time>
      </trkpt>
      <trkpt lat="45.96493" lon="4.84172">
        <ele>250</ele>
        <time>2018-08-20T09:19:50Z</time>
      </trkpt>
      <trkpt lat="45.96492" lon="4.84165">
        <ele>250</ele>
        <time>2018-08-20T09:19:51Z</time>
      </trkpt>
      <trkpt lat="45.9649" lon="4.84158">
        <ele>250</ele>
        <time>2018-08-20T09:19:52Z</time>
      </trkpt>
      <trkpt lat="45.96488" lon="4.8415">
        <ele>250</ele>
        <time>2018-08-20T09:19:53Z</time>
      </trkpt>
      <trkpt lat="45.96486" lon="4.84142">
        <ele>251</ele>
        <time>2018-08-20T09:19:54Z</time>
      </trkpt>
      <trkpt lat="45.96484" lon="4.84135">
        <ele>251</ele>
        <time>2018-08-20T09:19:55Z</time>
      </trkpt>
      <trkpt lat="45.9648" lon="4.84127">
        <ele>251</ele>
        <time>2018-08-20T09:19:56Z</time>
      </trkpt>
      <trkpt lat="45.96477" lon="4.84118">
        <ele>251</ele>
        <time>2018-08-20T09:19:57Z</time>
      </trkpt>
      <trkpt lat="45.96474" lon="4.84109">
        <ele>251</ele>
        <time>2018-08-20T09:19:58Z</time>
      </trkpt>
      <trkpt lat="45.96472" lon="4.84102">
        <ele>251</ele>
        <time>2018-08-20T09:19:59Z</time>
      </trkpt>
      <trkpt lat="45.96468" lon="4.84094">
        <ele>251</ele>
        <time>2018-08-20T09:20:00Z</time>
      </trkpt>
      <trkpt lat="45.96465" lon="4.84085">
        <ele>251</ele>
        <time>2018-08-20T09:20:01Z</time>
      </trkpt>
      <trkpt lat="45.96462" lon="4.84077">
        <ele>251</ele>
        <time>2018-08-20T09:20:02Z</time>
      </trkpt>
      <trkpt lat="45.96458" lon="4.84068">
        <ele>251</ele>
        <time>2018-08-20T09:20:03Z</time>
      </trkpt>
      <trkpt lat="45.96456" lon="4.84059">
        <ele>251</ele>
        <time>2018-08-20T09:20:04Z</time>
      </trkpt>
      <trkpt lat="45.96453" lon="4.84049">
        <ele>251</ele>
        <time>2018-08-20T09:20:05Z</time>
      </trkpt>
      <trkpt lat="45.96449" lon="4.84039">
        <ele>251</ele>
        <time>2018-08-20T09:20:06Z</time>
      </trkpt>
      <trkpt lat="45.96445" lon="4.84031">
        <ele>251</ele>
        <time>2018-08-20T09:20:07Z</time>
      </trkpt>
      <trkpt lat="45.96443" lon="4.84023">
        <ele>251</ele>
        <time>2018-08-20T09:20:08Z</time>
      </trkpt>
      <trkpt lat="45.96441" lon="4.84014">
        <ele>251</ele>
        <time>2018-08-20T09:20:09Z</time>
      </trkpt>
      <trkpt lat="45.96435" lon="4.84004">
        <ele>252</ele>
        <time>2018-08-20T09:20:10Z</time>
      </trkpt>
      <trkpt lat="45.96432" lon="4.83994">
        <ele>251</ele>
        <time>2018-08-20T09:20:11Z</time>
      </trkpt>
      <trkpt lat="45.96426" lon="4.83983">
        <ele>251</ele>
        <time>2018-08-20T09:20:12Z</time>
      </trkpt>
      <trkpt lat="45.96421" lon="4.83973">
        <ele>250</ele>
        <time>2018-08-20T09:20:13Z</time>
      </trkpt>
      <trkpt lat="45.96415" lon="4.83962">
        <ele>252</ele>
        <time>2018-08-20T09:20:14Z</time>
      </trkpt>
      <trkpt lat="45.96412" lon="4.83951">
        <ele>252</ele>
        <time>2018-08-20T09:20:15Z</time>
      </trkpt>
      <trkpt lat="45.96405" lon="4.8394">
        <ele>251</ele>
        <time>2018-08-20T09:20:16Z</time>
      </trkpt>
      <trkpt lat="45.96401" lon="4.83927">
        <ele>250</ele>
        <time>2018-08-20T09:20:17Z</time>
      </trkpt>
      <trkpt lat="45.96394" lon="4.83916">
        <ele>248</ele>
        <time>2018-08-20T09:20:18Z</time>
      </trkpt>
      <trkpt lat="45.9639" lon="4.83904">
        <ele>248</ele>
        <time>2018-08-20T09:20:19Z</time>
      </trkpt>
      <trkpt lat="45.96385" lon="4.83893">
        <ele>248</ele>
        <time>2018-08-20T09:20:20Z</time>
      </trkpt>
      <trkpt lat="45.9638" lon="4.83881">
        <ele>247</ele>
        <time>2018-08-20T09:20:21Z</time>
      </trkpt>
      <trkpt lat="45.96377" lon="4.83872">
        <ele>247</ele>
        <time>2018-08-20T09:20:22Z</time>
      </trkpt>
      <trkpt lat="45.96371" lon="4.83863">
        <ele>247</ele>
        <time>2018-08-20T09:20:23Z</time>
      </trkpt>
      <trkpt lat="45.9637" lon="4.8385">
        <ele>247</ele>
        <time>2018-08-20T09:20:24Z</time>
      </trkpt>
      <trkpt lat="45.96362" lon="4.83842">
        <ele>246</ele>
        <time>2018-08-20T09:20:25Z</time>
      </trkpt>
      <trkpt lat="45.96355" lon="4.83832">
        <ele>246</ele>
        <time>2018-08-20T09:20:26Z</time>
      </trkpt>
      <trkpt lat="45.9635" lon="4.83821">
        <ele>246</ele>
        <time>2018-08-20T09:20:27Z</time>
      </trkpt>
      <trkpt lat="45.96345" lon="4.83814">
        <ele>246</ele>
        <time>2018-08-20T09:20:28Z</time>
      </trkpt>
      <trkpt lat="45.96338" lon="4.83805">
        <ele>246</ele>
        <time>2018-08-20T09:20:29Z</time>
      </trkpt>
      <trkpt lat="45.96326" lon="4.83799">
        <ele>245</ele>
        <time>2018-08-20T09:20:30Z</time>
      </trkpt>
      <trkpt lat="45.96315" lon="4.83791">
        <ele>245</ele>
        <time>2018-08-20T09:20:31Z</time>
      </trkpt>
      <trkpt lat="45.96309" lon="4.83785">
        <ele>245</ele>
        <time>2018-08-20T09:20:32Z</time>
      </trkpt>
      <trkpt lat="45.96297" lon="4.83779">
        <ele>245</ele>
        <time>2018-08-20T09:20:33Z</time>
      </trkpt>
      <trkpt lat="45.96292" lon="4.83772">
        <ele>245</ele>
        <time>2018-08-20T09:20:34Z</time>
      </trkpt>
      <trkpt lat="45.96284" lon="4.83765">
        <ele>245</ele>
        <time>2018-08-20T09:20:35Z</time>
      </trkpt>
      <trkpt lat="45.96276" lon="4.83758">
        <ele>245</ele>
        <time>2018-08-20T09:20:36Z</time>
      </trkpt>
      <trkpt lat="45.96269" lon="4.83752">
        <ele>245</ele>
        <time>2018-08-20T09:20:37Z</time>
      </trkpt>
      <trkpt lat="45.96263" lon="4.83745">
        <ele>245</ele>
        <time>2018-08-20T09:20:38Z</time>
      </trkpt>
      <trkpt lat="45.96257" lon="4.8374">
        <ele>245</ele>
        <time>2018-08-20T09:20:39Z</time>
      </trkpt>
      <trkpt lat="45.96249" lon="4.83734">
        <ele>244</ele>
        <time>2018-08-20T09:20:40Z</time>
      </trkpt>
      <trkpt lat="45.96242" lon="4.83726">
        <ele>244</ele>
        <time>2018-08-20T09:20:41Z</time>
      </trkpt>
      <trkpt lat="45.96233" lon="4.83719">
        <ele>244</ele>
        <time>2018-08-20T09:20:42Z</time>
      </trkpt>
      <trkpt lat="45.96227" lon="4.83712">
        <ele>244</ele>
        <time>2018-08-20T09:20:43Z</time>
      </trkpt>
      <trkpt lat="45.96223" lon="4.83706">
        <ele>244</ele>
        <time>2018-08-20T09:20:44Z</time>
      </trkpt>
      <trkpt lat="45.96218" lon="4.83699">
        <ele>244</ele>
        <time>2018-08-20T09:20:45Z</time>
      </trkpt>
      <trkpt lat="45.96212" lon="4.83694">
        <ele>243</ele>
        <time>2018-08-20T09:20:46Z</time>
      </trkpt>
      <trkpt lat="45.96207" lon="4.83687">
        <ele>243</ele>
        <time>2018-08-20T09:20:47Z</time>
      </trkpt>
      <trkpt lat="45.96202" lon="4.83681">
        <ele>243</ele>
        <time>2018-08-20T09:20:48Z</time>
      </trkpt>
      <trkpt lat="45.96199" lon="4.83676">
        <ele>243</ele>
        <time>2018-08-20T09:20:49Z</time>
      </trkpt>
      <trkpt lat="45.96196" lon="4.83671">
        <ele>243</ele>
        <time>2018-08-20T09:20:50Z</time>
      </trkpt>
      <trkpt lat="45.96189" lon="4.83664">
        <ele>242</ele>
        <time>2018-08-20T09:20:51Z</time>
      </trkpt>
      <trkpt lat="45.96184" lon="4.83659">
        <ele>242</ele>
        <time>2018-08-20T09:20:52Z</time>
      </trkpt>
      <trkpt lat="45.96179" lon="4.83653">
        <ele>242</ele>
        <time>2018-08-20T09:20:53Z</time>
      </trkpt>
      <trkpt lat="45.96174" lon="4.83646">
        <ele>242</ele>
        <time>2018-08-20T09:20:54Z</time>
      </trkpt>
      <trkpt lat="45.96172" lon="4.83639">
        <ele>242</ele>
        <time>2018-08-20T09:20:55Z</time>
      </trkpt>
      <trkpt lat="45.96165" lon="4.83631">
        <ele>242</ele>
        <time>2018-08-20T09:20:56Z</time>
      </trkpt>
      <trkpt lat="45.96161" lon="4.83624">
        <ele>242</ele>
        <time>2018-08-20T09:20:57Z</time>
      </trkpt>
      <trkpt lat="45.96155" lon="4.83616">
        <ele>242</ele>
        <time>2018-08-20T09:20:58Z</time>
      </trkpt>
      <trkpt lat="45.96154" lon="4.83606">
        <ele>242</ele>
        <time>2018-08-20T09:20:59Z</time>
      </trkpt>
      <trkpt lat="45.96159" lon="4.836">
        <ele>242</ele>
        <time>2018-08-20T09:21:00Z</time>
      </trkpt>
      <trkpt lat="45.96157" lon="4.8359">
        <ele>241</ele>
        <time>2018-08-20T09:21:01Z</time>
      </trkpt>
      <trkpt lat="45.96152" lon="4.8358">
        <ele>241</ele>
        <time>2018-08-20T09:21:02Z</time>
      </trkpt>
      <trkpt lat="45.96154" lon="4.8357">
        <ele>241</ele>
        <time>2018-08-20T09:21:03Z</time>
      </trkpt>
      <trkpt lat="45.96152" lon="4.83562">
        <ele>241</ele>
        <time>2018-08-20T09:21:04Z</time>
      </trkpt>
      <trkpt lat="45.9615" lon="4.83554">
        <ele>241</ele>
        <time>2018-08-20T09:21:05Z</time>
      </trkpt>
      <trkpt lat="45.9615" lon="4.83544">
        <ele>241</ele>
        <time>2018-08-20T09:21:06Z</time>
      </trkpt>
      <trkpt lat="45.96148" lon="4.83536">
        <ele>241</ele>
        <time>2018-08-20T09:21:07Z</time>
      </trkpt>
      <trkpt lat="45.96148" lon="4.83528">
        <ele>241</ele>
        <time>2018-08-20T09:21:08Z</time>
      </trkpt>
      <trkpt lat="45.96148" lon="4.83521">
        <ele>241</ele>
        <time>2018-08-20T09:21:09Z</time>
      </trkpt>
      <trkpt lat="45.96147" lon="4.83512">
        <ele>241</ele>
        <time>2018-08-20T09:21:10Z</time>
      </trkpt>
      <trkpt lat="45.96143" lon="4.83504">
        <ele>241</ele>
        <time>2018-08-20T09:21:11Z</time>
      </trkpt>
      <trkpt lat="45.96139" lon="4.83496">
        <ele>242</ele>
        <time>2018-08-20T09:21:12Z</time>
      </trkpt>
      <trkpt lat="45.96139" lon="4.83488">
        <ele>242</ele>
        <time>2018-08-20T09:21:13Z</time>
      </trkpt>
      <trkpt lat="45.96137" lon="4.8348">
        <ele>242</ele>
        <time>2018-08-20T09:21:14Z</time>
      </trkpt>
      <trkpt lat="45.96132" lon="4.8347">
        <ele>242</ele>
        <time>2018-08-20T09:21:15Z</time>
      </trkpt>
      <trkpt lat="45.96128" lon="4.83461">
        <ele>242</ele>
        <time>2018-08-20T09:21:16Z</time>
      </trkpt>
      <trkpt lat="45.96121" lon="4.83452">
        <ele>242</ele>
        <time>2018-08-20T09:21:17Z</time>
      </trkpt>
      <trkpt lat="45.96118" lon="4.83443">
        <ele>242</ele>
        <time>2018-08-20T09:21:18Z</time>
      </trkpt>
      <trkpt lat="45.96115" lon="4.83429">
        <ele>243</ele>
        <time>2018-08-20T09:21:19Z</time>
      </trkpt>
      <trkpt lat="45.96114" lon="4.8342">
        <ele>243</ele>
        <time>2018-08-20T09:21:20Z</time>
      </trkpt>
      <trkpt lat="45.9611" lon="4.83412">
        <ele>243</ele>
        <time>2018-08-20T09:21:21Z</time>
      </trkpt>
      <trkpt lat="45.96112" lon="4.83401">
        <ele>243</ele>
        <time>2018-08-20T09:21:22Z</time>
      </trkpt>
      <trkpt lat="45.96112" lon="4.83394">
        <ele>243</ele>
        <time>2018-08-20T09:21:23Z</time>
      </trkpt>
      <trkpt lat="45.96118" lon="4.83384">
        <ele>243</ele>
        <time>2018-08-20T09:21:24Z</time>
      </trkpt>
      <trkpt lat="45.96115" lon="4.83375">
        <ele>242</ele>
        <time>2018-08-20T09:21:25Z</time>
      </trkpt>
      <trkpt lat="45.96111" lon="4.83367">
        <ele>242</ele>
        <time>2018-08-20T09:21:26Z</time>
      </trkpt>
      <trkpt lat="45.96108" lon="4.83358">
        <ele>242</ele>
        <time>2018-08-20T09:21:27Z</time>
      </trkpt>
      <trkpt lat="45.96106" lon="4.83347">
        <ele>242</ele>
        <time>2018-08-20T09:21:28Z</time>
      </trkpt>
      <trkpt lat="45.96106" lon="4.83338">
        <ele>242</ele>
        <time>2018-08-20T09:21:29Z</time>
      </trkpt>
      <trkpt lat="45.96103" lon="4.83328">
        <ele>241</ele>
        <time>2018-08-20T09:21:30Z</time>
      </trkpt>
      <trkpt lat="45.96104" lon="4.83319">
        <ele>241</ele>
        <time>2018-08-20T09:21:31Z</time>
      </trkpt>
      <trkpt lat="45.96101" lon="4.83311">
        <ele>241</ele>
        <time>2018-08-20T09:21:32Z</time>
      </trkpt>
      <trkpt lat="45.96093" lon="4.833">
        <ele>241</ele>
        <time>2018-08-20T09:21:33Z</time>
      </trkpt>
      <trkpt lat="45.96097" lon="4.8329">
        <ele>241</ele>
        <time>2018-08-20T09:21:34Z</time>
      </trkpt>
      <trkpt lat="45.96096" lon="4.83282">
        <ele>241</ele>
        <time>2018-08-20T09:21:35Z</time>
      </trkpt>
      <trkpt lat="45.96096" lon="4.83272">
        <ele>241</ele>
        <time>2018-08-20T09:21:36Z</time>
      </trkpt>
      <trkpt lat="45.96097" lon="4.83268">
        <ele>241</ele>
        <time>2018-08-20T09:21:37Z</time>
      </trkpt>
      <trkpt lat="45.96094" lon="4.8326">
        <ele>241</ele>
        <time>2018-08-20T09:21:38Z</time>
      </trkpt>
      <trkpt lat="45.96095" lon="4.83245">
        <ele>240</ele>
        <time>2018-08-20T09:21:39Z</time>
      </trkpt>
      <trkpt lat="45.96094" lon="4.83235">
        <ele>240</ele>
        <time>2018-08-20T09:21:40Z</time>
      </trkpt>
      <trkpt lat="45.96096" lon="4.83228">
        <ele>240</ele>
        <time>2018-08-20T09:21:41Z</time>
      </trkpt>
      <trkpt lat="45.96096" lon="4.83218">
        <ele>240</ele>
        <time>2018-08-20T09:21:42Z</time>
      </trkpt>
      <trkpt lat="45.96095" lon="4.83208">
        <ele>240</ele>
        <time>2018-08-20T09:21:43Z</time>
      </trkpt>
      <trkpt lat="45.96094" lon="4.83198">
        <ele>240</ele>
        <time>2018-08-20T09:21:44Z</time>
      </trkpt>
      <trkpt lat="45.96093" lon="4.83187">
        <ele>240</ele>
        <time>2018-08-20T09:21:45Z</time>
      </trkpt>
      <trkpt lat="45.96092" lon="4.83177">
        <ele>240</ele>
        <time>2018-08-20T09:21:46Z</time>
      </trkpt>
      <trkpt lat="45.96095" lon="4.83168">
        <ele>240</ele>
        <time>2018-08-20T09:21:47Z</time>
      </trkpt>
      <trkpt lat="45.96096" lon="4.83158">
        <ele>240</ele>
        <time>2018-08-20T09:21:48Z</time>
      </trkpt>
      <trkpt lat="45.96095" lon="4.83151">
        <ele>240</ele>
        <time>2018-08-20T09:21:49Z</time>
      </trkpt>
      <trkpt lat="45.96093" lon="4.83145">
        <ele>240</ele>
        <time>2018-08-20T09:21:50Z</time>
      </trkpt>
      <trkpt lat="45.96092" lon="4.83139">
        <ele>240</ele>
        <time>2018-08-20T09:21:51Z</time>
      </trkpt>
      <trkpt lat="45.96092" lon="4.83129">
        <ele>240</ele>
        <time>2018-08-20T09:21:52Z</time>
      </trkpt>
      <trkpt lat="45.96091" lon="4.83122">
        <ele>240</ele>
        <time>2018-08-20T09:21:53Z</time>
      </trkpt>
      <trkpt lat="45.9609" lon="4.83114">
        <ele>240</ele>
        <time>2018-08-20T09:21:54Z</time>
      </trkpt>
      <trkpt lat="45.96088" lon="4.83107">
        <ele>240</ele>
        <time>2018-08-20T09:21:55Z</time>
      </trkpt>
      <trkpt lat="45.96085" lon="4.83099">
        <ele>240</ele>
        <time>2018-08-20T09:21:56Z</time>
      </trkpt>
      <trkpt lat="45.96085" lon="4.8309">
        <ele>240</ele>
        <time>2018-08-20T09:21:57Z</time>
      </trkpt>
      <trkpt lat="45.96083" lon="4.83083">
        <ele>240</ele>
        <time>2018-08-20T09:21:58Z</time>
      </trkpt>
      <trkpt lat="45.96082" lon="4.83073">
        <ele>241</ele>
        <time>2018-08-20T09:21:59Z</time>
      </trkpt>
      <trkpt lat="45.96081" lon="4.83066">
        <ele>242</ele>
        <time>2018-08-20T09:22:00Z</time>
      </trkpt>
      <trkpt lat="45.96079" lon="4.83059">
        <ele>242</ele>
        <time>2018-08-20T09:22:01Z</time>
      </trkpt>
      <trkpt lat="45.96079" lon="4.83051">
        <ele>242</ele>
        <time>2018-08-20T09:22:02Z</time>
      </trkpt>
      <trkpt lat="45.96079" lon="4.83043">
        <ele>242</ele>
        <time>2018-08-20T09:22:03Z</time>
      </trkpt>
      <trkpt lat="45.96078" lon="4.83036">
        <ele>242</ele>
        <time>2018-08-20T09:22:04Z</time>
      </trkpt>
      <trkpt lat="45.96077" lon="4.83027">
        <ele>242</ele>
        <time>2018-08-20T09:22:05Z</time>
      </trkpt>
      <trkpt lat="45.96076" lon="4.83019">
        <ele>242</ele>
        <time>2018-08-20T09:22:06Z</time>
      </trkpt>
      <trkpt lat="45.96075" lon="4.83011">
        <ele>241</ele>
        <time>2018-08-20T09:22:07Z</time>
      </trkpt>
      <trkpt lat="45.96078" lon="4.83005">
        <ele>240</ele>
        <time>2018-08-20T09:22:08Z</time>
      </trkpt>
      <trkpt lat="45.96077" lon="4.82995">
        <ele>240</ele>
        <time>2018-08-20T09:22:09Z</time>
      </trkpt>
      <trkpt lat="45.96075" lon="4.82989">
        <ele>240</ele>
        <time>2018-08-20T09:22:10Z</time>
      </trkpt>
      <trkpt lat="45.96074" lon="4.82979">
        <ele>241</ele>
        <time>2018-08-20T09:22:11Z</time>
      </trkpt>
      <trkpt lat="45.96076" lon="4.8297">
        <ele>241</ele>
        <time>2018-08-20T09:22:12Z</time>
      </trkpt>
      <trkpt lat="45.96078" lon="4.82957">
        <ele>241</ele>
        <time>2018-08-20T09:22:13Z</time>
      </trkpt>
      <trkpt lat="45.96081" lon="4.8295">
        <ele>241</ele>
        <time>2018-08-20T09:22:14Z</time>
      </trkpt>
      <trkpt lat="45.96083" lon="4.82941">
        <ele>240</ele>
        <time>2018-08-20T09:22:15Z</time>
      </trkpt>
      <trkpt lat="45.96081" lon="4.8293">
        <ele>240</ele>
        <time>2018-08-20T09:22:16Z</time>
      </trkpt>
      <trkpt lat="45.96084" lon="4.82922">
        <ele>238</ele>
        <time>2018-08-20T09:22:17Z</time>
      </trkpt>
      <trkpt lat="45.96086" lon="4.82912">
        <ele>238</ele>
        <time>2018-08-20T09:22:18Z</time>
      </trkpt>
      <trkpt lat="45.96088" lon="4.82905">
        <ele>238</ele>
        <time>2018-08-20T09:22:19Z</time>
      </trkpt>
      <trkpt lat="45.96087" lon="4.82896">
        <ele>238</ele>
        <time>2018-08-20T09:22:20Z</time>
      </trkpt>
      <trkpt lat="45.9609" lon="4.82884">
        <ele>237</ele>
        <time>2018-08-20T09:22:21Z</time>
      </trkpt>
      <trkpt lat="45.96096" lon="4.82881">
        <ele>237</ele>
        <time>2018-08-20T09:22:22Z</time>
      </trkpt>
      <trkpt lat="45.96099" lon="4.82876">
        <ele>237</ele>
        <time>2018-08-20T09:22:23Z</time>
      </trkpt>
      <trkpt lat="45.96101" lon="4.82871">
        <ele>237</ele>
        <time>2018-08-20T09:22:24Z</time>
      </trkpt>
      <trkpt lat="45.96101" lon="4.82863">
        <ele>237</ele>
        <time>2018-08-20T09:22:25Z</time>
      </trkpt>
      <trkpt lat="45.96102" lon="4.82851">
        <ele>237</ele>
        <time>2018-08-20T09:22:27Z</time>
      </trkpt>
      <trkpt lat="45.96102" lon="4.82843">
        <ele>237</ele>
        <time>2018-08-20T09:22:28Z</time>
      </trkpt>
      <trkpt lat="45.96102" lon="4.82836">
        <ele>237</ele>
        <time>2018-08-20T09:22:29Z</time>
      </trkpt>
      <trkpt lat="45.96102" lon="4.82827">
        <ele>237</ele>
        <time>2018-08-20T09:22:30Z</time>
      </trkpt>
      <trkpt lat="45.96103" lon="4.82816">
        <ele>237</ele>
        <time>2018-08-20T09:22:32Z</time>
      </trkpt>
      <trkpt lat="45.96099" lon="4.82809">
        <ele>237</ele>
        <time>2018-08-20T09:22:33Z</time>
      </trkpt>
      <trkpt lat="45.96099" lon="4.828">
        <ele>237</ele>
        <time>2018-08-20T09:22:34Z</time>
      </trkpt>
      <trkpt lat="45.96096" lon="4.82791">
        <ele>237</ele>
        <time>2018-08-20T09:22:35Z</time>
      </trkpt>
      <trkpt lat="45.96095" lon="4.82781">
        <ele>237</ele>
        <time>2018-08-20T09:22:36Z</time>
      </trkpt>
      <trkpt lat="45.96089" lon="4.82773">
        <ele>237</ele>
        <time>2018-08-20T09:22:37Z</time>
      </trkpt>
      <trkpt lat="45.96089" lon="4.82764">
        <ele>237</ele>
        <time>2018-08-20T09:22:38Z</time>
      </trkpt>
      <trkpt lat="45.96087" lon="4.82755">
        <ele>237</ele>
        <time>2018-08-20T09:22:39Z</time>
      </trkpt>
      <trkpt lat="45.96092" lon="4.82748">
        <ele>237</ele>
        <time>2018-08-20T09:22:40Z</time>
      </trkpt>
      <trkpt lat="45.9609" lon="4.82741">
        <ele>237</ele>
        <time>2018-08-20T09:22:41Z</time>
      </trkpt>
      <trkpt lat="45.96085" lon="4.82732">
        <ele>237</ele>
        <time>2018-08-20T09:22:42Z</time>
      </trkpt>
      <trkpt lat="45.96076" lon="4.82723">
        <ele>237</ele>
        <time>2018-08-20T09:22:43Z</time>
      </trkpt>
      <trkpt lat="45.96075" lon="4.8271">
        <ele>237</ele>
        <time>2018-08-20T09:22:45Z</time>
      </trkpt>
      <trkpt lat="45.96073" lon="4.82705">
        <ele>237</ele>
        <time>2018-08-20T09:22:46Z</time>
      </trkpt>
      <trkpt lat="45.9607" lon="4.82699">
        <ele>237</ele>
        <time>2018-08-20T09:22:47Z</time>
      </trkpt>
      <trkpt lat="45.96067" lon="4.82693">
        <ele>236</ele>
        <time>2018-08-20T09:22:48Z</time>
      </trkpt>
      <trkpt lat="45.96063" lon="4.82685">
        <ele>236</ele>
        <time>2018-08-20T09:22:49Z</time>
      </trkpt>
      <trkpt lat="45.96062" lon="4.82679">
        <ele>236</ele>
        <time>2018-08-20T09:22:50Z</time>
      </trkpt>
      <trkpt lat="45.96059" lon="4.82674">
        <ele>236</ele>
        <time>2018-08-20T09:22:51Z</time>
      </trkpt>
      <trkpt lat="45.96056" lon="4.82666">
        <ele>236</ele>
        <time>2018-08-20T09:22:52Z</time>
      </trkpt>
      <trkpt lat="45.96053" lon="4.82659">
        <ele>235</ele>
        <time>2018-08-20T09:22:53Z</time>
      </trkpt>
      <trkpt lat="45.9605" lon="4.82652">
        <ele>235</ele>
        <time>2018-08-20T09:22:54Z</time>
      </trkpt>
      <trkpt lat="45.96047" lon="4.82644">
        <ele>235</ele>
        <time>2018-08-20T09:22:55Z</time>
      </trkpt>
      <trkpt lat="45.96046" lon="4.82636">
        <ele>235</ele>
        <time>2018-08-20T09:22:56Z</time>
      </trkpt>
      <trkpt lat="45.96046" lon="4.8263">
        <ele>235</ele>
        <time>2018-08-20T09:22:57Z</time>
      </trkpt>
      <trkpt lat="45.96043" lon="4.82622">
        <ele>235</ele>
        <time>2018-08-20T09:22:58Z</time>
      </trkpt>
      <trkpt lat="45.96042" lon="4.82615">
        <ele>235</ele>
        <time>2018-08-20T09:22:59Z</time>
      </trkpt>
      <trkpt lat="45.96036" lon="4.8261">
        <ele>235</ele>
        <time>2018-08-20T09:23:00Z</time>
      </trkpt>
      <trkpt lat="45.96033" lon="4.82603">
        <ele>235</ele>
        <time>2018-08-20T09:23:01Z</time>
      </trkpt>
      <trkpt lat="45.96028" lon="4.82595">
        <ele>235</ele>
        <time>2018-08-20T09:23:02Z</time>
      </trkpt>
      <trkpt lat="45.96029" lon="4.82587">
        <ele>235</ele>
        <time>2018-08-20T09:23:03Z</time>
      </trkpt>
      <trkpt lat="45.9603" lon="4.82579">
        <ele>235</ele>
        <time>2018-08-20T09:23:04Z</time>
      </trkpt>
      <trkpt lat="45.96026" lon="4.82569">
        <ele>235</ele>
        <time>2018-08-20T09:23:05Z</time>
      </trkpt>
      <trkpt lat="45.96023" lon="4.8256">
        <ele>235</ele>
        <time>2018-08-20T09:23:06Z</time>
      </trkpt>
      <trkpt lat="45.9602" lon="4.82552">
        <ele>235</ele>
        <time>2018-08-20T09:23:07Z</time>
      </trkpt>
      <trkpt lat="45.96015" lon="4.82542">
        <ele>235</ele>
        <time>2018-08-20T09:23:08Z</time>
      </trkpt>
      <trkpt lat="45.96017" lon="4.82535">
        <ele>235</ele>
        <time>2018-08-20T09:23:09Z</time>
      </trkpt>
      <trkpt lat="45.96017" lon="4.82526">
        <ele>235</ele>
        <time>2018-08-20T09:23:10Z</time>
      </trkpt>
      <trkpt lat="45.96018" lon="4.82518">
        <ele>235</ele>
        <time>2018-08-20T09:23:11Z</time>
      </trkpt>
      <trkpt lat="45.96019" lon="4.82509">
        <ele>235</ele>
        <time>2018-08-20T09:23:12Z</time>
      </trkpt>
      <trkpt lat="45.9602" lon="4.825">
        <ele>235</ele>
        <time>2018-08-20T09:23:13Z</time>
      </trkpt>
      <trkpt lat="45.96022" lon="4.8249">
        <ele>235</ele>
        <time>2018-08-20T09:23:14Z</time>
      </trkpt>
      <trkpt lat="45.96021" lon="4.8248">
        <ele>235</ele>
        <time>2018-08-20T09:23:15Z</time>
      </trkpt>
      <trkpt lat="45.96023" lon="4.82472">
        <ele>235</ele>
        <time>2018-08-20T09:23:16Z</time>
      </trkpt>
      <trkpt lat="45.96023" lon="4.82463">
        <ele>235</ele>
        <time>2018-08-20T09:23:17Z</time>
      </trkpt>
      <trkpt lat="45.96025" lon="4.82454">
        <ele>235</ele>
        <time>2018-08-20T09:23:18Z</time>
      </trkpt>
      <trkpt lat="45.96026" lon="4.82445">
        <ele>235</ele>
        <time>2018-08-20T09:23:19Z</time>
      </trkpt>
      <trkpt lat="45.96028" lon="4.82438">
        <ele>235</ele>
        <time>2018-08-20T09:23:20Z</time>
      </trkpt>
      <trkpt lat="45.96028" lon="4.82429">
        <ele>235</ele>
        <time>2018-08-20T09:23:21Z</time>
      </trkpt>
      <trkpt lat="45.9603" lon="4.82418">
        <ele>235</ele>
        <time>2018-08-20T09:23:22Z</time>
      </trkpt>
      <trkpt lat="45.9603" lon="4.8241">
        <ele>235</ele>
        <time>2018-08-20T09:23:23Z</time>
      </trkpt>
      <trkpt lat="45.96031" lon="4.82401">
        <ele>235</ele>
        <time>2018-08-20T09:23:24Z</time>
      </trkpt>
      <trkpt lat="45.96033" lon="4.82394">
        <ele>235</ele>
        <time>2018-08-20T09:23:25Z</time>
      </trkpt>
      <trkpt lat="45.96033" lon="4.82388">
        <ele>235</ele>
        <time>2018-08-20T09:23:26Z</time>
      </trkpt>
      <trkpt lat="45.96035" lon="4.82377">
        <ele>235</ele>
        <time>2018-08-20T09:23:28Z</time>
      </trkpt>
      <trkpt lat="45.96037" lon="4.82371">
        <ele>235</ele>
        <time>2018-08-20T09:23:29Z</time>
      </trkpt>
      <trkpt lat="45.96034" lon="4.8236">
        <ele>235</ele>
        <time>2018-08-20T09:23:33Z</time>
      </trkpt>
      <trkpt lat="45.96026" lon="4.82356">
        <ele>235</ele>
        <time>2018-08-20T09:23:34Z</time>
      </trkpt>
      <trkpt lat="45.96017" lon="4.82353">
        <ele>235</ele>
        <time>2018-08-20T09:23:38Z</time>
      </trkpt>
      <trkpt lat="45.96014" lon="4.82352">
        <ele>235</ele>
        <time>2018-08-20T09:23:39Z</time>
      </trkpt>
      <trkpt lat="45.96012" lon="4.82352">
        <ele>235</ele>
        <time>2018-08-20T09:23:40Z</time>
      </trkpt>
      <trkpt lat="45.96002" lon="4.82349">
        <ele>235</ele>
        <time>2018-08-20T09:23:41Z</time>
      </trkpt>
      <trkpt lat="45.95995" lon="4.82348">
        <ele>236</ele>
        <time>2018-08-20T09:23:43Z</time>
      </trkpt>
      <trkpt lat="45.95989" lon="4.82349">
        <ele>236</ele>
        <time>2018-08-20T09:23:44Z</time>
      </trkpt>
      <trkpt lat="45.95982" lon="4.8235">
        <ele>236</ele>
        <time>2018-08-20T09:23:47Z</time>
      </trkpt>
      <trkpt lat="45.9598" lon="4.8235">
        <ele>236</ele>
        <time>2018-08-20T09:23:48Z</time>
      </trkpt>
      <trkpt lat="45.95972" lon="4.82353">
        <ele>237</ele>
        <time>2018-08-20T09:23:51Z</time>
      </trkpt>
      <trkpt lat="45.9597" lon="4.82354">
        <ele>237</ele>
        <time>2018-08-20T09:23:52Z</time>
      </trkpt>
      <trkpt lat="45.95961" lon="4.82355">
        <ele>237</ele>
        <time>2018-08-20T09:23:55Z</time>
      </trkpt>
      <trkpt lat="45.95958" lon="4.82355">
        <ele>237</ele>
        <time>2018-08-20T09:23:56Z</time>
      </trkpt>
      <trkpt lat="45.95952" lon="4.82356">
        <ele>237</ele>
        <time>2018-08-20T09:23:58Z</time>
      </trkpt>
      <trkpt lat="45.95949" lon="4.82356">
        <ele>237</ele>
        <time>2018-08-20T09:23:59Z</time>
      </trkpt>
      <trkpt lat="45.9594" lon="4.82357">
        <ele>237</ele>
        <time>2018-08-20T09:24:02Z</time>
      </trkpt>
      <trkpt lat="45.95937" lon="4.82357">
        <ele>238</ele>
        <time>2018-08-20T09:24:03Z</time>
      </trkpt>
      <trkpt lat="45.95931" lon="4.82357">
        <ele>238</ele>
        <time>2018-08-20T09:24:05Z</time>
      </trkpt>
      <trkpt lat="45.95928" lon="4.82357">
        <ele>238</ele>
        <time>2018-08-20T09:24:06Z</time>
      </trkpt>
      <trkpt lat="45.95919" lon="4.82358">
        <ele>238</ele>
        <time>2018-08-20T09:24:09Z</time>
      </trkpt>
      <trkpt lat="45.95916" lon="4.82358">
        <ele>241</ele>
        <time>2018-08-20T09:24:10Z</time>
      </trkpt>
      <trkpt lat="45.95908" lon="4.8236">
        <ele>242</ele>
        <time>2018-08-20T09:24:13Z</time>
      </trkpt>
      <trkpt lat="45.95906" lon="4.8236">
        <ele>242</ele>
        <time>2018-08-20T09:24:14Z</time>
      </trkpt>
      <trkpt lat="45.95897" lon="4.82363">
        <ele>243</ele>
        <time>2018-08-20T09:24:18Z</time>
      </trkpt>
      <trkpt lat="45.95895" lon="4.82363">
        <ele>243</ele>
        <time>2018-08-20T09:24:19Z</time>
      </trkpt>
      <trkpt lat="45.95887" lon="4.82364">
        <ele>243</ele>
        <time>2018-08-20T09:24:23Z</time>
      </trkpt>
      <trkpt lat="45.95885" lon="4.82365">
        <ele>243</ele>
        <time>2018-08-20T09:24:24Z</time>
      </trkpt>
      <trkpt lat="45.95876" lon="4.82365">
        <ele>244</ele>
        <time>2018-08-20T09:24:28Z</time>
      </trkpt>
      <trkpt lat="45.95874" lon="4.82365">
        <ele>244</ele>
        <time>2018-08-20T09:24:29Z</time>
      </trkpt>
      <trkpt lat="45.95865" lon="4.82365">
        <ele>245</ele>
        <time>2018-08-20T09:24:33Z</time>
      </trkpt>
      <trkpt lat="45.95863" lon="4.82365">
        <ele>245</ele>
        <time>2018-08-20T09:24:34Z</time>
      </trkpt>
      <trkpt lat="45.95854" lon="4.82365">
        <ele>245</ele>
        <time>2018-08-20T09:24:38Z</time>
      </trkpt>
      <trkpt lat="45.95852" lon="4.82365">
        <ele>245</ele>
        <time>2018-08-20T09:24:39Z</time>
      </trkpt>
      <trkpt lat="45.95844" lon="4.82365">
        <ele>246</ele>
        <time>2018-08-20T09:24:43Z</time>
      </trkpt>
      <trkpt lat="45.95842" lon="4.82365">
        <ele>246</ele>
        <time>2018-08-20T09:24:44Z</time>
      </trkpt>
      <trkpt lat="45.95834" lon="4.82365">
        <ele>246</ele>
        <time>2018-08-20T09:24:48Z</time>
      </trkpt>
      <trkpt lat="45.95832" lon="4.82365">
        <ele>251</ele>
        <time>2018-08-20T09:24:49Z</time>
      </trkpt>
      <trkpt lat="45.95825" lon="4.82364">
        <ele>251</ele>
        <time>2018-08-20T09:24:52Z</time>
      </trkpt>
      <trkpt lat="45.95823" lon="4.82363">
        <ele>251</ele>
        <time>2018-08-20T09:24:53Z</time>
      </trkpt>
      <trkpt lat="45.95815" lon="4.82361">
        <ele>251</ele>
        <time>2018-08-20T09:24:57Z</time>
      </trkpt>
      <trkpt lat="45.95813" lon="4.82361">
        <ele>251</ele>
        <time>2018-08-20T09:24:58Z</time>
      </trkpt>
      <trkpt lat="45.95805" lon="4.82357">
        <ele>252</ele>
        <time>2018-08-20T09:25:02Z</time>
      </trkpt>
      <trkpt lat="45.95803" lon="4.82357">
        <ele>252</ele>
        <time>2018-08-20T09:25:03Z</time>
      </trkpt>
      <trkpt lat="45.95797" lon="4.82354">
        <ele>252</ele>
        <time>2018-08-20T09:25:06Z</time>
      </trkpt>
      <trkpt lat="45.95795" lon="4.82353">
        <ele>252</ele>
        <time>2018-08-20T09:25:07Z</time>
      </trkpt>
      <trkpt lat="45.95787" lon="4.82348">
        <ele>253</ele>
        <time>2018-08-20T09:25:10Z</time>
      </trkpt>
      <trkpt lat="45.95784" lon="4.82346">
        <ele>253</ele>
        <time>2018-08-20T09:25:11Z</time>
      </trkpt>
      <trkpt lat="45.95774" lon="4.8234">
        <ele>254</ele>
        <time>2018-08-20T09:25:12Z</time>
      </trkpt>
      <trkpt lat="45.95768" lon="4.82334">
        <ele>254</ele>
        <time>2018-08-20T09:25:16Z</time>
      </trkpt>
      <trkpt lat="45.95766" lon="4.82332">
        <ele>253</ele>
        <time>2018-08-20T09:25:17Z</time>
      </trkpt>
      <trkpt lat="45.9576" lon="4.82325">
        <ele>253</ele>
        <time>2018-08-20T09:25:18Z</time>
      </trkpt>
      <trkpt lat="45.95758" lon="4.82323">
        <ele>253</ele>
        <time>2018-08-20T09:25:19Z</time>
      </trkpt>
      <trkpt lat="45.95751" lon="4.82315">
        <ele>253</ele>
        <time>2018-08-20T09:25:21Z</time>
      </trkpt>
      <trkpt lat="45.95748" lon="4.82312">
        <ele>256</ele>
        <time>2018-08-20T09:25:22Z</time>
      </trkpt>
      <trkpt lat="45.95741" lon="4.82305">
        <ele>255</ele>
        <time>2018-08-20T09:25:25Z</time>
      </trkpt>
      <trkpt lat="45.9574" lon="4.82304">
        <ele>255</ele>
        <time>2018-08-20T09:25:26Z</time>
      </trkpt>
      <trkpt lat="45.95733" lon="4.82296">
        <ele>255</ele>
        <time>2018-08-20T09:25:29Z</time>
      </trkpt>
      <trkpt lat="45.95731" lon="4.82294">
        <ele>255</ele>
        <time>2018-08-20T09:25:30Z</time>
      </trkpt>
      <trkpt lat="45.95726" lon="4.82287">
        <ele>255</ele>
        <time>2018-08-20T09:25:33Z</time>
      </trkpt>
      <trkpt lat="45.95724" lon="4.82285">
        <ele>255</ele>
        <time>2018-08-20T09:25:34Z</time>
      </trkpt>
      <trkpt lat="45.95717" lon="4.82277">
        <ele>255</ele>
        <time>2018-08-20T09:25:37Z</time>
      </trkpt>
      <trkpt lat="45.95715" lon="4.82274">
        <ele>255</ele>
        <time>2018-08-20T09:25:38Z</time>
      </trkpt>
      <trkpt lat="45.95707" lon="4.82265">
        <ele>255</ele>
        <time>2018-08-20T09:25:39Z</time>
      </trkpt>
      <trkpt lat="45.957" lon="4.8226">
        <ele>255</ele>
        <time>2018-08-20T09:25:42Z</time>
      </trkpt>
      <trkpt lat="45.95698" lon="4.82258">
        <ele>255</ele>
        <time>2018-08-20T09:25:43Z</time>
      </trkpt>
      <trkpt lat="45.95694" lon="4.82254">
        <ele>255</ele>
        <time>2018-08-20T09:25:45Z</time>
      </trkpt>
      <trkpt lat="45.95687" lon="4.82248">
        <ele>255</ele>
        <time>2018-08-20T09:25:46Z</time>
      </trkpt>
      <trkpt lat="45.9568" lon="4.82241">
        <ele>255</ele>
        <time>2018-08-20T09:25:49Z</time>
      </trkpt>
      <trkpt lat="45.95678" lon="4.82239">
        <ele>255</ele>
        <time>2018-08-20T09:25:50Z</time>
      </trkpt>
      <trkpt lat="45.95671" lon="4.82233">
        <ele>255</ele>
        <time>2018-08-20T09:25:53Z</time>
      </trkpt>
      <trkpt lat="45.95668" lon="4.82231">
        <ele>255</ele>
        <time>2018-08-20T09:25:54Z</time>
      </trkpt>
      <trkpt lat="45.95659" lon="4.82226">
        <ele>257</ele>
        <time>2018-08-20T09:25:55Z</time>
      </trkpt>
      <trkpt lat="45.9565" lon="4.82224">
        <ele>257</ele>
        <time>2018-08-20T09:25:59Z</time>
      </trkpt>
      <trkpt lat="45.95641" lon="4.82223">
        <ele>257</ele>
        <time>2018-08-20T09:26:00Z</time>
      </trkpt>
      <trkpt lat="45.95634" lon="4.82223">
        <ele>257</ele>
        <time>2018-08-20T09:26:03Z</time>
      </trkpt>
      <trkpt lat="45.95631" lon="4.82223">
        <ele>257</ele>
        <time>2018-08-20T09:26:04Z</time>
      </trkpt>
      <trkpt lat="45.95625" lon="4.82224">
        <ele>257</ele>
        <time>2018-08-20T09:26:06Z</time>
      </trkpt>
      <trkpt lat="45.95622" lon="4.82225">
        <ele>257</ele>
        <time>2018-08-20T09:26:07Z</time>
      </trkpt>
      <trkpt lat="45.95613" lon="4.82226">
        <ele>257</ele>
        <time>2018-08-20T09:26:10Z</time>
      </trkpt>
      <trkpt lat="45.9561" lon="4.82226">
        <ele>257</ele>
        <time>2018-08-20T09:26:11Z</time>
      </trkpt>
      <trkpt lat="45.95598" lon="4.82224">
        <ele>257</ele>
        <time>2018-08-20T09:26:12Z</time>
      </trkpt>
      <trkpt lat="45.9559" lon="4.82221">
        <ele>257</ele>
        <time>2018-08-20T09:26:14Z</time>
      </trkpt>
      <trkpt lat="45.95588" lon="4.8222">
        <ele>257</ele>
        <time>2018-08-20T09:26:15Z</time>
      </trkpt>
      <trkpt lat="45.95581" lon="4.82214">
        <ele>258</ele>
        <time>2018-08-20T09:26:17Z</time>
      </trkpt>
      <trkpt lat="45.9558" lon="4.82212">
        <ele>258</ele>
        <time>2018-08-20T09:26:18Z</time>
      </trkpt>
      <trkpt lat="45.95574" lon="4.82204">
        <ele>258</ele>
        <time>2018-08-20T09:26:20Z</time>
      </trkpt>
      <trkpt lat="45.95571" lon="4.82201">
        <ele>258</ele>
        <time>2018-08-20T09:26:21Z</time>
      </trkpt>
      <trkpt lat="45.95564" lon="4.82196">
        <ele>258</ele>
        <time>2018-08-20T09:26:23Z</time>
      </trkpt>
      <trkpt lat="45.9556" lon="4.82193">
        <ele>259</ele>
        <time>2018-08-20T09:26:24Z</time>
      </trkpt>
      <trkpt lat="45.95557" lon="4.8219">
        <ele>259</ele>
        <time>2018-08-20T09:26:25Z</time>
      </trkpt>
      <trkpt lat="45.95552" lon="4.82187">
        <ele>259</ele>
        <time>2018-08-20T09:26:26Z</time>
      </trkpt>
      <trkpt lat="45.95549" lon="4.82183">
        <ele>259</ele>
        <time>2018-08-20T09:26:27Z</time>
      </trkpt>
      <trkpt lat="45.95543" lon="4.8218">
        <ele>259</ele>
        <time>2018-08-20T09:26:28Z</time>
      </trkpt>
      <trkpt lat="45.9554" lon="4.82177">
        <ele>259</ele>
        <time>2018-08-20T09:26:29Z</time>
      </trkpt>
      <trkpt lat="45.95535" lon="4.82173">
        <ele>259</ele>
        <time>2018-08-20T09:26:30Z</time>
      </trkpt>
      <trkpt lat="45.95531" lon="4.82169">
        <ele>259</ele>
        <time>2018-08-20T09:26:31Z</time>
      </trkpt>
      <trkpt lat="45.95526" lon="4.82165">
        <ele>259</ele>
        <time>2018-08-20T09:26:32Z</time>
      </trkpt>
      <trkpt lat="45.95523" lon="4.82156">
        <ele>259</ele>
        <time>2018-08-20T09:26:35Z</time>
      </trkpt>
      <trkpt lat="45.95518" lon="4.82151">
        <ele>259</ele>
        <time>2018-08-20T09:26:36Z</time>
      </trkpt>
      <trkpt lat="45.95512" lon="4.82147">
        <ele>259</ele>
        <time>2018-08-20T09:26:37Z</time>
      </trkpt>
      <trkpt lat="45.95509" lon="4.82144">
        <ele>259</ele>
        <time>2018-08-20T09:26:38Z</time>
      </trkpt>
      <trkpt lat="45.95504" lon="4.8214">
        <ele>259</ele>
        <time>2018-08-20T09:26:39Z</time>
      </trkpt>
      <trkpt lat="45.955" lon="4.82137">
        <ele>260</ele>
        <time>2018-08-20T09:26:40Z</time>
      </trkpt>
      <trkpt lat="45.95494" lon="4.82132">
        <ele>260</ele>
        <time>2018-08-20T09:26:42Z</time>
      </trkpt>
      <trkpt lat="45.9549" lon="4.82128">
        <ele>260</ele>
        <time>2018-08-20T09:26:43Z</time>
      </trkpt>
      <trkpt lat="45.95484" lon="4.82122">
        <ele>260</ele>
        <time>2018-08-20T09:26:45Z</time>
      </trkpt>
      <trkpt lat="45.95481" lon="4.82118">
        <ele>260</ele>
        <time>2018-08-20T09:26:46Z</time>
      </trkpt>
      <trkpt lat="45.95474" lon="4.82111">
        <ele>260</ele>
        <time>2018-08-20T09:26:48Z</time>
      </trkpt>
      <trkpt lat="45.95471" lon="4.82108">
        <ele>260</ele>
        <time>2018-08-20T09:26:49Z</time>
      </trkpt>
      <trkpt lat="45.95467" lon="4.82105">
        <ele>260</ele>
        <time>2018-08-20T09:26:50Z</time>
      </trkpt>
      <trkpt lat="45.95462" lon="4.82101">
        <ele>260</ele>
        <time>2018-08-20T09:26:51Z</time>
      </trkpt>
      <trkpt lat="45.95456" lon="4.82094">
        <ele>260</ele>
        <time>2018-08-20T09:26:53Z</time>
      </trkpt>
      <trkpt lat="45.95454" lon="4.82091">
        <ele>260</ele>
        <time>2018-08-20T09:26:54Z</time>
      </trkpt>
      <trkpt lat="45.95452" lon="4.82088">
        <ele>260</ele>
        <time>2018-08-20T09:26:55Z</time>
      </trkpt>
      <trkpt lat="45.95446" lon="4.82083">
        <ele>260</ele>
        <time>2018-08-20T09:26:56Z</time>
      </trkpt>
      <trkpt lat="45.9544" lon="4.82079">
        <ele>260</ele>
        <time>2018-08-20T09:26:57Z</time>
      </trkpt>
      <trkpt lat="45.95436" lon="4.82074">
        <ele>260</ele>
        <time>2018-08-20T09:26:58Z</time>
      </trkpt>
      <trkpt lat="45.95432" lon="4.82067">
        <ele>260</ele>
        <time>2018-08-20T09:27:00Z</time>
      </trkpt>
      <trkpt lat="45.9543" lon="4.8206">
        <ele>260</ele>
        <time>2018-08-20T09:27:01Z</time>
      </trkpt>
      <trkpt lat="45.95424" lon="4.82053">
        <ele>260</ele>
        <time>2018-08-20T09:27:03Z</time>
      </trkpt>
      <trkpt lat="45.95421" lon="4.82049">
        <ele>260</ele>
        <time>2018-08-20T09:27:04Z</time>
      </trkpt>
      <trkpt lat="45.95416" lon="4.82042">
        <ele>261</ele>
        <time>2018-08-20T09:27:06Z</time>
      </trkpt>
      <trkpt lat="45.95411" lon="4.82037">
        <ele>261</ele>
        <time>2018-08-20T09:27:07Z</time>
      </trkpt>
      <trkpt lat="45.95404" lon="4.8203">
        <ele>261</ele>
        <time>2018-08-20T09:27:09Z</time>
      </trkpt>
      <trkpt lat="45.95399" lon="4.82026">
        <ele>261</ele>
        <time>2018-08-20T09:27:10Z</time>
      </trkpt>
      <trkpt lat="45.95394" lon="4.82022">
        <ele>261</ele>
        <time>2018-08-20T09:27:11Z</time>
      </trkpt>
      <trkpt lat="45.9539" lon="4.82019">
        <ele>261</ele>
        <time>2018-08-20T09:27:12Z</time>
      </trkpt>
      <trkpt lat="45.95385" lon="4.82015">
        <ele>261</ele>
        <time>2018-08-20T09:27:13Z</time>
      </trkpt>
      <trkpt lat="45.9538" lon="4.82011">
        <ele>262</ele>
        <time>2018-08-20T09:27:14Z</time>
      </trkpt>
      <trkpt lat="45.95375" lon="4.82006">
        <ele>262</ele>
        <time>2018-08-20T09:27:15Z</time>
      </trkpt>
      <trkpt lat="45.95371" lon="4.82002">
        <ele>262</ele>
        <time>2018-08-20T09:27:16Z</time>
      </trkpt>
      <trkpt lat="45.95366" lon="4.81998">
        <ele>261</ele>
        <time>2018-08-20T09:27:17Z</time>
      </trkpt>
      <trkpt lat="45.95363" lon="4.81994">
        <ele>261</ele>
        <time>2018-08-20T09:27:18Z</time>
      </trkpt>
      <trkpt lat="45.95356" lon="4.81987">
        <ele>262</ele>
        <time>2018-08-20T09:27:20Z</time>
      </trkpt>
      <trkpt lat="45.95353" lon="4.81983">
        <ele>262</ele>
        <time>2018-08-20T09:27:21Z</time>
      </trkpt>
      <trkpt lat="45.95349" lon="4.81979">
        <ele>262</ele>
        <time>2018-08-20T09:27:22Z</time>
      </trkpt>
      <trkpt lat="45.95345" lon="4.81975">
        <ele>261</ele>
        <time>2018-08-20T09:27:23Z</time>
      </trkpt>
      <trkpt lat="45.95338" lon="4.81968">
        <ele>261</ele>
        <time>2018-08-20T09:27:25Z</time>
      </trkpt>
      <trkpt lat="45.95334" lon="4.81964">
        <ele>261</ele>
        <time>2018-08-20T09:27:26Z</time>
      </trkpt>
      <trkpt lat="45.9533" lon="4.8196">
        <ele>262</ele>
        <time>2018-08-20T09:27:27Z</time>
      </trkpt>
      <trkpt lat="45.95325" lon="4.81956">
        <ele>262</ele>
        <time>2018-08-20T09:27:28Z</time>
      </trkpt>
      <trkpt lat="45.95319" lon="4.8195">
        <ele>262</ele>
        <time>2018-08-20T09:27:30Z</time>
      </trkpt>
      <trkpt lat="45.95315" lon="4.81945">
        <ele>261</ele>
        <time>2018-08-20T09:27:31Z</time>
      </trkpt>
      <trkpt lat="45.95308" lon="4.81938">
        <ele>261</ele>
        <time>2018-08-20T09:27:33Z</time>
      </trkpt>
      <trkpt lat="45.95306" lon="4.81933">
        <ele>261</ele>
        <time>2018-08-20T09:27:34Z</time>
      </trkpt>
      <trkpt lat="45.95302" lon="4.81928">
        <ele>261</ele>
        <time>2018-08-20T09:27:35Z</time>
      </trkpt>
      <trkpt lat="45.953" lon="4.81923">
        <ele>261</ele>
        <time>2018-08-20T09:27:36Z</time>
      </trkpt>
      <trkpt lat="45.95295" lon="4.81917">
        <ele>261</ele>
        <time>2018-08-20T09:27:37Z</time>
      </trkpt>
      <trkpt lat="45.95291" lon="4.81913">
        <ele>260</ele>
        <time>2018-08-20T09:27:38Z</time>
      </trkpt>
      <trkpt lat="45.95287" lon="4.81909">
        <ele>260</ele>
        <time>2018-08-20T09:27:39Z</time>
      </trkpt>
      <trkpt lat="45.95284" lon="4.81904">
        <ele>260</ele>
        <time>2018-08-20T09:27:40Z</time>
      </trkpt>
      <trkpt lat="45.95279" lon="4.81897">
        <ele>260</ele>
        <time>2018-08-20T09:27:42Z</time>
      </trkpt>
      <trkpt lat="45.95273" lon="4.8189">
        <ele>260</ele>
        <time>2018-08-20T09:27:43Z</time>
      </trkpt>
      <trkpt lat="45.9527" lon="4.81885">
        <ele>260</ele>
        <time>2018-08-20T09:27:44Z</time>
      </trkpt>
      <trkpt lat="45.95267" lon="4.81881">
        <ele>260</ele>
        <time>2018-08-20T09:27:45Z</time>
      </trkpt>
      <trkpt lat="45.95262" lon="4.81871">
        <ele>260</ele>
        <time>2018-08-20T09:27:47Z</time>
      </trkpt>
      <trkpt lat="45.9526" lon="4.81865">
        <ele>260</ele>
        <time>2018-08-20T09:27:48Z</time>
      </trkpt>
      <trkpt lat="45.95257" lon="4.81861">
        <ele>260</ele>
        <time>2018-08-20T09:27:49Z</time>
      </trkpt>
      <trkpt lat="45.95254" lon="4.81855">
        <ele>259</ele>
        <time>2018-08-20T09:27:50Z</time>
      </trkpt>
      <trkpt lat="45.95247" lon="4.81849">
        <ele>260</ele>
        <time>2018-08-20T09:27:51Z</time>
      </trkpt>
      <trkpt lat="45.95244" lon="4.81843">
        <ele>259</ele>
        <time>2018-08-20T09:27:52Z</time>
      </trkpt>
      <trkpt lat="45.9524" lon="4.81833">
        <ele>259</ele>
        <time>2018-08-20T09:27:54Z</time>
      </trkpt>
      <trkpt lat="45.95236" lon="4.81827">
        <ele>259</ele>
        <time>2018-08-20T09:27:55Z</time>
      </trkpt>
      <trkpt lat="45.95234" lon="4.8182">
        <ele>259</ele>
        <time>2018-08-20T09:27:56Z</time>
      </trkpt>
      <trkpt lat="45.95229" lon="4.81816">
        <ele>259</ele>
        <time>2018-08-20T09:27:57Z</time>
      </trkpt>
      <trkpt lat="45.95225" lon="4.81812">
        <ele>259</ele>
        <time>2018-08-20T09:27:58Z</time>
      </trkpt>
      <trkpt lat="45.95221" lon="4.81805">
        <ele>259</ele>
        <time>2018-08-20T09:27:59Z</time>
      </trkpt>
      <trkpt lat="45.95215" lon="4.81799">
        <ele>259</ele>
        <time>2018-08-20T09:28:00Z</time>
      </trkpt>
      <trkpt lat="45.95212" lon="4.81794">
        <ele>259</ele>
        <time>2018-08-20T09:28:01Z</time>
      </trkpt>
      <trkpt lat="45.95208" lon="4.81788">
        <ele>258</ele>
        <time>2018-08-20T09:28:02Z</time>
      </trkpt>
      <trkpt lat="45.95202" lon="4.81781">
        <ele>258</ele>
        <time>2018-08-20T09:28:03Z</time>
      </trkpt>
      <trkpt lat="45.95196" lon="4.81774">
        <ele>258</ele>
        <time>2018-08-20T09:28:04Z</time>
      </trkpt>
      <trkpt lat="45.9519" lon="4.81768">
        <ele>258</ele>
        <time>2018-08-20T09:28:05Z</time>
      </trkpt>
      <trkpt lat="45.95184" lon="4.8176">
        <ele>258</ele>
        <time>2018-08-20T09:28:06Z</time>
      </trkpt>
      <trkpt lat="45.9518" lon="4.81751">
        <ele>258</ele>
        <time>2018-08-20T09:28:07Z</time>
      </trkpt>
      <trkpt lat="45.9518" lon="4.81744">
        <ele>257</ele>
        <time>2018-08-20T09:28:08Z</time>
      </trkpt>
      <trkpt lat="45.95172" lon="4.81736">
        <ele>257</ele>
        <time>2018-08-20T09:28:09Z</time>
      </trkpt>
      <trkpt lat="45.95166" lon="4.81725">
        <ele>256</ele>
        <time>2018-08-20T09:28:10Z</time>
      </trkpt>
      <trkpt lat="45.95162" lon="4.81715">
        <ele>256</ele>
        <time>2018-08-20T09:28:11Z</time>
      </trkpt>
      <trkpt lat="45.95157" lon="4.81703">
        <ele>255</ele>
        <time>2018-08-20T09:28:12Z</time>
      </trkpt>
      <trkpt lat="45.95157" lon="4.81691">
        <ele>255</ele>
        <time>2018-08-20T09:28:13Z</time>
      </trkpt>
      <trkpt lat="45.95153" lon="4.8168">
        <ele>255</ele>
        <time>2018-08-20T09:28:14Z</time>
      </trkpt>
      <trkpt lat="45.95144" lon="4.81669">
        <ele>255</ele>
        <time>2018-08-20T09:28:15Z</time>
      </trkpt>
      <trkpt lat="45.95146" lon="4.81657">
        <ele>253</ele>
        <time>2018-08-20T09:28:16Z</time>
      </trkpt>
      <trkpt lat="45.95135" lon="4.81648">
        <ele>253</ele>
        <time>2018-08-20T09:28:17Z</time>
      </trkpt>
      <trkpt lat="45.95134" lon="4.81632">
        <ele>253</ele>
        <time>2018-08-20T09:28:18Z</time>
      </trkpt>
      <trkpt lat="45.95126" lon="4.81622">
        <ele>252</ele>
        <time>2018-08-20T09:28:19Z</time>
      </trkpt>
      <trkpt lat="45.95126" lon="4.81607">
        <ele>252</ele>
        <time>2018-08-20T09:28:20Z</time>
      </trkpt>
      <trkpt lat="45.95116" lon="4.81593">
        <ele>252</ele>
        <time>2018-08-20T09:28:21Z</time>
      </trkpt>
      <trkpt lat="45.95114" lon="4.81579">
        <ele>251</ele>
        <time>2018-08-20T09:28:22Z</time>
      </trkpt>
      <trkpt lat="45.9511" lon="4.8157">
        <ele>251</ele>
        <time>2018-08-20T09:28:23Z</time>
      </trkpt>
      <trkpt lat="45.95108" lon="4.81557">
        <ele>251</ele>
        <time>2018-08-20T09:28:24Z</time>
      </trkpt>
      <trkpt lat="45.95105" lon="4.81544">
        <ele>251</ele>
        <time>2018-08-20T09:28:25Z</time>
      </trkpt>
      <trkpt lat="45.95099" lon="4.81534">
        <ele>251</ele>
        <time>2018-08-20T09:28:26Z</time>
      </trkpt>
      <trkpt lat="45.95094" lon="4.81525">
        <ele>251</ele>
        <time>2018-08-20T09:28:27Z</time>
      </trkpt>
      <trkpt lat="45.95091" lon="4.81515">
        <ele>252</ele>
        <time>2018-08-20T09:28:28Z</time>
      </trkpt>
      <trkpt lat="45.9509" lon="4.81507">
        <ele>252</ele>
        <time>2018-08-20T09:28:29Z</time>
      </trkpt>
      <trkpt lat="45.95091" lon="4.81498">
        <ele>251</ele>
        <time>2018-08-20T09:28:30Z</time>
      </trkpt>
      <trkpt lat="45.95089" lon="4.81491">
        <ele>251</ele>
        <time>2018-08-20T09:28:31Z</time>
      </trkpt>
      <trkpt lat="45.95087" lon="4.81484">
        <ele>251</ele>
        <time>2018-08-20T09:28:32Z</time>
      </trkpt>
      <trkpt lat="45.95083" lon="4.81473">
        <ele>253</ele>
        <time>2018-08-20T09:28:34Z</time>
      </trkpt>
      <trkpt lat="45.9508" lon="4.81467">
        <ele>253</ele>
        <time>2018-08-20T09:28:35Z</time>
      </trkpt>
      <trkpt lat="45.95078" lon="4.81461">
        <ele>253</ele>
        <time>2018-08-20T09:28:36Z</time>
      </trkpt>
      <trkpt lat="45.95077" lon="4.81454">
        <ele>253</ele>
        <time>2018-08-20T09:28:37Z</time>
      </trkpt>
      <trkpt lat="45.95073" lon="4.81444">
        <ele>252</ele>
        <time>2018-08-20T09:28:39Z</time>
      </trkpt>
      <trkpt lat="45.95071" lon="4.81439">
        <ele>252</ele>
        <time>2018-08-20T09:28:40Z</time>
      </trkpt>
      <trkpt lat="45.95069" lon="4.81429">
        <ele>252</ele>
        <time>2018-08-20T09:28:42Z</time>
      </trkpt>
      <trkpt lat="45.95067" lon="4.81424">
        <ele>252</ele>
        <time>2018-08-20T09:28:43Z</time>
      </trkpt>
      <trkpt lat="45.95062" lon="4.81414">
        <ele>253</ele>
        <time>2018-08-20T09:28:45Z</time>
      </trkpt>
      <trkpt lat="45.95059" lon="4.81409">
        <ele>253</ele>
        <time>2018-08-20T09:28:46Z</time>
      </trkpt>
      <trkpt lat="45.95054" lon="4.81398">
        <ele>253</ele>
        <time>2018-08-20T09:28:48Z</time>
      </trkpt>
      <trkpt lat="45.95051" lon="4.8139">
        <ele>253</ele>
        <time>2018-08-20T09:28:49Z</time>
      </trkpt>
      <trkpt lat="45.95049" lon="4.81383">
        <ele>254</ele>
        <time>2018-08-20T09:28:50Z</time>
      </trkpt>
      <trkpt lat="45.95047" lon="4.81378">
        <ele>254</ele>
        <time>2018-08-20T09:28:51Z</time>
      </trkpt>
      <trkpt lat="45.95045" lon="4.81372">
        <ele>254</ele>
        <time>2018-08-20T09:28:52Z</time>
      </trkpt>
      <trkpt lat="45.95044" lon="4.81364">
        <ele>254</ele>
        <time>2018-08-20T09:28:53Z</time>
      </trkpt>
      <trkpt lat="45.95041" lon="4.81358">
        <ele>254</ele>
        <time>2018-08-20T09:28:54Z</time>
      </trkpt>
      <trkpt lat="45.95039" lon="4.81352">
        <ele>254</ele>
        <time>2018-08-20T09:28:55Z</time>
      </trkpt>
      <trkpt lat="45.95036" lon="4.8134">
        <ele>254</ele>
        <time>2018-08-20T09:28:57Z</time>
      </trkpt>
      <trkpt lat="45.95035" lon="4.81334">
        <ele>254</ele>
        <time>2018-08-20T09:28:58Z</time>
      </trkpt>
      <trkpt lat="45.95033" lon="4.81324">
        <ele>255</ele>
        <time>2018-08-20T09:29:00Z</time>
      </trkpt>
      <trkpt lat="45.95032" lon="4.81319">
        <ele>255</ele>
        <time>2018-08-20T09:29:01Z</time>
      </trkpt>
      <trkpt lat="45.9503" lon="4.81308">
        <ele>255</ele>
        <time>2018-08-20T09:29:03Z</time>
      </trkpt>
      <trkpt lat="45.95028" lon="4.81302">
        <ele>255</ele>
        <time>2018-08-20T09:29:04Z</time>
      </trkpt>
      <trkpt lat="45.95027" lon="4.81296">
        <ele>255</ele>
        <time>2018-08-20T09:29:05Z</time>
      </trkpt>
      <trkpt lat="45.95023" lon="4.81291">
        <ele>255</ele>
        <time>2018-08-20T09:29:06Z</time>
      </trkpt>
      <trkpt lat="45.95021" lon="4.81285">
        <ele>255</ele>
        <time>2018-08-20T09:29:07Z</time>
      </trkpt>
      <trkpt lat="45.9502" lon="4.81277">
        <ele>255</ele>
        <time>2018-08-20T09:29:08Z</time>
      </trkpt>
      <trkpt lat="45.95018" lon="4.81269">
        <ele>255</ele>
        <time>2018-08-20T09:29:09Z</time>
      </trkpt>
      <trkpt lat="45.95017" lon="4.81262">
        <ele>255</ele>
        <time>2018-08-20T09:29:10Z</time>
      </trkpt>
      <trkpt lat="45.95015" lon="4.81255">
        <ele>256</ele>
        <time>2018-08-20T09:29:11Z</time>
      </trkpt>
      <trkpt lat="45.95014" lon="4.81248">
        <ele>256</ele>
        <time>2018-08-20T09:29:12Z</time>
      </trkpt>
      <trkpt lat="45.95013" lon="4.81235">
        <ele>256</ele>
        <time>2018-08-20T09:29:14Z</time>
      </trkpt>
      <trkpt lat="45.95012" lon="4.81228">
        <ele>256</ele>
        <time>2018-08-20T09:29:15Z</time>
      </trkpt>
      <trkpt lat="45.9501" lon="4.81221">
        <ele>256</ele>
        <time>2018-08-20T09:29:16Z</time>
      </trkpt>
      <trkpt lat="45.95009" lon="4.81216">
        <ele>256</ele>
        <time>2018-08-20T09:29:17Z</time>
      </trkpt>
      <trkpt lat="45.95011" lon="4.8121">
        <ele>256</ele>
        <time>2018-08-20T09:29:18Z</time>
      </trkpt>
      <trkpt lat="45.95009" lon="4.81203">
        <ele>256</ele>
        <time>2018-08-20T09:29:19Z</time>
      </trkpt>
      <trkpt lat="45.95008" lon="4.8119">
        <ele>256</ele>
        <time>2018-08-20T09:29:21Z</time>
      </trkpt>
      <trkpt lat="45.95007" lon="4.81184">
        <ele>256</ele>
        <time>2018-08-20T09:29:22Z</time>
      </trkpt>
      <trkpt lat="45.95009" lon="4.81178">
        <ele>256</ele>
        <time>2018-08-20T09:29:23Z</time>
      </trkpt>
      <trkpt lat="45.95007" lon="4.81171">
        <ele>256</ele>
        <time>2018-08-20T09:29:24Z</time>
      </trkpt>
      <trkpt lat="45.95007" lon="4.81159">
        <ele>256</ele>
        <time>2018-08-20T09:29:26Z</time>
      </trkpt>
      <trkpt lat="45.95006" lon="4.81152">
        <ele>256</ele>
        <time>2018-08-20T09:29:27Z</time>
      </trkpt>
      <trkpt lat="45.95006" lon="4.81141">
        <ele>256</ele>
        <time>2018-08-20T09:29:29Z</time>
      </trkpt>
      <trkpt lat="45.95003" lon="4.81134">
        <ele>256</ele>
        <time>2018-08-20T09:29:30Z</time>
      </trkpt>
      <trkpt lat="45.95001" lon="4.81127">
        <ele>256</ele>
        <time>2018-08-20T09:29:31Z</time>
      </trkpt>
      <trkpt lat="45.94999" lon="4.81121">
        <ele>257</ele>
        <time>2018-08-20T09:29:32Z</time>
      </trkpt>
      <trkpt lat="45.94997" lon="4.81109">
        <ele>257</ele>
        <time>2018-08-20T09:29:34Z</time>
      </trkpt>
      <trkpt lat="45.94999" lon="4.81103">
        <ele>257</ele>
        <time>2018-08-20T09:29:35Z</time>
      </trkpt>
      <trkpt lat="45.94998" lon="4.81098">
        <ele>257</ele>
        <time>2018-08-20T09:29:36Z</time>
      </trkpt>
      <trkpt lat="45.94997" lon="4.81089">
        <ele>257</ele>
        <time>2018-08-20T09:29:37Z</time>
      </trkpt>
      <trkpt lat="45.94995" lon="4.81084">
        <ele>257</ele>
        <time>2018-08-20T09:29:39Z</time>
      </trkpt>
      <trkpt lat="45.94992" lon="4.81074">
        <ele>257</ele>
        <time>2018-08-20T09:29:40Z</time>
      </trkpt>
      <trkpt lat="45.94993" lon="4.81063">
        <ele>257</ele>
        <time>2018-08-20T09:29:43Z</time>
      </trkpt>
      <trkpt lat="45.94993" lon="4.8106">
        <ele>257</ele>
        <time>2018-08-20T09:29:44Z</time>
      </trkpt>
      <trkpt lat="45.94993" lon="4.81057">
        <ele>257</ele>
        <time>2018-08-20T09:29:45Z</time>
      </trkpt>
      <trkpt lat="45.94992" lon="4.81045">
        <ele>257</ele>
        <time>2018-08-20T09:29:46Z</time>
      </trkpt>
      <trkpt lat="45.94993" lon="4.81034">
        <ele>257</ele>
        <time>2018-08-20T09:29:48Z</time>
      </trkpt>
      <trkpt lat="45.94993" lon="4.81028">
        <ele>257</ele>
        <time>2018-08-20T09:29:49Z</time>
      </trkpt>
      <trkpt lat="45.94992" lon="4.81016">
        <ele>257</ele>
        <time>2018-08-20T09:29:51Z</time>
      </trkpt>
      <trkpt lat="45.9499" lon="4.8101">
        <ele>257</ele>
        <time>2018-08-20T09:29:52Z</time>
      </trkpt>
      <trkpt lat="45.94992" lon="4.81004">
        <ele>257</ele>
        <time>2018-08-20T09:29:53Z</time>
      </trkpt>
      <trkpt lat="45.94991" lon="4.80996">
        <ele>257</ele>
        <time>2018-08-20T09:29:54Z</time>
      </trkpt>
      <trkpt lat="45.94992" lon="4.8099">
        <ele>257</ele>
        <time>2018-08-20T09:29:55Z</time>
      </trkpt>
      <trkpt lat="45.94992" lon="4.80983">
        <ele>258</ele>
        <time>2018-08-20T09:29:56Z</time>
      </trkpt>
      <trkpt lat="45.94989" lon="4.80976">
        <ele>258</ele>
        <time>2018-08-20T09:29:57Z</time>
      </trkpt>
      <trkpt lat="45.94987" lon="4.80969">
        <ele>258</ele>
        <time>2018-08-20T09:29:58Z</time>
      </trkpt>
      <trkpt lat="45.94985" lon="4.80963">
        <ele>258</ele>
        <time>2018-08-20T09:29:59Z</time>
      </trkpt>
      <trkpt lat="45.94986" lon="4.80956">
        <ele>258</ele>
        <time>2018-08-20T09:30:00Z</time>
      </trkpt>
      <trkpt lat="45.94982" lon="4.80949">
        <ele>258</ele>
        <time>2018-08-20T09:30:01Z</time>
      </trkpt>
      <trkpt lat="45.9498" lon="4.80943">
        <ele>258</ele>
        <time>2018-08-20T09:30:02Z</time>
      </trkpt>
      <trkpt lat="45.94978" lon="4.80931">
        <ele>258</ele>
        <time>2018-08-20T09:30:04Z</time>
      </trkpt>
      <trkpt lat="45.94979" lon="4.80925">
        <ele>258</ele>
        <time>2018-08-20T09:30:05Z</time>
      </trkpt>
      <trkpt lat="45.9498" lon="4.80914">
        <ele>258</ele>
        <time>2018-08-20T09:30:07Z</time>
      </trkpt>
      <trkpt lat="45.94978" lon="4.80909">
        <ele>258</ele>
        <time>2018-08-20T09:30:08Z</time>
      </trkpt>
      <trkpt lat="45.94976" lon="4.80897">
        <ele>258</ele>
        <time>2018-08-20T09:30:10Z</time>
      </trkpt>
      <trkpt lat="45.94976" lon="4.80891">
        <ele>258</ele>
        <time>2018-08-20T09:30:11Z</time>
      </trkpt>
      <trkpt lat="45.94975" lon="4.80885">
        <ele>258</ele>
        <time>2018-08-20T09:30:12Z</time>
      </trkpt>
      <trkpt lat="45.94971" lon="4.80878">
        <ele>258</ele>
        <time>2018-08-20T09:30:13Z</time>
      </trkpt>
      <trkpt lat="45.94969" lon="4.80866">
        <ele>259</ele>
        <time>2018-08-20T09:30:15Z</time>
      </trkpt>
      <trkpt lat="45.94967" lon="4.80861">
        <ele>259</ele>
        <time>2018-08-20T09:30:16Z</time>
      </trkpt>
      <trkpt lat="45.94967" lon="4.80855">
        <ele>259</ele>
        <time>2018-08-20T09:30:17Z</time>
      </trkpt>
      <trkpt lat="45.94966" lon="4.80848">
        <ele>259</ele>
        <time>2018-08-20T09:30:18Z</time>
      </trkpt>
      <trkpt lat="45.94963" lon="4.80837">
        <ele>259</ele>
        <time>2018-08-20T09:30:20Z</time>
      </trkpt>
      <trkpt lat="45.94962" lon="4.80832">
        <ele>259</ele>
        <time>2018-08-20T09:30:21Z</time>
      </trkpt>
      <trkpt lat="45.94959" lon="4.8082">
        <ele>259</ele>
        <time>2018-08-20T09:30:24Z</time>
      </trkpt>
      <trkpt lat="45.94959" lon="4.80817">
        <ele>259</ele>
        <time>2018-08-20T09:30:25Z</time>
      </trkpt>
      <trkpt lat="45.94958" lon="4.80805">
        <ele>259</ele>
        <time>2018-08-20T09:30:31Z</time>
      </trkpt>
      <trkpt lat="45.94957" lon="4.80804">
        <ele>259</ele>
        <time>2018-08-20T09:30:32Z</time>
      </trkpt>
      <trkpt lat="45.94956" lon="4.80794">
        <ele>259</ele>
        <time>2018-08-20T09:30:42Z</time>
      </trkpt>
      <trkpt lat="45.94956" lon="4.80791">
        <ele>259</ele>
        <time>2018-08-20T09:30:43Z</time>
      </trkpt>
      <trkpt lat="45.94956" lon="4.8078">
        <ele>259</ele>
        <time>2018-08-20T09:30:46Z</time>
      </trkpt>
      <trkpt lat="45.94955" lon="4.80775">
        <ele>259</ele>
        <time>2018-08-20T09:30:47Z</time>
      </trkpt>
      <trkpt lat="45.94955" lon="4.80766">
        <ele>259</ele>
        <time>2018-08-20T09:30:49Z</time>
      </trkpt>
      <trkpt lat="45.94956" lon="4.80751">
        <ele>259</ele>
        <time>2018-08-20T09:30:50Z</time>
      </trkpt>
      <trkpt lat="45.94957" lon="4.80739">
        <ele>259</ele>
        <time>2018-08-20T09:30:52Z</time>
      </trkpt>
      <trkpt lat="45.94958" lon="4.80733">
        <ele>259</ele>
        <time>2018-08-20T09:30:53Z</time>
      </trkpt>
      <trkpt lat="45.94958" lon="4.8072">
        <ele>259</ele>
        <time>2018-08-20T09:30:55Z</time>
      </trkpt>
      <trkpt lat="45.94958" lon="4.80715">
        <ele>259</ele>
        <time>2018-08-20T09:30:56Z</time>
      </trkpt>
      <trkpt lat="45.94957" lon="4.80704">
        <ele>259</ele>
        <time>2018-08-20T09:30:58Z</time>
      </trkpt>
      <trkpt lat="45.94956" lon="4.80698">
        <ele>259</ele>
        <time>2018-08-20T09:30:59Z</time>
      </trkpt>
      <trkpt lat="45.94953" lon="4.80686">
        <ele>259</ele>
        <time>2018-08-20T09:31:01Z</time>
      </trkpt>
      <trkpt lat="45.94953" lon="4.8068">
        <ele>259</ele>
        <time>2018-08-20T09:31:02Z</time>
      </trkpt>
      <trkpt lat="45.94953" lon="4.80672">
        <ele>259</ele>
        <time>2018-08-20T09:31:03Z</time>
      </trkpt>
      <trkpt lat="45.94953" lon="4.80664">
        <ele>259</ele>
        <time>2018-08-20T09:31:04Z</time>
      </trkpt>
      <trkpt lat="45.94955" lon="4.80657">
        <ele>259</ele>
        <time>2018-08-20T09:31:05Z</time>
      </trkpt>
      <trkpt lat="45.94954" lon="4.8065">
        <ele>259</ele>
        <time>2018-08-20T09:31:06Z</time>
      </trkpt>
      <trkpt lat="45.94954" lon="4.80641">
        <ele>258</ele>
        <time>2018-08-20T09:31:07Z</time>
      </trkpt>
      <trkpt lat="45.94954" lon="4.80634">
        <ele>258</ele>
        <time>2018-08-20T09:31:08Z</time>
      </trkpt>
      <trkpt lat="45.94953" lon="4.80627">
        <ele>258</ele>
        <time>2018-08-20T09:31:09Z</time>
      </trkpt>
      <trkpt lat="45.94951" lon="4.80618">
        <ele>258</ele>
        <time>2018-08-20T09:31:10Z</time>
      </trkpt>
      <trkpt lat="45.94952" lon="4.80612">
        <ele>258</ele>
        <time>2018-08-20T09:31:11Z</time>
      </trkpt>
      <trkpt lat="45.94952" lon="4.80604">
        <ele>258</ele>
        <time>2018-08-20T09:31:12Z</time>
      </trkpt>
      <trkpt lat="45.94952" lon="4.80598">
        <ele>258</ele>
        <time>2018-08-20T09:31:13Z</time>
      </trkpt>
      <trkpt lat="45.94954" lon="4.8059">
        <ele>258</ele>
        <time>2018-08-20T09:31:14Z</time>
      </trkpt>
      <trkpt lat="45.94953" lon="4.80582">
        <ele>257</ele>
        <time>2018-08-20T09:31:15Z</time>
      </trkpt>
      <trkpt lat="45.94954" lon="4.80575">
        <ele>257</ele>
        <time>2018-08-20T09:31:16Z</time>
      </trkpt>
      <trkpt lat="45.94953" lon="4.80568">
        <ele>257</ele>
        <time>2018-08-20T09:31:17Z</time>
      </trkpt>
      <trkpt lat="45.94954" lon="4.80561">
        <ele>257</ele>
        <time>2018-08-20T09:31:18Z</time>
      </trkpt>
      <trkpt lat="45.94951" lon="4.80553">
        <ele>258</ele>
        <time>2018-08-20T09:31:19Z</time>
      </trkpt>
      <trkpt lat="45.94952" lon="4.80545">
        <ele>258</ele>
        <time>2018-08-20T09:31:20Z</time>
      </trkpt>
      <trkpt lat="45.94952" lon="4.80537">
        <ele>258</ele>
        <time>2018-08-20T09:31:21Z</time>
      </trkpt>
      <trkpt lat="45.94953" lon="4.8053">
        <ele>258</ele>
        <time>2018-08-20T09:31:22Z</time>
      </trkpt>
      <trkpt lat="45.94952" lon="4.80522">
        <ele>258</ele>
        <time>2018-08-20T09:31:23Z</time>
      </trkpt>
      <trkpt lat="45.94951" lon="4.80516">
        <ele>258</ele>
        <time>2018-08-20T09:31:24Z</time>
      </trkpt>
      <trkpt lat="45.94952" lon="4.80508">
        <ele>258</ele>
        <time>2018-08-20T09:31:25Z</time>
      </trkpt>
      <trkpt lat="45.94952" lon="4.80501">
        <ele>258</ele>
        <time>2018-08-20T09:31:26Z</time>
      </trkpt>
      <trkpt lat="45.94952" lon="4.80495">
        <ele>258</ele>
        <time>2018-08-20T09:31:27Z</time>
      </trkpt>
      <trkpt lat="45.94951" lon="4.80486">
        <ele>258</ele>
        <time>2018-08-20T09:31:28Z</time>
      </trkpt>
      <trkpt lat="45.94951" lon="4.80479">
        <ele>258</ele>
        <time>2018-08-20T09:31:29Z</time>
      </trkpt>
      <trkpt lat="45.9495" lon="4.80471">
        <ele>258</ele>
        <time>2018-08-20T09:31:30Z</time>
      </trkpt>
      <trkpt lat="45.94949" lon="4.80465">
        <ele>258</ele>
        <time>2018-08-20T09:31:31Z</time>
      </trkpt>
      <trkpt lat="45.94948" lon="4.80456">
        <ele>258</ele>
        <time>2018-08-20T09:31:32Z</time>
      </trkpt>
      <trkpt lat="45.94948" lon="4.80448">
        <ele>259</ele>
        <time>2018-08-20T09:31:33Z</time>
      </trkpt>
      <trkpt lat="45.94948" lon="4.80439">
        <ele>259</ele>
        <time>2018-08-20T09:31:34Z</time>
      </trkpt>
      <trkpt lat="45.94949" lon="4.80431">
        <ele>259</ele>
        <time>2018-08-20T09:31:35Z</time>
      </trkpt>
      <trkpt lat="45.94949" lon="4.80421">
        <ele>259</ele>
        <time>2018-08-20T09:31:36Z</time>
      </trkpt>
      <trkpt lat="45.94948" lon="4.80413">
        <ele>258</ele>
        <time>2018-08-20T09:31:37Z</time>
      </trkpt>
      <trkpt lat="45.94949" lon="4.80405">
        <ele>258</ele>
        <time>2018-08-20T09:31:38Z</time>
      </trkpt>
      <trkpt lat="45.94949" lon="4.80396">
        <ele>258</ele>
        <time>2018-08-20T09:31:39Z</time>
      </trkpt>
      <trkpt lat="45.94948" lon="4.80387">
        <ele>258</ele>
        <time>2018-08-20T09:31:40Z</time>
      </trkpt>
      <trkpt lat="45.94947" lon="4.80378">
        <ele>258</ele>
        <time>2018-08-20T09:31:41Z</time>
      </trkpt>
      <trkpt lat="45.94947" lon="4.80369">
        <ele>258</ele>
        <time>2018-08-20T09:31:42Z</time>
      </trkpt>
      <trkpt lat="45.94947" lon="4.80362">
        <ele>258</ele>
        <time>2018-08-20T09:31:43Z</time>
      </trkpt>
      <trkpt lat="45.94948" lon="4.80355">
        <ele>258</ele>
        <time>2018-08-20T09:31:44Z</time>
      </trkpt>
      <trkpt lat="45.94947" lon="4.80348">
        <ele>258</ele>
        <time>2018-08-20T09:31:45Z</time>
      </trkpt>
      <trkpt lat="45.94946" lon="4.8034">
        <ele>258</ele>
        <time>2018-08-20T09:31:46Z</time>
      </trkpt>
      <trkpt lat="45.94947" lon="4.80333">
        <ele>258</ele>
        <time>2018-08-20T09:31:47Z</time>
      </trkpt>
      <trkpt lat="45.94945" lon="4.80325">
        <ele>257</ele>
        <time>2018-08-20T09:31:48Z</time>
      </trkpt>
      <trkpt lat="45.94945" lon="4.80316">
        <ele>257</ele>
        <time>2018-08-20T09:31:49Z</time>
      </trkpt>
      <trkpt lat="45.94945" lon="4.80307">
        <ele>257</ele>
        <time>2018-08-20T09:31:50Z</time>
      </trkpt>
      <trkpt lat="45.94945" lon="4.80299">
        <ele>257</ele>
        <time>2018-08-20T09:31:51Z</time>
      </trkpt>
      <trkpt lat="45.94946" lon="4.80291">
        <ele>257</ele>
        <time>2018-08-20T09:31:52Z</time>
      </trkpt>
      <trkpt lat="45.94947" lon="4.80283">
        <ele>257</ele>
        <time>2018-08-20T09:31:53Z</time>
      </trkpt>
      <trkpt lat="45.94945" lon="4.80275">
        <ele>257</ele>
        <time>2018-08-20T09:31:54Z</time>
      </trkpt>
      <trkpt lat="45.94946" lon="4.80268">
        <ele>257</ele>
        <time>2018-08-20T09:31:55Z</time>
      </trkpt>
      <trkpt lat="45.94946" lon="4.80261">
        <ele>257</ele>
        <time>2018-08-20T09:31:56Z</time>
      </trkpt>
      <trkpt lat="45.94946" lon="4.80252">
        <ele>257</ele>
        <time>2018-08-20T09:31:57Z</time>
      </trkpt>
      <trkpt lat="45.94946" lon="4.80246">
        <ele>256</ele>
        <time>2018-08-20T09:31:58Z</time>
      </trkpt>
      <trkpt lat="45.94945" lon="4.80238">
        <ele>256</ele>
        <time>2018-08-20T09:31:59Z</time>
      </trkpt>
      <trkpt lat="45.94944" lon="4.80231">
        <ele>256</ele>
        <time>2018-08-20T09:32:00Z</time>
      </trkpt>
      <trkpt lat="45.94943" lon="4.80223">
        <ele>256</ele>
        <time>2018-08-20T09:32:01Z</time>
      </trkpt>
      <trkpt lat="45.94942" lon="4.80216">
        <ele>256</ele>
        <time>2018-08-20T09:32:02Z</time>
      </trkpt>
      <trkpt lat="45.9494" lon="4.80208">
        <ele>256</ele>
        <time>2018-08-20T09:32:03Z</time>
      </trkpt>
      <trkpt lat="45.94939" lon="4.802">
        <ele>256</ele>
        <time>2018-08-20T09:32:04Z</time>
      </trkpt>
      <trkpt lat="45.94938" lon="4.8019">
        <ele>256</ele>
        <time>2018-08-20T09:32:05Z</time>
      </trkpt>
      <trkpt lat="45.94936" lon="4.80181">
        <ele>256</ele>
        <time>2018-08-20T09:32:06Z</time>
      </trkpt>
      <trkpt lat="45.94935" lon="4.80172">
        <ele>256</ele>
        <time>2018-08-20T09:32:07Z</time>
      </trkpt>
      <trkpt lat="45.94934" lon="4.80163">
        <ele>255</ele>
        <time>2018-08-20T09:32:08Z</time>
      </trkpt>
      <trkpt lat="45.9493" lon="4.80154">
        <ele>255</ele>
        <time>2018-08-20T09:32:09Z</time>
      </trkpt>
      <trkpt lat="45.94928" lon="4.80146">
        <ele>256</ele>
        <time>2018-08-20T09:32:10Z</time>
      </trkpt>
      <trkpt lat="45.94926" lon="4.80137">
        <ele>256</ele>
        <time>2018-08-20T09:32:11Z</time>
      </trkpt>
      <trkpt lat="45.94923" lon="4.80128">
        <ele>256</ele>
        <time>2018-08-20T09:32:12Z</time>
      </trkpt>
      <trkpt lat="45.94921" lon="4.8012">
        <ele>256</ele>
        <time>2018-08-20T09:32:13Z</time>
      </trkpt>
      <trkpt lat="45.94917" lon="4.80112">
        <ele>256</ele>
        <time>2018-08-20T09:32:14Z</time>
      </trkpt>
      <trkpt lat="45.94918" lon="4.80104">
        <ele>256</ele>
        <time>2018-08-20T09:32:15Z</time>
      </trkpt>
      <trkpt lat="45.94916" lon="4.80094">
        <ele>257</ele>
        <time>2018-08-20T09:32:16Z</time>
      </trkpt>
      <trkpt lat="45.94915" lon="4.8009">
        <ele>257</ele>
        <time>2018-08-20T09:32:17Z</time>
      </trkpt>
      <trkpt lat="45.94909" lon="4.80082">
        <ele>257</ele>
        <time>2018-08-20T09:32:18Z</time>
      </trkpt>
      <trkpt lat="45.9491" lon="4.80077">
        <ele>257</ele>
        <time>2018-08-20T09:32:19Z</time>
      </trkpt>
      <trkpt lat="45.94907" lon="4.80067">
        <ele>256</ele>
        <time>2018-08-20T09:32:20Z</time>
      </trkpt>
      <trkpt lat="45.94904" lon="4.8006">
        <ele>256</ele>
        <time>2018-08-20T09:32:21Z</time>
      </trkpt>
      <trkpt lat="45.94904" lon="4.80053">
        <ele>256</ele>
        <time>2018-08-20T09:32:22Z</time>
      </trkpt>
      <trkpt lat="45.94904" lon="4.80044">
        <ele>256</ele>
        <time>2018-08-20T09:32:23Z</time>
      </trkpt>
      <trkpt lat="45.94902" lon="4.80035">
        <ele>256</ele>
        <time>2018-08-20T09:32:24Z</time>
      </trkpt>
      <trkpt lat="45.94897" lon="4.80025">
        <ele>256</ele>
        <time>2018-08-20T09:32:25Z</time>
      </trkpt>
      <trkpt lat="45.94894" lon="4.80017">
        <ele>256</ele>
        <time>2018-08-20T09:32:26Z</time>
      </trkpt>
      <trkpt lat="45.94891" lon="4.80007">
        <ele>256</ele>
        <time>2018-08-20T09:32:27Z</time>
      </trkpt>
      <trkpt lat="45.94887" lon="4.79998">
        <ele>256</ele>
        <time>2018-08-20T09:32:28Z</time>
      </trkpt>
      <trkpt lat="45.94882" lon="4.79989">
        <ele>256</ele>
        <time>2018-08-20T09:32:29Z</time>
      </trkpt>
      <trkpt lat="45.94879" lon="4.79983">
        <ele>256</ele>
        <time>2018-08-20T09:32:30Z</time>
      </trkpt>
      <trkpt lat="45.94876" lon="4.79974">
        <ele>256</ele>
        <time>2018-08-20T09:32:31Z</time>
      </trkpt>
      <trkpt lat="45.94873" lon="4.79966">
        <ele>256</ele>
        <time>2018-08-20T09:32:32Z</time>
      </trkpt>
      <trkpt lat="45.9487" lon="4.79958">
        <ele>256</ele>
        <time>2018-08-20T09:32:33Z</time>
      </trkpt>
      <trkpt lat="45.94868" lon="4.7995">
        <ele>256</ele>
        <time>2018-08-20T09:32:34Z</time>
      </trkpt>
      <trkpt lat="45.94865" lon="4.79943">
        <ele>256</ele>
        <time>2018-08-20T09:32:35Z</time>
      </trkpt>
      <trkpt lat="45.94861" lon="4.79935">
        <ele>256</ele>
        <time>2018-08-20T09:32:36Z</time>
      </trkpt>
      <trkpt lat="45.9486" lon="4.79928">
        <ele>256</ele>
        <time>2018-08-20T09:32:37Z</time>
      </trkpt>
      <trkpt lat="45.94857" lon="4.79921">
        <ele>256</ele>
        <time>2018-08-20T09:32:38Z</time>
      </trkpt>
      <trkpt lat="45.94852" lon="4.79913">
        <ele>256</ele>
        <time>2018-08-20T09:32:39Z</time>
      </trkpt>
      <trkpt lat="45.94848" lon="4.79906">
        <ele>255</ele>
        <time>2018-08-20T09:32:40Z</time>
      </trkpt>
      <trkpt lat="45.94843" lon="4.79897">
        <ele>255</ele>
        <time>2018-08-20T09:32:41Z</time>
      </trkpt>
      <trkpt lat="45.94842" lon="4.79889">
        <ele>255</ele>
        <time>2018-08-20T09:32:42Z</time>
      </trkpt>
      <trkpt lat="45.9484" lon="4.7988">
        <ele>255</ele>
        <time>2018-08-20T09:32:43Z</time>
      </trkpt>
      <trkpt lat="45.94838" lon="4.79872">
        <ele>255</ele>
        <time>2018-08-20T09:32:44Z</time>
      </trkpt>
      <trkpt lat="45.94836" lon="4.79864">
        <ele>255</ele>
        <time>2018-08-20T09:32:45Z</time>
      </trkpt>
      <trkpt lat="45.94834" lon="4.79855">
        <ele>255</ele>
        <time>2018-08-20T09:32:46Z</time>
      </trkpt>
      <trkpt lat="45.94831" lon="4.79846">
        <ele>254</ele>
        <time>2018-08-20T09:32:47Z</time>
      </trkpt>
      <trkpt lat="45.9483" lon="4.79836">
        <ele>254</ele>
        <time>2018-08-20T09:32:48Z</time>
      </trkpt>
      <trkpt lat="45.94827" lon="4.79828">
        <ele>254</ele>
        <time>2018-08-20T09:32:49Z</time>
      </trkpt>
      <trkpt lat="45.94826" lon="4.7982">
        <ele>254</ele>
        <time>2018-08-20T09:32:50Z</time>
      </trkpt>
      <trkpt lat="45.94824" lon="4.79811">
        <ele>254</ele>
        <time>2018-08-20T09:32:51Z</time>
      </trkpt>
      <trkpt lat="45.9482" lon="4.79802">
        <ele>254</ele>
        <time>2018-08-20T09:32:52Z</time>
      </trkpt>
      <trkpt lat="45.94816" lon="4.79794">
        <ele>254</ele>
        <time>2018-08-20T09:32:53Z</time>
      </trkpt>
      <trkpt lat="45.94813" lon="4.79785">
        <ele>254</ele>
        <time>2018-08-20T09:32:54Z</time>
      </trkpt>
      <trkpt lat="45.94811" lon="4.79777">
        <ele>254</ele>
        <time>2018-08-20T09:32:55Z</time>
      </trkpt>
      <trkpt lat="45.94809" lon="4.7977">
        <ele>254</ele>
        <time>2018-08-20T09:32:56Z</time>
      </trkpt>
      <trkpt lat="45.94809" lon="4.79761">
        <ele>254</ele>
        <time>2018-08-20T09:32:57Z</time>
      </trkpt>
      <trkpt lat="45.9481" lon="4.79755">
        <ele>254</ele>
        <time>2018-08-20T09:32:58Z</time>
      </trkpt>
      <trkpt lat="45.94807" lon="4.79749">
        <ele>254</ele>
        <time>2018-08-20T09:32:59Z</time>
      </trkpt>
      <trkpt lat="45.94805" lon="4.79743">
        <ele>254</ele>
        <time>2018-08-20T09:33:00Z</time>
      </trkpt>
      <trkpt lat="45.94803" lon="4.79735">
        <ele>254</ele>
        <time>2018-08-20T09:33:01Z</time>
      </trkpt>
      <trkpt lat="45.94801" lon="4.79726">
        <ele>254</ele>
        <time>2018-08-20T09:33:02Z</time>
      </trkpt>
      <trkpt lat="45.948" lon="4.7972">
        <ele>254</ele>
        <time>2018-08-20T09:33:03Z</time>
      </trkpt>
      <trkpt lat="45.94798" lon="4.79713">
        <ele>254</ele>
        <time>2018-08-20T09:33:04Z</time>
      </trkpt>
      <trkpt lat="45.94793" lon="4.79703">
        <ele>254</ele>
        <time>2018-08-20T09:33:05Z</time>
      </trkpt>
      <trkpt lat="45.94786" lon="4.79695">
        <ele>254</ele>
        <time>2018-08-20T09:33:06Z</time>
      </trkpt>
      <trkpt lat="45.94782" lon="4.79687">
        <ele>254</ele>
        <time>2018-08-20T09:33:07Z</time>
      </trkpt>
      <trkpt lat="45.9478" lon="4.79679">
        <ele>254</ele>
        <time>2018-08-20T09:33:08Z</time>
      </trkpt>
      <trkpt lat="45.94778" lon="4.79671">
        <ele>254</ele>
        <time>2018-08-20T09:33:09Z</time>
      </trkpt>
      <trkpt lat="45.94774" lon="4.79664">
        <ele>254</ele>
        <time>2018-08-20T09:33:10Z</time>
      </trkpt>
      <trkpt lat="45.94772" lon="4.79657">
        <ele>254</ele>
        <time>2018-08-20T09:33:11Z</time>
      </trkpt>
      <trkpt lat="45.94771" lon="4.7965">
        <ele>254</ele>
        <time>2018-08-20T09:33:12Z</time>
      </trkpt>
      <trkpt lat="45.94769" lon="4.79644">
        <ele>254</ele>
        <time>2018-08-20T09:33:13Z</time>
      </trkpt>
      <trkpt lat="45.94767" lon="4.79637">
        <ele>254</ele>
        <time>2018-08-20T09:33:14Z</time>
      </trkpt>
      <trkpt lat="45.94766" lon="4.7963">
        <ele>253</ele>
        <time>2018-08-20T09:33:15Z</time>
      </trkpt>
      <trkpt lat="45.94766" lon="4.79624">
        <ele>253</ele>
        <time>2018-08-20T09:33:16Z</time>
      </trkpt>
      <trkpt lat="45.94763" lon="4.79615">
        <ele>253</ele>
        <time>2018-08-20T09:33:17Z</time>
      </trkpt>
      <trkpt lat="45.94762" lon="4.79608">
        <ele>253</ele>
        <time>2018-08-20T09:33:18Z</time>
      </trkpt>
      <trkpt lat="45.94759" lon="4.796">
        <ele>253</ele>
        <time>2018-08-20T09:33:19Z</time>
      </trkpt>
      <trkpt lat="45.94759" lon="4.79593">
        <ele>253</ele>
        <time>2018-08-20T09:33:20Z</time>
      </trkpt>
      <trkpt lat="45.94764" lon="4.79586">
        <ele>253</ele>
        <time>2018-08-20T09:33:22Z</time>
      </trkpt>
      <trkpt lat="45.94769" lon="4.79578">
        <ele>252</ele>
        <time>2018-08-20T09:33:23Z</time>
      </trkpt>
      <trkpt lat="45.94771" lon="4.79574">
        <ele>252</ele>
        <time>2018-08-20T09:33:25Z</time>
      </trkpt>
      <trkpt lat="45.94769" lon="4.79564">
        <ele>252</ele>
        <time>2018-08-20T09:33:26Z</time>
      </trkpt>
      <trkpt lat="45.94768" lon="4.79556">
        <ele>252</ele>
        <time>2018-08-20T09:33:27Z</time>
      </trkpt>
      <trkpt lat="45.94766" lon="4.79549">
        <ele>252</ele>
        <time>2018-08-20T09:33:28Z</time>
      </trkpt>
      <trkpt lat="45.94762" lon="4.79543">
        <ele>252</ele>
        <time>2018-08-20T09:33:29Z</time>
      </trkpt>
      <trkpt lat="45.9476" lon="4.79537">
        <ele>252</ele>
        <time>2018-08-20T09:33:30Z</time>
      </trkpt>
      <trkpt lat="45.94757" lon="4.7953">
        <ele>252</ele>
        <time>2018-08-20T09:33:31Z</time>
      </trkpt>
      <trkpt lat="45.94754" lon="4.79523">
        <ele>252</ele>
        <time>2018-08-20T09:33:32Z</time>
      </trkpt>
      <trkpt lat="45.94751" lon="4.79516">
        <ele>252</ele>
        <time>2018-08-20T09:33:33Z</time>
      </trkpt>
      <trkpt lat="45.94746" lon="4.79507">
        <ele>252</ele>
        <time>2018-08-20T09:33:34Z</time>
      </trkpt>
      <trkpt lat="45.94743" lon="4.795">
        <ele>252</ele>
        <time>2018-08-20T09:33:35Z</time>
      </trkpt>
      <trkpt lat="45.94741" lon="4.79493">
        <ele>252</ele>
        <time>2018-08-20T09:33:36Z</time>
      </trkpt>
      <trkpt lat="45.94736" lon="4.79485">
        <ele>253</ele>
        <time>2018-08-20T09:33:37Z</time>
      </trkpt>
      <trkpt lat="45.94733" lon="4.79478">
        <ele>253</ele>
        <time>2018-08-20T09:33:38Z</time>
      </trkpt>
      <trkpt lat="45.94729" lon="4.7947">
        <ele>253</ele>
        <time>2018-08-20T09:33:39Z</time>
      </trkpt>
      <trkpt lat="45.94726" lon="4.79463">
        <ele>253</ele>
        <time>2018-08-20T09:33:40Z</time>
      </trkpt>
      <trkpt lat="45.94724" lon="4.79453">
        <ele>253</ele>
        <time>2018-08-20T09:33:41Z</time>
      </trkpt>
      <trkpt lat="45.94721" lon="4.79448">
        <ele>253</ele>
        <time>2018-08-20T09:33:42Z</time>
      </trkpt>
      <trkpt lat="45.94718" lon="4.79442">
        <ele>253</ele>
        <time>2018-08-20T09:33:43Z</time>
      </trkpt>
      <trkpt lat="45.94715" lon="4.79435">
        <ele>253</ele>
        <time>2018-08-20T09:33:44Z</time>
      </trkpt>
      <trkpt lat="45.94713" lon="4.79429">
        <ele>253</ele>
        <time>2018-08-20T09:33:45Z</time>
      </trkpt>
      <trkpt lat="45.9471" lon="4.79422">
        <ele>253</ele>
        <time>2018-08-20T09:33:46Z</time>
      </trkpt>
      <trkpt lat="45.94707" lon="4.79411">
        <ele>253</ele>
        <time>2018-08-20T09:33:48Z</time>
      </trkpt>
      <trkpt lat="45.94703" lon="4.79404">
        <ele>253</ele>
        <time>2018-08-20T09:33:49Z</time>
      </trkpt>
      <trkpt lat="45.947" lon="4.79397">
        <ele>253</ele>
        <time>2018-08-20T09:33:50Z</time>
      </trkpt>
      <trkpt lat="45.94696" lon="4.79391">
        <ele>253</ele>
        <time>2018-08-20T09:33:51Z</time>
      </trkpt>
      <trkpt lat="45.94693" lon="4.79385">
        <ele>253</ele>
        <time>2018-08-20T09:33:52Z</time>
      </trkpt>
      <trkpt lat="45.9469" lon="4.79378">
        <ele>253</ele>
        <time>2018-08-20T09:33:53Z</time>
      </trkpt>
      <trkpt lat="45.94687" lon="4.79371">
        <ele>253</ele>
        <time>2018-08-20T09:33:54Z</time>
      </trkpt>
      <trkpt lat="45.94685" lon="4.79364">
        <ele>253</ele>
        <time>2018-08-20T09:33:55Z</time>
      </trkpt>
      <trkpt lat="45.94682" lon="4.79356">
        <ele>253</ele>
        <time>2018-08-20T09:33:56Z</time>
      </trkpt>
      <trkpt lat="45.94679" lon="4.79349">
        <ele>253</ele>
        <time>2018-08-20T09:33:57Z</time>
      </trkpt>
      <trkpt lat="45.94675" lon="4.79344">
        <ele>253</ele>
        <time>2018-08-20T09:33:58Z</time>
      </trkpt>
      <trkpt lat="45.94671" lon="4.79336">
        <ele>254</ele>
        <time>2018-08-20T09:33:59Z</time>
      </trkpt>
      <trkpt lat="45.94666" lon="4.79328">
        <ele>254</ele>
        <time>2018-08-20T09:34:00Z</time>
      </trkpt>
      <trkpt lat="45.94662" lon="4.79321">
        <ele>254</ele>
        <time>2018-08-20T09:34:01Z</time>
      </trkpt>
      <trkpt lat="45.94657" lon="4.79316">
        <ele>254</ele>
        <time>2018-08-20T09:34:02Z</time>
      </trkpt>
      <trkpt lat="45.94656" lon="4.79309">
        <ele>254</ele>
        <time>2018-08-20T09:34:03Z</time>
      </trkpt>
      <trkpt lat="45.94652" lon="4.79302">
        <ele>254</ele>
        <time>2018-08-20T09:34:04Z</time>
      </trkpt>
      <trkpt lat="45.94649" lon="4.79294">
        <ele>254</ele>
        <time>2018-08-20T09:34:05Z</time>
      </trkpt>
      <trkpt lat="45.94645" lon="4.79288">
        <ele>254</ele>
        <time>2018-08-20T09:34:06Z</time>
      </trkpt>
      <trkpt lat="45.94641" lon="4.79281">
        <ele>254</ele>
        <time>2018-08-20T09:34:07Z</time>
      </trkpt>
      <trkpt lat="45.94636" lon="4.79273">
        <ele>254</ele>
        <time>2018-08-20T09:34:08Z</time>
      </trkpt>
      <trkpt lat="45.94634" lon="4.79268">
        <ele>254</ele>
        <time>2018-08-20T09:34:09Z</time>
      </trkpt>
      <trkpt lat="45.9463" lon="4.79259">
        <ele>254</ele>
        <time>2018-08-20T09:34:10Z</time>
      </trkpt>
      <trkpt lat="45.94627" lon="4.79253">
        <ele>254</ele>
        <time>2018-08-20T09:34:11Z</time>
      </trkpt>
      <trkpt lat="45.94626" lon="4.79245">
        <ele>256</ele>
        <time>2018-08-20T09:34:12Z</time>
      </trkpt>
      <trkpt lat="45.94621" lon="4.79238">
        <ele>256</ele>
        <time>2018-08-20T09:34:13Z</time>
      </trkpt>
      <trkpt lat="45.94618" lon="4.79229">
        <ele>256</ele>
        <time>2018-08-20T09:34:14Z</time>
      </trkpt>
      <trkpt lat="45.94614" lon="4.79221">
        <ele>256</ele>
        <time>2018-08-20T09:34:15Z</time>
      </trkpt>
      <trkpt lat="45.94613" lon="4.79215">
        <ele>257</ele>
        <time>2018-08-20T09:34:16Z</time>
      </trkpt>
      <trkpt lat="45.94605" lon="4.79208">
        <ele>257</ele>
        <time>2018-08-20T09:34:17Z</time>
      </trkpt>
      <trkpt lat="45.94602" lon="4.79198">
        <ele>257</ele>
        <time>2018-08-20T09:34:18Z</time>
      </trkpt>
      <trkpt lat="45.94598" lon="4.7919">
        <ele>257</ele>
        <time>2018-08-20T09:34:19Z</time>
      </trkpt>
      <trkpt lat="45.94593" lon="4.79181">
        <ele>258</ele>
        <time>2018-08-20T09:34:20Z</time>
      </trkpt>
      <trkpt lat="45.94591" lon="4.79175">
        <ele>258</ele>
        <time>2018-08-20T09:34:21Z</time>
      </trkpt>
      <trkpt lat="45.94587" lon="4.79169">
        <ele>259</ele>
        <time>2018-08-20T09:34:22Z</time>
      </trkpt>
      <trkpt lat="45.94583" lon="4.79164">
        <ele>259</ele>
        <time>2018-08-20T09:34:23Z</time>
      </trkpt>
      <trkpt lat="45.9458" lon="4.79159">
        <ele>258</ele>
        <time>2018-08-20T09:34:24Z</time>
      </trkpt>
      <trkpt lat="45.94577" lon="4.7915">
        <ele>258</ele>
        <time>2018-08-20T09:34:25Z</time>
      </trkpt>
      <trkpt lat="45.94574" lon="4.79144">
        <ele>257</ele>
        <time>2018-08-20T09:34:26Z</time>
      </trkpt>
      <trkpt lat="45.94571" lon="4.79134">
        <ele>257</ele>
        <time>2018-08-20T09:34:27Z</time>
      </trkpt>
      <trkpt lat="45.94566" lon="4.79124">
        <ele>257</ele>
        <time>2018-08-20T09:34:28Z</time>
      </trkpt>
      <trkpt lat="45.94563" lon="4.79114">
        <ele>257</ele>
        <time>2018-08-20T09:34:29Z</time>
      </trkpt>
      <trkpt lat="45.94557" lon="4.79105">
        <ele>257</ele>
        <time>2018-08-20T09:34:30Z</time>
      </trkpt>
      <trkpt lat="45.94555" lon="4.79097">
        <ele>257</ele>
        <time>2018-08-20T09:34:31Z</time>
      </trkpt>
      <trkpt lat="45.94553" lon="4.79087">
        <ele>257</ele>
        <time>2018-08-20T09:34:32Z</time>
      </trkpt>
      <trkpt lat="45.94549" lon="4.7908">
        <ele>256</ele>
        <time>2018-08-20T09:34:33Z</time>
      </trkpt>
      <trkpt lat="45.94542" lon="4.79074">
        <ele>256</ele>
        <time>2018-08-20T09:34:34Z</time>
      </trkpt>
      <trkpt lat="45.94535" lon="4.7907">
        <ele>255</ele>
        <time>2018-08-20T09:34:35Z</time>
      </trkpt>
      <trkpt lat="45.94535" lon="4.7906">
        <ele>255</ele>
        <time>2018-08-20T09:34:36Z</time>
      </trkpt>
      <trkpt lat="45.94526" lon="4.7905">
        <ele>255</ele>
        <time>2018-08-20T09:34:37Z</time>
      </trkpt>
      <trkpt lat="45.94522" lon="4.79043">
        <ele>255</ele>
        <time>2018-08-20T09:34:38Z</time>
      </trkpt>
      <trkpt lat="45.94519" lon="4.79036">
        <ele>255</ele>
        <time>2018-08-20T09:34:39Z</time>
      </trkpt>
      <trkpt lat="45.94514" lon="4.79027">
        <ele>255</ele>
        <time>2018-08-20T09:34:40Z</time>
      </trkpt>
      <trkpt lat="45.94511" lon="4.79018">
        <ele>255</ele>
        <time>2018-08-20T09:34:41Z</time>
      </trkpt>
      <trkpt lat="45.94505" lon="4.79009">
        <ele>254</ele>
        <time>2018-08-20T09:34:42Z</time>
      </trkpt>
      <trkpt lat="45.94499" lon="4.79">
        <ele>254</ele>
        <time>2018-08-20T09:34:43Z</time>
      </trkpt>
      <trkpt lat="45.94493" lon="4.78991">
        <ele>254</ele>
        <time>2018-08-20T09:34:44Z</time>
      </trkpt>
      <trkpt lat="45.94489" lon="4.78981">
        <ele>254</ele>
        <time>2018-08-20T09:34:45Z</time>
      </trkpt>
      <trkpt lat="45.94484" lon="4.78972">
        <ele>254</ele>
        <time>2018-08-20T09:34:46Z</time>
      </trkpt>
      <trkpt lat="45.94479" lon="4.78964">
        <ele>254</ele>
        <time>2018-08-20T09:34:47Z</time>
      </trkpt>
      <trkpt lat="45.94478" lon="4.78956">
        <ele>254</ele>
        <time>2018-08-20T09:34:48Z</time>
      </trkpt>
      <trkpt lat="45.94474" lon="4.78945">
        <ele>254</ele>
        <time>2018-08-20T09:34:49Z</time>
      </trkpt>
      <trkpt lat="45.94468" lon="4.78935">
        <ele>254</ele>
        <time>2018-08-20T09:34:50Z</time>
      </trkpt>
      <trkpt lat="45.94464" lon="4.78924">
        <ele>254</ele>
        <time>2018-08-20T09:34:51Z</time>
      </trkpt>
      <trkpt lat="45.9446" lon="4.78905">
        <ele>253</ele>
        <time>2018-08-20T09:34:52Z</time>
      </trkpt>
      <trkpt lat="45.94461" lon="4.7889">
        <ele>253</ele>
        <time>2018-08-20T09:34:53Z</time>
      </trkpt>
      <trkpt lat="45.94459" lon="4.78876">
        <ele>253</ele>
        <time>2018-08-20T09:34:54Z</time>
      </trkpt>
      <trkpt lat="45.94462" lon="4.78861">
        <ele>253</ele>
        <time>2018-08-20T09:34:55Z</time>
      </trkpt>
      <trkpt lat="45.94466" lon="4.78846">
        <ele>253</ele>
        <time>2018-08-20T09:34:56Z</time>
      </trkpt>
      <trkpt lat="45.94469" lon="4.7883">
        <ele>251</ele>
        <time>2018-08-20T09:34:57Z</time>
      </trkpt>
      <trkpt lat="45.94476" lon="4.78818">
        <ele>251</ele>
        <time>2018-08-20T09:34:58Z</time>
      </trkpt>
      <trkpt lat="45.94476" lon="4.788">
        <ele>251</ele>
        <time>2018-08-20T09:34:59Z</time>
      </trkpt>
      <trkpt lat="45.94488" lon="4.7879">
        <ele>250</ele>
        <time>2018-08-20T09:35:00Z</time>
      </trkpt>
      <trkpt lat="45.94488" lon="4.78772">
        <ele>249</ele>
        <time>2018-08-20T09:35:01Z</time>
      </trkpt>
      <trkpt lat="45.94488" lon="4.78751">
        <ele>248</ele>
        <time>2018-08-20T09:35:02Z</time>
      </trkpt>
      <trkpt lat="45.94489" lon="4.78733">
        <ele>246</ele>
        <time>2018-08-20T09:35:03Z</time>
      </trkpt>
      <trkpt lat="45.94478" lon="4.78711">
        <ele>245</ele>
        <time>2018-08-20T09:35:04Z</time>
      </trkpt>
      <trkpt lat="45.94481" lon="4.78696">
        <ele>244</ele>
        <time>2018-08-20T09:35:05Z</time>
      </trkpt>
      <trkpt lat="45.9448" lon="4.78679">
        <ele>243</ele>
        <time>2018-08-20T09:35:06Z</time>
      </trkpt>
      <trkpt lat="45.94478" lon="4.78662">
        <ele>241</ele>
        <time>2018-08-20T09:35:07Z</time>
      </trkpt>
      <trkpt lat="45.94478" lon="4.78648">
        <ele>241</ele>
        <time>2018-08-20T09:35:08Z</time>
      </trkpt>
      <trkpt lat="45.94474" lon="4.78631">
        <ele>241</ele>
        <time>2018-08-20T09:35:09Z</time>
      </trkpt>
      <trkpt lat="45.9447" lon="4.78614">
        <ele>241</ele>
        <time>2018-08-20T09:35:10Z</time>
      </trkpt>
      <trkpt lat="45.94465" lon="4.78597">
        <ele>241</ele>
        <time>2018-08-20T09:35:11Z</time>
      </trkpt>
      <trkpt lat="45.94456" lon="4.7858">
        <ele>240</ele>
        <time>2018-08-20T09:35:12Z</time>
      </trkpt>
      <trkpt lat="45.94445" lon="4.78559">
        <ele>239</ele>
        <time>2018-08-20T09:35:13Z</time>
      </trkpt>
      <trkpt lat="45.94434" lon="4.7855">
        <ele>239</ele>
        <time>2018-08-20T09:35:14Z</time>
      </trkpt>
      <trkpt lat="45.94425" lon="4.78534">
        <ele>238</ele>
        <time>2018-08-20T09:35:15Z</time>
      </trkpt>
      <trkpt lat="45.94416" lon="4.7852">
        <ele>236</ele>
        <time>2018-08-20T09:35:16Z</time>
      </trkpt>
      <trkpt lat="45.94407" lon="4.78508">
        <ele>236</ele>
        <time>2018-08-20T09:35:17Z</time>
      </trkpt>
      <trkpt lat="45.94398" lon="4.78497">
        <ele>235</ele>
        <time>2018-08-20T09:35:18Z</time>
      </trkpt>
      <trkpt lat="45.9439" lon="4.78488">
        <ele>235</ele>
        <time>2018-08-20T09:35:19Z</time>
      </trkpt>
      <trkpt lat="45.9438" lon="4.78477">
        <ele>236</ele>
        <time>2018-08-20T09:35:20Z</time>
      </trkpt>
      <trkpt lat="45.9437" lon="4.78464">
        <ele>236</ele>
        <time>2018-08-20T09:35:21Z</time>
      </trkpt>
      <trkpt lat="45.94362" lon="4.78453">
        <ele>235</ele>
        <time>2018-08-20T09:35:22Z</time>
      </trkpt>
      <trkpt lat="45.94353" lon="4.78442">
        <ele>234</ele>
        <time>2018-08-20T09:35:23Z</time>
      </trkpt>
      <trkpt lat="45.94344" lon="4.78429">
        <ele>233</ele>
        <time>2018-08-20T09:35:24Z</time>
      </trkpt>
      <trkpt lat="45.94338" lon="4.78415">
        <ele>230</ele>
        <time>2018-08-20T09:35:25Z</time>
      </trkpt>
      <trkpt lat="45.94331" lon="4.78402">
        <ele>229</ele>
        <time>2018-08-20T09:35:26Z</time>
      </trkpt>
      <trkpt lat="45.94325" lon="4.78389">
        <ele>230</ele>
        <time>2018-08-20T09:35:27Z</time>
      </trkpt>
      <trkpt lat="45.94317" lon="4.78375">
        <ele>230</ele>
        <time>2018-08-20T09:35:28Z</time>
      </trkpt>
      <trkpt lat="45.94311" lon="4.78361">
        <ele>229</ele>
        <time>2018-08-20T09:35:29Z</time>
      </trkpt>
      <trkpt lat="45.94305" lon="4.78349">
        <ele>229</ele>
        <time>2018-08-20T09:35:30Z</time>
      </trkpt>
      <trkpt lat="45.94298" lon="4.78336">
        <ele>228</ele>
        <time>2018-08-20T09:35:31Z</time>
      </trkpt>
      <trkpt lat="45.94286" lon="4.78324">
        <ele>228</ele>
        <time>2018-08-20T09:35:32Z</time>
      </trkpt>
      <trkpt lat="45.94278" lon="4.78315">
        <ele>228</ele>
        <time>2018-08-20T09:35:33Z</time>
      </trkpt>
      <trkpt lat="45.94263" lon="4.78309">
        <ele>227</ele>
        <time>2018-08-20T09:35:34Z</time>
      </trkpt>
      <trkpt lat="45.94254" lon="4.78302">
        <ele>227</ele>
        <time>2018-08-20T09:35:35Z</time>
      </trkpt>
      <trkpt lat="45.94244" lon="4.78297">
        <ele>222</ele>
        <time>2018-08-20T09:35:36Z</time>
      </trkpt>
      <trkpt lat="45.94233" lon="4.78297">
        <ele>222</ele>
        <time>2018-08-20T09:35:37Z</time>
      </trkpt>
      <trkpt lat="45.94221" lon="4.78295">
        <ele>222</ele>
        <time>2018-08-20T09:35:38Z</time>
      </trkpt>
      <trkpt lat="45.94209" lon="4.78293">
        <ele>221</ele>
        <time>2018-08-20T09:35:39Z</time>
      </trkpt>
      <trkpt lat="45.94198" lon="4.78291">
        <ele>221</ele>
        <time>2018-08-20T09:35:40Z</time>
      </trkpt>
      <trkpt lat="45.94188" lon="4.78289">
        <ele>221</ele>
        <time>2018-08-20T09:35:41Z</time>
      </trkpt>
      <trkpt lat="45.94178" lon="4.78284">
        <ele>221</ele>
        <time>2018-08-20T09:35:42Z</time>
      </trkpt>
      <trkpt lat="45.94168" lon="4.78276">
        <ele>220</ele>
        <time>2018-08-20T09:35:43Z</time>
      </trkpt>
      <trkpt lat="45.94158" lon="4.78269">
        <ele>216</ele>
        <time>2018-08-20T09:35:44Z</time>
      </trkpt>
      <trkpt lat="45.94147" lon="4.7826">
        <ele>216</ele>
        <time>2018-08-20T09:35:45Z</time>
      </trkpt>
      <trkpt lat="45.94135" lon="4.78256">
        <ele>215</ele>
        <time>2018-08-20T09:35:46Z</time>
      </trkpt>
      <trkpt lat="45.94125" lon="4.78248">
        <ele>215</ele>
        <time>2018-08-20T09:35:47Z</time>
      </trkpt>
      <trkpt lat="45.94115" lon="4.78242">
        <ele>214</ele>
        <time>2018-08-20T09:35:48Z</time>
      </trkpt>
      <trkpt lat="45.94106" lon="4.78236">
        <ele>213</ele>
        <time>2018-08-20T09:35:49Z</time>
      </trkpt>
      <trkpt lat="45.94096" lon="4.78227">
        <ele>213</ele>
        <time>2018-08-20T09:35:50Z</time>
      </trkpt>
      <trkpt lat="45.94086" lon="4.78219">
        <ele>213</ele>
        <time>2018-08-20T09:35:51Z</time>
      </trkpt>
      <trkpt lat="45.94076" lon="4.78213">
        <ele>206</ele>
        <time>2018-08-20T09:35:52Z</time>
      </trkpt>
      <trkpt lat="45.94068" lon="4.78207">
        <ele>206</ele>
        <time>2018-08-20T09:35:53Z</time>
      </trkpt>
      <trkpt lat="45.94058" lon="4.782">
        <ele>206</ele>
        <time>2018-08-20T09:35:54Z</time>
      </trkpt>
      <trkpt lat="45.9405" lon="4.78195">
        <ele>205</ele>
        <time>2018-08-20T09:35:55Z</time>
      </trkpt>
      <trkpt lat="45.94042" lon="4.7819">
        <ele>205</ele>
        <time>2018-08-20T09:35:56Z</time>
      </trkpt>
      <trkpt lat="45.94033" lon="4.78184">
        <ele>204</ele>
        <time>2018-08-20T09:35:57Z</time>
      </trkpt>
      <trkpt lat="45.94028" lon="4.7818">
        <ele>204</ele>
        <time>2018-08-20T09:35:58Z</time>
      </trkpt>
      <trkpt lat="45.94021" lon="4.78177">
        <ele>203</ele>
        <time>2018-08-20T09:35:59Z</time>
      </trkpt>
      <trkpt lat="45.94015" lon="4.78176">
        <ele>203</ele>
        <time>2018-08-20T09:36:00Z</time>
      </trkpt>
      <trkpt lat="45.94011" lon="4.7817">
        <ele>202</ele>
        <time>2018-08-20T09:36:01Z</time>
      </trkpt>
      <trkpt lat="45.94006" lon="4.78165">
        <ele>202</ele>
        <time>2018-08-20T09:36:02Z</time>
      </trkpt>
      <trkpt lat="45.94001" lon="4.78162">
        <ele>202</ele>
        <time>2018-08-20T09:36:03Z</time>
      </trkpt>
      <trkpt lat="45.93999" lon="4.78157">
        <ele>199</ele>
        <time>2018-08-20T09:36:05Z</time>
      </trkpt>
      <trkpt lat="45.93993" lon="4.78153">
        <ele>199</ele>
        <time>2018-08-20T09:36:06Z</time>
      </trkpt>
      <trkpt lat="45.93989" lon="4.78147">
        <ele>198</ele>
        <time>2018-08-20T09:36:08Z</time>
      </trkpt>
      <trkpt lat="45.93988" lon="4.78141">
        <ele>198</ele>
        <time>2018-08-20T09:36:09Z</time>
      </trkpt>
      <trkpt lat="45.93991" lon="4.7813">
        <ele>197</ele>
        <time>2018-08-20T09:36:11Z</time>
      </trkpt>
      <trkpt lat="45.93994" lon="4.78125">
        <ele>197</ele>
        <time>2018-08-20T09:36:12Z</time>
      </trkpt>
      <trkpt lat="45.93997" lon="4.78114">
        <ele>197</ele>
        <time>2018-08-20T09:36:14Z</time>
      </trkpt>
      <trkpt lat="45.93999" lon="4.78107">
        <ele>197</ele>
        <time>2018-08-20T09:36:15Z</time>
      </trkpt>
      <trkpt lat="45.94001" lon="4.78099">
        <ele>201</ele>
        <time>2018-08-20T09:36:16Z</time>
      </trkpt>
      <trkpt lat="45.94001" lon="4.78092">
        <ele>201</ele>
        <time>2018-08-20T09:36:17Z</time>
      </trkpt>
      <trkpt lat="45.94003" lon="4.78084">
        <ele>200</ele>
        <time>2018-08-20T09:36:18Z</time>
      </trkpt>
      <trkpt lat="45.94004" lon="4.78076">
        <ele>200</ele>
        <time>2018-08-20T09:36:19Z</time>
      </trkpt>
      <trkpt lat="45.94004" lon="4.7807">
        <ele>201</ele>
        <time>2018-08-20T09:36:20Z</time>
      </trkpt>
      <trkpt lat="45.94004" lon="4.78062">
        <ele>201</ele>
        <time>2018-08-20T09:36:21Z</time>
      </trkpt>
      <trkpt lat="45.94006" lon="4.78056">
        <ele>201</ele>
        <time>2018-08-20T09:36:22Z</time>
      </trkpt>
      <trkpt lat="45.94009" lon="4.78049">
        <ele>201</ele>
        <time>2018-08-20T09:36:23Z</time>
      </trkpt>
      <trkpt lat="45.94012" lon="4.78043">
        <ele>201</ele>
        <time>2018-08-20T09:36:24Z</time>
      </trkpt>
      <trkpt lat="45.94014" lon="4.78036">
        <ele>201</ele>
        <time>2018-08-20T09:36:25Z</time>
      </trkpt>
      <trkpt lat="45.94015" lon="4.78029">
        <ele>201</ele>
        <time>2018-08-20T09:36:26Z</time>
      </trkpt>
      <trkpt lat="45.94016" lon="4.78022">
        <ele>201</ele>
        <time>2018-08-20T09:36:27Z</time>
      </trkpt>
      <trkpt lat="45.94017" lon="4.78014">
        <ele>200</ele>
        <time>2018-08-20T09:36:28Z</time>
      </trkpt>
      <trkpt lat="45.94017" lon="4.78006">
        <ele>200</ele>
        <time>2018-08-20T09:36:29Z</time>
      </trkpt>
      <trkpt lat="45.94019" lon="4.77998">
        <ele>199</ele>
        <time>2018-08-20T09:36:30Z</time>
      </trkpt>
      <trkpt lat="45.94021" lon="4.77991">
        <ele>200</ele>
        <time>2018-08-20T09:36:31Z</time>
      </trkpt>
      <trkpt lat="45.94022" lon="4.77983">
        <ele>200</ele>
        <time>2018-08-20T09:36:32Z</time>
      </trkpt>
      <trkpt lat="45.94023" lon="4.77973">
        <ele>200</ele>
        <time>2018-08-20T09:36:33Z</time>
      </trkpt>
      <trkpt lat="45.94025" lon="4.77964">
        <ele>200</ele>
        <time>2018-08-20T09:36:34Z</time>
      </trkpt>
      <trkpt lat="45.94026" lon="4.77957">
        <ele>200</ele>
        <time>2018-08-20T09:36:35Z</time>
      </trkpt>
      <trkpt lat="45.94028" lon="4.77949">
        <ele>200</ele>
        <time>2018-08-20T09:36:36Z</time>
      </trkpt>
      <trkpt lat="45.94031" lon="4.77943">
        <ele>200</ele>
        <time>2018-08-20T09:36:37Z</time>
      </trkpt>
      <trkpt lat="45.94032" lon="4.77937">
        <ele>200</ele>
        <time>2018-08-20T09:36:38Z</time>
      </trkpt>
      <trkpt lat="45.94032" lon="4.7793">
        <ele>200</ele>
        <time>2018-08-20T09:36:39Z</time>
      </trkpt>
      <trkpt lat="45.94028" lon="4.7792">
        <ele>199</ele>
        <time>2018-08-20T09:36:41Z</time>
      </trkpt>
      <trkpt lat="45.94027" lon="4.77914">
        <ele>198</ele>
        <time>2018-08-20T09:36:42Z</time>
      </trkpt>
      <trkpt lat="45.94027" lon="4.77902">
        <ele>199</ele>
        <time>2018-08-20T09:36:45Z</time>
      </trkpt>
      <trkpt lat="45.94027" lon="4.77899">
        <ele>199</ele>
        <time>2018-08-20T09:36:46Z</time>
      </trkpt>
      <trkpt lat="45.94026" lon="4.77891">
        <ele>199</ele>
        <time>2018-08-20T09:36:48Z</time>
      </trkpt>
      <trkpt lat="45.94027" lon="4.77879">
        <ele>199</ele>
        <time>2018-08-20T09:36:49Z</time>
      </trkpt>
      <trkpt lat="45.94028" lon="4.77874">
        <ele>199</ele>
        <time>2018-08-20T09:36:51Z</time>
      </trkpt>
      <trkpt lat="45.94029" lon="4.77864">
        <ele>199</ele>
        <time>2018-08-20T09:36:52Z</time>
      </trkpt>
      <trkpt lat="45.94028" lon="4.77853">
        <ele>199</ele>
        <time>2018-08-20T09:36:54Z</time>
      </trkpt>
      <trkpt lat="45.94027" lon="4.77848">
        <ele>198</ele>
        <time>2018-08-20T09:36:55Z</time>
      </trkpt>
      <trkpt lat="45.94027" lon="4.77836">
        <ele>198</ele>
        <time>2018-08-20T09:36:57Z</time>
      </trkpt>
      <trkpt lat="45.94027" lon="4.7783">
        <ele>198</ele>
        <time>2018-08-20T09:36:58Z</time>
      </trkpt>
      <trkpt lat="45.94027" lon="4.77817">
        <ele>198</ele>
        <time>2018-08-20T09:37:00Z</time>
      </trkpt>
      <trkpt lat="45.94027" lon="4.77811">
        <ele>198</ele>
        <time>2018-08-20T09:37:01Z</time>
      </trkpt>
      <trkpt lat="45.94028" lon="4.778">
        <ele>198</ele>
        <time>2018-08-20T09:37:04Z</time>
      </trkpt>
      <trkpt lat="45.94028" lon="4.77797">
        <ele>198</ele>
        <time>2018-08-20T09:37:05Z</time>
      </trkpt>
      <trkpt lat="45.94029" lon="4.77793">
        <ele>198</ele>
        <time>2018-08-20T09:37:06Z</time>
      </trkpt>
      <trkpt lat="45.94029" lon="4.77781">
        <ele>197</ele>
        <time>2018-08-20T09:37:07Z</time>
      </trkpt>
      <trkpt lat="45.9403" lon="4.77773">
        <ele>197</ele>
        <time>2018-08-20T09:37:09Z</time>
      </trkpt>
      <trkpt lat="45.9403" lon="4.77765">
        <ele>197</ele>
        <time>2018-08-20T09:37:10Z</time>
      </trkpt>
      <trkpt lat="45.94031" lon="4.77755">
        <ele>197</ele>
        <time>2018-08-20T09:37:12Z</time>
      </trkpt>
      <trkpt lat="45.94031" lon="4.77752">
        <ele>197</ele>
        <time>2018-08-20T09:37:13Z</time>
      </trkpt>
      <trkpt lat="45.94032" lon="4.77742">
        <ele>197</ele>
        <time>2018-08-20T09:37:14Z</time>
      </trkpt>
      <trkpt lat="45.94031" lon="4.77732">
        <ele>197</ele>
        <time>2018-08-20T09:37:15Z</time>
      </trkpt>
      <trkpt lat="45.94034" lon="4.7772">
        <ele>197</ele>
        <time>2018-08-20T09:37:17Z</time>
      </trkpt>
      <trkpt lat="45.94034" lon="4.77714">
        <ele>197</ele>
        <time>2018-08-20T09:37:18Z</time>
      </trkpt>
      <trkpt lat="45.94034" lon="4.77702">
        <ele>197</ele>
        <time>2018-08-20T09:37:20Z</time>
      </trkpt>
      <trkpt lat="45.94033" lon="4.77693">
        <ele>197</ele>
        <time>2018-08-20T09:37:21Z</time>
      </trkpt>
      <trkpt lat="45.94035" lon="4.77683">
        <ele>197</ele>
        <time>2018-08-20T09:37:23Z</time>
      </trkpt>
      <trkpt lat="45.94035" lon="4.77676">
        <ele>197</ele>
        <time>2018-08-20T09:37:24Z</time>
      </trkpt>
      <trkpt lat="45.94039" lon="4.77673">
        <ele>197</ele>
        <time>2018-08-20T09:37:26Z</time>
      </trkpt>
      <trkpt lat="45.94041" lon="4.77664">
        <ele>197</ele>
        <time>2018-08-20T09:37:27Z</time>
      </trkpt>
      <trkpt lat="45.94042" lon="4.77659">
        <ele>197</ele>
        <time>2018-08-20T09:37:29Z</time>
      </trkpt>
      <trkpt lat="45.94043" lon="4.7765">
        <ele>197</ele>
        <time>2018-08-20T09:37:30Z</time>
      </trkpt>
      <trkpt lat="45.94045" lon="4.77637">
        <ele>197</ele>
        <time>2018-08-20T09:37:36Z</time>
      </trkpt>
      <trkpt lat="45.94044" lon="4.77636">
        <ele>197</ele>
        <time>2018-08-20T09:37:37Z</time>
      </trkpt>
      <trkpt lat="45.94041" lon="4.77646">
        <ele>197</ele>
        <time>2018-08-20T09:37:45Z</time>
      </trkpt>
      <trkpt lat="45.94041" lon="4.77649">
        <ele>197</ele>
        <time>2018-08-20T09:37:46Z</time>
      </trkpt>
      <trkpt lat="45.94038" lon="4.7766">
        <ele>196</ele>
        <time>2018-08-20T09:37:51Z</time>
      </trkpt>
      <trkpt lat="45.94037" lon="4.77663">
        <ele>196</ele>
        <time>2018-08-20T09:37:52Z</time>
      </trkpt>
      <trkpt lat="45.94034" lon="4.77673">
        <ele>197</ele>
        <time>2018-08-20T09:37:55Z</time>
      </trkpt>
      <trkpt lat="45.94033" lon="4.77676">
        <ele>196</ele>
        <time>2018-08-20T09:37:56Z</time>
      </trkpt>
      <trkpt lat="45.94032" lon="4.77689">
        <ele>196</ele>
        <time>2018-08-20T09:38:00Z</time>
      </trkpt>
      <trkpt lat="45.94031" lon="4.77693">
        <ele>197</ele>
        <time>2018-08-20T09:38:01Z</time>
      </trkpt>
      <trkpt lat="45.94031" lon="4.77696">
        <ele>197</ele>
        <time>2018-08-20T09:38:02Z</time>
      </trkpt>
      <trkpt lat="45.94029" lon="4.77711">
        <ele>197</ele>
        <time>2018-08-20T09:38:03Z</time>
      </trkpt>
      <trkpt lat="45.9403" lon="4.77721">
        <ele>197</ele>
        <time>2018-08-20T09:38:05Z</time>
      </trkpt>
      <trkpt lat="45.94031" lon="4.7773">
        <ele>197</ele>
        <time>2018-08-20T09:38:06Z</time>
      </trkpt>
      <trkpt lat="45.94031" lon="4.77742">
        <ele>197</ele>
        <time>2018-08-20T09:38:08Z</time>
      </trkpt>
      <trkpt lat="45.94031" lon="4.77749">
        <ele>197</ele>
        <time>2018-08-20T09:38:09Z</time>
      </trkpt>
      <trkpt lat="45.94033" lon="4.77762">
        <ele>197</ele>
        <time>2018-08-20T09:38:11Z</time>
      </trkpt>
      <trkpt lat="45.94034" lon="4.77769">
        <ele>198</ele>
        <time>2018-08-20T09:38:12Z</time>
      </trkpt>
      <trkpt lat="45.94035" lon="4.77775">
        <ele>198</ele>
        <time>2018-08-20T09:38:13Z</time>
      </trkpt>
      <trkpt lat="45.94039" lon="4.77783">
        <ele>198</ele>
        <time>2018-08-20T09:38:14Z</time>
      </trkpt>
      <trkpt lat="45.94042" lon="4.77793">
        <ele>199</ele>
        <time>2018-08-20T09:38:16Z</time>
      </trkpt>
      <trkpt lat="45.9404" lon="4.77796">
        <ele>198</ele>
        <time>2018-08-20T09:38:17Z</time>
      </trkpt>
      <trkpt lat="45.94039" lon="4.77799">
        <ele>198</ele>
        <time>2018-08-20T09:38:18Z</time>
      </trkpt>
      <trkpt lat="45.94031" lon="4.77807">
        <ele>198</ele>
        <time>2018-08-20T09:38:19Z</time>
      </trkpt>
      <trkpt lat="45.94031" lon="4.77814">
        <ele>198</ele>
        <time>2018-08-20T09:38:20Z</time>
      </trkpt>
      <trkpt lat="45.94035" lon="4.7782">
        <ele>198</ele>
        <time>2018-08-20T09:38:21Z</time>
      </trkpt>
      <trkpt lat="45.94036" lon="4.77826">
        <ele>198</ele>
        <time>2018-08-20T09:38:22Z</time>
      </trkpt>
      <trkpt lat="45.94034" lon="4.77833">
        <ele>198</ele>
        <time>2018-08-20T09:38:23Z</time>
      </trkpt>
      <trkpt lat="45.94034" lon="4.7784">
        <ele>199</ele>
        <time>2018-08-20T09:38:24Z</time>
      </trkpt>
      <trkpt lat="45.94035" lon="4.77847">
        <ele>199</ele>
        <time>2018-08-20T09:38:25Z</time>
      </trkpt>
      <trkpt lat="45.94026" lon="4.77852">
        <ele>198</ele>
        <time>2018-08-20T09:38:26Z</time>
      </trkpt>
      <trkpt lat="45.94026" lon="4.77859">
        <ele>199</ele>
        <time>2018-08-20T09:38:27Z</time>
      </trkpt>
      <trkpt lat="45.94033" lon="4.77874">
        <ele>199</ele>
        <time>2018-08-20T09:38:28Z</time>
      </trkpt>
      <trkpt lat="45.94035" lon="4.77886">
        <ele>199</ele>
        <time>2018-08-20T09:38:29Z</time>
      </trkpt>
      <trkpt lat="45.94031" lon="4.77889">
        <ele>199</ele>
        <time>2018-08-20T09:38:30Z</time>
      </trkpt>
      <trkpt lat="45.94029" lon="4.77897">
        <ele>199</ele>
        <time>2018-08-20T09:38:31Z</time>
      </trkpt>
      <trkpt lat="45.94029" lon="4.77905">
        <ele>199</ele>
        <time>2018-08-20T09:38:32Z</time>
      </trkpt>
      <trkpt lat="45.94027" lon="4.77917">
        <ele>199</ele>
        <time>2018-08-20T09:38:34Z</time>
      </trkpt>
      <trkpt lat="45.94021" lon="4.77919">
        <ele>198</ele>
        <time>2018-08-20T09:38:35Z</time>
      </trkpt>
      <trkpt lat="45.94013" lon="4.77919">
        <ele>197</ele>
        <time>2018-08-20T09:38:37Z</time>
      </trkpt>
      <trkpt lat="45.94009" lon="4.77921">
        <ele>196</ele>
        <time>2018-08-20T09:38:38Z</time>
      </trkpt>
      <trkpt lat="45.94002" lon="4.77921">
        <ele>195</ele>
        <time>2018-08-20T09:38:39Z</time>
      </trkpt>
      <trkpt lat="45.93996" lon="4.77924">
        <ele>193</ele>
        <time>2018-08-20T09:38:40Z</time>
      </trkpt>
      <trkpt lat="45.93988" lon="4.77928">
        <ele>192</ele>
        <time>2018-08-20T09:38:41Z</time>
      </trkpt>
      <trkpt lat="45.93982" lon="4.77933">
        <ele>191</ele>
        <time>2018-08-20T09:38:42Z</time>
      </trkpt>
      <trkpt lat="45.93975" lon="4.77935">
        <ele>191</ele>
        <time>2018-08-20T09:38:43Z</time>
      </trkpt>
      <trkpt lat="45.93968" lon="4.77943">
        <ele>190</ele>
        <time>2018-08-20T09:38:44Z</time>
      </trkpt>
      <trkpt lat="45.93959" lon="4.77946">
        <ele>190</ele>
        <time>2018-08-20T09:38:45Z</time>
      </trkpt>
      <trkpt lat="45.93955" lon="4.77955">
        <ele>190</ele>
        <time>2018-08-20T09:38:46Z</time>
      </trkpt>
      <trkpt lat="45.93947" lon="4.77961">
        <ele>189</ele>
        <time>2018-08-20T09:38:47Z</time>
      </trkpt>
      <trkpt lat="45.93941" lon="4.77963">
        <ele>189</ele>
        <time>2018-08-20T09:38:48Z</time>
      </trkpt>
      <trkpt lat="45.9393" lon="4.7797">
        <ele>189</ele>
        <time>2018-08-20T09:38:49Z</time>
      </trkpt>
      <trkpt lat="45.93921" lon="4.77973">
        <ele>188</ele>
        <time>2018-08-20T09:38:50Z</time>
      </trkpt>
      <trkpt lat="45.93913" lon="4.77973">
        <ele>182</ele>
        <time>2018-08-20T09:38:51Z</time>
      </trkpt>
      <trkpt lat="45.93904" lon="4.77979">
        <ele>182</ele>
        <time>2018-08-20T09:38:52Z</time>
      </trkpt>
      <trkpt lat="45.93897" lon="4.77985">
        <ele>182</ele>
        <time>2018-08-20T09:38:53Z</time>
      </trkpt>
      <trkpt lat="45.9389" lon="4.77992">
        <ele>181</ele>
        <time>2018-08-20T09:38:54Z</time>
      </trkpt>
      <trkpt lat="45.93885" lon="4.77998">
        <ele>181</ele>
        <time>2018-08-20T09:38:55Z</time>
      </trkpt>
      <trkpt lat="45.93882" lon="4.78005">
        <ele>184</ele>
        <time>2018-08-20T09:38:56Z</time>
      </trkpt>
      <trkpt lat="45.93878" lon="4.78016">
        <ele>184</ele>
        <time>2018-08-20T09:38:58Z</time>
      </trkpt>
      <trkpt lat="45.93873" lon="4.78017">
        <ele>183</ele>
        <time>2018-08-20T09:38:59Z</time>
      </trkpt>
      <trkpt lat="45.93865" lon="4.78001">
        <ele>183</ele>
        <time>2018-08-20T09:39:00Z</time>
      </trkpt>
      <trkpt lat="45.9386" lon="4.77996">
        <ele>179</ele>
        <time>2018-08-20T09:39:01Z</time>
      </trkpt>
      <trkpt lat="45.93855" lon="4.77993">
        <ele>179</ele>
        <time>2018-08-20T09:39:02Z</time>
      </trkpt>
      <trkpt lat="45.93849" lon="4.77989">
        <ele>179</ele>
        <time>2018-08-20T09:39:03Z</time>
      </trkpt>
      <trkpt lat="45.93842" lon="4.77983">
        <ele>178</ele>
        <time>2018-08-20T09:39:04Z</time>
      </trkpt>
      <trkpt lat="45.93836" lon="4.77977">
        <ele>178</ele>
        <time>2018-08-20T09:39:05Z</time>
      </trkpt>
      <trkpt lat="45.93833" lon="4.77971">
        <ele>172</ele>
        <time>2018-08-20T09:39:06Z</time>
      </trkpt>
      <trkpt lat="45.93827" lon="4.77962">
        <ele>171</ele>
        <time>2018-08-20T09:39:08Z</time>
      </trkpt>
      <trkpt lat="45.93823" lon="4.77957">
        <ele>170</ele>
        <time>2018-08-20T09:39:09Z</time>
      </trkpt>
      <trkpt lat="45.93821" lon="4.77952">
        <ele>170</ele>
        <time>2018-08-20T09:39:10Z</time>
      </trkpt>
      <trkpt lat="45.93817" lon="4.77946">
        <ele>169</ele>
        <time>2018-08-20T09:39:11Z</time>
      </trkpt>
      <trkpt lat="45.93813" lon="4.7794">
        <ele>169</ele>
        <time>2018-08-20T09:39:12Z</time>
      </trkpt>
      <trkpt lat="45.93809" lon="4.77934">
        <ele>168</ele>
        <time>2018-08-20T09:39:13Z</time>
      </trkpt>
      <trkpt lat="45.93806" lon="4.77929">
        <ele>168</ele>
        <time>2018-08-20T09:39:14Z</time>
      </trkpt>
      <trkpt lat="45.93802" lon="4.77926">
        <ele>168</ele>
        <time>2018-08-20T09:39:15Z</time>
      </trkpt>
      <trkpt lat="45.93798" lon="4.77921">
        <ele>168</ele>
        <time>2018-08-20T09:39:16Z</time>
      </trkpt>
      <trkpt lat="45.93793" lon="4.77916">
        <ele>166</ele>
        <time>2018-08-20T09:39:17Z</time>
      </trkpt>
      <trkpt lat="45.93791" lon="4.77911">
        <ele>166</ele>
        <time>2018-08-20T09:39:18Z</time>
      </trkpt>
      <trkpt lat="45.93786" lon="4.77905">
        <ele>166</ele>
        <time>2018-08-20T09:39:19Z</time>
      </trkpt>
      <trkpt lat="45.93782" lon="4.77899">
        <ele>166</ele>
        <time>2018-08-20T09:39:20Z</time>
      </trkpt>
      <trkpt lat="45.93778" lon="4.77894">
        <ele>166</ele>
        <time>2018-08-20T09:39:21Z</time>
      </trkpt>
      <trkpt lat="45.93773" lon="4.77888">
        <ele>166</ele>
        <time>2018-08-20T09:39:22Z</time>
      </trkpt>
      <trkpt lat="45.93771" lon="4.77882">
        <ele>166</ele>
        <time>2018-08-20T09:39:23Z</time>
      </trkpt>
      <trkpt lat="45.93766" lon="4.77876">
        <ele>166</ele>
        <time>2018-08-20T09:39:24Z</time>
      </trkpt>
      <trkpt lat="45.93762" lon="4.77871">
        <ele>166</ele>
        <time>2018-08-20T09:39:25Z</time>
      </trkpt>
      <trkpt lat="45.93758" lon="4.77866">
        <ele>166</ele>
        <time>2018-08-20T09:39:26Z</time>
      </trkpt>
      <trkpt lat="45.93753" lon="4.7786">
        <ele>166</ele>
        <time>2018-08-20T09:39:27Z</time>
      </trkpt>
      <trkpt lat="45.93747" lon="4.77852">
        <ele>167</ele>
        <time>2018-08-20T09:39:29Z</time>
      </trkpt>
      <trkpt lat="45.9374" lon="4.77845">
        <ele>167</ele>
        <time>2018-08-20T09:39:30Z</time>
      </trkpt>
      <trkpt lat="45.93736" lon="4.7784">
        <ele>167</ele>
        <time>2018-08-20T09:39:31Z</time>
      </trkpt>
      <trkpt lat="45.93731" lon="4.77835">
        <ele>167</ele>
        <time>2018-08-20T09:39:32Z</time>
      </trkpt>
      <trkpt lat="45.93726" lon="4.7783">
        <ele>168</ele>
        <time>2018-08-20T09:39:33Z</time>
      </trkpt>
      <trkpt lat="45.9372" lon="4.77825">
        <ele>168</ele>
        <time>2018-08-20T09:39:34Z</time>
      </trkpt>
      <trkpt lat="45.93715" lon="4.77818">
        <ele>169</ele>
        <time>2018-08-20T09:39:35Z</time>
      </trkpt>
      <trkpt lat="45.93708" lon="4.7781">
        <ele>169</ele>
        <time>2018-08-20T09:39:36Z</time>
      </trkpt>
      <trkpt lat="45.93703" lon="4.77804">
        <ele>169</ele>
        <time>2018-08-20T09:39:37Z</time>
      </trkpt>
      <trkpt lat="45.93698" lon="4.77797">
        <ele>169</ele>
        <time>2018-08-20T09:39:38Z</time>
      </trkpt>
      <trkpt lat="45.93693" lon="4.7779">
        <ele>169</ele>
        <time>2018-08-20T09:39:39Z</time>
      </trkpt>
      <trkpt lat="45.93687" lon="4.77783">
        <ele>170</ele>
        <time>2018-08-20T09:39:40Z</time>
      </trkpt>
      <trkpt lat="45.93682" lon="4.77775">
        <ele>170</ele>
        <time>2018-08-20T09:39:41Z</time>
      </trkpt>
      <trkpt lat="45.93678" lon="4.77769">
        <ele>170</ele>
        <time>2018-08-20T09:39:42Z</time>
      </trkpt>
      <trkpt lat="45.93673" lon="4.77761">
        <ele>170</ele>
        <time>2018-08-20T09:39:43Z</time>
      </trkpt>
      <trkpt lat="45.93669" lon="4.77752">
        <ele>171</ele>
        <time>2018-08-20T09:39:44Z</time>
      </trkpt>
      <trkpt lat="45.93663" lon="4.77744">
        <ele>171</ele>
        <time>2018-08-20T09:39:45Z</time>
      </trkpt>
      <trkpt lat="45.93659" lon="4.77737">
        <ele>170</ele>
        <time>2018-08-20T09:39:46Z</time>
      </trkpt>
      <trkpt lat="45.93653" lon="4.77727">
        <ele>170</ele>
        <time>2018-08-20T09:39:47Z</time>
      </trkpt>
      <trkpt lat="45.9365" lon="4.77719">
        <ele>170</ele>
        <time>2018-08-20T09:39:48Z</time>
      </trkpt>
      <trkpt lat="45.93645" lon="4.77709">
        <ele>170</ele>
        <time>2018-08-20T09:39:49Z</time>
      </trkpt>
      <trkpt lat="45.93641" lon="4.77699">
        <ele>170</ele>
        <time>2018-08-20T09:39:50Z</time>
      </trkpt>
      <trkpt lat="45.93636" lon="4.7769">
        <ele>169</ele>
        <time>2018-08-20T09:39:51Z</time>
      </trkpt>
      <trkpt lat="45.93628" lon="4.77678">
        <ele>169</ele>
        <time>2018-08-20T09:39:52Z</time>
      </trkpt>
      <trkpt lat="45.93622" lon="4.77667">
        <ele>169</ele>
        <time>2018-08-20T09:39:53Z</time>
      </trkpt>
      <trkpt lat="45.93616" lon="4.77657">
        <ele>169</ele>
        <time>2018-08-20T09:39:54Z</time>
      </trkpt>
      <trkpt lat="45.93613" lon="4.77648">
        <ele>169</ele>
        <time>2018-08-20T09:39:55Z</time>
      </trkpt>
      <trkpt lat="45.93609" lon="4.77639">
        <ele>169</ele>
        <time>2018-08-20T09:39:56Z</time>
      </trkpt>
      <trkpt lat="45.93605" lon="4.77628">
        <ele>169</ele>
        <time>2018-08-20T09:39:57Z</time>
      </trkpt>
      <trkpt lat="45.93604" lon="4.7762">
        <ele>170</ele>
        <time>2018-08-20T09:39:58Z</time>
      </trkpt>
      <trkpt lat="45.93601" lon="4.77611">
        <ele>170</ele>
        <time>2018-08-20T09:39:59Z</time>
      </trkpt>
      <trkpt lat="45.93598" lon="4.77601">
        <ele>170</ele>
        <time>2018-08-20T09:40:00Z</time>
      </trkpt>
      <trkpt lat="45.93596" lon="4.77593">
        <ele>170</ele>
        <time>2018-08-20T09:40:01Z</time>
      </trkpt>
      <trkpt lat="45.93592" lon="4.77585">
        <ele>170</ele>
        <time>2018-08-20T09:40:02Z</time>
      </trkpt>
      <trkpt lat="45.93589" lon="4.77577">
        <ele>170</ele>
        <time>2018-08-20T09:40:03Z</time>
      </trkpt>
      <trkpt lat="45.93586" lon="4.77568">
        <ele>170</ele>
        <time>2018-08-20T09:40:04Z</time>
      </trkpt>
      <trkpt lat="45.93584" lon="4.7756">
        <ele>170</ele>
        <time>2018-08-20T09:40:05Z</time>
      </trkpt>
      <trkpt lat="45.93582" lon="4.77553">
        <ele>169</ele>
        <time>2018-08-20T09:40:06Z</time>
      </trkpt>
      <trkpt lat="45.9358" lon="4.77544">
        <ele>169</ele>
        <time>2018-08-20T09:40:07Z</time>
      </trkpt>
      <trkpt lat="45.93578" lon="4.77535">
        <ele>169</ele>
        <time>2018-08-20T09:40:08Z</time>
      </trkpt>
      <trkpt lat="45.93577" lon="4.77528">
        <ele>169</ele>
        <time>2018-08-20T09:40:09Z</time>
      </trkpt>
      <trkpt lat="45.93575" lon="4.77519">
        <ele>169</ele>
        <time>2018-08-20T09:40:10Z</time>
      </trkpt>
      <trkpt lat="45.93573" lon="4.77513">
        <ele>169</ele>
        <time>2018-08-20T09:40:11Z</time>
      </trkpt>
      <trkpt lat="45.93571" lon="4.77503">
        <ele>169</ele>
        <time>2018-08-20T09:40:12Z</time>
      </trkpt>
      <trkpt lat="45.93567" lon="4.77495">
        <ele>169</ele>
        <time>2018-08-20T09:40:13Z</time>
      </trkpt>
      <trkpt lat="45.93568" lon="4.77487">
        <ele>169</ele>
        <time>2018-08-20T09:40:14Z</time>
      </trkpt>
      <trkpt lat="45.93566" lon="4.77478">
        <ele>169</ele>
        <time>2018-08-20T09:40:15Z</time>
      </trkpt>
      <trkpt lat="45.93562" lon="4.77469">
        <ele>169</ele>
        <time>2018-08-20T09:40:16Z</time>
      </trkpt>
      <trkpt lat="45.9356" lon="4.77461">
        <ele>169</ele>
        <time>2018-08-20T09:40:17Z</time>
      </trkpt>
      <trkpt lat="45.93558" lon="4.77452">
        <ele>169</ele>
        <time>2018-08-20T09:40:18Z</time>
      </trkpt>
      <trkpt lat="45.93557" lon="4.77445">
        <ele>169</ele>
        <time>2018-08-20T09:40:19Z</time>
      </trkpt>
      <trkpt lat="45.93555" lon="4.77436">
        <ele>169</ele>
        <time>2018-08-20T09:40:20Z</time>
      </trkpt>
      <trkpt lat="45.93554" lon="4.77429">
        <ele>170</ele>
        <time>2018-08-20T09:40:21Z</time>
      </trkpt>
      <trkpt lat="45.93553" lon="4.7742">
        <ele>170</ele>
        <time>2018-08-20T09:40:22Z</time>
      </trkpt>
      <trkpt lat="45.9355" lon="4.77413">
        <ele>170</ele>
        <time>2018-08-20T09:40:23Z</time>
      </trkpt>
      <trkpt lat="45.93548" lon="4.77405">
        <ele>170</ele>
        <time>2018-08-20T09:40:24Z</time>
      </trkpt>
      <trkpt lat="45.93546" lon="4.77398">
        <ele>170</ele>
        <time>2018-08-20T09:40:25Z</time>
      </trkpt>
      <trkpt lat="45.93544" lon="4.77391">
        <ele>170</ele>
        <time>2018-08-20T09:40:26Z</time>
      </trkpt>
      <trkpt lat="45.93542" lon="4.77384">
        <ele>170</ele>
        <time>2018-08-20T09:40:27Z</time>
      </trkpt>
      <trkpt lat="45.93541" lon="4.77376">
        <ele>170</ele>
        <time>2018-08-20T09:40:28Z</time>
      </trkpt>
      <trkpt lat="45.93541" lon="4.77369">
        <ele>170</ele>
        <time>2018-08-20T09:40:29Z</time>
      </trkpt>
      <trkpt lat="45.93539" lon="4.77361">
        <ele>170</ele>
        <time>2018-08-20T09:40:30Z</time>
      </trkpt>
      <trkpt lat="45.93538" lon="4.77354">
        <ele>170</ele>
        <time>2018-08-20T09:40:31Z</time>
      </trkpt>
      <trkpt lat="45.93536" lon="4.77346">
        <ele>170</ele>
        <time>2018-08-20T09:40:32Z</time>
      </trkpt>
      <trkpt lat="45.93533" lon="4.77337">
        <ele>170</ele>
        <time>2018-08-20T09:40:33Z</time>
      </trkpt>
      <trkpt lat="45.93532" lon="4.77329">
        <ele>170</ele>
        <time>2018-08-20T09:40:34Z</time>
      </trkpt>
      <trkpt lat="45.93529" lon="4.7732">
        <ele>170</ele>
        <time>2018-08-20T09:40:35Z</time>
      </trkpt>
      <trkpt lat="45.93528" lon="4.7731">
        <ele>170</ele>
        <time>2018-08-20T09:40:36Z</time>
      </trkpt>
      <trkpt lat="45.93525" lon="4.773">
        <ele>170</ele>
        <time>2018-08-20T09:40:37Z</time>
      </trkpt>
      <trkpt lat="45.93522" lon="4.7729">
        <ele>170</ele>
        <time>2018-08-20T09:40:38Z</time>
      </trkpt>
      <trkpt lat="45.9352" lon="4.77282">
        <ele>170</ele>
        <time>2018-08-20T09:40:39Z</time>
      </trkpt>
      <trkpt lat="45.93521" lon="4.77276">
        <ele>170</ele>
        <time>2018-08-20T09:40:40Z</time>
      </trkpt>
      <trkpt lat="45.93517" lon="4.77268">
        <ele>170</ele>
        <time>2018-08-20T09:40:41Z</time>
      </trkpt>
      <trkpt lat="45.93515" lon="4.77259">
        <ele>170</ele>
        <time>2018-08-20T09:40:42Z</time>
      </trkpt>
      <trkpt lat="45.93513" lon="4.77252">
        <ele>170</ele>
        <time>2018-08-20T09:40:43Z</time>
      </trkpt>
      <trkpt lat="45.93511" lon="4.77245">
        <ele>169</ele>
        <time>2018-08-20T09:40:44Z</time>
      </trkpt>
      <trkpt lat="45.9351" lon="4.77233">
        <ele>169</ele>
        <time>2018-08-20T09:40:46Z</time>
      </trkpt>
      <trkpt lat="45.9351" lon="4.77226">
        <ele>169</ele>
        <time>2018-08-20T09:40:47Z</time>
      </trkpt>
      <trkpt lat="45.93508" lon="4.77217">
        <ele>169</ele>
        <time>2018-08-20T09:40:48Z</time>
      </trkpt>
      <trkpt lat="45.93504" lon="4.77209">
        <ele>169</ele>
        <time>2018-08-20T09:40:49Z</time>
      </trkpt>
      <trkpt lat="45.93502" lon="4.77199">
        <ele>169</ele>
        <time>2018-08-20T09:40:50Z</time>
      </trkpt>
      <trkpt lat="45.93502" lon="4.77192">
        <ele>169</ele>
        <time>2018-08-20T09:40:51Z</time>
      </trkpt>
      <trkpt lat="45.93501" lon="4.77184">
        <ele>169</ele>
        <time>2018-08-20T09:40:52Z</time>
      </trkpt>
      <trkpt lat="45.93499" lon="4.77176">
        <ele>169</ele>
        <time>2018-08-20T09:40:53Z</time>
      </trkpt>
      <trkpt lat="45.93496" lon="4.77167">
        <ele>169</ele>
        <time>2018-08-20T09:40:54Z</time>
      </trkpt>
      <trkpt lat="45.93493" lon="4.77158">
        <ele>169</ele>
        <time>2018-08-20T09:40:55Z</time>
      </trkpt>
      <trkpt lat="45.93491" lon="4.7715">
        <ele>169</ele>
        <time>2018-08-20T09:40:56Z</time>
      </trkpt>
      <trkpt lat="45.93488" lon="4.77142">
        <ele>169</ele>
        <time>2018-08-20T09:40:57Z</time>
      </trkpt>
      <trkpt lat="45.93487" lon="4.77133">
        <ele>169</ele>
        <time>2018-08-20T09:40:58Z</time>
      </trkpt>
      <trkpt lat="45.93486" lon="4.77125">
        <ele>169</ele>
        <time>2018-08-20T09:40:59Z</time>
      </trkpt>
      <trkpt lat="45.93483" lon="4.77115">
        <ele>169</ele>
        <time>2018-08-20T09:41:00Z</time>
      </trkpt>
      <trkpt lat="45.93481" lon="4.77107">
        <ele>169</ele>
        <time>2018-08-20T09:41:01Z</time>
      </trkpt>
      <trkpt lat="45.9348" lon="4.77098">
        <ele>169</ele>
        <time>2018-08-20T09:41:02Z</time>
      </trkpt>
      <trkpt lat="45.93479" lon="4.77089">
        <ele>169</ele>
        <time>2018-08-20T09:41:03Z</time>
      </trkpt>
      <trkpt lat="45.93477" lon="4.77081">
        <ele>170</ele>
        <time>2018-08-20T09:41:04Z</time>
      </trkpt>
      <trkpt lat="45.93476" lon="4.77074">
        <ele>170</ele>
        <time>2018-08-20T09:41:05Z</time>
      </trkpt>
      <trkpt lat="45.93474" lon="4.77066">
        <ele>170</ele>
        <time>2018-08-20T09:41:06Z</time>
      </trkpt>
      <trkpt lat="45.93474" lon="4.77059">
        <ele>170</ele>
        <time>2018-08-20T09:41:07Z</time>
      </trkpt>
      <trkpt lat="45.93472" lon="4.77052">
        <ele>170</ele>
        <time>2018-08-20T09:41:08Z</time>
      </trkpt>
      <trkpt lat="45.93471" lon="4.77044">
        <ele>170</ele>
        <time>2018-08-20T09:41:09Z</time>
      </trkpt>
      <trkpt lat="45.93471" lon="4.77036">
        <ele>170</ele>
        <time>2018-08-20T09:41:10Z</time>
      </trkpt>
      <trkpt lat="45.9347" lon="4.77028">
        <ele>170</ele>
        <time>2018-08-20T09:41:11Z</time>
      </trkpt>
      <trkpt lat="45.93469" lon="4.7702">
        <ele>170</ele>
        <time>2018-08-20T09:41:12Z</time>
      </trkpt>
      <trkpt lat="45.93467" lon="4.77009">
        <ele>170</ele>
        <time>2018-08-20T09:41:13Z</time>
      </trkpt>
      <trkpt lat="45.93464" lon="4.77">
        <ele>170</ele>
        <time>2018-08-20T09:41:14Z</time>
      </trkpt>
      <trkpt lat="45.93463" lon="4.76993">
        <ele>170</ele>
        <time>2018-08-20T09:41:15Z</time>
      </trkpt>
      <trkpt lat="45.93462" lon="4.76985">
        <ele>170</ele>
        <time>2018-08-20T09:41:16Z</time>
      </trkpt>
      <trkpt lat="45.93462" lon="4.76979">
        <ele>170</ele>
        <time>2018-08-20T09:41:17Z</time>
      </trkpt>
      <trkpt lat="45.93462" lon="4.76971">
        <ele>170</ele>
        <time>2018-08-20T09:41:18Z</time>
      </trkpt>
      <trkpt lat="45.93461" lon="4.76964">
        <ele>170</ele>
        <time>2018-08-20T09:41:19Z</time>
      </trkpt>
      <trkpt lat="45.93459" lon="4.76956">
        <ele>170</ele>
        <time>2018-08-20T09:41:20Z</time>
      </trkpt>
      <trkpt lat="45.93458" lon="4.76949">
        <ele>170</ele>
        <time>2018-08-20T09:41:21Z</time>
      </trkpt>
      <trkpt lat="45.93455" lon="4.76942">
        <ele>170</ele>
        <time>2018-08-20T09:41:22Z</time>
      </trkpt>
      <trkpt lat="45.93453" lon="4.76933">
        <ele>170</ele>
        <time>2018-08-20T09:41:23Z</time>
      </trkpt>
      <trkpt lat="45.93452" lon="4.76925">
        <ele>170</ele>
        <time>2018-08-20T09:41:24Z</time>
      </trkpt>
      <trkpt lat="45.93453" lon="4.76918">
        <ele>170</ele>
        <time>2018-08-20T09:41:25Z</time>
      </trkpt>
      <trkpt lat="45.93453" lon="4.76911">
        <ele>170</ele>
        <time>2018-08-20T09:41:26Z</time>
      </trkpt>
      <trkpt lat="45.9345" lon="4.76903">
        <ele>170</ele>
        <time>2018-08-20T09:41:27Z</time>
      </trkpt>
      <trkpt lat="45.93448" lon="4.76895">
        <ele>170</ele>
        <time>2018-08-20T09:41:28Z</time>
      </trkpt>
      <trkpt lat="45.93448" lon="4.76887">
        <ele>170</ele>
        <time>2018-08-20T09:41:29Z</time>
      </trkpt>
      <trkpt lat="45.93445" lon="4.76878">
        <ele>170</ele>
        <time>2018-08-20T09:41:30Z</time>
      </trkpt>
      <trkpt lat="45.93443" lon="4.76871">
        <ele>170</ele>
        <time>2018-08-20T09:41:31Z</time>
      </trkpt>
      <trkpt lat="45.9344" lon="4.76863">
        <ele>171</ele>
        <time>2018-08-20T09:41:32Z</time>
      </trkpt>
      <trkpt lat="45.9344" lon="4.76856">
        <ele>171</ele>
        <time>2018-08-20T09:41:33Z</time>
      </trkpt>
      <trkpt lat="45.93432" lon="4.76847">
        <ele>171</ele>
        <time>2018-08-20T09:41:34Z</time>
      </trkpt>
      <trkpt lat="45.93432" lon="4.76841">
        <ele>171</ele>
        <time>2018-08-20T09:41:36Z</time>
      </trkpt>
      <trkpt lat="45.93428" lon="4.76832">
        <ele>171</ele>
        <time>2018-08-20T09:41:37Z</time>
      </trkpt>
      <trkpt lat="45.93423" lon="4.76825">
        <ele>171</ele>
        <time>2018-08-20T09:41:38Z</time>
      </trkpt>
      <trkpt lat="45.93421" lon="4.76819">
        <ele>171</ele>
        <time>2018-08-20T09:41:39Z</time>
      </trkpt>
      <trkpt lat="45.93418" lon="4.76814">
        <ele>171</ele>
        <time>2018-08-20T09:41:40Z</time>
      </trkpt>
      <trkpt lat="45.93412" lon="4.76808">
        <ele>172</ele>
        <time>2018-08-20T09:41:41Z</time>
      </trkpt>
      <trkpt lat="45.93405" lon="4.76802">
        <ele>172</ele>
        <time>2018-08-20T09:41:42Z</time>
      </trkpt>
      <trkpt lat="45.934" lon="4.76796">
        <ele>172</ele>
        <time>2018-08-20T09:41:43Z</time>
      </trkpt>
      <trkpt lat="45.93395" lon="4.76791">
        <ele>172</ele>
        <time>2018-08-20T09:41:44Z</time>
      </trkpt>
      <trkpt lat="45.93392" lon="4.76787">
        <ele>172</ele>
        <time>2018-08-20T09:41:45Z</time>
      </trkpt>
      <trkpt lat="45.93387" lon="4.76782">
        <ele>172</ele>
        <time>2018-08-20T09:41:46Z</time>
      </trkpt>
      <trkpt lat="45.93382" lon="4.76777">
        <ele>172</ele>
        <time>2018-08-20T09:41:47Z</time>
      </trkpt>
      <trkpt lat="45.93376" lon="4.76771">
        <ele>172</ele>
        <time>2018-08-20T09:41:48Z</time>
      </trkpt>
      <trkpt lat="45.93372" lon="4.76765">
        <ele>172</ele>
        <time>2018-08-20T09:41:49Z</time>
      </trkpt>
      <trkpt lat="45.93366" lon="4.76761">
        <ele>172</ele>
        <time>2018-08-20T09:41:50Z</time>
      </trkpt>
      <trkpt lat="45.93359" lon="4.76755">
        <ele>172</ele>
        <time>2018-08-20T09:41:51Z</time>
      </trkpt>
      <trkpt lat="45.93348" lon="4.76748">
        <ele>172</ele>
        <time>2018-08-20T09:41:52Z</time>
      </trkpt>
      <trkpt lat="45.93342" lon="4.76742">
        <ele>172</ele>
        <time>2018-08-20T09:41:54Z</time>
      </trkpt>
      <trkpt lat="45.93337" lon="4.76738">
        <ele>172</ele>
        <time>2018-08-20T09:41:55Z</time>
      </trkpt>
      <trkpt lat="45.9333" lon="4.76732">
        <ele>172</ele>
        <time>2018-08-20T09:41:56Z</time>
      </trkpt>
      <trkpt lat="45.93327" lon="4.76727">
        <ele>172</ele>
        <time>2018-08-20T09:41:57Z</time>
      </trkpt>
      <trkpt lat="45.93324" lon="4.76724">
        <ele>172</ele>
        <time>2018-08-20T09:41:58Z</time>
      </trkpt>
      <trkpt lat="45.93319" lon="4.76719">
        <ele>172</ele>
        <time>2018-08-20T09:41:59Z</time>
      </trkpt>
      <trkpt lat="45.93313" lon="4.76715">
        <ele>172</ele>
        <time>2018-08-20T09:42:00Z</time>
      </trkpt>
      <trkpt lat="45.93305" lon="4.7671">
        <ele>172</ele>
        <time>2018-08-20T09:42:01Z</time>
      </trkpt>
      <trkpt lat="45.93299" lon="4.76704">
        <ele>172</ele>
        <time>2018-08-20T09:42:02Z</time>
      </trkpt>
      <trkpt lat="45.93294" lon="4.767">
        <ele>172</ele>
        <time>2018-08-20T09:42:03Z</time>
      </trkpt>
      <trkpt lat="45.93289" lon="4.76695">
        <ele>172</ele>
        <time>2018-08-20T09:42:04Z</time>
      </trkpt>
      <trkpt lat="45.93284" lon="4.76691">
        <ele>172</ele>
        <time>2018-08-20T09:42:05Z</time>
      </trkpt>
      <trkpt lat="45.9328" lon="4.76685">
        <ele>172</ele>
        <time>2018-08-20T09:42:06Z</time>
      </trkpt>
      <trkpt lat="45.93276" lon="4.76681">
        <ele>172</ele>
        <time>2018-08-20T09:42:07Z</time>
      </trkpt>
      <trkpt lat="45.93268" lon="4.76675">
        <ele>172</ele>
        <time>2018-08-20T09:42:08Z</time>
      </trkpt>
      <trkpt lat="45.93263" lon="4.7667">
        <ele>172</ele>
        <time>2018-08-20T09:42:09Z</time>
      </trkpt>
      <trkpt lat="45.93255" lon="4.76664">
        <ele>171</ele>
        <time>2018-08-20T09:42:10Z</time>
      </trkpt>
      <trkpt lat="45.93248" lon="4.76657">
        <ele>171</ele>
        <time>2018-08-20T09:42:12Z</time>
      </trkpt>
      <trkpt lat="45.93244" lon="4.76652">
        <ele>171</ele>
        <time>2018-08-20T09:42:13Z</time>
      </trkpt>
      <trkpt lat="45.9324" lon="4.76642">
        <ele>171</ele>
        <time>2018-08-20T09:42:15Z</time>
      </trkpt>
      <trkpt lat="45.93235" lon="4.76637">
        <ele>171</ele>
        <time>2018-08-20T09:42:16Z</time>
      </trkpt>
      <trkpt lat="45.93231" lon="4.76628">
        <ele>170</ele>
        <time>2018-08-20T09:42:18Z</time>
      </trkpt>
      <trkpt lat="45.93228" lon="4.76626">
        <ele>170</ele>
        <time>2018-08-20T09:42:19Z</time>
      </trkpt>
      <trkpt lat="45.93224" lon="4.76621">
        <ele>170</ele>
        <time>2018-08-20T09:42:20Z</time>
      </trkpt>
      <trkpt lat="45.9322" lon="4.76615">
        <ele>170</ele>
        <time>2018-08-20T09:42:21Z</time>
      </trkpt>
      <trkpt lat="45.93217" lon="4.76609">
        <ele>170</ele>
        <time>2018-08-20T09:42:22Z</time>
      </trkpt>
      <trkpt lat="45.9321" lon="4.76604">
        <ele>170</ele>
        <time>2018-08-20T09:42:23Z</time>
      </trkpt>
      <trkpt lat="45.93205" lon="4.76599">
        <ele>170</ele>
        <time>2018-08-20T09:42:24Z</time>
      </trkpt>
      <trkpt lat="45.93199" lon="4.76594">
        <ele>170</ele>
        <time>2018-08-20T09:42:25Z</time>
      </trkpt>
      <trkpt lat="45.93195" lon="4.76588">
        <ele>170</ele>
        <time>2018-08-20T09:42:26Z</time>
      </trkpt>
      <trkpt lat="45.93186" lon="4.76582">
        <ele>170</ele>
        <time>2018-08-20T09:42:27Z</time>
      </trkpt>
      <trkpt lat="45.93181" lon="4.76577">
        <ele>170</ele>
        <time>2018-08-20T09:42:28Z</time>
      </trkpt>
      <trkpt lat="45.93178" lon="4.76572">
        <ele>170</ele>
        <time>2018-08-20T09:42:29Z</time>
      </trkpt>
      <trkpt lat="45.93172" lon="4.76567">
        <ele>170</ele>
        <time>2018-08-20T09:42:30Z</time>
      </trkpt>
      <trkpt lat="45.93168" lon="4.76562">
        <ele>170</ele>
        <time>2018-08-20T09:42:31Z</time>
      </trkpt>
      <trkpt lat="45.93164" lon="4.76557">
        <ele>170</ele>
        <time>2018-08-20T09:42:32Z</time>
      </trkpt>
      <trkpt lat="45.93159" lon="4.76552">
        <ele>170</ele>
        <time>2018-08-20T09:42:33Z</time>
      </trkpt>
      <trkpt lat="45.93153" lon="4.76549">
        <ele>170</ele>
        <time>2018-08-20T09:42:34Z</time>
      </trkpt>
      <trkpt lat="45.93147" lon="4.76543">
        <ele>170</ele>
        <time>2018-08-20T09:42:35Z</time>
      </trkpt>
      <trkpt lat="45.93142" lon="4.76539">
        <ele>170</ele>
        <time>2018-08-20T09:42:36Z</time>
      </trkpt>
      <trkpt lat="45.93137" lon="4.76531">
        <ele>170</ele>
        <time>2018-08-20T09:42:37Z</time>
      </trkpt>
      <trkpt lat="45.93131" lon="4.76523">
        <ele>170</ele>
        <time>2018-08-20T09:42:39Z</time>
      </trkpt>
      <trkpt lat="45.93124" lon="4.76518">
        <ele>170</ele>
        <time>2018-08-20T09:42:40Z</time>
      </trkpt>
      <trkpt lat="45.93118" lon="4.76507">
        <ele>170</ele>
        <time>2018-08-20T09:42:41Z</time>
      </trkpt>
      <trkpt lat="45.93111" lon="4.76505">
        <ele>170</ele>
        <time>2018-08-20T09:42:42Z</time>
      </trkpt>
      <trkpt lat="45.93102" lon="4.76497">
        <ele>169</ele>
        <time>2018-08-20T09:42:43Z</time>
      </trkpt>
      <trkpt lat="45.93097" lon="4.76491">
        <ele>170</ele>
        <time>2018-08-20T09:42:44Z</time>
      </trkpt>
      <trkpt lat="45.93094" lon="4.76487">
        <ele>170</ele>
        <time>2018-08-20T09:42:45Z</time>
      </trkpt>
      <trkpt lat="45.93088" lon="4.76482">
        <ele>169</ele>
        <time>2018-08-20T09:42:46Z</time>
      </trkpt>
      <trkpt lat="45.93081" lon="4.76475">
        <ele>169</ele>
        <time>2018-08-20T09:42:47Z</time>
      </trkpt>
      <trkpt lat="45.93077" lon="4.76469">
        <ele>169</ele>
        <time>2018-08-20T09:42:48Z</time>
      </trkpt>
      <trkpt lat="45.93073" lon="4.76464">
        <ele>169</ele>
        <time>2018-08-20T09:42:49Z</time>
      </trkpt>
      <trkpt lat="45.93067" lon="4.76459">
        <ele>169</ele>
        <time>2018-08-20T09:42:50Z</time>
      </trkpt>
      <trkpt lat="45.93062" lon="4.76455">
        <ele>169</ele>
        <time>2018-08-20T09:42:51Z</time>
      </trkpt>
      <trkpt lat="45.93056" lon="4.76445">
        <ele>169</ele>
        <time>2018-08-20T09:42:53Z</time>
      </trkpt>
      <trkpt lat="45.93048" lon="4.76441">
        <ele>169</ele>
        <time>2018-08-20T09:42:54Z</time>
      </trkpt>
      <trkpt lat="45.93038" lon="4.76437">
        <ele>169</ele>
        <time>2018-08-20T09:42:55Z</time>
      </trkpt>
      <trkpt lat="45.93035" lon="4.76432">
        <ele>169</ele>
        <time>2018-08-20T09:42:56Z</time>
      </trkpt>
      <trkpt lat="45.93026" lon="4.76427">
        <ele>169</ele>
        <time>2018-08-20T09:42:57Z</time>
      </trkpt>
      <trkpt lat="45.9302" lon="4.76423">
        <ele>169</ele>
        <time>2018-08-20T09:42:58Z</time>
      </trkpt>
      <trkpt lat="45.93013" lon="4.76417">
        <ele>169</ele>
        <time>2018-08-20T09:42:59Z</time>
      </trkpt>
      <trkpt lat="45.9301" lon="4.76411">
        <ele>169</ele>
        <time>2018-08-20T09:43:00Z</time>
      </trkpt>
      <trkpt lat="45.93005" lon="4.76405">
        <ele>169</ele>
        <time>2018-08-20T09:43:01Z</time>
      </trkpt>
      <trkpt lat="45.93002" lon="4.76402">
        <ele>169</ele>
        <time>2018-08-20T09:43:02Z</time>
      </trkpt>
      <trkpt lat="45.92995" lon="4.76398">
        <ele>169</ele>
        <time>2018-08-20T09:43:03Z</time>
      </trkpt>
      <trkpt lat="45.92989" lon="4.76395">
        <ele>169</ele>
        <time>2018-08-20T09:43:04Z</time>
      </trkpt>
      <trkpt lat="45.92984" lon="4.76389">
        <ele>169</ele>
        <time>2018-08-20T09:43:05Z</time>
      </trkpt>
      <trkpt lat="45.92979" lon="4.76384">
        <ele>169</ele>
        <time>2018-08-20T09:43:06Z</time>
      </trkpt>
      <trkpt lat="45.92974" lon="4.76378">
        <ele>169</ele>
        <time>2018-08-20T09:43:07Z</time>
      </trkpt>
      <trkpt lat="45.92969" lon="4.76373">
        <ele>169</ele>
        <time>2018-08-20T09:43:08Z</time>
      </trkpt>
      <trkpt lat="45.92965" lon="4.76367">
        <ele>169</ele>
        <time>2018-08-20T09:43:09Z</time>
      </trkpt>
      <trkpt lat="45.92961" lon="4.76361">
        <ele>169</ele>
        <time>2018-08-20T09:43:10Z</time>
      </trkpt>
      <trkpt lat="45.92957" lon="4.76356">
        <ele>169</ele>
        <time>2018-08-20T09:43:11Z</time>
      </trkpt>
      <trkpt lat="45.92951" lon="4.7635">
        <ele>169</ele>
        <time>2018-08-20T09:43:12Z</time>
      </trkpt>
      <trkpt lat="45.92947" lon="4.76345">
        <ele>169</ele>
        <time>2018-08-20T09:43:13Z</time>
      </trkpt>
      <trkpt lat="45.9294" lon="4.7634">
        <ele>169</ele>
        <time>2018-08-20T09:43:14Z</time>
      </trkpt>
      <trkpt lat="45.92936" lon="4.76335">
        <ele>169</ele>
        <time>2018-08-20T09:43:15Z</time>
      </trkpt>
      <trkpt lat="45.92931" lon="4.76329">
        <ele>169</ele>
        <time>2018-08-20T09:43:16Z</time>
      </trkpt>
      <trkpt lat="45.92924" lon="4.76323">
        <ele>169</ele>
        <time>2018-08-20T09:43:17Z</time>
      </trkpt>
      <trkpt lat="45.92918" lon="4.76317">
        <ele>169</ele>
        <time>2018-08-20T09:43:18Z</time>
      </trkpt>
      <trkpt lat="45.92913" lon="4.76313">
        <ele>169</ele>
        <time>2018-08-20T09:43:19Z</time>
      </trkpt>
      <trkpt lat="45.92907" lon="4.76308">
        <ele>169</ele>
        <time>2018-08-20T09:43:20Z</time>
      </trkpt>
      <trkpt lat="45.92902" lon="4.763">
        <ele>169</ele>
        <time>2018-08-20T09:43:21Z</time>
      </trkpt>
      <trkpt lat="45.92898" lon="4.76296">
        <ele>169</ele>
        <time>2018-08-20T09:43:22Z</time>
      </trkpt>
      <trkpt lat="45.92894" lon="4.76294">
        <ele>169</ele>
        <time>2018-08-20T09:43:23Z</time>
      </trkpt>
      <trkpt lat="45.92888" lon="4.76289">
        <ele>169</ele>
        <time>2018-08-20T09:43:24Z</time>
      </trkpt>
      <trkpt lat="45.92883" lon="4.76283">
        <ele>169</ele>
        <time>2018-08-20T09:43:25Z</time>
      </trkpt>
      <trkpt lat="45.92879" lon="4.76281">
        <ele>169</ele>
        <time>2018-08-20T09:43:26Z</time>
      </trkpt>
      <trkpt lat="45.92874" lon="4.76276">
        <ele>169</ele>
        <time>2018-08-20T09:43:27Z</time>
      </trkpt>
      <trkpt lat="45.92869" lon="4.7627">
        <ele>169</ele>
        <time>2018-08-20T09:43:28Z</time>
      </trkpt>
      <trkpt lat="45.92864" lon="4.76265">
        <ele>169</ele>
        <time>2018-08-20T09:43:29Z</time>
      </trkpt>
      <trkpt lat="45.92859" lon="4.76261">
        <ele>169</ele>
        <time>2018-08-20T09:43:30Z</time>
      </trkpt>
      <trkpt lat="45.92854" lon="4.76257">
        <ele>169</ele>
        <time>2018-08-20T09:43:31Z</time>
      </trkpt>
      <trkpt lat="45.92849" lon="4.76251">
        <ele>169</ele>
        <time>2018-08-20T09:43:32Z</time>
      </trkpt>
      <trkpt lat="45.92846" lon="4.76247">
        <ele>169</ele>
        <time>2018-08-20T09:43:33Z</time>
      </trkpt>
      <trkpt lat="45.92842" lon="4.76243">
        <ele>169</ele>
        <time>2018-08-20T09:43:34Z</time>
      </trkpt>
      <trkpt lat="45.92837" lon="4.76237">
        <ele>169</ele>
        <time>2018-08-20T09:43:35Z</time>
      </trkpt>
      <trkpt lat="45.92833" lon="4.76234">
        <ele>168</ele>
        <time>2018-08-20T09:43:36Z</time>
      </trkpt>
      <trkpt lat="45.92829" lon="4.76229">
        <ele>168</ele>
        <time>2018-08-20T09:43:37Z</time>
      </trkpt>
      <trkpt lat="45.92824" lon="4.76225">
        <ele>168</ele>
        <time>2018-08-20T09:43:38Z</time>
      </trkpt>
      <trkpt lat="45.92816" lon="4.76219">
        <ele>168</ele>
        <time>2018-08-20T09:43:39Z</time>
      </trkpt>
      <trkpt lat="45.92812" lon="4.76214">
        <ele>168</ele>
        <time>2018-08-20T09:43:40Z</time>
      </trkpt>
      <trkpt lat="45.92806" lon="4.76209">
        <ele>168</ele>
        <time>2018-08-20T09:43:41Z</time>
      </trkpt>
      <trkpt lat="45.92802" lon="4.76205">
        <ele>168</ele>
        <time>2018-08-20T09:43:42Z</time>
      </trkpt>
      <trkpt lat="45.92797" lon="4.762">
        <ele>168</ele>
        <time>2018-08-20T09:43:43Z</time>
      </trkpt>
      <trkpt lat="45.92792" lon="4.76194">
        <ele>168</ele>
        <time>2018-08-20T09:43:44Z</time>
      </trkpt>
      <trkpt lat="45.92787" lon="4.76189">
        <ele>168</ele>
        <time>2018-08-20T09:43:45Z</time>
      </trkpt>
      <trkpt lat="45.9278" lon="4.76181">
        <ele>167</ele>
        <time>2018-08-20T09:43:47Z</time>
      </trkpt>
      <trkpt lat="45.92774" lon="4.76179">
        <ele>167</ele>
        <time>2018-08-20T09:43:48Z</time>
      </trkpt>
      <trkpt lat="45.9277" lon="4.76174">
        <ele>167</ele>
        <time>2018-08-20T09:43:49Z</time>
      </trkpt>
      <trkpt lat="45.92765" lon="4.7617">
        <ele>167</ele>
        <time>2018-08-20T09:43:50Z</time>
      </trkpt>
      <trkpt lat="45.9276" lon="4.76166">
        <ele>167</ele>
        <time>2018-08-20T09:43:51Z</time>
      </trkpt>
      <trkpt lat="45.92757" lon="4.76161">
        <ele>167</ele>
        <time>2018-08-20T09:43:52Z</time>
      </trkpt>
      <trkpt lat="45.92751" lon="4.76157">
        <ele>167</ele>
        <time>2018-08-20T09:43:53Z</time>
      </trkpt>
      <trkpt lat="45.92747" lon="4.76155">
        <ele>168</ele>
        <time>2018-08-20T09:43:54Z</time>
      </trkpt>
      <trkpt lat="45.92742" lon="4.76151">
        <ele>168</ele>
        <time>2018-08-20T09:43:55Z</time>
      </trkpt>
      <trkpt lat="45.92737" lon="4.76147">
        <ele>168</ele>
        <time>2018-08-20T09:43:56Z</time>
      </trkpt>
      <trkpt lat="45.92731" lon="4.76145">
        <ele>168</ele>
        <time>2018-08-20T09:43:58Z</time>
      </trkpt>
      <trkpt lat="45.92727" lon="4.76142">
        <ele>168</ele>
        <time>2018-08-20T09:43:59Z</time>
      </trkpt>
      <trkpt lat="45.92722" lon="4.76138">
        <ele>168</ele>
        <time>2018-08-20T09:44:00Z</time>
      </trkpt>
      <trkpt lat="45.92718" lon="4.76136">
        <ele>168</ele>
        <time>2018-08-20T09:44:01Z</time>
      </trkpt>
      <trkpt lat="45.92712" lon="4.76128">
        <ele>168</ele>
        <time>2018-08-20T09:44:03Z</time>
      </trkpt>
      <trkpt lat="45.92708" lon="4.76126">
        <ele>169</ele>
        <time>2018-08-20T09:44:04Z</time>
      </trkpt>
      <trkpt lat="45.92704" lon="4.76123">
        <ele>169</ele>
        <time>2018-08-20T09:44:05Z</time>
      </trkpt>
      <trkpt lat="45.92699" lon="4.7612">
        <ele>169</ele>
        <time>2018-08-20T09:44:06Z</time>
      </trkpt>
      <trkpt lat="45.92693" lon="4.76116">
        <ele>169</ele>
        <time>2018-08-20T09:44:08Z</time>
      </trkpt>
      <trkpt lat="45.92689" lon="4.76113">
        <ele>169</ele>
        <time>2018-08-20T09:44:09Z</time>
      </trkpt>
      <trkpt lat="45.92685" lon="4.76107">
        <ele>169</ele>
        <time>2018-08-20T09:44:11Z</time>
      </trkpt>
      <trkpt lat="45.92682" lon="4.76105">
        <ele>169</ele>
        <time>2018-08-20T09:44:12Z</time>
      </trkpt>
      <trkpt lat="45.92678" lon="4.76101">
        <ele>169</ele>
        <time>2018-08-20T09:44:13Z</time>
      </trkpt>
      <trkpt lat="45.92673" lon="4.76098">
        <ele>169</ele>
        <time>2018-08-20T09:44:14Z</time>
      </trkpt>
      <trkpt lat="45.92667" lon="4.76094">
        <ele>170</ele>
        <time>2018-08-20T09:44:16Z</time>
      </trkpt>
      <trkpt lat="45.92663" lon="4.76091">
        <ele>170</ele>
        <time>2018-08-20T09:44:17Z</time>
      </trkpt>
      <trkpt lat="45.92659" lon="4.76087">
        <ele>170</ele>
        <time>2018-08-20T09:44:18Z</time>
      </trkpt>
      <trkpt lat="45.92655" lon="4.76084">
        <ele>170</ele>
        <time>2018-08-20T09:44:19Z</time>
      </trkpt>
      <trkpt lat="45.92649" lon="4.76079">
        <ele>170</ele>
        <time>2018-08-20T09:44:21Z</time>
      </trkpt>
      <trkpt lat="45.92645" lon="4.76076">
        <ele>170</ele>
        <time>2018-08-20T09:44:22Z</time>
      </trkpt>
      <trkpt lat="45.92641" lon="4.76073">
        <ele>170</ele>
        <time>2018-08-20T09:44:23Z</time>
      </trkpt>
      <trkpt lat="45.92636" lon="4.76069">
        <ele>170</ele>
        <time>2018-08-20T09:44:24Z</time>
      </trkpt>
      <trkpt lat="45.92632" lon="4.76066">
        <ele>170</ele>
        <time>2018-08-20T09:44:25Z</time>
      </trkpt>
      <trkpt lat="45.92626" lon="4.76061">
        <ele>170</ele>
        <time>2018-08-20T09:44:26Z</time>
      </trkpt>
      <trkpt lat="45.92622" lon="4.76058">
        <ele>171</ele>
        <time>2018-08-20T09:44:27Z</time>
      </trkpt>
      <trkpt lat="45.92616" lon="4.76055">
        <ele>171</ele>
        <time>2018-08-20T09:44:28Z</time>
      </trkpt>
      <trkpt lat="45.92609" lon="4.76049">
        <ele>171</ele>
        <time>2018-08-20T09:44:30Z</time>
      </trkpt>
      <trkpt lat="45.92603" lon="4.76046">
        <ele>171</ele>
        <time>2018-08-20T09:44:31Z</time>
      </trkpt>
      <trkpt lat="45.92598" lon="4.76041">
        <ele>171</ele>
        <time>2018-08-20T09:44:34Z</time>
      </trkpt>
      <trkpt lat="45.92593" lon="4.76038">
        <ele>171</ele>
        <time>2018-08-20T09:44:35Z</time>
      </trkpt>
      <trkpt lat="45.92587" lon="4.76033">
        <ele>171</ele>
        <time>2018-08-20T09:44:37Z</time>
      </trkpt>
      <trkpt lat="45.92583" lon="4.76032">
        <ele>172</ele>
        <time>2018-08-20T09:44:38Z</time>
      </trkpt>
      <trkpt lat="45.92579" lon="4.7603">
        <ele>172</ele>
        <time>2018-08-20T09:44:39Z</time>
      </trkpt>
      <trkpt lat="45.92574" lon="4.76027">
        <ele>172</ele>
        <time>2018-08-20T09:44:40Z</time>
      </trkpt>
      <trkpt lat="45.92568" lon="4.76025">
        <ele>172</ele>
        <time>2018-08-20T09:44:41Z</time>
      </trkpt>
      <trkpt lat="45.92564" lon="4.76023">
        <ele>172</ele>
        <time>2018-08-20T09:44:42Z</time>
      </trkpt>
      <trkpt lat="45.92557" lon="4.76017">
        <ele>172</ele>
        <time>2018-08-20T09:44:43Z</time>
      </trkpt>
      <trkpt lat="45.92552" lon="4.76014">
        <ele>172</ele>
        <time>2018-08-20T09:44:44Z</time>
      </trkpt>
      <trkpt lat="45.92549" lon="4.7601">
        <ele>172</ele>
        <time>2018-08-20T09:44:45Z</time>
      </trkpt>
      <trkpt lat="45.92545" lon="4.76005">
        <ele>172</ele>
        <time>2018-08-20T09:44:46Z</time>
      </trkpt>
      <trkpt lat="45.92538" lon="4.75998">
        <ele>172</ele>
        <time>2018-08-20T09:44:48Z</time>
      </trkpt>
      <trkpt lat="45.92533" lon="4.75995">
        <ele>172</ele>
        <time>2018-08-20T09:44:49Z</time>
      </trkpt>
      <trkpt lat="45.92529" lon="4.75991">
        <ele>172</ele>
        <time>2018-08-20T09:44:50Z</time>
      </trkpt>
      <trkpt lat="45.92524" lon="4.75988">
        <ele>172</ele>
        <time>2018-08-20T09:44:51Z</time>
      </trkpt>
      <trkpt lat="45.92518" lon="4.75982">
        <ele>172</ele>
        <time>2018-08-20T09:44:53Z</time>
      </trkpt>
      <trkpt lat="45.92513" lon="4.75979">
        <ele>172</ele>
        <time>2018-08-20T09:44:54Z</time>
      </trkpt>
      <trkpt lat="45.92506" lon="4.75974">
        <ele>172</ele>
        <time>2018-08-20T09:44:56Z</time>
      </trkpt>
      <trkpt lat="45.92502" lon="4.75972">
        <ele>172</ele>
        <time>2018-08-20T09:44:57Z</time>
      </trkpt>
      <trkpt lat="45.92497" lon="4.75968">
        <ele>172</ele>
        <time>2018-08-20T09:44:58Z</time>
      </trkpt>
      <trkpt lat="45.92493" lon="4.75965">
        <ele>172</ele>
        <time>2018-08-20T09:44:59Z</time>
      </trkpt>
      <trkpt lat="45.92487" lon="4.75963">
        <ele>172</ele>
        <time>2018-08-20T09:45:00Z</time>
      </trkpt>
      <trkpt lat="45.92482" lon="4.7596">
        <ele>172</ele>
        <time>2018-08-20T09:45:01Z</time>
      </trkpt>
      <trkpt lat="45.92477" lon="4.75957">
        <ele>172</ele>
        <time>2018-08-20T09:45:02Z</time>
      </trkpt>
      <trkpt lat="45.92472" lon="4.75954">
        <ele>172</ele>
        <time>2018-08-20T09:45:03Z</time>
      </trkpt>
      <trkpt lat="45.92468" lon="4.75951">
        <ele>172</ele>
        <time>2018-08-20T09:45:04Z</time>
      </trkpt>
      <trkpt lat="45.92463" lon="4.75948">
        <ele>172</ele>
        <time>2018-08-20T09:45:05Z</time>
      </trkpt>
      <trkpt lat="45.92456" lon="4.75945">
        <ele>172</ele>
        <time>2018-08-20T09:45:07Z</time>
      </trkpt>
      <trkpt lat="45.92448" lon="4.75944">
        <ele>172</ele>
        <time>2018-08-20T09:45:08Z</time>
      </trkpt>
      <trkpt lat="45.92442" lon="4.7594">
        <ele>172</ele>
        <time>2018-08-20T09:45:09Z</time>
      </trkpt>
      <trkpt lat="45.92435" lon="4.75936">
        <ele>172</ele>
        <time>2018-08-20T09:45:10Z</time>
      </trkpt>
      <trkpt lat="45.92429" lon="4.75932">
        <ele>172</ele>
        <time>2018-08-20T09:45:11Z</time>
      </trkpt>
      <trkpt lat="45.92423" lon="4.75928">
        <ele>172</ele>
        <time>2018-08-20T09:45:12Z</time>
      </trkpt>
      <trkpt lat="45.92415" lon="4.75923">
        <ele>172</ele>
        <time>2018-08-20T09:45:13Z</time>
      </trkpt>
      <trkpt lat="45.92409" lon="4.75919">
        <ele>172</ele>
        <time>2018-08-20T09:45:14Z</time>
      </trkpt>
      <trkpt lat="45.92403" lon="4.75917">
        <ele>172</ele>
        <time>2018-08-20T09:45:15Z</time>
      </trkpt>
      <trkpt lat="45.92397" lon="4.75912">
        <ele>173</ele>
        <time>2018-08-20T09:45:16Z</time>
      </trkpt>
      <trkpt lat="45.9239" lon="4.75907">
        <ele>173</ele>
        <time>2018-08-20T09:45:17Z</time>
      </trkpt>
      <trkpt lat="45.92384" lon="4.75901">
        <ele>173</ele>
        <time>2018-08-20T09:45:18Z</time>
      </trkpt>
      <trkpt lat="45.92378" lon="4.75897">
        <ele>173</ele>
        <time>2018-08-20T09:45:19Z</time>
      </trkpt>
      <trkpt lat="45.92372" lon="4.75893">
        <ele>173</ele>
        <time>2018-08-20T09:45:20Z</time>
      </trkpt>
      <trkpt lat="45.92367" lon="4.75889">
        <ele>173</ele>
        <time>2018-08-20T09:45:21Z</time>
      </trkpt>
      <trkpt lat="45.92361" lon="4.75884">
        <ele>173</ele>
        <time>2018-08-20T09:45:22Z</time>
      </trkpt>
      <trkpt lat="45.92356" lon="4.75879">
        <ele>173</ele>
        <time>2018-08-20T09:45:23Z</time>
      </trkpt>
      <trkpt lat="45.9235" lon="4.75876">
        <ele>173</ele>
        <time>2018-08-20T09:45:24Z</time>
      </trkpt>
      <trkpt lat="45.92344" lon="4.75872">
        <ele>173</ele>
        <time>2018-08-20T09:45:25Z</time>
      </trkpt>
      <trkpt lat="45.9234" lon="4.75869">
        <ele>173</ele>
        <time>2018-08-20T09:45:26Z</time>
      </trkpt>
      <trkpt lat="45.92335" lon="4.75866">
        <ele>173</ele>
        <time>2018-08-20T09:45:27Z</time>
      </trkpt>
      <trkpt lat="45.92331" lon="4.75863">
        <ele>173</ele>
        <time>2018-08-20T09:45:28Z</time>
      </trkpt>
      <trkpt lat="45.92323" lon="4.75859">
        <ele>173</ele>
        <time>2018-08-20T09:45:30Z</time>
      </trkpt>
      <trkpt lat="45.92321" lon="4.75858">
        <ele>173</ele>
        <time>2018-08-20T09:45:31Z</time>
      </trkpt>
      <trkpt lat="45.92317" lon="4.75856">
        <ele>173</ele>
        <time>2018-08-20T09:45:32Z</time>
      </trkpt>
      <trkpt lat="45.92311" lon="4.75854">
        <ele>173</ele>
        <time>2018-08-20T09:45:33Z</time>
      </trkpt>
      <trkpt lat="45.92307" lon="4.7585">
        <ele>173</ele>
        <time>2018-08-20T09:45:34Z</time>
      </trkpt>
      <trkpt lat="45.92302" lon="4.75847">
        <ele>173</ele>
        <time>2018-08-20T09:45:35Z</time>
      </trkpt>
      <trkpt lat="45.92297" lon="4.75843">
        <ele>173</ele>
        <time>2018-08-20T09:45:37Z</time>
      </trkpt>
      <trkpt lat="45.92293" lon="4.75843">
        <ele>173</ele>
        <time>2018-08-20T09:45:38Z</time>
      </trkpt>
      <trkpt lat="45.92288" lon="4.75839">
        <ele>173</ele>
        <time>2018-08-20T09:45:39Z</time>
      </trkpt>
      <trkpt lat="45.92283" lon="4.75836">
        <ele>173</ele>
        <time>2018-08-20T09:45:40Z</time>
      </trkpt>
      <trkpt lat="45.92279" lon="4.7583">
        <ele>174</ele>
        <time>2018-08-20T09:45:41Z</time>
      </trkpt>
      <trkpt lat="45.92276" lon="4.75823">
        <ele>174</ele>
        <time>2018-08-20T09:45:42Z</time>
      </trkpt>
      <trkpt lat="45.92272" lon="4.75817">
        <ele>174</ele>
        <time>2018-08-20T09:45:43Z</time>
      </trkpt>
      <trkpt lat="45.92269" lon="4.75811">
        <ele>174</ele>
        <time>2018-08-20T09:45:44Z</time>
      </trkpt>
      <trkpt lat="45.92267" lon="4.75804">
        <ele>174</ele>
        <time>2018-08-20T09:45:45Z</time>
      </trkpt>
      <trkpt lat="45.92266" lon="4.75793">
        <ele>174</ele>
        <time>2018-08-20T09:45:46Z</time>
      </trkpt>
      <trkpt lat="45.92265" lon="4.75786">
        <ele>174</ele>
        <time>2018-08-20T09:45:47Z</time>
      </trkpt>
      <trkpt lat="45.92266" lon="4.75777">
        <ele>174</ele>
        <time>2018-08-20T09:45:48Z</time>
      </trkpt>
      <trkpt lat="45.92264" lon="4.75769">
        <ele>174</ele>
        <time>2018-08-20T09:45:49Z</time>
      </trkpt>
      <trkpt lat="45.92262" lon="4.7576">
        <ele>174</ele>
        <time>2018-08-20T09:45:50Z</time>
      </trkpt>
      <trkpt lat="45.92259" lon="4.75753">
        <ele>174</ele>
        <time>2018-08-20T09:45:51Z</time>
      </trkpt>
      <trkpt lat="45.92257" lon="4.75744">
        <ele>174</ele>
        <time>2018-08-20T09:45:52Z</time>
      </trkpt>
      <trkpt lat="45.92256" lon="4.75736">
        <ele>174</ele>
        <time>2018-08-20T09:45:53Z</time>
      </trkpt>
      <trkpt lat="45.92254" lon="4.75728">
        <ele>174</ele>
        <time>2018-08-20T09:45:54Z</time>
      </trkpt>
      <trkpt lat="45.92249" lon="4.75721">
        <ele>174</ele>
        <time>2018-08-20T09:45:55Z</time>
      </trkpt>
      <trkpt lat="45.92246" lon="4.75713">
        <ele>174</ele>
        <time>2018-08-20T09:45:56Z</time>
      </trkpt>
      <trkpt lat="45.92242" lon="4.75706">
        <ele>174</ele>
        <time>2018-08-20T09:45:57Z</time>
      </trkpt>
      <trkpt lat="45.92237" lon="4.757">
        <ele>174</ele>
        <time>2018-08-20T09:45:58Z</time>
      </trkpt>
      <trkpt lat="45.92232" lon="4.75696">
        <ele>174</ele>
        <time>2018-08-20T09:45:59Z</time>
      </trkpt>
      <trkpt lat="45.92227" lon="4.75691">
        <ele>174</ele>
        <time>2018-08-20T09:46:00Z</time>
      </trkpt>
      <trkpt lat="45.92222" lon="4.75687">
        <ele>174</ele>
        <time>2018-08-20T09:46:01Z</time>
      </trkpt>
      <trkpt lat="45.92218" lon="4.75683">
        <ele>174</ele>
        <time>2018-08-20T09:46:02Z</time>
      </trkpt>
      <trkpt lat="45.92213" lon="4.7568">
        <ele>174</ele>
        <time>2018-08-20T09:46:03Z</time>
      </trkpt>
      <trkpt lat="45.92208" lon="4.75675">
        <ele>174</ele>
        <time>2018-08-20T09:46:04Z</time>
      </trkpt>
      <trkpt lat="45.92203" lon="4.75674">
        <ele>174</ele>
        <time>2018-08-20T09:46:05Z</time>
      </trkpt>
      <trkpt lat="45.92198" lon="4.75669">
        <ele>174</ele>
        <time>2018-08-20T09:46:06Z</time>
      </trkpt>
      <trkpt lat="45.92193" lon="4.75665">
        <ele>174</ele>
        <time>2018-08-20T09:46:07Z</time>
      </trkpt>
      <trkpt lat="45.92188" lon="4.7566">
        <ele>174</ele>
        <time>2018-08-20T09:46:08Z</time>
      </trkpt>
      <trkpt lat="45.92181" lon="4.75656">
        <ele>174</ele>
        <time>2018-08-20T09:46:09Z</time>
      </trkpt>
      <trkpt lat="45.92177" lon="4.75652">
        <ele>174</ele>
        <time>2018-08-20T09:46:10Z</time>
      </trkpt>
      <trkpt lat="45.92172" lon="4.75647">
        <ele>174</ele>
        <time>2018-08-20T09:46:11Z</time>
      </trkpt>
      <trkpt lat="45.92167" lon="4.75642">
        <ele>174</ele>
        <time>2018-08-20T09:46:12Z</time>
      </trkpt>
      <trkpt lat="45.92163" lon="4.75637">
        <ele>174</ele>
        <time>2018-08-20T09:46:13Z</time>
      </trkpt>
      <trkpt lat="45.92158" lon="4.75632">
        <ele>174</ele>
        <time>2018-08-20T09:46:14Z</time>
      </trkpt>
      <trkpt lat="45.92154" lon="4.75627">
        <ele>174</ele>
        <time>2018-08-20T09:46:15Z</time>
      </trkpt>
      <trkpt lat="45.92151" lon="4.75623">
        <ele>174</ele>
        <time>2018-08-20T09:46:16Z</time>
      </trkpt>
      <trkpt lat="45.92143" lon="4.75617">
        <ele>174</ele>
        <time>2018-08-20T09:46:19Z</time>
      </trkpt>
      <trkpt lat="45.92141" lon="4.75616">
        <ele>174</ele>
        <time>2018-08-20T09:46:20Z</time>
      </trkpt>
      <trkpt lat="45.92136" lon="4.7561">
        <ele>174</ele>
        <time>2018-08-20T09:46:23Z</time>
      </trkpt>
      <trkpt lat="45.92134" lon="4.75607">
        <ele>174</ele>
        <time>2018-08-20T09:46:24Z</time>
      </trkpt>
      <trkpt lat="45.92128" lon="4.75601">
        <ele>174</ele>
        <time>2018-08-20T09:46:26Z</time>
      </trkpt>
      <trkpt lat="45.9212" lon="4.75593">
        <ele>174</ele>
        <time>2018-08-20T09:46:27Z</time>
      </trkpt>
      <trkpt lat="45.92115" lon="4.75585">
        <ele>174</ele>
        <time>2018-08-20T09:46:29Z</time>
      </trkpt>
      <trkpt lat="45.92112" lon="4.75581">
        <ele>174</ele>
        <time>2018-08-20T09:46:30Z</time>
      </trkpt>
      <trkpt lat="45.9211" lon="4.75571">
        <ele>174</ele>
        <time>2018-08-20T09:46:32Z</time>
      </trkpt>
      <trkpt lat="45.92111" lon="4.75565">
        <ele>174</ele>
        <time>2018-08-20T09:46:33Z</time>
      </trkpt>
      <trkpt lat="45.92116" lon="4.75555">
        <ele>174</ele>
        <time>2018-08-20T09:46:35Z</time>
      </trkpt>
      <trkpt lat="45.92122" lon="4.75549">
        <ele>174</ele>
        <time>2018-08-20T09:46:36Z</time>
      </trkpt>
      <trkpt lat="45.92125" lon="4.75543">
        <ele>174</ele>
        <time>2018-08-20T09:46:37Z</time>
      </trkpt>
      <trkpt lat="45.92128" lon="4.75538">
        <ele>174</ele>
        <time>2018-08-20T09:46:38Z</time>
      </trkpt>
      <trkpt lat="45.92131" lon="4.75533">
        <ele>174</ele>
        <time>2018-08-20T09:46:39Z</time>
      </trkpt>
      <trkpt lat="45.92135" lon="4.75528">
        <ele>174</ele>
        <time>2018-08-20T09:46:40Z</time>
      </trkpt>
      <trkpt lat="45.92138" lon="4.75523">
        <ele>174</ele>
        <time>2018-08-20T09:46:41Z</time>
      </trkpt>
      <trkpt lat="45.92142" lon="4.75515">
        <ele>174</ele>
        <time>2018-08-20T09:46:42Z</time>
      </trkpt>
      <trkpt lat="45.92145" lon="4.75509">
        <ele>175</ele>
        <time>2018-08-20T09:46:43Z</time>
      </trkpt>
      <trkpt lat="45.92147" lon="4.75499">
        <ele>175</ele>
        <time>2018-08-20T09:46:44Z</time>
      </trkpt>
      <trkpt lat="45.9215" lon="4.75492">
        <ele>175</ele>
        <time>2018-08-20T09:46:45Z</time>
      </trkpt>
      <trkpt lat="45.92152" lon="4.75485">
        <ele>176</ele>
        <time>2018-08-20T09:46:46Z</time>
      </trkpt>
      <trkpt lat="45.92155" lon="4.75479">
        <ele>176</ele>
        <time>2018-08-20T09:46:47Z</time>
      </trkpt>
      <trkpt lat="45.92157" lon="4.75472">
        <ele>176</ele>
        <time>2018-08-20T09:46:48Z</time>
      </trkpt>
      <trkpt lat="45.9216" lon="4.75466">
        <ele>176</ele>
        <time>2018-08-20T09:46:49Z</time>
      </trkpt>
      <trkpt lat="45.92161" lon="4.75459">
        <ele>176</ele>
        <time>2018-08-20T09:46:50Z</time>
      </trkpt>
      <trkpt lat="45.92164" lon="4.75453">
        <ele>176</ele>
        <time>2018-08-20T09:46:51Z</time>
      </trkpt>
      <trkpt lat="45.92167" lon="4.75447">
        <ele>177</ele>
        <time>2018-08-20T09:46:52Z</time>
      </trkpt>
      <trkpt lat="45.92169" lon="4.7544">
        <ele>177</ele>
        <time>2018-08-20T09:46:53Z</time>
      </trkpt>
      <trkpt lat="45.92172" lon="4.75433">
        <ele>177</ele>
        <time>2018-08-20T09:46:54Z</time>
      </trkpt>
      <trkpt lat="45.92174" lon="4.75426">
        <ele>177</ele>
        <time>2018-08-20T09:46:55Z</time>
      </trkpt>
      <trkpt lat="45.92177" lon="4.75419">
        <ele>177</ele>
        <time>2018-08-20T09:46:56Z</time>
      </trkpt>
      <trkpt lat="45.9218" lon="4.75412">
        <ele>177</ele>
        <time>2018-08-20T09:46:57Z</time>
      </trkpt>
      <trkpt lat="45.92183" lon="4.75405">
        <ele>177</ele>
        <time>2018-08-20T09:46:58Z</time>
      </trkpt>
      <trkpt lat="45.92185" lon="4.75399">
        <ele>177</ele>
        <time>2018-08-20T09:46:59Z</time>
      </trkpt>
      <trkpt lat="45.92187" lon="4.75392">
        <ele>177</ele>
        <time>2018-08-20T09:47:00Z</time>
      </trkpt>
      <trkpt lat="45.9219" lon="4.75385">
        <ele>177</ele>
        <time>2018-08-20T09:47:01Z</time>
      </trkpt>
      <trkpt lat="45.92193" lon="4.75379">
        <ele>177</ele>
        <time>2018-08-20T09:47:02Z</time>
      </trkpt>
      <trkpt lat="45.92196" lon="4.75374">
        <ele>177</ele>
        <time>2018-08-20T09:47:03Z</time>
      </trkpt>
      <trkpt lat="45.92198" lon="4.75368">
        <ele>177</ele>
        <time>2018-08-20T09:47:04Z</time>
      </trkpt>
      <trkpt lat="45.92202" lon="4.75357">
        <ele>177</ele>
        <time>2018-08-20T09:47:06Z</time>
      </trkpt>
      <trkpt lat="45.92204" lon="4.75352">
        <ele>177</ele>
        <time>2018-08-20T09:47:07Z</time>
      </trkpt>
      <trkpt lat="45.92206" lon="4.75345">
        <ele>177</ele>
        <time>2018-08-20T09:47:08Z</time>
      </trkpt>
      <trkpt lat="45.92207" lon="4.75339">
        <ele>177</ele>
        <time>2018-08-20T09:47:09Z</time>
      </trkpt>
      <trkpt lat="45.92206" lon="4.75329">
        <ele>176</ele>
        <time>2018-08-20T09:47:10Z</time>
      </trkpt>
      <trkpt lat="45.92209" lon="4.75323">
        <ele>176</ele>
        <time>2018-08-20T09:47:11Z</time>
      </trkpt>
      <trkpt lat="45.9221" lon="4.75315">
        <ele>176</ele>
        <time>2018-08-20T09:47:12Z</time>
      </trkpt>
      <trkpt lat="45.9221" lon="4.75306">
        <ele>176</ele>
        <time>2018-08-20T09:47:13Z</time>
      </trkpt>
      <trkpt lat="45.9221" lon="4.75298">
        <ele>176</ele>
        <time>2018-08-20T09:47:14Z</time>
      </trkpt>
      <trkpt lat="45.92211" lon="4.7529">
        <ele>176</ele>
        <time>2018-08-20T09:47:15Z</time>
      </trkpt>
      <trkpt lat="45.92212" lon="4.75282">
        <ele>176</ele>
        <time>2018-08-20T09:47:16Z</time>
      </trkpt>
      <trkpt lat="45.92211" lon="4.75273">
        <ele>176</ele>
        <time>2018-08-20T09:47:17Z</time>
      </trkpt>
      <trkpt lat="45.92211" lon="4.75265">
        <ele>176</ele>
        <time>2018-08-20T09:47:18Z</time>
      </trkpt>
      <trkpt lat="45.92212" lon="4.75256">
        <ele>175</ele>
        <time>2018-08-20T09:47:19Z</time>
      </trkpt>
      <trkpt lat="45.92212" lon="4.75248">
        <ele>175</ele>
        <time>2018-08-20T09:47:20Z</time>
      </trkpt>
      <trkpt lat="45.92212" lon="4.7524">
        <ele>175</ele>
        <time>2018-08-20T09:47:21Z</time>
      </trkpt>
      <trkpt lat="45.92213" lon="4.75232">
        <ele>175</ele>
        <time>2018-08-20T09:47:22Z</time>
      </trkpt>
      <trkpt lat="45.92214" lon="4.75223">
        <ele>175</ele>
        <time>2018-08-20T09:47:23Z</time>
      </trkpt>
      <trkpt lat="45.92215" lon="4.75214">
        <ele>175</ele>
        <time>2018-08-20T09:47:24Z</time>
      </trkpt>
      <trkpt lat="45.92217" lon="4.75205">
        <ele>175</ele>
        <time>2018-08-20T09:47:25Z</time>
      </trkpt>
      <trkpt lat="45.92219" lon="4.75196">
        <ele>175</ele>
        <time>2018-08-20T09:47:26Z</time>
      </trkpt>
      <trkpt lat="45.92222" lon="4.75188">
        <ele>175</ele>
        <time>2018-08-20T09:47:27Z</time>
      </trkpt>
      <trkpt lat="45.92224" lon="4.75179">
        <ele>175</ele>
        <time>2018-08-20T09:47:28Z</time>
      </trkpt>
      <trkpt lat="45.92227" lon="4.7517">
        <ele>175</ele>
        <time>2018-08-20T09:47:29Z</time>
      </trkpt>
      <trkpt lat="45.9223" lon="4.75163">
        <ele>174</ele>
        <time>2018-08-20T09:47:30Z</time>
      </trkpt>
      <trkpt lat="45.92234" lon="4.75156">
        <ele>174</ele>
        <time>2018-08-20T09:47:31Z</time>
      </trkpt>
      <trkpt lat="45.92238" lon="4.75149">
        <ele>174</ele>
        <time>2018-08-20T09:47:32Z</time>
      </trkpt>
      <trkpt lat="45.92242" lon="4.75141">
        <ele>174</ele>
        <time>2018-08-20T09:47:33Z</time>
      </trkpt>
      <trkpt lat="45.92247" lon="4.75135">
        <ele>174</ele>
        <time>2018-08-20T09:47:34Z</time>
      </trkpt>
      <trkpt lat="45.92251" lon="4.75128">
        <ele>174</ele>
        <time>2018-08-20T09:47:35Z</time>
      </trkpt>
      <trkpt lat="45.92255" lon="4.75121">
        <ele>174</ele>
        <time>2018-08-20T09:47:36Z</time>
      </trkpt>
      <trkpt lat="45.92259" lon="4.75116">
        <ele>174</ele>
        <time>2018-08-20T09:47:37Z</time>
      </trkpt>
      <trkpt lat="45.92265" lon="4.75113">
        <ele>174</ele>
        <time>2018-08-20T09:47:38Z</time>
      </trkpt>
      <trkpt lat="45.92269" lon="4.75107">
        <ele>174</ele>
        <time>2018-08-20T09:47:39Z</time>
      </trkpt>
      <trkpt lat="45.92274" lon="4.75103">
        <ele>173</ele>
        <time>2018-08-20T09:47:40Z</time>
      </trkpt>
      <trkpt lat="45.92278" lon="4.75097">
        <ele>173</ele>
        <time>2018-08-20T09:47:41Z</time>
      </trkpt>
      <trkpt lat="45.92282" lon="4.75092">
        <ele>173</ele>
        <time>2018-08-20T09:47:42Z</time>
      </trkpt>
      <trkpt lat="45.92288" lon="4.75087">
        <ele>173</ele>
        <time>2018-08-20T09:47:43Z</time>
      </trkpt>
      <trkpt lat="45.92293" lon="4.75081">
        <ele>172</ele>
        <time>2018-08-20T09:47:44Z</time>
      </trkpt>
      <trkpt lat="45.92298" lon="4.75074">
        <ele>172</ele>
        <time>2018-08-20T09:47:45Z</time>
      </trkpt>
      <trkpt lat="45.92301" lon="4.75066">
        <ele>172</ele>
        <time>2018-08-20T09:47:46Z</time>
      </trkpt>
      <trkpt lat="45.92305" lon="4.7506">
        <ele>172</ele>
        <time>2018-08-20T09:47:47Z</time>
      </trkpt>
      <trkpt lat="45.9231" lon="4.75053">
        <ele>172</ele>
        <time>2018-08-20T09:47:48Z</time>
      </trkpt>
      <trkpt lat="45.92314" lon="4.75045">
        <ele>172</ele>
        <time>2018-08-20T09:47:49Z</time>
      </trkpt>
      <trkpt lat="45.92318" lon="4.75038">
        <ele>171</ele>
        <time>2018-08-20T09:47:50Z</time>
      </trkpt>
      <trkpt lat="45.92323" lon="4.7503">
        <ele>171</ele>
        <time>2018-08-20T09:47:51Z</time>
      </trkpt>
      <trkpt lat="45.92326" lon="4.75023">
        <ele>171</ele>
        <time>2018-08-20T09:47:52Z</time>
      </trkpt>
      <trkpt lat="45.9233" lon="4.75016">
        <ele>171</ele>
        <time>2018-08-20T09:47:53Z</time>
      </trkpt>
      <trkpt lat="45.92334" lon="4.75009">
        <ele>170</ele>
        <time>2018-08-20T09:47:54Z</time>
      </trkpt>
      <trkpt lat="45.92336" lon="4.75002">
        <ele>170</ele>
        <time>2018-08-20T09:47:55Z</time>
      </trkpt>
      <trkpt lat="45.9234" lon="4.74996">
        <ele>170</ele>
        <time>2018-08-20T09:47:56Z</time>
      </trkpt>
      <trkpt lat="45.92342" lon="4.74989">
        <ele>170</ele>
        <time>2018-08-20T09:47:57Z</time>
      </trkpt>
      <trkpt lat="45.92347" lon="4.74983">
        <ele>170</ele>
        <time>2018-08-20T09:47:58Z</time>
      </trkpt>
      <trkpt lat="45.92351" lon="4.74976">
        <ele>170</ele>
        <time>2018-08-20T09:47:59Z</time>
      </trkpt>
      <trkpt lat="45.92355" lon="4.74969">
        <ele>170</ele>
        <time>2018-08-20T09:48:00Z</time>
      </trkpt>
      <trkpt lat="45.9236" lon="4.74964">
        <ele>170</ele>
        <time>2018-08-20T09:48:01Z</time>
      </trkpt>
      <trkpt lat="45.92362" lon="4.74956">
        <ele>170</ele>
        <time>2018-08-20T09:48:02Z</time>
      </trkpt>
      <trkpt lat="45.92364" lon="4.74948">
        <ele>170</ele>
        <time>2018-08-20T09:48:03Z</time>
      </trkpt>
      <trkpt lat="45.92367" lon="4.74941">
        <ele>170</ele>
        <time>2018-08-20T09:48:04Z</time>
      </trkpt>
      <trkpt lat="45.9237" lon="4.74934">
        <ele>170</ele>
        <time>2018-08-20T09:48:05Z</time>
      </trkpt>
      <trkpt lat="45.92372" lon="4.74927">
        <ele>170</ele>
        <time>2018-08-20T09:48:06Z</time>
      </trkpt>
      <trkpt lat="45.92375" lon="4.74921">
        <ele>170</ele>
        <time>2018-08-20T09:48:07Z</time>
      </trkpt>
      <trkpt lat="45.92376" lon="4.74914">
        <ele>171</ele>
        <time>2018-08-20T09:48:08Z</time>
      </trkpt>
      <trkpt lat="45.92378" lon="4.74908">
        <ele>171</ele>
        <time>2018-08-20T09:48:09Z</time>
      </trkpt>
      <trkpt lat="45.9238" lon="4.74903">
        <ele>171</ele>
        <time>2018-08-20T09:48:10Z</time>
      </trkpt>
      <trkpt lat="45.92384" lon="4.74895">
        <ele>171</ele>
        <time>2018-08-20T09:48:11Z</time>
      </trkpt>
      <trkpt lat="45.92386" lon="4.7489">
        <ele>171</ele>
        <time>2018-08-20T09:48:12Z</time>
      </trkpt>
      <trkpt lat="45.92388" lon="4.74883">
        <ele>171</ele>
        <time>2018-08-20T09:48:13Z</time>
      </trkpt>
      <trkpt lat="45.9239" lon="4.74876">
        <ele>171</ele>
        <time>2018-08-20T09:48:14Z</time>
      </trkpt>
      <trkpt lat="45.92393" lon="4.7487">
        <ele>171</ele>
        <time>2018-08-20T09:48:15Z</time>
      </trkpt>
      <trkpt lat="45.92396" lon="4.74862">
        <ele>171</ele>
        <time>2018-08-20T09:48:16Z</time>
      </trkpt>
      <trkpt lat="45.92398" lon="4.74856">
        <ele>171</ele>
        <time>2018-08-20T09:48:17Z</time>
      </trkpt>
      <trkpt lat="45.92402" lon="4.74845">
        <ele>171</ele>
        <time>2018-08-20T09:48:19Z</time>
      </trkpt>
      <trkpt lat="45.92403" lon="4.74837">
        <ele>171</ele>
        <time>2018-08-20T09:48:20Z</time>
      </trkpt>
      <trkpt lat="45.92405" lon="4.7483">
        <ele>171</ele>
        <time>2018-08-20T09:48:21Z</time>
      </trkpt>
      <trkpt lat="45.92408" lon="4.74823">
        <ele>171</ele>
        <time>2018-08-20T09:48:22Z</time>
      </trkpt>
      <trkpt lat="45.9241" lon="4.74815">
        <ele>171</ele>
        <time>2018-08-20T09:48:23Z</time>
      </trkpt>
      <trkpt lat="45.92412" lon="4.74807">
        <ele>171</ele>
        <time>2018-08-20T09:48:24Z</time>
      </trkpt>
      <trkpt lat="45.92412" lon="4.74799">
        <ele>171</ele>
        <time>2018-08-20T09:48:25Z</time>
      </trkpt>
      <trkpt lat="45.92413" lon="4.74791">
        <ele>171</ele>
        <time>2018-08-20T09:48:26Z</time>
      </trkpt>
      <trkpt lat="45.92415" lon="4.74783">
        <ele>171</ele>
        <time>2018-08-20T09:48:27Z</time>
      </trkpt>
      <trkpt lat="45.92417" lon="4.74773">
        <ele>171</ele>
        <time>2018-08-20T09:48:28Z</time>
      </trkpt>
      <trkpt lat="45.92419" lon="4.74765">
        <ele>171</ele>
        <time>2018-08-20T09:48:29Z</time>
      </trkpt>
      <trkpt lat="45.92422" lon="4.7476">
        <ele>171</ele>
        <time>2018-08-20T09:48:30Z</time>
      </trkpt>
      <trkpt lat="45.92424" lon="4.74753">
        <ele>172</ele>
        <time>2018-08-20T09:48:31Z</time>
      </trkpt>
      <trkpt lat="45.92425" lon="4.74745">
        <ele>172</ele>
        <time>2018-08-20T09:48:32Z</time>
      </trkpt>
      <trkpt lat="45.92428" lon="4.74737">
        <ele>171</ele>
        <time>2018-08-20T09:48:33Z</time>
      </trkpt>
      <trkpt lat="45.9243" lon="4.74729">
        <ele>171</ele>
        <time>2018-08-20T09:48:34Z</time>
      </trkpt>
      <trkpt lat="45.92432" lon="4.74721">
        <ele>171</ele>
        <time>2018-08-20T09:48:35Z</time>
      </trkpt>
      <trkpt lat="45.92435" lon="4.74716">
        <ele>171</ele>
        <time>2018-08-20T09:48:36Z</time>
      </trkpt>
      <trkpt lat="45.92437" lon="4.74708">
        <ele>171</ele>
        <time>2018-08-20T09:48:37Z</time>
      </trkpt>
      <trkpt lat="45.92439" lon="4.747">
        <ele>171</ele>
        <time>2018-08-20T09:48:38Z</time>
      </trkpt>
      <trkpt lat="45.92442" lon="4.74694">
        <ele>171</ele>
        <time>2018-08-20T09:48:39Z</time>
      </trkpt>
      <trkpt lat="45.92445" lon="4.74688">
        <ele>171</ele>
        <time>2018-08-20T09:48:40Z</time>
      </trkpt>
      <trkpt lat="45.92447" lon="4.74682">
        <ele>171</ele>
        <time>2018-08-20T09:48:41Z</time>
      </trkpt>
      <trkpt lat="45.9245" lon="4.74676">
        <ele>171</ele>
        <time>2018-08-20T09:48:42Z</time>
      </trkpt>
      <trkpt lat="45.92452" lon="4.74668">
        <ele>171</ele>
        <time>2018-08-20T09:48:43Z</time>
      </trkpt>
      <trkpt lat="45.92455" lon="4.74663">
        <ele>171</ele>
        <time>2018-08-20T09:48:44Z</time>
      </trkpt>
      <trkpt lat="45.92464" lon="4.74646">
        <ele>171</ele>
        <time>2018-08-20T09:48:47Z</time>
      </trkpt>
      <trkpt lat="45.92468" lon="4.74642">
        <ele>171</ele>
        <time>2018-08-20T09:48:48Z</time>
      </trkpt>
      <trkpt lat="45.92475" lon="4.7464">
        <ele>171</ele>
        <time>2018-08-20T09:48:49Z</time>
      </trkpt>
      <trkpt lat="45.92481" lon="4.74633">
        <ele>171</ele>
        <time>2018-08-20T09:48:50Z</time>
      </trkpt>
      <trkpt lat="45.92483" lon="4.74622">
        <ele>171</ele>
        <time>2018-08-20T09:48:51Z</time>
      </trkpt>
      <trkpt lat="45.92489" lon="4.74618">
        <ele>171</ele>
        <time>2018-08-20T09:48:52Z</time>
      </trkpt>
      <trkpt lat="45.92493" lon="4.74611">
        <ele>171</ele>
        <time>2018-08-20T09:48:53Z</time>
      </trkpt>
      <trkpt lat="45.92497" lon="4.74604">
        <ele>171</ele>
        <time>2018-08-20T09:48:54Z</time>
      </trkpt>
      <trkpt lat="45.92501" lon="4.74601">
        <ele>171</ele>
        <time>2018-08-20T09:48:55Z</time>
      </trkpt>
      <trkpt lat="45.92505" lon="4.74595">
        <ele>171</ele>
        <time>2018-08-20T09:48:56Z</time>
      </trkpt>
      <trkpt lat="45.92507" lon="4.7459">
        <ele>171</ele>
        <time>2018-08-20T09:48:57Z</time>
      </trkpt>
      <trkpt lat="45.92512" lon="4.74585">
        <ele>171</ele>
        <time>2018-08-20T09:48:58Z</time>
      </trkpt>
      <trkpt lat="45.92516" lon="4.74581">
        <ele>171</ele>
        <time>2018-08-20T09:48:59Z</time>
      </trkpt>
      <trkpt lat="45.92521" lon="4.74577">
        <ele>171</ele>
        <time>2018-08-20T09:49:00Z</time>
      </trkpt>
      <trkpt lat="45.92526" lon="4.7457">
        <ele>171</ele>
        <time>2018-08-20T09:49:01Z</time>
      </trkpt>
      <trkpt lat="45.9253" lon="4.74564">
        <ele>171</ele>
        <time>2018-08-20T09:49:02Z</time>
      </trkpt>
      <trkpt lat="45.92534" lon="4.74559">
        <ele>171</ele>
        <time>2018-08-20T09:49:03Z</time>
      </trkpt>
      <trkpt lat="45.92537" lon="4.74552">
        <ele>171</ele>
        <time>2018-08-20T09:49:04Z</time>
      </trkpt>
      <trkpt lat="45.9254" lon="4.74547">
        <ele>171</ele>
        <time>2018-08-20T09:49:05Z</time>
      </trkpt>
      <trkpt lat="45.92544" lon="4.74542">
        <ele>170</ele>
        <time>2018-08-20T09:49:06Z</time>
      </trkpt>
      <trkpt lat="45.92548" lon="4.74535">
        <ele>170</ele>
        <time>2018-08-20T09:49:07Z</time>
      </trkpt>
      <trkpt lat="45.92551" lon="4.74529">
        <ele>170</ele>
        <time>2018-08-20T09:49:08Z</time>
      </trkpt>
      <trkpt lat="45.92555" lon="4.74522">
        <ele>170</ele>
        <time>2018-08-20T09:49:09Z</time>
      </trkpt>
      <trkpt lat="45.92559" lon="4.74516">
        <ele>170</ele>
        <time>2018-08-20T09:49:10Z</time>
      </trkpt>
      <trkpt lat="45.92562" lon="4.74507">
        <ele>170</ele>
        <time>2018-08-20T09:49:11Z</time>
      </trkpt>
      <trkpt lat="45.92566" lon="4.745">
        <ele>170</ele>
        <time>2018-08-20T09:49:12Z</time>
      </trkpt>
      <trkpt lat="45.92569" lon="4.74496">
        <ele>170</ele>
        <time>2018-08-20T09:49:13Z</time>
      </trkpt>
      <trkpt lat="45.92573" lon="4.7449">
        <ele>170</ele>
        <time>2018-08-20T09:49:14Z</time>
      </trkpt>
      <trkpt lat="45.92576" lon="4.74484">
        <ele>170</ele>
        <time>2018-08-20T09:49:15Z</time>
      </trkpt>
      <trkpt lat="45.92578" lon="4.74478">
        <ele>170</ele>
        <time>2018-08-20T09:49:16Z</time>
      </trkpt>
      <trkpt lat="45.92582" lon="4.74472">
        <ele>170</ele>
        <time>2018-08-20T09:49:17Z</time>
      </trkpt>
      <trkpt lat="45.92584" lon="4.74467">
        <ele>170</ele>
        <time>2018-08-20T09:49:18Z</time>
      </trkpt>
      <trkpt lat="45.92587" lon="4.74461">
        <ele>170</ele>
        <time>2018-08-20T09:49:19Z</time>
      </trkpt>
      <trkpt lat="45.9259" lon="4.74455">
        <ele>170</ele>
        <time>2018-08-20T09:49:20Z</time>
      </trkpt>
      <trkpt lat="45.92594" lon="4.7445">
        <ele>170</ele>
        <time>2018-08-20T09:49:21Z</time>
      </trkpt>
      <trkpt lat="45.92597" lon="4.74445">
        <ele>170</ele>
        <time>2018-08-20T09:49:22Z</time>
      </trkpt>
      <trkpt lat="45.926" lon="4.74437">
        <ele>170</ele>
        <time>2018-08-20T09:49:23Z</time>
      </trkpt>
      <trkpt lat="45.92603" lon="4.74431">
        <ele>170</ele>
        <time>2018-08-20T09:49:24Z</time>
      </trkpt>
      <trkpt lat="45.92606" lon="4.74427">
        <ele>170</ele>
        <time>2018-08-20T09:49:25Z</time>
      </trkpt>
      <trkpt lat="45.9261" lon="4.74421">
        <ele>170</ele>
        <time>2018-08-20T09:49:26Z</time>
      </trkpt>
      <trkpt lat="45.92614" lon="4.74414">
        <ele>170</ele>
        <time>2018-08-20T09:49:27Z</time>
      </trkpt>
      <trkpt lat="45.92618" lon="4.74408">
        <ele>170</ele>
        <time>2018-08-20T09:49:28Z</time>
      </trkpt>
      <trkpt lat="45.92622" lon="4.74402">
        <ele>170</ele>
        <time>2018-08-20T09:49:29Z</time>
      </trkpt>
      <trkpt lat="45.92625" lon="4.74396">
        <ele>170</ele>
        <time>2018-08-20T09:49:30Z</time>
      </trkpt>
      <trkpt lat="45.92628" lon="4.74388">
        <ele>170</ele>
        <time>2018-08-20T09:49:31Z</time>
      </trkpt>
      <trkpt lat="45.92629" lon="4.74384">
        <ele>170</ele>
        <time>2018-08-20T09:49:32Z</time>
      </trkpt>
      <trkpt lat="45.92633" lon="4.74377">
        <ele>170</ele>
        <time>2018-08-20T09:49:33Z</time>
      </trkpt>
      <trkpt lat="45.92637" lon="4.74373">
        <ele>171</ele>
        <time>2018-08-20T09:49:34Z</time>
      </trkpt>
      <trkpt lat="45.9264" lon="4.74367">
        <ele>171</ele>
        <time>2018-08-20T09:49:35Z</time>
      </trkpt>
      <trkpt lat="45.92644" lon="4.7436">
        <ele>171</ele>
        <time>2018-08-20T09:49:36Z</time>
      </trkpt>
      <trkpt lat="45.92648" lon="4.74354">
        <ele>171</ele>
        <time>2018-08-20T09:49:37Z</time>
      </trkpt>
      <trkpt lat="45.92651" lon="4.74349">
        <ele>171</ele>
        <time>2018-08-20T09:49:38Z</time>
      </trkpt>
      <trkpt lat="45.92653" lon="4.74342">
        <ele>171</ele>
        <time>2018-08-20T09:49:39Z</time>
      </trkpt>
      <trkpt lat="45.92656" lon="4.74336">
        <ele>171</ele>
        <time>2018-08-20T09:49:40Z</time>
      </trkpt>
      <trkpt lat="45.92659" lon="4.7433">
        <ele>171</ele>
        <time>2018-08-20T09:49:41Z</time>
      </trkpt>
      <trkpt lat="45.92662" lon="4.74324">
        <ele>171</ele>
        <time>2018-08-20T09:49:42Z</time>
      </trkpt>
      <trkpt lat="45.92665" lon="4.74319">
        <ele>171</ele>
        <time>2018-08-20T09:49:43Z</time>
      </trkpt>
      <trkpt lat="45.92668" lon="4.74313">
        <ele>171</ele>
        <time>2018-08-20T09:49:44Z</time>
      </trkpt>
      <trkpt lat="45.92671" lon="4.74308">
        <ele>171</ele>
        <time>2018-08-20T09:49:45Z</time>
      </trkpt>
      <trkpt lat="45.92674" lon="4.74303">
        <ele>171</ele>
        <time>2018-08-20T09:49:46Z</time>
      </trkpt>
      <trkpt lat="45.92678" lon="4.74298">
        <ele>171</ele>
        <time>2018-08-20T09:49:47Z</time>
      </trkpt>
      <trkpt lat="45.92682" lon="4.74293">
        <ele>171</ele>
        <time>2018-08-20T09:49:48Z</time>
      </trkpt>
      <trkpt lat="45.92685" lon="4.74286">
        <ele>171</ele>
        <time>2018-08-20T09:49:49Z</time>
      </trkpt>
      <trkpt lat="45.92688" lon="4.74279">
        <ele>171</ele>
        <time>2018-08-20T09:49:50Z</time>
      </trkpt>
      <trkpt lat="45.92691" lon="4.74273">
        <ele>171</ele>
        <time>2018-08-20T09:49:51Z</time>
      </trkpt>
      <trkpt lat="45.92693" lon="4.74267">
        <ele>171</ele>
        <time>2018-08-20T09:49:52Z</time>
      </trkpt>
      <trkpt lat="45.92697" lon="4.74261">
        <ele>171</ele>
        <time>2018-08-20T09:49:53Z</time>
      </trkpt>
      <trkpt lat="45.92699" lon="4.74257">
        <ele>171</ele>
        <time>2018-08-20T09:49:54Z</time>
      </trkpt>
      <trkpt lat="45.92703" lon="4.74251">
        <ele>171</ele>
        <time>2018-08-20T09:49:55Z</time>
      </trkpt>
      <trkpt lat="45.92707" lon="4.74242">
        <ele>171</ele>
        <time>2018-08-20T09:49:57Z</time>
      </trkpt>
      <trkpt lat="45.92712" lon="4.74237">
        <ele>171</ele>
        <time>2018-08-20T09:49:58Z</time>
      </trkpt>
      <trkpt lat="45.92717" lon="4.7423">
        <ele>171</ele>
        <time>2018-08-20T09:49:59Z</time>
      </trkpt>
      <trkpt lat="45.9272" lon="4.74225">
        <ele>171</ele>
        <time>2018-08-20T09:50:00Z</time>
      </trkpt>
      <trkpt lat="45.92725" lon="4.74218">
        <ele>171</ele>
        <time>2018-08-20T09:50:01Z</time>
      </trkpt>
      <trkpt lat="45.9273" lon="4.74212">
        <ele>171</ele>
        <time>2018-08-20T09:50:02Z</time>
      </trkpt>
      <trkpt lat="45.92734" lon="4.74203">
        <ele>171</ele>
        <time>2018-08-20T09:50:03Z</time>
      </trkpt>
      <trkpt lat="45.92737" lon="4.74197">
        <ele>171</ele>
        <time>2018-08-20T09:50:04Z</time>
      </trkpt>
      <trkpt lat="45.92741" lon="4.74192">
        <ele>171</ele>
        <time>2018-08-20T09:50:05Z</time>
      </trkpt>
      <trkpt lat="45.92745" lon="4.74187">
        <ele>172</ele>
        <time>2018-08-20T09:50:06Z</time>
      </trkpt>
      <trkpt lat="45.92749" lon="4.74182">
        <ele>172</ele>
        <time>2018-08-20T09:50:07Z</time>
      </trkpt>
      <trkpt lat="45.92753" lon="4.74177">
        <ele>172</ele>
        <time>2018-08-20T09:50:08Z</time>
      </trkpt>
      <trkpt lat="45.92758" lon="4.74172">
        <ele>172</ele>
        <time>2018-08-20T09:50:09Z</time>
      </trkpt>
      <trkpt lat="45.92762" lon="4.74168">
        <ele>172</ele>
        <time>2018-08-20T09:50:10Z</time>
      </trkpt>
      <trkpt lat="45.92766" lon="4.74164">
        <ele>172</ele>
        <time>2018-08-20T09:50:11Z</time>
      </trkpt>
      <trkpt lat="45.9277" lon="4.74157">
        <ele>172</ele>
        <time>2018-08-20T09:50:12Z</time>
      </trkpt>
      <trkpt lat="45.92775" lon="4.74152">
        <ele>172</ele>
        <time>2018-08-20T09:50:13Z</time>
      </trkpt>
      <trkpt lat="45.92783" lon="4.74143">
        <ele>172</ele>
        <time>2018-08-20T09:50:14Z</time>
      </trkpt>
      <trkpt lat="45.92788" lon="4.74139">
        <ele>172</ele>
        <time>2018-08-20T09:50:15Z</time>
      </trkpt>
      <trkpt lat="45.92793" lon="4.74136">
        <ele>172</ele>
        <time>2018-08-20T09:50:16Z</time>
      </trkpt>
      <trkpt lat="45.92798" lon="4.7413">
        <ele>172</ele>
        <time>2018-08-20T09:50:17Z</time>
      </trkpt>
      <trkpt lat="45.92802" lon="4.74126">
        <ele>172</ele>
        <time>2018-08-20T09:50:18Z</time>
      </trkpt>
      <trkpt lat="45.92806" lon="4.74123">
        <ele>172</ele>
        <time>2018-08-20T09:50:19Z</time>
      </trkpt>
      <trkpt lat="45.9281" lon="4.74118">
        <ele>172</ele>
        <time>2018-08-20T09:50:20Z</time>
      </trkpt>
      <trkpt lat="45.92815" lon="4.74114">
        <ele>172</ele>
        <time>2018-08-20T09:50:21Z</time>
      </trkpt>
      <trkpt lat="45.92819" lon="4.74108">
        <ele>172</ele>
        <time>2018-08-20T09:50:22Z</time>
      </trkpt>
      <trkpt lat="45.92823" lon="4.74104">
        <ele>171</ele>
        <time>2018-08-20T09:50:23Z</time>
      </trkpt>
      <trkpt lat="45.92827" lon="4.74101">
        <ele>171</ele>
        <time>2018-08-20T09:50:24Z</time>
      </trkpt>
      <trkpt lat="45.9283" lon="4.74096">
        <ele>171</ele>
        <time>2018-08-20T09:50:25Z</time>
      </trkpt>
      <trkpt lat="45.92834" lon="4.74093">
        <ele>171</ele>
        <time>2018-08-20T09:50:26Z</time>
      </trkpt>
      <trkpt lat="45.92838" lon="4.7409">
        <ele>171</ele>
        <time>2018-08-20T09:50:27Z</time>
      </trkpt>
      <trkpt lat="45.92842" lon="4.74085">
        <ele>171</ele>
        <time>2018-08-20T09:50:28Z</time>
      </trkpt>
      <trkpt lat="45.92845" lon="4.7408">
        <ele>172</ele>
        <time>2018-08-20T09:50:29Z</time>
      </trkpt>
      <trkpt lat="45.92849" lon="4.74076">
        <ele>172</ele>
        <time>2018-08-20T09:50:30Z</time>
      </trkpt>
      <trkpt lat="45.92856" lon="4.74068">
        <ele>172</ele>
        <time>2018-08-20T09:50:32Z</time>
      </trkpt>
      <trkpt lat="45.92857" lon="4.74067">
        <ele>172</ele>
        <time>2018-08-20T09:50:33Z</time>
      </trkpt>
      <trkpt lat="45.92861" lon="4.74063">
        <ele>172</ele>
        <time>2018-08-20T09:50:34Z</time>
      </trkpt>
      <trkpt lat="45.92865" lon="4.74059">
        <ele>172</ele>
        <time>2018-08-20T09:50:35Z</time>
      </trkpt>
      <trkpt lat="45.92869" lon="4.74056">
        <ele>172</ele>
        <time>2018-08-20T09:50:36Z</time>
      </trkpt>
      <trkpt lat="45.92874" lon="4.74051">
        <ele>172</ele>
        <time>2018-08-20T09:50:37Z</time>
      </trkpt>
      <trkpt lat="45.92878" lon="4.74049">
        <ele>172</ele>
        <time>2018-08-20T09:50:38Z</time>
      </trkpt>
      <trkpt lat="45.92882" lon="4.74047">
        <ele>172</ele>
        <time>2018-08-20T09:50:39Z</time>
      </trkpt>
      <trkpt lat="45.92888" lon="4.74049">
        <ele>172</ele>
        <time>2018-08-20T09:50:40Z</time>
      </trkpt>
      <trkpt lat="45.92892" lon="4.74051">
        <ele>172</ele>
        <time>2018-08-20T09:50:41Z</time>
      </trkpt>
      <trkpt lat="45.92897" lon="4.7405">
        <ele>172</ele>
        <time>2018-08-20T09:50:42Z</time>
      </trkpt>
      <trkpt lat="45.92901" lon="4.74047">
        <ele>172</ele>
        <time>2018-08-20T09:50:43Z</time>
      </trkpt>
      <trkpt lat="45.92906" lon="4.74044">
        <ele>172</ele>
        <time>2018-08-20T09:50:44Z</time>
      </trkpt>
      <trkpt lat="45.9291" lon="4.7404">
        <ele>172</ele>
        <time>2018-08-20T09:50:45Z</time>
      </trkpt>
      <trkpt lat="45.92912" lon="4.74031">
        <ele>172</ele>
        <time>2018-08-20T09:50:46Z</time>
      </trkpt>
      <trkpt lat="45.92914" lon="4.74025">
        <ele>172</ele>
        <time>2018-08-20T09:50:47Z</time>
      </trkpt>
      <trkpt lat="45.92917" lon="4.74017">
        <ele>172</ele>
        <time>2018-08-20T09:50:48Z</time>
      </trkpt>
      <trkpt lat="45.92917" lon="4.7401">
        <ele>172</ele>
        <time>2018-08-20T09:50:49Z</time>
      </trkpt>
      <trkpt lat="45.92917" lon="4.74003">
        <ele>172</ele>
        <time>2018-08-20T09:50:50Z</time>
      </trkpt>
      <trkpt lat="45.92914" lon="4.73997">
        <ele>172</ele>
        <time>2018-08-20T09:50:51Z</time>
      </trkpt>
      <trkpt lat="45.9291" lon="4.73991">
        <ele>172</ele>
        <time>2018-08-20T09:50:52Z</time>
      </trkpt>
      <trkpt lat="45.92907" lon="4.73986">
        <ele>172</ele>
        <time>2018-08-20T09:50:53Z</time>
      </trkpt>
      <trkpt lat="45.92899" lon="4.73982">
        <ele>172</ele>
        <time>2018-08-20T09:50:55Z</time>
      </trkpt>
      <trkpt lat="45.92894" lon="4.73979">
        <ele>172</ele>
        <time>2018-08-20T09:50:56Z</time>
      </trkpt>
      <trkpt lat="45.92889" lon="4.73975">
        <ele>172</ele>
        <time>2018-08-20T09:50:57Z</time>
      </trkpt>
      <trkpt lat="45.92888" lon="4.73967">
        <ele>172</ele>
        <time>2018-08-20T09:50:58Z</time>
      </trkpt>
      <trkpt lat="45.92889" lon="4.73961">
        <ele>172</ele>
        <time>2018-08-20T09:50:59Z</time>
      </trkpt>
      <trkpt lat="45.92887" lon="4.73952">
        <ele>172</ele>
        <time>2018-08-20T09:51:00Z</time>
      </trkpt>
      <trkpt lat="45.92887" lon="4.73944">
        <ele>172</ele>
        <time>2018-08-20T09:51:01Z</time>
      </trkpt>
      <trkpt lat="45.92886" lon="4.73936">
        <ele>172</ele>
        <time>2018-08-20T09:51:02Z</time>
      </trkpt>
      <trkpt lat="45.92887" lon="4.73928">
        <ele>172</ele>
        <time>2018-08-20T09:51:03Z</time>
      </trkpt>
      <trkpt lat="45.92884" lon="4.73918">
        <ele>172</ele>
        <time>2018-08-20T09:51:04Z</time>
      </trkpt>
      <trkpt lat="45.92883" lon="4.7391">
        <ele>173</ele>
        <time>2018-08-20T09:51:05Z</time>
      </trkpt>
      <trkpt lat="45.9288" lon="4.73901">
        <ele>173</ele>
        <time>2018-08-20T09:51:06Z</time>
      </trkpt>
      <trkpt lat="45.92879" lon="4.73893">
        <ele>173</ele>
        <time>2018-08-20T09:51:07Z</time>
      </trkpt>
      <trkpt lat="45.92878" lon="4.73886">
        <ele>173</ele>
        <time>2018-08-20T09:51:08Z</time>
      </trkpt>
      <trkpt lat="45.92875" lon="4.73878">
        <ele>173</ele>
        <time>2018-08-20T09:51:09Z</time>
      </trkpt>
      <trkpt lat="45.92877" lon="4.73873">
        <ele>173</ele>
        <time>2018-08-20T09:51:10Z</time>
      </trkpt>
      <trkpt lat="45.92874" lon="4.73865">
        <ele>173</ele>
        <time>2018-08-20T09:51:11Z</time>
      </trkpt>
      <trkpt lat="45.92872" lon="4.73857">
        <ele>173</ele>
        <time>2018-08-20T09:51:12Z</time>
      </trkpt>
      <trkpt lat="45.9287" lon="4.73849">
        <ele>173</ele>
        <time>2018-08-20T09:51:14Z</time>
      </trkpt>
      <trkpt lat="45.92871" lon="4.7384">
        <ele>173</ele>
        <time>2018-08-20T09:51:15Z</time>
      </trkpt>
      <trkpt lat="45.92869" lon="4.73831">
        <ele>173</ele>
        <time>2018-08-20T09:51:16Z</time>
      </trkpt>
      <trkpt lat="45.92867" lon="4.73822">
        <ele>173</ele>
        <time>2018-08-20T09:51:17Z</time>
      </trkpt>
      <trkpt lat="45.92866" lon="4.73815">
        <ele>173</ele>
        <time>2018-08-20T09:51:18Z</time>
      </trkpt>
      <trkpt lat="45.92863" lon="4.7381">
        <ele>173</ele>
        <time>2018-08-20T09:51:19Z</time>
      </trkpt>
      <trkpt lat="45.92859" lon="4.73801">
        <ele>173</ele>
        <time>2018-08-20T09:51:22Z</time>
      </trkpt>
      <trkpt lat="45.92858" lon="4.73797">
        <ele>173</ele>
        <time>2018-08-20T09:51:23Z</time>
      </trkpt>
      <trkpt lat="45.92857" lon="4.73795">
        <ele>173</ele>
        <time>2018-08-20T09:51:24Z</time>
      </trkpt>
      <trkpt lat="45.92848" lon="4.73787">
        <ele>173</ele>
        <time>2018-08-20T09:51:25Z</time>
      </trkpt>
      <trkpt lat="45.92841" lon="4.73785">
        <ele>173</ele>
        <time>2018-08-20T09:51:27Z</time>
      </trkpt>
      <trkpt lat="45.92835" lon="4.73785">
        <ele>173</ele>
        <time>2018-08-20T09:51:28Z</time>
      </trkpt>
      <trkpt lat="45.92826" lon="4.73782">
        <ele>173</ele>
        <time>2018-08-20T09:51:31Z</time>
      </trkpt>
      <trkpt lat="45.92825" lon="4.73781">
        <ele>173</ele>
        <time>2018-08-20T09:51:32Z</time>
      </trkpt>
      <trkpt lat="45.92817" lon="4.73774">
        <ele>173</ele>
        <time>2018-08-20T09:51:35Z</time>
      </trkpt>
      <trkpt lat="45.92815" lon="4.73773">
        <ele>173</ele>
        <time>2018-08-20T09:51:36Z</time>
      </trkpt>
      <trkpt lat="45.92807" lon="4.73767">
        <ele>173</ele>
        <time>2018-08-20T09:51:38Z</time>
      </trkpt>
      <trkpt lat="45.92805" lon="4.73765">
        <ele>173</ele>
        <time>2018-08-20T09:51:39Z</time>
      </trkpt>
      <trkpt lat="45.92799" lon="4.73761">
        <ele>173</ele>
        <time>2018-08-20T09:51:40Z</time>
      </trkpt>
      <trkpt lat="45.92795" lon="4.73758">
        <ele>173</ele>
        <time>2018-08-20T09:51:41Z</time>
      </trkpt>
      <trkpt lat="45.92789" lon="4.73754">
        <ele>173</ele>
        <time>2018-08-20T09:51:43Z</time>
      </trkpt>
      <trkpt lat="45.92786" lon="4.7375">
        <ele>173</ele>
        <time>2018-08-20T09:51:44Z</time>
      </trkpt>
      <trkpt lat="45.92782" lon="4.7374">
        <ele>172</ele>
        <time>2018-08-20T09:51:46Z</time>
      </trkpt>
      <trkpt lat="45.92779" lon="4.73734">
        <ele>172</ele>
        <time>2018-08-20T09:51:47Z</time>
      </trkpt>
      <trkpt lat="45.92775" lon="4.73731">
        <ele>172</ele>
        <time>2018-08-20T09:51:48Z</time>
      </trkpt>
      <trkpt lat="45.92769" lon="4.73727">
        <ele>172</ele>
        <time>2018-08-20T09:51:49Z</time>
      </trkpt>
      <trkpt lat="45.92764" lon="4.73726">
        <ele>172</ele>
        <time>2018-08-20T09:51:50Z</time>
      </trkpt>
      <trkpt lat="45.9276" lon="4.73724">
        <ele>172</ele>
        <time>2018-08-20T09:51:51Z</time>
      </trkpt>
      <trkpt lat="45.92754" lon="4.73724">
        <ele>172</ele>
        <time>2018-08-20T09:51:52Z</time>
      </trkpt>
      <trkpt lat="45.92748" lon="4.73722">
        <ele>173</ele>
        <time>2018-08-20T09:51:53Z</time>
      </trkpt>
      <trkpt lat="45.9274" lon="4.73721">
        <ele>173</ele>
        <time>2018-08-20T09:51:54Z</time>
      </trkpt>
      <trkpt lat="45.92734" lon="4.73717">
        <ele>173</ele>
        <time>2018-08-20T09:51:55Z</time>
      </trkpt>
      <trkpt lat="45.92729" lon="4.73718">
        <ele>173</ele>
        <time>2018-08-20T09:51:56Z</time>
      </trkpt>
      <trkpt lat="45.92725" lon="4.73718">
        <ele>173</ele>
        <time>2018-08-20T09:51:57Z</time>
      </trkpt>
      <trkpt lat="45.9272" lon="4.7372">
        <ele>173</ele>
        <time>2018-08-20T09:51:58Z</time>
      </trkpt>
      <trkpt lat="45.92714" lon="4.73717">
        <ele>173</ele>
        <time>2018-08-20T09:51:59Z</time>
      </trkpt>
      <trkpt lat="45.9271" lon="4.73716">
        <ele>173</ele>
        <time>2018-08-20T09:52:00Z</time>
      </trkpt>
      <trkpt lat="45.92704" lon="4.73716">
        <ele>173</ele>
        <time>2018-08-20T09:52:01Z</time>
      </trkpt>
      <trkpt lat="45.92701" lon="4.73718">
        <ele>173</ele>
        <time>2018-08-20T09:52:02Z</time>
      </trkpt>
      <trkpt lat="45.92695" lon="4.73716">
        <ele>173</ele>
        <time>2018-08-20T09:52:03Z</time>
      </trkpt>
      <trkpt lat="45.92688" lon="4.73715">
        <ele>173</ele>
        <time>2018-08-20T09:52:04Z</time>
      </trkpt>
      <trkpt lat="45.92681" lon="4.73713">
        <ele>173</ele>
        <time>2018-08-20T09:52:05Z</time>
      </trkpt>
      <trkpt lat="45.92676" lon="4.73711">
        <ele>174</ele>
        <time>2018-08-20T09:52:06Z</time>
      </trkpt>
      <trkpt lat="45.9267" lon="4.73709">
        <ele>174</ele>
        <time>2018-08-20T09:52:07Z</time>
      </trkpt>
      <trkpt lat="45.92666" lon="4.73707">
        <ele>173</ele>
        <time>2018-08-20T09:52:08Z</time>
      </trkpt>
      <trkpt lat="45.92661" lon="4.73703">
        <ele>173</ele>
        <time>2018-08-20T09:52:09Z</time>
      </trkpt>
      <trkpt lat="45.92656" lon="4.73699">
        <ele>173</ele>
        <time>2018-08-20T09:52:10Z</time>
      </trkpt>
      <trkpt lat="45.92651" lon="4.73693">
        <ele>173</ele>
        <time>2018-08-20T09:52:11Z</time>
      </trkpt>
      <trkpt lat="45.92646" lon="4.73689">
        <ele>173</ele>
        <time>2018-08-20T09:52:12Z</time>
      </trkpt>
      <trkpt lat="45.92641" lon="4.73682">
        <ele>173</ele>
        <time>2018-08-20T09:52:13Z</time>
      </trkpt>
      <trkpt lat="45.92638" lon="4.73673">
        <ele>173</ele>
        <time>2018-08-20T09:52:15Z</time>
      </trkpt>
      <trkpt lat="45.92637" lon="4.73669">
        <ele>173</ele>
        <time>2018-08-20T09:52:16Z</time>
      </trkpt>
      <trkpt lat="45.92633" lon="4.73663">
        <ele>173</ele>
        <time>2018-08-20T09:52:17Z</time>
      </trkpt>
      <trkpt lat="45.92631" lon="4.73657">
        <ele>173</ele>
        <time>2018-08-20T09:52:18Z</time>
      </trkpt>
      <trkpt lat="45.92627" lon="4.73646">
        <ele>173</ele>
        <time>2018-08-20T09:52:20Z</time>
      </trkpt>
      <trkpt lat="45.92624" lon="4.73639">
        <ele>173</ele>
        <time>2018-08-20T09:52:21Z</time>
      </trkpt>
      <trkpt lat="45.92617" lon="4.73634">
        <ele>173</ele>
        <time>2018-08-20T09:52:23Z</time>
      </trkpt>
      <trkpt lat="45.92611" lon="4.73631">
        <ele>173</ele>
        <time>2018-08-20T09:52:24Z</time>
      </trkpt>
      <trkpt lat="45.92606" lon="4.73628">
        <ele>173</ele>
        <time>2018-08-20T09:52:25Z</time>
      </trkpt>
      <trkpt lat="45.926" lon="4.73627">
        <ele>173</ele>
        <time>2018-08-20T09:52:26Z</time>
      </trkpt>
      <trkpt lat="45.92594" lon="4.73625">
        <ele>173</ele>
        <time>2018-08-20T09:52:27Z</time>
      </trkpt>
      <trkpt lat="45.92591" lon="4.73627">
        <ele>172</ele>
        <time>2018-08-20T09:52:28Z</time>
      </trkpt>
      <trkpt lat="45.92587" lon="4.73631">
        <ele>172</ele>
        <time>2018-08-20T09:52:29Z</time>
      </trkpt>
      <trkpt lat="45.92581" lon="4.73632">
        <ele>173</ele>
        <time>2018-08-20T09:52:30Z</time>
      </trkpt>
      <trkpt lat="45.92578" lon="4.73634">
        <ele>172</ele>
        <time>2018-08-20T09:52:31Z</time>
      </trkpt>
      <trkpt lat="45.92571" lon="4.73635">
        <ele>173</ele>
        <time>2018-08-20T09:52:32Z</time>
      </trkpt>
      <trkpt lat="45.92566" lon="4.73637">
        <ele>173</ele>
        <time>2018-08-20T09:52:33Z</time>
      </trkpt>
      <trkpt lat="45.92559" lon="4.73637">
        <ele>173</ele>
        <time>2018-08-20T09:52:34Z</time>
      </trkpt>
      <trkpt lat="45.92551" lon="4.73635">
        <ele>173</ele>
        <time>2018-08-20T09:52:35Z</time>
      </trkpt>
      <trkpt lat="45.92545" lon="4.73635">
        <ele>173</ele>
        <time>2018-08-20T09:52:36Z</time>
      </trkpt>
      <trkpt lat="45.92541" lon="4.73639">
        <ele>173</ele>
        <time>2018-08-20T09:52:37Z</time>
      </trkpt>
      <trkpt lat="45.92535" lon="4.7364">
        <ele>173</ele>
        <time>2018-08-20T09:52:38Z</time>
      </trkpt>
      <trkpt lat="45.92529" lon="4.73639">
        <ele>173</ele>
        <time>2018-08-20T09:52:39Z</time>
      </trkpt>
      <trkpt lat="45.92522" lon="4.73636">
        <ele>173</ele>
        <time>2018-08-20T09:52:40Z</time>
      </trkpt>
      <trkpt lat="45.92514" lon="4.73638">
        <ele>173</ele>
        <time>2018-08-20T09:52:42Z</time>
      </trkpt>
      <trkpt lat="45.92509" lon="4.73638">
        <ele>174</ele>
        <time>2018-08-20T09:52:43Z</time>
      </trkpt>
      <trkpt lat="45.92503" lon="4.7364">
        <ele>174</ele>
        <time>2018-08-20T09:52:45Z</time>
      </trkpt>
      <trkpt lat="45.92498" lon="4.73643">
        <ele>174</ele>
        <time>2018-08-20T09:52:46Z</time>
      </trkpt>
      <trkpt lat="45.92494" lon="4.73643">
        <ele>174</ele>
        <time>2018-08-20T09:52:47Z</time>
      </trkpt>
      <trkpt lat="45.92489" lon="4.73641">
        <ele>174</ele>
        <time>2018-08-20T09:52:48Z</time>
      </trkpt>
      <trkpt lat="45.92481" lon="4.73641">
        <ele>174</ele>
        <time>2018-08-20T09:52:51Z</time>
      </trkpt>
      <trkpt lat="45.92479" lon="4.73641">
        <ele>174</ele>
        <time>2018-08-20T09:52:52Z</time>
      </trkpt>
      <trkpt lat="45.92475" lon="4.73645">
        <ele>174</ele>
        <time>2018-08-20T09:52:54Z</time>
      </trkpt>
      <trkpt lat="45.92472" lon="4.73656">
        <ele>174</ele>
        <time>2018-08-20T09:52:55Z</time>
      </trkpt>
      <trkpt lat="45.9247" lon="4.73665">
        <ele>174</ele>
        <time>2018-08-20T09:52:57Z</time>
      </trkpt>
      <trkpt lat="45.92469" lon="4.73672">
        <ele>174</ele>
        <time>2018-08-20T09:52:58Z</time>
      </trkpt>
      <trkpt lat="45.92468" lon="4.73684">
        <ele>174</ele>
        <time>2018-08-20T09:53:00Z</time>
      </trkpt>
      <trkpt lat="45.92468" lon="4.7369">
        <ele>174</ele>
        <time>2018-08-20T09:53:01Z</time>
      </trkpt>
      <trkpt lat="45.92467" lon="4.73702">
        <ele>174</ele>
        <time>2018-08-20T09:53:04Z</time>
      </trkpt>
      <trkpt lat="45.92466" lon="4.73704">
        <ele>174</ele>
        <time>2018-08-20T09:53:05Z</time>
      </trkpt>
      <trkpt lat="45.92458" lon="4.73706">
        <ele>174</ele>
        <time>2018-08-20T09:53:35.696Z</time>
      </trkpt>
    </trkseg>
  </trk>
</gpx>